<?xml version="1.0" encoding="UTF-8" standalone="no" ?>
<gpx xmlns="http://www.topografix.com/GPX/1/1" xmlns:xsi="http://www.w3.org/2001/XMLSchema-instance" xsi:schemaLocation="http://www.topografix.com/GPX/1/1 http://www.topografix.com/GPX/1/1/gpx.xsd" version="1.1" creator="VisuGPX - https://www.visugpx.com">
  <metadata>
    <name>Péaule</name>
    <desc><![CDATA[[titre] journée dans la campagne de Péaule et le long de la Villaine [/titre]]]></desc>
  </metadata>
  <trk>
    <name><![CDATA[Tracé 20250116-090759]]></name>
    <extensions>
      <line xmlns="http://www.topografix.com/GPX/gpx_style/0/2">
        <color>0000FF</color>
        <width>4</width>
      </line>
    </extensions>
    <trkseg>
      <trkpt lat="47.58793" lon="-2.31783">
        <ele>50.2</ele>
        <time>2025-01-16T08:07:59Z</time>
      </trkpt>
      <trkpt lat="47.58796" lon="-2.31781">
        <ele>50.6</ele>
        <time>2025-01-16T08:08:00Z</time>
      </trkpt>
      <trkpt lat="47.58795" lon="-2.31783">
        <ele>50.5</ele>
        <time>2025-01-16T08:08:01Z</time>
      </trkpt>
      <trkpt lat="47.58796" lon="-2.31784">
        <ele>50.6</ele>
        <time>2025-01-16T08:08:02Z</time>
      </trkpt>
      <trkpt lat="47.58798" lon="-2.31784">
        <ele>50.9</ele>
        <time>2025-01-16T08:08:03Z</time>
      </trkpt>
      <trkpt lat="47.58801" lon="-2.31782">
        <ele>51.3</ele>
        <time>2025-01-16T08:08:04Z</time>
      </trkpt>
      <trkpt lat="47.58801" lon="-2.31783">
        <ele>51.3</ele>
        <time>2025-01-16T08:08:05Z</time>
      </trkpt>
      <trkpt lat="47.58801" lon="-2.31783">
        <ele>51.3</ele>
        <time>2025-01-16T08:08:06Z</time>
      </trkpt>
      <trkpt lat="47.588" lon="-2.31783">
        <ele>51.2</ele>
        <time>2025-01-16T08:08:07Z</time>
      </trkpt>
      <trkpt lat="47.58798" lon="-2.31782">
        <ele>50.9</ele>
        <time>2025-01-16T08:08:08Z</time>
      </trkpt>
      <trkpt lat="47.58797" lon="-2.31782">
        <ele>50.8</ele>
        <time>2025-01-16T08:08:09Z</time>
      </trkpt>
      <trkpt lat="47.58797" lon="-2.31782">
        <ele>50.8</ele>
        <time>2025-01-16T08:08:10Z</time>
      </trkpt>
      <trkpt lat="47.58797" lon="-2.31782">
        <ele>50.8</ele>
        <time>2025-01-16T08:08:11Z</time>
      </trkpt>
      <trkpt lat="47.58797" lon="-2.31782">
        <ele>50.8</ele>
        <time>2025-01-16T08:08:12Z</time>
      </trkpt>
      <trkpt lat="47.58796" lon="-2.31782">
        <ele>50.6</ele>
        <time>2025-01-16T08:08:13Z</time>
      </trkpt>
      <trkpt lat="47.58796" lon="-2.31782">
        <ele>50.6</ele>
        <time>2025-01-16T08:08:14Z</time>
      </trkpt>
      <trkpt lat="47.58796" lon="-2.31782">
        <ele>50.6</ele>
        <time>2025-01-16T08:08:15Z</time>
      </trkpt>
      <trkpt lat="47.58796" lon="-2.31782">
        <ele>50.6</ele>
        <time>2025-01-16T08:08:16Z</time>
      </trkpt>
      <trkpt lat="47.58795" lon="-2.31782">
        <ele>50.5</ele>
        <time>2025-01-16T08:08:17Z</time>
      </trkpt>
      <trkpt lat="47.58793" lon="-2.31782">
        <ele>50.2</ele>
        <time>2025-01-16T08:08:18Z</time>
      </trkpt>
      <trkpt lat="47.58791" lon="-2.31782">
        <ele>49.9</ele>
        <time>2025-01-16T08:08:19Z</time>
      </trkpt>
      <trkpt lat="47.58791" lon="-2.31782">
        <ele>49.9</ele>
        <time>2025-01-16T08:08:20Z</time>
      </trkpt>
      <trkpt lat="47.5879" lon="-2.31782">
        <ele>49.8</ele>
        <time>2025-01-16T08:08:21Z</time>
      </trkpt>
      <trkpt lat="47.58789" lon="-2.31782">
        <ele>49.6</ele>
        <time>2025-01-16T08:08:22Z</time>
      </trkpt>
      <trkpt lat="47.58788" lon="-2.31782">
        <ele>49.5</ele>
        <time>2025-01-16T08:08:23Z</time>
      </trkpt>
      <trkpt lat="47.58788" lon="-2.31782">
        <ele>49.5</ele>
        <time>2025-01-16T08:08:24Z</time>
      </trkpt>
      <trkpt lat="47.58788" lon="-2.31782">
        <ele>49.5</ele>
        <time>2025-01-16T08:08:25Z</time>
      </trkpt>
      <trkpt lat="47.58787" lon="-2.31782">
        <ele>49.3</ele>
        <time>2025-01-16T08:08:26Z</time>
      </trkpt>
      <trkpt lat="47.58788" lon="-2.31782">
        <ele>49.5</ele>
        <time>2025-01-16T08:08:27Z</time>
      </trkpt>
      <trkpt lat="47.58788" lon="-2.31782">
        <ele>49.5</ele>
        <time>2025-01-16T08:08:28Z</time>
      </trkpt>
      <trkpt lat="47.58788" lon="-2.31782">
        <ele>49.5</ele>
        <time>2025-01-16T08:08:29Z</time>
      </trkpt>
      <trkpt lat="47.58788" lon="-2.31782">
        <ele>49.5</ele>
        <time>2025-01-16T08:08:31Z</time>
      </trkpt>
      <trkpt lat="47.58787" lon="-2.31782">
        <ele>49.3</ele>
        <time>2025-01-16T08:08:32Z</time>
      </trkpt>
      <trkpt lat="47.58787" lon="-2.31782">
        <ele>49.3</ele>
        <time>2025-01-16T08:08:33Z</time>
      </trkpt>
      <trkpt lat="47.58787" lon="-2.31781">
        <ele>49.3</ele>
        <time>2025-01-16T08:08:34Z</time>
      </trkpt>
      <trkpt lat="47.58787" lon="-2.31781">
        <ele>49.3</ele>
        <time>2025-01-16T08:08:35Z</time>
      </trkpt>
      <trkpt lat="47.58787" lon="-2.31781">
        <ele>49.3</ele>
        <time>2025-01-16T08:08:36Z</time>
      </trkpt>
      <trkpt lat="47.58787" lon="-2.31781">
        <ele>49.3</ele>
        <time>2025-01-16T08:08:37Z</time>
      </trkpt>
      <trkpt lat="47.58788" lon="-2.31781">
        <ele>49.5</ele>
        <time>2025-01-16T08:08:38Z</time>
      </trkpt>
      <trkpt lat="47.58786" lon="-2.31781">
        <ele>49.2</ele>
        <time>2025-01-16T08:08:39Z</time>
      </trkpt>
      <trkpt lat="47.58786" lon="-2.31781">
        <ele>49.2</ele>
        <time>2025-01-16T08:08:40Z</time>
      </trkpt>
      <trkpt lat="47.58786" lon="-2.31781">
        <ele>49.2</ele>
        <time>2025-01-16T08:08:41Z</time>
      </trkpt>
      <trkpt lat="47.58786" lon="-2.31781">
        <ele>49.2</ele>
        <time>2025-01-16T08:08:42Z</time>
      </trkpt>
      <trkpt lat="47.58786" lon="-2.31781">
        <ele>49.2</ele>
        <time>2025-01-16T08:08:43Z</time>
      </trkpt>
      <trkpt lat="47.58786" lon="-2.31781">
        <ele>49.2</ele>
        <time>2025-01-16T08:08:44Z</time>
      </trkpt>
      <trkpt lat="47.58786" lon="-2.31781">
        <ele>49.2</ele>
        <time>2025-01-16T08:08:45Z</time>
      </trkpt>
      <trkpt lat="47.58786" lon="-2.31781">
        <ele>49.2</ele>
        <time>2025-01-16T08:08:46Z</time>
      </trkpt>
      <trkpt lat="47.58786" lon="-2.31781">
        <ele>49.2</ele>
        <time>2025-01-16T08:08:47Z</time>
      </trkpt>
      <trkpt lat="47.58785" lon="-2.31781">
        <ele>49</ele>
        <time>2025-01-16T08:08:48Z</time>
      </trkpt>
      <trkpt lat="47.58785" lon="-2.31781">
        <ele>49</ele>
        <time>2025-01-16T08:08:49Z</time>
      </trkpt>
      <trkpt lat="47.58785" lon="-2.3178">
        <ele>49</ele>
        <time>2025-01-16T08:08:50Z</time>
      </trkpt>
      <trkpt lat="47.58784" lon="-2.3178">
        <ele>48.9</ele>
        <time>2025-01-16T08:08:51Z</time>
      </trkpt>
      <trkpt lat="47.58784" lon="-2.3178">
        <ele>48.9</ele>
        <time>2025-01-16T08:08:52Z</time>
      </trkpt>
      <trkpt lat="47.58784" lon="-2.3178">
        <ele>48.9</ele>
        <time>2025-01-16T08:08:53Z</time>
      </trkpt>
      <trkpt lat="47.58784" lon="-2.3178">
        <ele>48.9</ele>
        <time>2025-01-16T08:08:54Z</time>
      </trkpt>
      <trkpt lat="47.58784" lon="-2.3178">
        <ele>48.9</ele>
        <time>2025-01-16T08:08:55Z</time>
      </trkpt>
      <trkpt lat="47.58783" lon="-2.31781">
        <ele>48.8</ele>
        <time>2025-01-16T08:08:56Z</time>
      </trkpt>
      <trkpt lat="47.58783" lon="-2.31781">
        <ele>48.8</ele>
        <time>2025-01-16T08:08:57Z</time>
      </trkpt>
      <trkpt lat="47.58783" lon="-2.3178">
        <ele>48.8</ele>
        <time>2025-01-16T08:08:58Z</time>
      </trkpt>
      <trkpt lat="47.58783" lon="-2.3178">
        <ele>48.8</ele>
        <time>2025-01-16T08:08:59Z</time>
      </trkpt>
      <trkpt lat="47.58783" lon="-2.3178">
        <ele>48.8</ele>
        <time>2025-01-16T08:09:00Z</time>
      </trkpt>
      <trkpt lat="47.58783" lon="-2.3178">
        <ele>48.8</ele>
        <time>2025-01-16T08:09:01Z</time>
      </trkpt>
      <trkpt lat="47.58782" lon="-2.3178">
        <ele>48.6</ele>
        <time>2025-01-16T08:09:02Z</time>
      </trkpt>
      <trkpt lat="47.58783" lon="-2.31779">
        <ele>48.8</ele>
        <time>2025-01-16T08:09:03Z</time>
      </trkpt>
      <trkpt lat="47.58783" lon="-2.3178">
        <ele>48.8</ele>
        <time>2025-01-16T08:09:04Z</time>
      </trkpt>
      <trkpt lat="47.58783" lon="-2.3178">
        <ele>48.8</ele>
        <time>2025-01-16T08:09:05Z</time>
      </trkpt>
      <trkpt lat="47.58783" lon="-2.3178">
        <ele>48.8</ele>
        <time>2025-01-16T08:09:06Z</time>
      </trkpt>
      <trkpt lat="47.58783" lon="-2.3178">
        <ele>48.8</ele>
        <time>2025-01-16T08:09:07Z</time>
      </trkpt>
      <trkpt lat="47.58783" lon="-2.3178">
        <ele>48.8</ele>
        <time>2025-01-16T08:09:08Z</time>
      </trkpt>
      <trkpt lat="47.58783" lon="-2.3178">
        <ele>48.8</ele>
        <time>2025-01-16T08:09:09Z</time>
      </trkpt>
      <trkpt lat="47.58783" lon="-2.3178">
        <ele>48.8</ele>
        <time>2025-01-16T08:09:10Z</time>
      </trkpt>
      <trkpt lat="47.58783" lon="-2.31781">
        <ele>48.8</ele>
        <time>2025-01-16T08:09:11Z</time>
      </trkpt>
      <trkpt lat="47.58783" lon="-2.31781">
        <ele>48.8</ele>
        <time>2025-01-16T08:09:12Z</time>
      </trkpt>
      <trkpt lat="47.58783" lon="-2.31779">
        <ele>48.8</ele>
        <time>2025-01-16T08:09:13Z</time>
      </trkpt>
      <trkpt lat="47.58783" lon="-2.31779">
        <ele>48.8</ele>
        <time>2025-01-16T08:09:14Z</time>
      </trkpt>
      <trkpt lat="47.58783" lon="-2.31779">
        <ele>48.8</ele>
        <time>2025-01-16T08:09:15Z</time>
      </trkpt>
      <trkpt lat="47.58783" lon="-2.3178">
        <ele>48.8</ele>
        <time>2025-01-16T08:09:16Z</time>
      </trkpt>
      <trkpt lat="47.58783" lon="-2.3178">
        <ele>48.8</ele>
        <time>2025-01-16T08:09:17Z</time>
      </trkpt>
      <trkpt lat="47.58783" lon="-2.3178">
        <ele>48.8</ele>
        <time>2025-01-16T08:09:18Z</time>
      </trkpt>
      <trkpt lat="47.58783" lon="-2.31781">
        <ele>48.8</ele>
        <time>2025-01-16T08:09:19Z</time>
      </trkpt>
      <trkpt lat="47.58783" lon="-2.31781">
        <ele>48.8</ele>
        <time>2025-01-16T08:09:20Z</time>
      </trkpt>
      <trkpt lat="47.58783" lon="-2.31781">
        <ele>48.8</ele>
        <time>2025-01-16T08:09:21Z</time>
      </trkpt>
      <trkpt lat="47.58783" lon="-2.31781">
        <ele>48.8</ele>
        <time>2025-01-16T08:09:22Z</time>
      </trkpt>
      <trkpt lat="47.58783" lon="-2.31781">
        <ele>48.8</ele>
        <time>2025-01-16T08:09:23Z</time>
      </trkpt>
      <trkpt lat="47.58783" lon="-2.31781">
        <ele>48.8</ele>
        <time>2025-01-16T08:09:24Z</time>
      </trkpt>
      <trkpt lat="47.58783" lon="-2.31781">
        <ele>48.8</ele>
        <time>2025-01-16T08:09:25Z</time>
      </trkpt>
      <trkpt lat="47.58783" lon="-2.3178">
        <ele>48.8</ele>
        <time>2025-01-16T08:09:26Z</time>
      </trkpt>
      <trkpt lat="47.58783" lon="-2.3178">
        <ele>48.8</ele>
        <time>2025-01-16T08:09:27Z</time>
      </trkpt>
      <trkpt lat="47.58783" lon="-2.31781">
        <ele>48.8</ele>
        <time>2025-01-16T08:09:28Z</time>
      </trkpt>
      <trkpt lat="47.58783" lon="-2.31781">
        <ele>48.8</ele>
        <time>2025-01-16T08:09:29Z</time>
      </trkpt>
      <trkpt lat="47.58783" lon="-2.31781">
        <ele>48.8</ele>
        <time>2025-01-16T08:09:30Z</time>
      </trkpt>
      <trkpt lat="47.58783" lon="-2.31781">
        <ele>48.8</ele>
        <time>2025-01-16T08:09:31Z</time>
      </trkpt>
      <trkpt lat="47.58783" lon="-2.31781">
        <ele>48.8</ele>
        <time>2025-01-16T08:09:32Z</time>
      </trkpt>
      <trkpt lat="47.58784" lon="-2.31781">
        <ele>48.9</ele>
        <time>2025-01-16T08:09:33Z</time>
      </trkpt>
      <trkpt lat="47.58784" lon="-2.31781">
        <ele>48.9</ele>
        <time>2025-01-16T08:09:34Z</time>
      </trkpt>
      <trkpt lat="47.58783" lon="-2.31781">
        <ele>48.8</ele>
        <time>2025-01-16T08:09:35Z</time>
      </trkpt>
      <trkpt lat="47.58783" lon="-2.31781">
        <ele>48.8</ele>
        <time>2025-01-16T08:09:36Z</time>
      </trkpt>
      <trkpt lat="47.58783" lon="-2.31781">
        <ele>48.8</ele>
        <time>2025-01-16T08:09:37Z</time>
      </trkpt>
      <trkpt lat="47.58783" lon="-2.31781">
        <ele>48.8</ele>
        <time>2025-01-16T08:09:38Z</time>
      </trkpt>
      <trkpt lat="47.58783" lon="-2.31781">
        <ele>48.8</ele>
        <time>2025-01-16T08:09:39Z</time>
      </trkpt>
      <trkpt lat="47.58782" lon="-2.31781">
        <ele>48.6</ele>
        <time>2025-01-16T08:09:40Z</time>
      </trkpt>
      <trkpt lat="47.58782" lon="-2.31781">
        <ele>48.6</ele>
        <time>2025-01-16T08:09:41Z</time>
      </trkpt>
      <trkpt lat="47.58782" lon="-2.31781">
        <ele>48.6</ele>
        <time>2025-01-16T08:09:42Z</time>
      </trkpt>
      <trkpt lat="47.58782" lon="-2.31781">
        <ele>48.6</ele>
        <time>2025-01-16T08:09:43Z</time>
      </trkpt>
      <trkpt lat="47.58782" lon="-2.31781">
        <ele>48.6</ele>
        <time>2025-01-16T08:09:44Z</time>
      </trkpt>
      <trkpt lat="47.58782" lon="-2.31781">
        <ele>48.6</ele>
        <time>2025-01-16T08:09:45Z</time>
      </trkpt>
      <trkpt lat="47.58782" lon="-2.31781">
        <ele>48.6</ele>
        <time>2025-01-16T08:09:46Z</time>
      </trkpt>
      <trkpt lat="47.58782" lon="-2.31781">
        <ele>48.6</ele>
        <time>2025-01-16T08:09:47Z</time>
      </trkpt>
      <trkpt lat="47.58782" lon="-2.31781">
        <ele>48.6</ele>
        <time>2025-01-16T08:09:48Z</time>
      </trkpt>
      <trkpt lat="47.58782" lon="-2.31781">
        <ele>48.6</ele>
        <time>2025-01-16T08:09:49Z</time>
      </trkpt>
      <trkpt lat="47.58782" lon="-2.31781">
        <ele>48.6</ele>
        <time>2025-01-16T08:09:50Z</time>
      </trkpt>
      <trkpt lat="47.58782" lon="-2.31781">
        <ele>48.6</ele>
        <time>2025-01-16T08:09:51Z</time>
      </trkpt>
      <trkpt lat="47.58783" lon="-2.31781">
        <ele>48.8</ele>
        <time>2025-01-16T08:09:52Z</time>
      </trkpt>
      <trkpt lat="47.58783" lon="-2.31781">
        <ele>48.8</ele>
        <time>2025-01-16T08:09:53Z</time>
      </trkpt>
      <trkpt lat="47.58783" lon="-2.3178">
        <ele>48.8</ele>
        <time>2025-01-16T08:09:54Z</time>
      </trkpt>
      <trkpt lat="47.58783" lon="-2.3178">
        <ele>48.8</ele>
        <time>2025-01-16T08:09:55Z</time>
      </trkpt>
      <trkpt lat="47.58783" lon="-2.3178">
        <ele>48.8</ele>
        <time>2025-01-16T08:09:56Z</time>
      </trkpt>
      <trkpt lat="47.58782" lon="-2.3178">
        <ele>48.6</ele>
        <time>2025-01-16T08:09:57Z</time>
      </trkpt>
      <trkpt lat="47.58782" lon="-2.3178">
        <ele>48.6</ele>
        <time>2025-01-16T08:09:58Z</time>
      </trkpt>
      <trkpt lat="47.58782" lon="-2.3178">
        <ele>48.6</ele>
        <time>2025-01-16T08:09:59Z</time>
      </trkpt>
      <trkpt lat="47.58782" lon="-2.3178">
        <ele>48.6</ele>
        <time>2025-01-16T08:10:00Z</time>
      </trkpt>
      <trkpt lat="47.58782" lon="-2.3178">
        <ele>48.6</ele>
        <time>2025-01-16T08:10:01Z</time>
      </trkpt>
      <trkpt lat="47.58783" lon="-2.31779">
        <ele>48.8</ele>
        <time>2025-01-16T08:10:02Z</time>
      </trkpt>
      <trkpt lat="47.58783" lon="-2.31779">
        <ele>48.8</ele>
        <time>2025-01-16T08:10:03Z</time>
      </trkpt>
      <trkpt lat="47.58783" lon="-2.31778">
        <ele>48.8</ele>
        <time>2025-01-16T08:10:04Z</time>
      </trkpt>
      <trkpt lat="47.58783" lon="-2.31776">
        <ele>48.8</ele>
        <time>2025-01-16T08:10:05Z</time>
      </trkpt>
      <trkpt lat="47.58783" lon="-2.31776">
        <ele>48.8</ele>
        <time>2025-01-16T08:10:06Z</time>
      </trkpt>
      <trkpt lat="47.58782" lon="-2.31776">
        <ele>48.6</ele>
        <time>2025-01-16T08:10:07Z</time>
      </trkpt>
      <trkpt lat="47.58782" lon="-2.31775">
        <ele>48.6</ele>
        <time>2025-01-16T08:10:08Z</time>
      </trkpt>
      <trkpt lat="47.58782" lon="-2.31775">
        <ele>48.6</ele>
        <time>2025-01-16T08:10:09Z</time>
      </trkpt>
      <trkpt lat="47.58782" lon="-2.31775">
        <ele>48.6</ele>
        <time>2025-01-16T08:10:10Z</time>
      </trkpt>
      <trkpt lat="47.58783" lon="-2.31775">
        <ele>48.8</ele>
        <time>2025-01-16T08:10:11Z</time>
      </trkpt>
      <trkpt lat="47.58783" lon="-2.31775">
        <ele>48.8</ele>
        <time>2025-01-16T08:10:12Z</time>
      </trkpt>
      <trkpt lat="47.58784" lon="-2.31776">
        <ele>48.9</ele>
        <time>2025-01-16T08:10:13Z</time>
      </trkpt>
      <trkpt lat="47.58784" lon="-2.31776">
        <ele>48.9</ele>
        <time>2025-01-16T08:10:14Z</time>
      </trkpt>
      <trkpt lat="47.58784" lon="-2.31776">
        <ele>48.9</ele>
        <time>2025-01-16T08:10:15Z</time>
      </trkpt>
      <trkpt lat="47.58784" lon="-2.31776">
        <ele>48.9</ele>
        <time>2025-01-16T08:10:16Z</time>
      </trkpt>
      <trkpt lat="47.58784" lon="-2.31775">
        <ele>48.9</ele>
        <time>2025-01-16T08:10:17Z</time>
      </trkpt>
      <trkpt lat="47.58784" lon="-2.31775">
        <ele>48.9</ele>
        <time>2025-01-16T08:10:18Z</time>
      </trkpt>
      <trkpt lat="47.58784" lon="-2.31776">
        <ele>48.9</ele>
        <time>2025-01-16T08:10:19Z</time>
      </trkpt>
      <trkpt lat="47.58784" lon="-2.31777">
        <ele>48.9</ele>
        <time>2025-01-16T08:10:20Z</time>
      </trkpt>
      <trkpt lat="47.58785" lon="-2.31777">
        <ele>49</ele>
        <time>2025-01-16T08:10:21Z</time>
      </trkpt>
      <trkpt lat="47.58785" lon="-2.31778">
        <ele>49</ele>
        <time>2025-01-16T08:10:22Z</time>
      </trkpt>
      <trkpt lat="47.58786" lon="-2.31779">
        <ele>49.2</ele>
        <time>2025-01-16T08:10:23Z</time>
      </trkpt>
      <trkpt lat="47.58786" lon="-2.31782">
        <ele>49.2</ele>
        <time>2025-01-16T08:10:25Z</time>
      </trkpt>
      <trkpt lat="47.58787" lon="-2.31782">
        <ele>49.3</ele>
        <time>2025-01-16T08:10:26Z</time>
      </trkpt>
      <trkpt lat="47.58787" lon="-2.31781">
        <ele>49.3</ele>
        <time>2025-01-16T08:10:27Z</time>
      </trkpt>
      <trkpt lat="47.58787" lon="-2.31781">
        <ele>49.3</ele>
        <time>2025-01-16T08:10:28Z</time>
      </trkpt>
      <trkpt lat="47.58787" lon="-2.31781">
        <ele>49.3</ele>
        <time>2025-01-16T08:10:29Z</time>
      </trkpt>
      <trkpt lat="47.58786" lon="-2.31781">
        <ele>49.2</ele>
        <time>2025-01-16T08:10:30Z</time>
      </trkpt>
      <trkpt lat="47.58786" lon="-2.31781">
        <ele>49.2</ele>
        <time>2025-01-16T08:10:31Z</time>
      </trkpt>
      <trkpt lat="47.58786" lon="-2.31781">
        <ele>49.2</ele>
        <time>2025-01-16T08:10:32Z</time>
      </trkpt>
      <trkpt lat="47.58785" lon="-2.31781">
        <ele>49</ele>
        <time>2025-01-16T08:10:33Z</time>
      </trkpt>
      <trkpt lat="47.58785" lon="-2.31781">
        <ele>49</ele>
        <time>2025-01-16T08:10:34Z</time>
      </trkpt>
      <trkpt lat="47.58785" lon="-2.31781">
        <ele>49</ele>
        <time>2025-01-16T08:10:35Z</time>
      </trkpt>
      <trkpt lat="47.58785" lon="-2.31782">
        <ele>49</ele>
        <time>2025-01-16T08:10:36Z</time>
      </trkpt>
      <trkpt lat="47.58785" lon="-2.31783">
        <ele>49</ele>
        <time>2025-01-16T08:10:37Z</time>
      </trkpt>
      <trkpt lat="47.58784" lon="-2.31784">
        <ele>48.9</ele>
        <time>2025-01-16T08:10:38Z</time>
      </trkpt>
      <trkpt lat="47.58784" lon="-2.31784">
        <ele>48.9</ele>
        <time>2025-01-16T08:10:39Z</time>
      </trkpt>
      <trkpt lat="47.58784" lon="-2.31784">
        <ele>48.9</ele>
        <time>2025-01-16T08:10:40Z</time>
      </trkpt>
      <trkpt lat="47.58784" lon="-2.31784">
        <ele>48.9</ele>
        <time>2025-01-16T08:10:41Z</time>
      </trkpt>
      <trkpt lat="47.58784" lon="-2.31783">
        <ele>48.9</ele>
        <time>2025-01-16T08:10:42Z</time>
      </trkpt>
      <trkpt lat="47.58784" lon="-2.31783">
        <ele>48.9</ele>
        <time>2025-01-16T08:10:43Z</time>
      </trkpt>
      <trkpt lat="47.58784" lon="-2.31783">
        <ele>48.9</ele>
        <time>2025-01-16T08:10:44Z</time>
      </trkpt>
      <trkpt lat="47.58783" lon="-2.31783">
        <ele>48.8</ele>
        <time>2025-01-16T08:10:45Z</time>
      </trkpt>
      <trkpt lat="47.58783" lon="-2.31783">
        <ele>48.8</ele>
        <time>2025-01-16T08:10:46Z</time>
      </trkpt>
      <trkpt lat="47.58784" lon="-2.31781">
        <ele>48.9</ele>
        <time>2025-01-16T08:10:47Z</time>
      </trkpt>
      <trkpt lat="47.58784" lon="-2.3178">
        <ele>48.9</ele>
        <time>2025-01-16T08:10:48Z</time>
      </trkpt>
      <trkpt lat="47.58785" lon="-2.31779">
        <ele>49</ele>
        <time>2025-01-16T08:10:49Z</time>
      </trkpt>
      <trkpt lat="47.58785" lon="-2.31778">
        <ele>49</ele>
        <time>2025-01-16T08:10:50Z</time>
      </trkpt>
      <trkpt lat="47.58786" lon="-2.31778">
        <ele>49.2</ele>
        <time>2025-01-16T08:10:51Z</time>
      </trkpt>
      <trkpt lat="47.58786" lon="-2.31778">
        <ele>49.2</ele>
        <time>2025-01-16T08:10:52Z</time>
      </trkpt>
      <trkpt lat="47.58786" lon="-2.31778">
        <ele>49.2</ele>
        <time>2025-01-16T08:10:53Z</time>
      </trkpt>
      <trkpt lat="47.58786" lon="-2.31777">
        <ele>49.2</ele>
        <time>2025-01-16T08:10:54Z</time>
      </trkpt>
      <trkpt lat="47.58786" lon="-2.31776">
        <ele>49.2</ele>
        <time>2025-01-16T08:10:55Z</time>
      </trkpt>
      <trkpt lat="47.58786" lon="-2.31775">
        <ele>49.2</ele>
        <time>2025-01-16T08:10:56Z</time>
      </trkpt>
      <trkpt lat="47.58787" lon="-2.31773">
        <ele>49.3</ele>
        <time>2025-01-16T08:10:57Z</time>
      </trkpt>
      <trkpt lat="47.58787" lon="-2.31772">
        <ele>49.3</ele>
        <time>2025-01-16T08:10:58Z</time>
      </trkpt>
      <trkpt lat="47.58787" lon="-2.31771">
        <ele>49.3</ele>
        <time>2025-01-16T08:10:59Z</time>
      </trkpt>
      <trkpt lat="47.58788" lon="-2.31771">
        <ele>49.5</ele>
        <time>2025-01-16T08:11:00Z</time>
      </trkpt>
      <trkpt lat="47.58788" lon="-2.31771">
        <ele>49.5</ele>
        <time>2025-01-16T08:11:01Z</time>
      </trkpt>
      <trkpt lat="47.58788" lon="-2.31771">
        <ele>49.5</ele>
        <time>2025-01-16T08:11:02Z</time>
      </trkpt>
      <trkpt lat="47.58789" lon="-2.31772">
        <ele>49.6</ele>
        <time>2025-01-16T08:11:03Z</time>
      </trkpt>
      <trkpt lat="47.58789" lon="-2.31772">
        <ele>49.6</ele>
        <time>2025-01-16T08:11:04Z</time>
      </trkpt>
      <trkpt lat="47.58789" lon="-2.31772">
        <ele>49.6</ele>
        <time>2025-01-16T08:11:05Z</time>
      </trkpt>
      <trkpt lat="47.58789" lon="-2.31772">
        <ele>49.6</ele>
        <time>2025-01-16T08:11:06Z</time>
      </trkpt>
      <trkpt lat="47.58789" lon="-2.31772">
        <ele>49.6</ele>
        <time>2025-01-16T08:11:07Z</time>
      </trkpt>
      <trkpt lat="47.58789" lon="-2.31772">
        <ele>49.6</ele>
        <time>2025-01-16T08:11:08Z</time>
      </trkpt>
      <trkpt lat="47.58789" lon="-2.31772">
        <ele>49.6</ele>
        <time>2025-01-16T08:11:09Z</time>
      </trkpt>
      <trkpt lat="47.58789" lon="-2.31772">
        <ele>49.6</ele>
        <time>2025-01-16T08:11:10Z</time>
      </trkpt>
      <trkpt lat="47.58789" lon="-2.31772">
        <ele>49.6</ele>
        <time>2025-01-16T08:11:11Z</time>
      </trkpt>
      <trkpt lat="47.58788" lon="-2.31772">
        <ele>49.5</ele>
        <time>2025-01-16T08:11:12Z</time>
      </trkpt>
      <trkpt lat="47.58788" lon="-2.31772">
        <ele>49.5</ele>
        <time>2025-01-16T08:11:13Z</time>
      </trkpt>
      <trkpt lat="47.58788" lon="-2.31772">
        <ele>49.5</ele>
        <time>2025-01-16T08:11:14Z</time>
      </trkpt>
      <trkpt lat="47.58788" lon="-2.31772">
        <ele>49.5</ele>
        <time>2025-01-16T08:11:15Z</time>
      </trkpt>
      <trkpt lat="47.58788" lon="-2.31772">
        <ele>49.5</ele>
        <time>2025-01-16T08:11:16Z</time>
      </trkpt>
      <trkpt lat="47.58788" lon="-2.31772">
        <ele>49.5</ele>
        <time>2025-01-16T08:11:17Z</time>
      </trkpt>
      <trkpt lat="47.58788" lon="-2.31772">
        <ele>49.5</ele>
        <time>2025-01-16T08:11:18Z</time>
      </trkpt>
      <trkpt lat="47.58788" lon="-2.31771">
        <ele>49.5</ele>
        <time>2025-01-16T08:11:19Z</time>
      </trkpt>
      <trkpt lat="47.58788" lon="-2.31771">
        <ele>49.5</ele>
        <time>2025-01-16T08:11:20Z</time>
      </trkpt>
      <trkpt lat="47.58788" lon="-2.31771">
        <ele>49.5</ele>
        <time>2025-01-16T08:11:21Z</time>
      </trkpt>
      <trkpt lat="47.58788" lon="-2.31772">
        <ele>49.5</ele>
        <time>2025-01-16T08:11:22Z</time>
      </trkpt>
      <trkpt lat="47.58788" lon="-2.31772">
        <ele>49.5</ele>
        <time>2025-01-16T08:11:23Z</time>
      </trkpt>
      <trkpt lat="47.58788" lon="-2.31773">
        <ele>49.5</ele>
        <time>2025-01-16T08:11:24Z</time>
      </trkpt>
      <trkpt lat="47.58788" lon="-2.31773">
        <ele>49.5</ele>
        <time>2025-01-16T08:11:25Z</time>
      </trkpt>
      <trkpt lat="47.58788" lon="-2.31774">
        <ele>49.5</ele>
        <time>2025-01-16T08:11:26Z</time>
      </trkpt>
      <trkpt lat="47.58788" lon="-2.31774">
        <ele>49.5</ele>
        <time>2025-01-16T08:11:27Z</time>
      </trkpt>
      <trkpt lat="47.58788" lon="-2.31774">
        <ele>49.5</ele>
        <time>2025-01-16T08:11:28Z</time>
      </trkpt>
      <trkpt lat="47.58788" lon="-2.31774">
        <ele>49.5</ele>
        <time>2025-01-16T08:11:29Z</time>
      </trkpt>
      <trkpt lat="47.58788" lon="-2.31774">
        <ele>49.5</ele>
        <time>2025-01-16T08:11:30Z</time>
      </trkpt>
      <trkpt lat="47.58787" lon="-2.31773">
        <ele>49.3</ele>
        <time>2025-01-16T08:11:31Z</time>
      </trkpt>
      <trkpt lat="47.58787" lon="-2.31772">
        <ele>49.3</ele>
        <time>2025-01-16T08:11:32Z</time>
      </trkpt>
      <trkpt lat="47.58787" lon="-2.31771">
        <ele>49.3</ele>
        <time>2025-01-16T08:11:33Z</time>
      </trkpt>
      <trkpt lat="47.58787" lon="-2.31769">
        <ele>49.3</ele>
        <time>2025-01-16T08:11:34Z</time>
      </trkpt>
      <trkpt lat="47.58787" lon="-2.31768">
        <ele>49.3</ele>
        <time>2025-01-16T08:11:35Z</time>
      </trkpt>
      <trkpt lat="47.58787" lon="-2.31767">
        <ele>49.3</ele>
        <time>2025-01-16T08:11:36Z</time>
      </trkpt>
      <trkpt lat="47.58787" lon="-2.31765">
        <ele>49.3</ele>
        <time>2025-01-16T08:11:37Z</time>
      </trkpt>
      <trkpt lat="47.58787" lon="-2.31764">
        <ele>49.3</ele>
        <time>2025-01-16T08:11:38Z</time>
      </trkpt>
      <trkpt lat="47.58788" lon="-2.31762">
        <ele>49.5</ele>
        <time>2025-01-16T08:11:39Z</time>
      </trkpt>
      <trkpt lat="47.58788" lon="-2.31761">
        <ele>49.5</ele>
        <time>2025-01-16T08:11:40Z</time>
      </trkpt>
      <trkpt lat="47.58788" lon="-2.31759">
        <ele>49.5</ele>
        <time>2025-01-16T08:11:41Z</time>
      </trkpt>
      <trkpt lat="47.58788" lon="-2.31758">
        <ele>49.5</ele>
        <time>2025-01-16T08:11:42Z</time>
      </trkpt>
      <trkpt lat="47.58788" lon="-2.31756">
        <ele>49.5</ele>
        <time>2025-01-16T08:11:43Z</time>
      </trkpt>
      <trkpt lat="47.58788" lon="-2.31754">
        <ele>49.5</ele>
        <time>2025-01-16T08:11:44Z</time>
      </trkpt>
      <trkpt lat="47.58788" lon="-2.31753">
        <ele>49.5</ele>
        <time>2025-01-16T08:11:45Z</time>
      </trkpt>
      <trkpt lat="47.58789" lon="-2.31751">
        <ele>49.6</ele>
        <time>2025-01-16T08:11:46Z</time>
      </trkpt>
      <trkpt lat="47.58789" lon="-2.3175">
        <ele>49.6</ele>
        <time>2025-01-16T08:11:47Z</time>
      </trkpt>
      <trkpt lat="47.58789" lon="-2.31749">
        <ele>49.6</ele>
        <time>2025-01-16T08:11:48Z</time>
      </trkpt>
      <trkpt lat="47.58789" lon="-2.31748">
        <ele>49.6</ele>
        <time>2025-01-16T08:11:49Z</time>
      </trkpt>
      <trkpt lat="47.58789" lon="-2.31746">
        <ele>49.6</ele>
        <time>2025-01-16T08:11:50Z</time>
      </trkpt>
      <trkpt lat="47.58789" lon="-2.31745">
        <ele>49.6</ele>
        <time>2025-01-16T08:11:51Z</time>
      </trkpt>
      <trkpt lat="47.58789" lon="-2.31743">
        <ele>49.6</ele>
        <time>2025-01-16T08:11:52Z</time>
      </trkpt>
      <trkpt lat="47.5879" lon="-2.31742">
        <ele>49.7</ele>
        <time>2025-01-16T08:11:53Z</time>
      </trkpt>
      <trkpt lat="47.5879" lon="-2.31741">
        <ele>49.7</ele>
        <time>2025-01-16T08:11:54Z</time>
      </trkpt>
      <trkpt lat="47.5879" lon="-2.31739">
        <ele>49.7</ele>
        <time>2025-01-16T08:11:55Z</time>
      </trkpt>
      <trkpt lat="47.5879" lon="-2.31737">
        <ele>49.7</ele>
        <time>2025-01-16T08:11:56Z</time>
      </trkpt>
      <trkpt lat="47.58791" lon="-2.31736">
        <ele>49.9</ele>
        <time>2025-01-16T08:11:57Z</time>
      </trkpt>
      <trkpt lat="47.58791" lon="-2.31734">
        <ele>49.9</ele>
        <time>2025-01-16T08:11:58Z</time>
      </trkpt>
      <trkpt lat="47.58791" lon="-2.31732">
        <ele>49.9</ele>
        <time>2025-01-16T08:11:59Z</time>
      </trkpt>
      <trkpt lat="47.58791" lon="-2.31731">
        <ele>49.9</ele>
        <time>2025-01-16T08:12:00Z</time>
      </trkpt>
      <trkpt lat="47.58791" lon="-2.3173">
        <ele>49.9</ele>
        <time>2025-01-16T08:12:01Z</time>
      </trkpt>
      <trkpt lat="47.58791" lon="-2.31728">
        <ele>49.9</ele>
        <time>2025-01-16T08:12:02Z</time>
      </trkpt>
      <trkpt lat="47.58791" lon="-2.31727">
        <ele>49.9</ele>
        <time>2025-01-16T08:12:03Z</time>
      </trkpt>
      <trkpt lat="47.58791" lon="-2.31727">
        <ele>49.9</ele>
        <time>2025-01-16T08:12:04Z</time>
      </trkpt>
      <trkpt lat="47.58791" lon="-2.31726">
        <ele>49.9</ele>
        <time>2025-01-16T08:12:05Z</time>
      </trkpt>
      <trkpt lat="47.5879" lon="-2.31724">
        <ele>49.6</ele>
        <time>2025-01-16T08:12:06Z</time>
      </trkpt>
      <trkpt lat="47.5879" lon="-2.31722">
        <ele>49.6</ele>
        <time>2025-01-16T08:12:07Z</time>
      </trkpt>
      <trkpt lat="47.58789" lon="-2.31721">
        <ele>49.5</ele>
        <time>2025-01-16T08:12:08Z</time>
      </trkpt>
      <trkpt lat="47.58789" lon="-2.3172">
        <ele>49.5</ele>
        <time>2025-01-16T08:12:09Z</time>
      </trkpt>
      <trkpt lat="47.58789" lon="-2.31719">
        <ele>49.5</ele>
        <time>2025-01-16T08:12:10Z</time>
      </trkpt>
      <trkpt lat="47.58789" lon="-2.31718">
        <ele>49.6</ele>
        <time>2025-01-16T08:12:11Z</time>
      </trkpt>
      <trkpt lat="47.58789" lon="-2.31717">
        <ele>49.6</ele>
        <time>2025-01-16T08:12:12Z</time>
      </trkpt>
      <trkpt lat="47.58789" lon="-2.31716">
        <ele>49.6</ele>
        <time>2025-01-16T08:12:13Z</time>
      </trkpt>
      <trkpt lat="47.58789" lon="-2.31714">
        <ele>49.7</ele>
        <time>2025-01-16T08:12:14Z</time>
      </trkpt>
      <trkpt lat="47.58789" lon="-2.31713">
        <ele>49.8</ele>
        <time>2025-01-16T08:12:15Z</time>
      </trkpt>
      <trkpt lat="47.58789" lon="-2.31711">
        <ele>49.8</ele>
        <time>2025-01-16T08:12:16Z</time>
      </trkpt>
      <trkpt lat="47.5879" lon="-2.31709">
        <ele>50.1</ele>
        <time>2025-01-16T08:12:17Z</time>
      </trkpt>
      <trkpt lat="47.5879" lon="-2.31708">
        <ele>50.2</ele>
        <time>2025-01-16T08:12:18Z</time>
      </trkpt>
      <trkpt lat="47.5879" lon="-2.31706">
        <ele>50.2</ele>
        <time>2025-01-16T08:12:19Z</time>
      </trkpt>
      <trkpt lat="47.5879" lon="-2.31705">
        <ele>50.3</ele>
        <time>2025-01-16T08:12:20Z</time>
      </trkpt>
      <trkpt lat="47.5879" lon="-2.31704">
        <ele>50.3</ele>
        <time>2025-01-16T08:12:21Z</time>
      </trkpt>
      <trkpt lat="47.58791" lon="-2.31702">
        <ele>50.6</ele>
        <time>2025-01-16T08:12:22Z</time>
      </trkpt>
      <trkpt lat="47.58791" lon="-2.31701">
        <ele>50.6</ele>
        <time>2025-01-16T08:12:23Z</time>
      </trkpt>
      <trkpt lat="47.58791" lon="-2.31699">
        <ele>50.7</ele>
        <time>2025-01-16T08:12:24Z</time>
      </trkpt>
      <trkpt lat="47.58792" lon="-2.31698">
        <ele>50.9</ele>
        <time>2025-01-16T08:12:25Z</time>
      </trkpt>
      <trkpt lat="47.58792" lon="-2.31696">
        <ele>51</ele>
        <time>2025-01-16T08:12:26Z</time>
      </trkpt>
      <trkpt lat="47.58792" lon="-2.31694">
        <ele>51.1</ele>
        <time>2025-01-16T08:12:27Z</time>
      </trkpt>
      <trkpt lat="47.58793" lon="-2.31693">
        <ele>51.4</ele>
        <time>2025-01-16T08:12:28Z</time>
      </trkpt>
      <trkpt lat="47.58793" lon="-2.31691">
        <ele>51.5</ele>
        <time>2025-01-16T08:12:29Z</time>
      </trkpt>
      <trkpt lat="47.58793" lon="-2.3169">
        <ele>51.6</ele>
        <time>2025-01-16T08:12:30Z</time>
      </trkpt>
      <trkpt lat="47.58793" lon="-2.31688">
        <ele>51.7</ele>
        <time>2025-01-16T08:12:31Z</time>
      </trkpt>
      <trkpt lat="47.58793" lon="-2.31687">
        <ele>51.8</ele>
        <time>2025-01-16T08:12:32Z</time>
      </trkpt>
      <trkpt lat="47.58793" lon="-2.31686">
        <ele>51.9</ele>
        <time>2025-01-16T08:12:33Z</time>
      </trkpt>
      <trkpt lat="47.58793" lon="-2.31685">
        <ele>51.9</ele>
        <time>2025-01-16T08:12:34Z</time>
      </trkpt>
      <trkpt lat="47.58793" lon="-2.31683">
        <ele>52.1</ele>
        <time>2025-01-16T08:12:35Z</time>
      </trkpt>
      <trkpt lat="47.58793" lon="-2.31681">
        <ele>52.2</ele>
        <time>2025-01-16T08:12:36Z</time>
      </trkpt>
      <trkpt lat="47.58794" lon="-2.31679">
        <ele>52.5</ele>
        <time>2025-01-16T08:12:37Z</time>
      </trkpt>
      <trkpt lat="47.58794" lon="-2.31677">
        <ele>52.7</ele>
        <time>2025-01-16T08:12:38Z</time>
      </trkpt>
      <trkpt lat="47.58794" lon="-2.31675">
        <ele>52.8</ele>
        <time>2025-01-16T08:12:39Z</time>
      </trkpt>
      <trkpt lat="47.58794" lon="-2.31673">
        <ele>52.9</ele>
        <time>2025-01-16T08:12:40Z</time>
      </trkpt>
      <trkpt lat="47.58795" lon="-2.31671">
        <ele>53.2</ele>
        <time>2025-01-16T08:12:41Z</time>
      </trkpt>
      <trkpt lat="47.58795" lon="-2.31669">
        <ele>53.3</ele>
        <time>2025-01-16T08:12:42Z</time>
      </trkpt>
      <trkpt lat="47.58795" lon="-2.31668">
        <ele>53.4</ele>
        <time>2025-01-16T08:12:43Z</time>
      </trkpt>
      <trkpt lat="47.58795" lon="-2.31667">
        <ele>53.5</ele>
        <time>2025-01-16T08:12:44Z</time>
      </trkpt>
      <trkpt lat="47.58795" lon="-2.31665">
        <ele>53.5</ele>
        <time>2025-01-16T08:12:45Z</time>
      </trkpt>
      <trkpt lat="47.58795" lon="-2.31664">
        <ele>53.5</ele>
        <time>2025-01-16T08:12:46Z</time>
      </trkpt>
      <trkpt lat="47.58795" lon="-2.31662">
        <ele>53.5</ele>
        <time>2025-01-16T08:12:47Z</time>
      </trkpt>
      <trkpt lat="47.58795" lon="-2.3166">
        <ele>53.5</ele>
        <time>2025-01-16T08:12:48Z</time>
      </trkpt>
      <trkpt lat="47.58795" lon="-2.31659">
        <ele>53.5</ele>
        <time>2025-01-16T08:12:49Z</time>
      </trkpt>
      <trkpt lat="47.58795" lon="-2.31658">
        <ele>53.6</ele>
        <time>2025-01-16T08:12:50Z</time>
      </trkpt>
      <trkpt lat="47.58795" lon="-2.31656">
        <ele>53.6</ele>
        <time>2025-01-16T08:12:51Z</time>
      </trkpt>
      <trkpt lat="47.58796" lon="-2.31654">
        <ele>53.8</ele>
        <time>2025-01-16T08:12:52Z</time>
      </trkpt>
      <trkpt lat="47.58796" lon="-2.31652">
        <ele>53.8</ele>
        <time>2025-01-16T08:12:53Z</time>
      </trkpt>
      <trkpt lat="47.58796" lon="-2.31651">
        <ele>53.8</ele>
        <time>2025-01-16T08:12:54Z</time>
      </trkpt>
      <trkpt lat="47.58796" lon="-2.31649">
        <ele>53.8</ele>
        <time>2025-01-16T08:12:55Z</time>
      </trkpt>
      <trkpt lat="47.58797" lon="-2.31646">
        <ele>54.1</ele>
        <time>2025-01-16T08:12:56Z</time>
      </trkpt>
      <trkpt lat="47.58797" lon="-2.31643">
        <ele>54.1</ele>
        <time>2025-01-16T08:12:57Z</time>
      </trkpt>
      <trkpt lat="47.58797" lon="-2.31642">
        <ele>54.1</ele>
        <time>2025-01-16T08:12:58Z</time>
      </trkpt>
      <trkpt lat="47.58797" lon="-2.31643">
        <ele>54.1</ele>
        <time>2025-01-16T08:12:59Z</time>
      </trkpt>
      <trkpt lat="47.58797" lon="-2.31643">
        <ele>54.1</ele>
        <time>2025-01-16T08:13:00Z</time>
      </trkpt>
      <trkpt lat="47.58798" lon="-2.31644">
        <ele>54.3</ele>
        <time>2025-01-16T08:13:01Z</time>
      </trkpt>
      <trkpt lat="47.58798" lon="-2.31644">
        <ele>54.3</ele>
        <time>2025-01-16T08:13:02Z</time>
      </trkpt>
      <trkpt lat="47.58798" lon="-2.31644">
        <ele>54.3</ele>
        <time>2025-01-16T08:13:03Z</time>
      </trkpt>
      <trkpt lat="47.58798" lon="-2.31643">
        <ele>54.3</ele>
        <time>2025-01-16T08:13:04Z</time>
      </trkpt>
      <trkpt lat="47.58798" lon="-2.31641">
        <ele>54.3</ele>
        <time>2025-01-16T08:13:05Z</time>
      </trkpt>
      <trkpt lat="47.58798" lon="-2.31638">
        <ele>54.4</ele>
        <time>2025-01-16T08:13:06Z</time>
      </trkpt>
      <trkpt lat="47.58798" lon="-2.31637">
        <ele>54.3</ele>
        <time>2025-01-16T08:13:07Z</time>
      </trkpt>
      <trkpt lat="47.58798" lon="-2.31636">
        <ele>54.3</ele>
        <time>2025-01-16T08:13:08Z</time>
      </trkpt>
      <trkpt lat="47.58798" lon="-2.31635">
        <ele>54.3</ele>
        <time>2025-01-16T08:13:09Z</time>
      </trkpt>
      <trkpt lat="47.58798" lon="-2.31634">
        <ele>54.3</ele>
        <time>2025-01-16T08:13:10Z</time>
      </trkpt>
      <trkpt lat="47.58798" lon="-2.31634">
        <ele>54.3</ele>
        <time>2025-01-16T08:13:11Z</time>
      </trkpt>
      <trkpt lat="47.58798" lon="-2.31634">
        <ele>54.3</ele>
        <time>2025-01-16T08:13:12Z</time>
      </trkpt>
      <trkpt lat="47.58798" lon="-2.31633">
        <ele>54.3</ele>
        <time>2025-01-16T08:13:13Z</time>
      </trkpt>
      <trkpt lat="47.58797" lon="-2.31631">
        <ele>54.1</ele>
        <time>2025-01-16T08:13:14Z</time>
      </trkpt>
      <trkpt lat="47.58797" lon="-2.3163">
        <ele>54.1</ele>
        <time>2025-01-16T08:13:15Z</time>
      </trkpt>
      <trkpt lat="47.58796" lon="-2.31629">
        <ele>53.8</ele>
        <time>2025-01-16T08:13:16Z</time>
      </trkpt>
      <trkpt lat="47.58796" lon="-2.31629">
        <ele>53.8</ele>
        <time>2025-01-16T08:13:17Z</time>
      </trkpt>
      <trkpt lat="47.58796" lon="-2.31628">
        <ele>53.8</ele>
        <time>2025-01-16T08:13:18Z</time>
      </trkpt>
      <trkpt lat="47.58795" lon="-2.31627">
        <ele>53.6</ele>
        <time>2025-01-16T08:13:19Z</time>
      </trkpt>
      <trkpt lat="47.58795" lon="-2.31627">
        <ele>53.6</ele>
        <time>2025-01-16T08:13:20Z</time>
      </trkpt>
      <trkpt lat="47.58795" lon="-2.31626">
        <ele>53.5</ele>
        <time>2025-01-16T08:13:21Z</time>
      </trkpt>
      <trkpt lat="47.58795" lon="-2.31626">
        <ele>53.5</ele>
        <time>2025-01-16T08:13:22Z</time>
      </trkpt>
      <trkpt lat="47.58795" lon="-2.31625">
        <ele>53.5</ele>
        <time>2025-01-16T08:13:23Z</time>
      </trkpt>
      <trkpt lat="47.58795" lon="-2.31625">
        <ele>53.5</ele>
        <time>2025-01-16T08:13:24Z</time>
      </trkpt>
      <trkpt lat="47.58795" lon="-2.31625">
        <ele>53.5</ele>
        <time>2025-01-16T08:13:25Z</time>
      </trkpt>
      <trkpt lat="47.58795" lon="-2.31625">
        <ele>53.5</ele>
        <time>2025-01-16T08:13:26Z</time>
      </trkpt>
      <trkpt lat="47.58795" lon="-2.31625">
        <ele>53.5</ele>
        <time>2025-01-16T08:13:27Z</time>
      </trkpt>
      <trkpt lat="47.58795" lon="-2.31625">
        <ele>53.5</ele>
        <time>2025-01-16T08:13:28Z</time>
      </trkpt>
      <trkpt lat="47.58795" lon="-2.31625">
        <ele>53.5</ele>
        <time>2025-01-16T08:13:29Z</time>
      </trkpt>
      <trkpt lat="47.58795" lon="-2.31625">
        <ele>53.5</ele>
        <time>2025-01-16T08:13:30Z</time>
      </trkpt>
      <trkpt lat="47.58794" lon="-2.31624">
        <ele>53.3</ele>
        <time>2025-01-16T08:13:31Z</time>
      </trkpt>
      <trkpt lat="47.58795" lon="-2.31623">
        <ele>53.5</ele>
        <time>2025-01-16T08:13:32Z</time>
      </trkpt>
      <trkpt lat="47.58795" lon="-2.31622">
        <ele>53.5</ele>
        <time>2025-01-16T08:13:33Z</time>
      </trkpt>
      <trkpt lat="47.58795" lon="-2.3162">
        <ele>53.5</ele>
        <time>2025-01-16T08:13:34Z</time>
      </trkpt>
      <trkpt lat="47.58795" lon="-2.31619">
        <ele>53.4</ele>
        <time>2025-01-16T08:13:35Z</time>
      </trkpt>
      <trkpt lat="47.58795" lon="-2.31617">
        <ele>53.4</ele>
        <time>2025-01-16T08:13:36Z</time>
      </trkpt>
      <trkpt lat="47.58795" lon="-2.31615">
        <ele>53.4</ele>
        <time>2025-01-16T08:13:37Z</time>
      </trkpt>
      <trkpt lat="47.58795" lon="-2.31614">
        <ele>53.4</ele>
        <time>2025-01-16T08:13:38Z</time>
      </trkpt>
      <trkpt lat="47.58796" lon="-2.31612">
        <ele>53.6</ele>
        <time>2025-01-16T08:13:39Z</time>
      </trkpt>
      <trkpt lat="47.58796" lon="-2.3161">
        <ele>53.6</ele>
        <time>2025-01-16T08:13:40Z</time>
      </trkpt>
      <trkpt lat="47.58796" lon="-2.31609">
        <ele>53.5</ele>
        <time>2025-01-16T08:13:41Z</time>
      </trkpt>
      <trkpt lat="47.58796" lon="-2.31607">
        <ele>53.4</ele>
        <time>2025-01-16T08:13:42Z</time>
      </trkpt>
      <trkpt lat="47.58796" lon="-2.31606">
        <ele>53.4</ele>
        <time>2025-01-16T08:13:43Z</time>
      </trkpt>
      <trkpt lat="47.58796" lon="-2.31604">
        <ele>53.3</ele>
        <time>2025-01-16T08:13:44Z</time>
      </trkpt>
      <trkpt lat="47.58796" lon="-2.31603">
        <ele>53.3</ele>
        <time>2025-01-16T08:13:45Z</time>
      </trkpt>
      <trkpt lat="47.58796" lon="-2.31602">
        <ele>53.3</ele>
        <time>2025-01-16T08:13:46Z</time>
      </trkpt>
      <trkpt lat="47.58796" lon="-2.316">
        <ele>53.2</ele>
        <time>2025-01-16T08:13:47Z</time>
      </trkpt>
      <trkpt lat="47.58795" lon="-2.31598">
        <ele>52.9</ele>
        <time>2025-01-16T08:13:48Z</time>
      </trkpt>
      <trkpt lat="47.58795" lon="-2.31596">
        <ele>52.9</ele>
        <time>2025-01-16T08:13:49Z</time>
      </trkpt>
      <trkpt lat="47.58795" lon="-2.31594">
        <ele>52.8</ele>
        <time>2025-01-16T08:13:50Z</time>
      </trkpt>
      <trkpt lat="47.58795" lon="-2.31592">
        <ele>52.7</ele>
        <time>2025-01-16T08:13:51Z</time>
      </trkpt>
      <trkpt lat="47.58794" lon="-2.3159">
        <ele>52.5</ele>
        <time>2025-01-16T08:13:52Z</time>
      </trkpt>
      <trkpt lat="47.58794" lon="-2.31589">
        <ele>52.5</ele>
        <time>2025-01-16T08:13:53Z</time>
      </trkpt>
      <trkpt lat="47.58794" lon="-2.31587">
        <ele>52.4</ele>
        <time>2025-01-16T08:13:54Z</time>
      </trkpt>
      <trkpt lat="47.58794" lon="-2.31585">
        <ele>52.4</ele>
        <time>2025-01-16T08:13:55Z</time>
      </trkpt>
      <trkpt lat="47.58793" lon="-2.31583">
        <ele>52.2</ele>
        <time>2025-01-16T08:13:56Z</time>
      </trkpt>
      <trkpt lat="47.58792" lon="-2.31581">
        <ele>52.1</ele>
        <time>2025-01-16T08:13:57Z</time>
      </trkpt>
      <trkpt lat="47.58792" lon="-2.3158">
        <ele>52.2</ele>
        <time>2025-01-16T08:13:58Z</time>
      </trkpt>
      <trkpt lat="47.58791" lon="-2.31578">
        <ele>52.1</ele>
        <time>2025-01-16T08:13:59Z</time>
      </trkpt>
      <trkpt lat="47.5879" lon="-2.31577">
        <ele>52</ele>
        <time>2025-01-16T08:14:00Z</time>
      </trkpt>
      <trkpt lat="47.58789" lon="-2.31575">
        <ele>52</ele>
        <time>2025-01-16T08:14:01Z</time>
      </trkpt>
      <trkpt lat="47.58788" lon="-2.31575">
        <ele>51.9</ele>
        <time>2025-01-16T08:14:02Z</time>
      </trkpt>
      <trkpt lat="47.58787" lon="-2.31574">
        <ele>51.8</ele>
        <time>2025-01-16T08:14:03Z</time>
      </trkpt>
      <trkpt lat="47.58786" lon="-2.31572">
        <ele>51.8</ele>
        <time>2025-01-16T08:14:04Z</time>
      </trkpt>
      <trkpt lat="47.58785" lon="-2.31572">
        <ele>51.6</ele>
        <time>2025-01-16T08:14:05Z</time>
      </trkpt>
      <trkpt lat="47.58784" lon="-2.31571">
        <ele>51.6</ele>
        <time>2025-01-16T08:14:06Z</time>
      </trkpt>
      <trkpt lat="47.58783" lon="-2.31571">
        <ele>51.5</ele>
        <time>2025-01-16T08:14:07Z</time>
      </trkpt>
      <trkpt lat="47.58782" lon="-2.31571">
        <ele>51.4</ele>
        <time>2025-01-16T08:14:08Z</time>
      </trkpt>
      <trkpt lat="47.58781" lon="-2.31571">
        <ele>51.2</ele>
        <time>2025-01-16T08:14:09Z</time>
      </trkpt>
      <trkpt lat="47.58779" lon="-2.31572">
        <ele>51</ele>
        <time>2025-01-16T08:14:10Z</time>
      </trkpt>
      <trkpt lat="47.58778" lon="-2.31572">
        <ele>50.8</ele>
        <time>2025-01-16T08:14:11Z</time>
      </trkpt>
      <trkpt lat="47.58777" lon="-2.31572">
        <ele>50.8</ele>
        <time>2025-01-16T08:14:12Z</time>
      </trkpt>
      <trkpt lat="47.58776" lon="-2.31573">
        <ele>50.6</ele>
        <time>2025-01-16T08:14:13Z</time>
      </trkpt>
      <trkpt lat="47.58774" lon="-2.31573">
        <ele>50.5</ele>
        <time>2025-01-16T08:14:14Z</time>
      </trkpt>
      <trkpt lat="47.58773" lon="-2.31573">
        <ele>50.4</ele>
        <time>2025-01-16T08:14:15Z</time>
      </trkpt>
      <trkpt lat="47.58772" lon="-2.31573">
        <ele>50.3</ele>
        <time>2025-01-16T08:14:16Z</time>
      </trkpt>
      <trkpt lat="47.58771" lon="-2.31573">
        <ele>50.3</ele>
        <time>2025-01-16T08:14:17Z</time>
      </trkpt>
      <trkpt lat="47.58769" lon="-2.31573">
        <ele>50.1</ele>
        <time>2025-01-16T08:14:18Z</time>
      </trkpt>
      <trkpt lat="47.58768" lon="-2.31573">
        <ele>50</ele>
        <time>2025-01-16T08:14:19Z</time>
      </trkpt>
      <trkpt lat="47.58767" lon="-2.31573">
        <ele>50</ele>
        <time>2025-01-16T08:14:20Z</time>
      </trkpt>
      <trkpt lat="47.58766" lon="-2.31573">
        <ele>49.9</ele>
        <time>2025-01-16T08:14:21Z</time>
      </trkpt>
      <trkpt lat="47.58765" lon="-2.31572">
        <ele>49.9</ele>
        <time>2025-01-16T08:14:22Z</time>
      </trkpt>
      <trkpt lat="47.58764" lon="-2.31572">
        <ele>49.8</ele>
        <time>2025-01-16T08:14:23Z</time>
      </trkpt>
      <trkpt lat="47.58762" lon="-2.31572">
        <ele>49.7</ele>
        <time>2025-01-16T08:14:24Z</time>
      </trkpt>
      <trkpt lat="47.58761" lon="-2.31571">
        <ele>49.7</ele>
        <time>2025-01-16T08:14:25Z</time>
      </trkpt>
      <trkpt lat="47.5876" lon="-2.31572">
        <ele>49.5</ele>
        <time>2025-01-16T08:14:26Z</time>
      </trkpt>
      <trkpt lat="47.58759" lon="-2.31571">
        <ele>49.5</ele>
        <time>2025-01-16T08:14:27Z</time>
      </trkpt>
      <trkpt lat="47.58757" lon="-2.31571">
        <ele>49.4</ele>
        <time>2025-01-16T08:14:28Z</time>
      </trkpt>
      <trkpt lat="47.58757" lon="-2.31571">
        <ele>49.4</ele>
        <time>2025-01-16T08:14:29Z</time>
      </trkpt>
      <trkpt lat="47.58756" lon="-2.31571">
        <ele>49.3</ele>
        <time>2025-01-16T08:14:30Z</time>
      </trkpt>
      <trkpt lat="47.58755" lon="-2.31571">
        <ele>49.2</ele>
        <time>2025-01-16T08:14:31Z</time>
      </trkpt>
      <trkpt lat="47.58755" lon="-2.31572">
        <ele>49.2</ele>
        <time>2025-01-16T08:14:32Z</time>
      </trkpt>
      <trkpt lat="47.58754" lon="-2.31573">
        <ele>49</ele>
        <time>2025-01-16T08:14:33Z</time>
      </trkpt>
      <trkpt lat="47.58754" lon="-2.31573">
        <ele>49</ele>
        <time>2025-01-16T08:14:34Z</time>
      </trkpt>
      <trkpt lat="47.58753" lon="-2.31573">
        <ele>49</ele>
        <time>2025-01-16T08:14:35Z</time>
      </trkpt>
      <trkpt lat="47.58752" lon="-2.31573">
        <ele>48.9</ele>
        <time>2025-01-16T08:14:36Z</time>
      </trkpt>
      <trkpt lat="47.58751" lon="-2.31573">
        <ele>48.8</ele>
        <time>2025-01-16T08:14:37Z</time>
      </trkpt>
      <trkpt lat="47.58749" lon="-2.31573">
        <ele>48.7</ele>
        <time>2025-01-16T08:14:38Z</time>
      </trkpt>
      <trkpt lat="47.58748" lon="-2.31573">
        <ele>48.7</ele>
        <time>2025-01-16T08:14:39Z</time>
      </trkpt>
      <trkpt lat="47.58747" lon="-2.31573">
        <ele>48.7</ele>
        <time>2025-01-16T08:14:40Z</time>
      </trkpt>
      <trkpt lat="47.58746" lon="-2.31572">
        <ele>48.8</ele>
        <time>2025-01-16T08:14:41Z</time>
      </trkpt>
      <trkpt lat="47.58744" lon="-2.31572">
        <ele>48.7</ele>
        <time>2025-01-16T08:14:42Z</time>
      </trkpt>
      <trkpt lat="47.58742" lon="-2.31571">
        <ele>48.8</ele>
        <time>2025-01-16T08:14:43Z</time>
      </trkpt>
      <trkpt lat="47.5874" lon="-2.3157">
        <ele>48.8</ele>
        <time>2025-01-16T08:14:44Z</time>
      </trkpt>
      <trkpt lat="47.58739" lon="-2.31569">
        <ele>48.8</ele>
        <time>2025-01-16T08:14:45Z</time>
      </trkpt>
      <trkpt lat="47.58738" lon="-2.31568">
        <ele>48.9</ele>
        <time>2025-01-16T08:14:46Z</time>
      </trkpt>
      <trkpt lat="47.58737" lon="-2.31568">
        <ele>48.8</ele>
        <time>2025-01-16T08:14:47Z</time>
      </trkpt>
      <trkpt lat="47.58736" lon="-2.31568">
        <ele>48.8</ele>
        <time>2025-01-16T08:14:48Z</time>
      </trkpt>
      <trkpt lat="47.58735" lon="-2.31568">
        <ele>48.8</ele>
        <time>2025-01-16T08:14:49Z</time>
      </trkpt>
      <trkpt lat="47.58733" lon="-2.31568">
        <ele>48.8</ele>
        <time>2025-01-16T08:14:50Z</time>
      </trkpt>
      <trkpt lat="47.58732" lon="-2.31568">
        <ele>48.7</ele>
        <time>2025-01-16T08:14:51Z</time>
      </trkpt>
      <trkpt lat="47.58731" lon="-2.31569">
        <ele>48.7</ele>
        <time>2025-01-16T08:14:52Z</time>
      </trkpt>
      <trkpt lat="47.5873" lon="-2.31569">
        <ele>48.7</ele>
        <time>2025-01-16T08:14:53Z</time>
      </trkpt>
      <trkpt lat="47.58728" lon="-2.31569">
        <ele>48.6</ele>
        <time>2025-01-16T08:14:54Z</time>
      </trkpt>
      <trkpt lat="47.58727" lon="-2.31569">
        <ele>48.6</ele>
        <time>2025-01-16T08:14:55Z</time>
      </trkpt>
      <trkpt lat="47.58726" lon="-2.31568">
        <ele>48.6</ele>
        <time>2025-01-16T08:14:56Z</time>
      </trkpt>
      <trkpt lat="47.58725" lon="-2.31568">
        <ele>48.6</ele>
        <time>2025-01-16T08:14:57Z</time>
      </trkpt>
      <trkpt lat="47.58723" lon="-2.31568">
        <ele>48.6</ele>
        <time>2025-01-16T08:14:58Z</time>
      </trkpt>
      <trkpt lat="47.58722" lon="-2.31568">
        <ele>48.6</ele>
        <time>2025-01-16T08:14:59Z</time>
      </trkpt>
      <trkpt lat="47.5872" lon="-2.31568">
        <ele>48.6</ele>
        <time>2025-01-16T08:15:00Z</time>
      </trkpt>
      <trkpt lat="47.58719" lon="-2.31567">
        <ele>48.6</ele>
        <time>2025-01-16T08:15:01Z</time>
      </trkpt>
      <trkpt lat="47.58717" lon="-2.31567">
        <ele>48.6</ele>
        <time>2025-01-16T08:15:02Z</time>
      </trkpt>
      <trkpt lat="47.58716" lon="-2.31566">
        <ele>48.6</ele>
        <time>2025-01-16T08:15:03Z</time>
      </trkpt>
      <trkpt lat="47.58715" lon="-2.31565">
        <ele>48.7</ele>
        <time>2025-01-16T08:15:04Z</time>
      </trkpt>
      <trkpt lat="47.58713" lon="-2.31564">
        <ele>48.7</ele>
        <time>2025-01-16T08:15:05Z</time>
      </trkpt>
      <trkpt lat="47.58712" lon="-2.31563">
        <ele>48.7</ele>
        <time>2025-01-16T08:15:06Z</time>
      </trkpt>
      <trkpt lat="47.58711" lon="-2.31562">
        <ele>48.8</ele>
        <time>2025-01-16T08:15:07Z</time>
      </trkpt>
      <trkpt lat="47.5871" lon="-2.3156">
        <ele>48.8</ele>
        <time>2025-01-16T08:15:08Z</time>
      </trkpt>
      <trkpt lat="47.58709" lon="-2.31559">
        <ele>48.9</ele>
        <time>2025-01-16T08:15:09Z</time>
      </trkpt>
      <trkpt lat="47.58708" lon="-2.31557">
        <ele>48.9</ele>
        <time>2025-01-16T08:15:10Z</time>
      </trkpt>
      <trkpt lat="47.58708" lon="-2.31556">
        <ele>49</ele>
        <time>2025-01-16T08:15:11Z</time>
      </trkpt>
      <trkpt lat="47.58708" lon="-2.31554">
        <ele>49.1</ele>
        <time>2025-01-16T08:15:12Z</time>
      </trkpt>
      <trkpt lat="47.58707" lon="-2.31554">
        <ele>49.1</ele>
        <time>2025-01-16T08:15:13Z</time>
      </trkpt>
      <trkpt lat="47.58707" lon="-2.31553">
        <ele>49.1</ele>
        <time>2025-01-16T08:15:14Z</time>
      </trkpt>
      <trkpt lat="47.58707" lon="-2.31552">
        <ele>49.1</ele>
        <time>2025-01-16T08:15:15Z</time>
      </trkpt>
      <trkpt lat="47.58707" lon="-2.31551">
        <ele>49.1</ele>
        <time>2025-01-16T08:15:16Z</time>
      </trkpt>
      <trkpt lat="47.58706" lon="-2.31549">
        <ele>49.2</ele>
        <time>2025-01-16T08:15:17Z</time>
      </trkpt>
      <trkpt lat="47.58706" lon="-2.31547">
        <ele>49.3</ele>
        <time>2025-01-16T08:15:18Z</time>
      </trkpt>
      <trkpt lat="47.58705" lon="-2.31545">
        <ele>49.3</ele>
        <time>2025-01-16T08:15:19Z</time>
      </trkpt>
      <trkpt lat="47.58705" lon="-2.31544">
        <ele>49.3</ele>
        <time>2025-01-16T08:15:20Z</time>
      </trkpt>
      <trkpt lat="47.58704" lon="-2.31542">
        <ele>49.3</ele>
        <time>2025-01-16T08:15:21Z</time>
      </trkpt>
      <trkpt lat="47.58704" lon="-2.3154">
        <ele>49.4</ele>
        <time>2025-01-16T08:15:22Z</time>
      </trkpt>
      <trkpt lat="47.58704" lon="-2.31538">
        <ele>49.4</ele>
        <time>2025-01-16T08:15:23Z</time>
      </trkpt>
      <trkpt lat="47.58704" lon="-2.31536">
        <ele>49.5</ele>
        <time>2025-01-16T08:15:24Z</time>
      </trkpt>
      <trkpt lat="47.58703" lon="-2.31533">
        <ele>49.5</ele>
        <time>2025-01-16T08:15:25Z</time>
      </trkpt>
      <trkpt lat="47.58702" lon="-2.31531">
        <ele>49.5</ele>
        <time>2025-01-16T08:15:26Z</time>
      </trkpt>
      <trkpt lat="47.58701" lon="-2.31529">
        <ele>49.5</ele>
        <time>2025-01-16T08:15:27Z</time>
      </trkpt>
      <trkpt lat="47.58701" lon="-2.31527">
        <ele>49.5</ele>
        <time>2025-01-16T08:15:28Z</time>
      </trkpt>
      <trkpt lat="47.587" lon="-2.31525">
        <ele>49.5</ele>
        <time>2025-01-16T08:15:29Z</time>
      </trkpt>
      <trkpt lat="47.587" lon="-2.31523">
        <ele>49.6</ele>
        <time>2025-01-16T08:15:30Z</time>
      </trkpt>
      <trkpt lat="47.58699" lon="-2.31521">
        <ele>49.6</ele>
        <time>2025-01-16T08:15:31Z</time>
      </trkpt>
      <trkpt lat="47.58699" lon="-2.31518">
        <ele>49.7</ele>
        <time>2025-01-16T08:15:32Z</time>
      </trkpt>
      <trkpt lat="47.58698" lon="-2.31516">
        <ele>49.7</ele>
        <time>2025-01-16T08:15:33Z</time>
      </trkpt>
      <trkpt lat="47.58698" lon="-2.31514">
        <ele>49.8</ele>
        <time>2025-01-16T08:15:34Z</time>
      </trkpt>
      <trkpt lat="47.58698" lon="-2.31512">
        <ele>49.8</ele>
        <time>2025-01-16T08:15:35Z</time>
      </trkpt>
      <trkpt lat="47.58698" lon="-2.3151">
        <ele>49.9</ele>
        <time>2025-01-16T08:15:36Z</time>
      </trkpt>
      <trkpt lat="47.58697" lon="-2.31508">
        <ele>49.9</ele>
        <time>2025-01-16T08:15:37Z</time>
      </trkpt>
      <trkpt lat="47.58697" lon="-2.31506">
        <ele>50</ele>
        <time>2025-01-16T08:15:38Z</time>
      </trkpt>
      <trkpt lat="47.58697" lon="-2.31504">
        <ele>50</ele>
        <time>2025-01-16T08:15:39Z</time>
      </trkpt>
      <trkpt lat="47.58697" lon="-2.31502">
        <ele>50.1</ele>
        <time>2025-01-16T08:15:40Z</time>
      </trkpt>
      <trkpt lat="47.58696" lon="-2.315">
        <ele>50.1</ele>
        <time>2025-01-16T08:15:41Z</time>
      </trkpt>
      <trkpt lat="47.58696" lon="-2.31498">
        <ele>50.1</ele>
        <time>2025-01-16T08:15:42Z</time>
      </trkpt>
      <trkpt lat="47.58696" lon="-2.31496">
        <ele>50.1</ele>
        <time>2025-01-16T08:15:43Z</time>
      </trkpt>
      <trkpt lat="47.58695" lon="-2.31494">
        <ele>50</ele>
        <time>2025-01-16T08:15:44Z</time>
      </trkpt>
      <trkpt lat="47.58695" lon="-2.31492">
        <ele>50</ele>
        <time>2025-01-16T08:15:45Z</time>
      </trkpt>
      <trkpt lat="47.58694" lon="-2.31489">
        <ele>50</ele>
        <time>2025-01-16T08:15:46Z</time>
      </trkpt>
      <trkpt lat="47.58694" lon="-2.31487">
        <ele>50</ele>
        <time>2025-01-16T08:15:47Z</time>
      </trkpt>
      <trkpt lat="47.58694" lon="-2.31486">
        <ele>50</ele>
        <time>2025-01-16T08:15:48Z</time>
      </trkpt>
      <trkpt lat="47.58694" lon="-2.31484">
        <ele>50</ele>
        <time>2025-01-16T08:15:49Z</time>
      </trkpt>
      <trkpt lat="47.58694" lon="-2.31482">
        <ele>50</ele>
        <time>2025-01-16T08:15:50Z</time>
      </trkpt>
      <trkpt lat="47.58694" lon="-2.3148">
        <ele>50</ele>
        <time>2025-01-16T08:15:51Z</time>
      </trkpt>
      <trkpt lat="47.58694" lon="-2.31479">
        <ele>50</ele>
        <time>2025-01-16T08:15:52Z</time>
      </trkpt>
      <trkpt lat="47.58693" lon="-2.31477">
        <ele>49.9</ele>
        <time>2025-01-16T08:15:53Z</time>
      </trkpt>
      <trkpt lat="47.58693" lon="-2.31475">
        <ele>49.9</ele>
        <time>2025-01-16T08:15:54Z</time>
      </trkpt>
      <trkpt lat="47.58693" lon="-2.31472">
        <ele>50</ele>
        <time>2025-01-16T08:15:55Z</time>
      </trkpt>
      <trkpt lat="47.58693" lon="-2.3147">
        <ele>50</ele>
        <time>2025-01-16T08:15:56Z</time>
      </trkpt>
      <trkpt lat="47.58692" lon="-2.31468">
        <ele>50.1</ele>
        <time>2025-01-16T08:15:57Z</time>
      </trkpt>
      <trkpt lat="47.58692" lon="-2.31466">
        <ele>50.1</ele>
        <time>2025-01-16T08:15:58Z</time>
      </trkpt>
      <trkpt lat="47.58692" lon="-2.31464">
        <ele>50.2</ele>
        <time>2025-01-16T08:15:59Z</time>
      </trkpt>
      <trkpt lat="47.58692" lon="-2.31462">
        <ele>50.2</ele>
        <time>2025-01-16T08:16:00Z</time>
      </trkpt>
      <trkpt lat="47.58692" lon="-2.3146">
        <ele>50.3</ele>
        <time>2025-01-16T08:16:01Z</time>
      </trkpt>
      <trkpt lat="47.58692" lon="-2.31458">
        <ele>50.4</ele>
        <time>2025-01-16T08:16:02Z</time>
      </trkpt>
      <trkpt lat="47.58691" lon="-2.31456">
        <ele>50.4</ele>
        <time>2025-01-16T08:16:03Z</time>
      </trkpt>
      <trkpt lat="47.58691" lon="-2.31454">
        <ele>50.5</ele>
        <time>2025-01-16T08:16:04Z</time>
      </trkpt>
      <trkpt lat="47.58692" lon="-2.31453">
        <ele>50.5</ele>
        <time>2025-01-16T08:16:05Z</time>
      </trkpt>
      <trkpt lat="47.58692" lon="-2.31451">
        <ele>50.6</ele>
        <time>2025-01-16T08:16:06Z</time>
      </trkpt>
      <trkpt lat="47.58692" lon="-2.31449">
        <ele>50.7</ele>
        <time>2025-01-16T08:16:07Z</time>
      </trkpt>
      <trkpt lat="47.58692" lon="-2.31448">
        <ele>50.7</ele>
        <time>2025-01-16T08:16:08Z</time>
      </trkpt>
      <trkpt lat="47.58691" lon="-2.31446">
        <ele>50.7</ele>
        <time>2025-01-16T08:16:09Z</time>
      </trkpt>
      <trkpt lat="47.58691" lon="-2.31444">
        <ele>50.8</ele>
        <time>2025-01-16T08:16:10Z</time>
      </trkpt>
      <trkpt lat="47.58691" lon="-2.31442">
        <ele>50.8</ele>
        <time>2025-01-16T08:16:11Z</time>
      </trkpt>
      <trkpt lat="47.5869" lon="-2.3144">
        <ele>50.7</ele>
        <time>2025-01-16T08:16:12Z</time>
      </trkpt>
      <trkpt lat="47.5869" lon="-2.31438">
        <ele>50.7</ele>
        <time>2025-01-16T08:16:13Z</time>
      </trkpt>
      <trkpt lat="47.5869" lon="-2.31436">
        <ele>50.7</ele>
        <time>2025-01-16T08:16:14Z</time>
      </trkpt>
      <trkpt lat="47.58689" lon="-2.31434">
        <ele>50.6</ele>
        <time>2025-01-16T08:16:15Z</time>
      </trkpt>
      <trkpt lat="47.58689" lon="-2.31432">
        <ele>50.6</ele>
        <time>2025-01-16T08:16:16Z</time>
      </trkpt>
      <trkpt lat="47.58689" lon="-2.31429">
        <ele>50.6</ele>
        <time>2025-01-16T08:16:17Z</time>
      </trkpt>
      <trkpt lat="47.58688" lon="-2.31426">
        <ele>50.5</ele>
        <time>2025-01-16T08:16:18Z</time>
      </trkpt>
      <trkpt lat="47.58688" lon="-2.31424">
        <ele>50.5</ele>
        <time>2025-01-16T08:16:19Z</time>
      </trkpt>
      <trkpt lat="47.58688" lon="-2.31422">
        <ele>50.5</ele>
        <time>2025-01-16T08:16:20Z</time>
      </trkpt>
      <trkpt lat="47.58687" lon="-2.3142">
        <ele>50.5</ele>
        <time>2025-01-16T08:16:21Z</time>
      </trkpt>
      <trkpt lat="47.58687" lon="-2.31418">
        <ele>50.5</ele>
        <time>2025-01-16T08:16:22Z</time>
      </trkpt>
      <trkpt lat="47.58687" lon="-2.31416">
        <ele>50.5</ele>
        <time>2025-01-16T08:16:23Z</time>
      </trkpt>
      <trkpt lat="47.58687" lon="-2.31414">
        <ele>50.4</ele>
        <time>2025-01-16T08:16:24Z</time>
      </trkpt>
      <trkpt lat="47.58686" lon="-2.31412">
        <ele>50.3</ele>
        <time>2025-01-16T08:16:25Z</time>
      </trkpt>
      <trkpt lat="47.58686" lon="-2.3141">
        <ele>50.3</ele>
        <time>2025-01-16T08:16:26Z</time>
      </trkpt>
      <trkpt lat="47.58686" lon="-2.31408">
        <ele>50.3</ele>
        <time>2025-01-16T08:16:27Z</time>
      </trkpt>
      <trkpt lat="47.58686" lon="-2.31406">
        <ele>50.3</ele>
        <time>2025-01-16T08:16:28Z</time>
      </trkpt>
      <trkpt lat="47.58685" lon="-2.31403">
        <ele>50.2</ele>
        <time>2025-01-16T08:16:29Z</time>
      </trkpt>
      <trkpt lat="47.58685" lon="-2.31401">
        <ele>50.1</ele>
        <time>2025-01-16T08:16:30Z</time>
      </trkpt>
      <trkpt lat="47.58685" lon="-2.31399">
        <ele>50.1</ele>
        <time>2025-01-16T08:16:31Z</time>
      </trkpt>
      <trkpt lat="47.58684" lon="-2.31397">
        <ele>50</ele>
        <time>2025-01-16T08:16:32Z</time>
      </trkpt>
      <trkpt lat="47.58684" lon="-2.31395">
        <ele>50</ele>
        <time>2025-01-16T08:16:33Z</time>
      </trkpt>
      <trkpt lat="47.58684" lon="-2.31393">
        <ele>49.9</ele>
        <time>2025-01-16T08:16:34Z</time>
      </trkpt>
      <trkpt lat="47.58684" lon="-2.31391">
        <ele>49.9</ele>
        <time>2025-01-16T08:16:35Z</time>
      </trkpt>
      <trkpt lat="47.58684" lon="-2.31389">
        <ele>49.9</ele>
        <time>2025-01-16T08:16:36Z</time>
      </trkpt>
      <trkpt lat="47.58684" lon="-2.31387">
        <ele>49.8</ele>
        <time>2025-01-16T08:16:37Z</time>
      </trkpt>
      <trkpt lat="47.58684" lon="-2.31385">
        <ele>49.8</ele>
        <time>2025-01-16T08:16:38Z</time>
      </trkpt>
      <trkpt lat="47.58684" lon="-2.31383">
        <ele>49.8</ele>
        <time>2025-01-16T08:16:39Z</time>
      </trkpt>
      <trkpt lat="47.58684" lon="-2.31381">
        <ele>49.8</ele>
        <time>2025-01-16T08:16:40Z</time>
      </trkpt>
      <trkpt lat="47.58684" lon="-2.31379">
        <ele>49.7</ele>
        <time>2025-01-16T08:16:41Z</time>
      </trkpt>
      <trkpt lat="47.58684" lon="-2.31378">
        <ele>49.7</ele>
        <time>2025-01-16T08:16:42Z</time>
      </trkpt>
      <trkpt lat="47.58684" lon="-2.31376">
        <ele>49.7</ele>
        <time>2025-01-16T08:16:43Z</time>
      </trkpt>
      <trkpt lat="47.58684" lon="-2.31374">
        <ele>49.7</ele>
        <time>2025-01-16T08:16:44Z</time>
      </trkpt>
      <trkpt lat="47.58683" lon="-2.31372">
        <ele>49.5</ele>
        <time>2025-01-16T08:16:45Z</time>
      </trkpt>
      <trkpt lat="47.58683" lon="-2.3137">
        <ele>49.5</ele>
        <time>2025-01-16T08:16:46Z</time>
      </trkpt>
      <trkpt lat="47.58683" lon="-2.31368">
        <ele>49.5</ele>
        <time>2025-01-16T08:16:47Z</time>
      </trkpt>
      <trkpt lat="47.58683" lon="-2.31367">
        <ele>49.4</ele>
        <time>2025-01-16T08:16:48Z</time>
      </trkpt>
      <trkpt lat="47.58683" lon="-2.31365">
        <ele>49.4</ele>
        <time>2025-01-16T08:16:49Z</time>
      </trkpt>
      <trkpt lat="47.58682" lon="-2.31363">
        <ele>49.2</ele>
        <time>2025-01-16T08:16:50Z</time>
      </trkpt>
      <trkpt lat="47.58682" lon="-2.31361">
        <ele>49.2</ele>
        <time>2025-01-16T08:16:51Z</time>
      </trkpt>
      <trkpt lat="47.58682" lon="-2.3136">
        <ele>49.3</ele>
        <time>2025-01-16T08:16:52Z</time>
      </trkpt>
      <trkpt lat="47.58681" lon="-2.31359">
        <ele>49.1</ele>
        <time>2025-01-16T08:16:53Z</time>
      </trkpt>
      <trkpt lat="47.58681" lon="-2.31358">
        <ele>49.2</ele>
        <time>2025-01-16T08:16:54Z</time>
      </trkpt>
      <trkpt lat="47.58681" lon="-2.31357">
        <ele>49.2</ele>
        <time>2025-01-16T08:16:55Z</time>
      </trkpt>
      <trkpt lat="47.5868" lon="-2.31356">
        <ele>49.1</ele>
        <time>2025-01-16T08:16:56Z</time>
      </trkpt>
      <trkpt lat="47.58679" lon="-2.31354">
        <ele>49</ele>
        <time>2025-01-16T08:16:57Z</time>
      </trkpt>
      <trkpt lat="47.58679" lon="-2.31353">
        <ele>49</ele>
        <time>2025-01-16T08:16:58Z</time>
      </trkpt>
      <trkpt lat="47.58678" lon="-2.31352">
        <ele>48.9</ele>
        <time>2025-01-16T08:16:59Z</time>
      </trkpt>
      <trkpt lat="47.58678" lon="-2.31351">
        <ele>48.9</ele>
        <time>2025-01-16T08:17:00Z</time>
      </trkpt>
      <trkpt lat="47.58677" lon="-2.3135">
        <ele>48.8</ele>
        <time>2025-01-16T08:17:01Z</time>
      </trkpt>
      <trkpt lat="47.58676" lon="-2.31348">
        <ele>48.7</ele>
        <time>2025-01-16T08:17:02Z</time>
      </trkpt>
      <trkpt lat="47.58675" lon="-2.31347">
        <ele>48.5</ele>
        <time>2025-01-16T08:17:03Z</time>
      </trkpt>
      <trkpt lat="47.58674" lon="-2.31346">
        <ele>48.3</ele>
        <time>2025-01-16T08:17:04Z</time>
      </trkpt>
      <trkpt lat="47.58673" lon="-2.31345">
        <ele>48.2</ele>
        <time>2025-01-16T08:17:05Z</time>
      </trkpt>
      <trkpt lat="47.58673" lon="-2.31344">
        <ele>48.2</ele>
        <time>2025-01-16T08:17:06Z</time>
      </trkpt>
      <trkpt lat="47.58672" lon="-2.31342">
        <ele>48</ele>
        <time>2025-01-16T08:17:07Z</time>
      </trkpt>
      <trkpt lat="47.58671" lon="-2.31341">
        <ele>47.8</ele>
        <time>2025-01-16T08:17:08Z</time>
      </trkpt>
      <trkpt lat="47.5867" lon="-2.31339">
        <ele>47.7</ele>
        <time>2025-01-16T08:17:09Z</time>
      </trkpt>
      <trkpt lat="47.58669" lon="-2.31338">
        <ele>47.5</ele>
        <time>2025-01-16T08:17:10Z</time>
      </trkpt>
      <trkpt lat="47.58668" lon="-2.31336">
        <ele>47.3</ele>
        <time>2025-01-16T08:17:11Z</time>
      </trkpt>
      <trkpt lat="47.58668" lon="-2.31335">
        <ele>47.3</ele>
        <time>2025-01-16T08:17:12Z</time>
      </trkpt>
      <trkpt lat="47.58667" lon="-2.31334">
        <ele>47.1</ele>
        <time>2025-01-16T08:17:13Z</time>
      </trkpt>
      <trkpt lat="47.58667" lon="-2.31333">
        <ele>47.1</ele>
        <time>2025-01-16T08:17:14Z</time>
      </trkpt>
      <trkpt lat="47.58666" lon="-2.31332">
        <ele>47</ele>
        <time>2025-01-16T08:17:15Z</time>
      </trkpt>
      <trkpt lat="47.58665" lon="-2.31331">
        <ele>47</ele>
        <time>2025-01-16T08:17:16Z</time>
      </trkpt>
      <trkpt lat="47.58665" lon="-2.3133">
        <ele>47</ele>
        <time>2025-01-16T08:17:17Z</time>
      </trkpt>
      <trkpt lat="47.58664" lon="-2.31328">
        <ele>47.1</ele>
        <time>2025-01-16T08:17:18Z</time>
      </trkpt>
      <trkpt lat="47.58663" lon="-2.31327">
        <ele>47</ele>
        <time>2025-01-16T08:17:19Z</time>
      </trkpt>
      <trkpt lat="47.58662" lon="-2.31325">
        <ele>47</ele>
        <time>2025-01-16T08:17:20Z</time>
      </trkpt>
      <trkpt lat="47.58661" lon="-2.31324">
        <ele>46.9</ele>
        <time>2025-01-16T08:17:21Z</time>
      </trkpt>
      <trkpt lat="47.58661" lon="-2.31323">
        <ele>47</ele>
        <time>2025-01-16T08:17:22Z</time>
      </trkpt>
      <trkpt lat="47.5866" lon="-2.31322">
        <ele>46.9</ele>
        <time>2025-01-16T08:17:23Z</time>
      </trkpt>
      <trkpt lat="47.58659" lon="-2.3132">
        <ele>46.9</ele>
        <time>2025-01-16T08:17:24Z</time>
      </trkpt>
      <trkpt lat="47.58659" lon="-2.31319">
        <ele>46.9</ele>
        <time>2025-01-16T08:17:25Z</time>
      </trkpt>
      <trkpt lat="47.58658" lon="-2.31318">
        <ele>46.8</ele>
        <time>2025-01-16T08:17:26Z</time>
      </trkpt>
      <trkpt lat="47.58657" lon="-2.31317">
        <ele>46.7</ele>
        <time>2025-01-16T08:17:27Z</time>
      </trkpt>
      <trkpt lat="47.58656" lon="-2.31317">
        <ele>46.6</ele>
        <time>2025-01-16T08:17:28Z</time>
      </trkpt>
      <trkpt lat="47.58656" lon="-2.31316">
        <ele>46.6</ele>
        <time>2025-01-16T08:17:29Z</time>
      </trkpt>
      <trkpt lat="47.58655" lon="-2.31315">
        <ele>46.5</ele>
        <time>2025-01-16T08:17:30Z</time>
      </trkpt>
      <trkpt lat="47.58655" lon="-2.31315">
        <ele>46.5</ele>
        <time>2025-01-16T08:17:31Z</time>
      </trkpt>
      <trkpt lat="47.58655" lon="-2.31315">
        <ele>46.5</ele>
        <time>2025-01-16T08:17:32Z</time>
      </trkpt>
      <trkpt lat="47.58654" lon="-2.31313">
        <ele>46.4</ele>
        <time>2025-01-16T08:17:33Z</time>
      </trkpt>
      <trkpt lat="47.58653" lon="-2.31312">
        <ele>46.3</ele>
        <time>2025-01-16T08:17:34Z</time>
      </trkpt>
      <trkpt lat="47.58652" lon="-2.3131">
        <ele>46.2</ele>
        <time>2025-01-16T08:17:35Z</time>
      </trkpt>
      <trkpt lat="47.58651" lon="-2.31308">
        <ele>46.1</ele>
        <time>2025-01-16T08:17:36Z</time>
      </trkpt>
      <trkpt lat="47.58649" lon="-2.31307">
        <ele>45.8</ele>
        <time>2025-01-16T08:17:37Z</time>
      </trkpt>
      <trkpt lat="47.58649" lon="-2.31307">
        <ele>45.8</ele>
        <time>2025-01-16T08:17:38Z</time>
      </trkpt>
      <trkpt lat="47.58648" lon="-2.31306">
        <ele>45.6</ele>
        <time>2025-01-16T08:17:39Z</time>
      </trkpt>
      <trkpt lat="47.58646" lon="-2.31304">
        <ele>45.4</ele>
        <time>2025-01-16T08:17:40Z</time>
      </trkpt>
      <trkpt lat="47.58645" lon="-2.31303">
        <ele>45.2</ele>
        <time>2025-01-16T08:17:41Z</time>
      </trkpt>
      <trkpt lat="47.58644" lon="-2.31301">
        <ele>45.1</ele>
        <time>2025-01-16T08:17:42Z</time>
      </trkpt>
      <trkpt lat="47.58643" lon="-2.313">
        <ele>45</ele>
        <time>2025-01-16T08:17:43Z</time>
      </trkpt>
      <trkpt lat="47.58642" lon="-2.31299">
        <ele>44.8</ele>
        <time>2025-01-16T08:17:44Z</time>
      </trkpt>
      <trkpt lat="47.58642" lon="-2.31298">
        <ele>44.9</ele>
        <time>2025-01-16T08:17:45Z</time>
      </trkpt>
      <trkpt lat="47.58641" lon="-2.31296">
        <ele>44.8</ele>
        <time>2025-01-16T08:17:46Z</time>
      </trkpt>
      <trkpt lat="47.5864" lon="-2.31295">
        <ele>44.6</ele>
        <time>2025-01-16T08:17:47Z</time>
      </trkpt>
      <trkpt lat="47.58639" lon="-2.31293">
        <ele>44.5</ele>
        <time>2025-01-16T08:17:48Z</time>
      </trkpt>
      <trkpt lat="47.58638" lon="-2.31292">
        <ele>44.4</ele>
        <time>2025-01-16T08:17:49Z</time>
      </trkpt>
      <trkpt lat="47.58638" lon="-2.31291">
        <ele>44.4</ele>
        <time>2025-01-16T08:17:50Z</time>
      </trkpt>
      <trkpt lat="47.58638" lon="-2.31289">
        <ele>44.5</ele>
        <time>2025-01-16T08:17:51Z</time>
      </trkpt>
      <trkpt lat="47.58639" lon="-2.31288">
        <ele>44.7</ele>
        <time>2025-01-16T08:17:52Z</time>
      </trkpt>
      <trkpt lat="47.58641" lon="-2.31288">
        <ele>45.1</ele>
        <time>2025-01-16T08:17:53Z</time>
      </trkpt>
      <trkpt lat="47.58642" lon="-2.31287">
        <ele>45.3</ele>
        <time>2025-01-16T08:17:54Z</time>
      </trkpt>
      <trkpt lat="47.58642" lon="-2.31287">
        <ele>45.3</ele>
        <time>2025-01-16T08:17:55Z</time>
      </trkpt>
      <trkpt lat="47.58642" lon="-2.31287">
        <ele>45.3</ele>
        <time>2025-01-16T08:17:56Z</time>
      </trkpt>
      <trkpt lat="47.58643" lon="-2.31288">
        <ele>45.5</ele>
        <time>2025-01-16T08:17:57Z</time>
      </trkpt>
      <trkpt lat="47.58643" lon="-2.31288">
        <ele>45.5</ele>
        <time>2025-01-16T08:17:58Z</time>
      </trkpt>
      <trkpt lat="47.58643" lon="-2.31287">
        <ele>45.5</ele>
        <time>2025-01-16T08:17:59Z</time>
      </trkpt>
      <trkpt lat="47.58642" lon="-2.31287">
        <ele>45.3</ele>
        <time>2025-01-16T08:18:00Z</time>
      </trkpt>
      <trkpt lat="47.58641" lon="-2.31286">
        <ele>45.1</ele>
        <time>2025-01-16T08:18:01Z</time>
      </trkpt>
      <trkpt lat="47.58641" lon="-2.31286">
        <ele>45.1</ele>
        <time>2025-01-16T08:18:02Z</time>
      </trkpt>
      <trkpt lat="47.5864" lon="-2.31285">
        <ele>45</ele>
        <time>2025-01-16T08:18:03Z</time>
      </trkpt>
      <trkpt lat="47.58639" lon="-2.31283">
        <ele>44.8</ele>
        <time>2025-01-16T08:18:04Z</time>
      </trkpt>
      <trkpt lat="47.58637" lon="-2.31281">
        <ele>44.6</ele>
        <time>2025-01-16T08:18:05Z</time>
      </trkpt>
      <trkpt lat="47.58636" lon="-2.31279">
        <ele>44.4</ele>
        <time>2025-01-16T08:18:06Z</time>
      </trkpt>
      <trkpt lat="47.58635" lon="-2.31278">
        <ele>44.3</ele>
        <time>2025-01-16T08:18:07Z</time>
      </trkpt>
      <trkpt lat="47.58634" lon="-2.31276">
        <ele>44.2</ele>
        <time>2025-01-16T08:18:08Z</time>
      </trkpt>
      <trkpt lat="47.58634" lon="-2.31274">
        <ele>44.3</ele>
        <time>2025-01-16T08:18:09Z</time>
      </trkpt>
      <trkpt lat="47.58634" lon="-2.31273">
        <ele>44.3</ele>
        <time>2025-01-16T08:18:10Z</time>
      </trkpt>
      <trkpt lat="47.58633" lon="-2.31271">
        <ele>44.2</ele>
        <time>2025-01-16T08:18:11Z</time>
      </trkpt>
      <trkpt lat="47.58633" lon="-2.3127">
        <ele>44.2</ele>
        <time>2025-01-16T08:18:12Z</time>
      </trkpt>
      <trkpt lat="47.58632" lon="-2.31269">
        <ele>44.1</ele>
        <time>2025-01-16T08:18:13Z</time>
      </trkpt>
      <trkpt lat="47.58632" lon="-2.31267">
        <ele>44.1</ele>
        <time>2025-01-16T08:18:14Z</time>
      </trkpt>
      <trkpt lat="47.58632" lon="-2.31266">
        <ele>44.2</ele>
        <time>2025-01-16T08:18:15Z</time>
      </trkpt>
      <trkpt lat="47.58631" lon="-2.31264">
        <ele>44.1</ele>
        <time>2025-01-16T08:18:16Z</time>
      </trkpt>
      <trkpt lat="47.58631" lon="-2.31263">
        <ele>44.1</ele>
        <time>2025-01-16T08:18:17Z</time>
      </trkpt>
      <trkpt lat="47.5863" lon="-2.31262">
        <ele>44</ele>
        <time>2025-01-16T08:18:18Z</time>
      </trkpt>
      <trkpt lat="47.5863" lon="-2.31261">
        <ele>44</ele>
        <time>2025-01-16T08:18:19Z</time>
      </trkpt>
      <trkpt lat="47.58629" lon="-2.3126">
        <ele>43.9</ele>
        <time>2025-01-16T08:18:20Z</time>
      </trkpt>
      <trkpt lat="47.58628" lon="-2.31258">
        <ele>43.8</ele>
        <time>2025-01-16T08:18:21Z</time>
      </trkpt>
      <trkpt lat="47.58627" lon="-2.31258">
        <ele>43.6</ele>
        <time>2025-01-16T08:18:22Z</time>
      </trkpt>
      <trkpt lat="47.58626" lon="-2.31257">
        <ele>43.4</ele>
        <time>2025-01-16T08:18:23Z</time>
      </trkpt>
      <trkpt lat="47.58626" lon="-2.31256">
        <ele>43.5</ele>
        <time>2025-01-16T08:18:24Z</time>
      </trkpt>
      <trkpt lat="47.58625" lon="-2.31255">
        <ele>43.3</ele>
        <time>2025-01-16T08:18:25Z</time>
      </trkpt>
      <trkpt lat="47.58625" lon="-2.31254">
        <ele>43.4</ele>
        <time>2025-01-16T08:18:26Z</time>
      </trkpt>
      <trkpt lat="47.58624" lon="-2.31253">
        <ele>43.2</ele>
        <time>2025-01-16T08:18:27Z</time>
      </trkpt>
      <trkpt lat="47.58623" lon="-2.31252">
        <ele>43.1</ele>
        <time>2025-01-16T08:18:28Z</time>
      </trkpt>
      <trkpt lat="47.58622" lon="-2.31251">
        <ele>42.9</ele>
        <time>2025-01-16T08:18:29Z</time>
      </trkpt>
      <trkpt lat="47.5862" lon="-2.3125">
        <ele>42.6</ele>
        <time>2025-01-16T08:18:30Z</time>
      </trkpt>
      <trkpt lat="47.58619" lon="-2.31249">
        <ele>42.4</ele>
        <time>2025-01-16T08:18:31Z</time>
      </trkpt>
      <trkpt lat="47.58617" lon="-2.31248">
        <ele>42.1</ele>
        <time>2025-01-16T08:18:32Z</time>
      </trkpt>
      <trkpt lat="47.58616" lon="-2.31246">
        <ele>41.9</ele>
        <time>2025-01-16T08:18:33Z</time>
      </trkpt>
      <trkpt lat="47.58615" lon="-2.31245">
        <ele>41.7</ele>
        <time>2025-01-16T08:18:34Z</time>
      </trkpt>
      <trkpt lat="47.58614" lon="-2.31243">
        <ele>41.5</ele>
        <time>2025-01-16T08:18:35Z</time>
      </trkpt>
      <trkpt lat="47.58613" lon="-2.31242">
        <ele>41.3</ele>
        <time>2025-01-16T08:18:36Z</time>
      </trkpt>
      <trkpt lat="47.58612" lon="-2.3124">
        <ele>41.2</ele>
        <time>2025-01-16T08:18:37Z</time>
      </trkpt>
      <trkpt lat="47.58611" lon="-2.31239">
        <ele>41</ele>
        <time>2025-01-16T08:18:38Z</time>
      </trkpt>
      <trkpt lat="47.5861" lon="-2.31237">
        <ele>40.9</ele>
        <time>2025-01-16T08:18:39Z</time>
      </trkpt>
      <trkpt lat="47.58609" lon="-2.31236">
        <ele>40.8</ele>
        <time>2025-01-16T08:18:40Z</time>
      </trkpt>
      <trkpt lat="47.58608" lon="-2.31234">
        <ele>40.7</ele>
        <time>2025-01-16T08:18:41Z</time>
      </trkpt>
      <trkpt lat="47.58607" lon="-2.31233">
        <ele>40.6</ele>
        <time>2025-01-16T08:18:42Z</time>
      </trkpt>
      <trkpt lat="47.58606" lon="-2.31232">
        <ele>40.4</ele>
        <time>2025-01-16T08:18:43Z</time>
      </trkpt>
      <trkpt lat="47.58605" lon="-2.31231">
        <ele>40.3</ele>
        <time>2025-01-16T08:18:44Z</time>
      </trkpt>
      <trkpt lat="47.58604" lon="-2.31231">
        <ele>40.2</ele>
        <time>2025-01-16T08:18:45Z</time>
      </trkpt>
      <trkpt lat="47.58604" lon="-2.3123">
        <ele>40.2</ele>
        <time>2025-01-16T08:18:46Z</time>
      </trkpt>
      <trkpt lat="47.58603" lon="-2.3123">
        <ele>40.1</ele>
        <time>2025-01-16T08:18:47Z</time>
      </trkpt>
      <trkpt lat="47.58602" lon="-2.31229">
        <ele>40</ele>
        <time>2025-01-16T08:18:48Z</time>
      </trkpt>
      <trkpt lat="47.58601" lon="-2.31228">
        <ele>39.9</ele>
        <time>2025-01-16T08:18:49Z</time>
      </trkpt>
      <trkpt lat="47.58599" lon="-2.31226">
        <ele>39.7</ele>
        <time>2025-01-16T08:18:50Z</time>
      </trkpt>
      <trkpt lat="47.58598" lon="-2.31225">
        <ele>39.6</ele>
        <time>2025-01-16T08:18:51Z</time>
      </trkpt>
      <trkpt lat="47.58597" lon="-2.31224">
        <ele>39.5</ele>
        <time>2025-01-16T08:18:52Z</time>
      </trkpt>
      <trkpt lat="47.58596" lon="-2.31223">
        <ele>39.4</ele>
        <time>2025-01-16T08:18:53Z</time>
      </trkpt>
      <trkpt lat="47.58596" lon="-2.31222">
        <ele>39.4</ele>
        <time>2025-01-16T08:18:54Z</time>
      </trkpt>
      <trkpt lat="47.58595" lon="-2.31221">
        <ele>39.3</ele>
        <time>2025-01-16T08:18:55Z</time>
      </trkpt>
      <trkpt lat="47.58593" lon="-2.31219">
        <ele>39.2</ele>
        <time>2025-01-16T08:18:56Z</time>
      </trkpt>
      <trkpt lat="47.58592" lon="-2.31217">
        <ele>39.1</ele>
        <time>2025-01-16T08:18:57Z</time>
      </trkpt>
      <trkpt lat="47.58591" lon="-2.31216">
        <ele>39.1</ele>
        <time>2025-01-16T08:18:58Z</time>
      </trkpt>
      <trkpt lat="47.58589" lon="-2.31215">
        <ele>38.9</ele>
        <time>2025-01-16T08:18:59Z</time>
      </trkpt>
      <trkpt lat="47.58588" lon="-2.31214">
        <ele>38.8</ele>
        <time>2025-01-16T08:19:00Z</time>
      </trkpt>
      <trkpt lat="47.58587" lon="-2.31214">
        <ele>38.7</ele>
        <time>2025-01-16T08:19:01Z</time>
      </trkpt>
      <trkpt lat="47.58586" lon="-2.31213">
        <ele>38.6</ele>
        <time>2025-01-16T08:19:02Z</time>
      </trkpt>
      <trkpt lat="47.58585" lon="-2.31213">
        <ele>38.5</ele>
        <time>2025-01-16T08:19:03Z</time>
      </trkpt>
      <trkpt lat="47.58584" lon="-2.31212">
        <ele>38.4</ele>
        <time>2025-01-16T08:19:04Z</time>
      </trkpt>
      <trkpt lat="47.58582" lon="-2.31211">
        <ele>38.3</ele>
        <time>2025-01-16T08:19:05Z</time>
      </trkpt>
      <trkpt lat="47.58582" lon="-2.31209">
        <ele>38.3</ele>
        <time>2025-01-16T08:19:06Z</time>
      </trkpt>
      <trkpt lat="47.58582" lon="-2.31208">
        <ele>38.4</ele>
        <time>2025-01-16T08:19:07Z</time>
      </trkpt>
      <trkpt lat="47.58581" lon="-2.31206">
        <ele>38.3</ele>
        <time>2025-01-16T08:19:08Z</time>
      </trkpt>
      <trkpt lat="47.58581" lon="-2.31205">
        <ele>38.4</ele>
        <time>2025-01-16T08:19:09Z</time>
      </trkpt>
      <trkpt lat="47.5858" lon="-2.31203">
        <ele>38.3</ele>
        <time>2025-01-16T08:19:10Z</time>
      </trkpt>
      <trkpt lat="47.5858" lon="-2.31201">
        <ele>38.4</ele>
        <time>2025-01-16T08:19:11Z</time>
      </trkpt>
      <trkpt lat="47.5858" lon="-2.31199">
        <ele>38.5</ele>
        <time>2025-01-16T08:19:12Z</time>
      </trkpt>
      <trkpt lat="47.5858" lon="-2.31197">
        <ele>38.5</ele>
        <time>2025-01-16T08:19:13Z</time>
      </trkpt>
      <trkpt lat="47.5858" lon="-2.31195">
        <ele>38.6</ele>
        <time>2025-01-16T08:19:14Z</time>
      </trkpt>
      <trkpt lat="47.5858" lon="-2.31193">
        <ele>38.6</ele>
        <time>2025-01-16T08:19:15Z</time>
      </trkpt>
      <trkpt lat="47.5858" lon="-2.31191">
        <ele>38.5</ele>
        <time>2025-01-16T08:19:16Z</time>
      </trkpt>
      <trkpt lat="47.5858" lon="-2.31189">
        <ele>38.5</ele>
        <time>2025-01-16T08:19:17Z</time>
      </trkpt>
      <trkpt lat="47.58581" lon="-2.31187">
        <ele>38.5</ele>
        <time>2025-01-16T08:19:18Z</time>
      </trkpt>
      <trkpt lat="47.58581" lon="-2.31185">
        <ele>38.4</ele>
        <time>2025-01-16T08:19:19Z</time>
      </trkpt>
      <trkpt lat="47.58582" lon="-2.31184">
        <ele>38.5</ele>
        <time>2025-01-16T08:19:20Z</time>
      </trkpt>
      <trkpt lat="47.58583" lon="-2.31183">
        <ele>38.6</ele>
        <time>2025-01-16T08:19:21Z</time>
      </trkpt>
      <trkpt lat="47.58584" lon="-2.31181">
        <ele>38.6</ele>
        <time>2025-01-16T08:19:22Z</time>
      </trkpt>
      <trkpt lat="47.58585" lon="-2.31179">
        <ele>38.6</ele>
        <time>2025-01-16T08:19:23Z</time>
      </trkpt>
      <trkpt lat="47.58586" lon="-2.31177">
        <ele>38.7</ele>
        <time>2025-01-16T08:19:24Z</time>
      </trkpt>
      <trkpt lat="47.58587" lon="-2.31175">
        <ele>38.7</ele>
        <time>2025-01-16T08:19:25Z</time>
      </trkpt>
      <trkpt lat="47.58588" lon="-2.31174">
        <ele>38.8</ele>
        <time>2025-01-16T08:19:26Z</time>
      </trkpt>
      <trkpt lat="47.58589" lon="-2.31173">
        <ele>38.8</ele>
        <time>2025-01-16T08:19:27Z</time>
      </trkpt>
      <trkpt lat="47.58589" lon="-2.31173">
        <ele>38.8</ele>
        <time>2025-01-16T08:19:28Z</time>
      </trkpt>
      <trkpt lat="47.5859" lon="-2.31172">
        <ele>38.9</ele>
        <time>2025-01-16T08:19:29Z</time>
      </trkpt>
      <trkpt lat="47.58592" lon="-2.3117">
        <ele>39.1</ele>
        <time>2025-01-16T08:19:30Z</time>
      </trkpt>
      <trkpt lat="47.58593" lon="-2.31169">
        <ele>39.1</ele>
        <time>2025-01-16T08:19:31Z</time>
      </trkpt>
      <trkpt lat="47.58594" lon="-2.31168">
        <ele>39.2</ele>
        <time>2025-01-16T08:19:32Z</time>
      </trkpt>
      <trkpt lat="47.58595" lon="-2.31167">
        <ele>39.3</ele>
        <time>2025-01-16T08:19:33Z</time>
      </trkpt>
      <trkpt lat="47.58597" lon="-2.31166">
        <ele>39.5</ele>
        <time>2025-01-16T08:19:34Z</time>
      </trkpt>
      <trkpt lat="47.58598" lon="-2.31165">
        <ele>39.6</ele>
        <time>2025-01-16T08:19:35Z</time>
      </trkpt>
      <trkpt lat="47.58599" lon="-2.31164">
        <ele>39.7</ele>
        <time>2025-01-16T08:19:36Z</time>
      </trkpt>
      <trkpt lat="47.586" lon="-2.31163">
        <ele>39.9</ele>
        <time>2025-01-16T08:19:37Z</time>
      </trkpt>
      <trkpt lat="47.58601" lon="-2.31162">
        <ele>40</ele>
        <time>2025-01-16T08:19:38Z</time>
      </trkpt>
      <trkpt lat="47.58602" lon="-2.31162">
        <ele>40.1</ele>
        <time>2025-01-16T08:19:39Z</time>
      </trkpt>
      <trkpt lat="47.58603" lon="-2.31161">
        <ele>40.3</ele>
        <time>2025-01-16T08:19:40Z</time>
      </trkpt>
      <trkpt lat="47.58604" lon="-2.3116">
        <ele>40.4</ele>
        <time>2025-01-16T08:19:41Z</time>
      </trkpt>
      <trkpt lat="47.58605" lon="-2.31159">
        <ele>40.6</ele>
        <time>2025-01-16T08:19:42Z</time>
      </trkpt>
      <trkpt lat="47.58605" lon="-2.31158">
        <ele>40.6</ele>
        <time>2025-01-16T08:19:43Z</time>
      </trkpt>
      <trkpt lat="47.58606" lon="-2.31156">
        <ele>40.8</ele>
        <time>2025-01-16T08:19:44Z</time>
      </trkpt>
      <trkpt lat="47.58607" lon="-2.31156">
        <ele>40.9</ele>
        <time>2025-01-16T08:19:45Z</time>
      </trkpt>
      <trkpt lat="47.58608" lon="-2.31156">
        <ele>41</ele>
        <time>2025-01-16T08:19:46Z</time>
      </trkpt>
      <trkpt lat="47.58609" lon="-2.31156">
        <ele>41.1</ele>
        <time>2025-01-16T08:19:47Z</time>
      </trkpt>
      <trkpt lat="47.5861" lon="-2.31156">
        <ele>41.2</ele>
        <time>2025-01-16T08:19:48Z</time>
      </trkpt>
      <trkpt lat="47.58611" lon="-2.31156">
        <ele>41.4</ele>
        <time>2025-01-16T08:19:49Z</time>
      </trkpt>
      <trkpt lat="47.58613" lon="-2.31156">
        <ele>41.7</ele>
        <time>2025-01-16T08:19:50Z</time>
      </trkpt>
      <trkpt lat="47.58614" lon="-2.31156">
        <ele>41.8</ele>
        <time>2025-01-16T08:19:51Z</time>
      </trkpt>
      <trkpt lat="47.58615" lon="-2.31156">
        <ele>42</ele>
        <time>2025-01-16T08:19:52Z</time>
      </trkpt>
      <trkpt lat="47.58616" lon="-2.31156">
        <ele>42.1</ele>
        <time>2025-01-16T08:19:53Z</time>
      </trkpt>
      <trkpt lat="47.58617" lon="-2.31155">
        <ele>42.3</ele>
        <time>2025-01-16T08:19:54Z</time>
      </trkpt>
      <trkpt lat="47.58618" lon="-2.31154">
        <ele>42.5</ele>
        <time>2025-01-16T08:19:55Z</time>
      </trkpt>
      <trkpt lat="47.58618" lon="-2.31153">
        <ele>42.5</ele>
        <time>2025-01-16T08:19:56Z</time>
      </trkpt>
      <trkpt lat="47.58619" lon="-2.31152">
        <ele>42.6</ele>
        <time>2025-01-16T08:19:57Z</time>
      </trkpt>
      <trkpt lat="47.5862" lon="-2.31152">
        <ele>42.8</ele>
        <time>2025-01-16T08:19:58Z</time>
      </trkpt>
      <trkpt lat="47.58621" lon="-2.31151">
        <ele>42.9</ele>
        <time>2025-01-16T08:19:59Z</time>
      </trkpt>
      <trkpt lat="47.58622" lon="-2.31151">
        <ele>43.1</ele>
        <time>2025-01-16T08:20:00Z</time>
      </trkpt>
      <trkpt lat="47.58623" lon="-2.3115">
        <ele>43.2</ele>
        <time>2025-01-16T08:20:01Z</time>
      </trkpt>
      <trkpt lat="47.58624" lon="-2.31149">
        <ele>43.4</ele>
        <time>2025-01-16T08:20:02Z</time>
      </trkpt>
      <trkpt lat="47.58624" lon="-2.31148">
        <ele>43.4</ele>
        <time>2025-01-16T08:20:03Z</time>
      </trkpt>
      <trkpt lat="47.58625" lon="-2.31147">
        <ele>43.5</ele>
        <time>2025-01-16T08:20:04Z</time>
      </trkpt>
      <trkpt lat="47.58625" lon="-2.31146">
        <ele>43.5</ele>
        <time>2025-01-16T08:20:05Z</time>
      </trkpt>
      <trkpt lat="47.58626" lon="-2.31145">
        <ele>43.6</ele>
        <time>2025-01-16T08:20:06Z</time>
      </trkpt>
      <trkpt lat="47.58627" lon="-2.31145">
        <ele>43.7</ele>
        <time>2025-01-16T08:20:07Z</time>
      </trkpt>
      <trkpt lat="47.58628" lon="-2.31144">
        <ele>43.9</ele>
        <time>2025-01-16T08:20:08Z</time>
      </trkpt>
      <trkpt lat="47.58629" lon="-2.31144">
        <ele>44</ele>
        <time>2025-01-16T08:20:09Z</time>
      </trkpt>
      <trkpt lat="47.58629" lon="-2.31143">
        <ele>44</ele>
        <time>2025-01-16T08:20:10Z</time>
      </trkpt>
      <trkpt lat="47.5863" lon="-2.31143">
        <ele>44.1</ele>
        <time>2025-01-16T08:20:11Z</time>
      </trkpt>
      <trkpt lat="47.58631" lon="-2.31142">
        <ele>44.2</ele>
        <time>2025-01-16T08:20:12Z</time>
      </trkpt>
      <trkpt lat="47.58632" lon="-2.31141">
        <ele>44.3</ele>
        <time>2025-01-16T08:20:13Z</time>
      </trkpt>
      <trkpt lat="47.58632" lon="-2.3114">
        <ele>44.3</ele>
        <time>2025-01-16T08:20:14Z</time>
      </trkpt>
      <trkpt lat="47.58633" lon="-2.31139">
        <ele>44.4</ele>
        <time>2025-01-16T08:20:15Z</time>
      </trkpt>
      <trkpt lat="47.58634" lon="-2.31137">
        <ele>44.5</ele>
        <time>2025-01-16T08:20:16Z</time>
      </trkpt>
      <trkpt lat="47.58635" lon="-2.31137">
        <ele>44.6</ele>
        <time>2025-01-16T08:20:17Z</time>
      </trkpt>
      <trkpt lat="47.58636" lon="-2.31137">
        <ele>44.7</ele>
        <time>2025-01-16T08:20:18Z</time>
      </trkpt>
      <trkpt lat="47.58637" lon="-2.31137">
        <ele>44.8</ele>
        <time>2025-01-16T08:20:19Z</time>
      </trkpt>
      <trkpt lat="47.58638" lon="-2.31137">
        <ele>44.9</ele>
        <time>2025-01-16T08:20:20Z</time>
      </trkpt>
      <trkpt lat="47.58639" lon="-2.31137">
        <ele>45</ele>
        <time>2025-01-16T08:20:21Z</time>
      </trkpt>
      <trkpt lat="47.5864" lon="-2.31136">
        <ele>45.2</ele>
        <time>2025-01-16T08:20:22Z</time>
      </trkpt>
      <trkpt lat="47.58641" lon="-2.31135">
        <ele>45.4</ele>
        <time>2025-01-16T08:20:23Z</time>
      </trkpt>
      <trkpt lat="47.58642" lon="-2.31134">
        <ele>45.6</ele>
        <time>2025-01-16T08:20:24Z</time>
      </trkpt>
      <trkpt lat="47.58643" lon="-2.31133">
        <ele>45.8</ele>
        <time>2025-01-16T08:20:25Z</time>
      </trkpt>
      <trkpt lat="47.58644" lon="-2.31131">
        <ele>46</ele>
        <time>2025-01-16T08:20:26Z</time>
      </trkpt>
      <trkpt lat="47.58644" lon="-2.3113">
        <ele>46</ele>
        <time>2025-01-16T08:20:27Z</time>
      </trkpt>
      <trkpt lat="47.58645" lon="-2.31129">
        <ele>46.2</ele>
        <time>2025-01-16T08:20:28Z</time>
      </trkpt>
      <trkpt lat="47.58646" lon="-2.31129">
        <ele>46.4</ele>
        <time>2025-01-16T08:20:29Z</time>
      </trkpt>
      <trkpt lat="47.58647" lon="-2.31128">
        <ele>46.5</ele>
        <time>2025-01-16T08:20:30Z</time>
      </trkpt>
      <trkpt lat="47.58649" lon="-2.31127">
        <ele>46.9</ele>
        <time>2025-01-16T08:20:31Z</time>
      </trkpt>
      <trkpt lat="47.5865" lon="-2.31127">
        <ele>47.1</ele>
        <time>2025-01-16T08:20:32Z</time>
      </trkpt>
      <trkpt lat="47.58651" lon="-2.31126">
        <ele>47.2</ele>
        <time>2025-01-16T08:20:33Z</time>
      </trkpt>
      <trkpt lat="47.58651" lon="-2.31125">
        <ele>47.2</ele>
        <time>2025-01-16T08:20:34Z</time>
      </trkpt>
      <trkpt lat="47.58652" lon="-2.31123">
        <ele>47.3</ele>
        <time>2025-01-16T08:20:35Z</time>
      </trkpt>
      <trkpt lat="47.58653" lon="-2.31122">
        <ele>47.4</ele>
        <time>2025-01-16T08:20:36Z</time>
      </trkpt>
      <trkpt lat="47.58654" lon="-2.31122">
        <ele>47.6</ele>
        <time>2025-01-16T08:20:37Z</time>
      </trkpt>
      <trkpt lat="47.58655" lon="-2.31121">
        <ele>47.7</ele>
        <time>2025-01-16T08:20:38Z</time>
      </trkpt>
      <trkpt lat="47.58656" lon="-2.3112">
        <ele>47.9</ele>
        <time>2025-01-16T08:20:39Z</time>
      </trkpt>
      <trkpt lat="47.58657" lon="-2.31119">
        <ele>48</ele>
        <time>2025-01-16T08:20:40Z</time>
      </trkpt>
      <trkpt lat="47.58658" lon="-2.31118">
        <ele>48.1</ele>
        <time>2025-01-16T08:20:41Z</time>
      </trkpt>
      <trkpt lat="47.5866" lon="-2.31117">
        <ele>48.4</ele>
        <time>2025-01-16T08:20:42Z</time>
      </trkpt>
      <trkpt lat="47.58661" lon="-2.31117">
        <ele>48.5</ele>
        <time>2025-01-16T08:20:43Z</time>
      </trkpt>
      <trkpt lat="47.58662" lon="-2.31116">
        <ele>48.6</ele>
        <time>2025-01-16T08:20:44Z</time>
      </trkpt>
      <trkpt lat="47.58663" lon="-2.31115">
        <ele>48.7</ele>
        <time>2025-01-16T08:20:45Z</time>
      </trkpt>
      <trkpt lat="47.58665" lon="-2.31115">
        <ele>49</ele>
        <time>2025-01-16T08:20:46Z</time>
      </trkpt>
      <trkpt lat="47.58666" lon="-2.31114">
        <ele>49.1</ele>
        <time>2025-01-16T08:20:47Z</time>
      </trkpt>
      <trkpt lat="47.58667" lon="-2.31113">
        <ele>49.2</ele>
        <time>2025-01-16T08:20:48Z</time>
      </trkpt>
      <trkpt lat="47.58668" lon="-2.31112">
        <ele>49.3</ele>
        <time>2025-01-16T08:20:49Z</time>
      </trkpt>
      <trkpt lat="47.58669" lon="-2.31112">
        <ele>49.5</ele>
        <time>2025-01-16T08:20:50Z</time>
      </trkpt>
      <trkpt lat="47.5867" lon="-2.31112">
        <ele>49.7</ele>
        <time>2025-01-16T08:20:51Z</time>
      </trkpt>
      <trkpt lat="47.5867" lon="-2.31112">
        <ele>49.7</ele>
        <time>2025-01-16T08:20:52Z</time>
      </trkpt>
      <trkpt lat="47.58671" lon="-2.3111">
        <ele>49.8</ele>
        <time>2025-01-16T08:20:53Z</time>
      </trkpt>
      <trkpt lat="47.58672" lon="-2.31109">
        <ele>49.9</ele>
        <time>2025-01-16T08:20:54Z</time>
      </trkpt>
      <trkpt lat="47.58672" lon="-2.31109">
        <ele>49.9</ele>
        <time>2025-01-16T08:20:55Z</time>
      </trkpt>
      <trkpt lat="47.58672" lon="-2.31107">
        <ele>49.9</ele>
        <time>2025-01-16T08:20:56Z</time>
      </trkpt>
      <trkpt lat="47.58674" lon="-2.31105">
        <ele>50.3</ele>
        <time>2025-01-16T08:20:58Z</time>
      </trkpt>
      <trkpt lat="47.58675" lon="-2.31104">
        <ele>50.4</ele>
        <time>2025-01-16T08:20:59Z</time>
      </trkpt>
      <trkpt lat="47.58676" lon="-2.31104">
        <ele>50.6</ele>
        <time>2025-01-16T08:21:00Z</time>
      </trkpt>
      <trkpt lat="47.58676" lon="-2.31104">
        <ele>50.6</ele>
        <time>2025-01-16T08:21:01Z</time>
      </trkpt>
      <trkpt lat="47.58677" lon="-2.31104">
        <ele>50.8</ele>
        <time>2025-01-16T08:21:02Z</time>
      </trkpt>
      <trkpt lat="47.58677" lon="-2.31103">
        <ele>50.8</ele>
        <time>2025-01-16T08:21:03Z</time>
      </trkpt>
      <trkpt lat="47.58677" lon="-2.31103">
        <ele>50.8</ele>
        <time>2025-01-16T08:21:04Z</time>
      </trkpt>
      <trkpt lat="47.58678" lon="-2.31103">
        <ele>50.9</ele>
        <time>2025-01-16T08:21:05Z</time>
      </trkpt>
      <trkpt lat="47.58679" lon="-2.31104">
        <ele>51.1</ele>
        <time>2025-01-16T08:21:06Z</time>
      </trkpt>
      <trkpt lat="47.5868" lon="-2.31104">
        <ele>51.3</ele>
        <time>2025-01-16T08:21:07Z</time>
      </trkpt>
      <trkpt lat="47.58681" lon="-2.31104">
        <ele>51.4</ele>
        <time>2025-01-16T08:21:08Z</time>
      </trkpt>
      <trkpt lat="47.58681" lon="-2.31104">
        <ele>51.4</ele>
        <time>2025-01-16T08:21:09Z</time>
      </trkpt>
      <trkpt lat="47.58682" lon="-2.31104">
        <ele>51.6</ele>
        <time>2025-01-16T08:21:10Z</time>
      </trkpt>
      <trkpt lat="47.58685" lon="-2.31102">
        <ele>52.1</ele>
        <time>2025-01-16T08:21:13Z</time>
      </trkpt>
      <trkpt lat="47.58686" lon="-2.31101">
        <ele>52.2</ele>
        <time>2025-01-16T08:21:14Z</time>
      </trkpt>
      <trkpt lat="47.58687" lon="-2.311">
        <ele>52.4</ele>
        <time>2025-01-16T08:21:15Z</time>
      </trkpt>
      <trkpt lat="47.58687" lon="-2.311">
        <ele>52.4</ele>
        <time>2025-01-16T08:21:16Z</time>
      </trkpt>
      <trkpt lat="47.58688" lon="-2.31099">
        <ele>52.5</ele>
        <time>2025-01-16T08:21:17Z</time>
      </trkpt>
      <trkpt lat="47.58689" lon="-2.31099">
        <ele>52.7</ele>
        <time>2025-01-16T08:21:18Z</time>
      </trkpt>
      <trkpt lat="47.5869" lon="-2.31099">
        <ele>52.8</ele>
        <time>2025-01-16T08:21:19Z</time>
      </trkpt>
      <trkpt lat="47.5869" lon="-2.31099">
        <ele>52.8</ele>
        <time>2025-01-16T08:21:20Z</time>
      </trkpt>
      <trkpt lat="47.58691" lon="-2.31099">
        <ele>53</ele>
        <time>2025-01-16T08:21:21Z</time>
      </trkpt>
      <trkpt lat="47.58691" lon="-2.31099">
        <ele>53</ele>
        <time>2025-01-16T08:21:22Z</time>
      </trkpt>
      <trkpt lat="47.58692" lon="-2.31099">
        <ele>53.2</ele>
        <time>2025-01-16T08:21:23Z</time>
      </trkpt>
      <trkpt lat="47.58693" lon="-2.31099">
        <ele>53.3</ele>
        <time>2025-01-16T08:21:24Z</time>
      </trkpt>
      <trkpt lat="47.58694" lon="-2.31099">
        <ele>53.5</ele>
        <time>2025-01-16T08:21:25Z</time>
      </trkpt>
      <trkpt lat="47.58694" lon="-2.31099">
        <ele>53.5</ele>
        <time>2025-01-16T08:21:26Z</time>
      </trkpt>
      <trkpt lat="47.58695" lon="-2.311">
        <ele>53.7</ele>
        <time>2025-01-16T08:21:27Z</time>
      </trkpt>
      <trkpt lat="47.58696" lon="-2.311">
        <ele>53.8</ele>
        <time>2025-01-16T08:21:28Z</time>
      </trkpt>
      <trkpt lat="47.58697" lon="-2.31099">
        <ele>53.9</ele>
        <time>2025-01-16T08:21:29Z</time>
      </trkpt>
      <trkpt lat="47.58698" lon="-2.31099">
        <ele>54.1</ele>
        <time>2025-01-16T08:21:30Z</time>
      </trkpt>
      <trkpt lat="47.587" lon="-2.31099">
        <ele>54.4</ele>
        <time>2025-01-16T08:21:31Z</time>
      </trkpt>
      <trkpt lat="47.58701" lon="-2.31098">
        <ele>54.5</ele>
        <time>2025-01-16T08:21:32Z</time>
      </trkpt>
      <trkpt lat="47.58702" lon="-2.31098">
        <ele>54.6</ele>
        <time>2025-01-16T08:21:33Z</time>
      </trkpt>
      <trkpt lat="47.58702" lon="-2.31099">
        <ele>54.7</ele>
        <time>2025-01-16T08:21:34Z</time>
      </trkpt>
      <trkpt lat="47.58703" lon="-2.31099">
        <ele>54.8</ele>
        <time>2025-01-16T08:21:35Z</time>
      </trkpt>
      <trkpt lat="47.58704" lon="-2.31099">
        <ele>54.9</ele>
        <time>2025-01-16T08:21:36Z</time>
      </trkpt>
      <trkpt lat="47.58705" lon="-2.31099">
        <ele>55.1</ele>
        <time>2025-01-16T08:21:37Z</time>
      </trkpt>
      <trkpt lat="47.58706" lon="-2.31099">
        <ele>55.2</ele>
        <time>2025-01-16T08:21:38Z</time>
      </trkpt>
      <trkpt lat="47.58707" lon="-2.31099">
        <ele>55.4</ele>
        <time>2025-01-16T08:21:39Z</time>
      </trkpt>
      <trkpt lat="47.58707" lon="-2.31099">
        <ele>55.4</ele>
        <time>2025-01-16T08:21:40Z</time>
      </trkpt>
      <trkpt lat="47.58709" lon="-2.31099">
        <ele>55.7</ele>
        <time>2025-01-16T08:21:41Z</time>
      </trkpt>
      <trkpt lat="47.5871" lon="-2.31099">
        <ele>55.8</ele>
        <time>2025-01-16T08:21:42Z</time>
      </trkpt>
      <trkpt lat="47.58711" lon="-2.31099">
        <ele>55.9</ele>
        <time>2025-01-16T08:21:43Z</time>
      </trkpt>
      <trkpt lat="47.58712" lon="-2.31099">
        <ele>56.1</ele>
        <time>2025-01-16T08:21:44Z</time>
      </trkpt>
      <trkpt lat="47.58713" lon="-2.31098">
        <ele>56.2</ele>
        <time>2025-01-16T08:21:45Z</time>
      </trkpt>
      <trkpt lat="47.58715" lon="-2.31098">
        <ele>56.5</ele>
        <time>2025-01-16T08:21:46Z</time>
      </trkpt>
      <trkpt lat="47.58716" lon="-2.31097">
        <ele>56.6</ele>
        <time>2025-01-16T08:21:47Z</time>
      </trkpt>
      <trkpt lat="47.58717" lon="-2.31097">
        <ele>56.7</ele>
        <time>2025-01-16T08:21:48Z</time>
      </trkpt>
      <trkpt lat="47.58718" lon="-2.31097">
        <ele>56.9</ele>
        <time>2025-01-16T08:21:49Z</time>
      </trkpt>
      <trkpt lat="47.58719" lon="-2.31097">
        <ele>57</ele>
        <time>2025-01-16T08:21:50Z</time>
      </trkpt>
      <trkpt lat="47.5872" lon="-2.31097">
        <ele>57.2</ele>
        <time>2025-01-16T08:21:51Z</time>
      </trkpt>
      <trkpt lat="47.58721" lon="-2.31098">
        <ele>57.4</ele>
        <time>2025-01-16T08:21:52Z</time>
      </trkpt>
      <trkpt lat="47.58722" lon="-2.31098">
        <ele>57.5</ele>
        <time>2025-01-16T08:21:53Z</time>
      </trkpt>
      <trkpt lat="47.58723" lon="-2.31098">
        <ele>57.6</ele>
        <time>2025-01-16T08:21:54Z</time>
      </trkpt>
      <trkpt lat="47.58724" lon="-2.31098">
        <ele>57.8</ele>
        <time>2025-01-16T08:21:55Z</time>
      </trkpt>
      <trkpt lat="47.58725" lon="-2.31097">
        <ele>57.8</ele>
        <time>2025-01-16T08:21:56Z</time>
      </trkpt>
      <trkpt lat="47.58726" lon="-2.31097">
        <ele>58</ele>
        <time>2025-01-16T08:21:57Z</time>
      </trkpt>
      <trkpt lat="47.58728" lon="-2.31097">
        <ele>58.2</ele>
        <time>2025-01-16T08:21:58Z</time>
      </trkpt>
      <trkpt lat="47.58729" lon="-2.31097">
        <ele>58.3</ele>
        <time>2025-01-16T08:21:59Z</time>
      </trkpt>
      <trkpt lat="47.5873" lon="-2.31097">
        <ele>58.5</ele>
        <time>2025-01-16T08:22:00Z</time>
      </trkpt>
      <trkpt lat="47.5873" lon="-2.31097">
        <ele>58.5</ele>
        <time>2025-01-16T08:22:01Z</time>
      </trkpt>
      <trkpt lat="47.58731" lon="-2.31097">
        <ele>58.6</ele>
        <time>2025-01-16T08:22:02Z</time>
      </trkpt>
      <trkpt lat="47.58732" lon="-2.31097">
        <ele>58.7</ele>
        <time>2025-01-16T08:22:03Z</time>
      </trkpt>
      <trkpt lat="47.58734" lon="-2.31097">
        <ele>59</ele>
        <time>2025-01-16T08:22:04Z</time>
      </trkpt>
      <trkpt lat="47.58736" lon="-2.31096">
        <ele>59.2</ele>
        <time>2025-01-16T08:22:05Z</time>
      </trkpt>
      <trkpt lat="47.58738" lon="-2.31096">
        <ele>59.5</ele>
        <time>2025-01-16T08:22:06Z</time>
      </trkpt>
      <trkpt lat="47.58739" lon="-2.31095">
        <ele>59.6</ele>
        <time>2025-01-16T08:22:07Z</time>
      </trkpt>
      <trkpt lat="47.5874" lon="-2.31095">
        <ele>59.7</ele>
        <time>2025-01-16T08:22:08Z</time>
      </trkpt>
      <trkpt lat="47.58741" lon="-2.31095">
        <ele>59.8</ele>
        <time>2025-01-16T08:22:09Z</time>
      </trkpt>
      <trkpt lat="47.58742" lon="-2.31095">
        <ele>60</ele>
        <time>2025-01-16T08:22:10Z</time>
      </trkpt>
      <trkpt lat="47.58744" lon="-2.31095">
        <ele>60.2</ele>
        <time>2025-01-16T08:22:11Z</time>
      </trkpt>
      <trkpt lat="47.58745" lon="-2.31095">
        <ele>60.4</ele>
        <time>2025-01-16T08:22:12Z</time>
      </trkpt>
      <trkpt lat="47.58746" lon="-2.31095">
        <ele>60.5</ele>
        <time>2025-01-16T08:22:13Z</time>
      </trkpt>
      <trkpt lat="47.58747" lon="-2.31095">
        <ele>60.6</ele>
        <time>2025-01-16T08:22:14Z</time>
      </trkpt>
      <trkpt lat="47.58748" lon="-2.31096">
        <ele>60.7</ele>
        <time>2025-01-16T08:22:15Z</time>
      </trkpt>
      <trkpt lat="47.58748" lon="-2.31097">
        <ele>60.7</ele>
        <time>2025-01-16T08:22:16Z</time>
      </trkpt>
      <trkpt lat="47.58749" lon="-2.31097">
        <ele>60.9</ele>
        <time>2025-01-16T08:22:17Z</time>
      </trkpt>
      <trkpt lat="47.5875" lon="-2.31098">
        <ele>61</ele>
        <time>2025-01-16T08:22:18Z</time>
      </trkpt>
      <trkpt lat="47.58751" lon="-2.31098">
        <ele>61.1</ele>
        <time>2025-01-16T08:22:19Z</time>
      </trkpt>
      <trkpt lat="47.58752" lon="-2.31099">
        <ele>61.2</ele>
        <time>2025-01-16T08:22:20Z</time>
      </trkpt>
      <trkpt lat="47.58752" lon="-2.311">
        <ele>61.2</ele>
        <time>2025-01-16T08:22:21Z</time>
      </trkpt>
      <trkpt lat="47.58753" lon="-2.31101">
        <ele>61.3</ele>
        <time>2025-01-16T08:22:22Z</time>
      </trkpt>
      <trkpt lat="47.58754" lon="-2.31103">
        <ele>61.4</ele>
        <time>2025-01-16T08:22:23Z</time>
      </trkpt>
      <trkpt lat="47.58754" lon="-2.31104">
        <ele>61.4</ele>
        <time>2025-01-16T08:22:24Z</time>
      </trkpt>
      <trkpt lat="47.58755" lon="-2.31105">
        <ele>61.5</ele>
        <time>2025-01-16T08:22:25Z</time>
      </trkpt>
      <trkpt lat="47.58755" lon="-2.31106">
        <ele>61.5</ele>
        <time>2025-01-16T08:22:26Z</time>
      </trkpt>
      <trkpt lat="47.58755" lon="-2.31108">
        <ele>61.5</ele>
        <time>2025-01-16T08:22:27Z</time>
      </trkpt>
      <trkpt lat="47.58755" lon="-2.3111">
        <ele>61.5</ele>
        <time>2025-01-16T08:22:28Z</time>
      </trkpt>
      <trkpt lat="47.58755" lon="-2.31112">
        <ele>61.6</ele>
        <time>2025-01-16T08:22:29Z</time>
      </trkpt>
      <trkpt lat="47.58755" lon="-2.31113">
        <ele>61.7</ele>
        <time>2025-01-16T08:22:30Z</time>
      </trkpt>
      <trkpt lat="47.58755" lon="-2.31115">
        <ele>61.8</ele>
        <time>2025-01-16T08:22:31Z</time>
      </trkpt>
      <trkpt lat="47.58755" lon="-2.31116">
        <ele>61.9</ele>
        <time>2025-01-16T08:22:32Z</time>
      </trkpt>
      <trkpt lat="47.58755" lon="-2.31118">
        <ele>62</ele>
        <time>2025-01-16T08:22:33Z</time>
      </trkpt>
      <trkpt lat="47.58755" lon="-2.3112">
        <ele>62.1</ele>
        <time>2025-01-16T08:22:34Z</time>
      </trkpt>
      <trkpt lat="47.58756" lon="-2.31122">
        <ele>62.3</ele>
        <time>2025-01-16T08:22:35Z</time>
      </trkpt>
      <trkpt lat="47.58756" lon="-2.31124">
        <ele>62.5</ele>
        <time>2025-01-16T08:22:36Z</time>
      </trkpt>
      <trkpt lat="47.58756" lon="-2.31126">
        <ele>62.6</ele>
        <time>2025-01-16T08:22:37Z</time>
      </trkpt>
      <trkpt lat="47.58756" lon="-2.31128">
        <ele>62.7</ele>
        <time>2025-01-16T08:22:38Z</time>
      </trkpt>
      <trkpt lat="47.58755" lon="-2.3113">
        <ele>62.8</ele>
        <time>2025-01-16T08:22:39Z</time>
      </trkpt>
      <trkpt lat="47.58755" lon="-2.31132">
        <ele>62.9</ele>
        <time>2025-01-16T08:22:40Z</time>
      </trkpt>
      <trkpt lat="47.58755" lon="-2.31132">
        <ele>62.9</ele>
        <time>2025-01-16T08:22:41Z</time>
      </trkpt>
      <trkpt lat="47.58755" lon="-2.31133">
        <ele>63</ele>
        <time>2025-01-16T08:22:42Z</time>
      </trkpt>
      <trkpt lat="47.58755" lon="-2.31134">
        <ele>63</ele>
        <time>2025-01-16T08:22:43Z</time>
      </trkpt>
      <trkpt lat="47.58754" lon="-2.31136">
        <ele>63.1</ele>
        <time>2025-01-16T08:22:44Z</time>
      </trkpt>
      <trkpt lat="47.58754" lon="-2.31137">
        <ele>63.2</ele>
        <time>2025-01-16T08:22:45Z</time>
      </trkpt>
      <trkpt lat="47.58753" lon="-2.31138">
        <ele>63.2</ele>
        <time>2025-01-16T08:22:46Z</time>
      </trkpt>
      <trkpt lat="47.58753" lon="-2.3114">
        <ele>63.2</ele>
        <time>2025-01-16T08:22:47Z</time>
      </trkpt>
      <trkpt lat="47.58753" lon="-2.31142">
        <ele>63.2</ele>
        <time>2025-01-16T08:22:48Z</time>
      </trkpt>
      <trkpt lat="47.58753" lon="-2.31143">
        <ele>63.2</ele>
        <time>2025-01-16T08:22:49Z</time>
      </trkpt>
      <trkpt lat="47.58753" lon="-2.31145">
        <ele>63.2</ele>
        <time>2025-01-16T08:22:50Z</time>
      </trkpt>
      <trkpt lat="47.58752" lon="-2.31147">
        <ele>63.2</ele>
        <time>2025-01-16T08:22:51Z</time>
      </trkpt>
      <trkpt lat="47.58752" lon="-2.31148">
        <ele>63.2</ele>
        <time>2025-01-16T08:22:52Z</time>
      </trkpt>
      <trkpt lat="47.58752" lon="-2.3115">
        <ele>63.2</ele>
        <time>2025-01-16T08:22:53Z</time>
      </trkpt>
      <trkpt lat="47.58752" lon="-2.31152">
        <ele>63.2</ele>
        <time>2025-01-16T08:22:54Z</time>
      </trkpt>
      <trkpt lat="47.58752" lon="-2.31154">
        <ele>63.2</ele>
        <time>2025-01-16T08:22:55Z</time>
      </trkpt>
      <trkpt lat="47.58751" lon="-2.31156">
        <ele>63.1</ele>
        <time>2025-01-16T08:22:56Z</time>
      </trkpt>
      <trkpt lat="47.58751" lon="-2.31157">
        <ele>63.1</ele>
        <time>2025-01-16T08:22:57Z</time>
      </trkpt>
      <trkpt lat="47.5875" lon="-2.31159">
        <ele>63</ele>
        <time>2025-01-16T08:22:58Z</time>
      </trkpt>
      <trkpt lat="47.5875" lon="-2.3116">
        <ele>63</ele>
        <time>2025-01-16T08:22:59Z</time>
      </trkpt>
      <trkpt lat="47.5875" lon="-2.31162">
        <ele>63</ele>
        <time>2025-01-16T08:23:00Z</time>
      </trkpt>
      <trkpt lat="47.5875" lon="-2.31163">
        <ele>63</ele>
        <time>2025-01-16T08:23:01Z</time>
      </trkpt>
      <trkpt lat="47.58751" lon="-2.31165">
        <ele>63.1</ele>
        <time>2025-01-16T08:23:02Z</time>
      </trkpt>
      <trkpt lat="47.58751" lon="-2.31166">
        <ele>63.1</ele>
        <time>2025-01-16T08:23:03Z</time>
      </trkpt>
      <trkpt lat="47.58751" lon="-2.31168">
        <ele>63.1</ele>
        <time>2025-01-16T08:23:04Z</time>
      </trkpt>
      <trkpt lat="47.58751" lon="-2.3117">
        <ele>63.1</ele>
        <time>2025-01-16T08:23:05Z</time>
      </trkpt>
      <trkpt lat="47.5875" lon="-2.31172">
        <ele>63</ele>
        <time>2025-01-16T08:23:06Z</time>
      </trkpt>
      <trkpt lat="47.5875" lon="-2.31174">
        <ele>63</ele>
        <time>2025-01-16T08:23:07Z</time>
      </trkpt>
      <trkpt lat="47.5875" lon="-2.31175">
        <ele>63</ele>
        <time>2025-01-16T08:23:08Z</time>
      </trkpt>
      <trkpt lat="47.5875" lon="-2.31177">
        <ele>63</ele>
        <time>2025-01-16T08:23:09Z</time>
      </trkpt>
      <trkpt lat="47.5875" lon="-2.31179">
        <ele>63</ele>
        <time>2025-01-16T08:23:10Z</time>
      </trkpt>
      <trkpt lat="47.58749" lon="-2.31181">
        <ele>62.9</ele>
        <time>2025-01-16T08:23:11Z</time>
      </trkpt>
      <trkpt lat="47.58749" lon="-2.31183">
        <ele>62.9</ele>
        <time>2025-01-16T08:23:12Z</time>
      </trkpt>
      <trkpt lat="47.5875" lon="-2.31184">
        <ele>63</ele>
        <time>2025-01-16T08:23:13Z</time>
      </trkpt>
      <trkpt lat="47.5875" lon="-2.31185">
        <ele>63</ele>
        <time>2025-01-16T08:23:14Z</time>
      </trkpt>
      <trkpt lat="47.5875" lon="-2.31187">
        <ele>63</ele>
        <time>2025-01-16T08:23:15Z</time>
      </trkpt>
      <trkpt lat="47.58751" lon="-2.31189">
        <ele>63.1</ele>
        <time>2025-01-16T08:23:16Z</time>
      </trkpt>
      <trkpt lat="47.58752" lon="-2.3119">
        <ele>63.2</ele>
        <time>2025-01-16T08:23:17Z</time>
      </trkpt>
      <trkpt lat="47.58752" lon="-2.31191">
        <ele>63.2</ele>
        <time>2025-01-16T08:23:18Z</time>
      </trkpt>
      <trkpt lat="47.58753" lon="-2.31192">
        <ele>63.3</ele>
        <time>2025-01-16T08:23:19Z</time>
      </trkpt>
      <trkpt lat="47.58754" lon="-2.31192">
        <ele>63.4</ele>
        <time>2025-01-16T08:23:20Z</time>
      </trkpt>
      <trkpt lat="47.58755" lon="-2.31193">
        <ele>63.5</ele>
        <time>2025-01-16T08:23:21Z</time>
      </trkpt>
      <trkpt lat="47.58756" lon="-2.31193">
        <ele>63.6</ele>
        <time>2025-01-16T08:23:22Z</time>
      </trkpt>
      <trkpt lat="47.58757" lon="-2.31193">
        <ele>63.8</ele>
        <time>2025-01-16T08:23:23Z</time>
      </trkpt>
      <trkpt lat="47.58759" lon="-2.31193">
        <ele>64</ele>
        <time>2025-01-16T08:23:24Z</time>
      </trkpt>
      <trkpt lat="47.5876" lon="-2.31192">
        <ele>64.1</ele>
        <time>2025-01-16T08:23:25Z</time>
      </trkpt>
      <trkpt lat="47.58761" lon="-2.31192">
        <ele>64.2</ele>
        <time>2025-01-16T08:23:26Z</time>
      </trkpt>
      <trkpt lat="47.58762" lon="-2.31191">
        <ele>64.3</ele>
        <time>2025-01-16T08:23:27Z</time>
      </trkpt>
      <trkpt lat="47.58764" lon="-2.31191">
        <ele>64.5</ele>
        <time>2025-01-16T08:23:28Z</time>
      </trkpt>
      <trkpt lat="47.58765" lon="-2.31191">
        <ele>64.6</ele>
        <time>2025-01-16T08:23:29Z</time>
      </trkpt>
      <trkpt lat="47.58766" lon="-2.3119">
        <ele>64.7</ele>
        <time>2025-01-16T08:23:30Z</time>
      </trkpt>
      <trkpt lat="47.58767" lon="-2.3119">
        <ele>64.8</ele>
        <time>2025-01-16T08:23:31Z</time>
      </trkpt>
      <trkpt lat="47.58769" lon="-2.3119">
        <ele>65.1</ele>
        <time>2025-01-16T08:23:32Z</time>
      </trkpt>
      <trkpt lat="47.5877" lon="-2.31189">
        <ele>65.2</ele>
        <time>2025-01-16T08:23:33Z</time>
      </trkpt>
      <trkpt lat="47.58771" lon="-2.31189">
        <ele>65.3</ele>
        <time>2025-01-16T08:23:34Z</time>
      </trkpt>
      <trkpt lat="47.58773" lon="-2.31189">
        <ele>65.5</ele>
        <time>2025-01-16T08:23:35Z</time>
      </trkpt>
      <trkpt lat="47.58774" lon="-2.31189">
        <ele>65.6</ele>
        <time>2025-01-16T08:23:36Z</time>
      </trkpt>
      <trkpt lat="47.58775" lon="-2.31189">
        <ele>65.7</ele>
        <time>2025-01-16T08:23:37Z</time>
      </trkpt>
      <trkpt lat="47.58776" lon="-2.31189">
        <ele>65.8</ele>
        <time>2025-01-16T08:23:38Z</time>
      </trkpt>
      <trkpt lat="47.58777" lon="-2.31189">
        <ele>65.9</ele>
        <time>2025-01-16T08:23:39Z</time>
      </trkpt>
      <trkpt lat="47.58778" lon="-2.31189">
        <ele>66</ele>
        <time>2025-01-16T08:23:40Z</time>
      </trkpt>
      <trkpt lat="47.58779" lon="-2.31189">
        <ele>66.1</ele>
        <time>2025-01-16T08:23:41Z</time>
      </trkpt>
      <trkpt lat="47.5878" lon="-2.31189">
        <ele>66.2</ele>
        <time>2025-01-16T08:23:42Z</time>
      </trkpt>
      <trkpt lat="47.58781" lon="-2.3119">
        <ele>66.2</ele>
        <time>2025-01-16T08:23:43Z</time>
      </trkpt>
      <trkpt lat="47.58782" lon="-2.3119">
        <ele>66.3</ele>
        <time>2025-01-16T08:23:44Z</time>
      </trkpt>
      <trkpt lat="47.58784" lon="-2.3119">
        <ele>66.4</ele>
        <time>2025-01-16T08:23:45Z</time>
      </trkpt>
      <trkpt lat="47.58785" lon="-2.3119">
        <ele>66.5</ele>
        <time>2025-01-16T08:23:46Z</time>
      </trkpt>
      <trkpt lat="47.58786" lon="-2.3119">
        <ele>66.6</ele>
        <time>2025-01-16T08:23:47Z</time>
      </trkpt>
      <trkpt lat="47.58787" lon="-2.3119">
        <ele>66.7</ele>
        <time>2025-01-16T08:23:48Z</time>
      </trkpt>
      <trkpt lat="47.58788" lon="-2.31191">
        <ele>66.7</ele>
        <time>2025-01-16T08:23:49Z</time>
      </trkpt>
      <trkpt lat="47.58789" lon="-2.31191">
        <ele>66.8</ele>
        <time>2025-01-16T08:23:50Z</time>
      </trkpt>
      <trkpt lat="47.5879" lon="-2.31191">
        <ele>66.9</ele>
        <time>2025-01-16T08:23:51Z</time>
      </trkpt>
      <trkpt lat="47.58792" lon="-2.31192">
        <ele>67</ele>
        <time>2025-01-16T08:23:52Z</time>
      </trkpt>
      <trkpt lat="47.58793" lon="-2.31192">
        <ele>67.1</ele>
        <time>2025-01-16T08:23:53Z</time>
      </trkpt>
      <trkpt lat="47.58794" lon="-2.31193">
        <ele>67.2</ele>
        <time>2025-01-16T08:23:54Z</time>
      </trkpt>
      <trkpt lat="47.58795" lon="-2.31193">
        <ele>67.2</ele>
        <time>2025-01-16T08:23:55Z</time>
      </trkpt>
      <trkpt lat="47.58795" lon="-2.31194">
        <ele>67.2</ele>
        <time>2025-01-16T08:23:56Z</time>
      </trkpt>
      <trkpt lat="47.58796" lon="-2.31194">
        <ele>67.3</ele>
        <time>2025-01-16T08:23:57Z</time>
      </trkpt>
      <trkpt lat="47.58798" lon="-2.31195">
        <ele>67.4</ele>
        <time>2025-01-16T08:23:58Z</time>
      </trkpt>
      <trkpt lat="47.58799" lon="-2.31196">
        <ele>67.5</ele>
        <time>2025-01-16T08:23:59Z</time>
      </trkpt>
      <trkpt lat="47.588" lon="-2.31196">
        <ele>67.5</ele>
        <time>2025-01-16T08:24:00Z</time>
      </trkpt>
      <trkpt lat="47.58801" lon="-2.31197">
        <ele>67.6</ele>
        <time>2025-01-16T08:24:01Z</time>
      </trkpt>
      <trkpt lat="47.58802" lon="-2.31198">
        <ele>67.6</ele>
        <time>2025-01-16T08:24:02Z</time>
      </trkpt>
      <trkpt lat="47.58803" lon="-2.31199">
        <ele>67.7</ele>
        <time>2025-01-16T08:24:03Z</time>
      </trkpt>
      <trkpt lat="47.58804" lon="-2.312">
        <ele>67.7</ele>
        <time>2025-01-16T08:24:04Z</time>
      </trkpt>
      <trkpt lat="47.58805" lon="-2.312">
        <ele>67.8</ele>
        <time>2025-01-16T08:24:05Z</time>
      </trkpt>
      <trkpt lat="47.58806" lon="-2.31201">
        <ele>67.8</ele>
        <time>2025-01-16T08:24:06Z</time>
      </trkpt>
      <trkpt lat="47.58807" lon="-2.31202">
        <ele>67.8</ele>
        <time>2025-01-16T08:24:07Z</time>
      </trkpt>
      <trkpt lat="47.58808" lon="-2.31203">
        <ele>67.8</ele>
        <time>2025-01-16T08:24:08Z</time>
      </trkpt>
      <trkpt lat="47.58808" lon="-2.31203">
        <ele>67.8</ele>
        <time>2025-01-16T08:24:09Z</time>
      </trkpt>
      <trkpt lat="47.58809" lon="-2.31204">
        <ele>67.8</ele>
        <time>2025-01-16T08:24:10Z</time>
      </trkpt>
      <trkpt lat="47.5881" lon="-2.31204">
        <ele>67.9</ele>
        <time>2025-01-16T08:24:11Z</time>
      </trkpt>
      <trkpt lat="47.58811" lon="-2.31205">
        <ele>67.9</ele>
        <time>2025-01-16T08:24:12Z</time>
      </trkpt>
      <trkpt lat="47.58812" lon="-2.31206">
        <ele>67.9</ele>
        <time>2025-01-16T08:24:13Z</time>
      </trkpt>
      <trkpt lat="47.58813" lon="-2.31206">
        <ele>68</ele>
        <time>2025-01-16T08:24:14Z</time>
      </trkpt>
      <trkpt lat="47.58813" lon="-2.31207">
        <ele>67.9</ele>
        <time>2025-01-16T08:24:15Z</time>
      </trkpt>
      <trkpt lat="47.58814" lon="-2.31208">
        <ele>68</ele>
        <time>2025-01-16T08:24:16Z</time>
      </trkpt>
      <trkpt lat="47.58815" lon="-2.31208">
        <ele>68</ele>
        <time>2025-01-16T08:24:17Z</time>
      </trkpt>
      <trkpt lat="47.58817" lon="-2.31208">
        <ele>68.1</ele>
        <time>2025-01-16T08:24:18Z</time>
      </trkpt>
      <trkpt lat="47.58818" lon="-2.31209">
        <ele>68.2</ele>
        <time>2025-01-16T08:24:19Z</time>
      </trkpt>
      <trkpt lat="47.58818" lon="-2.31209">
        <ele>68.2</ele>
        <time>2025-01-16T08:24:20Z</time>
      </trkpt>
      <trkpt lat="47.58819" lon="-2.3121">
        <ele>68.2</ele>
        <time>2025-01-16T08:24:21Z</time>
      </trkpt>
      <trkpt lat="47.5882" lon="-2.3121">
        <ele>68.3</ele>
        <time>2025-01-16T08:24:22Z</time>
      </trkpt>
      <trkpt lat="47.58821" lon="-2.31211">
        <ele>68.3</ele>
        <time>2025-01-16T08:24:23Z</time>
      </trkpt>
      <trkpt lat="47.58822" lon="-2.31211">
        <ele>68.3</ele>
        <time>2025-01-16T08:24:24Z</time>
      </trkpt>
      <trkpt lat="47.58823" lon="-2.31212">
        <ele>68.4</ele>
        <time>2025-01-16T08:24:25Z</time>
      </trkpt>
      <trkpt lat="47.58824" lon="-2.31212">
        <ele>68.5</ele>
        <time>2025-01-16T08:24:26Z</time>
      </trkpt>
      <trkpt lat="47.58826" lon="-2.31213">
        <ele>68.6</ele>
        <time>2025-01-16T08:24:27Z</time>
      </trkpt>
      <trkpt lat="47.58827" lon="-2.31214">
        <ele>68.6</ele>
        <time>2025-01-16T08:24:28Z</time>
      </trkpt>
      <trkpt lat="47.58828" lon="-2.31215">
        <ele>68.7</ele>
        <time>2025-01-16T08:24:29Z</time>
      </trkpt>
      <trkpt lat="47.58829" lon="-2.31216">
        <ele>68.7</ele>
        <time>2025-01-16T08:24:30Z</time>
      </trkpt>
      <trkpt lat="47.5883" lon="-2.31216">
        <ele>68.8</ele>
        <time>2025-01-16T08:24:31Z</time>
      </trkpt>
      <trkpt lat="47.58831" lon="-2.31217">
        <ele>68.8</ele>
        <time>2025-01-16T08:24:32Z</time>
      </trkpt>
      <trkpt lat="47.58831" lon="-2.31218">
        <ele>68.8</ele>
        <time>2025-01-16T08:24:33Z</time>
      </trkpt>
      <trkpt lat="47.58832" lon="-2.31218">
        <ele>68.9</ele>
        <time>2025-01-16T08:24:34Z</time>
      </trkpt>
      <trkpt lat="47.58833" lon="-2.31218">
        <ele>69</ele>
        <time>2025-01-16T08:24:35Z</time>
      </trkpt>
      <trkpt lat="47.58833" lon="-2.31219">
        <ele>69</ele>
        <time>2025-01-16T08:24:36Z</time>
      </trkpt>
      <trkpt lat="47.58835" lon="-2.31219">
        <ele>69.1</ele>
        <time>2025-01-16T08:24:37Z</time>
      </trkpt>
      <trkpt lat="47.58835" lon="-2.3122">
        <ele>69.1</ele>
        <time>2025-01-16T08:24:38Z</time>
      </trkpt>
      <trkpt lat="47.58836" lon="-2.3122">
        <ele>69.2</ele>
        <time>2025-01-16T08:24:39Z</time>
      </trkpt>
      <trkpt lat="47.58837" lon="-2.3122">
        <ele>69.3</ele>
        <time>2025-01-16T08:24:40Z</time>
      </trkpt>
      <trkpt lat="47.58838" lon="-2.3122">
        <ele>69.3</ele>
        <time>2025-01-16T08:24:41Z</time>
      </trkpt>
      <trkpt lat="47.58839" lon="-2.3122">
        <ele>69.4</ele>
        <time>2025-01-16T08:24:42Z</time>
      </trkpt>
      <trkpt lat="47.5884" lon="-2.3122">
        <ele>69.5</ele>
        <time>2025-01-16T08:24:43Z</time>
      </trkpt>
      <trkpt lat="47.58841" lon="-2.3122">
        <ele>69.6</ele>
        <time>2025-01-16T08:24:44Z</time>
      </trkpt>
      <trkpt lat="47.58842" lon="-2.31221">
        <ele>69.6</ele>
        <time>2025-01-16T08:24:45Z</time>
      </trkpt>
      <trkpt lat="47.58843" lon="-2.31221">
        <ele>69.7</ele>
        <time>2025-01-16T08:24:46Z</time>
      </trkpt>
      <trkpt lat="47.58844" lon="-2.31221">
        <ele>69.8</ele>
        <time>2025-01-16T08:24:47Z</time>
      </trkpt>
      <trkpt lat="47.58845" lon="-2.31221">
        <ele>69.8</ele>
        <time>2025-01-16T08:24:48Z</time>
      </trkpt>
      <trkpt lat="47.58847" lon="-2.31222">
        <ele>70</ele>
        <time>2025-01-16T08:24:49Z</time>
      </trkpt>
      <trkpt lat="47.58848" lon="-2.31222">
        <ele>70.1</ele>
        <time>2025-01-16T08:24:50Z</time>
      </trkpt>
      <trkpt lat="47.58849" lon="-2.31223">
        <ele>70.1</ele>
        <time>2025-01-16T08:24:51Z</time>
      </trkpt>
      <trkpt lat="47.5885" lon="-2.31223">
        <ele>70.2</ele>
        <time>2025-01-16T08:24:52Z</time>
      </trkpt>
      <trkpt lat="47.58851" lon="-2.31224">
        <ele>70.2</ele>
        <time>2025-01-16T08:24:53Z</time>
      </trkpt>
      <trkpt lat="47.58851" lon="-2.31225">
        <ele>70.2</ele>
        <time>2025-01-16T08:24:54Z</time>
      </trkpt>
      <trkpt lat="47.58853" lon="-2.31226">
        <ele>70.3</ele>
        <time>2025-01-16T08:24:55Z</time>
      </trkpt>
      <trkpt lat="47.58854" lon="-2.31226">
        <ele>70.4</ele>
        <time>2025-01-16T08:24:56Z</time>
      </trkpt>
      <trkpt lat="47.58855" lon="-2.31227">
        <ele>70.4</ele>
        <time>2025-01-16T08:24:57Z</time>
      </trkpt>
      <trkpt lat="47.58856" lon="-2.31228">
        <ele>70.4</ele>
        <time>2025-01-16T08:24:58Z</time>
      </trkpt>
      <trkpt lat="47.58857" lon="-2.31228">
        <ele>70.5</ele>
        <time>2025-01-16T08:24:59Z</time>
      </trkpt>
      <trkpt lat="47.58858" lon="-2.31229">
        <ele>70.5</ele>
        <time>2025-01-16T08:25:00Z</time>
      </trkpt>
      <trkpt lat="47.58859" lon="-2.3123">
        <ele>70.6</ele>
        <time>2025-01-16T08:25:01Z</time>
      </trkpt>
      <trkpt lat="47.5886" lon="-2.31231">
        <ele>70.6</ele>
        <time>2025-01-16T08:25:02Z</time>
      </trkpt>
      <trkpt lat="47.58861" lon="-2.31231">
        <ele>70.7</ele>
        <time>2025-01-16T08:25:03Z</time>
      </trkpt>
      <trkpt lat="47.58862" lon="-2.31232">
        <ele>70.7</ele>
        <time>2025-01-16T08:25:04Z</time>
      </trkpt>
      <trkpt lat="47.58863" lon="-2.31233">
        <ele>70.7</ele>
        <time>2025-01-16T08:25:05Z</time>
      </trkpt>
      <trkpt lat="47.58864" lon="-2.31234">
        <ele>70.8</ele>
        <time>2025-01-16T08:25:06Z</time>
      </trkpt>
      <trkpt lat="47.58865" lon="-2.31234">
        <ele>70.9</ele>
        <time>2025-01-16T08:25:07Z</time>
      </trkpt>
      <trkpt lat="47.58867" lon="-2.31235">
        <ele>71</ele>
        <time>2025-01-16T08:25:08Z</time>
      </trkpt>
      <trkpt lat="47.58868" lon="-2.31236">
        <ele>71</ele>
        <time>2025-01-16T08:25:09Z</time>
      </trkpt>
      <trkpt lat="47.58869" lon="-2.31237">
        <ele>71</ele>
        <time>2025-01-16T08:25:10Z</time>
      </trkpt>
      <trkpt lat="47.58869" lon="-2.31237">
        <ele>71</ele>
        <time>2025-01-16T08:25:11Z</time>
      </trkpt>
      <trkpt lat="47.5887" lon="-2.31238">
        <ele>71.1</ele>
        <time>2025-01-16T08:25:12Z</time>
      </trkpt>
      <trkpt lat="47.58872" lon="-2.31239">
        <ele>71.2</ele>
        <time>2025-01-16T08:25:13Z</time>
      </trkpt>
      <trkpt lat="47.58873" lon="-2.3124">
        <ele>71.2</ele>
        <time>2025-01-16T08:25:14Z</time>
      </trkpt>
      <trkpt lat="47.58874" lon="-2.31241">
        <ele>71.3</ele>
        <time>2025-01-16T08:25:15Z</time>
      </trkpt>
      <trkpt lat="47.58875" lon="-2.31241">
        <ele>71.3</ele>
        <time>2025-01-16T08:25:16Z</time>
      </trkpt>
      <trkpt lat="47.58876" lon="-2.31242">
        <ele>71.4</ele>
        <time>2025-01-16T08:25:17Z</time>
      </trkpt>
      <trkpt lat="47.58877" lon="-2.31243">
        <ele>71.4</ele>
        <time>2025-01-16T08:25:18Z</time>
      </trkpt>
      <trkpt lat="47.58878" lon="-2.31244">
        <ele>71.4</ele>
        <time>2025-01-16T08:25:19Z</time>
      </trkpt>
      <trkpt lat="47.58879" lon="-2.31244">
        <ele>71.5</ele>
        <time>2025-01-16T08:25:20Z</time>
      </trkpt>
      <trkpt lat="47.5888" lon="-2.31245">
        <ele>71.5</ele>
        <time>2025-01-16T08:25:21Z</time>
      </trkpt>
      <trkpt lat="47.58881" lon="-2.31245">
        <ele>71.6</ele>
        <time>2025-01-16T08:25:22Z</time>
      </trkpt>
      <trkpt lat="47.58883" lon="-2.31246">
        <ele>71.7</ele>
        <time>2025-01-16T08:25:23Z</time>
      </trkpt>
      <trkpt lat="47.58884" lon="-2.31246">
        <ele>71.8</ele>
        <time>2025-01-16T08:25:24Z</time>
      </trkpt>
      <trkpt lat="47.58885" lon="-2.31247">
        <ele>71.8</ele>
        <time>2025-01-16T08:25:25Z</time>
      </trkpt>
      <trkpt lat="47.58886" lon="-2.31247">
        <ele>71.9</ele>
        <time>2025-01-16T08:25:26Z</time>
      </trkpt>
      <trkpt lat="47.58887" lon="-2.31248">
        <ele>71.9</ele>
        <time>2025-01-16T08:25:27Z</time>
      </trkpt>
      <trkpt lat="47.58888" lon="-2.31248">
        <ele>72</ele>
        <time>2025-01-16T08:25:28Z</time>
      </trkpt>
      <trkpt lat="47.58889" lon="-2.31249">
        <ele>72</ele>
        <time>2025-01-16T08:25:29Z</time>
      </trkpt>
      <trkpt lat="47.58891" lon="-2.31249">
        <ele>72.2</ele>
        <time>2025-01-16T08:25:30Z</time>
      </trkpt>
      <trkpt lat="47.58892" lon="-2.31249">
        <ele>72.3</ele>
        <time>2025-01-16T08:25:31Z</time>
      </trkpt>
      <trkpt lat="47.58893" lon="-2.31249">
        <ele>72.3</ele>
        <time>2025-01-16T08:25:32Z</time>
      </trkpt>
      <trkpt lat="47.58894" lon="-2.31249">
        <ele>72.4</ele>
        <time>2025-01-16T08:25:33Z</time>
      </trkpt>
      <trkpt lat="47.58895" lon="-2.31249">
        <ele>72.5</ele>
        <time>2025-01-16T08:25:34Z</time>
      </trkpt>
      <trkpt lat="47.58896" lon="-2.3125">
        <ele>72.5</ele>
        <time>2025-01-16T08:25:35Z</time>
      </trkpt>
      <trkpt lat="47.58896" lon="-2.3125">
        <ele>72.5</ele>
        <time>2025-01-16T08:25:36Z</time>
      </trkpt>
      <trkpt lat="47.58897" lon="-2.3125">
        <ele>72.6</ele>
        <time>2025-01-16T08:25:37Z</time>
      </trkpt>
      <trkpt lat="47.58898" lon="-2.31251">
        <ele>72.6</ele>
        <time>2025-01-16T08:25:38Z</time>
      </trkpt>
      <trkpt lat="47.58899" lon="-2.31251">
        <ele>72.7</ele>
        <time>2025-01-16T08:25:39Z</time>
      </trkpt>
      <trkpt lat="47.589" lon="-2.31252">
        <ele>72.8</ele>
        <time>2025-01-16T08:25:40Z</time>
      </trkpt>
      <trkpt lat="47.58902" lon="-2.31252">
        <ele>72.9</ele>
        <time>2025-01-16T08:25:41Z</time>
      </trkpt>
      <trkpt lat="47.58903" lon="-2.31252">
        <ele>73</ele>
        <time>2025-01-16T08:25:42Z</time>
      </trkpt>
      <trkpt lat="47.58904" lon="-2.31253">
        <ele>73</ele>
        <time>2025-01-16T08:25:43Z</time>
      </trkpt>
      <trkpt lat="47.58905" lon="-2.31253">
        <ele>73.1</ele>
        <time>2025-01-16T08:25:44Z</time>
      </trkpt>
      <trkpt lat="47.58906" lon="-2.31253">
        <ele>73.2</ele>
        <time>2025-01-16T08:25:45Z</time>
      </trkpt>
      <trkpt lat="47.58907" lon="-2.31254">
        <ele>73.2</ele>
        <time>2025-01-16T08:25:46Z</time>
      </trkpt>
      <trkpt lat="47.58908" lon="-2.31255">
        <ele>73.3</ele>
        <time>2025-01-16T08:25:47Z</time>
      </trkpt>
      <trkpt lat="47.58909" lon="-2.31256">
        <ele>73.3</ele>
        <time>2025-01-16T08:25:48Z</time>
      </trkpt>
      <trkpt lat="47.58911" lon="-2.31257">
        <ele>73.4</ele>
        <time>2025-01-16T08:25:49Z</time>
      </trkpt>
      <trkpt lat="47.58912" lon="-2.31257">
        <ele>73.5</ele>
        <time>2025-01-16T08:25:50Z</time>
      </trkpt>
      <trkpt lat="47.58913" lon="-2.31258">
        <ele>73.5</ele>
        <time>2025-01-16T08:25:51Z</time>
      </trkpt>
      <trkpt lat="47.58915" lon="-2.31258">
        <ele>73.6</ele>
        <time>2025-01-16T08:25:52Z</time>
      </trkpt>
      <trkpt lat="47.58916" lon="-2.31259">
        <ele>73.6</ele>
        <time>2025-01-16T08:25:53Z</time>
      </trkpt>
      <trkpt lat="47.58917" lon="-2.31259">
        <ele>73.7</ele>
        <time>2025-01-16T08:25:54Z</time>
      </trkpt>
      <trkpt lat="47.58919" lon="-2.3126">
        <ele>73.7</ele>
        <time>2025-01-16T08:25:55Z</time>
      </trkpt>
      <trkpt lat="47.5892" lon="-2.3126">
        <ele>73.8</ele>
        <time>2025-01-16T08:25:56Z</time>
      </trkpt>
      <trkpt lat="47.58921" lon="-2.31261">
        <ele>73.8</ele>
        <time>2025-01-16T08:25:57Z</time>
      </trkpt>
      <trkpt lat="47.58922" lon="-2.31261">
        <ele>73.8</ele>
        <time>2025-01-16T08:25:58Z</time>
      </trkpt>
      <trkpt lat="47.58923" lon="-2.31261">
        <ele>73.8</ele>
        <time>2025-01-16T08:25:59Z</time>
      </trkpt>
      <trkpt lat="47.58924" lon="-2.31262">
        <ele>73.8</ele>
        <time>2025-01-16T08:26:00Z</time>
      </trkpt>
      <trkpt lat="47.58925" lon="-2.31262">
        <ele>73.9</ele>
        <time>2025-01-16T08:26:01Z</time>
      </trkpt>
      <trkpt lat="47.58926" lon="-2.31262">
        <ele>73.9</ele>
        <time>2025-01-16T08:26:02Z</time>
      </trkpt>
      <trkpt lat="47.58928" lon="-2.31263">
        <ele>73.9</ele>
        <time>2025-01-16T08:26:03Z</time>
      </trkpt>
      <trkpt lat="47.58929" lon="-2.31264">
        <ele>73.9</ele>
        <time>2025-01-16T08:26:04Z</time>
      </trkpt>
      <trkpt lat="47.5893" lon="-2.31264">
        <ele>74</ele>
        <time>2025-01-16T08:26:05Z</time>
      </trkpt>
      <trkpt lat="47.58931" lon="-2.31265">
        <ele>74</ele>
        <time>2025-01-16T08:26:06Z</time>
      </trkpt>
      <trkpt lat="47.58932" lon="-2.31265">
        <ele>74</ele>
        <time>2025-01-16T08:26:07Z</time>
      </trkpt>
      <trkpt lat="47.58933" lon="-2.31266">
        <ele>74</ele>
        <time>2025-01-16T08:26:08Z</time>
      </trkpt>
      <trkpt lat="47.58934" lon="-2.31266">
        <ele>74</ele>
        <time>2025-01-16T08:26:09Z</time>
      </trkpt>
      <trkpt lat="47.58935" lon="-2.31267">
        <ele>74</ele>
        <time>2025-01-16T08:26:10Z</time>
      </trkpt>
      <trkpt lat="47.58936" lon="-2.31267">
        <ele>74.1</ele>
        <time>2025-01-16T08:26:11Z</time>
      </trkpt>
      <trkpt lat="47.58937" lon="-2.31267">
        <ele>74.1</ele>
        <time>2025-01-16T08:26:12Z</time>
      </trkpt>
      <trkpt lat="47.58938" lon="-2.31267">
        <ele>74.2</ele>
        <time>2025-01-16T08:26:13Z</time>
      </trkpt>
      <trkpt lat="47.5894" lon="-2.31268">
        <ele>74.2</ele>
        <time>2025-01-16T08:26:14Z</time>
      </trkpt>
      <trkpt lat="47.58942" lon="-2.31268">
        <ele>74.3</ele>
        <time>2025-01-16T08:26:15Z</time>
      </trkpt>
      <trkpt lat="47.58944" lon="-2.31269">
        <ele>74.3</ele>
        <time>2025-01-16T08:26:16Z</time>
      </trkpt>
      <trkpt lat="47.58946" lon="-2.31269">
        <ele>74.3</ele>
        <time>2025-01-16T08:26:17Z</time>
      </trkpt>
      <trkpt lat="47.58947" lon="-2.3127">
        <ele>74.3</ele>
        <time>2025-01-16T08:26:18Z</time>
      </trkpt>
      <trkpt lat="47.58949" lon="-2.3127">
        <ele>74.3</ele>
        <time>2025-01-16T08:26:19Z</time>
      </trkpt>
      <trkpt lat="47.58951" lon="-2.3127">
        <ele>74.3</ele>
        <time>2025-01-16T08:26:20Z</time>
      </trkpt>
      <trkpt lat="47.58952" lon="-2.3127">
        <ele>74.3</ele>
        <time>2025-01-16T08:26:21Z</time>
      </trkpt>
      <trkpt lat="47.58953" lon="-2.3127">
        <ele>74.3</ele>
        <time>2025-01-16T08:26:22Z</time>
      </trkpt>
      <trkpt lat="47.58955" lon="-2.3127">
        <ele>74.3</ele>
        <time>2025-01-16T08:26:23Z</time>
      </trkpt>
      <trkpt lat="47.58956" lon="-2.3127">
        <ele>74.3</ele>
        <time>2025-01-16T08:26:24Z</time>
      </trkpt>
      <trkpt lat="47.58958" lon="-2.3127">
        <ele>74.3</ele>
        <time>2025-01-16T08:26:25Z</time>
      </trkpt>
      <trkpt lat="47.58959" lon="-2.3127">
        <ele>74.3</ele>
        <time>2025-01-16T08:26:26Z</time>
      </trkpt>
      <trkpt lat="47.58961" lon="-2.3127">
        <ele>74.3</ele>
        <time>2025-01-16T08:26:27Z</time>
      </trkpt>
      <trkpt lat="47.58962" lon="-2.31271">
        <ele>74.2</ele>
        <time>2025-01-16T08:26:28Z</time>
      </trkpt>
      <trkpt lat="47.58963" lon="-2.31271">
        <ele>74.2</ele>
        <time>2025-01-16T08:26:29Z</time>
      </trkpt>
      <trkpt lat="47.58964" lon="-2.31271">
        <ele>74.2</ele>
        <time>2025-01-16T08:26:30Z</time>
      </trkpt>
      <trkpt lat="47.58965" lon="-2.31271">
        <ele>74.2</ele>
        <time>2025-01-16T08:26:31Z</time>
      </trkpt>
      <trkpt lat="47.58966" lon="-2.31272">
        <ele>74.2</ele>
        <time>2025-01-16T08:26:32Z</time>
      </trkpt>
      <trkpt lat="47.58967" lon="-2.31272">
        <ele>74.2</ele>
        <time>2025-01-16T08:26:33Z</time>
      </trkpt>
      <trkpt lat="47.58967" lon="-2.31272">
        <ele>74.2</ele>
        <time>2025-01-16T08:26:34Z</time>
      </trkpt>
      <trkpt lat="47.58968" lon="-2.31271">
        <ele>74.2</ele>
        <time>2025-01-16T08:26:35Z</time>
      </trkpt>
      <trkpt lat="47.58968" lon="-2.31271">
        <ele>74.2</ele>
        <time>2025-01-16T08:26:36Z</time>
      </trkpt>
      <trkpt lat="47.58968" lon="-2.31271">
        <ele>74.2</ele>
        <time>2025-01-16T08:26:37Z</time>
      </trkpt>
      <trkpt lat="47.58969" lon="-2.3127">
        <ele>74.3</ele>
        <time>2025-01-16T08:26:38Z</time>
      </trkpt>
      <trkpt lat="47.58971" lon="-2.3127">
        <ele>74.3</ele>
        <time>2025-01-16T08:26:39Z</time>
      </trkpt>
      <trkpt lat="47.58971" lon="-2.3127">
        <ele>74.3</ele>
        <time>2025-01-16T08:26:40Z</time>
      </trkpt>
      <trkpt lat="47.58973" lon="-2.31269">
        <ele>74.3</ele>
        <time>2025-01-16T08:26:41Z</time>
      </trkpt>
      <trkpt lat="47.58974" lon="-2.31269">
        <ele>74.3</ele>
        <time>2025-01-16T08:26:42Z</time>
      </trkpt>
      <trkpt lat="47.58975" lon="-2.3127">
        <ele>74.3</ele>
        <time>2025-01-16T08:26:43Z</time>
      </trkpt>
      <trkpt lat="47.58976" lon="-2.3127">
        <ele>74.3</ele>
        <time>2025-01-16T08:26:44Z</time>
      </trkpt>
      <trkpt lat="47.58977" lon="-2.31269">
        <ele>74.3</ele>
        <time>2025-01-16T08:26:45Z</time>
      </trkpt>
      <trkpt lat="47.58977" lon="-2.31268">
        <ele>74.4</ele>
        <time>2025-01-16T08:26:46Z</time>
      </trkpt>
      <trkpt lat="47.58978" lon="-2.31267">
        <ele>74.4</ele>
        <time>2025-01-16T08:26:47Z</time>
      </trkpt>
      <trkpt lat="47.58983" lon="-2.31266">
        <ele>74.4</ele>
        <time>2025-01-16T08:26:51Z</time>
      </trkpt>
      <trkpt lat="47.58984" lon="-2.31266">
        <ele>74.4</ele>
        <time>2025-01-16T08:26:52Z</time>
      </trkpt>
      <trkpt lat="47.58985" lon="-2.31266">
        <ele>74.4</ele>
        <time>2025-01-16T08:26:53Z</time>
      </trkpt>
      <trkpt lat="47.58986" lon="-2.31265">
        <ele>74.5</ele>
        <time>2025-01-16T08:26:54Z</time>
      </trkpt>
      <trkpt lat="47.58987" lon="-2.31265">
        <ele>74.5</ele>
        <time>2025-01-16T08:26:55Z</time>
      </trkpt>
      <trkpt lat="47.58988" lon="-2.31265">
        <ele>74.5</ele>
        <time>2025-01-16T08:26:56Z</time>
      </trkpt>
      <trkpt lat="47.5899" lon="-2.31265">
        <ele>74.5</ele>
        <time>2025-01-16T08:26:57Z</time>
      </trkpt>
      <trkpt lat="47.58991" lon="-2.31265">
        <ele>74.5</ele>
        <time>2025-01-16T08:26:58Z</time>
      </trkpt>
      <trkpt lat="47.58992" lon="-2.31265">
        <ele>74.5</ele>
        <time>2025-01-16T08:26:59Z</time>
      </trkpt>
      <trkpt lat="47.58993" lon="-2.31265">
        <ele>74.5</ele>
        <time>2025-01-16T08:27:00Z</time>
      </trkpt>
      <trkpt lat="47.58994" lon="-2.31265">
        <ele>74.5</ele>
        <time>2025-01-16T08:27:01Z</time>
      </trkpt>
      <trkpt lat="47.58995" lon="-2.31265">
        <ele>74.5</ele>
        <time>2025-01-16T08:27:02Z</time>
      </trkpt>
      <trkpt lat="47.58995" lon="-2.31264">
        <ele>74.5</ele>
        <time>2025-01-16T08:27:03Z</time>
      </trkpt>
      <trkpt lat="47.58996" lon="-2.31264">
        <ele>74.5</ele>
        <time>2025-01-16T08:27:04Z</time>
      </trkpt>
      <trkpt lat="47.58996" lon="-2.31264">
        <ele>74.5</ele>
        <time>2025-01-16T08:27:05Z</time>
      </trkpt>
      <trkpt lat="47.58997" lon="-2.31264">
        <ele>74.5</ele>
        <time>2025-01-16T08:27:06Z</time>
      </trkpt>
      <trkpt lat="47.58999" lon="-2.31264">
        <ele>74.5</ele>
        <time>2025-01-16T08:27:07Z</time>
      </trkpt>
      <trkpt lat="47.59" lon="-2.31264">
        <ele>74.5</ele>
        <time>2025-01-16T08:27:08Z</time>
      </trkpt>
      <trkpt lat="47.59001" lon="-2.31264">
        <ele>74.6</ele>
        <time>2025-01-16T08:27:09Z</time>
      </trkpt>
      <trkpt lat="47.59002" lon="-2.31263">
        <ele>74.6</ele>
        <time>2025-01-16T08:27:10Z</time>
      </trkpt>
      <trkpt lat="47.59003" lon="-2.31262">
        <ele>74.7</ele>
        <time>2025-01-16T08:27:11Z</time>
      </trkpt>
      <trkpt lat="47.59004" lon="-2.31261">
        <ele>74.8</ele>
        <time>2025-01-16T08:27:12Z</time>
      </trkpt>
      <trkpt lat="47.59004" lon="-2.31259">
        <ele>74.9</ele>
        <time>2025-01-16T08:27:13Z</time>
      </trkpt>
      <trkpt lat="47.59005" lon="-2.31258">
        <ele>74.9</ele>
        <time>2025-01-16T08:27:14Z</time>
      </trkpt>
      <trkpt lat="47.59005" lon="-2.31257">
        <ele>75</ele>
        <time>2025-01-16T08:27:15Z</time>
      </trkpt>
      <trkpt lat="47.59005" lon="-2.31256">
        <ele>75</ele>
        <time>2025-01-16T08:27:16Z</time>
      </trkpt>
      <trkpt lat="47.59005" lon="-2.31254">
        <ele>75.1</ele>
        <time>2025-01-16T08:27:17Z</time>
      </trkpt>
      <trkpt lat="47.59005" lon="-2.31252">
        <ele>75.1</ele>
        <time>2025-01-16T08:27:18Z</time>
      </trkpt>
      <trkpt lat="47.59004" lon="-2.31251">
        <ele>75.1</ele>
        <time>2025-01-16T08:27:19Z</time>
      </trkpt>
      <trkpt lat="47.59004" lon="-2.31249">
        <ele>75.2</ele>
        <time>2025-01-16T08:27:20Z</time>
      </trkpt>
      <trkpt lat="47.59003" lon="-2.31248">
        <ele>75.2</ele>
        <time>2025-01-16T08:27:21Z</time>
      </trkpt>
      <trkpt lat="47.59003" lon="-2.31246">
        <ele>75.3</ele>
        <time>2025-01-16T08:27:22Z</time>
      </trkpt>
      <trkpt lat="47.59003" lon="-2.31245">
        <ele>75.3</ele>
        <time>2025-01-16T08:27:23Z</time>
      </trkpt>
      <trkpt lat="47.59004" lon="-2.31244">
        <ele>75.4</ele>
        <time>2025-01-16T08:27:24Z</time>
      </trkpt>
      <trkpt lat="47.59004" lon="-2.31243">
        <ele>75.4</ele>
        <time>2025-01-16T08:27:25Z</time>
      </trkpt>
      <trkpt lat="47.59004" lon="-2.31241">
        <ele>75.5</ele>
        <time>2025-01-16T08:27:26Z</time>
      </trkpt>
      <trkpt lat="47.59004" lon="-2.3124">
        <ele>75.5</ele>
        <time>2025-01-16T08:27:27Z</time>
      </trkpt>
      <trkpt lat="47.59003" lon="-2.31238">
        <ele>75.5</ele>
        <time>2025-01-16T08:27:28Z</time>
      </trkpt>
      <trkpt lat="47.59003" lon="-2.31237">
        <ele>75.6</ele>
        <time>2025-01-16T08:27:29Z</time>
      </trkpt>
      <trkpt lat="47.59003" lon="-2.31236">
        <ele>75.6</ele>
        <time>2025-01-16T08:27:30Z</time>
      </trkpt>
      <trkpt lat="47.59003" lon="-2.31234">
        <ele>75.7</ele>
        <time>2025-01-16T08:27:31Z</time>
      </trkpt>
      <trkpt lat="47.59002" lon="-2.31232">
        <ele>75.7</ele>
        <time>2025-01-16T08:27:32Z</time>
      </trkpt>
      <trkpt lat="47.59002" lon="-2.31231">
        <ele>75.8</ele>
        <time>2025-01-16T08:27:33Z</time>
      </trkpt>
      <trkpt lat="47.59002" lon="-2.31229">
        <ele>75.8</ele>
        <time>2025-01-16T08:27:34Z</time>
      </trkpt>
      <trkpt lat="47.59002" lon="-2.31228">
        <ele>75.9</ele>
        <time>2025-01-16T08:27:35Z</time>
      </trkpt>
      <trkpt lat="47.59002" lon="-2.31226">
        <ele>75.9</ele>
        <time>2025-01-16T08:27:36Z</time>
      </trkpt>
      <trkpt lat="47.59002" lon="-2.31225">
        <ele>76</ele>
        <time>2025-01-16T08:27:37Z</time>
      </trkpt>
      <trkpt lat="47.59002" lon="-2.31223">
        <ele>76</ele>
        <time>2025-01-16T08:27:38Z</time>
      </trkpt>
      <trkpt lat="47.59001" lon="-2.31221">
        <ele>76.1</ele>
        <time>2025-01-16T08:27:39Z</time>
      </trkpt>
      <trkpt lat="47.59001" lon="-2.31219">
        <ele>76.1</ele>
        <time>2025-01-16T08:27:40Z</time>
      </trkpt>
      <trkpt lat="47.59" lon="-2.31218">
        <ele>76.2</ele>
        <time>2025-01-16T08:27:41Z</time>
      </trkpt>
      <trkpt lat="47.59" lon="-2.31216">
        <ele>76.2</ele>
        <time>2025-01-16T08:27:42Z</time>
      </trkpt>
      <trkpt lat="47.58999" lon="-2.31215">
        <ele>76.3</ele>
        <time>2025-01-16T08:27:43Z</time>
      </trkpt>
      <trkpt lat="47.58998" lon="-2.31213">
        <ele>76.3</ele>
        <time>2025-01-16T08:27:44Z</time>
      </trkpt>
      <trkpt lat="47.58998" lon="-2.31211">
        <ele>76.4</ele>
        <time>2025-01-16T08:27:45Z</time>
      </trkpt>
      <trkpt lat="47.58997" lon="-2.31209">
        <ele>76.4</ele>
        <time>2025-01-16T08:27:46Z</time>
      </trkpt>
      <trkpt lat="47.58997" lon="-2.31207">
        <ele>76.5</ele>
        <time>2025-01-16T08:27:47Z</time>
      </trkpt>
      <trkpt lat="47.58997" lon="-2.31205">
        <ele>76.6</ele>
        <time>2025-01-16T08:27:48Z</time>
      </trkpt>
      <trkpt lat="47.58997" lon="-2.31204">
        <ele>76.6</ele>
        <time>2025-01-16T08:27:49Z</time>
      </trkpt>
      <trkpt lat="47.58996" lon="-2.31203">
        <ele>76.6</ele>
        <time>2025-01-16T08:27:50Z</time>
      </trkpt>
      <trkpt lat="47.58996" lon="-2.31201">
        <ele>76.7</ele>
        <time>2025-01-16T08:27:51Z</time>
      </trkpt>
      <trkpt lat="47.58996" lon="-2.312">
        <ele>76.7</ele>
        <time>2025-01-16T08:27:52Z</time>
      </trkpt>
      <trkpt lat="47.58995" lon="-2.31199">
        <ele>76.7</ele>
        <time>2025-01-16T08:27:53Z</time>
      </trkpt>
      <trkpt lat="47.58994" lon="-2.31197">
        <ele>76.7</ele>
        <time>2025-01-16T08:27:54Z</time>
      </trkpt>
      <trkpt lat="47.58994" lon="-2.31195">
        <ele>76.8</ele>
        <time>2025-01-16T08:27:55Z</time>
      </trkpt>
      <trkpt lat="47.58994" lon="-2.31194">
        <ele>76.8</ele>
        <time>2025-01-16T08:27:56Z</time>
      </trkpt>
      <trkpt lat="47.58994" lon="-2.31192">
        <ele>76.8</ele>
        <time>2025-01-16T08:27:57Z</time>
      </trkpt>
      <trkpt lat="47.58993" lon="-2.31191">
        <ele>76.7</ele>
        <time>2025-01-16T08:27:58Z</time>
      </trkpt>
      <trkpt lat="47.58993" lon="-2.31189">
        <ele>76.7</ele>
        <time>2025-01-16T08:27:59Z</time>
      </trkpt>
      <trkpt lat="47.58992" lon="-2.31187">
        <ele>76.7</ele>
        <time>2025-01-16T08:28:00Z</time>
      </trkpt>
      <trkpt lat="47.58992" lon="-2.31185">
        <ele>76.7</ele>
        <time>2025-01-16T08:28:01Z</time>
      </trkpt>
      <trkpt lat="47.58991" lon="-2.31183">
        <ele>76.7</ele>
        <time>2025-01-16T08:28:02Z</time>
      </trkpt>
      <trkpt lat="47.58991" lon="-2.31181">
        <ele>76.7</ele>
        <time>2025-01-16T08:28:03Z</time>
      </trkpt>
      <trkpt lat="47.5899" lon="-2.31179">
        <ele>76.6</ele>
        <time>2025-01-16T08:28:04Z</time>
      </trkpt>
      <trkpt lat="47.5899" lon="-2.31178">
        <ele>76.6</ele>
        <time>2025-01-16T08:28:05Z</time>
      </trkpt>
      <trkpt lat="47.58989" lon="-2.31176">
        <ele>76.6</ele>
        <time>2025-01-16T08:28:06Z</time>
      </trkpt>
      <trkpt lat="47.58989" lon="-2.31175">
        <ele>76.6</ele>
        <time>2025-01-16T08:28:07Z</time>
      </trkpt>
      <trkpt lat="47.58988" lon="-2.31174">
        <ele>76.6</ele>
        <time>2025-01-16T08:28:08Z</time>
      </trkpt>
      <trkpt lat="47.58988" lon="-2.31173">
        <ele>76.6</ele>
        <time>2025-01-16T08:28:09Z</time>
      </trkpt>
      <trkpt lat="47.58988" lon="-2.31172">
        <ele>76.6</ele>
        <time>2025-01-16T08:28:10Z</time>
      </trkpt>
      <trkpt lat="47.58987" lon="-2.3117">
        <ele>76.5</ele>
        <time>2025-01-16T08:28:11Z</time>
      </trkpt>
      <trkpt lat="47.58986" lon="-2.31169">
        <ele>76.5</ele>
        <time>2025-01-16T08:28:12Z</time>
      </trkpt>
      <trkpt lat="47.58986" lon="-2.31167">
        <ele>76.5</ele>
        <time>2025-01-16T08:28:13Z</time>
      </trkpt>
      <trkpt lat="47.58985" lon="-2.31166">
        <ele>76.4</ele>
        <time>2025-01-16T08:28:14Z</time>
      </trkpt>
      <trkpt lat="47.58985" lon="-2.31163">
        <ele>76.4</ele>
        <time>2025-01-16T08:28:15Z</time>
      </trkpt>
      <trkpt lat="47.58984" lon="-2.31161">
        <ele>76.3</ele>
        <time>2025-01-16T08:28:16Z</time>
      </trkpt>
      <trkpt lat="47.58984" lon="-2.3116">
        <ele>76.3</ele>
        <time>2025-01-16T08:28:17Z</time>
      </trkpt>
      <trkpt lat="47.58983" lon="-2.31159">
        <ele>76.3</ele>
        <time>2025-01-16T08:28:18Z</time>
      </trkpt>
      <trkpt lat="47.58982" lon="-2.31157">
        <ele>76.2</ele>
        <time>2025-01-16T08:28:19Z</time>
      </trkpt>
      <trkpt lat="47.58982" lon="-2.31155">
        <ele>76.2</ele>
        <time>2025-01-16T08:28:20Z</time>
      </trkpt>
      <trkpt lat="47.58982" lon="-2.31154">
        <ele>76.2</ele>
        <time>2025-01-16T08:28:21Z</time>
      </trkpt>
      <trkpt lat="47.58981" lon="-2.31153">
        <ele>76.2</ele>
        <time>2025-01-16T08:28:22Z</time>
      </trkpt>
      <trkpt lat="47.58981" lon="-2.31151">
        <ele>76.1</ele>
        <time>2025-01-16T08:28:23Z</time>
      </trkpt>
      <trkpt lat="47.58981" lon="-2.31149">
        <ele>76.1</ele>
        <time>2025-01-16T08:28:24Z</time>
      </trkpt>
      <trkpt lat="47.58981" lon="-2.31147">
        <ele>76.1</ele>
        <time>2025-01-16T08:28:25Z</time>
      </trkpt>
      <trkpt lat="47.5898" lon="-2.31145">
        <ele>76.1</ele>
        <time>2025-01-16T08:28:26Z</time>
      </trkpt>
      <trkpt lat="47.5898" lon="-2.31143">
        <ele>76</ele>
        <time>2025-01-16T08:28:27Z</time>
      </trkpt>
      <trkpt lat="47.58979" lon="-2.3114">
        <ele>76</ele>
        <time>2025-01-16T08:28:28Z</time>
      </trkpt>
      <trkpt lat="47.58979" lon="-2.31139">
        <ele>76</ele>
        <time>2025-01-16T08:28:29Z</time>
      </trkpt>
      <trkpt lat="47.58979" lon="-2.31137">
        <ele>76</ele>
        <time>2025-01-16T08:28:30Z</time>
      </trkpt>
      <trkpt lat="47.58978" lon="-2.31135">
        <ele>76</ele>
        <time>2025-01-16T08:28:31Z</time>
      </trkpt>
      <trkpt lat="47.58978" lon="-2.31134">
        <ele>76</ele>
        <time>2025-01-16T08:28:32Z</time>
      </trkpt>
      <trkpt lat="47.58978" lon="-2.31132">
        <ele>76</ele>
        <time>2025-01-16T08:28:33Z</time>
      </trkpt>
      <trkpt lat="47.58978" lon="-2.3113">
        <ele>76</ele>
        <time>2025-01-16T08:28:34Z</time>
      </trkpt>
      <trkpt lat="47.58977" lon="-2.31128">
        <ele>76</ele>
        <time>2025-01-16T08:28:35Z</time>
      </trkpt>
      <trkpt lat="47.58977" lon="-2.31127">
        <ele>76</ele>
        <time>2025-01-16T08:28:36Z</time>
      </trkpt>
      <trkpt lat="47.58976" lon="-2.31125">
        <ele>76</ele>
        <time>2025-01-16T08:28:37Z</time>
      </trkpt>
      <trkpt lat="47.58975" lon="-2.31123">
        <ele>76</ele>
        <time>2025-01-16T08:28:38Z</time>
      </trkpt>
      <trkpt lat="47.58974" lon="-2.31121">
        <ele>76</ele>
        <time>2025-01-16T08:28:39Z</time>
      </trkpt>
      <trkpt lat="47.58974" lon="-2.3112">
        <ele>76</ele>
        <time>2025-01-16T08:28:40Z</time>
      </trkpt>
      <trkpt lat="47.58974" lon="-2.31118">
        <ele>76</ele>
        <time>2025-01-16T08:28:41Z</time>
      </trkpt>
      <trkpt lat="47.58973" lon="-2.31116">
        <ele>76</ele>
        <time>2025-01-16T08:28:42Z</time>
      </trkpt>
      <trkpt lat="47.58973" lon="-2.31114">
        <ele>76</ele>
        <time>2025-01-16T08:28:43Z</time>
      </trkpt>
      <trkpt lat="47.58972" lon="-2.31112">
        <ele>76</ele>
        <time>2025-01-16T08:28:44Z</time>
      </trkpt>
      <trkpt lat="47.58972" lon="-2.31109">
        <ele>75.9</ele>
        <time>2025-01-16T08:28:45Z</time>
      </trkpt>
      <trkpt lat="47.58972" lon="-2.31107">
        <ele>75.8</ele>
        <time>2025-01-16T08:28:46Z</time>
      </trkpt>
      <trkpt lat="47.58971" lon="-2.31106">
        <ele>75.8</ele>
        <time>2025-01-16T08:28:47Z</time>
      </trkpt>
      <trkpt lat="47.58971" lon="-2.31104">
        <ele>75.7</ele>
        <time>2025-01-16T08:28:48Z</time>
      </trkpt>
      <trkpt lat="47.58971" lon="-2.31103">
        <ele>75.7</ele>
        <time>2025-01-16T08:28:49Z</time>
      </trkpt>
      <trkpt lat="47.5897" lon="-2.31101">
        <ele>75.6</ele>
        <time>2025-01-16T08:28:50Z</time>
      </trkpt>
      <trkpt lat="47.5897" lon="-2.31099">
        <ele>75.5</ele>
        <time>2025-01-16T08:28:51Z</time>
      </trkpt>
      <trkpt lat="47.58969" lon="-2.31097">
        <ele>75.4</ele>
        <time>2025-01-16T08:28:52Z</time>
      </trkpt>
      <trkpt lat="47.58968" lon="-2.31095">
        <ele>75.4</ele>
        <time>2025-01-16T08:28:53Z</time>
      </trkpt>
      <trkpt lat="47.58968" lon="-2.31094">
        <ele>75.3</ele>
        <time>2025-01-16T08:28:54Z</time>
      </trkpt>
      <trkpt lat="47.58967" lon="-2.31093">
        <ele>75.3</ele>
        <time>2025-01-16T08:28:55Z</time>
      </trkpt>
      <trkpt lat="47.58967" lon="-2.31091">
        <ele>75.2</ele>
        <time>2025-01-16T08:28:56Z</time>
      </trkpt>
      <trkpt lat="47.58966" lon="-2.31089">
        <ele>75.2</ele>
        <time>2025-01-16T08:28:57Z</time>
      </trkpt>
      <trkpt lat="47.58965" lon="-2.31087">
        <ele>75.1</ele>
        <time>2025-01-16T08:28:58Z</time>
      </trkpt>
      <trkpt lat="47.58965" lon="-2.31085">
        <ele>75</ele>
        <time>2025-01-16T08:28:59Z</time>
      </trkpt>
      <trkpt lat="47.58964" lon="-2.31084">
        <ele>75</ele>
        <time>2025-01-16T08:29:00Z</time>
      </trkpt>
      <trkpt lat="47.58964" lon="-2.31083">
        <ele>75</ele>
        <time>2025-01-16T08:29:01Z</time>
      </trkpt>
      <trkpt lat="47.58964" lon="-2.31082">
        <ele>75</ele>
        <time>2025-01-16T08:29:02Z</time>
      </trkpt>
      <trkpt lat="47.58964" lon="-2.3108">
        <ele>74.9</ele>
        <time>2025-01-16T08:29:03Z</time>
      </trkpt>
      <trkpt lat="47.58963" lon="-2.31079">
        <ele>74.8</ele>
        <time>2025-01-16T08:29:04Z</time>
      </trkpt>
      <trkpt lat="47.58962" lon="-2.31078">
        <ele>74.8</ele>
        <time>2025-01-16T08:29:05Z</time>
      </trkpt>
      <trkpt lat="47.58962" lon="-2.31076">
        <ele>74.7</ele>
        <time>2025-01-16T08:29:06Z</time>
      </trkpt>
      <trkpt lat="47.58962" lon="-2.31075">
        <ele>74.7</ele>
        <time>2025-01-16T08:29:07Z</time>
      </trkpt>
      <trkpt lat="47.58961" lon="-2.31073">
        <ele>74.6</ele>
        <time>2025-01-16T08:29:08Z</time>
      </trkpt>
      <trkpt lat="47.5896" lon="-2.3107">
        <ele>74.5</ele>
        <time>2025-01-16T08:29:09Z</time>
      </trkpt>
      <trkpt lat="47.58959" lon="-2.31068">
        <ele>74.4</ele>
        <time>2025-01-16T08:29:10Z</time>
      </trkpt>
      <trkpt lat="47.58959" lon="-2.31067">
        <ele>74.4</ele>
        <time>2025-01-16T08:29:11Z</time>
      </trkpt>
      <trkpt lat="47.58959" lon="-2.31065">
        <ele>74.3</ele>
        <time>2025-01-16T08:29:12Z</time>
      </trkpt>
      <trkpt lat="47.58958" lon="-2.31064">
        <ele>74.3</ele>
        <time>2025-01-16T08:29:13Z</time>
      </trkpt>
      <trkpt lat="47.58957" lon="-2.31063">
        <ele>74.3</ele>
        <time>2025-01-16T08:29:14Z</time>
      </trkpt>
      <trkpt lat="47.58957" lon="-2.31061">
        <ele>74.2</ele>
        <time>2025-01-16T08:29:15Z</time>
      </trkpt>
      <trkpt lat="47.58956" lon="-2.3106">
        <ele>74.2</ele>
        <time>2025-01-16T08:29:16Z</time>
      </trkpt>
      <trkpt lat="47.58955" lon="-2.31058">
        <ele>74.1</ele>
        <time>2025-01-16T08:29:17Z</time>
      </trkpt>
      <trkpt lat="47.58955" lon="-2.31056">
        <ele>74</ele>
        <time>2025-01-16T08:29:18Z</time>
      </trkpt>
      <trkpt lat="47.58955" lon="-2.31054">
        <ele>74</ele>
        <time>2025-01-16T08:29:19Z</time>
      </trkpt>
      <trkpt lat="47.58954" lon="-2.31053">
        <ele>74</ele>
        <time>2025-01-16T08:29:20Z</time>
      </trkpt>
      <trkpt lat="47.58954" lon="-2.31052">
        <ele>74</ele>
        <time>2025-01-16T08:29:21Z</time>
      </trkpt>
      <trkpt lat="47.58954" lon="-2.3105">
        <ele>74</ele>
        <time>2025-01-16T08:29:22Z</time>
      </trkpt>
      <trkpt lat="47.58954" lon="-2.31049">
        <ele>74</ele>
        <time>2025-01-16T08:29:23Z</time>
      </trkpt>
      <trkpt lat="47.58954" lon="-2.31048">
        <ele>74</ele>
        <time>2025-01-16T08:29:24Z</time>
      </trkpt>
      <trkpt lat="47.58953" lon="-2.31046">
        <ele>74</ele>
        <time>2025-01-16T08:29:25Z</time>
      </trkpt>
      <trkpt lat="47.58953" lon="-2.31045">
        <ele>74</ele>
        <time>2025-01-16T08:29:26Z</time>
      </trkpt>
      <trkpt lat="47.58953" lon="-2.31043">
        <ele>74</ele>
        <time>2025-01-16T08:29:27Z</time>
      </trkpt>
      <trkpt lat="47.58953" lon="-2.31042">
        <ele>74</ele>
        <time>2025-01-16T08:29:28Z</time>
      </trkpt>
      <trkpt lat="47.58952" lon="-2.3104">
        <ele>74</ele>
        <time>2025-01-16T08:29:29Z</time>
      </trkpt>
      <trkpt lat="47.58951" lon="-2.31039">
        <ele>74</ele>
        <time>2025-01-16T08:29:30Z</time>
      </trkpt>
      <trkpt lat="47.58951" lon="-2.31037">
        <ele>74</ele>
        <time>2025-01-16T08:29:31Z</time>
      </trkpt>
      <trkpt lat="47.5895" lon="-2.31036">
        <ele>74</ele>
        <time>2025-01-16T08:29:32Z</time>
      </trkpt>
      <trkpt lat="47.58949" lon="-2.31034">
        <ele>74</ele>
        <time>2025-01-16T08:29:33Z</time>
      </trkpt>
      <trkpt lat="47.58948" lon="-2.31032">
        <ele>74</ele>
        <time>2025-01-16T08:29:34Z</time>
      </trkpt>
      <trkpt lat="47.58948" lon="-2.31031">
        <ele>74</ele>
        <time>2025-01-16T08:29:35Z</time>
      </trkpt>
      <trkpt lat="47.58947" lon="-2.3103">
        <ele>74</ele>
        <time>2025-01-16T08:29:36Z</time>
      </trkpt>
      <trkpt lat="47.58946" lon="-2.31028">
        <ele>74</ele>
        <time>2025-01-16T08:29:37Z</time>
      </trkpt>
      <trkpt lat="47.58946" lon="-2.31026">
        <ele>74</ele>
        <time>2025-01-16T08:29:38Z</time>
      </trkpt>
      <trkpt lat="47.58945" lon="-2.31024">
        <ele>74</ele>
        <time>2025-01-16T08:29:39Z</time>
      </trkpt>
      <trkpt lat="47.58945" lon="-2.31023">
        <ele>74</ele>
        <time>2025-01-16T08:29:40Z</time>
      </trkpt>
      <trkpt lat="47.58945" lon="-2.3102">
        <ele>74</ele>
        <time>2025-01-16T08:29:41Z</time>
      </trkpt>
      <trkpt lat="47.58944" lon="-2.31019">
        <ele>74</ele>
        <time>2025-01-16T08:29:42Z</time>
      </trkpt>
      <trkpt lat="47.58944" lon="-2.31018">
        <ele>74</ele>
        <time>2025-01-16T08:29:43Z</time>
      </trkpt>
      <trkpt lat="47.58943" lon="-2.31017">
        <ele>73.9</ele>
        <time>2025-01-16T08:29:44Z</time>
      </trkpt>
      <trkpt lat="47.58943" lon="-2.31016">
        <ele>73.9</ele>
        <time>2025-01-16T08:29:45Z</time>
      </trkpt>
      <trkpt lat="47.58942" lon="-2.31014">
        <ele>73.9</ele>
        <time>2025-01-16T08:29:46Z</time>
      </trkpt>
      <trkpt lat="47.58942" lon="-2.31012">
        <ele>73.9</ele>
        <time>2025-01-16T08:29:47Z</time>
      </trkpt>
      <trkpt lat="47.58942" lon="-2.31011">
        <ele>73.9</ele>
        <time>2025-01-16T08:29:48Z</time>
      </trkpt>
      <trkpt lat="47.58942" lon="-2.31009">
        <ele>73.9</ele>
        <time>2025-01-16T08:29:49Z</time>
      </trkpt>
      <trkpt lat="47.58942" lon="-2.31008">
        <ele>73.9</ele>
        <time>2025-01-16T08:29:50Z</time>
      </trkpt>
      <trkpt lat="47.58942" lon="-2.31006">
        <ele>73.9</ele>
        <time>2025-01-16T08:29:51Z</time>
      </trkpt>
      <trkpt lat="47.58942" lon="-2.31004">
        <ele>73.9</ele>
        <time>2025-01-16T08:29:52Z</time>
      </trkpt>
      <trkpt lat="47.58942" lon="-2.31003">
        <ele>73.9</ele>
        <time>2025-01-16T08:29:53Z</time>
      </trkpt>
      <trkpt lat="47.58942" lon="-2.31001">
        <ele>73.9</ele>
        <time>2025-01-16T08:29:54Z</time>
      </trkpt>
      <trkpt lat="47.58942" lon="-2.31">
        <ele>73.9</ele>
        <time>2025-01-16T08:29:55Z</time>
      </trkpt>
      <trkpt lat="47.58942" lon="-2.30999">
        <ele>73.9</ele>
        <time>2025-01-16T08:29:56Z</time>
      </trkpt>
      <trkpt lat="47.58941" lon="-2.30998">
        <ele>73.8</ele>
        <time>2025-01-16T08:29:57Z</time>
      </trkpt>
      <trkpt lat="47.58941" lon="-2.30997">
        <ele>73.8</ele>
        <time>2025-01-16T08:29:58Z</time>
      </trkpt>
      <trkpt lat="47.5894" lon="-2.30996">
        <ele>73.7</ele>
        <time>2025-01-16T08:29:59Z</time>
      </trkpt>
      <trkpt lat="47.58939" lon="-2.30994">
        <ele>73.6</ele>
        <time>2025-01-16T08:30:00Z</time>
      </trkpt>
      <trkpt lat="47.58939" lon="-2.30993">
        <ele>73.6</ele>
        <time>2025-01-16T08:30:01Z</time>
      </trkpt>
      <trkpt lat="47.58938" lon="-2.30991">
        <ele>73.5</ele>
        <time>2025-01-16T08:30:02Z</time>
      </trkpt>
      <trkpt lat="47.58938" lon="-2.3099">
        <ele>73.5</ele>
        <time>2025-01-16T08:30:03Z</time>
      </trkpt>
      <trkpt lat="47.58937" lon="-2.30988">
        <ele>73.4</ele>
        <time>2025-01-16T08:30:04Z</time>
      </trkpt>
      <trkpt lat="47.58937" lon="-2.30986">
        <ele>73.4</ele>
        <time>2025-01-16T08:30:05Z</time>
      </trkpt>
      <trkpt lat="47.58936" lon="-2.30983">
        <ele>73.3</ele>
        <time>2025-01-16T08:30:06Z</time>
      </trkpt>
      <trkpt lat="47.58936" lon="-2.30982">
        <ele>73.2</ele>
        <time>2025-01-16T08:30:07Z</time>
      </trkpt>
      <trkpt lat="47.58936" lon="-2.30981">
        <ele>73.2</ele>
        <time>2025-01-16T08:30:08Z</time>
      </trkpt>
      <trkpt lat="47.58936" lon="-2.3098">
        <ele>73.2</ele>
        <time>2025-01-16T08:30:09Z</time>
      </trkpt>
      <trkpt lat="47.58936" lon="-2.30979">
        <ele>73.2</ele>
        <time>2025-01-16T08:30:10Z</time>
      </trkpt>
      <trkpt lat="47.58936" lon="-2.30977">
        <ele>73.1</ele>
        <time>2025-01-16T08:30:11Z</time>
      </trkpt>
      <trkpt lat="47.58936" lon="-2.30975">
        <ele>73.1</ele>
        <time>2025-01-16T08:30:12Z</time>
      </trkpt>
      <trkpt lat="47.58936" lon="-2.30974">
        <ele>73</ele>
        <time>2025-01-16T08:30:13Z</time>
      </trkpt>
      <trkpt lat="47.58935" lon="-2.30972">
        <ele>73</ele>
        <time>2025-01-16T08:30:14Z</time>
      </trkpt>
      <trkpt lat="47.58935" lon="-2.3097">
        <ele>73</ele>
        <time>2025-01-16T08:30:15Z</time>
      </trkpt>
      <trkpt lat="47.58934" lon="-2.30968">
        <ele>72.9</ele>
        <time>2025-01-16T08:30:16Z</time>
      </trkpt>
      <trkpt lat="47.58934" lon="-2.30966">
        <ele>72.9</ele>
        <time>2025-01-16T08:30:17Z</time>
      </trkpt>
      <trkpt lat="47.58934" lon="-2.30964">
        <ele>72.9</ele>
        <time>2025-01-16T08:30:18Z</time>
      </trkpt>
      <trkpt lat="47.58934" lon="-2.30962">
        <ele>72.9</ele>
        <time>2025-01-16T08:30:19Z</time>
      </trkpt>
      <trkpt lat="47.58934" lon="-2.3096">
        <ele>72.8</ele>
        <time>2025-01-16T08:30:20Z</time>
      </trkpt>
      <trkpt lat="47.58934" lon="-2.30958">
        <ele>72.8</ele>
        <time>2025-01-16T08:30:21Z</time>
      </trkpt>
      <trkpt lat="47.58934" lon="-2.30956">
        <ele>72.8</ele>
        <time>2025-01-16T08:30:22Z</time>
      </trkpt>
      <trkpt lat="47.58933" lon="-2.30954">
        <ele>72.7</ele>
        <time>2025-01-16T08:30:23Z</time>
      </trkpt>
      <trkpt lat="47.58933" lon="-2.30953">
        <ele>72.7</ele>
        <time>2025-01-16T08:30:24Z</time>
      </trkpt>
      <trkpt lat="47.58932" lon="-2.30951">
        <ele>72.7</ele>
        <time>2025-01-16T08:30:25Z</time>
      </trkpt>
      <trkpt lat="47.58932" lon="-2.3095">
        <ele>72.6</ele>
        <time>2025-01-16T08:30:26Z</time>
      </trkpt>
      <trkpt lat="47.58932" lon="-2.30949">
        <ele>72.6</ele>
        <time>2025-01-16T08:30:27Z</time>
      </trkpt>
      <trkpt lat="47.58931" lon="-2.30948">
        <ele>72.6</ele>
        <time>2025-01-16T08:30:28Z</time>
      </trkpt>
      <trkpt lat="47.58931" lon="-2.30946">
        <ele>72.5</ele>
        <time>2025-01-16T08:30:29Z</time>
      </trkpt>
      <trkpt lat="47.5893" lon="-2.30945">
        <ele>72.5</ele>
        <time>2025-01-16T08:30:30Z</time>
      </trkpt>
      <trkpt lat="47.58929" lon="-2.30944">
        <ele>72.4</ele>
        <time>2025-01-16T08:30:31Z</time>
      </trkpt>
      <trkpt lat="47.58929" lon="-2.30942">
        <ele>72.4</ele>
        <time>2025-01-16T08:30:32Z</time>
      </trkpt>
      <trkpt lat="47.58928" lon="-2.3094">
        <ele>72.4</ele>
        <time>2025-01-16T08:30:33Z</time>
      </trkpt>
      <trkpt lat="47.58928" lon="-2.30938">
        <ele>72.4</ele>
        <time>2025-01-16T08:30:34Z</time>
      </trkpt>
      <trkpt lat="47.58928" lon="-2.30936">
        <ele>72.4</ele>
        <time>2025-01-16T08:30:35Z</time>
      </trkpt>
      <trkpt lat="47.58928" lon="-2.30935">
        <ele>72.4</ele>
        <time>2025-01-16T08:30:36Z</time>
      </trkpt>
      <trkpt lat="47.58927" lon="-2.30933">
        <ele>72.4</ele>
        <time>2025-01-16T08:30:37Z</time>
      </trkpt>
      <trkpt lat="47.58927" lon="-2.30932">
        <ele>72.4</ele>
        <time>2025-01-16T08:30:38Z</time>
      </trkpt>
      <trkpt lat="47.58927" lon="-2.3093">
        <ele>72.4</ele>
        <time>2025-01-16T08:30:39Z</time>
      </trkpt>
      <trkpt lat="47.58927" lon="-2.30929">
        <ele>72.4</ele>
        <time>2025-01-16T08:30:40Z</time>
      </trkpt>
      <trkpt lat="47.58926" lon="-2.30927">
        <ele>72.3</ele>
        <time>2025-01-16T08:30:41Z</time>
      </trkpt>
      <trkpt lat="47.58926" lon="-2.30925">
        <ele>72.3</ele>
        <time>2025-01-16T08:30:42Z</time>
      </trkpt>
      <trkpt lat="47.58926" lon="-2.30924">
        <ele>72.3</ele>
        <time>2025-01-16T08:30:43Z</time>
      </trkpt>
      <trkpt lat="47.58926" lon="-2.30922">
        <ele>72.3</ele>
        <time>2025-01-16T08:30:44Z</time>
      </trkpt>
      <trkpt lat="47.58926" lon="-2.3092">
        <ele>72.3</ele>
        <time>2025-01-16T08:30:45Z</time>
      </trkpt>
      <trkpt lat="47.58927" lon="-2.30917">
        <ele>72.4</ele>
        <time>2025-01-16T08:30:46Z</time>
      </trkpt>
      <trkpt lat="47.58927" lon="-2.30915">
        <ele>72.3</ele>
        <time>2025-01-16T08:30:47Z</time>
      </trkpt>
      <trkpt lat="47.58927" lon="-2.30913">
        <ele>72.2</ele>
        <time>2025-01-16T08:30:48Z</time>
      </trkpt>
      <trkpt lat="47.58927" lon="-2.30911">
        <ele>72.2</ele>
        <time>2025-01-16T08:30:49Z</time>
      </trkpt>
      <trkpt lat="47.58927" lon="-2.30909">
        <ele>72.1</ele>
        <time>2025-01-16T08:30:50Z</time>
      </trkpt>
      <trkpt lat="47.58928" lon="-2.30908">
        <ele>72.1</ele>
        <time>2025-01-16T08:30:51Z</time>
      </trkpt>
      <trkpt lat="47.58928" lon="-2.30906">
        <ele>72</ele>
        <time>2025-01-16T08:30:52Z</time>
      </trkpt>
      <trkpt lat="47.58928" lon="-2.30905">
        <ele>72</ele>
        <time>2025-01-16T08:30:53Z</time>
      </trkpt>
      <trkpt lat="47.58928" lon="-2.30903">
        <ele>71.9</ele>
        <time>2025-01-16T08:30:54Z</time>
      </trkpt>
      <trkpt lat="47.58928" lon="-2.30901">
        <ele>71.8</ele>
        <time>2025-01-16T08:30:55Z</time>
      </trkpt>
      <trkpt lat="47.58928" lon="-2.309">
        <ele>71.8</ele>
        <time>2025-01-16T08:30:56Z</time>
      </trkpt>
      <trkpt lat="47.58928" lon="-2.30899">
        <ele>71.8</ele>
        <time>2025-01-16T08:30:57Z</time>
      </trkpt>
      <trkpt lat="47.58928" lon="-2.30897">
        <ele>71.7</ele>
        <time>2025-01-16T08:30:58Z</time>
      </trkpt>
      <trkpt lat="47.58928" lon="-2.30896">
        <ele>71.7</ele>
        <time>2025-01-16T08:30:59Z</time>
      </trkpt>
      <trkpt lat="47.58928" lon="-2.30894">
        <ele>71.6</ele>
        <time>2025-01-16T08:31:00Z</time>
      </trkpt>
      <trkpt lat="47.58928" lon="-2.30892">
        <ele>71.5</ele>
        <time>2025-01-16T08:31:01Z</time>
      </trkpt>
      <trkpt lat="47.58929" lon="-2.3089">
        <ele>71.5</ele>
        <time>2025-01-16T08:31:02Z</time>
      </trkpt>
      <trkpt lat="47.58929" lon="-2.30888">
        <ele>71.5</ele>
        <time>2025-01-16T08:31:03Z</time>
      </trkpt>
      <trkpt lat="47.58929" lon="-2.30886">
        <ele>71.5</ele>
        <time>2025-01-16T08:31:04Z</time>
      </trkpt>
      <trkpt lat="47.58929" lon="-2.30883">
        <ele>71.7</ele>
        <time>2025-01-16T08:31:05Z</time>
      </trkpt>
      <trkpt lat="47.58929" lon="-2.3088">
        <ele>71.8</ele>
        <time>2025-01-16T08:31:06Z</time>
      </trkpt>
      <trkpt lat="47.58929" lon="-2.30877">
        <ele>71.9</ele>
        <time>2025-01-16T08:31:07Z</time>
      </trkpt>
      <trkpt lat="47.5893" lon="-2.30875">
        <ele>72</ele>
        <time>2025-01-16T08:31:08Z</time>
      </trkpt>
      <trkpt lat="47.5893" lon="-2.30874">
        <ele>72</ele>
        <time>2025-01-16T08:31:09Z</time>
      </trkpt>
      <trkpt lat="47.5893" lon="-2.30872">
        <ele>72.1</ele>
        <time>2025-01-16T08:31:10Z</time>
      </trkpt>
      <trkpt lat="47.5893" lon="-2.3087">
        <ele>72.2</ele>
        <time>2025-01-16T08:31:11Z</time>
      </trkpt>
      <trkpt lat="47.5893" lon="-2.30869">
        <ele>72.2</ele>
        <time>2025-01-16T08:31:12Z</time>
      </trkpt>
      <trkpt lat="47.5893" lon="-2.30867">
        <ele>72.3</ele>
        <time>2025-01-16T08:31:13Z</time>
      </trkpt>
      <trkpt lat="47.5893" lon="-2.30864">
        <ele>72.4</ele>
        <time>2025-01-16T08:31:14Z</time>
      </trkpt>
      <trkpt lat="47.5893" lon="-2.30862">
        <ele>72.4</ele>
        <time>2025-01-16T08:31:15Z</time>
      </trkpt>
      <trkpt lat="47.58931" lon="-2.30861">
        <ele>72.5</ele>
        <time>2025-01-16T08:31:16Z</time>
      </trkpt>
      <trkpt lat="47.58931" lon="-2.3086">
        <ele>72.5</ele>
        <time>2025-01-16T08:31:17Z</time>
      </trkpt>
      <trkpt lat="47.58931" lon="-2.30858">
        <ele>72.6</ele>
        <time>2025-01-16T08:31:18Z</time>
      </trkpt>
      <trkpt lat="47.58931" lon="-2.30857">
        <ele>72.6</ele>
        <time>2025-01-16T08:31:19Z</time>
      </trkpt>
      <trkpt lat="47.58931" lon="-2.30855">
        <ele>72.6</ele>
        <time>2025-01-16T08:31:20Z</time>
      </trkpt>
      <trkpt lat="47.58932" lon="-2.30853">
        <ele>72.7</ele>
        <time>2025-01-16T08:31:21Z</time>
      </trkpt>
      <trkpt lat="47.58933" lon="-2.30852">
        <ele>72.8</ele>
        <time>2025-01-16T08:31:22Z</time>
      </trkpt>
      <trkpt lat="47.58933" lon="-2.30851">
        <ele>72.8</ele>
        <time>2025-01-16T08:31:23Z</time>
      </trkpt>
      <trkpt lat="47.58934" lon="-2.30849">
        <ele>72.9</ele>
        <time>2025-01-16T08:31:24Z</time>
      </trkpt>
      <trkpt lat="47.58935" lon="-2.30848">
        <ele>73</ele>
        <time>2025-01-16T08:31:25Z</time>
      </trkpt>
      <trkpt lat="47.58935" lon="-2.30846">
        <ele>73</ele>
        <time>2025-01-16T08:31:26Z</time>
      </trkpt>
      <trkpt lat="47.58936" lon="-2.30845">
        <ele>73.1</ele>
        <time>2025-01-16T08:31:27Z</time>
      </trkpt>
      <trkpt lat="47.58937" lon="-2.30843">
        <ele>73.2</ele>
        <time>2025-01-16T08:31:28Z</time>
      </trkpt>
      <trkpt lat="47.58938" lon="-2.30842">
        <ele>73.3</ele>
        <time>2025-01-16T08:31:29Z</time>
      </trkpt>
      <trkpt lat="47.58938" lon="-2.3084">
        <ele>73.4</ele>
        <time>2025-01-16T08:31:30Z</time>
      </trkpt>
      <trkpt lat="47.58939" lon="-2.30839">
        <ele>73.4</ele>
        <time>2025-01-16T08:31:31Z</time>
      </trkpt>
      <trkpt lat="47.5894" lon="-2.30837">
        <ele>73.6</ele>
        <time>2025-01-16T08:31:32Z</time>
      </trkpt>
      <trkpt lat="47.5894" lon="-2.30836">
        <ele>73.6</ele>
        <time>2025-01-16T08:31:33Z</time>
      </trkpt>
      <trkpt lat="47.58941" lon="-2.30835">
        <ele>73.7</ele>
        <time>2025-01-16T08:31:34Z</time>
      </trkpt>
      <trkpt lat="47.58941" lon="-2.30834">
        <ele>73.7</ele>
        <time>2025-01-16T08:31:35Z</time>
      </trkpt>
      <trkpt lat="47.58942" lon="-2.30833">
        <ele>73.8</ele>
        <time>2025-01-16T08:31:36Z</time>
      </trkpt>
      <trkpt lat="47.58943" lon="-2.30832">
        <ele>73.9</ele>
        <time>2025-01-16T08:31:37Z</time>
      </trkpt>
      <trkpt lat="47.58944" lon="-2.30831">
        <ele>74</ele>
        <time>2025-01-16T08:31:38Z</time>
      </trkpt>
      <trkpt lat="47.58944" lon="-2.3083">
        <ele>74</ele>
        <time>2025-01-16T08:31:39Z</time>
      </trkpt>
      <trkpt lat="47.58945" lon="-2.3083">
        <ele>74</ele>
        <time>2025-01-16T08:31:40Z</time>
      </trkpt>
      <trkpt lat="47.58945" lon="-2.30829">
        <ele>74</ele>
        <time>2025-01-16T08:31:41Z</time>
      </trkpt>
      <trkpt lat="47.58945" lon="-2.30828">
        <ele>74</ele>
        <time>2025-01-16T08:31:42Z</time>
      </trkpt>
      <trkpt lat="47.58946" lon="-2.30827">
        <ele>74</ele>
        <time>2025-01-16T08:31:43Z</time>
      </trkpt>
      <trkpt lat="47.58947" lon="-2.30827">
        <ele>74</ele>
        <time>2025-01-16T08:31:44Z</time>
      </trkpt>
      <trkpt lat="47.58947" lon="-2.30826">
        <ele>74</ele>
        <time>2025-01-16T08:31:45Z</time>
      </trkpt>
      <trkpt lat="47.58948" lon="-2.30825">
        <ele>74</ele>
        <time>2025-01-16T08:31:46Z</time>
      </trkpt>
      <trkpt lat="47.58949" lon="-2.30824">
        <ele>73.9</ele>
        <time>2025-01-16T08:31:47Z</time>
      </trkpt>
      <trkpt lat="47.58949" lon="-2.30824">
        <ele>73.9</ele>
        <time>2025-01-16T08:31:48Z</time>
      </trkpt>
      <trkpt lat="47.58949" lon="-2.30823">
        <ele>73.9</ele>
        <time>2025-01-16T08:31:49Z</time>
      </trkpt>
      <trkpt lat="47.5895" lon="-2.30822">
        <ele>73.9</ele>
        <time>2025-01-16T08:31:50Z</time>
      </trkpt>
      <trkpt lat="47.58951" lon="-2.3082">
        <ele>73.9</ele>
        <time>2025-01-16T08:31:51Z</time>
      </trkpt>
      <trkpt lat="47.58952" lon="-2.30819">
        <ele>73.9</ele>
        <time>2025-01-16T08:31:52Z</time>
      </trkpt>
      <trkpt lat="47.58953" lon="-2.30817">
        <ele>73.8</ele>
        <time>2025-01-16T08:31:53Z</time>
      </trkpt>
      <trkpt lat="47.58954" lon="-2.30817">
        <ele>73.8</ele>
        <time>2025-01-16T08:31:54Z</time>
      </trkpt>
      <trkpt lat="47.58955" lon="-2.30816">
        <ele>73.8</ele>
        <time>2025-01-16T08:31:55Z</time>
      </trkpt>
      <trkpt lat="47.58955" lon="-2.30815">
        <ele>73.7</ele>
        <time>2025-01-16T08:31:56Z</time>
      </trkpt>
      <trkpt lat="47.58956" lon="-2.30814">
        <ele>73.7</ele>
        <time>2025-01-16T08:31:57Z</time>
      </trkpt>
      <trkpt lat="47.58957" lon="-2.30812">
        <ele>73.7</ele>
        <time>2025-01-16T08:31:58Z</time>
      </trkpt>
      <trkpt lat="47.58958" lon="-2.30811">
        <ele>73.6</ele>
        <time>2025-01-16T08:31:59Z</time>
      </trkpt>
      <trkpt lat="47.58959" lon="-2.3081">
        <ele>73.6</ele>
        <time>2025-01-16T08:32:00Z</time>
      </trkpt>
      <trkpt lat="47.58959" lon="-2.30809">
        <ele>73.5</ele>
        <time>2025-01-16T08:32:01Z</time>
      </trkpt>
      <trkpt lat="47.5896" lon="-2.30808">
        <ele>73.5</ele>
        <time>2025-01-16T08:32:02Z</time>
      </trkpt>
      <trkpt lat="47.58961" lon="-2.30807">
        <ele>73.4</ele>
        <time>2025-01-16T08:32:03Z</time>
      </trkpt>
      <trkpt lat="47.58962" lon="-2.30806">
        <ele>73.4</ele>
        <time>2025-01-16T08:32:04Z</time>
      </trkpt>
      <trkpt lat="47.58963" lon="-2.30805">
        <ele>73.3</ele>
        <time>2025-01-16T08:32:05Z</time>
      </trkpt>
      <trkpt lat="47.58964" lon="-2.30804">
        <ele>73.2</ele>
        <time>2025-01-16T08:32:06Z</time>
      </trkpt>
      <trkpt lat="47.58964" lon="-2.30802">
        <ele>73.2</ele>
        <time>2025-01-16T08:32:07Z</time>
      </trkpt>
      <trkpt lat="47.58965" lon="-2.30801">
        <ele>73.1</ele>
        <time>2025-01-16T08:32:08Z</time>
      </trkpt>
      <trkpt lat="47.58965" lon="-2.30799">
        <ele>73</ele>
        <time>2025-01-16T08:32:09Z</time>
      </trkpt>
      <trkpt lat="47.58964" lon="-2.30798">
        <ele>73</ele>
        <time>2025-01-16T08:32:10Z</time>
      </trkpt>
      <trkpt lat="47.58964" lon="-2.30796">
        <ele>73</ele>
        <time>2025-01-16T08:32:11Z</time>
      </trkpt>
      <trkpt lat="47.58964" lon="-2.30795">
        <ele>72.9</ele>
        <time>2025-01-16T08:32:12Z</time>
      </trkpt>
      <trkpt lat="47.58964" lon="-2.30793">
        <ele>72.8</ele>
        <time>2025-01-16T08:32:13Z</time>
      </trkpt>
      <trkpt lat="47.58964" lon="-2.3079">
        <ele>72.7</ele>
        <time>2025-01-16T08:32:14Z</time>
      </trkpt>
      <trkpt lat="47.58964" lon="-2.30789">
        <ele>72.7</ele>
        <time>2025-01-16T08:32:15Z</time>
      </trkpt>
      <trkpt lat="47.58964" lon="-2.30787">
        <ele>72.6</ele>
        <time>2025-01-16T08:32:16Z</time>
      </trkpt>
      <trkpt lat="47.58964" lon="-2.30785">
        <ele>72.6</ele>
        <time>2025-01-16T08:32:17Z</time>
      </trkpt>
      <trkpt lat="47.58964" lon="-2.30783">
        <ele>72.5</ele>
        <time>2025-01-16T08:32:18Z</time>
      </trkpt>
      <trkpt lat="47.58964" lon="-2.30782">
        <ele>72.4</ele>
        <time>2025-01-16T08:32:19Z</time>
      </trkpt>
      <trkpt lat="47.58964" lon="-2.3078">
        <ele>72.4</ele>
        <time>2025-01-16T08:32:20Z</time>
      </trkpt>
      <trkpt lat="47.58964" lon="-2.30779">
        <ele>72.3</ele>
        <time>2025-01-16T08:32:21Z</time>
      </trkpt>
      <trkpt lat="47.58964" lon="-2.30777">
        <ele>72.3</ele>
        <time>2025-01-16T08:32:22Z</time>
      </trkpt>
      <trkpt lat="47.58964" lon="-2.30776">
        <ele>72.3</ele>
        <time>2025-01-16T08:32:23Z</time>
      </trkpt>
      <trkpt lat="47.58964" lon="-2.30774">
        <ele>72.3</ele>
        <time>2025-01-16T08:32:24Z</time>
      </trkpt>
      <trkpt lat="47.58964" lon="-2.30773">
        <ele>72.2</ele>
        <time>2025-01-16T08:32:25Z</time>
      </trkpt>
      <trkpt lat="47.58964" lon="-2.30772">
        <ele>72.2</ele>
        <time>2025-01-16T08:32:26Z</time>
      </trkpt>
      <trkpt lat="47.58964" lon="-2.3077">
        <ele>72.2</ele>
        <time>2025-01-16T08:32:27Z</time>
      </trkpt>
      <trkpt lat="47.58964" lon="-2.30769">
        <ele>72.2</ele>
        <time>2025-01-16T08:32:28Z</time>
      </trkpt>
      <trkpt lat="47.58964" lon="-2.30767">
        <ele>72.2</ele>
        <time>2025-01-16T08:32:29Z</time>
      </trkpt>
      <trkpt lat="47.58964" lon="-2.30766">
        <ele>72.2</ele>
        <time>2025-01-16T08:32:30Z</time>
      </trkpt>
      <trkpt lat="47.58964" lon="-2.30765">
        <ele>72.2</ele>
        <time>2025-01-16T08:32:31Z</time>
      </trkpt>
      <trkpt lat="47.58964" lon="-2.30764">
        <ele>72.1</ele>
        <time>2025-01-16T08:32:32Z</time>
      </trkpt>
      <trkpt lat="47.58965" lon="-2.30763">
        <ele>72.1</ele>
        <time>2025-01-16T08:32:33Z</time>
      </trkpt>
      <trkpt lat="47.58964" lon="-2.30763">
        <ele>72.1</ele>
        <time>2025-01-16T08:32:34Z</time>
      </trkpt>
      <trkpt lat="47.58964" lon="-2.30762">
        <ele>72.1</ele>
        <time>2025-01-16T08:32:35Z</time>
      </trkpt>
      <trkpt lat="47.58964" lon="-2.30761">
        <ele>72.1</ele>
        <time>2025-01-16T08:32:36Z</time>
      </trkpt>
      <trkpt lat="47.58963" lon="-2.3076">
        <ele>72.1</ele>
        <time>2025-01-16T08:32:37Z</time>
      </trkpt>
      <trkpt lat="47.58963" lon="-2.30758">
        <ele>72.1</ele>
        <time>2025-01-16T08:32:38Z</time>
      </trkpt>
      <trkpt lat="47.58963" lon="-2.30757">
        <ele>72.1</ele>
        <time>2025-01-16T08:32:39Z</time>
      </trkpt>
      <trkpt lat="47.58962" lon="-2.30756">
        <ele>72.1</ele>
        <time>2025-01-16T08:32:40Z</time>
      </trkpt>
      <trkpt lat="47.58962" lon="-2.30754">
        <ele>72.1</ele>
        <time>2025-01-16T08:32:41Z</time>
      </trkpt>
      <trkpt lat="47.58961" lon="-2.30753">
        <ele>72</ele>
        <time>2025-01-16T08:32:42Z</time>
      </trkpt>
      <trkpt lat="47.58961" lon="-2.30751">
        <ele>72</ele>
        <time>2025-01-16T08:32:43Z</time>
      </trkpt>
      <trkpt lat="47.5896" lon="-2.3075">
        <ele>72</ele>
        <time>2025-01-16T08:32:44Z</time>
      </trkpt>
      <trkpt lat="47.58959" lon="-2.30748">
        <ele>71.9</ele>
        <time>2025-01-16T08:32:45Z</time>
      </trkpt>
      <trkpt lat="47.58958" lon="-2.30747">
        <ele>71.8</ele>
        <time>2025-01-16T08:32:46Z</time>
      </trkpt>
      <trkpt lat="47.58957" lon="-2.30745">
        <ele>71.6</ele>
        <time>2025-01-16T08:32:47Z</time>
      </trkpt>
      <trkpt lat="47.58956" lon="-2.30744">
        <ele>71.6</ele>
        <time>2025-01-16T08:32:48Z</time>
      </trkpt>
      <trkpt lat="47.58956" lon="-2.30743">
        <ele>71.5</ele>
        <time>2025-01-16T08:32:49Z</time>
      </trkpt>
      <trkpt lat="47.58955" lon="-2.30742">
        <ele>71.4</ele>
        <time>2025-01-16T08:32:50Z</time>
      </trkpt>
      <trkpt lat="47.58955" lon="-2.30741">
        <ele>71.4</ele>
        <time>2025-01-16T08:32:51Z</time>
      </trkpt>
      <trkpt lat="47.58954" lon="-2.30741">
        <ele>71.4</ele>
        <time>2025-01-16T08:32:52Z</time>
      </trkpt>
      <trkpt lat="47.58953" lon="-2.3074">
        <ele>71.3</ele>
        <time>2025-01-16T08:32:53Z</time>
      </trkpt>
      <trkpt lat="47.58952" lon="-2.30739">
        <ele>71.2</ele>
        <time>2025-01-16T08:32:54Z</time>
      </trkpt>
      <trkpt lat="47.58951" lon="-2.30738">
        <ele>71.1</ele>
        <time>2025-01-16T08:32:55Z</time>
      </trkpt>
      <trkpt lat="47.5895" lon="-2.30738">
        <ele>71.1</ele>
        <time>2025-01-16T08:32:56Z</time>
      </trkpt>
      <trkpt lat="47.58949" lon="-2.30738">
        <ele>71.1</ele>
        <time>2025-01-16T08:32:57Z</time>
      </trkpt>
      <trkpt lat="47.58948" lon="-2.30737">
        <ele>71.1</ele>
        <time>2025-01-16T08:32:58Z</time>
      </trkpt>
      <trkpt lat="47.58947" lon="-2.30736">
        <ele>71</ele>
        <time>2025-01-16T08:32:59Z</time>
      </trkpt>
      <trkpt lat="47.58946" lon="-2.30736">
        <ele>71</ele>
        <time>2025-01-16T08:33:00Z</time>
      </trkpt>
      <trkpt lat="47.58946" lon="-2.30735">
        <ele>70.9</ele>
        <time>2025-01-16T08:33:01Z</time>
      </trkpt>
      <trkpt lat="47.58944" lon="-2.30735">
        <ele>70.9</ele>
        <time>2025-01-16T08:33:02Z</time>
      </trkpt>
      <trkpt lat="47.58942" lon="-2.30735">
        <ele>70.7</ele>
        <time>2025-01-16T08:33:03Z</time>
      </trkpt>
      <trkpt lat="47.58941" lon="-2.30735">
        <ele>70.7</ele>
        <time>2025-01-16T08:33:04Z</time>
      </trkpt>
      <trkpt lat="47.5894" lon="-2.30734">
        <ele>70.5</ele>
        <time>2025-01-16T08:33:05Z</time>
      </trkpt>
      <trkpt lat="47.5894" lon="-2.30734">
        <ele>70.5</ele>
        <time>2025-01-16T08:33:06Z</time>
      </trkpt>
      <trkpt lat="47.58939" lon="-2.30732">
        <ele>70.3</ele>
        <time>2025-01-16T08:33:07Z</time>
      </trkpt>
      <trkpt lat="47.58938" lon="-2.3073">
        <ele>70.1</ele>
        <time>2025-01-16T08:33:08Z</time>
      </trkpt>
      <trkpt lat="47.58938" lon="-2.30729">
        <ele>70</ele>
        <time>2025-01-16T08:33:09Z</time>
      </trkpt>
      <trkpt lat="47.58938" lon="-2.30728">
        <ele>70</ele>
        <time>2025-01-16T08:33:10Z</time>
      </trkpt>
      <trkpt lat="47.58937" lon="-2.30727">
        <ele>69.8</ele>
        <time>2025-01-16T08:33:11Z</time>
      </trkpt>
      <trkpt lat="47.58937" lon="-2.30725">
        <ele>69.7</ele>
        <time>2025-01-16T08:33:12Z</time>
      </trkpt>
      <trkpt lat="47.58936" lon="-2.30724">
        <ele>69.5</ele>
        <time>2025-01-16T08:33:13Z</time>
      </trkpt>
      <trkpt lat="47.58935" lon="-2.30722">
        <ele>69.3</ele>
        <time>2025-01-16T08:33:14Z</time>
      </trkpt>
      <trkpt lat="47.58933" lon="-2.3072">
        <ele>69</ele>
        <time>2025-01-16T08:33:15Z</time>
      </trkpt>
      <trkpt lat="47.58932" lon="-2.30719">
        <ele>68.9</ele>
        <time>2025-01-16T08:33:16Z</time>
      </trkpt>
      <trkpt lat="47.58931" lon="-2.30717">
        <ele>68.7</ele>
        <time>2025-01-16T08:33:17Z</time>
      </trkpt>
      <trkpt lat="47.5893" lon="-2.30715">
        <ele>68.6</ele>
        <time>2025-01-16T08:33:18Z</time>
      </trkpt>
      <trkpt lat="47.5893" lon="-2.30714">
        <ele>68.5</ele>
        <time>2025-01-16T08:33:19Z</time>
      </trkpt>
      <trkpt lat="47.58929" lon="-2.30712">
        <ele>68.4</ele>
        <time>2025-01-16T08:33:20Z</time>
      </trkpt>
      <trkpt lat="47.58927" lon="-2.30711">
        <ele>68.2</ele>
        <time>2025-01-16T08:33:21Z</time>
      </trkpt>
      <trkpt lat="47.58926" lon="-2.3071">
        <ele>68.1</ele>
        <time>2025-01-16T08:33:22Z</time>
      </trkpt>
      <trkpt lat="47.58925" lon="-2.30709">
        <ele>68</ele>
        <time>2025-01-16T08:33:23Z</time>
      </trkpt>
      <trkpt lat="47.58925" lon="-2.30707">
        <ele>67.9</ele>
        <time>2025-01-16T08:33:24Z</time>
      </trkpt>
      <trkpt lat="47.58924" lon="-2.30705">
        <ele>67.7</ele>
        <time>2025-01-16T08:33:25Z</time>
      </trkpt>
      <trkpt lat="47.58924" lon="-2.30703">
        <ele>67.7</ele>
        <time>2025-01-16T08:33:26Z</time>
      </trkpt>
      <trkpt lat="47.58923" lon="-2.30701">
        <ele>67.5</ele>
        <time>2025-01-16T08:33:27Z</time>
      </trkpt>
      <trkpt lat="47.58923" lon="-2.30698">
        <ele>67.4</ele>
        <time>2025-01-16T08:33:28Z</time>
      </trkpt>
      <trkpt lat="47.58922" lon="-2.30697">
        <ele>67.3</ele>
        <time>2025-01-16T08:33:29Z</time>
      </trkpt>
      <trkpt lat="47.58922" lon="-2.30696">
        <ele>67.3</ele>
        <time>2025-01-16T08:33:30Z</time>
      </trkpt>
      <trkpt lat="47.58923" lon="-2.30694">
        <ele>67.2</ele>
        <time>2025-01-16T08:33:31Z</time>
      </trkpt>
      <trkpt lat="47.58923" lon="-2.30692">
        <ele>67.1</ele>
        <time>2025-01-16T08:33:32Z</time>
      </trkpt>
      <trkpt lat="47.58923" lon="-2.3069">
        <ele>66.9</ele>
        <time>2025-01-16T08:33:33Z</time>
      </trkpt>
      <trkpt lat="47.58923" lon="-2.30688">
        <ele>66.8</ele>
        <time>2025-01-16T08:33:34Z</time>
      </trkpt>
      <trkpt lat="47.58924" lon="-2.30687">
        <ele>66.8</ele>
        <time>2025-01-16T08:33:35Z</time>
      </trkpt>
      <trkpt lat="47.58924" lon="-2.30685">
        <ele>66.7</ele>
        <time>2025-01-16T08:33:36Z</time>
      </trkpt>
      <trkpt lat="47.58925" lon="-2.30684">
        <ele>66.7</ele>
        <time>2025-01-16T08:33:37Z</time>
      </trkpt>
      <trkpt lat="47.58925" lon="-2.30682">
        <ele>66.5</ele>
        <time>2025-01-16T08:33:38Z</time>
      </trkpt>
      <trkpt lat="47.58925" lon="-2.30682">
        <ele>66.5</ele>
        <time>2025-01-16T08:33:39Z</time>
      </trkpt>
      <trkpt lat="47.58926" lon="-2.30682">
        <ele>66.6</ele>
        <time>2025-01-16T08:33:40Z</time>
      </trkpt>
      <trkpt lat="47.58926" lon="-2.30681">
        <ele>66.5</ele>
        <time>2025-01-16T08:33:41Z</time>
      </trkpt>
      <trkpt lat="47.58927" lon="-2.3068">
        <ele>66.5</ele>
        <time>2025-01-16T08:33:42Z</time>
      </trkpt>
      <trkpt lat="47.58928" lon="-2.30679">
        <ele>66.5</ele>
        <time>2025-01-16T08:33:43Z</time>
      </trkpt>
      <trkpt lat="47.58928" lon="-2.30678">
        <ele>66.5</ele>
        <time>2025-01-16T08:33:44Z</time>
      </trkpt>
      <trkpt lat="47.58929" lon="-2.30677">
        <ele>66.5</ele>
        <time>2025-01-16T08:33:45Z</time>
      </trkpt>
      <trkpt lat="47.5893" lon="-2.30675">
        <ele>66.4</ele>
        <time>2025-01-16T08:33:46Z</time>
      </trkpt>
      <trkpt lat="47.5893" lon="-2.30674">
        <ele>66.4</ele>
        <time>2025-01-16T08:33:47Z</time>
      </trkpt>
      <trkpt lat="47.58931" lon="-2.30672">
        <ele>66.3</ele>
        <time>2025-01-16T08:33:48Z</time>
      </trkpt>
      <trkpt lat="47.58931" lon="-2.3067">
        <ele>66.2</ele>
        <time>2025-01-16T08:33:49Z</time>
      </trkpt>
      <trkpt lat="47.58932" lon="-2.30668">
        <ele>66.2</ele>
        <time>2025-01-16T08:33:50Z</time>
      </trkpt>
      <trkpt lat="47.58933" lon="-2.30666">
        <ele>66.1</ele>
        <time>2025-01-16T08:33:51Z</time>
      </trkpt>
      <trkpt lat="47.58934" lon="-2.30665">
        <ele>66.1</ele>
        <time>2025-01-16T08:33:52Z</time>
      </trkpt>
      <trkpt lat="47.58935" lon="-2.30663">
        <ele>66.1</ele>
        <time>2025-01-16T08:33:53Z</time>
      </trkpt>
      <trkpt lat="47.58936" lon="-2.30661">
        <ele>66</ele>
        <time>2025-01-16T08:33:54Z</time>
      </trkpt>
      <trkpt lat="47.58937" lon="-2.30659">
        <ele>65.9</ele>
        <time>2025-01-16T08:33:55Z</time>
      </trkpt>
      <trkpt lat="47.58938" lon="-2.30656">
        <ele>65.8</ele>
        <time>2025-01-16T08:33:56Z</time>
      </trkpt>
      <trkpt lat="47.58939" lon="-2.30654">
        <ele>65.7</ele>
        <time>2025-01-16T08:33:57Z</time>
      </trkpt>
      <trkpt lat="47.58939" lon="-2.30652">
        <ele>65.6</ele>
        <time>2025-01-16T08:33:58Z</time>
      </trkpt>
      <trkpt lat="47.5894" lon="-2.3065">
        <ele>65.5</ele>
        <time>2025-01-16T08:33:59Z</time>
      </trkpt>
      <trkpt lat="47.58941" lon="-2.30649">
        <ele>65.5</ele>
        <time>2025-01-16T08:34:00Z</time>
      </trkpt>
      <trkpt lat="47.58942" lon="-2.30648">
        <ele>65.5</ele>
        <time>2025-01-16T08:34:01Z</time>
      </trkpt>
      <trkpt lat="47.58943" lon="-2.30647">
        <ele>65.5</ele>
        <time>2025-01-16T08:34:02Z</time>
      </trkpt>
      <trkpt lat="47.58943" lon="-2.30647">
        <ele>65.5</ele>
        <time>2025-01-16T08:34:03Z</time>
      </trkpt>
      <trkpt lat="47.58944" lon="-2.30647">
        <ele>65.6</ele>
        <time>2025-01-16T08:34:04Z</time>
      </trkpt>
      <trkpt lat="47.58945" lon="-2.30646">
        <ele>65.5</ele>
        <time>2025-01-16T08:34:05Z</time>
      </trkpt>
      <trkpt lat="47.58946" lon="-2.30645">
        <ele>65.5</ele>
        <time>2025-01-16T08:34:06Z</time>
      </trkpt>
      <trkpt lat="47.58947" lon="-2.30644">
        <ele>65.4</ele>
        <time>2025-01-16T08:34:07Z</time>
      </trkpt>
      <trkpt lat="47.58948" lon="-2.30643">
        <ele>65.4</ele>
        <time>2025-01-16T08:34:08Z</time>
      </trkpt>
      <trkpt lat="47.58949" lon="-2.30641">
        <ele>65.3</ele>
        <time>2025-01-16T08:34:09Z</time>
      </trkpt>
      <trkpt lat="47.5895" lon="-2.30639">
        <ele>65.2</ele>
        <time>2025-01-16T08:34:10Z</time>
      </trkpt>
      <trkpt lat="47.58951" lon="-2.30638">
        <ele>65.2</ele>
        <time>2025-01-16T08:34:11Z</time>
      </trkpt>
      <trkpt lat="47.58951" lon="-2.30637">
        <ele>65.1</ele>
        <time>2025-01-16T08:34:12Z</time>
      </trkpt>
      <trkpt lat="47.58952" lon="-2.30635">
        <ele>65</ele>
        <time>2025-01-16T08:34:13Z</time>
      </trkpt>
      <trkpt lat="47.58953" lon="-2.30634">
        <ele>65</ele>
        <time>2025-01-16T08:34:14Z</time>
      </trkpt>
      <trkpt lat="47.58954" lon="-2.30632">
        <ele>64.9</ele>
        <time>2025-01-16T08:34:15Z</time>
      </trkpt>
      <trkpt lat="47.58955" lon="-2.30631">
        <ele>64.9</ele>
        <time>2025-01-16T08:34:16Z</time>
      </trkpt>
      <trkpt lat="47.58956" lon="-2.30629">
        <ele>64.9</ele>
        <time>2025-01-16T08:34:17Z</time>
      </trkpt>
      <trkpt lat="47.58956" lon="-2.30628">
        <ele>64.8</ele>
        <time>2025-01-16T08:34:18Z</time>
      </trkpt>
      <trkpt lat="47.58957" lon="-2.30626">
        <ele>64.7</ele>
        <time>2025-01-16T08:34:19Z</time>
      </trkpt>
      <trkpt lat="47.58958" lon="-2.30625">
        <ele>64.7</ele>
        <time>2025-01-16T08:34:20Z</time>
      </trkpt>
      <trkpt lat="47.58958" lon="-2.30624">
        <ele>64.7</ele>
        <time>2025-01-16T08:34:21Z</time>
      </trkpt>
      <trkpt lat="47.58959" lon="-2.30623">
        <ele>64.7</ele>
        <time>2025-01-16T08:34:22Z</time>
      </trkpt>
      <trkpt lat="47.5896" lon="-2.30622">
        <ele>64.7</ele>
        <time>2025-01-16T08:34:23Z</time>
      </trkpt>
      <trkpt lat="47.5896" lon="-2.30621">
        <ele>64.6</ele>
        <time>2025-01-16T08:34:24Z</time>
      </trkpt>
      <trkpt lat="47.58961" lon="-2.3062">
        <ele>64.6</ele>
        <time>2025-01-16T08:34:25Z</time>
      </trkpt>
      <trkpt lat="47.58962" lon="-2.30619">
        <ele>64.7</ele>
        <time>2025-01-16T08:34:26Z</time>
      </trkpt>
      <trkpt lat="47.58962" lon="-2.30617">
        <ele>64.6</ele>
        <time>2025-01-16T08:34:27Z</time>
      </trkpt>
      <trkpt lat="47.58963" lon="-2.30616">
        <ele>64.6</ele>
        <time>2025-01-16T08:34:28Z</time>
      </trkpt>
      <trkpt lat="47.58963" lon="-2.30615">
        <ele>64.5</ele>
        <time>2025-01-16T08:34:29Z</time>
      </trkpt>
      <trkpt lat="47.58964" lon="-2.30614">
        <ele>64.5</ele>
        <time>2025-01-16T08:34:30Z</time>
      </trkpt>
      <trkpt lat="47.58965" lon="-2.30613">
        <ele>64.6</ele>
        <time>2025-01-16T08:34:31Z</time>
      </trkpt>
      <trkpt lat="47.58966" lon="-2.30612">
        <ele>64.6</ele>
        <time>2025-01-16T08:34:32Z</time>
      </trkpt>
      <trkpt lat="47.58966" lon="-2.30611">
        <ele>64.5</ele>
        <time>2025-01-16T08:34:33Z</time>
      </trkpt>
      <trkpt lat="47.58967" lon="-2.3061">
        <ele>64.5</ele>
        <time>2025-01-16T08:34:34Z</time>
      </trkpt>
      <trkpt lat="47.58968" lon="-2.30608">
        <ele>64.5</ele>
        <time>2025-01-16T08:34:35Z</time>
      </trkpt>
      <trkpt lat="47.58969" lon="-2.30607">
        <ele>64.5</ele>
        <time>2025-01-16T08:34:36Z</time>
      </trkpt>
      <trkpt lat="47.58969" lon="-2.30606">
        <ele>64.4</ele>
        <time>2025-01-16T08:34:37Z</time>
      </trkpt>
      <trkpt lat="47.5897" lon="-2.30605">
        <ele>64.4</ele>
        <time>2025-01-16T08:34:38Z</time>
      </trkpt>
      <trkpt lat="47.58971" lon="-2.30604">
        <ele>64.4</ele>
        <time>2025-01-16T08:34:39Z</time>
      </trkpt>
      <trkpt lat="47.58972" lon="-2.30603">
        <ele>64.4</ele>
        <time>2025-01-16T08:34:40Z</time>
      </trkpt>
      <trkpt lat="47.58973" lon="-2.30602">
        <ele>64.3</ele>
        <time>2025-01-16T08:34:41Z</time>
      </trkpt>
      <trkpt lat="47.58974" lon="-2.30601">
        <ele>64.3</ele>
        <time>2025-01-16T08:34:42Z</time>
      </trkpt>
      <trkpt lat="47.58975" lon="-2.30601">
        <ele>64.3</ele>
        <time>2025-01-16T08:34:43Z</time>
      </trkpt>
      <trkpt lat="47.58975" lon="-2.306">
        <ele>64.2</ele>
        <time>2025-01-16T08:34:44Z</time>
      </trkpt>
      <trkpt lat="47.58976" lon="-2.30599">
        <ele>64.1</ele>
        <time>2025-01-16T08:34:45Z</time>
      </trkpt>
      <trkpt lat="47.58977" lon="-2.30598">
        <ele>64.1</ele>
        <time>2025-01-16T08:34:46Z</time>
      </trkpt>
      <trkpt lat="47.58978" lon="-2.30596">
        <ele>63.9</ele>
        <time>2025-01-16T08:34:47Z</time>
      </trkpt>
      <trkpt lat="47.58979" lon="-2.30595">
        <ele>63.8</ele>
        <time>2025-01-16T08:34:48Z</time>
      </trkpt>
      <trkpt lat="47.5898" lon="-2.30595">
        <ele>63.8</ele>
        <time>2025-01-16T08:34:49Z</time>
      </trkpt>
      <trkpt lat="47.5898" lon="-2.30593">
        <ele>63.7</ele>
        <time>2025-01-16T08:34:50Z</time>
      </trkpt>
      <trkpt lat="47.58981" lon="-2.30593">
        <ele>63.7</ele>
        <time>2025-01-16T08:34:51Z</time>
      </trkpt>
      <trkpt lat="47.58983" lon="-2.30592">
        <ele>63.6</ele>
        <time>2025-01-16T08:34:52Z</time>
      </trkpt>
      <trkpt lat="47.58984" lon="-2.3059">
        <ele>63.5</ele>
        <time>2025-01-16T08:34:53Z</time>
      </trkpt>
      <trkpt lat="47.58985" lon="-2.30588">
        <ele>63.3</ele>
        <time>2025-01-16T08:34:54Z</time>
      </trkpt>
      <trkpt lat="47.58986" lon="-2.30585">
        <ele>63.1</ele>
        <time>2025-01-16T08:34:55Z</time>
      </trkpt>
      <trkpt lat="47.58986" lon="-2.30583">
        <ele>63</ele>
        <time>2025-01-16T08:34:56Z</time>
      </trkpt>
      <trkpt lat="47.58987" lon="-2.30581">
        <ele>62.8</ele>
        <time>2025-01-16T08:34:57Z</time>
      </trkpt>
      <trkpt lat="47.58988" lon="-2.30579">
        <ele>62.6</ele>
        <time>2025-01-16T08:34:58Z</time>
      </trkpt>
      <trkpt lat="47.58989" lon="-2.30577">
        <ele>62.4</ele>
        <time>2025-01-16T08:34:59Z</time>
      </trkpt>
      <trkpt lat="47.5899" lon="-2.30576">
        <ele>62.4</ele>
        <time>2025-01-16T08:35:00Z</time>
      </trkpt>
      <trkpt lat="47.58991" lon="-2.30574">
        <ele>62.2</ele>
        <time>2025-01-16T08:35:01Z</time>
      </trkpt>
      <trkpt lat="47.58992" lon="-2.30573">
        <ele>62.2</ele>
        <time>2025-01-16T08:35:02Z</time>
      </trkpt>
      <trkpt lat="47.58993" lon="-2.30571">
        <ele>62.1</ele>
        <time>2025-01-16T08:35:03Z</time>
      </trkpt>
      <trkpt lat="47.58995" lon="-2.3057">
        <ele>62.2</ele>
        <time>2025-01-16T08:35:04Z</time>
      </trkpt>
      <trkpt lat="47.58996" lon="-2.30569">
        <ele>62.2</ele>
        <time>2025-01-16T08:35:05Z</time>
      </trkpt>
      <trkpt lat="47.58997" lon="-2.30568">
        <ele>62.2</ele>
        <time>2025-01-16T08:35:06Z</time>
      </trkpt>
      <trkpt lat="47.58998" lon="-2.30566">
        <ele>62.2</ele>
        <time>2025-01-16T08:35:07Z</time>
      </trkpt>
      <trkpt lat="47.58999" lon="-2.30565">
        <ele>62.2</ele>
        <time>2025-01-16T08:35:08Z</time>
      </trkpt>
      <trkpt lat="47.59" lon="-2.30564">
        <ele>62.3</ele>
        <time>2025-01-16T08:35:09Z</time>
      </trkpt>
      <trkpt lat="47.59001" lon="-2.30562">
        <ele>62.2</ele>
        <time>2025-01-16T08:35:10Z</time>
      </trkpt>
      <trkpt lat="47.59001" lon="-2.30561">
        <ele>62.1</ele>
        <time>2025-01-16T08:35:11Z</time>
      </trkpt>
      <trkpt lat="47.59002" lon="-2.3056">
        <ele>62</ele>
        <time>2025-01-16T08:35:12Z</time>
      </trkpt>
      <trkpt lat="47.59004" lon="-2.30558">
        <ele>61.8</ele>
        <time>2025-01-16T08:35:13Z</time>
      </trkpt>
      <trkpt lat="47.59005" lon="-2.30558">
        <ele>61.8</ele>
        <time>2025-01-16T08:35:14Z</time>
      </trkpt>
      <trkpt lat="47.59006" lon="-2.30557">
        <ele>61.6</ele>
        <time>2025-01-16T08:35:15Z</time>
      </trkpt>
      <trkpt lat="47.59006" lon="-2.30556">
        <ele>61.6</ele>
        <time>2025-01-16T08:35:16Z</time>
      </trkpt>
      <trkpt lat="47.59006" lon="-2.30555">
        <ele>61.5</ele>
        <time>2025-01-16T08:35:17Z</time>
      </trkpt>
      <trkpt lat="47.59007" lon="-2.30554">
        <ele>61.2</ele>
        <time>2025-01-16T08:35:18Z</time>
      </trkpt>
      <trkpt lat="47.59008" lon="-2.30553">
        <ele>60.9</ele>
        <time>2025-01-16T08:35:19Z</time>
      </trkpt>
      <trkpt lat="47.59009" lon="-2.30552">
        <ele>60.7</ele>
        <time>2025-01-16T08:35:20Z</time>
      </trkpt>
      <trkpt lat="47.5901" lon="-2.30552">
        <ele>60.6</ele>
        <time>2025-01-16T08:35:21Z</time>
      </trkpt>
      <trkpt lat="47.59011" lon="-2.30551">
        <ele>60.4</ele>
        <time>2025-01-16T08:35:22Z</time>
      </trkpt>
      <trkpt lat="47.59012" lon="-2.30551">
        <ele>60.3</ele>
        <time>2025-01-16T08:35:23Z</time>
      </trkpt>
      <trkpt lat="47.59013" lon="-2.30551">
        <ele>60.2</ele>
        <time>2025-01-16T08:35:24Z</time>
      </trkpt>
      <trkpt lat="47.59014" lon="-2.30551">
        <ele>60.2</ele>
        <time>2025-01-16T08:35:25Z</time>
      </trkpt>
      <trkpt lat="47.59015" lon="-2.3055">
        <ele>59.9</ele>
        <time>2025-01-16T08:35:26Z</time>
      </trkpt>
      <trkpt lat="47.59016" lon="-2.3055">
        <ele>59.9</ele>
        <time>2025-01-16T08:35:27Z</time>
      </trkpt>
      <trkpt lat="47.59017" lon="-2.30549">
        <ele>59.6</ele>
        <time>2025-01-16T08:35:28Z</time>
      </trkpt>
      <trkpt lat="47.59018" lon="-2.30549">
        <ele>59.6</ele>
        <time>2025-01-16T08:35:29Z</time>
      </trkpt>
      <trkpt lat="47.59019" lon="-2.30547">
        <ele>59.2</ele>
        <time>2025-01-16T08:35:30Z</time>
      </trkpt>
      <trkpt lat="47.5902" lon="-2.30546">
        <ele>59</ele>
        <time>2025-01-16T08:35:31Z</time>
      </trkpt>
      <trkpt lat="47.59021" lon="-2.30544">
        <ele>58.6</ele>
        <time>2025-01-16T08:35:32Z</time>
      </trkpt>
      <trkpt lat="47.59021" lon="-2.30543">
        <ele>58.5</ele>
        <time>2025-01-16T08:35:33Z</time>
      </trkpt>
      <trkpt lat="47.59022" lon="-2.30542">
        <ele>58.3</ele>
        <time>2025-01-16T08:35:34Z</time>
      </trkpt>
      <trkpt lat="47.59023" lon="-2.3054">
        <ele>57.9</ele>
        <time>2025-01-16T08:35:35Z</time>
      </trkpt>
      <trkpt lat="47.59023" lon="-2.30539">
        <ele>57.8</ele>
        <time>2025-01-16T08:35:36Z</time>
      </trkpt>
      <trkpt lat="47.59024" lon="-2.30537">
        <ele>57.4</ele>
        <time>2025-01-16T08:35:37Z</time>
      </trkpt>
      <trkpt lat="47.59025" lon="-2.30536">
        <ele>57.2</ele>
        <time>2025-01-16T08:35:38Z</time>
      </trkpt>
      <trkpt lat="47.59026" lon="-2.30535">
        <ele>57.1</ele>
        <time>2025-01-16T08:35:39Z</time>
      </trkpt>
      <trkpt lat="47.59027" lon="-2.30534">
        <ele>56.9</ele>
        <time>2025-01-16T08:35:40Z</time>
      </trkpt>
      <trkpt lat="47.59028" lon="-2.30533">
        <ele>56.8</ele>
        <time>2025-01-16T08:35:41Z</time>
      </trkpt>
      <trkpt lat="47.59028" lon="-2.30532">
        <ele>56.6</ele>
        <time>2025-01-16T08:35:42Z</time>
      </trkpt>
      <trkpt lat="47.59029" lon="-2.30531">
        <ele>56.6</ele>
        <time>2025-01-16T08:35:43Z</time>
      </trkpt>
      <trkpt lat="47.5903" lon="-2.3053">
        <ele>56.6</ele>
        <time>2025-01-16T08:35:44Z</time>
      </trkpt>
      <trkpt lat="47.59031" lon="-2.30529">
        <ele>56.6</ele>
        <time>2025-01-16T08:35:45Z</time>
      </trkpt>
      <trkpt lat="47.59032" lon="-2.30528">
        <ele>56.6</ele>
        <time>2025-01-16T08:35:46Z</time>
      </trkpt>
      <trkpt lat="47.59033" lon="-2.30527">
        <ele>56.7</ele>
        <time>2025-01-16T08:35:47Z</time>
      </trkpt>
      <trkpt lat="47.59034" lon="-2.30525">
        <ele>56.7</ele>
        <time>2025-01-16T08:35:48Z</time>
      </trkpt>
      <trkpt lat="47.59034" lon="-2.30523">
        <ele>56.6</ele>
        <time>2025-01-16T08:35:49Z</time>
      </trkpt>
      <trkpt lat="47.59035" lon="-2.30523">
        <ele>56.7</ele>
        <time>2025-01-16T08:35:50Z</time>
      </trkpt>
      <trkpt lat="47.59036" lon="-2.30522">
        <ele>56.8</ele>
        <time>2025-01-16T08:35:51Z</time>
      </trkpt>
      <trkpt lat="47.59037" lon="-2.30521">
        <ele>56.8</ele>
        <time>2025-01-16T08:35:52Z</time>
      </trkpt>
      <trkpt lat="47.59039" lon="-2.30521">
        <ele>57.1</ele>
        <time>2025-01-16T08:35:53Z</time>
      </trkpt>
      <trkpt lat="47.5904" lon="-2.3052">
        <ele>57.2</ele>
        <time>2025-01-16T08:35:54Z</time>
      </trkpt>
      <trkpt lat="47.59042" lon="-2.30519">
        <ele>57.4</ele>
        <time>2025-01-16T08:35:55Z</time>
      </trkpt>
      <trkpt lat="47.59043" lon="-2.30519">
        <ele>57.6</ele>
        <time>2025-01-16T08:35:56Z</time>
      </trkpt>
      <trkpt lat="47.59044" lon="-2.30519">
        <ele>57.7</ele>
        <time>2025-01-16T08:35:57Z</time>
      </trkpt>
      <trkpt lat="47.59045" lon="-2.30518">
        <ele>57.8</ele>
        <time>2025-01-16T08:35:58Z</time>
      </trkpt>
      <trkpt lat="47.59046" lon="-2.30518">
        <ele>57.9</ele>
        <time>2025-01-16T08:35:59Z</time>
      </trkpt>
      <trkpt lat="47.59047" lon="-2.30517">
        <ele>58</ele>
        <time>2025-01-16T08:36:00Z</time>
      </trkpt>
      <trkpt lat="47.59048" lon="-2.30517">
        <ele>58.1</ele>
        <time>2025-01-16T08:36:01Z</time>
      </trkpt>
      <trkpt lat="47.5905" lon="-2.30517">
        <ele>58.4</ele>
        <time>2025-01-16T08:36:02Z</time>
      </trkpt>
      <trkpt lat="47.5905" lon="-2.30516">
        <ele>58.4</ele>
        <time>2025-01-16T08:36:03Z</time>
      </trkpt>
      <trkpt lat="47.59051" lon="-2.30515">
        <ele>58.4</ele>
        <time>2025-01-16T08:36:04Z</time>
      </trkpt>
      <trkpt lat="47.59052" lon="-2.30515">
        <ele>58.6</ele>
        <time>2025-01-16T08:36:05Z</time>
      </trkpt>
      <trkpt lat="47.59053" lon="-2.30514">
        <ele>58.6</ele>
        <time>2025-01-16T08:36:06Z</time>
      </trkpt>
      <trkpt lat="47.59054" lon="-2.30514">
        <ele>58.8</ele>
        <time>2025-01-16T08:36:07Z</time>
      </trkpt>
      <trkpt lat="47.59055" lon="-2.30513">
        <ele>58.9</ele>
        <time>2025-01-16T08:36:08Z</time>
      </trkpt>
      <trkpt lat="47.59056" lon="-2.30511">
        <ele>58.8</ele>
        <time>2025-01-16T08:36:09Z</time>
      </trkpt>
      <trkpt lat="47.59057" lon="-2.3051">
        <ele>58.9</ele>
        <time>2025-01-16T08:36:10Z</time>
      </trkpt>
      <trkpt lat="47.59057" lon="-2.3051">
        <ele>58.9</ele>
        <time>2025-01-16T08:36:11Z</time>
      </trkpt>
      <trkpt lat="47.59058" lon="-2.30509">
        <ele>58.9</ele>
        <time>2025-01-16T08:36:12Z</time>
      </trkpt>
      <trkpt lat="47.59059" lon="-2.30507">
        <ele>58.9</ele>
        <time>2025-01-16T08:36:13Z</time>
      </trkpt>
      <trkpt lat="47.59059" lon="-2.30506">
        <ele>58.9</ele>
        <time>2025-01-16T08:36:14Z</time>
      </trkpt>
      <trkpt lat="47.59059" lon="-2.30505">
        <ele>58.8</ele>
        <time>2025-01-16T08:36:15Z</time>
      </trkpt>
      <trkpt lat="47.59059" lon="-2.30504">
        <ele>58.7</ele>
        <time>2025-01-16T08:36:16Z</time>
      </trkpt>
      <trkpt lat="47.59059" lon="-2.30503">
        <ele>58.7</ele>
        <time>2025-01-16T08:36:17Z</time>
      </trkpt>
      <trkpt lat="47.59059" lon="-2.30501">
        <ele>58.6</ele>
        <time>2025-01-16T08:36:18Z</time>
      </trkpt>
      <trkpt lat="47.59059" lon="-2.30499">
        <ele>58.6</ele>
        <time>2025-01-16T08:36:19Z</time>
      </trkpt>
      <trkpt lat="47.59059" lon="-2.30499">
        <ele>58.6</ele>
        <time>2025-01-16T08:36:20Z</time>
      </trkpt>
      <trkpt lat="47.59059" lon="-2.30498">
        <ele>58.6</ele>
        <time>2025-01-16T08:36:21Z</time>
      </trkpt>
      <trkpt lat="47.59059" lon="-2.30496">
        <ele>58.7</ele>
        <time>2025-01-16T08:36:22Z</time>
      </trkpt>
      <trkpt lat="47.59059" lon="-2.30495">
        <ele>58.8</ele>
        <time>2025-01-16T08:36:23Z</time>
      </trkpt>
      <trkpt lat="47.59059" lon="-2.30494">
        <ele>58.9</ele>
        <time>2025-01-16T08:36:24Z</time>
      </trkpt>
      <trkpt lat="47.59058" lon="-2.30494">
        <ele>58.7</ele>
        <time>2025-01-16T08:36:25Z</time>
      </trkpt>
      <trkpt lat="47.59058" lon="-2.30492">
        <ele>58.9</ele>
        <time>2025-01-16T08:36:26Z</time>
      </trkpt>
      <trkpt lat="47.59058" lon="-2.30491">
        <ele>58.9</ele>
        <time>2025-01-16T08:36:27Z</time>
      </trkpt>
      <trkpt lat="47.59057" lon="-2.30489">
        <ele>59</ele>
        <time>2025-01-16T08:36:28Z</time>
      </trkpt>
      <trkpt lat="47.59057" lon="-2.30488">
        <ele>59</ele>
        <time>2025-01-16T08:36:29Z</time>
      </trkpt>
      <trkpt lat="47.59056" lon="-2.30487">
        <ele>59</ele>
        <time>2025-01-16T08:36:30Z</time>
      </trkpt>
      <trkpt lat="47.59056" lon="-2.30486">
        <ele>59.1</ele>
        <time>2025-01-16T08:36:31Z</time>
      </trkpt>
      <trkpt lat="47.59055" lon="-2.30485">
        <ele>59</ele>
        <time>2025-01-16T08:36:32Z</time>
      </trkpt>
      <trkpt lat="47.59054" lon="-2.30483">
        <ele>59</ele>
        <time>2025-01-16T08:36:33Z</time>
      </trkpt>
      <trkpt lat="47.59053" lon="-2.30481">
        <ele>59.1</ele>
        <time>2025-01-16T08:36:34Z</time>
      </trkpt>
      <trkpt lat="47.59053" lon="-2.3048">
        <ele>59.1</ele>
        <time>2025-01-16T08:36:35Z</time>
      </trkpt>
      <trkpt lat="47.59053" lon="-2.30479">
        <ele>59.2</ele>
        <time>2025-01-16T08:36:36Z</time>
      </trkpt>
      <trkpt lat="47.59052" lon="-2.30477">
        <ele>59.2</ele>
        <time>2025-01-16T08:36:37Z</time>
      </trkpt>
      <trkpt lat="47.59051" lon="-2.30474">
        <ele>59.4</ele>
        <time>2025-01-16T08:36:38Z</time>
      </trkpt>
      <trkpt lat="47.59051" lon="-2.30473">
        <ele>59.4</ele>
        <time>2025-01-16T08:36:39Z</time>
      </trkpt>
      <trkpt lat="47.5905" lon="-2.30471">
        <ele>59.5</ele>
        <time>2025-01-16T08:36:40Z</time>
      </trkpt>
      <trkpt lat="47.5905" lon="-2.30469">
        <ele>59.5</ele>
        <time>2025-01-16T08:36:41Z</time>
      </trkpt>
      <trkpt lat="47.59049" lon="-2.30467">
        <ele>59.5</ele>
        <time>2025-01-16T08:36:42Z</time>
      </trkpt>
      <trkpt lat="47.59049" lon="-2.30466">
        <ele>59.6</ele>
        <time>2025-01-16T08:36:43Z</time>
      </trkpt>
      <trkpt lat="47.59048" lon="-2.30465">
        <ele>59.5</ele>
        <time>2025-01-16T08:36:44Z</time>
      </trkpt>
      <trkpt lat="47.59047" lon="-2.30463">
        <ele>59.5</ele>
        <time>2025-01-16T08:36:45Z</time>
      </trkpt>
      <trkpt lat="47.59046" lon="-2.30461">
        <ele>59.5</ele>
        <time>2025-01-16T08:36:46Z</time>
      </trkpt>
      <trkpt lat="47.59045" lon="-2.30459">
        <ele>59.5</ele>
        <time>2025-01-16T08:36:47Z</time>
      </trkpt>
      <trkpt lat="47.59045" lon="-2.30457">
        <ele>59.6</ele>
        <time>2025-01-16T08:36:48Z</time>
      </trkpt>
      <trkpt lat="47.59044" lon="-2.30455">
        <ele>59.6</ele>
        <time>2025-01-16T08:36:49Z</time>
      </trkpt>
      <trkpt lat="47.59043" lon="-2.30453">
        <ele>59.6</ele>
        <time>2025-01-16T08:36:50Z</time>
      </trkpt>
      <trkpt lat="47.59043" lon="-2.30452">
        <ele>59.7</ele>
        <time>2025-01-16T08:36:51Z</time>
      </trkpt>
      <trkpt lat="47.59042" lon="-2.3045">
        <ele>59.7</ele>
        <time>2025-01-16T08:36:52Z</time>
      </trkpt>
      <trkpt lat="47.59042" lon="-2.30448">
        <ele>59.8</ele>
        <time>2025-01-16T08:36:53Z</time>
      </trkpt>
      <trkpt lat="47.59042" lon="-2.30446">
        <ele>59.9</ele>
        <time>2025-01-16T08:36:54Z</time>
      </trkpt>
      <trkpt lat="47.59041" lon="-2.30445">
        <ele>59.9</ele>
        <time>2025-01-16T08:36:55Z</time>
      </trkpt>
      <trkpt lat="47.59041" lon="-2.30444">
        <ele>60</ele>
        <time>2025-01-16T08:36:56Z</time>
      </trkpt>
      <trkpt lat="47.5904" lon="-2.30442">
        <ele>60.1</ele>
        <time>2025-01-16T08:36:57Z</time>
      </trkpt>
      <trkpt lat="47.5904" lon="-2.30441">
        <ele>60.1</ele>
        <time>2025-01-16T08:36:58Z</time>
      </trkpt>
      <trkpt lat="47.5904" lon="-2.30439">
        <ele>60.3</ele>
        <time>2025-01-16T08:36:59Z</time>
      </trkpt>
      <trkpt lat="47.59041" lon="-2.30437">
        <ele>60.5</ele>
        <time>2025-01-16T08:37:00Z</time>
      </trkpt>
      <trkpt lat="47.59042" lon="-2.30436">
        <ele>60.6</ele>
        <time>2025-01-16T08:37:01Z</time>
      </trkpt>
      <trkpt lat="47.59042" lon="-2.30435">
        <ele>60.7</ele>
        <time>2025-01-16T08:37:02Z</time>
      </trkpt>
      <trkpt lat="47.59043" lon="-2.30434">
        <ele>60.8</ele>
        <time>2025-01-16T08:37:03Z</time>
      </trkpt>
      <trkpt lat="47.59044" lon="-2.30434">
        <ele>60.9</ele>
        <time>2025-01-16T08:37:04Z</time>
      </trkpt>
      <trkpt lat="47.59045" lon="-2.30434">
        <ele>61</ele>
        <time>2025-01-16T08:37:05Z</time>
      </trkpt>
      <trkpt lat="47.59047" lon="-2.30433">
        <ele>61.2</ele>
        <time>2025-01-16T08:37:06Z</time>
      </trkpt>
      <trkpt lat="47.59048" lon="-2.30433">
        <ele>61.3</ele>
        <time>2025-01-16T08:37:07Z</time>
      </trkpt>
      <trkpt lat="47.59048" lon="-2.30432">
        <ele>61.4</ele>
        <time>2025-01-16T08:37:08Z</time>
      </trkpt>
      <trkpt lat="47.59049" lon="-2.30432">
        <ele>61.4</ele>
        <time>2025-01-16T08:37:09Z</time>
      </trkpt>
      <trkpt lat="47.59049" lon="-2.3043">
        <ele>61.6</ele>
        <time>2025-01-16T08:37:10Z</time>
      </trkpt>
      <trkpt lat="47.5905" lon="-2.3043">
        <ele>61.6</ele>
        <time>2025-01-16T08:37:11Z</time>
      </trkpt>
      <trkpt lat="47.59051" lon="-2.30429">
        <ele>61.8</ele>
        <time>2025-01-16T08:37:12Z</time>
      </trkpt>
      <trkpt lat="47.59052" lon="-2.30428">
        <ele>61.9</ele>
        <time>2025-01-16T08:37:13Z</time>
      </trkpt>
      <trkpt lat="47.59053" lon="-2.30427">
        <ele>62.1</ele>
        <time>2025-01-16T08:37:14Z</time>
      </trkpt>
      <trkpt lat="47.59054" lon="-2.30426">
        <ele>62.2</ele>
        <time>2025-01-16T08:37:15Z</time>
      </trkpt>
      <trkpt lat="47.59055" lon="-2.30425">
        <ele>62.4</ele>
        <time>2025-01-16T08:37:16Z</time>
      </trkpt>
      <trkpt lat="47.59055" lon="-2.30424">
        <ele>62.4</ele>
        <time>2025-01-16T08:37:17Z</time>
      </trkpt>
      <trkpt lat="47.59056" lon="-2.30423">
        <ele>62.6</ele>
        <time>2025-01-16T08:37:18Z</time>
      </trkpt>
      <trkpt lat="47.59056" lon="-2.30422">
        <ele>62.6</ele>
        <time>2025-01-16T08:37:19Z</time>
      </trkpt>
      <trkpt lat="47.59057" lon="-2.30421">
        <ele>62.7</ele>
        <time>2025-01-16T08:37:20Z</time>
      </trkpt>
      <trkpt lat="47.59057" lon="-2.3042">
        <ele>62.8</ele>
        <time>2025-01-16T08:37:21Z</time>
      </trkpt>
      <trkpt lat="47.59058" lon="-2.30418">
        <ele>63</ele>
        <time>2025-01-16T08:37:22Z</time>
      </trkpt>
      <trkpt lat="47.59059" lon="-2.30417">
        <ele>63.1</ele>
        <time>2025-01-16T08:37:23Z</time>
      </trkpt>
      <trkpt lat="47.5906" lon="-2.30416">
        <ele>63.2</ele>
        <time>2025-01-16T08:37:24Z</time>
      </trkpt>
      <trkpt lat="47.59061" lon="-2.30415">
        <ele>63.2</ele>
        <time>2025-01-16T08:37:25Z</time>
      </trkpt>
      <trkpt lat="47.59062" lon="-2.30414">
        <ele>63.2</ele>
        <time>2025-01-16T08:37:26Z</time>
      </trkpt>
      <trkpt lat="47.59063" lon="-2.30414">
        <ele>63.2</ele>
        <time>2025-01-16T08:37:27Z</time>
      </trkpt>
      <trkpt lat="47.59064" lon="-2.30413">
        <ele>63.3</ele>
        <time>2025-01-16T08:37:28Z</time>
      </trkpt>
      <trkpt lat="47.59065" lon="-2.30412">
        <ele>63.3</ele>
        <time>2025-01-16T08:37:29Z</time>
      </trkpt>
      <trkpt lat="47.59066" lon="-2.30411">
        <ele>63.3</ele>
        <time>2025-01-16T08:37:30Z</time>
      </trkpt>
      <trkpt lat="47.59067" lon="-2.3041">
        <ele>63.3</ele>
        <time>2025-01-16T08:37:31Z</time>
      </trkpt>
      <trkpt lat="47.59068" lon="-2.30409">
        <ele>63.3</ele>
        <time>2025-01-16T08:37:32Z</time>
      </trkpt>
      <trkpt lat="47.5907" lon="-2.30408">
        <ele>63.4</ele>
        <time>2025-01-16T08:37:33Z</time>
      </trkpt>
      <trkpt lat="47.59071" lon="-2.30407">
        <ele>63.4</ele>
        <time>2025-01-16T08:37:34Z</time>
      </trkpt>
      <trkpt lat="47.59072" lon="-2.30406">
        <ele>63.4</ele>
        <time>2025-01-16T08:37:35Z</time>
      </trkpt>
      <trkpt lat="47.59072" lon="-2.30405">
        <ele>63.3</ele>
        <time>2025-01-16T08:37:36Z</time>
      </trkpt>
      <trkpt lat="47.59073" lon="-2.30404">
        <ele>63.3</ele>
        <time>2025-01-16T08:37:37Z</time>
      </trkpt>
      <trkpt lat="47.59074" lon="-2.30402">
        <ele>63.3</ele>
        <time>2025-01-16T08:37:38Z</time>
      </trkpt>
      <trkpt lat="47.59075" lon="-2.30401">
        <ele>63.3</ele>
        <time>2025-01-16T08:37:39Z</time>
      </trkpt>
      <trkpt lat="47.59076" lon="-2.30399">
        <ele>63.3</ele>
        <time>2025-01-16T08:37:40Z</time>
      </trkpt>
      <trkpt lat="47.59076" lon="-2.30398">
        <ele>63.2</ele>
        <time>2025-01-16T08:37:41Z</time>
      </trkpt>
      <trkpt lat="47.59076" lon="-2.30396">
        <ele>63.2</ele>
        <time>2025-01-16T08:37:42Z</time>
      </trkpt>
      <trkpt lat="47.59077" lon="-2.30394">
        <ele>63.1</ele>
        <time>2025-01-16T08:37:43Z</time>
      </trkpt>
      <trkpt lat="47.59077" lon="-2.30392">
        <ele>63.1</ele>
        <time>2025-01-16T08:37:44Z</time>
      </trkpt>
      <trkpt lat="47.59077" lon="-2.30391">
        <ele>63.1</ele>
        <time>2025-01-16T08:37:45Z</time>
      </trkpt>
      <trkpt lat="47.59077" lon="-2.30389">
        <ele>63</ele>
        <time>2025-01-16T08:37:46Z</time>
      </trkpt>
      <trkpt lat="47.59077" lon="-2.30387">
        <ele>63</ele>
        <time>2025-01-16T08:37:47Z</time>
      </trkpt>
      <trkpt lat="47.59077" lon="-2.30386">
        <ele>63</ele>
        <time>2025-01-16T08:37:48Z</time>
      </trkpt>
      <trkpt lat="47.59077" lon="-2.30385">
        <ele>63</ele>
        <time>2025-01-16T08:37:49Z</time>
      </trkpt>
      <trkpt lat="47.59077" lon="-2.30383">
        <ele>63</ele>
        <time>2025-01-16T08:37:50Z</time>
      </trkpt>
      <trkpt lat="47.59076" lon="-2.30383">
        <ele>63</ele>
        <time>2025-01-16T08:37:51Z</time>
      </trkpt>
      <trkpt lat="47.59075" lon="-2.30382">
        <ele>63</ele>
        <time>2025-01-16T08:37:52Z</time>
      </trkpt>
      <trkpt lat="47.59075" lon="-2.30381">
        <ele>63</ele>
        <time>2025-01-16T08:37:53Z</time>
      </trkpt>
      <trkpt lat="47.59074" lon="-2.3038">
        <ele>63</ele>
        <time>2025-01-16T08:37:54Z</time>
      </trkpt>
      <trkpt lat="47.59073" lon="-2.30379">
        <ele>63</ele>
        <time>2025-01-16T08:37:55Z</time>
      </trkpt>
      <trkpt lat="47.59072" lon="-2.30378">
        <ele>63</ele>
        <time>2025-01-16T08:37:56Z</time>
      </trkpt>
      <trkpt lat="47.59072" lon="-2.30376">
        <ele>63</ele>
        <time>2025-01-16T08:37:57Z</time>
      </trkpt>
      <trkpt lat="47.59071" lon="-2.30375">
        <ele>63</ele>
        <time>2025-01-16T08:37:58Z</time>
      </trkpt>
      <trkpt lat="47.5907" lon="-2.30374">
        <ele>63</ele>
        <time>2025-01-16T08:37:59Z</time>
      </trkpt>
      <trkpt lat="47.59069" lon="-2.30373">
        <ele>63</ele>
        <time>2025-01-16T08:38:00Z</time>
      </trkpt>
      <trkpt lat="47.59069" lon="-2.30372">
        <ele>63</ele>
        <time>2025-01-16T08:38:01Z</time>
      </trkpt>
      <trkpt lat="47.59068" lon="-2.30371">
        <ele>63</ele>
        <time>2025-01-16T08:38:02Z</time>
      </trkpt>
      <trkpt lat="47.59067" lon="-2.3037">
        <ele>63</ele>
        <time>2025-01-16T08:38:03Z</time>
      </trkpt>
      <trkpt lat="47.59066" lon="-2.30368">
        <ele>63</ele>
        <time>2025-01-16T08:38:04Z</time>
      </trkpt>
      <trkpt lat="47.59066" lon="-2.30367">
        <ele>63</ele>
        <time>2025-01-16T08:38:05Z</time>
      </trkpt>
      <trkpt lat="47.59066" lon="-2.30366">
        <ele>63</ele>
        <time>2025-01-16T08:38:06Z</time>
      </trkpt>
      <trkpt lat="47.59065" lon="-2.30365">
        <ele>63</ele>
        <time>2025-01-16T08:38:07Z</time>
      </trkpt>
      <trkpt lat="47.59065" lon="-2.30363">
        <ele>63</ele>
        <time>2025-01-16T08:38:08Z</time>
      </trkpt>
      <trkpt lat="47.59064" lon="-2.30362">
        <ele>63</ele>
        <time>2025-01-16T08:38:09Z</time>
      </trkpt>
      <trkpt lat="47.59063" lon="-2.30361">
        <ele>63</ele>
        <time>2025-01-16T08:38:10Z</time>
      </trkpt>
      <trkpt lat="47.59062" lon="-2.30359">
        <ele>62.9</ele>
        <time>2025-01-16T08:38:11Z</time>
      </trkpt>
      <trkpt lat="47.59061" lon="-2.30358">
        <ele>62.9</ele>
        <time>2025-01-16T08:38:12Z</time>
      </trkpt>
      <trkpt lat="47.5906" lon="-2.30356">
        <ele>62.8</ele>
        <time>2025-01-16T08:38:13Z</time>
      </trkpt>
      <trkpt lat="47.59059" lon="-2.30355">
        <ele>62.8</ele>
        <time>2025-01-16T08:38:14Z</time>
      </trkpt>
      <trkpt lat="47.59059" lon="-2.30354">
        <ele>62.7</ele>
        <time>2025-01-16T08:38:15Z</time>
      </trkpt>
      <trkpt lat="47.59058" lon="-2.30353">
        <ele>62.7</ele>
        <time>2025-01-16T08:38:16Z</time>
      </trkpt>
      <trkpt lat="47.59057" lon="-2.30351">
        <ele>62.6</ele>
        <time>2025-01-16T08:38:17Z</time>
      </trkpt>
      <trkpt lat="47.59057" lon="-2.3035">
        <ele>62.6</ele>
        <time>2025-01-16T08:38:18Z</time>
      </trkpt>
      <trkpt lat="47.59056" lon="-2.30348">
        <ele>62.5</ele>
        <time>2025-01-16T08:38:19Z</time>
      </trkpt>
      <trkpt lat="47.59055" lon="-2.30347">
        <ele>62.5</ele>
        <time>2025-01-16T08:38:20Z</time>
      </trkpt>
      <trkpt lat="47.59054" lon="-2.30345">
        <ele>62.4</ele>
        <time>2025-01-16T08:38:21Z</time>
      </trkpt>
      <trkpt lat="47.59054" lon="-2.30344">
        <ele>62.4</ele>
        <time>2025-01-16T08:38:22Z</time>
      </trkpt>
      <trkpt lat="47.59053" lon="-2.30342">
        <ele>62.3</ele>
        <time>2025-01-16T08:38:23Z</time>
      </trkpt>
      <trkpt lat="47.59052" lon="-2.3034">
        <ele>62.2</ele>
        <time>2025-01-16T08:38:24Z</time>
      </trkpt>
      <trkpt lat="47.59051" lon="-2.30339">
        <ele>62.2</ele>
        <time>2025-01-16T08:38:25Z</time>
      </trkpt>
      <trkpt lat="47.5905" lon="-2.30337">
        <ele>62.1</ele>
        <time>2025-01-16T08:38:26Z</time>
      </trkpt>
      <trkpt lat="47.59049" lon="-2.30336">
        <ele>62.1</ele>
        <time>2025-01-16T08:38:27Z</time>
      </trkpt>
      <trkpt lat="47.59047" lon="-2.30334">
        <ele>62</ele>
        <time>2025-01-16T08:38:28Z</time>
      </trkpt>
      <trkpt lat="47.59046" lon="-2.30333">
        <ele>62</ele>
        <time>2025-01-16T08:38:29Z</time>
      </trkpt>
      <trkpt lat="47.59045" lon="-2.30331">
        <ele>61.9</ele>
        <time>2025-01-16T08:38:30Z</time>
      </trkpt>
      <trkpt lat="47.59045" lon="-2.30329">
        <ele>61.8</ele>
        <time>2025-01-16T08:38:31Z</time>
      </trkpt>
      <trkpt lat="47.59044" lon="-2.30328">
        <ele>61.8</ele>
        <time>2025-01-16T08:38:32Z</time>
      </trkpt>
      <trkpt lat="47.59043" lon="-2.30326">
        <ele>61.7</ele>
        <time>2025-01-16T08:38:33Z</time>
      </trkpt>
      <trkpt lat="47.59042" lon="-2.30324">
        <ele>61.7</ele>
        <time>2025-01-16T08:38:34Z</time>
      </trkpt>
      <trkpt lat="47.59042" lon="-2.30323">
        <ele>61.6</ele>
        <time>2025-01-16T08:38:35Z</time>
      </trkpt>
      <trkpt lat="47.59041" lon="-2.30322">
        <ele>61.6</ele>
        <time>2025-01-16T08:38:36Z</time>
      </trkpt>
      <trkpt lat="47.59041" lon="-2.30321">
        <ele>61.6</ele>
        <time>2025-01-16T08:38:37Z</time>
      </trkpt>
      <trkpt lat="47.59039" lon="-2.30319">
        <ele>61.5</ele>
        <time>2025-01-16T08:38:38Z</time>
      </trkpt>
      <trkpt lat="47.59039" lon="-2.30318">
        <ele>61.4</ele>
        <time>2025-01-16T08:38:39Z</time>
      </trkpt>
      <trkpt lat="47.59038" lon="-2.30317">
        <ele>61.4</ele>
        <time>2025-01-16T08:38:40Z</time>
      </trkpt>
      <trkpt lat="47.59038" lon="-2.30316">
        <ele>61.4</ele>
        <time>2025-01-16T08:38:41Z</time>
      </trkpt>
      <trkpt lat="47.59037" lon="-2.30315">
        <ele>61.3</ele>
        <time>2025-01-16T08:38:42Z</time>
      </trkpt>
      <trkpt lat="47.59036" lon="-2.30314">
        <ele>61.3</ele>
        <time>2025-01-16T08:38:43Z</time>
      </trkpt>
      <trkpt lat="47.59035" lon="-2.30313">
        <ele>61.3</ele>
        <time>2025-01-16T08:38:44Z</time>
      </trkpt>
      <trkpt lat="47.59034" lon="-2.30311">
        <ele>61.2</ele>
        <time>2025-01-16T08:38:45Z</time>
      </trkpt>
      <trkpt lat="47.59033" lon="-2.3031">
        <ele>61.2</ele>
        <time>2025-01-16T08:38:46Z</time>
      </trkpt>
      <trkpt lat="47.59032" lon="-2.30309">
        <ele>61.1</ele>
        <time>2025-01-16T08:38:47Z</time>
      </trkpt>
      <trkpt lat="47.59031" lon="-2.30308">
        <ele>61.1</ele>
        <time>2025-01-16T08:38:48Z</time>
      </trkpt>
      <trkpt lat="47.59031" lon="-2.30307">
        <ele>61.1</ele>
        <time>2025-01-16T08:38:49Z</time>
      </trkpt>
      <trkpt lat="47.5903" lon="-2.30305">
        <ele>61</ele>
        <time>2025-01-16T08:38:50Z</time>
      </trkpt>
      <trkpt lat="47.59029" lon="-2.30304">
        <ele>60.9</ele>
        <time>2025-01-16T08:38:51Z</time>
      </trkpt>
      <trkpt lat="47.59028" lon="-2.30302">
        <ele>60.9</ele>
        <time>2025-01-16T08:38:52Z</time>
      </trkpt>
      <trkpt lat="47.59027" lon="-2.30301">
        <ele>60.8</ele>
        <time>2025-01-16T08:38:53Z</time>
      </trkpt>
      <trkpt lat="47.59026" lon="-2.30299">
        <ele>60.7</ele>
        <time>2025-01-16T08:38:54Z</time>
      </trkpt>
      <trkpt lat="47.59026" lon="-2.30297">
        <ele>60.7</ele>
        <time>2025-01-16T08:38:55Z</time>
      </trkpt>
      <trkpt lat="47.59025" lon="-2.30296">
        <ele>60.6</ele>
        <time>2025-01-16T08:38:56Z</time>
      </trkpt>
      <trkpt lat="47.59023" lon="-2.30293">
        <ele>60.5</ele>
        <time>2025-01-16T08:38:57Z</time>
      </trkpt>
      <trkpt lat="47.59022" lon="-2.30291">
        <ele>60.4</ele>
        <time>2025-01-16T08:38:58Z</time>
      </trkpt>
      <trkpt lat="47.5902" lon="-2.30288">
        <ele>60.2</ele>
        <time>2025-01-16T08:38:59Z</time>
      </trkpt>
      <trkpt lat="47.59019" lon="-2.30286">
        <ele>60.1</ele>
        <time>2025-01-16T08:39:00Z</time>
      </trkpt>
      <trkpt lat="47.59018" lon="-2.30285">
        <ele>60</ele>
        <time>2025-01-16T08:39:01Z</time>
      </trkpt>
      <trkpt lat="47.59017" lon="-2.30283">
        <ele>59.9</ele>
        <time>2025-01-16T08:39:02Z</time>
      </trkpt>
      <trkpt lat="47.59016" lon="-2.30282">
        <ele>59.8</ele>
        <time>2025-01-16T08:39:03Z</time>
      </trkpt>
      <trkpt lat="47.59016" lon="-2.3028">
        <ele>59.7</ele>
        <time>2025-01-16T08:39:04Z</time>
      </trkpt>
      <trkpt lat="47.59015" lon="-2.30279">
        <ele>59.6</ele>
        <time>2025-01-16T08:39:05Z</time>
      </trkpt>
      <trkpt lat="47.59014" lon="-2.30278">
        <ele>59.5</ele>
        <time>2025-01-16T08:39:06Z</time>
      </trkpt>
      <trkpt lat="47.59013" lon="-2.30276">
        <ele>59.4</ele>
        <time>2025-01-16T08:39:07Z</time>
      </trkpt>
      <trkpt lat="47.59012" lon="-2.30275">
        <ele>59.3</ele>
        <time>2025-01-16T08:39:08Z</time>
      </trkpt>
      <trkpt lat="47.59011" lon="-2.30273">
        <ele>59.2</ele>
        <time>2025-01-16T08:39:09Z</time>
      </trkpt>
      <trkpt lat="47.5901" lon="-2.30272">
        <ele>59.1</ele>
        <time>2025-01-16T08:39:10Z</time>
      </trkpt>
      <trkpt lat="47.59009" lon="-2.3027">
        <ele>59</ele>
        <time>2025-01-16T08:39:11Z</time>
      </trkpt>
      <trkpt lat="47.59008" lon="-2.30268">
        <ele>58.8</ele>
        <time>2025-01-16T08:39:12Z</time>
      </trkpt>
      <trkpt lat="47.59007" lon="-2.30267">
        <ele>58.8</ele>
        <time>2025-01-16T08:39:13Z</time>
      </trkpt>
      <trkpt lat="47.59006" lon="-2.30265">
        <ele>58.7</ele>
        <time>2025-01-16T08:39:14Z</time>
      </trkpt>
      <trkpt lat="47.59005" lon="-2.30264">
        <ele>58.6</ele>
        <time>2025-01-16T08:39:15Z</time>
      </trkpt>
      <trkpt lat="47.59005" lon="-2.30262">
        <ele>58.5</ele>
        <time>2025-01-16T08:39:16Z</time>
      </trkpt>
      <trkpt lat="47.59004" lon="-2.3026">
        <ele>58.4</ele>
        <time>2025-01-16T08:39:17Z</time>
      </trkpt>
      <trkpt lat="47.59003" lon="-2.30258">
        <ele>58.3</ele>
        <time>2025-01-16T08:39:18Z</time>
      </trkpt>
      <trkpt lat="47.59003" lon="-2.30257">
        <ele>58.3</ele>
        <time>2025-01-16T08:39:19Z</time>
      </trkpt>
      <trkpt lat="47.59002" lon="-2.30255">
        <ele>58.2</ele>
        <time>2025-01-16T08:39:20Z</time>
      </trkpt>
      <trkpt lat="47.59002" lon="-2.30254">
        <ele>58.2</ele>
        <time>2025-01-16T08:39:21Z</time>
      </trkpt>
      <trkpt lat="47.59001" lon="-2.30252">
        <ele>58.1</ele>
        <time>2025-01-16T08:39:22Z</time>
      </trkpt>
      <trkpt lat="47.59" lon="-2.3025">
        <ele>58</ele>
        <time>2025-01-16T08:39:23Z</time>
      </trkpt>
      <trkpt lat="47.58999" lon="-2.30248">
        <ele>57.8</ele>
        <time>2025-01-16T08:39:24Z</time>
      </trkpt>
      <trkpt lat="47.58998" lon="-2.30246">
        <ele>57.6</ele>
        <time>2025-01-16T08:39:25Z</time>
      </trkpt>
      <trkpt lat="47.58997" lon="-2.30245">
        <ele>57.5</ele>
        <time>2025-01-16T08:39:26Z</time>
      </trkpt>
      <trkpt lat="47.58997" lon="-2.30244">
        <ele>57.5</ele>
        <time>2025-01-16T08:39:27Z</time>
      </trkpt>
      <trkpt lat="47.58997" lon="-2.30243">
        <ele>57.4</ele>
        <time>2025-01-16T08:39:28Z</time>
      </trkpt>
      <trkpt lat="47.58997" lon="-2.30242">
        <ele>57.3</ele>
        <time>2025-01-16T08:39:29Z</time>
      </trkpt>
      <trkpt lat="47.58996" lon="-2.3024">
        <ele>57.1</ele>
        <time>2025-01-16T08:39:30Z</time>
      </trkpt>
      <trkpt lat="47.58995" lon="-2.30239">
        <ele>57</ele>
        <time>2025-01-16T08:39:31Z</time>
      </trkpt>
      <trkpt lat="47.58994" lon="-2.30237">
        <ele>56.8</ele>
        <time>2025-01-16T08:39:32Z</time>
      </trkpt>
      <trkpt lat="47.58994" lon="-2.30235">
        <ele>56.7</ele>
        <time>2025-01-16T08:39:33Z</time>
      </trkpt>
      <trkpt lat="47.58993" lon="-2.30234">
        <ele>56.6</ele>
        <time>2025-01-16T08:39:34Z</time>
      </trkpt>
      <trkpt lat="47.58992" lon="-2.30232">
        <ele>56.4</ele>
        <time>2025-01-16T08:39:35Z</time>
      </trkpt>
      <trkpt lat="47.58991" lon="-2.30231">
        <ele>56.3</ele>
        <time>2025-01-16T08:39:36Z</time>
      </trkpt>
      <trkpt lat="47.58991" lon="-2.3023">
        <ele>56.2</ele>
        <time>2025-01-16T08:39:37Z</time>
      </trkpt>
      <trkpt lat="47.5899" lon="-2.30228">
        <ele>56.1</ele>
        <time>2025-01-16T08:39:38Z</time>
      </trkpt>
      <trkpt lat="47.58989" lon="-2.30227">
        <ele>55.9</ele>
        <time>2025-01-16T08:39:39Z</time>
      </trkpt>
      <trkpt lat="47.58988" lon="-2.30225">
        <ele>55.8</ele>
        <time>2025-01-16T08:39:40Z</time>
      </trkpt>
      <trkpt lat="47.58988" lon="-2.30224">
        <ele>55.7</ele>
        <time>2025-01-16T08:39:41Z</time>
      </trkpt>
      <trkpt lat="47.58987" lon="-2.30222">
        <ele>55.5</ele>
        <time>2025-01-16T08:39:42Z</time>
      </trkpt>
      <trkpt lat="47.58986" lon="-2.3022">
        <ele>55.4</ele>
        <time>2025-01-16T08:39:43Z</time>
      </trkpt>
      <trkpt lat="47.58985" lon="-2.30219">
        <ele>55.3</ele>
        <time>2025-01-16T08:39:44Z</time>
      </trkpt>
      <trkpt lat="47.58985" lon="-2.30218">
        <ele>55.3</ele>
        <time>2025-01-16T08:39:45Z</time>
      </trkpt>
      <trkpt lat="47.58983" lon="-2.30216">
        <ele>55.2</ele>
        <time>2025-01-16T08:39:46Z</time>
      </trkpt>
      <trkpt lat="47.58982" lon="-2.30214">
        <ele>55.1</ele>
        <time>2025-01-16T08:39:47Z</time>
      </trkpt>
      <trkpt lat="47.58981" lon="-2.30212">
        <ele>54.9</ele>
        <time>2025-01-16T08:39:48Z</time>
      </trkpt>
      <trkpt lat="47.5898" lon="-2.3021">
        <ele>54.8</ele>
        <time>2025-01-16T08:39:49Z</time>
      </trkpt>
      <trkpt lat="47.58979" lon="-2.30209">
        <ele>54.8</ele>
        <time>2025-01-16T08:39:50Z</time>
      </trkpt>
      <trkpt lat="47.58979" lon="-2.30208">
        <ele>54.7</ele>
        <time>2025-01-16T08:39:51Z</time>
      </trkpt>
      <trkpt lat="47.58978" lon="-2.30207">
        <ele>54.7</ele>
        <time>2025-01-16T08:39:52Z</time>
      </trkpt>
      <trkpt lat="47.58978" lon="-2.30205">
        <ele>54.6</ele>
        <time>2025-01-16T08:39:53Z</time>
      </trkpt>
      <trkpt lat="47.58977" lon="-2.30204">
        <ele>54.5</ele>
        <time>2025-01-16T08:39:54Z</time>
      </trkpt>
      <trkpt lat="47.58977" lon="-2.30203">
        <ele>54.5</ele>
        <time>2025-01-16T08:39:55Z</time>
      </trkpt>
      <trkpt lat="47.58976" lon="-2.30201">
        <ele>54.4</ele>
        <time>2025-01-16T08:39:56Z</time>
      </trkpt>
      <trkpt lat="47.58975" lon="-2.30199">
        <ele>54.3</ele>
        <time>2025-01-16T08:39:57Z</time>
      </trkpt>
      <trkpt lat="47.58975" lon="-2.30197">
        <ele>54.2</ele>
        <time>2025-01-16T08:39:58Z</time>
      </trkpt>
      <trkpt lat="47.58975" lon="-2.30196">
        <ele>54.2</ele>
        <time>2025-01-16T08:39:59Z</time>
      </trkpt>
      <trkpt lat="47.58974" lon="-2.30195">
        <ele>54.1</ele>
        <time>2025-01-16T08:40:00Z</time>
      </trkpt>
      <trkpt lat="47.58974" lon="-2.30194">
        <ele>54</ele>
        <time>2025-01-16T08:40:01Z</time>
      </trkpt>
      <trkpt lat="47.58974" lon="-2.30193">
        <ele>54</ele>
        <time>2025-01-16T08:40:02Z</time>
      </trkpt>
      <trkpt lat="47.58974" lon="-2.30192">
        <ele>54</ele>
        <time>2025-01-16T08:40:03Z</time>
      </trkpt>
      <trkpt lat="47.58974" lon="-2.3019">
        <ele>53.9</ele>
        <time>2025-01-16T08:40:04Z</time>
      </trkpt>
      <trkpt lat="47.58974" lon="-2.30189">
        <ele>53.9</ele>
        <time>2025-01-16T08:40:05Z</time>
      </trkpt>
      <trkpt lat="47.58974" lon="-2.30188">
        <ele>53.8</ele>
        <time>2025-01-16T08:40:06Z</time>
      </trkpt>
      <trkpt lat="47.58974" lon="-2.30188">
        <ele>53.8</ele>
        <time>2025-01-16T08:40:07Z</time>
      </trkpt>
      <trkpt lat="47.58973" lon="-2.30187">
        <ele>53.8</ele>
        <time>2025-01-16T08:40:08Z</time>
      </trkpt>
      <trkpt lat="47.58973" lon="-2.30186">
        <ele>53.7</ele>
        <time>2025-01-16T08:40:09Z</time>
      </trkpt>
      <trkpt lat="47.58972" lon="-2.30185">
        <ele>53.7</ele>
        <time>2025-01-16T08:40:10Z</time>
      </trkpt>
      <trkpt lat="47.58971" lon="-2.30183">
        <ele>53.5</ele>
        <time>2025-01-16T08:40:11Z</time>
      </trkpt>
      <trkpt lat="47.58971" lon="-2.30182">
        <ele>53.5</ele>
        <time>2025-01-16T08:40:12Z</time>
      </trkpt>
      <trkpt lat="47.5897" lon="-2.30181">
        <ele>53.4</ele>
        <time>2025-01-16T08:40:13Z</time>
      </trkpt>
      <trkpt lat="47.58969" lon="-2.3018">
        <ele>53.4</ele>
        <time>2025-01-16T08:40:14Z</time>
      </trkpt>
      <trkpt lat="47.58969" lon="-2.3018">
        <ele>53.4</ele>
        <time>2025-01-16T08:40:15Z</time>
      </trkpt>
      <trkpt lat="47.58968" lon="-2.30179">
        <ele>53.3</ele>
        <time>2025-01-16T08:40:16Z</time>
      </trkpt>
      <trkpt lat="47.58968" lon="-2.30178">
        <ele>53.3</ele>
        <time>2025-01-16T08:40:17Z</time>
      </trkpt>
      <trkpt lat="47.58967" lon="-2.30177">
        <ele>53.2</ele>
        <time>2025-01-16T08:40:18Z</time>
      </trkpt>
      <trkpt lat="47.58966" lon="-2.30177">
        <ele>53.1</ele>
        <time>2025-01-16T08:40:19Z</time>
      </trkpt>
      <trkpt lat="47.58965" lon="-2.30176">
        <ele>53.1</ele>
        <time>2025-01-16T08:40:20Z</time>
      </trkpt>
      <trkpt lat="47.58964" lon="-2.30175">
        <ele>53</ele>
        <time>2025-01-16T08:40:21Z</time>
      </trkpt>
      <trkpt lat="47.58963" lon="-2.30174">
        <ele>52.9</ele>
        <time>2025-01-16T08:40:22Z</time>
      </trkpt>
      <trkpt lat="47.58962" lon="-2.30172">
        <ele>52.8</ele>
        <time>2025-01-16T08:40:23Z</time>
      </trkpt>
      <trkpt lat="47.58962" lon="-2.30171">
        <ele>52.8</ele>
        <time>2025-01-16T08:40:24Z</time>
      </trkpt>
      <trkpt lat="47.58961" lon="-2.30169">
        <ele>52.7</ele>
        <time>2025-01-16T08:40:25Z</time>
      </trkpt>
      <trkpt lat="47.58961" lon="-2.30168">
        <ele>52.6</ele>
        <time>2025-01-16T08:40:26Z</time>
      </trkpt>
      <trkpt lat="47.5896" lon="-2.30166">
        <ele>52.5</ele>
        <time>2025-01-16T08:40:27Z</time>
      </trkpt>
      <trkpt lat="47.58959" lon="-2.30164">
        <ele>52.4</ele>
        <time>2025-01-16T08:40:28Z</time>
      </trkpt>
      <trkpt lat="47.58959" lon="-2.30163">
        <ele>52.3</ele>
        <time>2025-01-16T08:40:29Z</time>
      </trkpt>
      <trkpt lat="47.58959" lon="-2.30162">
        <ele>52.3</ele>
        <time>2025-01-16T08:40:30Z</time>
      </trkpt>
      <trkpt lat="47.58959" lon="-2.3016">
        <ele>52.2</ele>
        <time>2025-01-16T08:40:31Z</time>
      </trkpt>
      <trkpt lat="47.58958" lon="-2.30159">
        <ele>52.1</ele>
        <time>2025-01-16T08:40:32Z</time>
      </trkpt>
      <trkpt lat="47.58958" lon="-2.30159">
        <ele>52.1</ele>
        <time>2025-01-16T08:40:33Z</time>
      </trkpt>
      <trkpt lat="47.58957" lon="-2.30157">
        <ele>51.9</ele>
        <time>2025-01-16T08:40:34Z</time>
      </trkpt>
      <trkpt lat="47.58957" lon="-2.30156">
        <ele>51.9</ele>
        <time>2025-01-16T08:40:35Z</time>
      </trkpt>
      <trkpt lat="47.58956" lon="-2.30156">
        <ele>51.9</ele>
        <time>2025-01-16T08:40:36Z</time>
      </trkpt>
      <trkpt lat="47.58955" lon="-2.30155">
        <ele>51.8</ele>
        <time>2025-01-16T08:40:37Z</time>
      </trkpt>
      <trkpt lat="47.58954" lon="-2.30154">
        <ele>51.7</ele>
        <time>2025-01-16T08:40:38Z</time>
      </trkpt>
      <trkpt lat="47.58953" lon="-2.30153">
        <ele>51.7</ele>
        <time>2025-01-16T08:40:39Z</time>
      </trkpt>
      <trkpt lat="47.58952" lon="-2.30152">
        <ele>51.6</ele>
        <time>2025-01-16T08:40:40Z</time>
      </trkpt>
      <trkpt lat="47.58951" lon="-2.30152">
        <ele>51.6</ele>
        <time>2025-01-16T08:40:41Z</time>
      </trkpt>
      <trkpt lat="47.5895" lon="-2.30151">
        <ele>51.5</ele>
        <time>2025-01-16T08:40:42Z</time>
      </trkpt>
      <trkpt lat="47.5895" lon="-2.30151">
        <ele>51.5</ele>
        <time>2025-01-16T08:40:43Z</time>
      </trkpt>
      <trkpt lat="47.58949" lon="-2.3015">
        <ele>51.5</ele>
        <time>2025-01-16T08:40:44Z</time>
      </trkpt>
      <trkpt lat="47.58948" lon="-2.30149">
        <ele>51.4</ele>
        <time>2025-01-16T08:40:45Z</time>
      </trkpt>
      <trkpt lat="47.58947" lon="-2.30148">
        <ele>51.4</ele>
        <time>2025-01-16T08:40:46Z</time>
      </trkpt>
      <trkpt lat="47.58946" lon="-2.30146">
        <ele>51.3</ele>
        <time>2025-01-16T08:40:47Z</time>
      </trkpt>
      <trkpt lat="47.58945" lon="-2.30144">
        <ele>51.2</ele>
        <time>2025-01-16T08:40:48Z</time>
      </trkpt>
      <trkpt lat="47.58944" lon="-2.30142">
        <ele>51.1</ele>
        <time>2025-01-16T08:40:49Z</time>
      </trkpt>
      <trkpt lat="47.58943" lon="-2.30141">
        <ele>51.1</ele>
        <time>2025-01-16T08:40:50Z</time>
      </trkpt>
      <trkpt lat="47.58942" lon="-2.3014">
        <ele>51</ele>
        <time>2025-01-16T08:40:51Z</time>
      </trkpt>
      <trkpt lat="47.58941" lon="-2.30138">
        <ele>51</ele>
        <time>2025-01-16T08:40:52Z</time>
      </trkpt>
      <trkpt lat="47.58941" lon="-2.30137">
        <ele>50.9</ele>
        <time>2025-01-16T08:40:53Z</time>
      </trkpt>
      <trkpt lat="47.58941" lon="-2.30136">
        <ele>50.9</ele>
        <time>2025-01-16T08:40:54Z</time>
      </trkpt>
      <trkpt lat="47.5894" lon="-2.30135">
        <ele>50.9</ele>
        <time>2025-01-16T08:40:55Z</time>
      </trkpt>
      <trkpt lat="47.5894" lon="-2.30133">
        <ele>50.8</ele>
        <time>2025-01-16T08:40:56Z</time>
      </trkpt>
      <trkpt lat="47.58939" lon="-2.30132">
        <ele>50.8</ele>
        <time>2025-01-16T08:40:57Z</time>
      </trkpt>
      <trkpt lat="47.58939" lon="-2.3013">
        <ele>50.7</ele>
        <time>2025-01-16T08:40:58Z</time>
      </trkpt>
      <trkpt lat="47.58938" lon="-2.30128">
        <ele>50.6</ele>
        <time>2025-01-16T08:40:59Z</time>
      </trkpt>
      <trkpt lat="47.58937" lon="-2.30126">
        <ele>50.5</ele>
        <time>2025-01-16T08:41:00Z</time>
      </trkpt>
      <trkpt lat="47.58936" lon="-2.30124">
        <ele>50.5</ele>
        <time>2025-01-16T08:41:01Z</time>
      </trkpt>
      <trkpt lat="47.58936" lon="-2.30122">
        <ele>50.4</ele>
        <time>2025-01-16T08:41:02Z</time>
      </trkpt>
      <trkpt lat="47.58936" lon="-2.3012">
        <ele>50.3</ele>
        <time>2025-01-16T08:41:03Z</time>
      </trkpt>
      <trkpt lat="47.58935" lon="-2.30118">
        <ele>50.2</ele>
        <time>2025-01-16T08:41:04Z</time>
      </trkpt>
      <trkpt lat="47.58935" lon="-2.30117">
        <ele>50.2</ele>
        <time>2025-01-16T08:41:05Z</time>
      </trkpt>
      <trkpt lat="47.58935" lon="-2.30115">
        <ele>50.1</ele>
        <time>2025-01-16T08:41:06Z</time>
      </trkpt>
      <trkpt lat="47.58935" lon="-2.30114">
        <ele>50.1</ele>
        <time>2025-01-16T08:41:07Z</time>
      </trkpt>
      <trkpt lat="47.58934" lon="-2.30112">
        <ele>50</ele>
        <time>2025-01-16T08:41:08Z</time>
      </trkpt>
      <trkpt lat="47.58933" lon="-2.30111">
        <ele>50</ele>
        <time>2025-01-16T08:41:09Z</time>
      </trkpt>
      <trkpt lat="47.58933" lon="-2.3011">
        <ele>49.9</ele>
        <time>2025-01-16T08:41:10Z</time>
      </trkpt>
      <trkpt lat="47.58932" lon="-2.30109">
        <ele>49.8</ele>
        <time>2025-01-16T08:41:11Z</time>
      </trkpt>
      <trkpt lat="47.58931" lon="-2.30107">
        <ele>49.6</ele>
        <time>2025-01-16T08:41:12Z</time>
      </trkpt>
      <trkpt lat="47.5893" lon="-2.30105">
        <ele>49.5</ele>
        <time>2025-01-16T08:41:13Z</time>
      </trkpt>
      <trkpt lat="47.5893" lon="-2.30103">
        <ele>49.3</ele>
        <time>2025-01-16T08:41:14Z</time>
      </trkpt>
      <trkpt lat="47.58929" lon="-2.30101">
        <ele>49.1</ele>
        <time>2025-01-16T08:41:15Z</time>
      </trkpt>
      <trkpt lat="47.58928" lon="-2.30099">
        <ele>49</ele>
        <time>2025-01-16T08:41:16Z</time>
      </trkpt>
      <trkpt lat="47.58927" lon="-2.30098">
        <ele>48.9</ele>
        <time>2025-01-16T08:41:17Z</time>
      </trkpt>
      <trkpt lat="47.58926" lon="-2.30096">
        <ele>48.7</ele>
        <time>2025-01-16T08:41:18Z</time>
      </trkpt>
      <trkpt lat="47.58926" lon="-2.30094">
        <ele>48.6</ele>
        <time>2025-01-16T08:41:19Z</time>
      </trkpt>
      <trkpt lat="47.58925" lon="-2.30093">
        <ele>48.5</ele>
        <time>2025-01-16T08:41:20Z</time>
      </trkpt>
      <trkpt lat="47.58924" lon="-2.30091">
        <ele>48.4</ele>
        <time>2025-01-16T08:41:21Z</time>
      </trkpt>
      <trkpt lat="47.58923" lon="-2.3009">
        <ele>48.3</ele>
        <time>2025-01-16T08:41:22Z</time>
      </trkpt>
      <trkpt lat="47.58923" lon="-2.30088">
        <ele>48.1</ele>
        <time>2025-01-16T08:41:23Z</time>
      </trkpt>
      <trkpt lat="47.58922" lon="-2.30086">
        <ele>48</ele>
        <time>2025-01-16T08:41:24Z</time>
      </trkpt>
      <trkpt lat="47.58921" lon="-2.30085">
        <ele>48</ele>
        <time>2025-01-16T08:41:25Z</time>
      </trkpt>
      <trkpt lat="47.5892" lon="-2.30083">
        <ele>47.9</ele>
        <time>2025-01-16T08:41:26Z</time>
      </trkpt>
      <trkpt lat="47.5892" lon="-2.30081">
        <ele>47.7</ele>
        <time>2025-01-16T08:41:27Z</time>
      </trkpt>
      <trkpt lat="47.58919" lon="-2.30079">
        <ele>47.6</ele>
        <time>2025-01-16T08:41:28Z</time>
      </trkpt>
      <trkpt lat="47.58918" lon="-2.30078">
        <ele>47.6</ele>
        <time>2025-01-16T08:41:29Z</time>
      </trkpt>
      <trkpt lat="47.58918" lon="-2.30076">
        <ele>47.4</ele>
        <time>2025-01-16T08:41:30Z</time>
      </trkpt>
      <trkpt lat="47.58917" lon="-2.30074">
        <ele>47.3</ele>
        <time>2025-01-16T08:41:31Z</time>
      </trkpt>
      <trkpt lat="47.58916" lon="-2.30073">
        <ele>47.3</ele>
        <time>2025-01-16T08:41:32Z</time>
      </trkpt>
      <trkpt lat="47.58916" lon="-2.30072">
        <ele>47.2</ele>
        <time>2025-01-16T08:41:33Z</time>
      </trkpt>
      <trkpt lat="47.58915" lon="-2.30071">
        <ele>47.2</ele>
        <time>2025-01-16T08:41:34Z</time>
      </trkpt>
      <trkpt lat="47.58914" lon="-2.3007">
        <ele>47.1</ele>
        <time>2025-01-16T08:41:35Z</time>
      </trkpt>
      <trkpt lat="47.58913" lon="-2.30069">
        <ele>47.1</ele>
        <time>2025-01-16T08:41:36Z</time>
      </trkpt>
      <trkpt lat="47.58912" lon="-2.30067">
        <ele>47</ele>
        <time>2025-01-16T08:41:37Z</time>
      </trkpt>
      <trkpt lat="47.58911" lon="-2.30066">
        <ele>47</ele>
        <time>2025-01-16T08:41:38Z</time>
      </trkpt>
      <trkpt lat="47.5891" lon="-2.30065">
        <ele>47</ele>
        <time>2025-01-16T08:41:39Z</time>
      </trkpt>
      <trkpt lat="47.58909" lon="-2.30064">
        <ele>47</ele>
        <time>2025-01-16T08:41:40Z</time>
      </trkpt>
      <trkpt lat="47.58908" lon="-2.30062">
        <ele>46.9</ele>
        <time>2025-01-16T08:41:41Z</time>
      </trkpt>
      <trkpt lat="47.58907" lon="-2.30061">
        <ele>47</ele>
        <time>2025-01-16T08:41:42Z</time>
      </trkpt>
      <trkpt lat="47.58907" lon="-2.30059">
        <ele>46.9</ele>
        <time>2025-01-16T08:41:43Z</time>
      </trkpt>
      <trkpt lat="47.58906" lon="-2.30058">
        <ele>46.9</ele>
        <time>2025-01-16T08:41:44Z</time>
      </trkpt>
      <trkpt lat="47.58905" lon="-2.30056">
        <ele>46.9</ele>
        <time>2025-01-16T08:41:45Z</time>
      </trkpt>
      <trkpt lat="47.58905" lon="-2.30055">
        <ele>46.8</ele>
        <time>2025-01-16T08:41:46Z</time>
      </trkpt>
      <trkpt lat="47.58904" lon="-2.30053">
        <ele>46.7</ele>
        <time>2025-01-16T08:41:47Z</time>
      </trkpt>
      <trkpt lat="47.58904" lon="-2.30051">
        <ele>46.5</ele>
        <time>2025-01-16T08:41:48Z</time>
      </trkpt>
      <trkpt lat="47.58903" lon="-2.3005">
        <ele>46.5</ele>
        <time>2025-01-16T08:41:49Z</time>
      </trkpt>
      <trkpt lat="47.58903" lon="-2.30049">
        <ele>46.4</ele>
        <time>2025-01-16T08:41:50Z</time>
      </trkpt>
      <trkpt lat="47.58902" lon="-2.30047">
        <ele>46.3</ele>
        <time>2025-01-16T08:41:51Z</time>
      </trkpt>
      <trkpt lat="47.58902" lon="-2.30046">
        <ele>46.2</ele>
        <time>2025-01-16T08:41:52Z</time>
      </trkpt>
      <trkpt lat="47.58901" lon="-2.30044">
        <ele>46.1</ele>
        <time>2025-01-16T08:41:53Z</time>
      </trkpt>
      <trkpt lat="47.589" lon="-2.30042">
        <ele>46</ele>
        <time>2025-01-16T08:41:54Z</time>
      </trkpt>
      <trkpt lat="47.58899" lon="-2.30041">
        <ele>46</ele>
        <time>2025-01-16T08:41:55Z</time>
      </trkpt>
      <trkpt lat="47.58898" lon="-2.3004">
        <ele>46</ele>
        <time>2025-01-16T08:41:56Z</time>
      </trkpt>
      <trkpt lat="47.58896" lon="-2.30039">
        <ele>46.1</ele>
        <time>2025-01-16T08:41:57Z</time>
      </trkpt>
      <trkpt lat="47.58895" lon="-2.30039">
        <ele>46.2</ele>
        <time>2025-01-16T08:41:58Z</time>
      </trkpt>
      <trkpt lat="47.58895" lon="-2.30038">
        <ele>46.2</ele>
        <time>2025-01-16T08:41:59Z</time>
      </trkpt>
      <trkpt lat="47.58894" lon="-2.30038">
        <ele>46.3</ele>
        <time>2025-01-16T08:42:00Z</time>
      </trkpt>
      <trkpt lat="47.58893" lon="-2.30037">
        <ele>46.3</ele>
        <time>2025-01-16T08:42:01Z</time>
      </trkpt>
      <trkpt lat="47.58892" lon="-2.30036">
        <ele>46.3</ele>
        <time>2025-01-16T08:42:02Z</time>
      </trkpt>
      <trkpt lat="47.58891" lon="-2.30035">
        <ele>46.3</ele>
        <time>2025-01-16T08:42:03Z</time>
      </trkpt>
      <trkpt lat="47.5889" lon="-2.30033">
        <ele>46.3</ele>
        <time>2025-01-16T08:42:04Z</time>
      </trkpt>
      <trkpt lat="47.5889" lon="-2.30032">
        <ele>46.2</ele>
        <time>2025-01-16T08:42:05Z</time>
      </trkpt>
      <trkpt lat="47.58889" lon="-2.3003">
        <ele>46.1</ele>
        <time>2025-01-16T08:42:06Z</time>
      </trkpt>
      <trkpt lat="47.58889" lon="-2.30029">
        <ele>46.1</ele>
        <time>2025-01-16T08:42:07Z</time>
      </trkpt>
      <trkpt lat="47.58888" lon="-2.30027">
        <ele>46</ele>
        <time>2025-01-16T08:42:08Z</time>
      </trkpt>
      <trkpt lat="47.58887" lon="-2.30026">
        <ele>46.1</ele>
        <time>2025-01-16T08:42:09Z</time>
      </trkpt>
      <trkpt lat="47.58886" lon="-2.30025">
        <ele>46.1</ele>
        <time>2025-01-16T08:42:10Z</time>
      </trkpt>
      <trkpt lat="47.58886" lon="-2.30023">
        <ele>46.1</ele>
        <time>2025-01-16T08:42:11Z</time>
      </trkpt>
      <trkpt lat="47.58885" lon="-2.30021">
        <ele>46.1</ele>
        <time>2025-01-16T08:42:12Z</time>
      </trkpt>
      <trkpt lat="47.58884" lon="-2.3002">
        <ele>46.1</ele>
        <time>2025-01-16T08:42:13Z</time>
      </trkpt>
      <trkpt lat="47.58883" lon="-2.30018">
        <ele>46.1</ele>
        <time>2025-01-16T08:42:14Z</time>
      </trkpt>
      <trkpt lat="47.58883" lon="-2.30016">
        <ele>46.1</ele>
        <time>2025-01-16T08:42:15Z</time>
      </trkpt>
      <trkpt lat="47.58882" lon="-2.30014">
        <ele>46.1</ele>
        <time>2025-01-16T08:42:16Z</time>
      </trkpt>
      <trkpt lat="47.58881" lon="-2.30011">
        <ele>46.1</ele>
        <time>2025-01-16T08:42:17Z</time>
      </trkpt>
      <trkpt lat="47.58881" lon="-2.30009">
        <ele>46.1</ele>
        <time>2025-01-16T08:42:18Z</time>
      </trkpt>
      <trkpt lat="47.58881" lon="-2.30007">
        <ele>46.1</ele>
        <time>2025-01-16T08:42:19Z</time>
      </trkpt>
      <trkpt lat="47.5888" lon="-2.30006">
        <ele>46.1</ele>
        <time>2025-01-16T08:42:20Z</time>
      </trkpt>
      <trkpt lat="47.58879" lon="-2.30005">
        <ele>46.1</ele>
        <time>2025-01-16T08:42:21Z</time>
      </trkpt>
      <trkpt lat="47.58878" lon="-2.30004">
        <ele>46.1</ele>
        <time>2025-01-16T08:42:22Z</time>
      </trkpt>
      <trkpt lat="47.58877" lon="-2.30003">
        <ele>46</ele>
        <time>2025-01-16T08:42:23Z</time>
      </trkpt>
      <trkpt lat="47.58876" lon="-2.30003">
        <ele>46.1</ele>
        <time>2025-01-16T08:42:24Z</time>
      </trkpt>
      <trkpt lat="47.58876" lon="-2.30002">
        <ele>46</ele>
        <time>2025-01-16T08:42:25Z</time>
      </trkpt>
      <trkpt lat="47.58875" lon="-2.30001">
        <ele>46</ele>
        <time>2025-01-16T08:42:26Z</time>
      </trkpt>
      <trkpt lat="47.58874" lon="-2.3">
        <ele>46</ele>
        <time>2025-01-16T08:42:27Z</time>
      </trkpt>
      <trkpt lat="47.58873" lon="-2.29998">
        <ele>45.9</ele>
        <time>2025-01-16T08:42:28Z</time>
      </trkpt>
      <trkpt lat="47.58873" lon="-2.29997">
        <ele>45.8</ele>
        <time>2025-01-16T08:42:29Z</time>
      </trkpt>
      <trkpt lat="47.58872" lon="-2.29996">
        <ele>45.8</ele>
        <time>2025-01-16T08:42:30Z</time>
      </trkpt>
      <trkpt lat="47.58871" lon="-2.29995">
        <ele>45.8</ele>
        <time>2025-01-16T08:42:31Z</time>
      </trkpt>
      <trkpt lat="47.5887" lon="-2.29993">
        <ele>45.7</ele>
        <time>2025-01-16T08:42:32Z</time>
      </trkpt>
      <trkpt lat="47.5887" lon="-2.29991">
        <ele>45.6</ele>
        <time>2025-01-16T08:42:33Z</time>
      </trkpt>
      <trkpt lat="47.58869" lon="-2.29989">
        <ele>45.5</ele>
        <time>2025-01-16T08:42:34Z</time>
      </trkpt>
      <trkpt lat="47.58869" lon="-2.29987">
        <ele>45.4</ele>
        <time>2025-01-16T08:42:35Z</time>
      </trkpt>
      <trkpt lat="47.58868" lon="-2.29985">
        <ele>45.3</ele>
        <time>2025-01-16T08:42:36Z</time>
      </trkpt>
      <trkpt lat="47.58868" lon="-2.29984">
        <ele>45.3</ele>
        <time>2025-01-16T08:42:37Z</time>
      </trkpt>
      <trkpt lat="47.58867" lon="-2.29982">
        <ele>45.2</ele>
        <time>2025-01-16T08:42:38Z</time>
      </trkpt>
      <trkpt lat="47.58867" lon="-2.29981">
        <ele>45.2</ele>
        <time>2025-01-16T08:42:39Z</time>
      </trkpt>
      <trkpt lat="47.58867" lon="-2.2998">
        <ele>45.1</ele>
        <time>2025-01-16T08:42:40Z</time>
      </trkpt>
      <trkpt lat="47.58867" lon="-2.29978">
        <ele>45</ele>
        <time>2025-01-16T08:42:41Z</time>
      </trkpt>
      <trkpt lat="47.58867" lon="-2.29976">
        <ele>45</ele>
        <time>2025-01-16T08:42:42Z</time>
      </trkpt>
      <trkpt lat="47.58867" lon="-2.29974">
        <ele>44.9</ele>
        <time>2025-01-16T08:42:43Z</time>
      </trkpt>
      <trkpt lat="47.58867" lon="-2.29972">
        <ele>44.8</ele>
        <time>2025-01-16T08:42:44Z</time>
      </trkpt>
      <trkpt lat="47.58866" lon="-2.2997">
        <ele>44.7</ele>
        <time>2025-01-16T08:42:45Z</time>
      </trkpt>
      <trkpt lat="47.58866" lon="-2.29969">
        <ele>44.6</ele>
        <time>2025-01-16T08:42:46Z</time>
      </trkpt>
      <trkpt lat="47.58866" lon="-2.29967">
        <ele>44.5</ele>
        <time>2025-01-16T08:42:47Z</time>
      </trkpt>
      <trkpt lat="47.58865" lon="-2.29965">
        <ele>44.5</ele>
        <time>2025-01-16T08:42:48Z</time>
      </trkpt>
      <trkpt lat="47.58865" lon="-2.29963">
        <ele>44.3</ele>
        <time>2025-01-16T08:42:49Z</time>
      </trkpt>
      <trkpt lat="47.58865" lon="-2.29961">
        <ele>44.2</ele>
        <time>2025-01-16T08:42:50Z</time>
      </trkpt>
      <trkpt lat="47.58864" lon="-2.29959">
        <ele>44.2</ele>
        <time>2025-01-16T08:42:51Z</time>
      </trkpt>
      <trkpt lat="47.58864" lon="-2.29958">
        <ele>44.2</ele>
        <time>2025-01-16T08:42:52Z</time>
      </trkpt>
      <trkpt lat="47.58864" lon="-2.29956">
        <ele>44.1</ele>
        <time>2025-01-16T08:42:53Z</time>
      </trkpt>
      <trkpt lat="47.58863" lon="-2.29955">
        <ele>44.1</ele>
        <time>2025-01-16T08:42:54Z</time>
      </trkpt>
      <trkpt lat="47.58863" lon="-2.29953">
        <ele>44.1</ele>
        <time>2025-01-16T08:42:55Z</time>
      </trkpt>
      <trkpt lat="47.58862" lon="-2.29951">
        <ele>44.1</ele>
        <time>2025-01-16T08:42:56Z</time>
      </trkpt>
      <trkpt lat="47.58862" lon="-2.2995">
        <ele>44.1</ele>
        <time>2025-01-16T08:42:57Z</time>
      </trkpt>
      <trkpt lat="47.58861" lon="-2.29948">
        <ele>44.1</ele>
        <time>2025-01-16T08:42:58Z</time>
      </trkpt>
      <trkpt lat="47.58861" lon="-2.29946">
        <ele>44.1</ele>
        <time>2025-01-16T08:42:59Z</time>
      </trkpt>
      <trkpt lat="47.58861" lon="-2.29944">
        <ele>44</ele>
        <time>2025-01-16T08:43:00Z</time>
      </trkpt>
      <trkpt lat="47.5886" lon="-2.29942">
        <ele>43.9</ele>
        <time>2025-01-16T08:43:01Z</time>
      </trkpt>
      <trkpt lat="47.5886" lon="-2.29941">
        <ele>43.8</ele>
        <time>2025-01-16T08:43:02Z</time>
      </trkpt>
      <trkpt lat="47.5886" lon="-2.2994">
        <ele>43.7</ele>
        <time>2025-01-16T08:43:03Z</time>
      </trkpt>
      <trkpt lat="47.5886" lon="-2.29938">
        <ele>43.6</ele>
        <time>2025-01-16T08:43:04Z</time>
      </trkpt>
      <trkpt lat="47.58861" lon="-2.29936">
        <ele>43.4</ele>
        <time>2025-01-16T08:43:05Z</time>
      </trkpt>
      <trkpt lat="47.5886" lon="-2.29935">
        <ele>43.4</ele>
        <time>2025-01-16T08:43:06Z</time>
      </trkpt>
      <trkpt lat="47.5886" lon="-2.29933">
        <ele>43.2</ele>
        <time>2025-01-16T08:43:07Z</time>
      </trkpt>
      <trkpt lat="47.58859" lon="-2.29932">
        <ele>43.2</ele>
        <time>2025-01-16T08:43:08Z</time>
      </trkpt>
      <trkpt lat="47.58859" lon="-2.2993">
        <ele>43.1</ele>
        <time>2025-01-16T08:43:09Z</time>
      </trkpt>
      <trkpt lat="47.58859" lon="-2.29929">
        <ele>43</ele>
        <time>2025-01-16T08:43:10Z</time>
      </trkpt>
      <trkpt lat="47.58859" lon="-2.29928">
        <ele>43</ele>
        <time>2025-01-16T08:43:11Z</time>
      </trkpt>
      <trkpt lat="47.58859" lon="-2.29926">
        <ele>42.8</ele>
        <time>2025-01-16T08:43:12Z</time>
      </trkpt>
      <trkpt lat="47.58859" lon="-2.29925">
        <ele>42.8</ele>
        <time>2025-01-16T08:43:13Z</time>
      </trkpt>
      <trkpt lat="47.58859" lon="-2.29923">
        <ele>42.6</ele>
        <time>2025-01-16T08:43:14Z</time>
      </trkpt>
      <trkpt lat="47.58858" lon="-2.29921">
        <ele>42.6</ele>
        <time>2025-01-16T08:43:15Z</time>
      </trkpt>
      <trkpt lat="47.58858" lon="-2.2992">
        <ele>42.5</ele>
        <time>2025-01-16T08:43:16Z</time>
      </trkpt>
      <trkpt lat="47.58858" lon="-2.29918">
        <ele>42.4</ele>
        <time>2025-01-16T08:43:17Z</time>
      </trkpt>
      <trkpt lat="47.58858" lon="-2.29917">
        <ele>42.4</ele>
        <time>2025-01-16T08:43:18Z</time>
      </trkpt>
      <trkpt lat="47.58857" lon="-2.29915">
        <ele>42.3</ele>
        <time>2025-01-16T08:43:19Z</time>
      </trkpt>
      <trkpt lat="47.58856" lon="-2.29914">
        <ele>42.4</ele>
        <time>2025-01-16T08:43:20Z</time>
      </trkpt>
      <trkpt lat="47.58856" lon="-2.29913">
        <ele>42.3</ele>
        <time>2025-01-16T08:43:21Z</time>
      </trkpt>
      <trkpt lat="47.58855" lon="-2.29911">
        <ele>42.3</ele>
        <time>2025-01-16T08:43:22Z</time>
      </trkpt>
      <trkpt lat="47.58854" lon="-2.2991">
        <ele>42.3</ele>
        <time>2025-01-16T08:43:23Z</time>
      </trkpt>
      <trkpt lat="47.58853" lon="-2.29909">
        <ele>42.4</ele>
        <time>2025-01-16T08:43:24Z</time>
      </trkpt>
      <trkpt lat="47.58852" lon="-2.29908">
        <ele>42.5</ele>
        <time>2025-01-16T08:43:25Z</time>
      </trkpt>
      <trkpt lat="47.58851" lon="-2.29906">
        <ele>42.5</ele>
        <time>2025-01-16T08:43:26Z</time>
      </trkpt>
      <trkpt lat="47.5885" lon="-2.29905">
        <ele>42.5</ele>
        <time>2025-01-16T08:43:27Z</time>
      </trkpt>
      <trkpt lat="47.58849" lon="-2.29904">
        <ele>42.6</ele>
        <time>2025-01-16T08:43:28Z</time>
      </trkpt>
      <trkpt lat="47.58849" lon="-2.29903">
        <ele>42.5</ele>
        <time>2025-01-16T08:43:29Z</time>
      </trkpt>
      <trkpt lat="47.58848" lon="-2.29901">
        <ele>42.6</ele>
        <time>2025-01-16T08:43:30Z</time>
      </trkpt>
      <trkpt lat="47.58847" lon="-2.299">
        <ele>42.6</ele>
        <time>2025-01-16T08:43:31Z</time>
      </trkpt>
      <trkpt lat="47.58847" lon="-2.29899">
        <ele>42.6</ele>
        <time>2025-01-16T08:43:32Z</time>
      </trkpt>
      <trkpt lat="47.58846" lon="-2.29898">
        <ele>42.7</ele>
        <time>2025-01-16T08:43:33Z</time>
      </trkpt>
      <trkpt lat="47.58845" lon="-2.29897">
        <ele>42.7</ele>
        <time>2025-01-16T08:43:34Z</time>
      </trkpt>
      <trkpt lat="47.58845" lon="-2.29896">
        <ele>42.7</ele>
        <time>2025-01-16T08:43:35Z</time>
      </trkpt>
      <trkpt lat="47.58844" lon="-2.29895">
        <ele>42.8</ele>
        <time>2025-01-16T08:43:36Z</time>
      </trkpt>
      <trkpt lat="47.58844" lon="-2.29894">
        <ele>42.7</ele>
        <time>2025-01-16T08:43:37Z</time>
      </trkpt>
      <trkpt lat="47.58844" lon="-2.29893">
        <ele>42.7</ele>
        <time>2025-01-16T08:43:38Z</time>
      </trkpt>
      <trkpt lat="47.58843" lon="-2.29891">
        <ele>42.7</ele>
        <time>2025-01-16T08:43:39Z</time>
      </trkpt>
      <trkpt lat="47.58843" lon="-2.2989">
        <ele>42.7</ele>
        <time>2025-01-16T08:43:40Z</time>
      </trkpt>
      <trkpt lat="47.58842" lon="-2.29888">
        <ele>42.7</ele>
        <time>2025-01-16T08:43:41Z</time>
      </trkpt>
      <trkpt lat="47.58842" lon="-2.29887">
        <ele>42.7</ele>
        <time>2025-01-16T08:43:42Z</time>
      </trkpt>
      <trkpt lat="47.58842" lon="-2.29885">
        <ele>42.7</ele>
        <time>2025-01-16T08:43:43Z</time>
      </trkpt>
      <trkpt lat="47.58842" lon="-2.29883">
        <ele>42.6</ele>
        <time>2025-01-16T08:43:44Z</time>
      </trkpt>
      <trkpt lat="47.58841" lon="-2.29881">
        <ele>42.7</ele>
        <time>2025-01-16T08:43:45Z</time>
      </trkpt>
      <trkpt lat="47.58841" lon="-2.29879">
        <ele>42.7</ele>
        <time>2025-01-16T08:43:46Z</time>
      </trkpt>
      <trkpt lat="47.58841" lon="-2.29878">
        <ele>42.7</ele>
        <time>2025-01-16T08:43:47Z</time>
      </trkpt>
      <trkpt lat="47.58841" lon="-2.29876">
        <ele>42.6</ele>
        <time>2025-01-16T08:43:48Z</time>
      </trkpt>
      <trkpt lat="47.58841" lon="-2.29875">
        <ele>42.6</ele>
        <time>2025-01-16T08:43:49Z</time>
      </trkpt>
      <trkpt lat="47.5884" lon="-2.29874">
        <ele>42.8</ele>
        <time>2025-01-16T08:43:50Z</time>
      </trkpt>
      <trkpt lat="47.5884" lon="-2.29872">
        <ele>42.7</ele>
        <time>2025-01-16T08:43:51Z</time>
      </trkpt>
      <trkpt lat="47.5884" lon="-2.29871">
        <ele>42.7</ele>
        <time>2025-01-16T08:43:52Z</time>
      </trkpt>
      <trkpt lat="47.5884" lon="-2.29869">
        <ele>42.7</ele>
        <time>2025-01-16T08:43:53Z</time>
      </trkpt>
      <trkpt lat="47.5884" lon="-2.29868">
        <ele>42.7</ele>
        <time>2025-01-16T08:43:54Z</time>
      </trkpt>
      <trkpt lat="47.58839" lon="-2.29866">
        <ele>42.8</ele>
        <time>2025-01-16T08:43:55Z</time>
      </trkpt>
      <trkpt lat="47.58839" lon="-2.29865">
        <ele>42.8</ele>
        <time>2025-01-16T08:43:56Z</time>
      </trkpt>
      <trkpt lat="47.58839" lon="-2.29863">
        <ele>42.8</ele>
        <time>2025-01-16T08:43:57Z</time>
      </trkpt>
      <trkpt lat="47.58838" lon="-2.29862">
        <ele>43</ele>
        <time>2025-01-16T08:43:58Z</time>
      </trkpt>
      <trkpt lat="47.58838" lon="-2.2986">
        <ele>43</ele>
        <time>2025-01-16T08:43:59Z</time>
      </trkpt>
      <trkpt lat="47.58837" lon="-2.29859">
        <ele>43.2</ele>
        <time>2025-01-16T08:44:00Z</time>
      </trkpt>
      <trkpt lat="47.58837" lon="-2.29857">
        <ele>43.2</ele>
        <time>2025-01-16T08:44:01Z</time>
      </trkpt>
      <trkpt lat="47.58836" lon="-2.29855">
        <ele>43.4</ele>
        <time>2025-01-16T08:44:02Z</time>
      </trkpt>
      <trkpt lat="47.58836" lon="-2.29853">
        <ele>43.4</ele>
        <time>2025-01-16T08:44:03Z</time>
      </trkpt>
      <trkpt lat="47.58837" lon="-2.29852">
        <ele>43.1</ele>
        <time>2025-01-16T08:44:04Z</time>
      </trkpt>
      <trkpt lat="47.58837" lon="-2.29851">
        <ele>43.1</ele>
        <time>2025-01-16T08:44:05Z</time>
      </trkpt>
      <trkpt lat="47.58838" lon="-2.29849">
        <ele>42.8</ele>
        <time>2025-01-16T08:44:06Z</time>
      </trkpt>
      <trkpt lat="47.58839" lon="-2.29848">
        <ele>42.6</ele>
        <time>2025-01-16T08:44:07Z</time>
      </trkpt>
      <trkpt lat="47.58839" lon="-2.29846">
        <ele>42.6</ele>
        <time>2025-01-16T08:44:08Z</time>
      </trkpt>
      <trkpt lat="47.58839" lon="-2.29845">
        <ele>42.5</ele>
        <time>2025-01-16T08:44:09Z</time>
      </trkpt>
      <trkpt lat="47.58839" lon="-2.29843">
        <ele>42.5</ele>
        <time>2025-01-16T08:44:10Z</time>
      </trkpt>
      <trkpt lat="47.58839" lon="-2.29842">
        <ele>42.5</ele>
        <time>2025-01-16T08:44:11Z</time>
      </trkpt>
      <trkpt lat="47.58839" lon="-2.2984">
        <ele>42.5</ele>
        <time>2025-01-16T08:44:12Z</time>
      </trkpt>
      <trkpt lat="47.58839" lon="-2.29839">
        <ele>42.5</ele>
        <time>2025-01-16T08:44:13Z</time>
      </trkpt>
      <trkpt lat="47.5884" lon="-2.29838">
        <ele>42.2</ele>
        <time>2025-01-16T08:44:14Z</time>
      </trkpt>
      <trkpt lat="47.5884" lon="-2.29837">
        <ele>42.1</ele>
        <time>2025-01-16T08:44:15Z</time>
      </trkpt>
      <trkpt lat="47.5884" lon="-2.29835">
        <ele>42.1</ele>
        <time>2025-01-16T08:44:16Z</time>
      </trkpt>
      <trkpt lat="47.58841" lon="-2.29834">
        <ele>41.8</ele>
        <time>2025-01-16T08:44:17Z</time>
      </trkpt>
      <trkpt lat="47.5884" lon="-2.29832">
        <ele>42.1</ele>
        <time>2025-01-16T08:44:18Z</time>
      </trkpt>
      <trkpt lat="47.58839" lon="-2.2983">
        <ele>42.4</ele>
        <time>2025-01-16T08:44:19Z</time>
      </trkpt>
      <trkpt lat="47.58839" lon="-2.29828">
        <ele>42.4</ele>
        <time>2025-01-16T08:44:20Z</time>
      </trkpt>
      <trkpt lat="47.58838" lon="-2.29826">
        <ele>42.7</ele>
        <time>2025-01-16T08:44:21Z</time>
      </trkpt>
      <trkpt lat="47.58837" lon="-2.29823">
        <ele>42.9</ele>
        <time>2025-01-16T08:44:22Z</time>
      </trkpt>
      <trkpt lat="47.58837" lon="-2.29821">
        <ele>42.9</ele>
        <time>2025-01-16T08:44:23Z</time>
      </trkpt>
      <trkpt lat="47.58836" lon="-2.29819">
        <ele>43.2</ele>
        <time>2025-01-16T08:44:24Z</time>
      </trkpt>
      <trkpt lat="47.58836" lon="-2.29816">
        <ele>43.2</ele>
        <time>2025-01-16T08:44:25Z</time>
      </trkpt>
      <trkpt lat="47.58836" lon="-2.29814">
        <ele>43.2</ele>
        <time>2025-01-16T08:44:26Z</time>
      </trkpt>
      <trkpt lat="47.58836" lon="-2.29813">
        <ele>43.2</ele>
        <time>2025-01-16T08:44:27Z</time>
      </trkpt>
      <trkpt lat="47.58836" lon="-2.29811">
        <ele>43.2</ele>
        <time>2025-01-16T08:44:28Z</time>
      </trkpt>
      <trkpt lat="47.58836" lon="-2.29809">
        <ele>43.2</ele>
        <time>2025-01-16T08:44:29Z</time>
      </trkpt>
      <trkpt lat="47.58836" lon="-2.29808">
        <ele>43.2</ele>
        <time>2025-01-16T08:44:30Z</time>
      </trkpt>
      <trkpt lat="47.58836" lon="-2.29806">
        <ele>43.2</ele>
        <time>2025-01-16T08:44:31Z</time>
      </trkpt>
      <trkpt lat="47.58835" lon="-2.29804">
        <ele>43.5</ele>
        <time>2025-01-16T08:44:32Z</time>
      </trkpt>
      <trkpt lat="47.58835" lon="-2.29803">
        <ele>43.4</ele>
        <time>2025-01-16T08:44:33Z</time>
      </trkpt>
      <trkpt lat="47.58834" lon="-2.29801">
        <ele>43.6</ele>
        <time>2025-01-16T08:44:34Z</time>
      </trkpt>
      <trkpt lat="47.58833" lon="-2.29799">
        <ele>43.8</ele>
        <time>2025-01-16T08:44:35Z</time>
      </trkpt>
      <trkpt lat="47.58832" lon="-2.29798">
        <ele>43.8</ele>
        <time>2025-01-16T08:44:36Z</time>
      </trkpt>
      <trkpt lat="47.58832" lon="-2.29797">
        <ele>43.8</ele>
        <time>2025-01-16T08:44:37Z</time>
      </trkpt>
      <trkpt lat="47.58832" lon="-2.29796">
        <ele>43.8</ele>
        <time>2025-01-16T08:44:38Z</time>
      </trkpt>
      <trkpt lat="47.58831" lon="-2.29795">
        <ele>43.8</ele>
        <time>2025-01-16T08:44:39Z</time>
      </trkpt>
      <trkpt lat="47.58831" lon="-2.29794">
        <ele>43.8</ele>
        <time>2025-01-16T08:44:40Z</time>
      </trkpt>
      <trkpt lat="47.5883" lon="-2.29793">
        <ele>43.8</ele>
        <time>2025-01-16T08:44:41Z</time>
      </trkpt>
      <trkpt lat="47.5883" lon="-2.29792">
        <ele>43.8</ele>
        <time>2025-01-16T08:44:42Z</time>
      </trkpt>
      <trkpt lat="47.58829" lon="-2.29791">
        <ele>43.9</ele>
        <time>2025-01-16T08:44:43Z</time>
      </trkpt>
      <trkpt lat="47.58829" lon="-2.29789">
        <ele>43.8</ele>
        <time>2025-01-16T08:44:44Z</time>
      </trkpt>
      <trkpt lat="47.58829" lon="-2.29788">
        <ele>43.8</ele>
        <time>2025-01-16T08:44:45Z</time>
      </trkpt>
      <trkpt lat="47.58828" lon="-2.29787">
        <ele>43.8</ele>
        <time>2025-01-16T08:44:46Z</time>
      </trkpt>
      <trkpt lat="47.58826" lon="-2.29786">
        <ele>44</ele>
        <time>2025-01-16T08:44:47Z</time>
      </trkpt>
      <trkpt lat="47.58825" lon="-2.29785">
        <ele>44.1</ele>
        <time>2025-01-16T08:44:48Z</time>
      </trkpt>
      <trkpt lat="47.58824" lon="-2.29783">
        <ele>44.1</ele>
        <time>2025-01-16T08:44:49Z</time>
      </trkpt>
      <trkpt lat="47.58823" lon="-2.29782">
        <ele>44.2</ele>
        <time>2025-01-16T08:44:50Z</time>
      </trkpt>
      <trkpt lat="47.58822" lon="-2.2978">
        <ele>44.3</ele>
        <time>2025-01-16T08:44:51Z</time>
      </trkpt>
      <trkpt lat="47.58821" lon="-2.29779">
        <ele>44.4</ele>
        <time>2025-01-16T08:44:52Z</time>
      </trkpt>
      <trkpt lat="47.58821" lon="-2.29779">
        <ele>44.4</ele>
        <time>2025-01-16T08:44:53Z</time>
      </trkpt>
      <trkpt lat="47.58821" lon="-2.29778">
        <ele>44.3</ele>
        <time>2025-01-16T08:44:54Z</time>
      </trkpt>
      <trkpt lat="47.58819" lon="-2.29777">
        <ele>44.5</ele>
        <time>2025-01-16T08:44:55Z</time>
      </trkpt>
      <trkpt lat="47.58818" lon="-2.29777">
        <ele>44.6</ele>
        <time>2025-01-16T08:44:56Z</time>
      </trkpt>
      <trkpt lat="47.58818" lon="-2.29776">
        <ele>44.4</ele>
        <time>2025-01-16T08:44:57Z</time>
      </trkpt>
      <trkpt lat="47.58816" lon="-2.29775">
        <ele>44.6</ele>
        <time>2025-01-16T08:44:58Z</time>
      </trkpt>
      <trkpt lat="47.58814" lon="-2.29774">
        <ele>44.7</ele>
        <time>2025-01-16T08:44:59Z</time>
      </trkpt>
      <trkpt lat="47.58813" lon="-2.29773">
        <ele>44.7</ele>
        <time>2025-01-16T08:45:00Z</time>
      </trkpt>
      <trkpt lat="47.58811" lon="-2.29773">
        <ele>45</ele>
        <time>2025-01-16T08:45:01Z</time>
      </trkpt>
      <trkpt lat="47.5881" lon="-2.29772">
        <ele>45</ele>
        <time>2025-01-16T08:45:02Z</time>
      </trkpt>
      <trkpt lat="47.58809" lon="-2.29771">
        <ele>45</ele>
        <time>2025-01-16T08:45:03Z</time>
      </trkpt>
      <trkpt lat="47.58808" lon="-2.2977">
        <ele>45.1</ele>
        <time>2025-01-16T08:45:04Z</time>
      </trkpt>
      <trkpt lat="47.58807" lon="-2.29769">
        <ele>45.2</ele>
        <time>2025-01-16T08:45:05Z</time>
      </trkpt>
      <trkpt lat="47.58806" lon="-2.29769">
        <ele>45.3</ele>
        <time>2025-01-16T08:45:06Z</time>
      </trkpt>
      <trkpt lat="47.58805" lon="-2.29768">
        <ele>45.4</ele>
        <time>2025-01-16T08:45:07Z</time>
      </trkpt>
      <trkpt lat="47.58804" lon="-2.29767">
        <ele>45.4</ele>
        <time>2025-01-16T08:45:08Z</time>
      </trkpt>
      <trkpt lat="47.58803" lon="-2.29767">
        <ele>45.5</ele>
        <time>2025-01-16T08:45:09Z</time>
      </trkpt>
      <trkpt lat="47.58802" lon="-2.29766">
        <ele>45.5</ele>
        <time>2025-01-16T08:45:10Z</time>
      </trkpt>
      <trkpt lat="47.58801" lon="-2.29765">
        <ele>45.6</ele>
        <time>2025-01-16T08:45:11Z</time>
      </trkpt>
      <trkpt lat="47.588" lon="-2.29764">
        <ele>45.6</ele>
        <time>2025-01-16T08:45:12Z</time>
      </trkpt>
      <trkpt lat="47.588" lon="-2.29764">
        <ele>45.6</ele>
        <time>2025-01-16T08:45:13Z</time>
      </trkpt>
      <trkpt lat="47.58799" lon="-2.29763">
        <ele>45.7</ele>
        <time>2025-01-16T08:45:14Z</time>
      </trkpt>
      <trkpt lat="47.58799" lon="-2.29763">
        <ele>45.7</ele>
        <time>2025-01-16T08:45:15Z</time>
      </trkpt>
      <trkpt lat="47.58798" lon="-2.29762">
        <ele>45.7</ele>
        <time>2025-01-16T08:45:16Z</time>
      </trkpt>
      <trkpt lat="47.58798" lon="-2.29762">
        <ele>45.7</ele>
        <time>2025-01-16T08:45:17Z</time>
      </trkpt>
      <trkpt lat="47.58797" lon="-2.29761">
        <ele>45.8</ele>
        <time>2025-01-16T08:45:18Z</time>
      </trkpt>
      <trkpt lat="47.58796" lon="-2.29761">
        <ele>45.9</ele>
        <time>2025-01-16T08:45:19Z</time>
      </trkpt>
      <trkpt lat="47.58796" lon="-2.2976">
        <ele>45.8</ele>
        <time>2025-01-16T08:45:20Z</time>
      </trkpt>
      <trkpt lat="47.58795" lon="-2.2976">
        <ele>46</ele>
        <time>2025-01-16T08:45:21Z</time>
      </trkpt>
      <trkpt lat="47.58793" lon="-2.29759">
        <ele>46.2</ele>
        <time>2025-01-16T08:45:22Z</time>
      </trkpt>
      <trkpt lat="47.58792" lon="-2.29758">
        <ele>46.2</ele>
        <time>2025-01-16T08:45:23Z</time>
      </trkpt>
      <trkpt lat="47.5879" lon="-2.29758">
        <ele>46.5</ele>
        <time>2025-01-16T08:45:24Z</time>
      </trkpt>
      <trkpt lat="47.58789" lon="-2.29757">
        <ele>46.6</ele>
        <time>2025-01-16T08:45:25Z</time>
      </trkpt>
      <trkpt lat="47.58788" lon="-2.29757">
        <ele>46.7</ele>
        <time>2025-01-16T08:45:26Z</time>
      </trkpt>
      <trkpt lat="47.58786" lon="-2.29756">
        <ele>46.9</ele>
        <time>2025-01-16T08:45:27Z</time>
      </trkpt>
      <trkpt lat="47.58785" lon="-2.29755">
        <ele>47.1</ele>
        <time>2025-01-16T08:45:28Z</time>
      </trkpt>
      <trkpt lat="47.58785" lon="-2.29755">
        <ele>47.1</ele>
        <time>2025-01-16T08:45:29Z</time>
      </trkpt>
      <trkpt lat="47.58785" lon="-2.29754">
        <ele>47</ele>
        <time>2025-01-16T08:45:30Z</time>
      </trkpt>
      <trkpt lat="47.58784" lon="-2.29754">
        <ele>47.2</ele>
        <time>2025-01-16T08:45:31Z</time>
      </trkpt>
      <trkpt lat="47.58783" lon="-2.29753">
        <ele>47.3</ele>
        <time>2025-01-16T08:45:32Z</time>
      </trkpt>
      <trkpt lat="47.58782" lon="-2.29752">
        <ele>47.4</ele>
        <time>2025-01-16T08:45:33Z</time>
      </trkpt>
      <trkpt lat="47.5878" lon="-2.29751">
        <ele>47.7</ele>
        <time>2025-01-16T08:45:34Z</time>
      </trkpt>
      <trkpt lat="47.58779" lon="-2.2975">
        <ele>47.8</ele>
        <time>2025-01-16T08:45:35Z</time>
      </trkpt>
      <trkpt lat="47.58777" lon="-2.29749">
        <ele>47.9</ele>
        <time>2025-01-16T08:45:36Z</time>
      </trkpt>
      <trkpt lat="47.58776" lon="-2.29749">
        <ele>47.9</ele>
        <time>2025-01-16T08:45:37Z</time>
      </trkpt>
      <trkpt lat="47.58775" lon="-2.29748">
        <ele>47.8</ele>
        <time>2025-01-16T08:45:38Z</time>
      </trkpt>
      <trkpt lat="47.58773" lon="-2.29747">
        <ele>47.7</ele>
        <time>2025-01-16T08:45:39Z</time>
      </trkpt>
      <trkpt lat="47.58773" lon="-2.29746">
        <ele>47.6</ele>
        <time>2025-01-16T08:45:40Z</time>
      </trkpt>
      <trkpt lat="47.58772" lon="-2.29746">
        <ele>47.6</ele>
        <time>2025-01-16T08:45:41Z</time>
      </trkpt>
      <trkpt lat="47.5877" lon="-2.29744">
        <ele>47.4</ele>
        <time>2025-01-16T08:45:42Z</time>
      </trkpt>
      <trkpt lat="47.58768" lon="-2.29742">
        <ele>47.3</ele>
        <time>2025-01-16T08:45:43Z</time>
      </trkpt>
      <trkpt lat="47.58767" lon="-2.29741">
        <ele>47.3</ele>
        <time>2025-01-16T08:45:44Z</time>
      </trkpt>
      <trkpt lat="47.58765" lon="-2.29739">
        <ele>47.2</ele>
        <time>2025-01-16T08:45:45Z</time>
      </trkpt>
      <trkpt lat="47.58764" lon="-2.29738">
        <ele>47.2</ele>
        <time>2025-01-16T08:45:46Z</time>
      </trkpt>
      <trkpt lat="47.58763" lon="-2.29737">
        <ele>47.2</ele>
        <time>2025-01-16T08:45:47Z</time>
      </trkpt>
      <trkpt lat="47.58761" lon="-2.29735">
        <ele>47.2</ele>
        <time>2025-01-16T08:45:48Z</time>
      </trkpt>
      <trkpt lat="47.5876" lon="-2.29734">
        <ele>47.2</ele>
        <time>2025-01-16T08:45:49Z</time>
      </trkpt>
      <trkpt lat="47.58759" lon="-2.29733">
        <ele>47.3</ele>
        <time>2025-01-16T08:45:50Z</time>
      </trkpt>
      <trkpt lat="47.58758" lon="-2.29732">
        <ele>47.3</ele>
        <time>2025-01-16T08:45:51Z</time>
      </trkpt>
      <trkpt lat="47.58756" lon="-2.2973">
        <ele>47.4</ele>
        <time>2025-01-16T08:45:52Z</time>
      </trkpt>
      <trkpt lat="47.58755" lon="-2.29729">
        <ele>47.5</ele>
        <time>2025-01-16T08:45:53Z</time>
      </trkpt>
      <trkpt lat="47.58754" lon="-2.29728">
        <ele>47.6</ele>
        <time>2025-01-16T08:45:54Z</time>
      </trkpt>
      <trkpt lat="47.58753" lon="-2.29726">
        <ele>47.7</ele>
        <time>2025-01-16T08:45:55Z</time>
      </trkpt>
      <trkpt lat="47.58752" lon="-2.29725">
        <ele>47.8</ele>
        <time>2025-01-16T08:45:56Z</time>
      </trkpt>
      <trkpt lat="47.58751" lon="-2.29724">
        <ele>47.9</ele>
        <time>2025-01-16T08:45:57Z</time>
      </trkpt>
      <trkpt lat="47.5875" lon="-2.29723">
        <ele>48</ele>
        <time>2025-01-16T08:45:58Z</time>
      </trkpt>
      <trkpt lat="47.5875" lon="-2.29722">
        <ele>48</ele>
        <time>2025-01-16T08:45:59Z</time>
      </trkpt>
      <trkpt lat="47.58749" lon="-2.29721">
        <ele>47.8</ele>
        <time>2025-01-16T08:46:00Z</time>
      </trkpt>
      <trkpt lat="47.58748" lon="-2.29719">
        <ele>47.5</ele>
        <time>2025-01-16T08:46:01Z</time>
      </trkpt>
      <trkpt lat="47.58748" lon="-2.29718">
        <ele>47.3</ele>
        <time>2025-01-16T08:46:02Z</time>
      </trkpt>
      <trkpt lat="47.58747" lon="-2.29717">
        <ele>47.2</ele>
        <time>2025-01-16T08:46:03Z</time>
      </trkpt>
      <trkpt lat="47.58746" lon="-2.29717">
        <ele>47.3</ele>
        <time>2025-01-16T08:46:04Z</time>
      </trkpt>
      <trkpt lat="47.58745" lon="-2.29716">
        <ele>47.2</ele>
        <time>2025-01-16T08:46:05Z</time>
      </trkpt>
      <trkpt lat="47.58743" lon="-2.29715">
        <ele>47.2</ele>
        <time>2025-01-16T08:46:06Z</time>
      </trkpt>
      <trkpt lat="47.58742" lon="-2.29714">
        <ele>47.1</ele>
        <time>2025-01-16T08:46:07Z</time>
      </trkpt>
      <trkpt lat="47.5874" lon="-2.29714">
        <ele>47.4</ele>
        <time>2025-01-16T08:46:08Z</time>
      </trkpt>
      <trkpt lat="47.58739" lon="-2.29713">
        <ele>47.3</ele>
        <time>2025-01-16T08:46:09Z</time>
      </trkpt>
      <trkpt lat="47.58738" lon="-2.29712">
        <ele>47.3</ele>
        <time>2025-01-16T08:46:10Z</time>
      </trkpt>
      <trkpt lat="47.58736" lon="-2.29711">
        <ele>47.4</ele>
        <time>2025-01-16T08:46:11Z</time>
      </trkpt>
      <trkpt lat="47.58735" lon="-2.2971">
        <ele>47.4</ele>
        <time>2025-01-16T08:46:12Z</time>
      </trkpt>
      <trkpt lat="47.58734" lon="-2.29709">
        <ele>47.4</ele>
        <time>2025-01-16T08:46:13Z</time>
      </trkpt>
      <trkpt lat="47.58732" lon="-2.29709">
        <ele>47.7</ele>
        <time>2025-01-16T08:46:14Z</time>
      </trkpt>
      <trkpt lat="47.58731" lon="-2.29708">
        <ele>47.7</ele>
        <time>2025-01-16T08:46:15Z</time>
      </trkpt>
      <trkpt lat="47.5873" lon="-2.29708">
        <ele>47.8</ele>
        <time>2025-01-16T08:46:16Z</time>
      </trkpt>
      <trkpt lat="47.58729" lon="-2.29707">
        <ele>47.9</ele>
        <time>2025-01-16T08:46:17Z</time>
      </trkpt>
      <trkpt lat="47.58728" lon="-2.29707">
        <ele>48</ele>
        <time>2025-01-16T08:46:18Z</time>
      </trkpt>
      <trkpt lat="47.58726" lon="-2.29707">
        <ele>48.3</ele>
        <time>2025-01-16T08:46:19Z</time>
      </trkpt>
      <trkpt lat="47.58725" lon="-2.29707">
        <ele>48.5</ele>
        <time>2025-01-16T08:46:20Z</time>
      </trkpt>
      <trkpt lat="47.58723" lon="-2.29706">
        <ele>48.7</ele>
        <time>2025-01-16T08:46:21Z</time>
      </trkpt>
      <trkpt lat="47.58722" lon="-2.29705">
        <ele>48.8</ele>
        <time>2025-01-16T08:46:22Z</time>
      </trkpt>
      <trkpt lat="47.5872" lon="-2.29704">
        <ele>48.9</ele>
        <time>2025-01-16T08:46:23Z</time>
      </trkpt>
      <trkpt lat="47.58719" lon="-2.29703">
        <ele>48.9</ele>
        <time>2025-01-16T08:46:24Z</time>
      </trkpt>
      <trkpt lat="47.58718" lon="-2.29703">
        <ele>49</ele>
        <time>2025-01-16T08:46:25Z</time>
      </trkpt>
      <trkpt lat="47.58718" lon="-2.29702">
        <ele>48.9</ele>
        <time>2025-01-16T08:46:26Z</time>
      </trkpt>
      <trkpt lat="47.58717" lon="-2.29701">
        <ele>48.9</ele>
        <time>2025-01-16T08:46:27Z</time>
      </trkpt>
      <trkpt lat="47.58716" lon="-2.297">
        <ele>49</ele>
        <time>2025-01-16T08:46:28Z</time>
      </trkpt>
      <trkpt lat="47.58716" lon="-2.29699">
        <ele>48.9</ele>
        <time>2025-01-16T08:46:29Z</time>
      </trkpt>
      <trkpt lat="47.58715" lon="-2.29698">
        <ele>49</ele>
        <time>2025-01-16T08:46:30Z</time>
      </trkpt>
      <trkpt lat="47.58715" lon="-2.29696">
        <ele>48.9</ele>
        <time>2025-01-16T08:46:31Z</time>
      </trkpt>
      <trkpt lat="47.58714" lon="-2.29695">
        <ele>48.9</ele>
        <time>2025-01-16T08:46:32Z</time>
      </trkpt>
      <trkpt lat="47.58713" lon="-2.29693">
        <ele>48.8</ele>
        <time>2025-01-16T08:46:33Z</time>
      </trkpt>
      <trkpt lat="47.58712" lon="-2.29693">
        <ele>48.9</ele>
        <time>2025-01-16T08:46:34Z</time>
      </trkpt>
      <trkpt lat="47.58712" lon="-2.29692">
        <ele>48.7</ele>
        <time>2025-01-16T08:46:35Z</time>
      </trkpt>
      <trkpt lat="47.58711" lon="-2.29692">
        <ele>48.8</ele>
        <time>2025-01-16T08:46:36Z</time>
      </trkpt>
      <trkpt lat="47.58711" lon="-2.29691">
        <ele>48.7</ele>
        <time>2025-01-16T08:46:37Z</time>
      </trkpt>
      <trkpt lat="47.5871" lon="-2.29691">
        <ele>48.8</ele>
        <time>2025-01-16T08:46:38Z</time>
      </trkpt>
      <trkpt lat="47.5871" lon="-2.29691">
        <ele>48.8</ele>
        <time>2025-01-16T08:46:39Z</time>
      </trkpt>
      <trkpt lat="47.58709" lon="-2.2969">
        <ele>48.8</ele>
        <time>2025-01-16T08:46:40Z</time>
      </trkpt>
      <trkpt lat="47.58708" lon="-2.29689">
        <ele>48.8</ele>
        <time>2025-01-16T08:46:41Z</time>
      </trkpt>
      <trkpt lat="47.58707" lon="-2.29688">
        <ele>48.8</ele>
        <time>2025-01-16T08:46:42Z</time>
      </trkpt>
      <trkpt lat="47.58706" lon="-2.29686">
        <ele>48.6</ele>
        <time>2025-01-16T08:46:43Z</time>
      </trkpt>
      <trkpt lat="47.58706" lon="-2.29684">
        <ele>48.4</ele>
        <time>2025-01-16T08:46:44Z</time>
      </trkpt>
      <trkpt lat="47.58705" lon="-2.29682">
        <ele>48.3</ele>
        <time>2025-01-16T08:46:45Z</time>
      </trkpt>
      <trkpt lat="47.58705" lon="-2.2968">
        <ele>48</ele>
        <time>2025-01-16T08:46:46Z</time>
      </trkpt>
      <trkpt lat="47.58705" lon="-2.29679">
        <ele>47.9</ele>
        <time>2025-01-16T08:46:47Z</time>
      </trkpt>
      <trkpt lat="47.58704" lon="-2.29678">
        <ele>48</ele>
        <time>2025-01-16T08:46:48Z</time>
      </trkpt>
      <trkpt lat="47.58704" lon="-2.29677">
        <ele>47.8</ele>
        <time>2025-01-16T08:46:49Z</time>
      </trkpt>
      <trkpt lat="47.58703" lon="-2.29677">
        <ele>48</ele>
        <time>2025-01-16T08:46:50Z</time>
      </trkpt>
      <trkpt lat="47.58702" lon="-2.29677">
        <ele>48.2</ele>
        <time>2025-01-16T08:46:51Z</time>
      </trkpt>
      <trkpt lat="47.58701" lon="-2.29676">
        <ele>48.3</ele>
        <time>2025-01-16T08:46:52Z</time>
      </trkpt>
      <trkpt lat="47.587" lon="-2.29675">
        <ele>48.4</ele>
        <time>2025-01-16T08:46:53Z</time>
      </trkpt>
      <trkpt lat="47.587" lon="-2.29674">
        <ele>48.3</ele>
        <time>2025-01-16T08:46:54Z</time>
      </trkpt>
      <trkpt lat="47.58699" lon="-2.29673">
        <ele>48.5</ele>
        <time>2025-01-16T08:46:55Z</time>
      </trkpt>
      <trkpt lat="47.58699" lon="-2.29673">
        <ele>48.5</ele>
        <time>2025-01-16T08:46:56Z</time>
      </trkpt>
      <trkpt lat="47.58699" lon="-2.29672">
        <ele>48.4</ele>
        <time>2025-01-16T08:46:57Z</time>
      </trkpt>
      <trkpt lat="47.58699" lon="-2.29671">
        <ele>48.3</ele>
        <time>2025-01-16T08:46:58Z</time>
      </trkpt>
      <trkpt lat="47.58698" lon="-2.2967">
        <ele>48.4</ele>
        <time>2025-01-16T08:46:59Z</time>
      </trkpt>
      <trkpt lat="47.58697" lon="-2.29669">
        <ele>48.6</ele>
        <time>2025-01-16T08:47:00Z</time>
      </trkpt>
      <trkpt lat="47.58696" lon="-2.29668">
        <ele>48.7</ele>
        <time>2025-01-16T08:47:01Z</time>
      </trkpt>
      <trkpt lat="47.58695" lon="-2.29667">
        <ele>48.9</ele>
        <time>2025-01-16T08:47:02Z</time>
      </trkpt>
      <trkpt lat="47.58694" lon="-2.29666">
        <ele>48.9</ele>
        <time>2025-01-16T08:47:03Z</time>
      </trkpt>
      <trkpt lat="47.58694" lon="-2.29665">
        <ele>48.8</ele>
        <time>2025-01-16T08:47:04Z</time>
      </trkpt>
      <trkpt lat="47.58693" lon="-2.29664">
        <ele>48.8</ele>
        <time>2025-01-16T08:47:05Z</time>
      </trkpt>
      <trkpt lat="47.58693" lon="-2.29662">
        <ele>48.6</ele>
        <time>2025-01-16T08:47:06Z</time>
      </trkpt>
      <trkpt lat="47.58692" lon="-2.29661">
        <ele>48.5</ele>
        <time>2025-01-16T08:47:07Z</time>
      </trkpt>
      <trkpt lat="47.5869" lon="-2.29659">
        <ele>48.4</ele>
        <time>2025-01-16T08:47:08Z</time>
      </trkpt>
      <trkpt lat="47.5869" lon="-2.29658">
        <ele>48.3</ele>
        <time>2025-01-16T08:47:09Z</time>
      </trkpt>
      <trkpt lat="47.58688" lon="-2.29657">
        <ele>48.3</ele>
        <time>2025-01-16T08:47:10Z</time>
      </trkpt>
      <trkpt lat="47.58687" lon="-2.29656">
        <ele>48.2</ele>
        <time>2025-01-16T08:47:11Z</time>
      </trkpt>
      <trkpt lat="47.58686" lon="-2.29656">
        <ele>48.3</ele>
        <time>2025-01-16T08:47:12Z</time>
      </trkpt>
      <trkpt lat="47.58684" lon="-2.29655">
        <ele>48.3</ele>
        <time>2025-01-16T08:47:13Z</time>
      </trkpt>
      <trkpt lat="47.58683" lon="-2.29655">
        <ele>48.3</ele>
        <time>2025-01-16T08:47:14Z</time>
      </trkpt>
      <trkpt lat="47.58681" lon="-2.29654">
        <ele>48.3</ele>
        <time>2025-01-16T08:47:15Z</time>
      </trkpt>
      <trkpt lat="47.5868" lon="-2.29653">
        <ele>48.3</ele>
        <time>2025-01-16T08:47:16Z</time>
      </trkpt>
      <trkpt lat="47.58679" lon="-2.29652">
        <ele>48.3</ele>
        <time>2025-01-16T08:47:17Z</time>
      </trkpt>
      <trkpt lat="47.58679" lon="-2.29651">
        <ele>48.2</ele>
        <time>2025-01-16T08:47:18Z</time>
      </trkpt>
      <trkpt lat="47.58678" lon="-2.29651">
        <ele>48.2</ele>
        <time>2025-01-16T08:47:19Z</time>
      </trkpt>
      <trkpt lat="47.58677" lon="-2.2965">
        <ele>48.2</ele>
        <time>2025-01-16T08:47:20Z</time>
      </trkpt>
      <trkpt lat="47.58676" lon="-2.29649">
        <ele>48.2</ele>
        <time>2025-01-16T08:47:21Z</time>
      </trkpt>
      <trkpt lat="47.58674" lon="-2.29648">
        <ele>48.2</ele>
        <time>2025-01-16T08:47:22Z</time>
      </trkpt>
      <trkpt lat="47.58673" lon="-2.29647">
        <ele>48.2</ele>
        <time>2025-01-16T08:47:23Z</time>
      </trkpt>
      <trkpt lat="47.58672" lon="-2.29646">
        <ele>48.2</ele>
        <time>2025-01-16T08:47:24Z</time>
      </trkpt>
      <trkpt lat="47.58671" lon="-2.29645">
        <ele>48.2</ele>
        <time>2025-01-16T08:47:25Z</time>
      </trkpt>
      <trkpt lat="47.5867" lon="-2.29644">
        <ele>48.2</ele>
        <time>2025-01-16T08:47:26Z</time>
      </trkpt>
      <trkpt lat="47.58669" lon="-2.29643">
        <ele>48.1</ele>
        <time>2025-01-16T08:47:27Z</time>
      </trkpt>
      <trkpt lat="47.58668" lon="-2.29642">
        <ele>48.1</ele>
        <time>2025-01-16T08:47:28Z</time>
      </trkpt>
      <trkpt lat="47.58666" lon="-2.29641">
        <ele>48.2</ele>
        <time>2025-01-16T08:47:29Z</time>
      </trkpt>
      <trkpt lat="47.58665" lon="-2.2964">
        <ele>48.1</ele>
        <time>2025-01-16T08:47:30Z</time>
      </trkpt>
      <trkpt lat="47.58664" lon="-2.29639">
        <ele>48</ele>
        <time>2025-01-16T08:47:31Z</time>
      </trkpt>
      <trkpt lat="47.58663" lon="-2.29638">
        <ele>47.9</ele>
        <time>2025-01-16T08:47:32Z</time>
      </trkpt>
      <trkpt lat="47.58662" lon="-2.29637">
        <ele>47.9</ele>
        <time>2025-01-16T08:47:33Z</time>
      </trkpt>
      <trkpt lat="47.58661" lon="-2.29636">
        <ele>47.8</ele>
        <time>2025-01-16T08:47:34Z</time>
      </trkpt>
      <trkpt lat="47.5866" lon="-2.29635">
        <ele>47.8</ele>
        <time>2025-01-16T08:47:35Z</time>
      </trkpt>
      <trkpt lat="47.58658" lon="-2.29634">
        <ele>47.7</ele>
        <time>2025-01-16T08:47:36Z</time>
      </trkpt>
      <trkpt lat="47.58658" lon="-2.29633">
        <ele>47.6</ele>
        <time>2025-01-16T08:47:37Z</time>
      </trkpt>
      <trkpt lat="47.58657" lon="-2.29632">
        <ele>47.6</ele>
        <time>2025-01-16T08:47:38Z</time>
      </trkpt>
      <trkpt lat="47.58656" lon="-2.29631">
        <ele>47.5</ele>
        <time>2025-01-16T08:47:39Z</time>
      </trkpt>
      <trkpt lat="47.58656" lon="-2.29631">
        <ele>47.5</ele>
        <time>2025-01-16T08:47:40Z</time>
      </trkpt>
      <trkpt lat="47.58655" lon="-2.2963">
        <ele>47.5</ele>
        <time>2025-01-16T08:47:41Z</time>
      </trkpt>
      <trkpt lat="47.58654" lon="-2.29629">
        <ele>47.5</ele>
        <time>2025-01-16T08:47:42Z</time>
      </trkpt>
      <trkpt lat="47.58653" lon="-2.29629">
        <ele>47.5</ele>
        <time>2025-01-16T08:47:43Z</time>
      </trkpt>
      <trkpt lat="47.58651" lon="-2.29628">
        <ele>47.4</ele>
        <time>2025-01-16T08:47:44Z</time>
      </trkpt>
      <trkpt lat="47.5865" lon="-2.29627">
        <ele>47.4</ele>
        <time>2025-01-16T08:47:45Z</time>
      </trkpt>
      <trkpt lat="47.58649" lon="-2.29626">
        <ele>47.4</ele>
        <time>2025-01-16T08:47:46Z</time>
      </trkpt>
      <trkpt lat="47.58647" lon="-2.29624">
        <ele>47.3</ele>
        <time>2025-01-16T08:47:47Z</time>
      </trkpt>
      <trkpt lat="47.58646" lon="-2.29623">
        <ele>47.3</ele>
        <time>2025-01-16T08:47:48Z</time>
      </trkpt>
      <trkpt lat="47.58646" lon="-2.29622">
        <ele>47.2</ele>
        <time>2025-01-16T08:47:49Z</time>
      </trkpt>
      <trkpt lat="47.58645" lon="-2.29622">
        <ele>47.3</ele>
        <time>2025-01-16T08:47:50Z</time>
      </trkpt>
      <trkpt lat="47.58644" lon="-2.29621">
        <ele>47.2</ele>
        <time>2025-01-16T08:47:51Z</time>
      </trkpt>
      <trkpt lat="47.58642" lon="-2.2962">
        <ele>47.2</ele>
        <time>2025-01-16T08:47:52Z</time>
      </trkpt>
      <trkpt lat="47.58642" lon="-2.29619">
        <ele>47.2</ele>
        <time>2025-01-16T08:47:53Z</time>
      </trkpt>
      <trkpt lat="47.58641" lon="-2.29619">
        <ele>47.2</ele>
        <time>2025-01-16T08:47:54Z</time>
      </trkpt>
      <trkpt lat="47.5864" lon="-2.29618">
        <ele>47.2</ele>
        <time>2025-01-16T08:47:55Z</time>
      </trkpt>
      <trkpt lat="47.58639" lon="-2.29617">
        <ele>47.2</ele>
        <time>2025-01-16T08:47:56Z</time>
      </trkpt>
      <trkpt lat="47.58637" lon="-2.29616">
        <ele>47.2</ele>
        <time>2025-01-16T08:47:57Z</time>
      </trkpt>
      <trkpt lat="47.58635" lon="-2.29615">
        <ele>47.1</ele>
        <time>2025-01-16T08:47:58Z</time>
      </trkpt>
      <trkpt lat="47.58633" lon="-2.29614">
        <ele>47.1</ele>
        <time>2025-01-16T08:47:59Z</time>
      </trkpt>
      <trkpt lat="47.58632" lon="-2.29613">
        <ele>47.1</ele>
        <time>2025-01-16T08:48:00Z</time>
      </trkpt>
      <trkpt lat="47.5863" lon="-2.29612">
        <ele>47</ele>
        <time>2025-01-16T08:48:01Z</time>
      </trkpt>
      <trkpt lat="47.58628" lon="-2.2961">
        <ele>47</ele>
        <time>2025-01-16T08:48:02Z</time>
      </trkpt>
      <trkpt lat="47.58627" lon="-2.29609">
        <ele>46.9</ele>
        <time>2025-01-16T08:48:03Z</time>
      </trkpt>
      <trkpt lat="47.58626" lon="-2.29608">
        <ele>46.9</ele>
        <time>2025-01-16T08:48:04Z</time>
      </trkpt>
      <trkpt lat="47.58624" lon="-2.29608">
        <ele>46.9</ele>
        <time>2025-01-16T08:48:05Z</time>
      </trkpt>
      <trkpt lat="47.58623" lon="-2.29607">
        <ele>46.9</ele>
        <time>2025-01-16T08:48:06Z</time>
      </trkpt>
      <trkpt lat="47.58622" lon="-2.29607">
        <ele>46.9</ele>
        <time>2025-01-16T08:48:07Z</time>
      </trkpt>
      <trkpt lat="47.5862" lon="-2.29607">
        <ele>46.9</ele>
        <time>2025-01-16T08:48:08Z</time>
      </trkpt>
      <trkpt lat="47.58619" lon="-2.29606">
        <ele>46.8</ele>
        <time>2025-01-16T08:48:09Z</time>
      </trkpt>
      <trkpt lat="47.58618" lon="-2.29606">
        <ele>46.8</ele>
        <time>2025-01-16T08:48:10Z</time>
      </trkpt>
      <trkpt lat="47.58616" lon="-2.29606">
        <ele>46.8</ele>
        <time>2025-01-16T08:48:11Z</time>
      </trkpt>
      <trkpt lat="47.58615" lon="-2.29606">
        <ele>46.8</ele>
        <time>2025-01-16T08:48:12Z</time>
      </trkpt>
      <trkpt lat="47.58614" lon="-2.29606">
        <ele>46.8</ele>
        <time>2025-01-16T08:48:13Z</time>
      </trkpt>
      <trkpt lat="47.58613" lon="-2.29605">
        <ele>46.8</ele>
        <time>2025-01-16T08:48:14Z</time>
      </trkpt>
      <trkpt lat="47.58612" lon="-2.29605">
        <ele>46.8</ele>
        <time>2025-01-16T08:48:15Z</time>
      </trkpt>
      <trkpt lat="47.5861" lon="-2.29604">
        <ele>46.7</ele>
        <time>2025-01-16T08:48:16Z</time>
      </trkpt>
      <trkpt lat="47.58609" lon="-2.29604">
        <ele>46.6</ele>
        <time>2025-01-16T08:48:17Z</time>
      </trkpt>
      <trkpt lat="47.58608" lon="-2.29604">
        <ele>46.5</ele>
        <time>2025-01-16T08:48:18Z</time>
      </trkpt>
      <trkpt lat="47.58607" lon="-2.29604">
        <ele>46.5</ele>
        <time>2025-01-16T08:48:19Z</time>
      </trkpt>
      <trkpt lat="47.58606" lon="-2.29604">
        <ele>46.4</ele>
        <time>2025-01-16T08:48:20Z</time>
      </trkpt>
      <trkpt lat="47.58605" lon="-2.29604">
        <ele>46.4</ele>
        <time>2025-01-16T08:48:21Z</time>
      </trkpt>
      <trkpt lat="47.58604" lon="-2.29604">
        <ele>46.3</ele>
        <time>2025-01-16T08:48:22Z</time>
      </trkpt>
      <trkpt lat="47.58603" lon="-2.29603">
        <ele>46.2</ele>
        <time>2025-01-16T08:48:23Z</time>
      </trkpt>
      <trkpt lat="47.58602" lon="-2.29603">
        <ele>46.1</ele>
        <time>2025-01-16T08:48:24Z</time>
      </trkpt>
      <trkpt lat="47.58601" lon="-2.29603">
        <ele>46.1</ele>
        <time>2025-01-16T08:48:25Z</time>
      </trkpt>
      <trkpt lat="47.58601" lon="-2.29603">
        <ele>46.1</ele>
        <time>2025-01-16T08:48:26Z</time>
      </trkpt>
      <trkpt lat="47.58601" lon="-2.29602">
        <ele>46.1</ele>
        <time>2025-01-16T08:48:27Z</time>
      </trkpt>
      <trkpt lat="47.58601" lon="-2.29601">
        <ele>46</ele>
        <time>2025-01-16T08:48:28Z</time>
      </trkpt>
      <trkpt lat="47.58601" lon="-2.296">
        <ele>46</ele>
        <time>2025-01-16T08:48:29Z</time>
      </trkpt>
      <trkpt lat="47.586" lon="-2.29599">
        <ele>45.9</ele>
        <time>2025-01-16T08:48:30Z</time>
      </trkpt>
      <trkpt lat="47.58599" lon="-2.29599">
        <ele>45.9</ele>
        <time>2025-01-16T08:48:31Z</time>
      </trkpt>
      <trkpt lat="47.58597" lon="-2.29599">
        <ele>45.8</ele>
        <time>2025-01-16T08:48:32Z</time>
      </trkpt>
      <trkpt lat="47.58596" lon="-2.29599">
        <ele>45.7</ele>
        <time>2025-01-16T08:48:33Z</time>
      </trkpt>
      <trkpt lat="47.58595" lon="-2.296">
        <ele>45.7</ele>
        <time>2025-01-16T08:48:34Z</time>
      </trkpt>
      <trkpt lat="47.58594" lon="-2.296">
        <ele>45.6</ele>
        <time>2025-01-16T08:48:35Z</time>
      </trkpt>
      <trkpt lat="47.58593" lon="-2.29599">
        <ele>45.5</ele>
        <time>2025-01-16T08:48:36Z</time>
      </trkpt>
      <trkpt lat="47.58592" lon="-2.29599">
        <ele>45.5</ele>
        <time>2025-01-16T08:48:37Z</time>
      </trkpt>
      <trkpt lat="47.5859" lon="-2.29599">
        <ele>45.4</ele>
        <time>2025-01-16T08:48:38Z</time>
      </trkpt>
      <trkpt lat="47.58589" lon="-2.29599">
        <ele>45.3</ele>
        <time>2025-01-16T08:48:39Z</time>
      </trkpt>
      <trkpt lat="47.58588" lon="-2.29599">
        <ele>45.3</ele>
        <time>2025-01-16T08:48:40Z</time>
      </trkpt>
      <trkpt lat="47.58586" lon="-2.296">
        <ele>45.2</ele>
        <time>2025-01-16T08:48:41Z</time>
      </trkpt>
      <trkpt lat="47.58585" lon="-2.296">
        <ele>45.1</ele>
        <time>2025-01-16T08:48:42Z</time>
      </trkpt>
      <trkpt lat="47.58584" lon="-2.29601">
        <ele>45</ele>
        <time>2025-01-16T08:48:43Z</time>
      </trkpt>
      <trkpt lat="47.58583" lon="-2.29601">
        <ele>45</ele>
        <time>2025-01-16T08:48:44Z</time>
      </trkpt>
      <trkpt lat="47.58582" lon="-2.29602">
        <ele>44.9</ele>
        <time>2025-01-16T08:48:45Z</time>
      </trkpt>
      <trkpt lat="47.58581" lon="-2.29603">
        <ele>44.8</ele>
        <time>2025-01-16T08:48:46Z</time>
      </trkpt>
      <trkpt lat="47.5858" lon="-2.29604">
        <ele>44.7</ele>
        <time>2025-01-16T08:48:47Z</time>
      </trkpt>
      <trkpt lat="47.58578" lon="-2.29604">
        <ele>44.6</ele>
        <time>2025-01-16T08:48:48Z</time>
      </trkpt>
      <trkpt lat="47.58577" lon="-2.29605">
        <ele>44.5</ele>
        <time>2025-01-16T08:48:49Z</time>
      </trkpt>
      <trkpt lat="47.58575" lon="-2.29606">
        <ele>44.3</ele>
        <time>2025-01-16T08:48:50Z</time>
      </trkpt>
      <trkpt lat="47.58573" lon="-2.29606">
        <ele>44.2</ele>
        <time>2025-01-16T08:48:51Z</time>
      </trkpt>
      <trkpt lat="47.58572" lon="-2.29606">
        <ele>44.1</ele>
        <time>2025-01-16T08:48:52Z</time>
      </trkpt>
      <trkpt lat="47.58571" lon="-2.29606">
        <ele>44</ele>
        <time>2025-01-16T08:48:53Z</time>
      </trkpt>
      <trkpt lat="47.5857" lon="-2.29606">
        <ele>44</ele>
        <time>2025-01-16T08:48:54Z</time>
      </trkpt>
      <trkpt lat="47.58569" lon="-2.29606">
        <ele>43.9</ele>
        <time>2025-01-16T08:48:55Z</time>
      </trkpt>
      <trkpt lat="47.58568" lon="-2.29605">
        <ele>43.8</ele>
        <time>2025-01-16T08:48:56Z</time>
      </trkpt>
      <trkpt lat="47.58567" lon="-2.29605">
        <ele>43.7</ele>
        <time>2025-01-16T08:48:57Z</time>
      </trkpt>
      <trkpt lat="47.58566" lon="-2.29605">
        <ele>43.6</ele>
        <time>2025-01-16T08:48:58Z</time>
      </trkpt>
      <trkpt lat="47.58564" lon="-2.29606">
        <ele>43.5</ele>
        <time>2025-01-16T08:48:59Z</time>
      </trkpt>
      <trkpt lat="47.58563" lon="-2.29606">
        <ele>43.4</ele>
        <time>2025-01-16T08:49:00Z</time>
      </trkpt>
      <trkpt lat="47.58562" lon="-2.29606">
        <ele>43.3</ele>
        <time>2025-01-16T08:49:01Z</time>
      </trkpt>
      <trkpt lat="47.5856" lon="-2.29606">
        <ele>43.2</ele>
        <time>2025-01-16T08:49:02Z</time>
      </trkpt>
      <trkpt lat="47.58559" lon="-2.29606">
        <ele>43.1</ele>
        <time>2025-01-16T08:49:03Z</time>
      </trkpt>
      <trkpt lat="47.58557" lon="-2.29606">
        <ele>42.9</ele>
        <time>2025-01-16T08:49:04Z</time>
      </trkpt>
      <trkpt lat="47.58556" lon="-2.29606">
        <ele>42.9</ele>
        <time>2025-01-16T08:49:05Z</time>
      </trkpt>
      <trkpt lat="47.58554" lon="-2.29606">
        <ele>42.6</ele>
        <time>2025-01-16T08:49:06Z</time>
      </trkpt>
      <trkpt lat="47.58552" lon="-2.29605">
        <ele>42.4</ele>
        <time>2025-01-16T08:49:07Z</time>
      </trkpt>
      <trkpt lat="47.58551" lon="-2.29605">
        <ele>42.3</ele>
        <time>2025-01-16T08:49:08Z</time>
      </trkpt>
      <trkpt lat="47.58549" lon="-2.29605">
        <ele>42</ele>
        <time>2025-01-16T08:49:09Z</time>
      </trkpt>
      <trkpt lat="47.58547" lon="-2.29605">
        <ele>41.8</ele>
        <time>2025-01-16T08:49:10Z</time>
      </trkpt>
      <trkpt lat="47.58546" lon="-2.29605">
        <ele>41.7</ele>
        <time>2025-01-16T08:49:11Z</time>
      </trkpt>
      <trkpt lat="47.58544" lon="-2.29604">
        <ele>41.4</ele>
        <time>2025-01-16T08:49:12Z</time>
      </trkpt>
      <trkpt lat="47.58543" lon="-2.29604">
        <ele>41.3</ele>
        <time>2025-01-16T08:49:13Z</time>
      </trkpt>
      <trkpt lat="47.58542" lon="-2.29604">
        <ele>41.2</ele>
        <time>2025-01-16T08:49:14Z</time>
      </trkpt>
      <trkpt lat="47.58541" lon="-2.29603">
        <ele>41</ele>
        <time>2025-01-16T08:49:15Z</time>
      </trkpt>
      <trkpt lat="47.58539" lon="-2.29602">
        <ele>40.7</ele>
        <time>2025-01-16T08:49:16Z</time>
      </trkpt>
      <trkpt lat="47.58538" lon="-2.29601">
        <ele>40.5</ele>
        <time>2025-01-16T08:49:17Z</time>
      </trkpt>
      <trkpt lat="47.58538" lon="-2.29601">
        <ele>40.5</ele>
        <time>2025-01-16T08:49:18Z</time>
      </trkpt>
      <trkpt lat="47.58537" lon="-2.29601">
        <ele>40.4</ele>
        <time>2025-01-16T08:49:19Z</time>
      </trkpt>
      <trkpt lat="47.58537" lon="-2.29601">
        <ele>40.4</ele>
        <time>2025-01-16T08:49:20Z</time>
      </trkpt>
      <trkpt lat="47.58537" lon="-2.29601">
        <ele>40.4</ele>
        <time>2025-01-16T08:49:21Z</time>
      </trkpt>
      <trkpt lat="47.58537" lon="-2.29601">
        <ele>40.4</ele>
        <time>2025-01-16T08:49:22Z</time>
      </trkpt>
      <trkpt lat="47.58536" lon="-2.29602">
        <ele>40.3</ele>
        <time>2025-01-16T08:49:23Z</time>
      </trkpt>
      <trkpt lat="47.58536" lon="-2.29602">
        <ele>40.3</ele>
        <time>2025-01-16T08:49:24Z</time>
      </trkpt>
      <trkpt lat="47.58535" lon="-2.29602">
        <ele>40.2</ele>
        <time>2025-01-16T08:49:25Z</time>
      </trkpt>
      <trkpt lat="47.58534" lon="-2.29602">
        <ele>40.1</ele>
        <time>2025-01-16T08:49:26Z</time>
      </trkpt>
      <trkpt lat="47.58534" lon="-2.29603">
        <ele>40.2</ele>
        <time>2025-01-16T08:49:27Z</time>
      </trkpt>
      <trkpt lat="47.58533" lon="-2.29603">
        <ele>40</ele>
        <time>2025-01-16T08:49:28Z</time>
      </trkpt>
      <trkpt lat="47.58533" lon="-2.29603">
        <ele>40</ele>
        <time>2025-01-16T08:49:29Z</time>
      </trkpt>
      <trkpt lat="47.58533" lon="-2.29603">
        <ele>40</ele>
        <time>2025-01-16T08:49:30Z</time>
      </trkpt>
      <trkpt lat="47.58533" lon="-2.29603">
        <ele>40</ele>
        <time>2025-01-16T08:49:31Z</time>
      </trkpt>
      <trkpt lat="47.58533" lon="-2.29603">
        <ele>40</ele>
        <time>2025-01-16T08:49:32Z</time>
      </trkpt>
      <trkpt lat="47.58533" lon="-2.29603">
        <ele>40</ele>
        <time>2025-01-16T08:49:33Z</time>
      </trkpt>
      <trkpt lat="47.58533" lon="-2.29603">
        <ele>40</ele>
        <time>2025-01-16T08:49:34Z</time>
      </trkpt>
      <trkpt lat="47.58533" lon="-2.29603">
        <ele>40</ele>
        <time>2025-01-16T08:49:35Z</time>
      </trkpt>
      <trkpt lat="47.58533" lon="-2.29603">
        <ele>40</ele>
        <time>2025-01-16T08:49:36Z</time>
      </trkpt>
      <trkpt lat="47.58533" lon="-2.29603">
        <ele>40</ele>
        <time>2025-01-16T08:49:37Z</time>
      </trkpt>
      <trkpt lat="47.58533" lon="-2.29604">
        <ele>40.1</ele>
        <time>2025-01-16T08:49:38Z</time>
      </trkpt>
      <trkpt lat="47.58533" lon="-2.29604">
        <ele>40.1</ele>
        <time>2025-01-16T08:49:39Z</time>
      </trkpt>
      <trkpt lat="47.58533" lon="-2.29604">
        <ele>40.1</ele>
        <time>2025-01-16T08:49:40Z</time>
      </trkpt>
      <trkpt lat="47.58533" lon="-2.29604">
        <ele>40.1</ele>
        <time>2025-01-16T08:49:41Z</time>
      </trkpt>
      <trkpt lat="47.58533" lon="-2.29604">
        <ele>40.1</ele>
        <time>2025-01-16T08:49:42Z</time>
      </trkpt>
      <trkpt lat="47.58533" lon="-2.29604">
        <ele>40.1</ele>
        <time>2025-01-16T08:49:43Z</time>
      </trkpt>
      <trkpt lat="47.58533" lon="-2.29604">
        <ele>40.1</ele>
        <time>2025-01-16T08:49:44Z</time>
      </trkpt>
      <trkpt lat="47.58533" lon="-2.29604">
        <ele>40.1</ele>
        <time>2025-01-16T08:49:45Z</time>
      </trkpt>
      <trkpt lat="47.58533" lon="-2.29604">
        <ele>40.1</ele>
        <time>2025-01-16T08:49:46Z</time>
      </trkpt>
      <trkpt lat="47.58533" lon="-2.29604">
        <ele>40.1</ele>
        <time>2025-01-16T08:49:47Z</time>
      </trkpt>
      <trkpt lat="47.58533" lon="-2.29604">
        <ele>40.1</ele>
        <time>2025-01-16T08:49:48Z</time>
      </trkpt>
      <trkpt lat="47.58533" lon="-2.29604">
        <ele>40.1</ele>
        <time>2025-01-16T08:49:49Z</time>
      </trkpt>
      <trkpt lat="47.58533" lon="-2.29604">
        <ele>40.1</ele>
        <time>2025-01-16T08:49:50Z</time>
      </trkpt>
      <trkpt lat="47.58532" lon="-2.29604">
        <ele>40</ele>
        <time>2025-01-16T08:49:51Z</time>
      </trkpt>
      <trkpt lat="47.58533" lon="-2.29605">
        <ele>40.2</ele>
        <time>2025-01-16T08:49:52Z</time>
      </trkpt>
      <trkpt lat="47.58533" lon="-2.29605">
        <ele>40.2</ele>
        <time>2025-01-16T08:49:53Z</time>
      </trkpt>
      <trkpt lat="47.58533" lon="-2.29605">
        <ele>40.2</ele>
        <time>2025-01-16T08:49:54Z</time>
      </trkpt>
      <trkpt lat="47.58533" lon="-2.29606">
        <ele>40.2</ele>
        <time>2025-01-16T08:49:55Z</time>
      </trkpt>
      <trkpt lat="47.58533" lon="-2.29606">
        <ele>40.2</ele>
        <time>2025-01-16T08:49:56Z</time>
      </trkpt>
      <trkpt lat="47.58534" lon="-2.29607">
        <ele>40.4</ele>
        <time>2025-01-16T08:49:57Z</time>
      </trkpt>
      <trkpt lat="47.58534" lon="-2.29607">
        <ele>40.4</ele>
        <time>2025-01-16T08:49:58Z</time>
      </trkpt>
      <trkpt lat="47.58534" lon="-2.29607">
        <ele>40.4</ele>
        <time>2025-01-16T08:49:59Z</time>
      </trkpt>
      <trkpt lat="47.58534" lon="-2.29607">
        <ele>40.4</ele>
        <time>2025-01-16T08:50:00Z</time>
      </trkpt>
      <trkpt lat="47.58534" lon="-2.29606">
        <ele>40.3</ele>
        <time>2025-01-16T08:50:01Z</time>
      </trkpt>
      <trkpt lat="47.58534" lon="-2.29606">
        <ele>40.3</ele>
        <time>2025-01-16T08:50:02Z</time>
      </trkpt>
      <trkpt lat="47.58533" lon="-2.29606">
        <ele>40.2</ele>
        <time>2025-01-16T08:50:03Z</time>
      </trkpt>
      <trkpt lat="47.58533" lon="-2.29606">
        <ele>40.2</ele>
        <time>2025-01-16T08:50:04Z</time>
      </trkpt>
      <trkpt lat="47.58533" lon="-2.29606">
        <ele>40.2</ele>
        <time>2025-01-16T08:50:05Z</time>
      </trkpt>
      <trkpt lat="47.58533" lon="-2.29606">
        <ele>40.2</ele>
        <time>2025-01-16T08:50:06Z</time>
      </trkpt>
      <trkpt lat="47.58532" lon="-2.29606">
        <ele>40.1</ele>
        <time>2025-01-16T08:50:07Z</time>
      </trkpt>
      <trkpt lat="47.58532" lon="-2.29606">
        <ele>40.1</ele>
        <time>2025-01-16T08:50:08Z</time>
      </trkpt>
      <trkpt lat="47.58532" lon="-2.29606">
        <ele>40.1</ele>
        <time>2025-01-16T08:50:09Z</time>
      </trkpt>
      <trkpt lat="47.58532" lon="-2.29606">
        <ele>40.1</ele>
        <time>2025-01-16T08:50:10Z</time>
      </trkpt>
      <trkpt lat="47.58532" lon="-2.29606">
        <ele>40.1</ele>
        <time>2025-01-16T08:50:11Z</time>
      </trkpt>
      <trkpt lat="47.58532" lon="-2.29606">
        <ele>40.1</ele>
        <time>2025-01-16T08:50:12Z</time>
      </trkpt>
      <trkpt lat="47.58532" lon="-2.29606">
        <ele>40.1</ele>
        <time>2025-01-16T08:50:13Z</time>
      </trkpt>
      <trkpt lat="47.58532" lon="-2.29606">
        <ele>40.1</ele>
        <time>2025-01-16T08:50:14Z</time>
      </trkpt>
      <trkpt lat="47.58532" lon="-2.29607">
        <ele>40.2</ele>
        <time>2025-01-16T08:50:15Z</time>
      </trkpt>
      <trkpt lat="47.58531" lon="-2.29607">
        <ele>40.1</ele>
        <time>2025-01-16T08:50:16Z</time>
      </trkpt>
      <trkpt lat="47.58531" lon="-2.29607">
        <ele>40.1</ele>
        <time>2025-01-16T08:50:17Z</time>
      </trkpt>
      <trkpt lat="47.58531" lon="-2.29607">
        <ele>40.1</ele>
        <time>2025-01-16T08:50:18Z</time>
      </trkpt>
      <trkpt lat="47.58531" lon="-2.29608">
        <ele>40.1</ele>
        <time>2025-01-16T08:50:19Z</time>
      </trkpt>
      <trkpt lat="47.58531" lon="-2.29609">
        <ele>40.2</ele>
        <time>2025-01-16T08:50:22Z</time>
      </trkpt>
      <trkpt lat="47.58531" lon="-2.29609">
        <ele>40.2</ele>
        <time>2025-01-16T08:50:23Z</time>
      </trkpt>
      <trkpt lat="47.58531" lon="-2.29609">
        <ele>40.2</ele>
        <time>2025-01-16T08:50:24Z</time>
      </trkpt>
      <trkpt lat="47.58531" lon="-2.29609">
        <ele>40.2</ele>
        <time>2025-01-16T08:50:25Z</time>
      </trkpt>
      <trkpt lat="47.58532" lon="-2.29609">
        <ele>40.3</ele>
        <time>2025-01-16T08:50:26Z</time>
      </trkpt>
      <trkpt lat="47.58532" lon="-2.29609">
        <ele>40.3</ele>
        <time>2025-01-16T08:50:27Z</time>
      </trkpt>
      <trkpt lat="47.58532" lon="-2.29609">
        <ele>40.3</ele>
        <time>2025-01-16T08:50:28Z</time>
      </trkpt>
      <trkpt lat="47.58532" lon="-2.29609">
        <ele>40.3</ele>
        <time>2025-01-16T08:50:29Z</time>
      </trkpt>
      <trkpt lat="47.58531" lon="-2.29609">
        <ele>40.2</ele>
        <time>2025-01-16T08:50:30Z</time>
      </trkpt>
      <trkpt lat="47.58531" lon="-2.29609">
        <ele>40.2</ele>
        <time>2025-01-16T08:50:31Z</time>
      </trkpt>
      <trkpt lat="47.58531" lon="-2.29609">
        <ele>40.2</ele>
        <time>2025-01-16T08:50:32Z</time>
      </trkpt>
      <trkpt lat="47.58531" lon="-2.29609">
        <ele>40.2</ele>
        <time>2025-01-16T08:50:33Z</time>
      </trkpt>
      <trkpt lat="47.58531" lon="-2.29609">
        <ele>40.2</ele>
        <time>2025-01-16T08:50:34Z</time>
      </trkpt>
      <trkpt lat="47.58531" lon="-2.29609">
        <ele>40.2</ele>
        <time>2025-01-16T08:50:35Z</time>
      </trkpt>
      <trkpt lat="47.58532" lon="-2.29609">
        <ele>40.3</ele>
        <time>2025-01-16T08:50:36Z</time>
      </trkpt>
      <trkpt lat="47.58532" lon="-2.29609">
        <ele>40.3</ele>
        <time>2025-01-16T08:50:37Z</time>
      </trkpt>
      <trkpt lat="47.58532" lon="-2.29608">
        <ele>40.2</ele>
        <time>2025-01-16T08:50:38Z</time>
      </trkpt>
      <trkpt lat="47.58532" lon="-2.29609">
        <ele>40.3</ele>
        <time>2025-01-16T08:50:39Z</time>
      </trkpt>
      <trkpt lat="47.58533" lon="-2.29608">
        <ele>40.4</ele>
        <time>2025-01-16T08:50:40Z</time>
      </trkpt>
      <trkpt lat="47.58533" lon="-2.29607">
        <ele>40.3</ele>
        <time>2025-01-16T08:50:41Z</time>
      </trkpt>
      <trkpt lat="47.58534" lon="-2.29606">
        <ele>40.3</ele>
        <time>2025-01-16T08:50:42Z</time>
      </trkpt>
      <trkpt lat="47.58535" lon="-2.29605">
        <ele>40.4</ele>
        <time>2025-01-16T08:50:43Z</time>
      </trkpt>
      <trkpt lat="47.58535" lon="-2.29604">
        <ele>40.3</ele>
        <time>2025-01-16T08:50:44Z</time>
      </trkpt>
      <trkpt lat="47.58536" lon="-2.29602">
        <ele>40.3</ele>
        <time>2025-01-16T08:50:45Z</time>
      </trkpt>
      <trkpt lat="47.58537" lon="-2.29601">
        <ele>40.4</ele>
        <time>2025-01-16T08:50:46Z</time>
      </trkpt>
      <trkpt lat="47.58537" lon="-2.29601">
        <ele>40.4</ele>
        <time>2025-01-16T08:50:47Z</time>
      </trkpt>
      <trkpt lat="47.58537" lon="-2.296">
        <ele>40.3</ele>
        <time>2025-01-16T08:50:48Z</time>
      </trkpt>
      <trkpt lat="47.58537" lon="-2.296">
        <ele>40.3</ele>
        <time>2025-01-16T08:50:49Z</time>
      </trkpt>
      <trkpt lat="47.58537" lon="-2.29599">
        <ele>40.3</ele>
        <time>2025-01-16T08:50:50Z</time>
      </trkpt>
      <trkpt lat="47.58536" lon="-2.29598">
        <ele>40.1</ele>
        <time>2025-01-16T08:50:51Z</time>
      </trkpt>
      <trkpt lat="47.58536" lon="-2.29597">
        <ele>40</ele>
        <time>2025-01-16T08:50:52Z</time>
      </trkpt>
      <trkpt lat="47.58535" lon="-2.29596">
        <ele>39.8</ele>
        <time>2025-01-16T08:50:53Z</time>
      </trkpt>
      <trkpt lat="47.58535" lon="-2.29595">
        <ele>39.8</ele>
        <time>2025-01-16T08:50:54Z</time>
      </trkpt>
      <trkpt lat="47.58535" lon="-2.29594">
        <ele>39.7</ele>
        <time>2025-01-16T08:50:55Z</time>
      </trkpt>
      <trkpt lat="47.58535" lon="-2.29593">
        <ele>39.6</ele>
        <time>2025-01-16T08:50:56Z</time>
      </trkpt>
      <trkpt lat="47.58535" lon="-2.29592">
        <ele>39.6</ele>
        <time>2025-01-16T08:50:57Z</time>
      </trkpt>
      <trkpt lat="47.58535" lon="-2.29591">
        <ele>39.5</ele>
        <time>2025-01-16T08:50:58Z</time>
      </trkpt>
      <trkpt lat="47.58534" lon="-2.2959">
        <ele>39.3</ele>
        <time>2025-01-16T08:50:59Z</time>
      </trkpt>
      <trkpt lat="47.58534" lon="-2.29589">
        <ele>39.3</ele>
        <time>2025-01-16T08:51:00Z</time>
      </trkpt>
      <trkpt lat="47.58534" lon="-2.29588">
        <ele>39.2</ele>
        <time>2025-01-16T08:51:01Z</time>
      </trkpt>
      <trkpt lat="47.58534" lon="-2.29587">
        <ele>39.1</ele>
        <time>2025-01-16T08:51:02Z</time>
      </trkpt>
      <trkpt lat="47.58534" lon="-2.29586">
        <ele>39.1</ele>
        <time>2025-01-16T08:51:03Z</time>
      </trkpt>
      <trkpt lat="47.58534" lon="-2.29586">
        <ele>39.1</ele>
        <time>2025-01-16T08:51:04Z</time>
      </trkpt>
      <trkpt lat="47.58534" lon="-2.29585">
        <ele>39</ele>
        <time>2025-01-16T08:51:05Z</time>
      </trkpt>
      <trkpt lat="47.58535" lon="-2.29585">
        <ele>39.1</ele>
        <time>2025-01-16T08:51:06Z</time>
      </trkpt>
      <trkpt lat="47.58535" lon="-2.29583">
        <ele>39</ele>
        <time>2025-01-16T08:51:07Z</time>
      </trkpt>
      <trkpt lat="47.58535" lon="-2.29582">
        <ele>39</ele>
        <time>2025-01-16T08:51:08Z</time>
      </trkpt>
      <trkpt lat="47.58535" lon="-2.2958">
        <ele>38.9</ele>
        <time>2025-01-16T08:51:09Z</time>
      </trkpt>
      <trkpt lat="47.58535" lon="-2.29579">
        <ele>38.8</ele>
        <time>2025-01-16T08:51:10Z</time>
      </trkpt>
      <trkpt lat="47.58534" lon="-2.29578">
        <ele>38.7</ele>
        <time>2025-01-16T08:51:11Z</time>
      </trkpt>
      <trkpt lat="47.58534" lon="-2.29577">
        <ele>38.6</ele>
        <time>2025-01-16T08:51:12Z</time>
      </trkpt>
      <trkpt lat="47.58534" lon="-2.29576">
        <ele>38.6</ele>
        <time>2025-01-16T08:51:13Z</time>
      </trkpt>
      <trkpt lat="47.58534" lon="-2.29575">
        <ele>38.5</ele>
        <time>2025-01-16T08:51:14Z</time>
      </trkpt>
      <trkpt lat="47.58533" lon="-2.29574">
        <ele>38.4</ele>
        <time>2025-01-16T08:51:15Z</time>
      </trkpt>
      <trkpt lat="47.58533" lon="-2.29573">
        <ele>38.3</ele>
        <time>2025-01-16T08:51:16Z</time>
      </trkpt>
      <trkpt lat="47.58533" lon="-2.29572">
        <ele>38.3</ele>
        <time>2025-01-16T08:51:17Z</time>
      </trkpt>
      <trkpt lat="47.58533" lon="-2.29571">
        <ele>38.2</ele>
        <time>2025-01-16T08:51:18Z</time>
      </trkpt>
      <trkpt lat="47.58532" lon="-2.2957">
        <ele>38.1</ele>
        <time>2025-01-16T08:51:19Z</time>
      </trkpt>
      <trkpt lat="47.58531" lon="-2.29568">
        <ele>37.8</ele>
        <time>2025-01-16T08:51:20Z</time>
      </trkpt>
      <trkpt lat="47.58531" lon="-2.29567">
        <ele>37.8</ele>
        <time>2025-01-16T08:51:21Z</time>
      </trkpt>
      <trkpt lat="47.58529" lon="-2.29566">
        <ele>37.5</ele>
        <time>2025-01-16T08:51:22Z</time>
      </trkpt>
      <trkpt lat="47.58529" lon="-2.29565">
        <ele>37.5</ele>
        <time>2025-01-16T08:51:23Z</time>
      </trkpt>
      <trkpt lat="47.58527" lon="-2.29564">
        <ele>37.2</ele>
        <time>2025-01-16T08:51:24Z</time>
      </trkpt>
      <trkpt lat="47.58527" lon="-2.29564">
        <ele>37.2</ele>
        <time>2025-01-16T08:51:25Z</time>
      </trkpt>
      <trkpt lat="47.58526" lon="-2.29563">
        <ele>37.1</ele>
        <time>2025-01-16T08:51:26Z</time>
      </trkpt>
      <trkpt lat="47.58526" lon="-2.29562">
        <ele>37.1</ele>
        <time>2025-01-16T08:51:27Z</time>
      </trkpt>
      <trkpt lat="47.58525" lon="-2.29561">
        <ele>37</ele>
        <time>2025-01-16T08:51:28Z</time>
      </trkpt>
      <trkpt lat="47.58525" lon="-2.2956">
        <ele>37</ele>
        <time>2025-01-16T08:51:29Z</time>
      </trkpt>
      <trkpt lat="47.58525" lon="-2.29559">
        <ele>36.9</ele>
        <time>2025-01-16T08:51:30Z</time>
      </trkpt>
      <trkpt lat="47.58525" lon="-2.29558">
        <ele>36.9</ele>
        <time>2025-01-16T08:51:31Z</time>
      </trkpt>
      <trkpt lat="47.58524" lon="-2.29555">
        <ele>36.7</ele>
        <time>2025-01-16T08:51:32Z</time>
      </trkpt>
      <trkpt lat="47.58523" lon="-2.29554">
        <ele>36.6</ele>
        <time>2025-01-16T08:51:33Z</time>
      </trkpt>
      <trkpt lat="47.58523" lon="-2.29554">
        <ele>36.6</ele>
        <time>2025-01-16T08:51:34Z</time>
      </trkpt>
      <trkpt lat="47.58523" lon="-2.29553">
        <ele>36.6</ele>
        <time>2025-01-16T08:51:35Z</time>
      </trkpt>
      <trkpt lat="47.58523" lon="-2.29552">
        <ele>36.5</ele>
        <time>2025-01-16T08:51:36Z</time>
      </trkpt>
      <trkpt lat="47.58522" lon="-2.29551">
        <ele>36.4</ele>
        <time>2025-01-16T08:51:37Z</time>
      </trkpt>
      <trkpt lat="47.58522" lon="-2.2955">
        <ele>36.4</ele>
        <time>2025-01-16T08:51:38Z</time>
      </trkpt>
      <trkpt lat="47.58522" lon="-2.29548">
        <ele>36.3</ele>
        <time>2025-01-16T08:51:39Z</time>
      </trkpt>
      <trkpt lat="47.58522" lon="-2.29547">
        <ele>36.3</ele>
        <time>2025-01-16T08:51:40Z</time>
      </trkpt>
      <trkpt lat="47.58522" lon="-2.29546">
        <ele>36.2</ele>
        <time>2025-01-16T08:51:41Z</time>
      </trkpt>
      <trkpt lat="47.58522" lon="-2.29545">
        <ele>36.2</ele>
        <time>2025-01-16T08:51:42Z</time>
      </trkpt>
      <trkpt lat="47.58522" lon="-2.29543">
        <ele>36.1</ele>
        <time>2025-01-16T08:51:43Z</time>
      </trkpt>
      <trkpt lat="47.58522" lon="-2.29542">
        <ele>36.1</ele>
        <time>2025-01-16T08:51:44Z</time>
      </trkpt>
      <trkpt lat="47.58522" lon="-2.29541">
        <ele>36.1</ele>
        <time>2025-01-16T08:51:45Z</time>
      </trkpt>
      <trkpt lat="47.58522" lon="-2.29539">
        <ele>36</ele>
        <time>2025-01-16T08:51:46Z</time>
      </trkpt>
      <trkpt lat="47.58522" lon="-2.29538">
        <ele>36</ele>
        <time>2025-01-16T08:51:47Z</time>
      </trkpt>
      <trkpt lat="47.58522" lon="-2.29536">
        <ele>35.9</ele>
        <time>2025-01-16T08:51:48Z</time>
      </trkpt>
      <trkpt lat="47.58522" lon="-2.29535">
        <ele>35.8</ele>
        <time>2025-01-16T08:51:49Z</time>
      </trkpt>
      <trkpt lat="47.58522" lon="-2.29534">
        <ele>35.8</ele>
        <time>2025-01-16T08:51:50Z</time>
      </trkpt>
      <trkpt lat="47.58522" lon="-2.29532">
        <ele>35.7</ele>
        <time>2025-01-16T08:51:51Z</time>
      </trkpt>
      <trkpt lat="47.58522" lon="-2.29531">
        <ele>35.7</ele>
        <time>2025-01-16T08:51:52Z</time>
      </trkpt>
      <trkpt lat="47.58522" lon="-2.29528">
        <ele>35.6</ele>
        <time>2025-01-16T08:51:53Z</time>
      </trkpt>
      <trkpt lat="47.58521" lon="-2.29526">
        <ele>35.4</ele>
        <time>2025-01-16T08:51:54Z</time>
      </trkpt>
      <trkpt lat="47.58521" lon="-2.29524">
        <ele>35.2</ele>
        <time>2025-01-16T08:51:55Z</time>
      </trkpt>
      <trkpt lat="47.58521" lon="-2.29522">
        <ele>35.1</ele>
        <time>2025-01-16T08:51:56Z</time>
      </trkpt>
      <trkpt lat="47.58521" lon="-2.2952">
        <ele>35</ele>
        <time>2025-01-16T08:51:57Z</time>
      </trkpt>
      <trkpt lat="47.5852" lon="-2.29518">
        <ele>34.7</ele>
        <time>2025-01-16T08:51:58Z</time>
      </trkpt>
      <trkpt lat="47.5852" lon="-2.29517">
        <ele>34.7</ele>
        <time>2025-01-16T08:51:59Z</time>
      </trkpt>
      <trkpt lat="47.5852" lon="-2.29514">
        <ele>34.4</ele>
        <time>2025-01-16T08:52:00Z</time>
      </trkpt>
      <trkpt lat="47.58519" lon="-2.29512">
        <ele>34.2</ele>
        <time>2025-01-16T08:52:01Z</time>
      </trkpt>
      <trkpt lat="47.58519" lon="-2.29511">
        <ele>34.2</ele>
        <time>2025-01-16T08:52:02Z</time>
      </trkpt>
      <trkpt lat="47.58518" lon="-2.29509">
        <ele>33.9</ele>
        <time>2025-01-16T08:52:03Z</time>
      </trkpt>
      <trkpt lat="47.58518" lon="-2.29508">
        <ele>33.9</ele>
        <time>2025-01-16T08:52:04Z</time>
      </trkpt>
      <trkpt lat="47.58518" lon="-2.29506">
        <ele>33.7</ele>
        <time>2025-01-16T08:52:05Z</time>
      </trkpt>
      <trkpt lat="47.58517" lon="-2.29504">
        <ele>33.5</ele>
        <time>2025-01-16T08:52:06Z</time>
      </trkpt>
      <trkpt lat="47.58517" lon="-2.29502">
        <ele>33.4</ele>
        <time>2025-01-16T08:52:07Z</time>
      </trkpt>
      <trkpt lat="47.58516" lon="-2.295">
        <ele>33.2</ele>
        <time>2025-01-16T08:52:08Z</time>
      </trkpt>
      <trkpt lat="47.58516" lon="-2.29499">
        <ele>33.1</ele>
        <time>2025-01-16T08:52:09Z</time>
      </trkpt>
      <trkpt lat="47.58516" lon="-2.29497">
        <ele>33</ele>
        <time>2025-01-16T08:52:10Z</time>
      </trkpt>
      <trkpt lat="47.58517" lon="-2.29495">
        <ele>32.9</ele>
        <time>2025-01-16T08:52:11Z</time>
      </trkpt>
      <trkpt lat="47.58517" lon="-2.29494">
        <ele>32.9</ele>
        <time>2025-01-16T08:52:12Z</time>
      </trkpt>
      <trkpt lat="47.58517" lon="-2.29493">
        <ele>32.8</ele>
        <time>2025-01-16T08:52:13Z</time>
      </trkpt>
      <trkpt lat="47.58517" lon="-2.29492">
        <ele>32.8</ele>
        <time>2025-01-16T08:52:14Z</time>
      </trkpt>
      <trkpt lat="47.58517" lon="-2.29491">
        <ele>32.7</ele>
        <time>2025-01-16T08:52:15Z</time>
      </trkpt>
      <trkpt lat="47.58516" lon="-2.29489">
        <ele>32.5</ele>
        <time>2025-01-16T08:52:16Z</time>
      </trkpt>
      <trkpt lat="47.58516" lon="-2.29488">
        <ele>32.5</ele>
        <time>2025-01-16T08:52:17Z</time>
      </trkpt>
      <trkpt lat="47.58516" lon="-2.29486">
        <ele>32.4</ele>
        <time>2025-01-16T08:52:18Z</time>
      </trkpt>
      <trkpt lat="47.58516" lon="-2.29484">
        <ele>32.2</ele>
        <time>2025-01-16T08:52:19Z</time>
      </trkpt>
      <trkpt lat="47.58515" lon="-2.29483">
        <ele>32.1</ele>
        <time>2025-01-16T08:52:20Z</time>
      </trkpt>
      <trkpt lat="47.58515" lon="-2.29481">
        <ele>32</ele>
        <time>2025-01-16T08:52:21Z</time>
      </trkpt>
      <trkpt lat="47.58514" lon="-2.29479">
        <ele>31.9</ele>
        <time>2025-01-16T08:52:22Z</time>
      </trkpt>
      <trkpt lat="47.58513" lon="-2.29478">
        <ele>31.8</ele>
        <time>2025-01-16T08:52:23Z</time>
      </trkpt>
      <trkpt lat="47.58513" lon="-2.29476">
        <ele>31.7</ele>
        <time>2025-01-16T08:52:24Z</time>
      </trkpt>
      <trkpt lat="47.58512" lon="-2.29475">
        <ele>31.6</ele>
        <time>2025-01-16T08:52:25Z</time>
      </trkpt>
      <trkpt lat="47.58511" lon="-2.29474">
        <ele>31.5</ele>
        <time>2025-01-16T08:52:26Z</time>
      </trkpt>
      <trkpt lat="47.58511" lon="-2.29473">
        <ele>31.4</ele>
        <time>2025-01-16T08:52:27Z</time>
      </trkpt>
      <trkpt lat="47.5851" lon="-2.29472">
        <ele>31.3</ele>
        <time>2025-01-16T08:52:28Z</time>
      </trkpt>
      <trkpt lat="47.58509" lon="-2.29471">
        <ele>31.3</ele>
        <time>2025-01-16T08:52:29Z</time>
      </trkpt>
      <trkpt lat="47.58508" lon="-2.29471">
        <ele>31.2</ele>
        <time>2025-01-16T08:52:30Z</time>
      </trkpt>
      <trkpt lat="47.58507" lon="-2.29471">
        <ele>31.2</ele>
        <time>2025-01-16T08:52:31Z</time>
      </trkpt>
      <trkpt lat="47.58506" lon="-2.2947">
        <ele>31.1</ele>
        <time>2025-01-16T08:52:32Z</time>
      </trkpt>
      <trkpt lat="47.58504" lon="-2.29469">
        <ele>31.1</ele>
        <time>2025-01-16T08:52:33Z</time>
      </trkpt>
      <trkpt lat="47.58503" lon="-2.29469">
        <ele>31.1</ele>
        <time>2025-01-16T08:52:34Z</time>
      </trkpt>
      <trkpt lat="47.58501" lon="-2.29468">
        <ele>31</ele>
        <time>2025-01-16T08:52:35Z</time>
      </trkpt>
      <trkpt lat="47.58499" lon="-2.29468">
        <ele>31</ele>
        <time>2025-01-16T08:52:36Z</time>
      </trkpt>
      <trkpt lat="47.58498" lon="-2.29468">
        <ele>30.9</ele>
        <time>2025-01-16T08:52:37Z</time>
      </trkpt>
      <trkpt lat="47.58496" lon="-2.29468">
        <ele>30.9</ele>
        <time>2025-01-16T08:52:38Z</time>
      </trkpt>
      <trkpt lat="47.58495" lon="-2.29468">
        <ele>30.8</ele>
        <time>2025-01-16T08:52:39Z</time>
      </trkpt>
      <trkpt lat="47.58493" lon="-2.29468">
        <ele>30.8</ele>
        <time>2025-01-16T08:52:40Z</time>
      </trkpt>
      <trkpt lat="47.58492" lon="-2.29467">
        <ele>30.8</ele>
        <time>2025-01-16T08:52:41Z</time>
      </trkpt>
      <trkpt lat="47.5849" lon="-2.29467">
        <ele>30.7</ele>
        <time>2025-01-16T08:52:42Z</time>
      </trkpt>
      <trkpt lat="47.58489" lon="-2.29468">
        <ele>30.7</ele>
        <time>2025-01-16T08:52:43Z</time>
      </trkpt>
      <trkpt lat="47.58488" lon="-2.29467">
        <ele>30.6</ele>
        <time>2025-01-16T08:52:44Z</time>
      </trkpt>
      <trkpt lat="47.58487" lon="-2.29467">
        <ele>30.6</ele>
        <time>2025-01-16T08:52:45Z</time>
      </trkpt>
      <trkpt lat="47.58485" lon="-2.29467">
        <ele>30.6</ele>
        <time>2025-01-16T08:52:46Z</time>
      </trkpt>
      <trkpt lat="47.58483" lon="-2.29467">
        <ele>30.5</ele>
        <time>2025-01-16T08:52:47Z</time>
      </trkpt>
      <trkpt lat="47.58482" lon="-2.29467">
        <ele>30.5</ele>
        <time>2025-01-16T08:52:48Z</time>
      </trkpt>
      <trkpt lat="47.5848" lon="-2.29467">
        <ele>30.4</ele>
        <time>2025-01-16T08:52:49Z</time>
      </trkpt>
      <trkpt lat="47.58479" lon="-2.29467">
        <ele>30.4</ele>
        <time>2025-01-16T08:52:50Z</time>
      </trkpt>
      <trkpt lat="47.58478" lon="-2.29467">
        <ele>30.4</ele>
        <time>2025-01-16T08:52:51Z</time>
      </trkpt>
      <trkpt lat="47.58477" lon="-2.29467">
        <ele>30.3</ele>
        <time>2025-01-16T08:52:52Z</time>
      </trkpt>
      <trkpt lat="47.58476" lon="-2.29468">
        <ele>30.3</ele>
        <time>2025-01-16T08:52:53Z</time>
      </trkpt>
      <trkpt lat="47.58475" lon="-2.29469">
        <ele>30.2</ele>
        <time>2025-01-16T08:52:54Z</time>
      </trkpt>
      <trkpt lat="47.58474" lon="-2.29469">
        <ele>30.2</ele>
        <time>2025-01-16T08:52:55Z</time>
      </trkpt>
      <trkpt lat="47.58473" lon="-2.29469">
        <ele>30.1</ele>
        <time>2025-01-16T08:52:56Z</time>
      </trkpt>
      <trkpt lat="47.58472" lon="-2.29469">
        <ele>30.1</ele>
        <time>2025-01-16T08:52:57Z</time>
      </trkpt>
      <trkpt lat="47.58471" lon="-2.29469">
        <ele>30.1</ele>
        <time>2025-01-16T08:52:58Z</time>
      </trkpt>
      <trkpt lat="47.5847" lon="-2.29469">
        <ele>30</ele>
        <time>2025-01-16T08:52:59Z</time>
      </trkpt>
      <trkpt lat="47.58469" lon="-2.29469">
        <ele>30</ele>
        <time>2025-01-16T08:53:00Z</time>
      </trkpt>
      <trkpt lat="47.58468" lon="-2.29469">
        <ele>30</ele>
        <time>2025-01-16T08:53:01Z</time>
      </trkpt>
      <trkpt lat="47.58467" lon="-2.29469">
        <ele>29.9</ele>
        <time>2025-01-16T08:53:02Z</time>
      </trkpt>
      <trkpt lat="47.58465" lon="-2.2947">
        <ele>29.8</ele>
        <time>2025-01-16T08:53:03Z</time>
      </trkpt>
      <trkpt lat="47.58465" lon="-2.2947">
        <ele>29.8</ele>
        <time>2025-01-16T08:53:04Z</time>
      </trkpt>
      <trkpt lat="47.58464" lon="-2.2947">
        <ele>29.8</ele>
        <time>2025-01-16T08:53:05Z</time>
      </trkpt>
      <trkpt lat="47.58464" lon="-2.2947">
        <ele>29.8</ele>
        <time>2025-01-16T08:53:06Z</time>
      </trkpt>
      <trkpt lat="47.58464" lon="-2.2947">
        <ele>29.8</ele>
        <time>2025-01-16T08:53:07Z</time>
      </trkpt>
      <trkpt lat="47.58463" lon="-2.29471">
        <ele>29.7</ele>
        <time>2025-01-16T08:53:08Z</time>
      </trkpt>
      <trkpt lat="47.58461" lon="-2.29472">
        <ele>29.6</ele>
        <time>2025-01-16T08:53:09Z</time>
      </trkpt>
      <trkpt lat="47.5846" lon="-2.29473">
        <ele>29.6</ele>
        <time>2025-01-16T08:53:10Z</time>
      </trkpt>
      <trkpt lat="47.58459" lon="-2.29473">
        <ele>29.5</ele>
        <time>2025-01-16T08:53:11Z</time>
      </trkpt>
      <trkpt lat="47.58458" lon="-2.29474">
        <ele>29.5</ele>
        <time>2025-01-16T08:53:12Z</time>
      </trkpt>
      <trkpt lat="47.58456" lon="-2.29474">
        <ele>29.4</ele>
        <time>2025-01-16T08:53:13Z</time>
      </trkpt>
      <trkpt lat="47.58455" lon="-2.29474">
        <ele>29.4</ele>
        <time>2025-01-16T08:53:14Z</time>
      </trkpt>
      <trkpt lat="47.58454" lon="-2.29473">
        <ele>29.4</ele>
        <time>2025-01-16T08:53:15Z</time>
      </trkpt>
      <trkpt lat="47.58452" lon="-2.29473">
        <ele>29.3</ele>
        <time>2025-01-16T08:53:16Z</time>
      </trkpt>
      <trkpt lat="47.58451" lon="-2.29473">
        <ele>29.2</ele>
        <time>2025-01-16T08:53:17Z</time>
      </trkpt>
      <trkpt lat="47.5845" lon="-2.29472">
        <ele>29.2</ele>
        <time>2025-01-16T08:53:18Z</time>
      </trkpt>
      <trkpt lat="47.58449" lon="-2.29472">
        <ele>29.2</ele>
        <time>2025-01-16T08:53:19Z</time>
      </trkpt>
      <trkpt lat="47.58448" lon="-2.29472">
        <ele>29.1</ele>
        <time>2025-01-16T08:53:20Z</time>
      </trkpt>
      <trkpt lat="47.58447" lon="-2.29472">
        <ele>29.1</ele>
        <time>2025-01-16T08:53:21Z</time>
      </trkpt>
      <trkpt lat="47.58446" lon="-2.29472">
        <ele>29.1</ele>
        <time>2025-01-16T08:53:22Z</time>
      </trkpt>
      <trkpt lat="47.58445" lon="-2.29472">
        <ele>29</ele>
        <time>2025-01-16T08:53:23Z</time>
      </trkpt>
      <trkpt lat="47.58444" lon="-2.29473">
        <ele>29</ele>
        <time>2025-01-16T08:53:24Z</time>
      </trkpt>
      <trkpt lat="47.58442" lon="-2.29474">
        <ele>28.8</ele>
        <time>2025-01-16T08:53:25Z</time>
      </trkpt>
      <trkpt lat="47.5844" lon="-2.29474">
        <ele>28.7</ele>
        <time>2025-01-16T08:53:26Z</time>
      </trkpt>
      <trkpt lat="47.58439" lon="-2.29474">
        <ele>28.6</ele>
        <time>2025-01-16T08:53:27Z</time>
      </trkpt>
      <trkpt lat="47.58438" lon="-2.29474">
        <ele>28.6</ele>
        <time>2025-01-16T08:53:28Z</time>
      </trkpt>
      <trkpt lat="47.58436" lon="-2.29474">
        <ele>28.4</ele>
        <time>2025-01-16T08:53:29Z</time>
      </trkpt>
      <trkpt lat="47.58435" lon="-2.29475">
        <ele>28.4</ele>
        <time>2025-01-16T08:53:30Z</time>
      </trkpt>
      <trkpt lat="47.58434" lon="-2.29475">
        <ele>28.3</ele>
        <time>2025-01-16T08:53:31Z</time>
      </trkpt>
      <trkpt lat="47.58433" lon="-2.29475">
        <ele>28.2</ele>
        <time>2025-01-16T08:53:32Z</time>
      </trkpt>
      <trkpt lat="47.58432" lon="-2.29475">
        <ele>28.1</ele>
        <time>2025-01-16T08:53:33Z</time>
      </trkpt>
      <trkpt lat="47.5843" lon="-2.29476">
        <ele>28</ele>
        <time>2025-01-16T08:53:34Z</time>
      </trkpt>
      <trkpt lat="47.58428" lon="-2.29477">
        <ele>27.9</ele>
        <time>2025-01-16T08:53:35Z</time>
      </trkpt>
      <trkpt lat="47.58427" lon="-2.29477">
        <ele>27.9</ele>
        <time>2025-01-16T08:53:36Z</time>
      </trkpt>
      <trkpt lat="47.58425" lon="-2.29478">
        <ele>27.7</ele>
        <time>2025-01-16T08:53:37Z</time>
      </trkpt>
      <trkpt lat="47.58424" lon="-2.29478">
        <ele>27.7</ele>
        <time>2025-01-16T08:53:38Z</time>
      </trkpt>
      <trkpt lat="47.58423" lon="-2.29478">
        <ele>27.6</ele>
        <time>2025-01-16T08:53:39Z</time>
      </trkpt>
      <trkpt lat="47.58421" lon="-2.29478">
        <ele>27.5</ele>
        <time>2025-01-16T08:53:40Z</time>
      </trkpt>
      <trkpt lat="47.5842" lon="-2.29477">
        <ele>27.4</ele>
        <time>2025-01-16T08:53:41Z</time>
      </trkpt>
      <trkpt lat="47.58419" lon="-2.29476">
        <ele>27.3</ele>
        <time>2025-01-16T08:53:42Z</time>
      </trkpt>
      <trkpt lat="47.58418" lon="-2.29476">
        <ele>27.2</ele>
        <time>2025-01-16T08:53:43Z</time>
      </trkpt>
      <trkpt lat="47.58417" lon="-2.29474">
        <ele>27.1</ele>
        <time>2025-01-16T08:53:44Z</time>
      </trkpt>
      <trkpt lat="47.58417" lon="-2.29473">
        <ele>27.1</ele>
        <time>2025-01-16T08:53:45Z</time>
      </trkpt>
      <trkpt lat="47.58416" lon="-2.29473">
        <ele>27</ele>
        <time>2025-01-16T08:53:46Z</time>
      </trkpt>
      <trkpt lat="47.58416" lon="-2.29472">
        <ele>27</ele>
        <time>2025-01-16T08:53:47Z</time>
      </trkpt>
      <trkpt lat="47.58415" lon="-2.29472">
        <ele>26.9</ele>
        <time>2025-01-16T08:53:48Z</time>
      </trkpt>
      <trkpt lat="47.58414" lon="-2.29472">
        <ele>26.8</ele>
        <time>2025-01-16T08:53:49Z</time>
      </trkpt>
      <trkpt lat="47.58413" lon="-2.29472">
        <ele>26.8</ele>
        <time>2025-01-16T08:53:50Z</time>
      </trkpt>
      <trkpt lat="47.58411" lon="-2.29471">
        <ele>26.7</ele>
        <time>2025-01-16T08:53:51Z</time>
      </trkpt>
      <trkpt lat="47.5841" lon="-2.29471">
        <ele>26.6</ele>
        <time>2025-01-16T08:53:52Z</time>
      </trkpt>
      <trkpt lat="47.58409" lon="-2.29471">
        <ele>26.5</ele>
        <time>2025-01-16T08:53:53Z</time>
      </trkpt>
      <trkpt lat="47.58408" lon="-2.29471">
        <ele>26.5</ele>
        <time>2025-01-16T08:53:54Z</time>
      </trkpt>
      <trkpt lat="47.58407" lon="-2.29471">
        <ele>26.4</ele>
        <time>2025-01-16T08:53:55Z</time>
      </trkpt>
      <trkpt lat="47.58406" lon="-2.2947">
        <ele>26.4</ele>
        <time>2025-01-16T08:53:56Z</time>
      </trkpt>
      <trkpt lat="47.58405" lon="-2.2947">
        <ele>26.4</ele>
        <time>2025-01-16T08:53:57Z</time>
      </trkpt>
      <trkpt lat="47.58404" lon="-2.2947">
        <ele>26.3</ele>
        <time>2025-01-16T08:53:58Z</time>
      </trkpt>
      <trkpt lat="47.58404" lon="-2.2947">
        <ele>26.3</ele>
        <time>2025-01-16T08:53:59Z</time>
      </trkpt>
      <trkpt lat="47.58403" lon="-2.29469">
        <ele>26.3</ele>
        <time>2025-01-16T08:54:00Z</time>
      </trkpt>
      <trkpt lat="47.58402" lon="-2.29469">
        <ele>26.2</ele>
        <time>2025-01-16T08:54:01Z</time>
      </trkpt>
      <trkpt lat="47.58401" lon="-2.29469">
        <ele>26.2</ele>
        <time>2025-01-16T08:54:02Z</time>
      </trkpt>
      <trkpt lat="47.58399" lon="-2.29469">
        <ele>26</ele>
        <time>2025-01-16T08:54:03Z</time>
      </trkpt>
      <trkpt lat="47.58398" lon="-2.29469">
        <ele>26</ele>
        <time>2025-01-16T08:54:04Z</time>
      </trkpt>
      <trkpt lat="47.58396" lon="-2.29469">
        <ele>25.8</ele>
        <time>2025-01-16T08:54:05Z</time>
      </trkpt>
      <trkpt lat="47.58395" lon="-2.2947">
        <ele>25.7</ele>
        <time>2025-01-16T08:54:06Z</time>
      </trkpt>
      <trkpt lat="47.58393" lon="-2.2947">
        <ele>25.5</ele>
        <time>2025-01-16T08:54:07Z</time>
      </trkpt>
      <trkpt lat="47.58393" lon="-2.2947">
        <ele>25.5</ele>
        <time>2025-01-16T08:54:08Z</time>
      </trkpt>
      <trkpt lat="47.58392" lon="-2.2947">
        <ele>25.5</ele>
        <time>2025-01-16T08:54:09Z</time>
      </trkpt>
      <trkpt lat="47.58392" lon="-2.29471">
        <ele>25.4</ele>
        <time>2025-01-16T08:54:10Z</time>
      </trkpt>
      <trkpt lat="47.58391" lon="-2.29471">
        <ele>25.3</ele>
        <time>2025-01-16T08:54:11Z</time>
      </trkpt>
      <trkpt lat="47.58391" lon="-2.29471">
        <ele>25.3</ele>
        <time>2025-01-16T08:54:12Z</time>
      </trkpt>
      <trkpt lat="47.58389" lon="-2.29471">
        <ele>25.1</ele>
        <time>2025-01-16T08:54:13Z</time>
      </trkpt>
      <trkpt lat="47.58389" lon="-2.29471">
        <ele>25.1</ele>
        <time>2025-01-16T08:54:14Z</time>
      </trkpt>
      <trkpt lat="47.58388" lon="-2.29471">
        <ele>25.1</ele>
        <time>2025-01-16T08:54:15Z</time>
      </trkpt>
      <trkpt lat="47.58388" lon="-2.29471">
        <ele>25.1</ele>
        <time>2025-01-16T08:54:16Z</time>
      </trkpt>
      <trkpt lat="47.58387" lon="-2.2947">
        <ele>25.1</ele>
        <time>2025-01-16T08:54:17Z</time>
      </trkpt>
      <trkpt lat="47.58386" lon="-2.2947">
        <ele>25</ele>
        <time>2025-01-16T08:54:18Z</time>
      </trkpt>
      <trkpt lat="47.58385" lon="-2.2947">
        <ele>24.9</ele>
        <time>2025-01-16T08:54:19Z</time>
      </trkpt>
      <trkpt lat="47.58384" lon="-2.2947">
        <ele>24.9</ele>
        <time>2025-01-16T08:54:20Z</time>
      </trkpt>
      <trkpt lat="47.58382" lon="-2.2947">
        <ele>24.7</ele>
        <time>2025-01-16T08:54:21Z</time>
      </trkpt>
      <trkpt lat="47.5838" lon="-2.29469">
        <ele>24.7</ele>
        <time>2025-01-16T08:54:22Z</time>
      </trkpt>
      <trkpt lat="47.58379" lon="-2.29469">
        <ele>24.6</ele>
        <time>2025-01-16T08:54:23Z</time>
      </trkpt>
      <trkpt lat="47.58377" lon="-2.2947">
        <ele>24.3</ele>
        <time>2025-01-16T08:54:24Z</time>
      </trkpt>
      <trkpt lat="47.58375" lon="-2.2947">
        <ele>24.2</ele>
        <time>2025-01-16T08:54:25Z</time>
      </trkpt>
      <trkpt lat="47.58374" lon="-2.2947">
        <ele>24.1</ele>
        <time>2025-01-16T08:54:26Z</time>
      </trkpt>
      <trkpt lat="47.58372" lon="-2.2947">
        <ele>24</ele>
        <time>2025-01-16T08:54:27Z</time>
      </trkpt>
      <trkpt lat="47.58371" lon="-2.2947">
        <ele>23.9</ele>
        <time>2025-01-16T08:54:28Z</time>
      </trkpt>
      <trkpt lat="47.58369" lon="-2.2947">
        <ele>23.8</ele>
        <time>2025-01-16T08:54:29Z</time>
      </trkpt>
      <trkpt lat="47.58368" lon="-2.2947">
        <ele>23.7</ele>
        <time>2025-01-16T08:54:30Z</time>
      </trkpt>
      <trkpt lat="47.58367" lon="-2.2947">
        <ele>23.6</ele>
        <time>2025-01-16T08:54:31Z</time>
      </trkpt>
      <trkpt lat="47.58367" lon="-2.29471">
        <ele>23.5</ele>
        <time>2025-01-16T08:54:32Z</time>
      </trkpt>
      <trkpt lat="47.58366" lon="-2.29471">
        <ele>23.4</ele>
        <time>2025-01-16T08:54:33Z</time>
      </trkpt>
      <trkpt lat="47.58365" lon="-2.2947">
        <ele>23.5</ele>
        <time>2025-01-16T08:54:34Z</time>
      </trkpt>
      <trkpt lat="47.58363" lon="-2.29469">
        <ele>23.4</ele>
        <time>2025-01-16T08:54:35Z</time>
      </trkpt>
      <trkpt lat="47.58362" lon="-2.29469">
        <ele>23.3</ele>
        <time>2025-01-16T08:54:36Z</time>
      </trkpt>
      <trkpt lat="47.5836" lon="-2.29469">
        <ele>23.2</ele>
        <time>2025-01-16T08:54:37Z</time>
      </trkpt>
      <trkpt lat="47.58359" lon="-2.29469">
        <ele>23.1</ele>
        <time>2025-01-16T08:54:38Z</time>
      </trkpt>
      <trkpt lat="47.58358" lon="-2.29469">
        <ele>23</ele>
        <time>2025-01-16T08:54:39Z</time>
      </trkpt>
      <trkpt lat="47.58356" lon="-2.2947">
        <ele>22.8</ele>
        <time>2025-01-16T08:54:40Z</time>
      </trkpt>
      <trkpt lat="47.58355" lon="-2.2947">
        <ele>22.7</ele>
        <time>2025-01-16T08:54:41Z</time>
      </trkpt>
      <trkpt lat="47.58354" lon="-2.2947">
        <ele>22.6</ele>
        <time>2025-01-16T08:54:42Z</time>
      </trkpt>
      <trkpt lat="47.58352" lon="-2.29469">
        <ele>22.6</ele>
        <time>2025-01-16T08:54:43Z</time>
      </trkpt>
      <trkpt lat="47.58351" lon="-2.29469">
        <ele>22.5</ele>
        <time>2025-01-16T08:54:44Z</time>
      </trkpt>
      <trkpt lat="47.58349" lon="-2.29469">
        <ele>22.4</ele>
        <time>2025-01-16T08:54:45Z</time>
      </trkpt>
      <trkpt lat="47.58348" lon="-2.29468">
        <ele>22.4</ele>
        <time>2025-01-16T08:54:46Z</time>
      </trkpt>
      <trkpt lat="47.58347" lon="-2.29468">
        <ele>22.3</ele>
        <time>2025-01-16T08:54:47Z</time>
      </trkpt>
      <trkpt lat="47.58346" lon="-2.29468">
        <ele>22.2</ele>
        <time>2025-01-16T08:54:48Z</time>
      </trkpt>
      <trkpt lat="47.58344" lon="-2.29468">
        <ele>22.1</ele>
        <time>2025-01-16T08:54:49Z</time>
      </trkpt>
      <trkpt lat="47.58343" lon="-2.29468">
        <ele>22</ele>
        <time>2025-01-16T08:54:50Z</time>
      </trkpt>
      <trkpt lat="47.58342" lon="-2.29468">
        <ele>21.9</ele>
        <time>2025-01-16T08:54:51Z</time>
      </trkpt>
      <trkpt lat="47.5834" lon="-2.29468">
        <ele>21.8</ele>
        <time>2025-01-16T08:54:52Z</time>
      </trkpt>
      <trkpt lat="47.58339" lon="-2.29468">
        <ele>21.7</ele>
        <time>2025-01-16T08:54:53Z</time>
      </trkpt>
      <trkpt lat="47.58338" lon="-2.29468">
        <ele>21.6</ele>
        <time>2025-01-16T08:54:54Z</time>
      </trkpt>
      <trkpt lat="47.58337" lon="-2.29467">
        <ele>21.6</ele>
        <time>2025-01-16T08:54:55Z</time>
      </trkpt>
      <trkpt lat="47.58335" lon="-2.29466">
        <ele>21.6</ele>
        <time>2025-01-16T08:54:56Z</time>
      </trkpt>
      <trkpt lat="47.58334" lon="-2.29466">
        <ele>21.5</ele>
        <time>2025-01-16T08:54:57Z</time>
      </trkpt>
      <trkpt lat="47.58333" lon="-2.29465">
        <ele>21.5</ele>
        <time>2025-01-16T08:54:58Z</time>
      </trkpt>
      <trkpt lat="47.58332" lon="-2.29465">
        <ele>21.5</ele>
        <time>2025-01-16T08:54:59Z</time>
      </trkpt>
      <trkpt lat="47.58331" lon="-2.29464">
        <ele>21.5</ele>
        <time>2025-01-16T08:55:00Z</time>
      </trkpt>
      <trkpt lat="47.58331" lon="-2.29463">
        <ele>21.6</ele>
        <time>2025-01-16T08:55:01Z</time>
      </trkpt>
      <trkpt lat="47.5833" lon="-2.29462">
        <ele>21.6</ele>
        <time>2025-01-16T08:55:02Z</time>
      </trkpt>
      <trkpt lat="47.58329" lon="-2.29461">
        <ele>21.6</ele>
        <time>2025-01-16T08:55:03Z</time>
      </trkpt>
      <trkpt lat="47.58328" lon="-2.2946">
        <ele>21.6</ele>
        <time>2025-01-16T08:55:04Z</time>
      </trkpt>
      <trkpt lat="47.58326" lon="-2.29459">
        <ele>21.6</ele>
        <time>2025-01-16T08:55:05Z</time>
      </trkpt>
      <trkpt lat="47.58325" lon="-2.29459">
        <ele>21.5</ele>
        <time>2025-01-16T08:55:06Z</time>
      </trkpt>
      <trkpt lat="47.58324" lon="-2.29458">
        <ele>21.5</ele>
        <time>2025-01-16T08:55:07Z</time>
      </trkpt>
      <trkpt lat="47.58323" lon="-2.29458">
        <ele>21.5</ele>
        <time>2025-01-16T08:55:08Z</time>
      </trkpt>
      <trkpt lat="47.58322" lon="-2.29457">
        <ele>21.5</ele>
        <time>2025-01-16T08:55:09Z</time>
      </trkpt>
      <trkpt lat="47.58322" lon="-2.29457">
        <ele>21.5</ele>
        <time>2025-01-16T08:55:10Z</time>
      </trkpt>
      <trkpt lat="47.58321" lon="-2.29456">
        <ele>21.5</ele>
        <time>2025-01-16T08:55:11Z</time>
      </trkpt>
      <trkpt lat="47.58321" lon="-2.29455">
        <ele>21.5</ele>
        <time>2025-01-16T08:55:12Z</time>
      </trkpt>
      <trkpt lat="47.5832" lon="-2.29453">
        <ele>21.6</ele>
        <time>2025-01-16T08:55:13Z</time>
      </trkpt>
      <trkpt lat="47.58319" lon="-2.29452">
        <ele>21.6</ele>
        <time>2025-01-16T08:55:14Z</time>
      </trkpt>
      <trkpt lat="47.58318" lon="-2.29452">
        <ele>21.5</ele>
        <time>2025-01-16T08:55:15Z</time>
      </trkpt>
      <trkpt lat="47.58317" lon="-2.29451">
        <ele>21.5</ele>
        <time>2025-01-16T08:55:16Z</time>
      </trkpt>
      <trkpt lat="47.58315" lon="-2.2945">
        <ele>21.4</ele>
        <time>2025-01-16T08:55:17Z</time>
      </trkpt>
      <trkpt lat="47.58314" lon="-2.2945">
        <ele>21.3</ele>
        <time>2025-01-16T08:55:18Z</time>
      </trkpt>
      <trkpt lat="47.58312" lon="-2.29449">
        <ele>21.3</ele>
        <time>2025-01-16T08:55:19Z</time>
      </trkpt>
      <trkpt lat="47.58311" lon="-2.29449">
        <ele>21.2</ele>
        <time>2025-01-16T08:55:20Z</time>
      </trkpt>
      <trkpt lat="47.5831" lon="-2.29448">
        <ele>21.2</ele>
        <time>2025-01-16T08:55:21Z</time>
      </trkpt>
      <trkpt lat="47.58309" lon="-2.29448">
        <ele>21.1</ele>
        <time>2025-01-16T08:55:22Z</time>
      </trkpt>
      <trkpt lat="47.58308" lon="-2.29448">
        <ele>21</ele>
        <time>2025-01-16T08:55:23Z</time>
      </trkpt>
      <trkpt lat="47.58308" lon="-2.29447">
        <ele>21.1</ele>
        <time>2025-01-16T08:55:24Z</time>
      </trkpt>
      <trkpt lat="47.58307" lon="-2.29447">
        <ele>21</ele>
        <time>2025-01-16T08:55:25Z</time>
      </trkpt>
      <trkpt lat="47.58305" lon="-2.29446">
        <ele>20.9</ele>
        <time>2025-01-16T08:55:26Z</time>
      </trkpt>
      <trkpt lat="47.58304" lon="-2.29446">
        <ele>20.8</ele>
        <time>2025-01-16T08:55:27Z</time>
      </trkpt>
      <trkpt lat="47.58303" lon="-2.29446">
        <ele>20.7</ele>
        <time>2025-01-16T08:55:28Z</time>
      </trkpt>
      <trkpt lat="47.58301" lon="-2.29445">
        <ele>20.5</ele>
        <time>2025-01-16T08:55:29Z</time>
      </trkpt>
      <trkpt lat="47.583" lon="-2.29444">
        <ele>20.4</ele>
        <time>2025-01-16T08:55:30Z</time>
      </trkpt>
      <trkpt lat="47.58299" lon="-2.29443">
        <ele>20.4</ele>
        <time>2025-01-16T08:55:31Z</time>
      </trkpt>
      <trkpt lat="47.58298" lon="-2.29442">
        <ele>20.3</ele>
        <time>2025-01-16T08:55:32Z</time>
      </trkpt>
      <trkpt lat="47.58297" lon="-2.29442">
        <ele>20.2</ele>
        <time>2025-01-16T08:55:33Z</time>
      </trkpt>
      <trkpt lat="47.58296" lon="-2.29441">
        <ele>20.2</ele>
        <time>2025-01-16T08:55:34Z</time>
      </trkpt>
      <trkpt lat="47.58295" lon="-2.2944">
        <ele>20.1</ele>
        <time>2025-01-16T08:55:35Z</time>
      </trkpt>
      <trkpt lat="47.58294" lon="-2.29439">
        <ele>20.1</ele>
        <time>2025-01-16T08:55:36Z</time>
      </trkpt>
      <trkpt lat="47.58293" lon="-2.29438">
        <ele>20</ele>
        <time>2025-01-16T08:55:37Z</time>
      </trkpt>
      <trkpt lat="47.58292" lon="-2.29437">
        <ele>19.9</ele>
        <time>2025-01-16T08:55:38Z</time>
      </trkpt>
      <trkpt lat="47.58291" lon="-2.29437">
        <ele>19.8</ele>
        <time>2025-01-16T08:55:39Z</time>
      </trkpt>
      <trkpt lat="47.5829" lon="-2.29437">
        <ele>19.7</ele>
        <time>2025-01-16T08:55:40Z</time>
      </trkpt>
      <trkpt lat="47.58288" lon="-2.29436">
        <ele>19.5</ele>
        <time>2025-01-16T08:55:41Z</time>
      </trkpt>
      <trkpt lat="47.58287" lon="-2.29436">
        <ele>19.4</ele>
        <time>2025-01-16T08:55:42Z</time>
      </trkpt>
      <trkpt lat="47.58286" lon="-2.29436">
        <ele>19.3</ele>
        <time>2025-01-16T08:55:43Z</time>
      </trkpt>
      <trkpt lat="47.58285" lon="-2.29435">
        <ele>19.2</ele>
        <time>2025-01-16T08:55:44Z</time>
      </trkpt>
      <trkpt lat="47.58284" lon="-2.29434">
        <ele>19.1</ele>
        <time>2025-01-16T08:55:45Z</time>
      </trkpt>
      <trkpt lat="47.58283" lon="-2.29433">
        <ele>19.1</ele>
        <time>2025-01-16T08:55:46Z</time>
      </trkpt>
      <trkpt lat="47.58282" lon="-2.29432">
        <ele>19</ele>
        <time>2025-01-16T08:55:47Z</time>
      </trkpt>
      <trkpt lat="47.58281" lon="-2.29431">
        <ele>18.9</ele>
        <time>2025-01-16T08:55:48Z</time>
      </trkpt>
      <trkpt lat="47.58279" lon="-2.2943">
        <ele>18.7</ele>
        <time>2025-01-16T08:55:49Z</time>
      </trkpt>
      <trkpt lat="47.58278" lon="-2.2943">
        <ele>18.5</ele>
        <time>2025-01-16T08:55:50Z</time>
      </trkpt>
      <trkpt lat="47.58277" lon="-2.2943">
        <ele>18.4</ele>
        <time>2025-01-16T08:55:51Z</time>
      </trkpt>
      <trkpt lat="47.58276" lon="-2.2943">
        <ele>18.4</ele>
        <time>2025-01-16T08:55:52Z</time>
      </trkpt>
      <trkpt lat="47.58275" lon="-2.29429">
        <ele>18.3</ele>
        <time>2025-01-16T08:55:53Z</time>
      </trkpt>
      <trkpt lat="47.58273" lon="-2.29429">
        <ele>18.1</ele>
        <time>2025-01-16T08:55:54Z</time>
      </trkpt>
      <trkpt lat="47.58273" lon="-2.29429">
        <ele>18.1</ele>
        <time>2025-01-16T08:55:55Z</time>
      </trkpt>
      <trkpt lat="47.58272" lon="-2.29429">
        <ele>18</ele>
        <time>2025-01-16T08:55:56Z</time>
      </trkpt>
      <trkpt lat="47.58271" lon="-2.29428">
        <ele>17.9</ele>
        <time>2025-01-16T08:55:57Z</time>
      </trkpt>
      <trkpt lat="47.5827" lon="-2.29427">
        <ele>17.8</ele>
        <time>2025-01-16T08:55:58Z</time>
      </trkpt>
      <trkpt lat="47.58269" lon="-2.29426">
        <ele>17.7</ele>
        <time>2025-01-16T08:55:59Z</time>
      </trkpt>
      <trkpt lat="47.58269" lon="-2.29425">
        <ele>17.7</ele>
        <time>2025-01-16T08:56:00Z</time>
      </trkpt>
      <trkpt lat="47.58268" lon="-2.29424">
        <ele>17.6</ele>
        <time>2025-01-16T08:56:01Z</time>
      </trkpt>
      <trkpt lat="47.58267" lon="-2.29424">
        <ele>17.5</ele>
        <time>2025-01-16T08:56:02Z</time>
      </trkpt>
      <trkpt lat="47.58267" lon="-2.29423">
        <ele>17.5</ele>
        <time>2025-01-16T08:56:03Z</time>
      </trkpt>
      <trkpt lat="47.58266" lon="-2.29422">
        <ele>17.4</ele>
        <time>2025-01-16T08:56:04Z</time>
      </trkpt>
      <trkpt lat="47.58264" lon="-2.29422">
        <ele>17.1</ele>
        <time>2025-01-16T08:56:05Z</time>
      </trkpt>
      <trkpt lat="47.58263" lon="-2.29421">
        <ele>17</ele>
        <time>2025-01-16T08:56:06Z</time>
      </trkpt>
      <trkpt lat="47.58263" lon="-2.29421">
        <ele>17</ele>
        <time>2025-01-16T08:56:07Z</time>
      </trkpt>
      <trkpt lat="47.58262" lon="-2.29421">
        <ele>16.8</ele>
        <time>2025-01-16T08:56:08Z</time>
      </trkpt>
      <trkpt lat="47.58261" lon="-2.29421">
        <ele>16.7</ele>
        <time>2025-01-16T08:56:09Z</time>
      </trkpt>
      <trkpt lat="47.5826" lon="-2.29421">
        <ele>16.6</ele>
        <time>2025-01-16T08:56:10Z</time>
      </trkpt>
      <trkpt lat="47.58258" lon="-2.29421">
        <ele>16.3</ele>
        <time>2025-01-16T08:56:11Z</time>
      </trkpt>
      <trkpt lat="47.58257" lon="-2.2942">
        <ele>16.2</ele>
        <time>2025-01-16T08:56:12Z</time>
      </trkpt>
      <trkpt lat="47.58256" lon="-2.2942">
        <ele>16</ele>
        <time>2025-01-16T08:56:13Z</time>
      </trkpt>
      <trkpt lat="47.58254" lon="-2.29419">
        <ele>15.7</ele>
        <time>2025-01-16T08:56:14Z</time>
      </trkpt>
      <trkpt lat="47.58253" lon="-2.29418">
        <ele>15.5</ele>
        <time>2025-01-16T08:56:15Z</time>
      </trkpt>
      <trkpt lat="47.58252" lon="-2.29417">
        <ele>15.3</ele>
        <time>2025-01-16T08:56:16Z</time>
      </trkpt>
      <trkpt lat="47.58252" lon="-2.29417">
        <ele>15.3</ele>
        <time>2025-01-16T08:56:17Z</time>
      </trkpt>
      <trkpt lat="47.58251" lon="-2.29416">
        <ele>15.2</ele>
        <time>2025-01-16T08:56:18Z</time>
      </trkpt>
      <trkpt lat="47.5825" lon="-2.29415">
        <ele>15.2</ele>
        <time>2025-01-16T08:56:19Z</time>
      </trkpt>
      <trkpt lat="47.58249" lon="-2.29414">
        <ele>15.2</ele>
        <time>2025-01-16T08:56:20Z</time>
      </trkpt>
      <trkpt lat="47.58248" lon="-2.29413">
        <ele>15.3</ele>
        <time>2025-01-16T08:56:21Z</time>
      </trkpt>
      <trkpt lat="47.58248" lon="-2.29413">
        <ele>15.3</ele>
        <time>2025-01-16T08:56:22Z</time>
      </trkpt>
      <trkpt lat="47.58248" lon="-2.29413">
        <ele>15.3</ele>
        <time>2025-01-16T08:56:23Z</time>
      </trkpt>
      <trkpt lat="47.58247" lon="-2.29413">
        <ele>15.2</ele>
        <time>2025-01-16T08:56:24Z</time>
      </trkpt>
      <trkpt lat="47.58247" lon="-2.29412">
        <ele>15.3</ele>
        <time>2025-01-16T08:56:25Z</time>
      </trkpt>
      <trkpt lat="47.58247" lon="-2.29412">
        <ele>15.3</ele>
        <time>2025-01-16T08:56:26Z</time>
      </trkpt>
      <trkpt lat="47.58246" lon="-2.29412">
        <ele>15.2</ele>
        <time>2025-01-16T08:56:27Z</time>
      </trkpt>
      <trkpt lat="47.58246" lon="-2.29412">
        <ele>15.2</ele>
        <time>2025-01-16T08:56:28Z</time>
      </trkpt>
      <trkpt lat="47.58245" lon="-2.29411">
        <ele>15.2</ele>
        <time>2025-01-16T08:56:29Z</time>
      </trkpt>
      <trkpt lat="47.58245" lon="-2.2941">
        <ele>15.3</ele>
        <time>2025-01-16T08:56:30Z</time>
      </trkpt>
      <trkpt lat="47.58244" lon="-2.29409">
        <ele>15.3</ele>
        <time>2025-01-16T08:56:31Z</time>
      </trkpt>
      <trkpt lat="47.58244" lon="-2.29409">
        <ele>15.3</ele>
        <time>2025-01-16T08:56:32Z</time>
      </trkpt>
      <trkpt lat="47.58242" lon="-2.29408">
        <ele>15.2</ele>
        <time>2025-01-16T08:56:33Z</time>
      </trkpt>
      <trkpt lat="47.5824" lon="-2.29407">
        <ele>15.1</ele>
        <time>2025-01-16T08:56:34Z</time>
      </trkpt>
      <trkpt lat="47.58239" lon="-2.29406">
        <ele>15</ele>
        <time>2025-01-16T08:56:35Z</time>
      </trkpt>
      <trkpt lat="47.58238" lon="-2.29405">
        <ele>14.9</ele>
        <time>2025-01-16T08:56:36Z</time>
      </trkpt>
      <trkpt lat="47.58236" lon="-2.29403">
        <ele>14.7</ele>
        <time>2025-01-16T08:56:37Z</time>
      </trkpt>
      <trkpt lat="47.58235" lon="-2.29402">
        <ele>14.6</ele>
        <time>2025-01-16T08:56:38Z</time>
      </trkpt>
      <trkpt lat="47.58233" lon="-2.29401">
        <ele>14.4</ele>
        <time>2025-01-16T08:56:39Z</time>
      </trkpt>
      <trkpt lat="47.58232" lon="-2.294">
        <ele>14.2</ele>
        <time>2025-01-16T08:56:40Z</time>
      </trkpt>
      <trkpt lat="47.5823" lon="-2.29399">
        <ele>13.9</ele>
        <time>2025-01-16T08:56:41Z</time>
      </trkpt>
      <trkpt lat="47.58229" lon="-2.29397">
        <ele>13.7</ele>
        <time>2025-01-16T08:56:42Z</time>
      </trkpt>
      <trkpt lat="47.58228" lon="-2.29396">
        <ele>13.5</ele>
        <time>2025-01-16T08:56:43Z</time>
      </trkpt>
      <trkpt lat="47.58227" lon="-2.29395">
        <ele>13.3</ele>
        <time>2025-01-16T08:56:44Z</time>
      </trkpt>
      <trkpt lat="47.58226" lon="-2.29394">
        <ele>13.1</ele>
        <time>2025-01-16T08:56:45Z</time>
      </trkpt>
      <trkpt lat="47.58225" lon="-2.29393">
        <ele>12.8</ele>
        <time>2025-01-16T08:56:46Z</time>
      </trkpt>
      <trkpt lat="47.58224" lon="-2.29392">
        <ele>12.6</ele>
        <time>2025-01-16T08:56:47Z</time>
      </trkpt>
      <trkpt lat="47.58222" lon="-2.29391">
        <ele>12.1</ele>
        <time>2025-01-16T08:56:48Z</time>
      </trkpt>
      <trkpt lat="47.58221" lon="-2.2939">
        <ele>11.9</ele>
        <time>2025-01-16T08:56:49Z</time>
      </trkpt>
      <trkpt lat="47.58219" lon="-2.2939">
        <ele>11.6</ele>
        <time>2025-01-16T08:56:50Z</time>
      </trkpt>
      <trkpt lat="47.58218" lon="-2.2939">
        <ele>11.5</ele>
        <time>2025-01-16T08:56:51Z</time>
      </trkpt>
      <trkpt lat="47.58218" lon="-2.2939">
        <ele>11.5</ele>
        <time>2025-01-16T08:56:52Z</time>
      </trkpt>
      <trkpt lat="47.58217" lon="-2.29389">
        <ele>11.3</ele>
        <time>2025-01-16T08:56:53Z</time>
      </trkpt>
      <trkpt lat="47.58216" lon="-2.29388">
        <ele>11.2</ele>
        <time>2025-01-16T08:56:54Z</time>
      </trkpt>
      <trkpt lat="47.58215" lon="-2.29388">
        <ele>11.1</ele>
        <time>2025-01-16T08:56:55Z</time>
      </trkpt>
      <trkpt lat="47.58213" lon="-2.29387">
        <ele>10.9</ele>
        <time>2025-01-16T08:56:56Z</time>
      </trkpt>
      <trkpt lat="47.58212" lon="-2.29387">
        <ele>10.7</ele>
        <time>2025-01-16T08:56:57Z</time>
      </trkpt>
      <trkpt lat="47.58211" lon="-2.29386">
        <ele>10.7</ele>
        <time>2025-01-16T08:56:58Z</time>
      </trkpt>
      <trkpt lat="47.58211" lon="-2.29385">
        <ele>10.8</ele>
        <time>2025-01-16T08:56:59Z</time>
      </trkpt>
      <trkpt lat="47.58211" lon="-2.29384">
        <ele>10.9</ele>
        <time>2025-01-16T08:57:00Z</time>
      </trkpt>
      <trkpt lat="47.5821" lon="-2.29383">
        <ele>10.8</ele>
        <time>2025-01-16T08:57:01Z</time>
      </trkpt>
      <trkpt lat="47.58209" lon="-2.29382">
        <ele>10.7</ele>
        <time>2025-01-16T08:57:02Z</time>
      </trkpt>
      <trkpt lat="47.58208" lon="-2.29381">
        <ele>10.7</ele>
        <time>2025-01-16T08:57:03Z</time>
      </trkpt>
      <trkpt lat="47.58208" lon="-2.2938">
        <ele>10.7</ele>
        <time>2025-01-16T08:57:04Z</time>
      </trkpt>
      <trkpt lat="47.58208" lon="-2.29378">
        <ele>10.9</ele>
        <time>2025-01-16T08:57:05Z</time>
      </trkpt>
      <trkpt lat="47.58208" lon="-2.29377">
        <ele>11</ele>
        <time>2025-01-16T08:57:06Z</time>
      </trkpt>
      <trkpt lat="47.58207" lon="-2.29375">
        <ele>11</ele>
        <time>2025-01-16T08:57:07Z</time>
      </trkpt>
      <trkpt lat="47.58207" lon="-2.29373">
        <ele>11.2</ele>
        <time>2025-01-16T08:57:08Z</time>
      </trkpt>
      <trkpt lat="47.58206" lon="-2.29371">
        <ele>11.1</ele>
        <time>2025-01-16T08:57:09Z</time>
      </trkpt>
      <trkpt lat="47.58206" lon="-2.2937">
        <ele>11.2</ele>
        <time>2025-01-16T08:57:10Z</time>
      </trkpt>
      <trkpt lat="47.58206" lon="-2.29368">
        <ele>11.4</ele>
        <time>2025-01-16T08:57:11Z</time>
      </trkpt>
      <trkpt lat="47.58206" lon="-2.29366">
        <ele>11.5</ele>
        <time>2025-01-16T08:57:12Z</time>
      </trkpt>
      <trkpt lat="47.58205" lon="-2.29364">
        <ele>11.4</ele>
        <time>2025-01-16T08:57:13Z</time>
      </trkpt>
      <trkpt lat="47.58205" lon="-2.29362">
        <ele>11.6</ele>
        <time>2025-01-16T08:57:14Z</time>
      </trkpt>
      <trkpt lat="47.58205" lon="-2.2936">
        <ele>11.7</ele>
        <time>2025-01-16T08:57:15Z</time>
      </trkpt>
      <trkpt lat="47.58205" lon="-2.29358">
        <ele>11.7</ele>
        <time>2025-01-16T08:57:16Z</time>
      </trkpt>
      <trkpt lat="47.58205" lon="-2.29357">
        <ele>11.7</ele>
        <time>2025-01-16T08:57:17Z</time>
      </trkpt>
      <trkpt lat="47.58206" lon="-2.29355">
        <ele>12</ele>
        <time>2025-01-16T08:57:18Z</time>
      </trkpt>
      <trkpt lat="47.58206" lon="-2.29353">
        <ele>12</ele>
        <time>2025-01-16T08:57:19Z</time>
      </trkpt>
      <trkpt lat="47.58206" lon="-2.29352">
        <ele>12</ele>
        <time>2025-01-16T08:57:20Z</time>
      </trkpt>
      <trkpt lat="47.58207" lon="-2.29351">
        <ele>12.3</ele>
        <time>2025-01-16T08:57:21Z</time>
      </trkpt>
      <trkpt lat="47.58207" lon="-2.2935">
        <ele>12.3</ele>
        <time>2025-01-16T08:57:22Z</time>
      </trkpt>
      <trkpt lat="47.58207" lon="-2.29348">
        <ele>12.4</ele>
        <time>2025-01-16T08:57:23Z</time>
      </trkpt>
      <trkpt lat="47.58207" lon="-2.29347">
        <ele>12.4</ele>
        <time>2025-01-16T08:57:24Z</time>
      </trkpt>
      <trkpt lat="47.58206" lon="-2.29346">
        <ele>12.1</ele>
        <time>2025-01-16T08:57:25Z</time>
      </trkpt>
      <trkpt lat="47.58204" lon="-2.29344">
        <ele>11.6</ele>
        <time>2025-01-16T08:57:26Z</time>
      </trkpt>
      <trkpt lat="47.58203" lon="-2.29343">
        <ele>11.4</ele>
        <time>2025-01-16T08:57:27Z</time>
      </trkpt>
      <trkpt lat="47.58202" lon="-2.29342">
        <ele>11.1</ele>
        <time>2025-01-16T08:57:28Z</time>
      </trkpt>
      <trkpt lat="47.58202" lon="-2.29342">
        <ele>11.1</ele>
        <time>2025-01-16T08:57:29Z</time>
      </trkpt>
      <trkpt lat="47.582" lon="-2.29342">
        <ele>10.5</ele>
        <time>2025-01-16T08:57:30Z</time>
      </trkpt>
      <trkpt lat="47.58199" lon="-2.29342">
        <ele>10.3</ele>
        <time>2025-01-16T08:57:31Z</time>
      </trkpt>
      <trkpt lat="47.58198" lon="-2.29342">
        <ele>10</ele>
        <time>2025-01-16T08:57:32Z</time>
      </trkpt>
      <trkpt lat="47.58197" lon="-2.29342">
        <ele>9.7</ele>
        <time>2025-01-16T08:57:33Z</time>
      </trkpt>
      <trkpt lat="47.58195" lon="-2.29341">
        <ele>9.2</ele>
        <time>2025-01-16T08:57:34Z</time>
      </trkpt>
      <trkpt lat="47.58194" lon="-2.29341">
        <ele>9</ele>
        <time>2025-01-16T08:57:35Z</time>
      </trkpt>
      <trkpt lat="47.58192" lon="-2.29341">
        <ele>8.9</ele>
        <time>2025-01-16T08:57:36Z</time>
      </trkpt>
      <trkpt lat="47.58191" lon="-2.2934">
        <ele>8.9</ele>
        <time>2025-01-16T08:57:37Z</time>
      </trkpt>
      <trkpt lat="47.58189" lon="-2.2934">
        <ele>8.8</ele>
        <time>2025-01-16T08:57:38Z</time>
      </trkpt>
      <trkpt lat="47.58188" lon="-2.2934">
        <ele>8.8</ele>
        <time>2025-01-16T08:57:39Z</time>
      </trkpt>
      <trkpt lat="47.58187" lon="-2.29339">
        <ele>8.7</ele>
        <time>2025-01-16T08:57:40Z</time>
      </trkpt>
      <trkpt lat="47.58187" lon="-2.29338">
        <ele>8.7</ele>
        <time>2025-01-16T08:57:41Z</time>
      </trkpt>
      <trkpt lat="47.58186" lon="-2.29337">
        <ele>8.7</ele>
        <time>2025-01-16T08:57:42Z</time>
      </trkpt>
      <trkpt lat="47.58186" lon="-2.29336">
        <ele>8.7</ele>
        <time>2025-01-16T08:57:43Z</time>
      </trkpt>
      <trkpt lat="47.58185" lon="-2.29336">
        <ele>8.7</ele>
        <time>2025-01-16T08:57:44Z</time>
      </trkpt>
      <trkpt lat="47.58185" lon="-2.29337">
        <ele>8.7</ele>
        <time>2025-01-16T08:57:45Z</time>
      </trkpt>
      <trkpt lat="47.58184" lon="-2.29336">
        <ele>8.6</ele>
        <time>2025-01-16T08:57:46Z</time>
      </trkpt>
      <trkpt lat="47.58182" lon="-2.29336">
        <ele>8.6</ele>
        <time>2025-01-16T08:57:47Z</time>
      </trkpt>
      <trkpt lat="47.58181" lon="-2.29336">
        <ele>8.5</ele>
        <time>2025-01-16T08:57:48Z</time>
      </trkpt>
      <trkpt lat="47.58181" lon="-2.29336">
        <ele>8.5</ele>
        <time>2025-01-16T08:57:49Z</time>
      </trkpt>
      <trkpt lat="47.5818" lon="-2.29336">
        <ele>8.5</ele>
        <time>2025-01-16T08:57:50Z</time>
      </trkpt>
      <trkpt lat="47.5818" lon="-2.29336">
        <ele>8.5</ele>
        <time>2025-01-16T08:57:51Z</time>
      </trkpt>
      <trkpt lat="47.58179" lon="-2.29336">
        <ele>8.4</ele>
        <time>2025-01-16T08:57:52Z</time>
      </trkpt>
      <trkpt lat="47.58178" lon="-2.29336">
        <ele>8.4</ele>
        <time>2025-01-16T08:57:53Z</time>
      </trkpt>
      <trkpt lat="47.58177" lon="-2.29337">
        <ele>8.4</ele>
        <time>2025-01-16T08:57:54Z</time>
      </trkpt>
      <trkpt lat="47.58175" lon="-2.29337">
        <ele>8.3</ele>
        <time>2025-01-16T08:57:55Z</time>
      </trkpt>
      <trkpt lat="47.58174" lon="-2.29337">
        <ele>8.3</ele>
        <time>2025-01-16T08:57:56Z</time>
      </trkpt>
      <trkpt lat="47.58173" lon="-2.29338">
        <ele>8.2</ele>
        <time>2025-01-16T08:57:57Z</time>
      </trkpt>
      <trkpt lat="47.58172" lon="-2.29338">
        <ele>8.2</ele>
        <time>2025-01-16T08:57:58Z</time>
      </trkpt>
      <trkpt lat="47.58171" lon="-2.29337">
        <ele>8.2</ele>
        <time>2025-01-16T08:57:59Z</time>
      </trkpt>
      <trkpt lat="47.5817" lon="-2.29338">
        <ele>8.1</ele>
        <time>2025-01-16T08:58:00Z</time>
      </trkpt>
      <trkpt lat="47.58168" lon="-2.29339">
        <ele>8</ele>
        <time>2025-01-16T08:58:01Z</time>
      </trkpt>
      <trkpt lat="47.58167" lon="-2.2934">
        <ele>8</ele>
        <time>2025-01-16T08:58:02Z</time>
      </trkpt>
      <trkpt lat="47.58167" lon="-2.2934">
        <ele>8</ele>
        <time>2025-01-16T08:58:03Z</time>
      </trkpt>
      <trkpt lat="47.58166" lon="-2.29341">
        <ele>8.2</ele>
        <time>2025-01-16T08:58:04Z</time>
      </trkpt>
      <trkpt lat="47.58166" lon="-2.29341">
        <ele>8.2</ele>
        <time>2025-01-16T08:58:05Z</time>
      </trkpt>
      <trkpt lat="47.58166" lon="-2.29341">
        <ele>8.2</ele>
        <time>2025-01-16T08:58:06Z</time>
      </trkpt>
      <trkpt lat="47.58166" lon="-2.29341">
        <ele>8.2</ele>
        <time>2025-01-16T08:58:07Z</time>
      </trkpt>
      <trkpt lat="47.58165" lon="-2.29342">
        <ele>8.5</ele>
        <time>2025-01-16T08:58:08Z</time>
      </trkpt>
      <trkpt lat="47.58165" lon="-2.29341">
        <ele>8.5</ele>
        <time>2025-01-16T08:58:09Z</time>
      </trkpt>
      <trkpt lat="47.58165" lon="-2.29341">
        <ele>8.5</ele>
        <time>2025-01-16T08:58:10Z</time>
      </trkpt>
      <trkpt lat="47.58165" lon="-2.29341">
        <ele>8.5</ele>
        <time>2025-01-16T08:58:11Z</time>
      </trkpt>
      <trkpt lat="47.58165" lon="-2.29341">
        <ele>8.5</ele>
        <time>2025-01-16T08:58:12Z</time>
      </trkpt>
      <trkpt lat="47.58165" lon="-2.29341">
        <ele>8.5</ele>
        <time>2025-01-16T08:58:13Z</time>
      </trkpt>
      <trkpt lat="47.58165" lon="-2.29341">
        <ele>8.5</ele>
        <time>2025-01-16T08:58:14Z</time>
      </trkpt>
      <trkpt lat="47.58165" lon="-2.29341">
        <ele>8.5</ele>
        <time>2025-01-16T08:58:15Z</time>
      </trkpt>
      <trkpt lat="47.58165" lon="-2.29341">
        <ele>8.5</ele>
        <time>2025-01-16T08:58:16Z</time>
      </trkpt>
      <trkpt lat="47.58165" lon="-2.29341">
        <ele>8.5</ele>
        <time>2025-01-16T08:58:17Z</time>
      </trkpt>
      <trkpt lat="47.58165" lon="-2.29341">
        <ele>8.5</ele>
        <time>2025-01-16T08:58:18Z</time>
      </trkpt>
      <trkpt lat="47.58165" lon="-2.29341">
        <ele>8.5</ele>
        <time>2025-01-16T08:58:19Z</time>
      </trkpt>
      <trkpt lat="47.58165" lon="-2.29341">
        <ele>8.5</ele>
        <time>2025-01-16T08:58:20Z</time>
      </trkpt>
      <trkpt lat="47.58165" lon="-2.29341">
        <ele>8.5</ele>
        <time>2025-01-16T08:58:21Z</time>
      </trkpt>
      <trkpt lat="47.58165" lon="-2.29341">
        <ele>8.5</ele>
        <time>2025-01-16T08:58:22Z</time>
      </trkpt>
      <trkpt lat="47.58165" lon="-2.29341">
        <ele>8.5</ele>
        <time>2025-01-16T08:58:23Z</time>
      </trkpt>
      <trkpt lat="47.58165" lon="-2.29341">
        <ele>8.5</ele>
        <time>2025-01-16T08:58:24Z</time>
      </trkpt>
      <trkpt lat="47.58165" lon="-2.29341">
        <ele>8.5</ele>
        <time>2025-01-16T08:58:25Z</time>
      </trkpt>
      <trkpt lat="47.58165" lon="-2.29341">
        <ele>8.5</ele>
        <time>2025-01-16T08:58:26Z</time>
      </trkpt>
      <trkpt lat="47.58165" lon="-2.29341">
        <ele>8.5</ele>
        <time>2025-01-16T08:58:27Z</time>
      </trkpt>
      <trkpt lat="47.58165" lon="-2.29341">
        <ele>8.5</ele>
        <time>2025-01-16T08:58:28Z</time>
      </trkpt>
      <trkpt lat="47.58165" lon="-2.2934">
        <ele>8.5</ele>
        <time>2025-01-16T08:58:29Z</time>
      </trkpt>
      <trkpt lat="47.58165" lon="-2.29341">
        <ele>8.5</ele>
        <time>2025-01-16T08:58:30Z</time>
      </trkpt>
      <trkpt lat="47.58165" lon="-2.29341">
        <ele>8.5</ele>
        <time>2025-01-16T08:58:31Z</time>
      </trkpt>
      <trkpt lat="47.58164" lon="-2.29341">
        <ele>8.8</ele>
        <time>2025-01-16T08:58:32Z</time>
      </trkpt>
      <trkpt lat="47.58165" lon="-2.29341">
        <ele>8.5</ele>
        <time>2025-01-16T08:58:33Z</time>
      </trkpt>
      <trkpt lat="47.58165" lon="-2.29341">
        <ele>8.5</ele>
        <time>2025-01-16T08:58:34Z</time>
      </trkpt>
      <trkpt lat="47.58165" lon="-2.2934">
        <ele>8.5</ele>
        <time>2025-01-16T08:58:35Z</time>
      </trkpt>
      <trkpt lat="47.58165" lon="-2.29339">
        <ele>8.5</ele>
        <time>2025-01-16T08:58:36Z</time>
      </trkpt>
      <trkpt lat="47.58165" lon="-2.29339">
        <ele>8.5</ele>
        <time>2025-01-16T08:58:37Z</time>
      </trkpt>
      <trkpt lat="47.58164" lon="-2.29339">
        <ele>8.8</ele>
        <time>2025-01-16T08:58:38Z</time>
      </trkpt>
      <trkpt lat="47.58164" lon="-2.29339">
        <ele>8.8</ele>
        <time>2025-01-16T08:58:39Z</time>
      </trkpt>
      <trkpt lat="47.58164" lon="-2.29338">
        <ele>8.8</ele>
        <time>2025-01-16T08:58:40Z</time>
      </trkpt>
      <trkpt lat="47.58164" lon="-2.29338">
        <ele>8.8</ele>
        <time>2025-01-16T08:58:41Z</time>
      </trkpt>
      <trkpt lat="47.58164" lon="-2.29338">
        <ele>8.8</ele>
        <time>2025-01-16T08:58:42Z</time>
      </trkpt>
      <trkpt lat="47.58164" lon="-2.29337">
        <ele>8.8</ele>
        <time>2025-01-16T08:58:43Z</time>
      </trkpt>
      <trkpt lat="47.58164" lon="-2.29337">
        <ele>8.8</ele>
        <time>2025-01-16T08:58:44Z</time>
      </trkpt>
      <trkpt lat="47.58164" lon="-2.29337">
        <ele>8.8</ele>
        <time>2025-01-16T08:58:45Z</time>
      </trkpt>
      <trkpt lat="47.58164" lon="-2.29337">
        <ele>8.8</ele>
        <time>2025-01-16T08:58:46Z</time>
      </trkpt>
      <trkpt lat="47.58164" lon="-2.29337">
        <ele>8.8</ele>
        <time>2025-01-16T08:58:47Z</time>
      </trkpt>
      <trkpt lat="47.58164" lon="-2.29336">
        <ele>8.8</ele>
        <time>2025-01-16T08:58:48Z</time>
      </trkpt>
      <trkpt lat="47.58164" lon="-2.29336">
        <ele>8.8</ele>
        <time>2025-01-16T08:58:49Z</time>
      </trkpt>
      <trkpt lat="47.58164" lon="-2.29336">
        <ele>8.8</ele>
        <time>2025-01-16T08:58:50Z</time>
      </trkpt>
      <trkpt lat="47.58164" lon="-2.29336">
        <ele>8.8</ele>
        <time>2025-01-16T08:58:51Z</time>
      </trkpt>
      <trkpt lat="47.58164" lon="-2.29335">
        <ele>8.8</ele>
        <time>2025-01-16T08:58:52Z</time>
      </trkpt>
      <trkpt lat="47.58164" lon="-2.29335">
        <ele>8.8</ele>
        <time>2025-01-16T08:58:53Z</time>
      </trkpt>
      <trkpt lat="47.58164" lon="-2.29335">
        <ele>8.8</ele>
        <time>2025-01-16T08:58:54Z</time>
      </trkpt>
      <trkpt lat="47.58164" lon="-2.29335">
        <ele>8.8</ele>
        <time>2025-01-16T08:58:55Z</time>
      </trkpt>
      <trkpt lat="47.58164" lon="-2.29335">
        <ele>8.8</ele>
        <time>2025-01-16T08:58:56Z</time>
      </trkpt>
      <trkpt lat="47.58164" lon="-2.29335">
        <ele>8.8</ele>
        <time>2025-01-16T08:58:57Z</time>
      </trkpt>
      <trkpt lat="47.58165" lon="-2.29335">
        <ele>8.5</ele>
        <time>2025-01-16T08:58:58Z</time>
      </trkpt>
      <trkpt lat="47.58165" lon="-2.29334">
        <ele>8.5</ele>
        <time>2025-01-16T08:58:59Z</time>
      </trkpt>
      <trkpt lat="47.58166" lon="-2.29334">
        <ele>8.2</ele>
        <time>2025-01-16T08:59:00Z</time>
      </trkpt>
      <trkpt lat="47.58167" lon="-2.29334">
        <ele>8</ele>
        <time>2025-01-16T08:59:01Z</time>
      </trkpt>
      <trkpt lat="47.58169" lon="-2.29334">
        <ele>8.1</ele>
        <time>2025-01-16T08:59:02Z</time>
      </trkpt>
      <trkpt lat="47.5817" lon="-2.29334">
        <ele>8.1</ele>
        <time>2025-01-16T08:59:03Z</time>
      </trkpt>
      <trkpt lat="47.5817" lon="-2.29335">
        <ele>8.1</ele>
        <time>2025-01-16T08:59:04Z</time>
      </trkpt>
      <trkpt lat="47.58171" lon="-2.29335">
        <ele>8.2</ele>
        <time>2025-01-16T08:59:05Z</time>
      </trkpt>
      <trkpt lat="47.58171" lon="-2.29335">
        <ele>8.2</ele>
        <time>2025-01-16T08:59:06Z</time>
      </trkpt>
      <trkpt lat="47.58171" lon="-2.29334">
        <ele>8.2</ele>
        <time>2025-01-16T08:59:07Z</time>
      </trkpt>
      <trkpt lat="47.58171" lon="-2.29334">
        <ele>8.2</ele>
        <time>2025-01-16T08:59:08Z</time>
      </trkpt>
      <trkpt lat="47.58171" lon="-2.29334">
        <ele>8.2</ele>
        <time>2025-01-16T08:59:09Z</time>
      </trkpt>
      <trkpt lat="47.58171" lon="-2.29334">
        <ele>8.2</ele>
        <time>2025-01-16T08:59:10Z</time>
      </trkpt>
      <trkpt lat="47.5817" lon="-2.29335">
        <ele>8.1</ele>
        <time>2025-01-16T08:59:11Z</time>
      </trkpt>
      <trkpt lat="47.5817" lon="-2.29335">
        <ele>8.1</ele>
        <time>2025-01-16T08:59:12Z</time>
      </trkpt>
      <trkpt lat="47.5817" lon="-2.29335">
        <ele>8.1</ele>
        <time>2025-01-16T08:59:13Z</time>
      </trkpt>
      <trkpt lat="47.58169" lon="-2.29335">
        <ele>8.1</ele>
        <time>2025-01-16T08:59:14Z</time>
      </trkpt>
      <trkpt lat="47.58169" lon="-2.29334">
        <ele>8.1</ele>
        <time>2025-01-16T08:59:15Z</time>
      </trkpt>
      <trkpt lat="47.58169" lon="-2.29334">
        <ele>8.1</ele>
        <time>2025-01-16T08:59:16Z</time>
      </trkpt>
      <trkpt lat="47.58169" lon="-2.29334">
        <ele>8.1</ele>
        <time>2025-01-16T08:59:17Z</time>
      </trkpt>
      <trkpt lat="47.58169" lon="-2.29334">
        <ele>8.1</ele>
        <time>2025-01-16T08:59:18Z</time>
      </trkpt>
      <trkpt lat="47.58169" lon="-2.29334">
        <ele>8.1</ele>
        <time>2025-01-16T08:59:19Z</time>
      </trkpt>
      <trkpt lat="47.58168" lon="-2.29334">
        <ele>8</ele>
        <time>2025-01-16T08:59:20Z</time>
      </trkpt>
      <trkpt lat="47.58168" lon="-2.29334">
        <ele>8</ele>
        <time>2025-01-16T08:59:21Z</time>
      </trkpt>
      <trkpt lat="47.58168" lon="-2.29335">
        <ele>8</ele>
        <time>2025-01-16T08:59:22Z</time>
      </trkpt>
      <trkpt lat="47.58168" lon="-2.29335">
        <ele>8</ele>
        <time>2025-01-16T08:59:23Z</time>
      </trkpt>
      <trkpt lat="47.58168" lon="-2.29335">
        <ele>8</ele>
        <time>2025-01-16T08:59:24Z</time>
      </trkpt>
      <trkpt lat="47.58167" lon="-2.29336">
        <ele>8</ele>
        <time>2025-01-16T08:59:25Z</time>
      </trkpt>
      <trkpt lat="47.58167" lon="-2.29336">
        <ele>8</ele>
        <time>2025-01-16T08:59:26Z</time>
      </trkpt>
      <trkpt lat="47.58167" lon="-2.29336">
        <ele>8</ele>
        <time>2025-01-16T08:59:27Z</time>
      </trkpt>
      <trkpt lat="47.58167" lon="-2.29336">
        <ele>8</ele>
        <time>2025-01-16T08:59:28Z</time>
      </trkpt>
      <trkpt lat="47.58166" lon="-2.29335">
        <ele>8.2</ele>
        <time>2025-01-16T08:59:29Z</time>
      </trkpt>
      <trkpt lat="47.58167" lon="-2.29335">
        <ele>8</ele>
        <time>2025-01-16T08:59:30Z</time>
      </trkpt>
      <trkpt lat="47.58167" lon="-2.29335">
        <ele>8</ele>
        <time>2025-01-16T08:59:31Z</time>
      </trkpt>
      <trkpt lat="47.58167" lon="-2.29335">
        <ele>8</ele>
        <time>2025-01-16T08:59:32Z</time>
      </trkpt>
      <trkpt lat="47.58166" lon="-2.29335">
        <ele>8.2</ele>
        <time>2025-01-16T08:59:33Z</time>
      </trkpt>
      <trkpt lat="47.58165" lon="-2.29335">
        <ele>8.5</ele>
        <time>2025-01-16T08:59:34Z</time>
      </trkpt>
      <trkpt lat="47.58165" lon="-2.29335">
        <ele>8.5</ele>
        <time>2025-01-16T08:59:35Z</time>
      </trkpt>
      <trkpt lat="47.58164" lon="-2.29335">
        <ele>8.8</ele>
        <time>2025-01-16T08:59:36Z</time>
      </trkpt>
      <trkpt lat="47.58163" lon="-2.29336">
        <ele>9.1</ele>
        <time>2025-01-16T08:59:37Z</time>
      </trkpt>
      <trkpt lat="47.58163" lon="-2.29336">
        <ele>9.1</ele>
        <time>2025-01-16T08:59:38Z</time>
      </trkpt>
      <trkpt lat="47.58163" lon="-2.29336">
        <ele>9.1</ele>
        <time>2025-01-16T08:59:39Z</time>
      </trkpt>
      <trkpt lat="47.58162" lon="-2.29335">
        <ele>9.5</ele>
        <time>2025-01-16T08:59:40Z</time>
      </trkpt>
      <trkpt lat="47.58162" lon="-2.29335">
        <ele>9.5</ele>
        <time>2025-01-16T08:59:41Z</time>
      </trkpt>
      <trkpt lat="47.58161" lon="-2.29335">
        <ele>9.8</ele>
        <time>2025-01-16T08:59:42Z</time>
      </trkpt>
      <trkpt lat="47.58161" lon="-2.29336">
        <ele>9.8</ele>
        <time>2025-01-16T08:59:43Z</time>
      </trkpt>
      <trkpt lat="47.58161" lon="-2.29336">
        <ele>9.8</ele>
        <time>2025-01-16T08:59:44Z</time>
      </trkpt>
      <trkpt lat="47.58161" lon="-2.29336">
        <ele>9.8</ele>
        <time>2025-01-16T08:59:45Z</time>
      </trkpt>
      <trkpt lat="47.58161" lon="-2.29336">
        <ele>9.8</ele>
        <time>2025-01-16T08:59:46Z</time>
      </trkpt>
      <trkpt lat="47.58161" lon="-2.29336">
        <ele>9.8</ele>
        <time>2025-01-16T08:59:47Z</time>
      </trkpt>
      <trkpt lat="47.58161" lon="-2.29336">
        <ele>9.8</ele>
        <time>2025-01-16T08:59:48Z</time>
      </trkpt>
      <trkpt lat="47.58161" lon="-2.29336">
        <ele>9.8</ele>
        <time>2025-01-16T08:59:49Z</time>
      </trkpt>
      <trkpt lat="47.58161" lon="-2.29336">
        <ele>9.8</ele>
        <time>2025-01-16T08:59:50Z</time>
      </trkpt>
      <trkpt lat="47.58161" lon="-2.29335">
        <ele>9.8</ele>
        <time>2025-01-16T08:59:51Z</time>
      </trkpt>
      <trkpt lat="47.58161" lon="-2.29335">
        <ele>9.8</ele>
        <time>2025-01-16T08:59:52Z</time>
      </trkpt>
      <trkpt lat="47.58161" lon="-2.29335">
        <ele>9.8</ele>
        <time>2025-01-16T08:59:53Z</time>
      </trkpt>
      <trkpt lat="47.58161" lon="-2.29335">
        <ele>9.8</ele>
        <time>2025-01-16T08:59:54Z</time>
      </trkpt>
      <trkpt lat="47.58161" lon="-2.29335">
        <ele>9.8</ele>
        <time>2025-01-16T08:59:55Z</time>
      </trkpt>
      <trkpt lat="47.58161" lon="-2.29335">
        <ele>9.8</ele>
        <time>2025-01-16T08:59:56Z</time>
      </trkpt>
      <trkpt lat="47.58161" lon="-2.29335">
        <ele>9.8</ele>
        <time>2025-01-16T08:59:57Z</time>
      </trkpt>
      <trkpt lat="47.58161" lon="-2.29335">
        <ele>9.8</ele>
        <time>2025-01-16T08:59:58Z</time>
      </trkpt>
      <trkpt lat="47.58161" lon="-2.29335">
        <ele>9.8</ele>
        <time>2025-01-16T08:59:59Z</time>
      </trkpt>
      <trkpt lat="47.58161" lon="-2.29335">
        <ele>9.8</ele>
        <time>2025-01-16T09:00:00Z</time>
      </trkpt>
      <trkpt lat="47.58161" lon="-2.29335">
        <ele>9.8</ele>
        <time>2025-01-16T09:00:01Z</time>
      </trkpt>
      <trkpt lat="47.58161" lon="-2.29335">
        <ele>9.8</ele>
        <time>2025-01-16T09:00:02Z</time>
      </trkpt>
      <trkpt lat="47.58161" lon="-2.29335">
        <ele>9.8</ele>
        <time>2025-01-16T09:00:03Z</time>
      </trkpt>
      <trkpt lat="47.58161" lon="-2.29335">
        <ele>9.8</ele>
        <time>2025-01-16T09:00:04Z</time>
      </trkpt>
      <trkpt lat="47.58161" lon="-2.29335">
        <ele>9.8</ele>
        <time>2025-01-16T09:00:05Z</time>
      </trkpt>
      <trkpt lat="47.58161" lon="-2.29335">
        <ele>9.8</ele>
        <time>2025-01-16T09:00:06Z</time>
      </trkpt>
      <trkpt lat="47.58161" lon="-2.29335">
        <ele>9.8</ele>
        <time>2025-01-16T09:00:07Z</time>
      </trkpt>
      <trkpt lat="47.58161" lon="-2.29335">
        <ele>9.8</ele>
        <time>2025-01-16T09:00:08Z</time>
      </trkpt>
      <trkpt lat="47.58161" lon="-2.29335">
        <ele>9.8</ele>
        <time>2025-01-16T09:00:09Z</time>
      </trkpt>
      <trkpt lat="47.58161" lon="-2.29335">
        <ele>9.8</ele>
        <time>2025-01-16T09:00:10Z</time>
      </trkpt>
      <trkpt lat="47.58161" lon="-2.29335">
        <ele>9.8</ele>
        <time>2025-01-16T09:00:11Z</time>
      </trkpt>
      <trkpt lat="47.58161" lon="-2.29335">
        <ele>9.8</ele>
        <time>2025-01-16T09:00:12Z</time>
      </trkpt>
      <trkpt lat="47.58161" lon="-2.29335">
        <ele>9.8</ele>
        <time>2025-01-16T09:00:13Z</time>
      </trkpt>
      <trkpt lat="47.58161" lon="-2.29335">
        <ele>9.8</ele>
        <time>2025-01-16T09:00:14Z</time>
      </trkpt>
      <trkpt lat="47.58161" lon="-2.29335">
        <ele>9.8</ele>
        <time>2025-01-16T09:00:15Z</time>
      </trkpt>
      <trkpt lat="47.58161" lon="-2.29335">
        <ele>9.8</ele>
        <time>2025-01-16T09:00:16Z</time>
      </trkpt>
      <trkpt lat="47.58161" lon="-2.29335">
        <ele>9.8</ele>
        <time>2025-01-16T09:00:17Z</time>
      </trkpt>
      <trkpt lat="47.58161" lon="-2.29335">
        <ele>9.8</ele>
        <time>2025-01-16T09:00:18Z</time>
      </trkpt>
      <trkpt lat="47.58161" lon="-2.29335">
        <ele>9.8</ele>
        <time>2025-01-16T09:00:19Z</time>
      </trkpt>
      <trkpt lat="47.58161" lon="-2.29335">
        <ele>9.8</ele>
        <time>2025-01-16T09:00:20Z</time>
      </trkpt>
      <trkpt lat="47.58161" lon="-2.29335">
        <ele>9.8</ele>
        <time>2025-01-16T09:00:21Z</time>
      </trkpt>
      <trkpt lat="47.58161" lon="-2.29335">
        <ele>9.8</ele>
        <time>2025-01-16T09:00:22Z</time>
      </trkpt>
      <trkpt lat="47.58161" lon="-2.29335">
        <ele>9.8</ele>
        <time>2025-01-16T09:00:23Z</time>
      </trkpt>
      <trkpt lat="47.58161" lon="-2.29336">
        <ele>9.8</ele>
        <time>2025-01-16T09:00:24Z</time>
      </trkpt>
      <trkpt lat="47.58161" lon="-2.29336">
        <ele>9.8</ele>
        <time>2025-01-16T09:00:25Z</time>
      </trkpt>
      <trkpt lat="47.58161" lon="-2.29336">
        <ele>9.8</ele>
        <time>2025-01-16T09:00:26Z</time>
      </trkpt>
      <trkpt lat="47.58161" lon="-2.29336">
        <ele>9.8</ele>
        <time>2025-01-16T09:00:27Z</time>
      </trkpt>
      <trkpt lat="47.58161" lon="-2.29336">
        <ele>9.8</ele>
        <time>2025-01-16T09:00:28Z</time>
      </trkpt>
      <trkpt lat="47.58161" lon="-2.29336">
        <ele>9.8</ele>
        <time>2025-01-16T09:00:29Z</time>
      </trkpt>
      <trkpt lat="47.58162" lon="-2.29336">
        <ele>9.5</ele>
        <time>2025-01-16T09:00:30Z</time>
      </trkpt>
      <trkpt lat="47.58162" lon="-2.29335">
        <ele>9.5</ele>
        <time>2025-01-16T09:00:31Z</time>
      </trkpt>
      <trkpt lat="47.58163" lon="-2.29335">
        <ele>9.2</ele>
        <time>2025-01-16T09:00:32Z</time>
      </trkpt>
      <trkpt lat="47.58163" lon="-2.29334">
        <ele>9.2</ele>
        <time>2025-01-16T09:00:33Z</time>
      </trkpt>
      <trkpt lat="47.58163" lon="-2.29334">
        <ele>9.2</ele>
        <time>2025-01-16T09:00:34Z</time>
      </trkpt>
      <trkpt lat="47.58163" lon="-2.29334">
        <ele>9.2</ele>
        <time>2025-01-16T09:00:35Z</time>
      </trkpt>
      <trkpt lat="47.58163" lon="-2.29334">
        <ele>9.2</ele>
        <time>2025-01-16T09:00:36Z</time>
      </trkpt>
      <trkpt lat="47.58163" lon="-2.29334">
        <ele>9.2</ele>
        <time>2025-01-16T09:00:37Z</time>
      </trkpt>
      <trkpt lat="47.58163" lon="-2.29334">
        <ele>9.2</ele>
        <time>2025-01-16T09:00:38Z</time>
      </trkpt>
      <trkpt lat="47.58163" lon="-2.29334">
        <ele>9.2</ele>
        <time>2025-01-16T09:00:39Z</time>
      </trkpt>
      <trkpt lat="47.58162" lon="-2.29334">
        <ele>9.5</ele>
        <time>2025-01-16T09:00:40Z</time>
      </trkpt>
      <trkpt lat="47.58162" lon="-2.29334">
        <ele>9.5</ele>
        <time>2025-01-16T09:00:41Z</time>
      </trkpt>
      <trkpt lat="47.58162" lon="-2.29334">
        <ele>9.5</ele>
        <time>2025-01-16T09:00:42Z</time>
      </trkpt>
      <trkpt lat="47.58162" lon="-2.29334">
        <ele>9.5</ele>
        <time>2025-01-16T09:00:43Z</time>
      </trkpt>
      <trkpt lat="47.58162" lon="-2.29334">
        <ele>9.5</ele>
        <time>2025-01-16T09:00:44Z</time>
      </trkpt>
      <trkpt lat="47.58162" lon="-2.29334">
        <ele>9.5</ele>
        <time>2025-01-16T09:00:45Z</time>
      </trkpt>
      <trkpt lat="47.58162" lon="-2.29334">
        <ele>9.5</ele>
        <time>2025-01-16T09:00:46Z</time>
      </trkpt>
      <trkpt lat="47.58162" lon="-2.29334">
        <ele>9.5</ele>
        <time>2025-01-16T09:00:47Z</time>
      </trkpt>
      <trkpt lat="47.58162" lon="-2.29334">
        <ele>9.5</ele>
        <time>2025-01-16T09:00:48Z</time>
      </trkpt>
      <trkpt lat="47.58162" lon="-2.29334">
        <ele>9.5</ele>
        <time>2025-01-16T09:00:49Z</time>
      </trkpt>
      <trkpt lat="47.58162" lon="-2.29334">
        <ele>9.5</ele>
        <time>2025-01-16T09:00:50Z</time>
      </trkpt>
      <trkpt lat="47.58162" lon="-2.29334">
        <ele>9.5</ele>
        <time>2025-01-16T09:00:51Z</time>
      </trkpt>
      <trkpt lat="47.58162" lon="-2.29334">
        <ele>9.5</ele>
        <time>2025-01-16T09:00:52Z</time>
      </trkpt>
      <trkpt lat="47.58162" lon="-2.29334">
        <ele>9.5</ele>
        <time>2025-01-16T09:00:53Z</time>
      </trkpt>
      <trkpt lat="47.58162" lon="-2.29334">
        <ele>9.5</ele>
        <time>2025-01-16T09:00:54Z</time>
      </trkpt>
      <trkpt lat="47.58162" lon="-2.29334">
        <ele>9.5</ele>
        <time>2025-01-16T09:00:55Z</time>
      </trkpt>
      <trkpt lat="47.58162" lon="-2.29334">
        <ele>9.5</ele>
        <time>2025-01-16T09:00:56Z</time>
      </trkpt>
      <trkpt lat="47.58162" lon="-2.29334">
        <ele>9.5</ele>
        <time>2025-01-16T09:00:57Z</time>
      </trkpt>
      <trkpt lat="47.58162" lon="-2.29334">
        <ele>9.5</ele>
        <time>2025-01-16T09:00:58Z</time>
      </trkpt>
      <trkpt lat="47.58162" lon="-2.29334">
        <ele>9.5</ele>
        <time>2025-01-16T09:00:59Z</time>
      </trkpt>
      <trkpt lat="47.58162" lon="-2.29334">
        <ele>9.5</ele>
        <time>2025-01-16T09:01:00Z</time>
      </trkpt>
      <trkpt lat="47.58162" lon="-2.29334">
        <ele>9.5</ele>
        <time>2025-01-16T09:01:01Z</time>
      </trkpt>
      <trkpt lat="47.58162" lon="-2.29334">
        <ele>9.5</ele>
        <time>2025-01-16T09:01:02Z</time>
      </trkpt>
      <trkpt lat="47.58162" lon="-2.29334">
        <ele>9.5</ele>
        <time>2025-01-16T09:01:03Z</time>
      </trkpt>
      <trkpt lat="47.58162" lon="-2.29334">
        <ele>9.5</ele>
        <time>2025-01-16T09:01:04Z</time>
      </trkpt>
      <trkpt lat="47.58162" lon="-2.29334">
        <ele>9.5</ele>
        <time>2025-01-16T09:01:05Z</time>
      </trkpt>
      <trkpt lat="47.58162" lon="-2.29334">
        <ele>9.5</ele>
        <time>2025-01-16T09:01:06Z</time>
      </trkpt>
      <trkpt lat="47.58162" lon="-2.29334">
        <ele>9.5</ele>
        <time>2025-01-16T09:01:07Z</time>
      </trkpt>
      <trkpt lat="47.58162" lon="-2.29334">
        <ele>9.5</ele>
        <time>2025-01-16T09:01:08Z</time>
      </trkpt>
      <trkpt lat="47.58162" lon="-2.29334">
        <ele>9.5</ele>
        <time>2025-01-16T09:01:09Z</time>
      </trkpt>
      <trkpt lat="47.58162" lon="-2.29334">
        <ele>9.5</ele>
        <time>2025-01-16T09:01:10Z</time>
      </trkpt>
      <trkpt lat="47.58162" lon="-2.29334">
        <ele>9.5</ele>
        <time>2025-01-16T09:01:11Z</time>
      </trkpt>
      <trkpt lat="47.58162" lon="-2.29334">
        <ele>9.5</ele>
        <time>2025-01-16T09:01:12Z</time>
      </trkpt>
      <trkpt lat="47.58162" lon="-2.29334">
        <ele>9.5</ele>
        <time>2025-01-16T09:01:13Z</time>
      </trkpt>
      <trkpt lat="47.58162" lon="-2.29334">
        <ele>9.5</ele>
        <time>2025-01-16T09:01:14Z</time>
      </trkpt>
      <trkpt lat="47.58162" lon="-2.29334">
        <ele>9.5</ele>
        <time>2025-01-16T09:01:15Z</time>
      </trkpt>
      <trkpt lat="47.58162" lon="-2.29334">
        <ele>9.5</ele>
        <time>2025-01-16T09:01:16Z</time>
      </trkpt>
      <trkpt lat="47.58162" lon="-2.29334">
        <ele>9.5</ele>
        <time>2025-01-16T09:01:17Z</time>
      </trkpt>
      <trkpt lat="47.58162" lon="-2.29334">
        <ele>9.5</ele>
        <time>2025-01-16T09:01:18Z</time>
      </trkpt>
      <trkpt lat="47.58162" lon="-2.29334">
        <ele>9.5</ele>
        <time>2025-01-16T09:01:19Z</time>
      </trkpt>
      <trkpt lat="47.58162" lon="-2.29334">
        <ele>9.5</ele>
        <time>2025-01-16T09:01:20Z</time>
      </trkpt>
      <trkpt lat="47.58162" lon="-2.29334">
        <ele>9.5</ele>
        <time>2025-01-16T09:01:21Z</time>
      </trkpt>
      <trkpt lat="47.58162" lon="-2.29334">
        <ele>9.5</ele>
        <time>2025-01-16T09:01:22Z</time>
      </trkpt>
      <trkpt lat="47.58162" lon="-2.29334">
        <ele>9.5</ele>
        <time>2025-01-16T09:01:23Z</time>
      </trkpt>
      <trkpt lat="47.58162" lon="-2.29334">
        <ele>9.5</ele>
        <time>2025-01-16T09:01:24Z</time>
      </trkpt>
      <trkpt lat="47.58162" lon="-2.29334">
        <ele>9.5</ele>
        <time>2025-01-16T09:01:25Z</time>
      </trkpt>
      <trkpt lat="47.58162" lon="-2.29334">
        <ele>9.5</ele>
        <time>2025-01-16T09:01:26Z</time>
      </trkpt>
      <trkpt lat="47.58162" lon="-2.29334">
        <ele>9.5</ele>
        <time>2025-01-16T09:01:27Z</time>
      </trkpt>
      <trkpt lat="47.58162" lon="-2.29334">
        <ele>9.5</ele>
        <time>2025-01-16T09:01:28Z</time>
      </trkpt>
      <trkpt lat="47.58162" lon="-2.29334">
        <ele>9.5</ele>
        <time>2025-01-16T09:01:29Z</time>
      </trkpt>
      <trkpt lat="47.58162" lon="-2.29334">
        <ele>9.5</ele>
        <time>2025-01-16T09:01:30Z</time>
      </trkpt>
      <trkpt lat="47.58162" lon="-2.29334">
        <ele>9.5</ele>
        <time>2025-01-16T09:01:31Z</time>
      </trkpt>
      <trkpt lat="47.58162" lon="-2.29334">
        <ele>9.5</ele>
        <time>2025-01-16T09:01:32Z</time>
      </trkpt>
      <trkpt lat="47.58162" lon="-2.29334">
        <ele>9.5</ele>
        <time>2025-01-16T09:01:33Z</time>
      </trkpt>
      <trkpt lat="47.58162" lon="-2.29334">
        <ele>9.5</ele>
        <time>2025-01-16T09:01:34Z</time>
      </trkpt>
      <trkpt lat="47.58162" lon="-2.29334">
        <ele>9.5</ele>
        <time>2025-01-16T09:01:35Z</time>
      </trkpt>
      <trkpt lat="47.58162" lon="-2.29334">
        <ele>9.5</ele>
        <time>2025-01-16T09:01:36Z</time>
      </trkpt>
      <trkpt lat="47.58162" lon="-2.29334">
        <ele>9.5</ele>
        <time>2025-01-16T09:01:37Z</time>
      </trkpt>
      <trkpt lat="47.58162" lon="-2.29334">
        <ele>9.5</ele>
        <time>2025-01-16T09:01:38Z</time>
      </trkpt>
      <trkpt lat="47.58162" lon="-2.29334">
        <ele>9.5</ele>
        <time>2025-01-16T09:01:39Z</time>
      </trkpt>
      <trkpt lat="47.58162" lon="-2.29334">
        <ele>9.5</ele>
        <time>2025-01-16T09:01:40Z</time>
      </trkpt>
      <trkpt lat="47.58162" lon="-2.29334">
        <ele>9.5</ele>
        <time>2025-01-16T09:01:41Z</time>
      </trkpt>
      <trkpt lat="47.58162" lon="-2.29334">
        <ele>9.5</ele>
        <time>2025-01-16T09:01:42Z</time>
      </trkpt>
      <trkpt lat="47.58162" lon="-2.29334">
        <ele>9.5</ele>
        <time>2025-01-16T09:01:43Z</time>
      </trkpt>
      <trkpt lat="47.58162" lon="-2.29334">
        <ele>9.5</ele>
        <time>2025-01-16T09:01:44Z</time>
      </trkpt>
      <trkpt lat="47.58162" lon="-2.29334">
        <ele>9.5</ele>
        <time>2025-01-16T09:01:45Z</time>
      </trkpt>
      <trkpt lat="47.58162" lon="-2.29334">
        <ele>9.5</ele>
        <time>2025-01-16T09:01:46Z</time>
      </trkpt>
      <trkpt lat="47.58162" lon="-2.29334">
        <ele>9.5</ele>
        <time>2025-01-16T09:01:47Z</time>
      </trkpt>
      <trkpt lat="47.58162" lon="-2.29334">
        <ele>9.5</ele>
        <time>2025-01-16T09:01:48Z</time>
      </trkpt>
      <trkpt lat="47.58162" lon="-2.29334">
        <ele>9.5</ele>
        <time>2025-01-16T09:01:49Z</time>
      </trkpt>
      <trkpt lat="47.58162" lon="-2.29334">
        <ele>9.5</ele>
        <time>2025-01-16T09:01:50Z</time>
      </trkpt>
      <trkpt lat="47.58162" lon="-2.29334">
        <ele>9.5</ele>
        <time>2025-01-16T09:01:51Z</time>
      </trkpt>
      <trkpt lat="47.58162" lon="-2.29334">
        <ele>9.5</ele>
        <time>2025-01-16T09:01:52Z</time>
      </trkpt>
      <trkpt lat="47.58162" lon="-2.29334">
        <ele>9.5</ele>
        <time>2025-01-16T09:01:53Z</time>
      </trkpt>
      <trkpt lat="47.58162" lon="-2.29334">
        <ele>9.5</ele>
        <time>2025-01-16T09:01:54Z</time>
      </trkpt>
      <trkpt lat="47.58162" lon="-2.29334">
        <ele>9.5</ele>
        <time>2025-01-16T09:01:55Z</time>
      </trkpt>
      <trkpt lat="47.58162" lon="-2.29334">
        <ele>9.5</ele>
        <time>2025-01-16T09:01:56Z</time>
      </trkpt>
      <trkpt lat="47.58162" lon="-2.29334">
        <ele>9.5</ele>
        <time>2025-01-16T09:01:57Z</time>
      </trkpt>
      <trkpt lat="47.58162" lon="-2.29334">
        <ele>9.5</ele>
        <time>2025-01-16T09:01:58Z</time>
      </trkpt>
      <trkpt lat="47.58162" lon="-2.29334">
        <ele>9.5</ele>
        <time>2025-01-16T09:01:59Z</time>
      </trkpt>
      <trkpt lat="47.58162" lon="-2.29334">
        <ele>9.5</ele>
        <time>2025-01-16T09:02:00Z</time>
      </trkpt>
      <trkpt lat="47.58162" lon="-2.29334">
        <ele>9.5</ele>
        <time>2025-01-16T09:02:01Z</time>
      </trkpt>
      <trkpt lat="47.58162" lon="-2.29334">
        <ele>9.5</ele>
        <time>2025-01-16T09:02:02Z</time>
      </trkpt>
      <trkpt lat="47.58162" lon="-2.29334">
        <ele>9.5</ele>
        <time>2025-01-16T09:02:03Z</time>
      </trkpt>
      <trkpt lat="47.58162" lon="-2.29334">
        <ele>9.5</ele>
        <time>2025-01-16T09:02:04Z</time>
      </trkpt>
      <trkpt lat="47.58162" lon="-2.29334">
        <ele>9.5</ele>
        <time>2025-01-16T09:02:05Z</time>
      </trkpt>
      <trkpt lat="47.58162" lon="-2.29334">
        <ele>9.5</ele>
        <time>2025-01-16T09:02:06Z</time>
      </trkpt>
      <trkpt lat="47.58161" lon="-2.29334">
        <ele>9.8</ele>
        <time>2025-01-16T09:02:07Z</time>
      </trkpt>
      <trkpt lat="47.58161" lon="-2.29334">
        <ele>9.8</ele>
        <time>2025-01-16T09:02:08Z</time>
      </trkpt>
      <trkpt lat="47.58161" lon="-2.29334">
        <ele>9.8</ele>
        <time>2025-01-16T09:02:09Z</time>
      </trkpt>
      <trkpt lat="47.58161" lon="-2.29334">
        <ele>9.8</ele>
        <time>2025-01-16T09:02:10Z</time>
      </trkpt>
      <trkpt lat="47.58161" lon="-2.29334">
        <ele>9.8</ele>
        <time>2025-01-16T09:02:11Z</time>
      </trkpt>
      <trkpt lat="47.58161" lon="-2.29334">
        <ele>9.8</ele>
        <time>2025-01-16T09:02:12Z</time>
      </trkpt>
      <trkpt lat="47.58161" lon="-2.29334">
        <ele>9.8</ele>
        <time>2025-01-16T09:02:13Z</time>
      </trkpt>
      <trkpt lat="47.58161" lon="-2.29334">
        <ele>9.8</ele>
        <time>2025-01-16T09:02:14Z</time>
      </trkpt>
      <trkpt lat="47.58161" lon="-2.29334">
        <ele>9.8</ele>
        <time>2025-01-16T09:02:15Z</time>
      </trkpt>
      <trkpt lat="47.58161" lon="-2.29334">
        <ele>9.8</ele>
        <time>2025-01-16T09:02:16Z</time>
      </trkpt>
      <trkpt lat="47.58161" lon="-2.29334">
        <ele>9.8</ele>
        <time>2025-01-16T09:02:17Z</time>
      </trkpt>
      <trkpt lat="47.58161" lon="-2.29334">
        <ele>9.8</ele>
        <time>2025-01-16T09:02:18Z</time>
      </trkpt>
      <trkpt lat="47.58161" lon="-2.29334">
        <ele>9.8</ele>
        <time>2025-01-16T09:02:19Z</time>
      </trkpt>
      <trkpt lat="47.58161" lon="-2.29334">
        <ele>9.8</ele>
        <time>2025-01-16T09:02:20Z</time>
      </trkpt>
      <trkpt lat="47.58161" lon="-2.29334">
        <ele>9.8</ele>
        <time>2025-01-16T09:02:21Z</time>
      </trkpt>
      <trkpt lat="47.58161" lon="-2.29334">
        <ele>9.8</ele>
        <time>2025-01-16T09:02:22Z</time>
      </trkpt>
      <trkpt lat="47.58161" lon="-2.29334">
        <ele>9.8</ele>
        <time>2025-01-16T09:02:23Z</time>
      </trkpt>
      <trkpt lat="47.58161" lon="-2.29334">
        <ele>9.8</ele>
        <time>2025-01-16T09:02:24Z</time>
      </trkpt>
      <trkpt lat="47.58162" lon="-2.29334">
        <ele>9.5</ele>
        <time>2025-01-16T09:02:25Z</time>
      </trkpt>
      <trkpt lat="47.58162" lon="-2.29334">
        <ele>9.5</ele>
        <time>2025-01-16T09:02:26Z</time>
      </trkpt>
      <trkpt lat="47.58162" lon="-2.29334">
        <ele>9.5</ele>
        <time>2025-01-16T09:02:27Z</time>
      </trkpt>
      <trkpt lat="47.58162" lon="-2.29334">
        <ele>9.5</ele>
        <time>2025-01-16T09:02:28Z</time>
      </trkpt>
      <trkpt lat="47.58162" lon="-2.29334">
        <ele>9.5</ele>
        <time>2025-01-16T09:02:29Z</time>
      </trkpt>
      <trkpt lat="47.58163" lon="-2.29333">
        <ele>9.2</ele>
        <time>2025-01-16T09:02:30Z</time>
      </trkpt>
      <trkpt lat="47.58163" lon="-2.29333">
        <ele>9.2</ele>
        <time>2025-01-16T09:02:31Z</time>
      </trkpt>
      <trkpt lat="47.58163" lon="-2.29333">
        <ele>9.2</ele>
        <time>2025-01-16T09:02:32Z</time>
      </trkpt>
      <trkpt lat="47.58163" lon="-2.29333">
        <ele>9.2</ele>
        <time>2025-01-16T09:02:33Z</time>
      </trkpt>
      <trkpt lat="47.58163" lon="-2.29333">
        <ele>9.2</ele>
        <time>2025-01-16T09:02:34Z</time>
      </trkpt>
      <trkpt lat="47.58163" lon="-2.29333">
        <ele>9.2</ele>
        <time>2025-01-16T09:02:35Z</time>
      </trkpt>
      <trkpt lat="47.58163" lon="-2.29333">
        <ele>9.2</ele>
        <time>2025-01-16T09:02:36Z</time>
      </trkpt>
      <trkpt lat="47.58163" lon="-2.29333">
        <ele>9.2</ele>
        <time>2025-01-16T09:02:37Z</time>
      </trkpt>
      <trkpt lat="47.58163" lon="-2.29333">
        <ele>9.2</ele>
        <time>2025-01-16T09:02:38Z</time>
      </trkpt>
      <trkpt lat="47.58163" lon="-2.29333">
        <ele>9.2</ele>
        <time>2025-01-16T09:02:39Z</time>
      </trkpt>
      <trkpt lat="47.58163" lon="-2.29333">
        <ele>9.2</ele>
        <time>2025-01-16T09:02:40Z</time>
      </trkpt>
      <trkpt lat="47.58163" lon="-2.29333">
        <ele>9.2</ele>
        <time>2025-01-16T09:02:41Z</time>
      </trkpt>
      <trkpt lat="47.58163" lon="-2.29333">
        <ele>9.2</ele>
        <time>2025-01-16T09:02:42Z</time>
      </trkpt>
      <trkpt lat="47.58163" lon="-2.29333">
        <ele>9.2</ele>
        <time>2025-01-16T09:02:43Z</time>
      </trkpt>
      <trkpt lat="47.58163" lon="-2.29333">
        <ele>9.2</ele>
        <time>2025-01-16T09:02:44Z</time>
      </trkpt>
      <trkpt lat="47.58163" lon="-2.29333">
        <ele>9.2</ele>
        <time>2025-01-16T09:02:45Z</time>
      </trkpt>
      <trkpt lat="47.58163" lon="-2.29333">
        <ele>9.2</ele>
        <time>2025-01-16T09:02:46Z</time>
      </trkpt>
      <trkpt lat="47.58163" lon="-2.29333">
        <ele>9.2</ele>
        <time>2025-01-16T09:02:47Z</time>
      </trkpt>
      <trkpt lat="47.58163" lon="-2.29333">
        <ele>9.2</ele>
        <time>2025-01-16T09:02:48Z</time>
      </trkpt>
      <trkpt lat="47.58163" lon="-2.29333">
        <ele>9.2</ele>
        <time>2025-01-16T09:02:49Z</time>
      </trkpt>
      <trkpt lat="47.58162" lon="-2.29332">
        <ele>9.4</ele>
        <time>2025-01-16T09:02:50Z</time>
      </trkpt>
      <trkpt lat="47.58161" lon="-2.29332">
        <ele>9.7</ele>
        <time>2025-01-16T09:02:51Z</time>
      </trkpt>
      <trkpt lat="47.58161" lon="-2.29332">
        <ele>9.7</ele>
        <time>2025-01-16T09:02:52Z</time>
      </trkpt>
      <trkpt lat="47.58161" lon="-2.29332">
        <ele>9.7</ele>
        <time>2025-01-16T09:02:53Z</time>
      </trkpt>
      <trkpt lat="47.58161" lon="-2.29331">
        <ele>9.6</ele>
        <time>2025-01-16T09:02:54Z</time>
      </trkpt>
      <trkpt lat="47.58161" lon="-2.29332">
        <ele>9.7</ele>
        <time>2025-01-16T09:02:55Z</time>
      </trkpt>
      <trkpt lat="47.58161" lon="-2.29332">
        <ele>9.7</ele>
        <time>2025-01-16T09:02:56Z</time>
      </trkpt>
      <trkpt lat="47.58161" lon="-2.29332">
        <ele>9.7</ele>
        <time>2025-01-16T09:02:57Z</time>
      </trkpt>
      <trkpt lat="47.58161" lon="-2.29332">
        <ele>9.7</ele>
        <time>2025-01-16T09:02:58Z</time>
      </trkpt>
      <trkpt lat="47.58161" lon="-2.29332">
        <ele>9.7</ele>
        <time>2025-01-16T09:02:59Z</time>
      </trkpt>
      <trkpt lat="47.58161" lon="-2.29332">
        <ele>9.7</ele>
        <time>2025-01-16T09:03:00Z</time>
      </trkpt>
      <trkpt lat="47.58161" lon="-2.29332">
        <ele>9.7</ele>
        <time>2025-01-16T09:03:01Z</time>
      </trkpt>
      <trkpt lat="47.58161" lon="-2.29332">
        <ele>9.7</ele>
        <time>2025-01-16T09:03:02Z</time>
      </trkpt>
      <trkpt lat="47.58161" lon="-2.29332">
        <ele>9.7</ele>
        <time>2025-01-16T09:03:03Z</time>
      </trkpt>
      <trkpt lat="47.58161" lon="-2.29332">
        <ele>9.7</ele>
        <time>2025-01-16T09:03:04Z</time>
      </trkpt>
      <trkpt lat="47.58161" lon="-2.29332">
        <ele>9.7</ele>
        <time>2025-01-16T09:03:05Z</time>
      </trkpt>
      <trkpt lat="47.58161" lon="-2.29331">
        <ele>9.6</ele>
        <time>2025-01-16T09:03:06Z</time>
      </trkpt>
      <trkpt lat="47.58161" lon="-2.29331">
        <ele>9.6</ele>
        <time>2025-01-16T09:03:07Z</time>
      </trkpt>
      <trkpt lat="47.58161" lon="-2.2933">
        <ele>9.5</ele>
        <time>2025-01-16T09:03:08Z</time>
      </trkpt>
      <trkpt lat="47.58161" lon="-2.2933">
        <ele>9.5</ele>
        <time>2025-01-16T09:03:09Z</time>
      </trkpt>
      <trkpt lat="47.58161" lon="-2.2933">
        <ele>9.5</ele>
        <time>2025-01-16T09:03:10Z</time>
      </trkpt>
      <trkpt lat="47.58161" lon="-2.2933">
        <ele>9.5</ele>
        <time>2025-01-16T09:03:11Z</time>
      </trkpt>
      <trkpt lat="47.58161" lon="-2.29331">
        <ele>9.6</ele>
        <time>2025-01-16T09:03:12Z</time>
      </trkpt>
      <trkpt lat="47.58162" lon="-2.29331">
        <ele>9.3</ele>
        <time>2025-01-16T09:03:13Z</time>
      </trkpt>
      <trkpt lat="47.58162" lon="-2.29331">
        <ele>9.3</ele>
        <time>2025-01-16T09:03:14Z</time>
      </trkpt>
      <trkpt lat="47.58162" lon="-2.29331">
        <ele>9.3</ele>
        <time>2025-01-16T09:03:15Z</time>
      </trkpt>
      <trkpt lat="47.58162" lon="-2.29331">
        <ele>9.3</ele>
        <time>2025-01-16T09:03:16Z</time>
      </trkpt>
      <trkpt lat="47.58162" lon="-2.29331">
        <ele>9.3</ele>
        <time>2025-01-16T09:03:17Z</time>
      </trkpt>
      <trkpt lat="47.58162" lon="-2.29332">
        <ele>9.4</ele>
        <time>2025-01-16T09:03:18Z</time>
      </trkpt>
      <trkpt lat="47.58162" lon="-2.29332">
        <ele>9.4</ele>
        <time>2025-01-16T09:03:19Z</time>
      </trkpt>
      <trkpt lat="47.58162" lon="-2.29332">
        <ele>9.4</ele>
        <time>2025-01-16T09:03:20Z</time>
      </trkpt>
      <trkpt lat="47.58162" lon="-2.29332">
        <ele>9.4</ele>
        <time>2025-01-16T09:03:21Z</time>
      </trkpt>
      <trkpt lat="47.58162" lon="-2.29332">
        <ele>9.4</ele>
        <time>2025-01-16T09:03:22Z</time>
      </trkpt>
      <trkpt lat="47.58162" lon="-2.29332">
        <ele>9.4</ele>
        <time>2025-01-16T09:03:23Z</time>
      </trkpt>
      <trkpt lat="47.58162" lon="-2.29332">
        <ele>9.4</ele>
        <time>2025-01-16T09:03:24Z</time>
      </trkpt>
      <trkpt lat="47.58162" lon="-2.29332">
        <ele>9.4</ele>
        <time>2025-01-16T09:03:25Z</time>
      </trkpt>
      <trkpt lat="47.58162" lon="-2.29332">
        <ele>9.4</ele>
        <time>2025-01-16T09:03:26Z</time>
      </trkpt>
      <trkpt lat="47.58162" lon="-2.29332">
        <ele>9.4</ele>
        <time>2025-01-16T09:03:27Z</time>
      </trkpt>
      <trkpt lat="47.58162" lon="-2.29332">
        <ele>9.4</ele>
        <time>2025-01-16T09:03:28Z</time>
      </trkpt>
      <trkpt lat="47.58162" lon="-2.29332">
        <ele>9.4</ele>
        <time>2025-01-16T09:03:29Z</time>
      </trkpt>
      <trkpt lat="47.58162" lon="-2.29332">
        <ele>9.4</ele>
        <time>2025-01-16T09:03:30Z</time>
      </trkpt>
      <trkpt lat="47.58162" lon="-2.29332">
        <ele>9.4</ele>
        <time>2025-01-16T09:03:31Z</time>
      </trkpt>
      <trkpt lat="47.58162" lon="-2.29332">
        <ele>9.4</ele>
        <time>2025-01-16T09:03:32Z</time>
      </trkpt>
      <trkpt lat="47.58162" lon="-2.29332">
        <ele>9.4</ele>
        <time>2025-01-16T09:03:33Z</time>
      </trkpt>
      <trkpt lat="47.58162" lon="-2.29332">
        <ele>9.4</ele>
        <time>2025-01-16T09:03:34Z</time>
      </trkpt>
      <trkpt lat="47.58162" lon="-2.29332">
        <ele>9.4</ele>
        <time>2025-01-16T09:03:35Z</time>
      </trkpt>
      <trkpt lat="47.58162" lon="-2.29332">
        <ele>9.4</ele>
        <time>2025-01-16T09:03:36Z</time>
      </trkpt>
      <trkpt lat="47.58162" lon="-2.29332">
        <ele>9.4</ele>
        <time>2025-01-16T09:03:37Z</time>
      </trkpt>
      <trkpt lat="47.58162" lon="-2.29332">
        <ele>9.4</ele>
        <time>2025-01-16T09:03:38Z</time>
      </trkpt>
      <trkpt lat="47.58162" lon="-2.29331">
        <ele>9.3</ele>
        <time>2025-01-16T09:03:39Z</time>
      </trkpt>
      <trkpt lat="47.58162" lon="-2.29331">
        <ele>9.3</ele>
        <time>2025-01-16T09:03:40Z</time>
      </trkpt>
      <trkpt lat="47.58162" lon="-2.29331">
        <ele>9.3</ele>
        <time>2025-01-16T09:03:41Z</time>
      </trkpt>
      <trkpt lat="47.58162" lon="-2.29331">
        <ele>9.3</ele>
        <time>2025-01-16T09:03:42Z</time>
      </trkpt>
      <trkpt lat="47.58162" lon="-2.29331">
        <ele>9.3</ele>
        <time>2025-01-16T09:03:43Z</time>
      </trkpt>
      <trkpt lat="47.58162" lon="-2.29331">
        <ele>9.3</ele>
        <time>2025-01-16T09:03:44Z</time>
      </trkpt>
      <trkpt lat="47.58162" lon="-2.29331">
        <ele>9.3</ele>
        <time>2025-01-16T09:03:45Z</time>
      </trkpt>
      <trkpt lat="47.58162" lon="-2.29331">
        <ele>9.3</ele>
        <time>2025-01-16T09:03:46Z</time>
      </trkpt>
      <trkpt lat="47.58162" lon="-2.29331">
        <ele>9.3</ele>
        <time>2025-01-16T09:03:47Z</time>
      </trkpt>
      <trkpt lat="47.58162" lon="-2.29331">
        <ele>9.3</ele>
        <time>2025-01-16T09:03:48Z</time>
      </trkpt>
      <trkpt lat="47.58162" lon="-2.29331">
        <ele>9.3</ele>
        <time>2025-01-16T09:03:49Z</time>
      </trkpt>
      <trkpt lat="47.58161" lon="-2.29331">
        <ele>9.6</ele>
        <time>2025-01-16T09:03:50Z</time>
      </trkpt>
      <trkpt lat="47.58161" lon="-2.29331">
        <ele>9.6</ele>
        <time>2025-01-16T09:03:51Z</time>
      </trkpt>
      <trkpt lat="47.58161" lon="-2.29331">
        <ele>9.6</ele>
        <time>2025-01-16T09:03:52Z</time>
      </trkpt>
      <trkpt lat="47.58161" lon="-2.29331">
        <ele>9.6</ele>
        <time>2025-01-16T09:03:53Z</time>
      </trkpt>
      <trkpt lat="47.58161" lon="-2.29331">
        <ele>9.6</ele>
        <time>2025-01-16T09:03:54Z</time>
      </trkpt>
      <trkpt lat="47.58161" lon="-2.29331">
        <ele>9.6</ele>
        <time>2025-01-16T09:03:55Z</time>
      </trkpt>
      <trkpt lat="47.58161" lon="-2.29331">
        <ele>9.6</ele>
        <time>2025-01-16T09:03:56Z</time>
      </trkpt>
      <trkpt lat="47.58161" lon="-2.29331">
        <ele>9.6</ele>
        <time>2025-01-16T09:03:57Z</time>
      </trkpt>
      <trkpt lat="47.58161" lon="-2.29331">
        <ele>9.6</ele>
        <time>2025-01-16T09:03:58Z</time>
      </trkpt>
      <trkpt lat="47.58161" lon="-2.29331">
        <ele>9.6</ele>
        <time>2025-01-16T09:03:59Z</time>
      </trkpt>
      <trkpt lat="47.58161" lon="-2.29331">
        <ele>9.6</ele>
        <time>2025-01-16T09:04:00Z</time>
      </trkpt>
      <trkpt lat="47.58161" lon="-2.29331">
        <ele>9.6</ele>
        <time>2025-01-16T09:04:01Z</time>
      </trkpt>
      <trkpt lat="47.58161" lon="-2.29331">
        <ele>9.6</ele>
        <time>2025-01-16T09:04:02Z</time>
      </trkpt>
      <trkpt lat="47.58161" lon="-2.29331">
        <ele>9.6</ele>
        <time>2025-01-16T09:04:03Z</time>
      </trkpt>
      <trkpt lat="47.58161" lon="-2.29331">
        <ele>9.6</ele>
        <time>2025-01-16T09:04:04Z</time>
      </trkpt>
      <trkpt lat="47.58161" lon="-2.29331">
        <ele>9.6</ele>
        <time>2025-01-16T09:04:05Z</time>
      </trkpt>
      <trkpt lat="47.58161" lon="-2.29331">
        <ele>9.6</ele>
        <time>2025-01-16T09:04:06Z</time>
      </trkpt>
      <trkpt lat="47.58161" lon="-2.29331">
        <ele>9.6</ele>
        <time>2025-01-16T09:04:07Z</time>
      </trkpt>
      <trkpt lat="47.58161" lon="-2.29331">
        <ele>9.6</ele>
        <time>2025-01-16T09:04:08Z</time>
      </trkpt>
      <trkpt lat="47.58161" lon="-2.29331">
        <ele>9.6</ele>
        <time>2025-01-16T09:04:09Z</time>
      </trkpt>
      <trkpt lat="47.58161" lon="-2.29331">
        <ele>9.6</ele>
        <time>2025-01-16T09:04:10Z</time>
      </trkpt>
      <trkpt lat="47.58161" lon="-2.29331">
        <ele>9.6</ele>
        <time>2025-01-16T09:04:11Z</time>
      </trkpt>
      <trkpt lat="47.58161" lon="-2.29331">
        <ele>9.6</ele>
        <time>2025-01-16T09:04:12Z</time>
      </trkpt>
      <trkpt lat="47.58161" lon="-2.29331">
        <ele>9.6</ele>
        <time>2025-01-16T09:04:13Z</time>
      </trkpt>
      <trkpt lat="47.58161" lon="-2.29331">
        <ele>9.6</ele>
        <time>2025-01-16T09:04:14Z</time>
      </trkpt>
      <trkpt lat="47.58161" lon="-2.29331">
        <ele>9.6</ele>
        <time>2025-01-16T09:04:15Z</time>
      </trkpt>
      <trkpt lat="47.58161" lon="-2.29331">
        <ele>9.6</ele>
        <time>2025-01-16T09:04:16Z</time>
      </trkpt>
      <trkpt lat="47.58161" lon="-2.29331">
        <ele>9.6</ele>
        <time>2025-01-16T09:04:17Z</time>
      </trkpt>
      <trkpt lat="47.58161" lon="-2.29331">
        <ele>9.6</ele>
        <time>2025-01-16T09:04:18Z</time>
      </trkpt>
      <trkpt lat="47.58161" lon="-2.29331">
        <ele>9.6</ele>
        <time>2025-01-16T09:04:19Z</time>
      </trkpt>
      <trkpt lat="47.58161" lon="-2.29331">
        <ele>9.6</ele>
        <time>2025-01-16T09:04:20Z</time>
      </trkpt>
      <trkpt lat="47.58161" lon="-2.29331">
        <ele>9.6</ele>
        <time>2025-01-16T09:04:21Z</time>
      </trkpt>
      <trkpt lat="47.58161" lon="-2.29331">
        <ele>9.6</ele>
        <time>2025-01-16T09:04:22Z</time>
      </trkpt>
      <trkpt lat="47.58161" lon="-2.29331">
        <ele>9.6</ele>
        <time>2025-01-16T09:04:23Z</time>
      </trkpt>
      <trkpt lat="47.58161" lon="-2.29331">
        <ele>9.6</ele>
        <time>2025-01-16T09:04:24Z</time>
      </trkpt>
      <trkpt lat="47.58161" lon="-2.29331">
        <ele>9.6</ele>
        <time>2025-01-16T09:04:25Z</time>
      </trkpt>
      <trkpt lat="47.58161" lon="-2.29331">
        <ele>9.6</ele>
        <time>2025-01-16T09:04:26Z</time>
      </trkpt>
      <trkpt lat="47.58161" lon="-2.29331">
        <ele>9.6</ele>
        <time>2025-01-16T09:04:27Z</time>
      </trkpt>
      <trkpt lat="47.58161" lon="-2.29331">
        <ele>9.6</ele>
        <time>2025-01-16T09:04:28Z</time>
      </trkpt>
      <trkpt lat="47.58161" lon="-2.29331">
        <ele>9.6</ele>
        <time>2025-01-16T09:04:29Z</time>
      </trkpt>
      <trkpt lat="47.58161" lon="-2.29331">
        <ele>9.6</ele>
        <time>2025-01-16T09:04:30Z</time>
      </trkpt>
      <trkpt lat="47.58161" lon="-2.29331">
        <ele>9.6</ele>
        <time>2025-01-16T09:04:31Z</time>
      </trkpt>
      <trkpt lat="47.58161" lon="-2.29331">
        <ele>9.6</ele>
        <time>2025-01-16T09:04:32Z</time>
      </trkpt>
      <trkpt lat="47.58162" lon="-2.29331">
        <ele>9.3</ele>
        <time>2025-01-16T09:04:33Z</time>
      </trkpt>
      <trkpt lat="47.58162" lon="-2.29331">
        <ele>9.3</ele>
        <time>2025-01-16T09:04:34Z</time>
      </trkpt>
      <trkpt lat="47.58163" lon="-2.29331">
        <ele>9</ele>
        <time>2025-01-16T09:04:35Z</time>
      </trkpt>
      <trkpt lat="47.58163" lon="-2.29331">
        <ele>9</ele>
        <time>2025-01-16T09:04:36Z</time>
      </trkpt>
      <trkpt lat="47.58164" lon="-2.2933">
        <ele>8.6</ele>
        <time>2025-01-16T09:04:37Z</time>
      </trkpt>
      <trkpt lat="47.58164" lon="-2.2933">
        <ele>8.6</ele>
        <time>2025-01-16T09:04:38Z</time>
      </trkpt>
      <trkpt lat="47.58164" lon="-2.2933">
        <ele>8.6</ele>
        <time>2025-01-16T09:04:39Z</time>
      </trkpt>
      <trkpt lat="47.58165" lon="-2.29329">
        <ele>8.2</ele>
        <time>2025-01-16T09:04:40Z</time>
      </trkpt>
      <trkpt lat="47.58165" lon="-2.29329">
        <ele>8.2</ele>
        <time>2025-01-16T09:04:41Z</time>
      </trkpt>
      <trkpt lat="47.58165" lon="-2.29329">
        <ele>8.2</ele>
        <time>2025-01-16T09:04:42Z</time>
      </trkpt>
      <trkpt lat="47.58165" lon="-2.29329">
        <ele>8.2</ele>
        <time>2025-01-16T09:04:43Z</time>
      </trkpt>
      <trkpt lat="47.58165" lon="-2.29329">
        <ele>8.2</ele>
        <time>2025-01-16T09:04:44Z</time>
      </trkpt>
      <trkpt lat="47.58165" lon="-2.29329">
        <ele>8.2</ele>
        <time>2025-01-16T09:04:45Z</time>
      </trkpt>
      <trkpt lat="47.58165" lon="-2.29329">
        <ele>8.2</ele>
        <time>2025-01-16T09:04:46Z</time>
      </trkpt>
      <trkpt lat="47.58165" lon="-2.29329">
        <ele>8.2</ele>
        <time>2025-01-16T09:04:47Z</time>
      </trkpt>
      <trkpt lat="47.58165" lon="-2.29329">
        <ele>8.2</ele>
        <time>2025-01-16T09:04:48Z</time>
      </trkpt>
      <trkpt lat="47.58166" lon="-2.29329">
        <ele>7.9</ele>
        <time>2025-01-16T09:04:49Z</time>
      </trkpt>
      <trkpt lat="47.58166" lon="-2.29329">
        <ele>7.9</ele>
        <time>2025-01-16T09:04:50Z</time>
      </trkpt>
      <trkpt lat="47.58166" lon="-2.29328">
        <ele>7.8</ele>
        <time>2025-01-16T09:04:51Z</time>
      </trkpt>
      <trkpt lat="47.58167" lon="-2.29328">
        <ele>7.6</ele>
        <time>2025-01-16T09:04:52Z</time>
      </trkpt>
      <trkpt lat="47.58167" lon="-2.29328">
        <ele>7.6</ele>
        <time>2025-01-16T09:04:53Z</time>
      </trkpt>
      <trkpt lat="47.58167" lon="-2.29328">
        <ele>7.6</ele>
        <time>2025-01-16T09:04:54Z</time>
      </trkpt>
      <trkpt lat="47.58167" lon="-2.29328">
        <ele>7.6</ele>
        <time>2025-01-16T09:04:55Z</time>
      </trkpt>
      <trkpt lat="47.58167" lon="-2.29328">
        <ele>7.6</ele>
        <time>2025-01-16T09:04:56Z</time>
      </trkpt>
      <trkpt lat="47.58167" lon="-2.29328">
        <ele>7.6</ele>
        <time>2025-01-16T09:04:57Z</time>
      </trkpt>
      <trkpt lat="47.58167" lon="-2.29328">
        <ele>7.6</ele>
        <time>2025-01-16T09:04:58Z</time>
      </trkpt>
      <trkpt lat="47.58167" lon="-2.29328">
        <ele>7.6</ele>
        <time>2025-01-16T09:04:59Z</time>
      </trkpt>
      <trkpt lat="47.58167" lon="-2.29328">
        <ele>7.6</ele>
        <time>2025-01-16T09:05:00Z</time>
      </trkpt>
      <trkpt lat="47.58167" lon="-2.29328">
        <ele>7.6</ele>
        <time>2025-01-16T09:05:01Z</time>
      </trkpt>
      <trkpt lat="47.58167" lon="-2.29328">
        <ele>7.6</ele>
        <time>2025-01-16T09:05:02Z</time>
      </trkpt>
      <trkpt lat="47.58167" lon="-2.29328">
        <ele>7.6</ele>
        <time>2025-01-16T09:05:03Z</time>
      </trkpt>
      <trkpt lat="47.58167" lon="-2.29328">
        <ele>7.6</ele>
        <time>2025-01-16T09:05:04Z</time>
      </trkpt>
      <trkpt lat="47.58167" lon="-2.29328">
        <ele>7.6</ele>
        <time>2025-01-16T09:05:05Z</time>
      </trkpt>
      <trkpt lat="47.58167" lon="-2.29328">
        <ele>7.6</ele>
        <time>2025-01-16T09:05:06Z</time>
      </trkpt>
      <trkpt lat="47.58167" lon="-2.29328">
        <ele>7.6</ele>
        <time>2025-01-16T09:05:07Z</time>
      </trkpt>
      <trkpt lat="47.58167" lon="-2.29328">
        <ele>7.6</ele>
        <time>2025-01-16T09:05:08Z</time>
      </trkpt>
      <trkpt lat="47.58167" lon="-2.29328">
        <ele>7.6</ele>
        <time>2025-01-16T09:05:09Z</time>
      </trkpt>
      <trkpt lat="47.58167" lon="-2.29327">
        <ele>7.6</ele>
        <time>2025-01-16T09:05:10Z</time>
      </trkpt>
      <trkpt lat="47.58167" lon="-2.29327">
        <ele>7.6</ele>
        <time>2025-01-16T09:05:11Z</time>
      </trkpt>
      <trkpt lat="47.58167" lon="-2.29327">
        <ele>7.6</ele>
        <time>2025-01-16T09:05:12Z</time>
      </trkpt>
      <trkpt lat="47.58167" lon="-2.29327">
        <ele>7.6</ele>
        <time>2025-01-16T09:05:13Z</time>
      </trkpt>
      <trkpt lat="47.58167" lon="-2.29327">
        <ele>7.6</ele>
        <time>2025-01-16T09:05:14Z</time>
      </trkpt>
      <trkpt lat="47.58167" lon="-2.29327">
        <ele>7.6</ele>
        <time>2025-01-16T09:05:15Z</time>
      </trkpt>
      <trkpt lat="47.58167" lon="-2.29327">
        <ele>7.6</ele>
        <time>2025-01-16T09:05:16Z</time>
      </trkpt>
      <trkpt lat="47.58167" lon="-2.29327">
        <ele>7.6</ele>
        <time>2025-01-16T09:05:17Z</time>
      </trkpt>
      <trkpt lat="47.58167" lon="-2.29327">
        <ele>7.6</ele>
        <time>2025-01-16T09:05:18Z</time>
      </trkpt>
      <trkpt lat="47.58167" lon="-2.29327">
        <ele>7.6</ele>
        <time>2025-01-16T09:05:19Z</time>
      </trkpt>
      <trkpt lat="47.58167" lon="-2.29327">
        <ele>7.6</ele>
        <time>2025-01-16T09:05:20Z</time>
      </trkpt>
      <trkpt lat="47.58167" lon="-2.29327">
        <ele>7.6</ele>
        <time>2025-01-16T09:05:21Z</time>
      </trkpt>
      <trkpt lat="47.58167" lon="-2.29327">
        <ele>7.6</ele>
        <time>2025-01-16T09:05:22Z</time>
      </trkpt>
      <trkpt lat="47.58167" lon="-2.29327">
        <ele>7.6</ele>
        <time>2025-01-16T09:05:23Z</time>
      </trkpt>
      <trkpt lat="47.58167" lon="-2.29327">
        <ele>7.6</ele>
        <time>2025-01-16T09:05:24Z</time>
      </trkpt>
      <trkpt lat="47.58167" lon="-2.29327">
        <ele>7.6</ele>
        <time>2025-01-16T09:05:25Z</time>
      </trkpt>
      <trkpt lat="47.58167" lon="-2.29327">
        <ele>7.6</ele>
        <time>2025-01-16T09:05:26Z</time>
      </trkpt>
      <trkpt lat="47.58167" lon="-2.29327">
        <ele>7.6</ele>
        <time>2025-01-16T09:05:27Z</time>
      </trkpt>
      <trkpt lat="47.58167" lon="-2.29327">
        <ele>7.6</ele>
        <time>2025-01-16T09:05:28Z</time>
      </trkpt>
      <trkpt lat="47.58167" lon="-2.29327">
        <ele>7.6</ele>
        <time>2025-01-16T09:05:29Z</time>
      </trkpt>
      <trkpt lat="47.58167" lon="-2.29327">
        <ele>7.6</ele>
        <time>2025-01-16T09:05:30Z</time>
      </trkpt>
      <trkpt lat="47.58167" lon="-2.29327">
        <ele>7.6</ele>
        <time>2025-01-16T09:05:31Z</time>
      </trkpt>
      <trkpt lat="47.58167" lon="-2.29327">
        <ele>7.6</ele>
        <time>2025-01-16T09:05:32Z</time>
      </trkpt>
      <trkpt lat="47.58167" lon="-2.29327">
        <ele>7.6</ele>
        <time>2025-01-16T09:05:33Z</time>
      </trkpt>
      <trkpt lat="47.58167" lon="-2.29327">
        <ele>7.6</ele>
        <time>2025-01-16T09:05:34Z</time>
      </trkpt>
      <trkpt lat="47.58167" lon="-2.29327">
        <ele>7.6</ele>
        <time>2025-01-16T09:05:35Z</time>
      </trkpt>
      <trkpt lat="47.58167" lon="-2.29327">
        <ele>7.6</ele>
        <time>2025-01-16T09:05:36Z</time>
      </trkpt>
      <trkpt lat="47.58167" lon="-2.29327">
        <ele>7.6</ele>
        <time>2025-01-16T09:05:37Z</time>
      </trkpt>
      <trkpt lat="47.58167" lon="-2.29327">
        <ele>7.6</ele>
        <time>2025-01-16T09:05:38Z</time>
      </trkpt>
      <trkpt lat="47.58167" lon="-2.29327">
        <ele>7.6</ele>
        <time>2025-01-16T09:05:39Z</time>
      </trkpt>
      <trkpt lat="47.58167" lon="-2.29327">
        <ele>7.6</ele>
        <time>2025-01-16T09:05:40Z</time>
      </trkpt>
      <trkpt lat="47.58167" lon="-2.29327">
        <ele>7.6</ele>
        <time>2025-01-16T09:05:41Z</time>
      </trkpt>
      <trkpt lat="47.58167" lon="-2.29327">
        <ele>7.6</ele>
        <time>2025-01-16T09:05:42Z</time>
      </trkpt>
      <trkpt lat="47.58167" lon="-2.29327">
        <ele>7.6</ele>
        <time>2025-01-16T09:05:43Z</time>
      </trkpt>
      <trkpt lat="47.58167" lon="-2.29328">
        <ele>7.6</ele>
        <time>2025-01-16T09:05:44Z</time>
      </trkpt>
      <trkpt lat="47.58167" lon="-2.29328">
        <ele>7.6</ele>
        <time>2025-01-16T09:05:45Z</time>
      </trkpt>
      <trkpt lat="47.58166" lon="-2.29329">
        <ele>7.9</ele>
        <time>2025-01-16T09:05:46Z</time>
      </trkpt>
      <trkpt lat="47.58166" lon="-2.29329">
        <ele>7.9</ele>
        <time>2025-01-16T09:05:47Z</time>
      </trkpt>
      <trkpt lat="47.58166" lon="-2.2933">
        <ele>8</ele>
        <time>2025-01-16T09:05:48Z</time>
      </trkpt>
      <trkpt lat="47.58166" lon="-2.2933">
        <ele>8</ele>
        <time>2025-01-16T09:05:49Z</time>
      </trkpt>
      <trkpt lat="47.58165" lon="-2.2933">
        <ele>8.3</ele>
        <time>2025-01-16T09:05:50Z</time>
      </trkpt>
      <trkpt lat="47.58165" lon="-2.2933">
        <ele>8.3</ele>
        <time>2025-01-16T09:05:51Z</time>
      </trkpt>
      <trkpt lat="47.58165" lon="-2.29331">
        <ele>8.4</ele>
        <time>2025-01-16T09:05:52Z</time>
      </trkpt>
      <trkpt lat="47.58164" lon="-2.29331">
        <ele>8.7</ele>
        <time>2025-01-16T09:05:53Z</time>
      </trkpt>
      <trkpt lat="47.58164" lon="-2.29331">
        <ele>8.7</ele>
        <time>2025-01-16T09:05:54Z</time>
      </trkpt>
      <trkpt lat="47.58164" lon="-2.29331">
        <ele>8.7</ele>
        <time>2025-01-16T09:05:55Z</time>
      </trkpt>
      <trkpt lat="47.58164" lon="-2.29331">
        <ele>8.7</ele>
        <time>2025-01-16T09:05:56Z</time>
      </trkpt>
      <trkpt lat="47.58164" lon="-2.29331">
        <ele>8.7</ele>
        <time>2025-01-16T09:05:57Z</time>
      </trkpt>
      <trkpt lat="47.58164" lon="-2.29331">
        <ele>8.7</ele>
        <time>2025-01-16T09:05:58Z</time>
      </trkpt>
      <trkpt lat="47.58164" lon="-2.29331">
        <ele>8.7</ele>
        <time>2025-01-16T09:05:59Z</time>
      </trkpt>
      <trkpt lat="47.58164" lon="-2.29331">
        <ele>8.7</ele>
        <time>2025-01-16T09:06:00Z</time>
      </trkpt>
      <trkpt lat="47.58164" lon="-2.29331">
        <ele>8.7</ele>
        <time>2025-01-16T09:06:01Z</time>
      </trkpt>
      <trkpt lat="47.58164" lon="-2.29331">
        <ele>8.7</ele>
        <time>2025-01-16T09:06:02Z</time>
      </trkpt>
      <trkpt lat="47.58164" lon="-2.29331">
        <ele>8.7</ele>
        <time>2025-01-16T09:06:03Z</time>
      </trkpt>
      <trkpt lat="47.58164" lon="-2.29331">
        <ele>8.7</ele>
        <time>2025-01-16T09:06:04Z</time>
      </trkpt>
      <trkpt lat="47.58164" lon="-2.29331">
        <ele>8.7</ele>
        <time>2025-01-16T09:06:05Z</time>
      </trkpt>
      <trkpt lat="47.58164" lon="-2.29331">
        <ele>8.7</ele>
        <time>2025-01-16T09:06:06Z</time>
      </trkpt>
      <trkpt lat="47.58164" lon="-2.29331">
        <ele>8.7</ele>
        <time>2025-01-16T09:06:07Z</time>
      </trkpt>
      <trkpt lat="47.58164" lon="-2.29331">
        <ele>8.7</ele>
        <time>2025-01-16T09:06:08Z</time>
      </trkpt>
      <trkpt lat="47.58164" lon="-2.29331">
        <ele>8.7</ele>
        <time>2025-01-16T09:06:09Z</time>
      </trkpt>
      <trkpt lat="47.58164" lon="-2.29331">
        <ele>8.7</ele>
        <time>2025-01-16T09:06:10Z</time>
      </trkpt>
      <trkpt lat="47.58164" lon="-2.29331">
        <ele>8.7</ele>
        <time>2025-01-16T09:06:11Z</time>
      </trkpt>
      <trkpt lat="47.58164" lon="-2.29331">
        <ele>8.7</ele>
        <time>2025-01-16T09:06:12Z</time>
      </trkpt>
      <trkpt lat="47.58164" lon="-2.29331">
        <ele>8.7</ele>
        <time>2025-01-16T09:06:13Z</time>
      </trkpt>
      <trkpt lat="47.58164" lon="-2.29331">
        <ele>8.7</ele>
        <time>2025-01-16T09:06:14Z</time>
      </trkpt>
      <trkpt lat="47.58164" lon="-2.29331">
        <ele>8.7</ele>
        <time>2025-01-16T09:06:15Z</time>
      </trkpt>
      <trkpt lat="47.58164" lon="-2.29331">
        <ele>8.7</ele>
        <time>2025-01-16T09:06:16Z</time>
      </trkpt>
      <trkpt lat="47.58164" lon="-2.29331">
        <ele>8.7</ele>
        <time>2025-01-16T09:06:17Z</time>
      </trkpt>
      <trkpt lat="47.58164" lon="-2.29331">
        <ele>8.7</ele>
        <time>2025-01-16T09:06:18Z</time>
      </trkpt>
      <trkpt lat="47.58163" lon="-2.29331">
        <ele>9</ele>
        <time>2025-01-16T09:06:19Z</time>
      </trkpt>
      <trkpt lat="47.58163" lon="-2.29331">
        <ele>9</ele>
        <time>2025-01-16T09:06:20Z</time>
      </trkpt>
      <trkpt lat="47.58162" lon="-2.29332">
        <ele>9.4</ele>
        <time>2025-01-16T09:06:21Z</time>
      </trkpt>
      <trkpt lat="47.58162" lon="-2.29332">
        <ele>9.4</ele>
        <time>2025-01-16T09:06:22Z</time>
      </trkpt>
      <trkpt lat="47.58162" lon="-2.29333">
        <ele>9.5</ele>
        <time>2025-01-16T09:06:23Z</time>
      </trkpt>
      <trkpt lat="47.58161" lon="-2.29333">
        <ele>9.8</ele>
        <time>2025-01-16T09:06:24Z</time>
      </trkpt>
      <trkpt lat="47.58161" lon="-2.29333">
        <ele>9.8</ele>
        <time>2025-01-16T09:06:25Z</time>
      </trkpt>
      <trkpt lat="47.58161" lon="-2.29333">
        <ele>9.8</ele>
        <time>2025-01-16T09:06:26Z</time>
      </trkpt>
      <trkpt lat="47.58161" lon="-2.29333">
        <ele>9.8</ele>
        <time>2025-01-16T09:06:27Z</time>
      </trkpt>
      <trkpt lat="47.58161" lon="-2.29333">
        <ele>9.8</ele>
        <time>2025-01-16T09:06:28Z</time>
      </trkpt>
      <trkpt lat="47.58161" lon="-2.29333">
        <ele>9.8</ele>
        <time>2025-01-16T09:06:29Z</time>
      </trkpt>
      <trkpt lat="47.58161" lon="-2.29333">
        <ele>9.8</ele>
        <time>2025-01-16T09:06:30Z</time>
      </trkpt>
      <trkpt lat="47.58161" lon="-2.29333">
        <ele>9.8</ele>
        <time>2025-01-16T09:06:31Z</time>
      </trkpt>
      <trkpt lat="47.58161" lon="-2.29333">
        <ele>9.8</ele>
        <time>2025-01-16T09:06:32Z</time>
      </trkpt>
      <trkpt lat="47.58161" lon="-2.29333">
        <ele>9.8</ele>
        <time>2025-01-16T09:06:33Z</time>
      </trkpt>
      <trkpt lat="47.58161" lon="-2.29333">
        <ele>9.8</ele>
        <time>2025-01-16T09:06:34Z</time>
      </trkpt>
      <trkpt lat="47.58161" lon="-2.29333">
        <ele>9.8</ele>
        <time>2025-01-16T09:06:35Z</time>
      </trkpt>
      <trkpt lat="47.58161" lon="-2.29333">
        <ele>9.8</ele>
        <time>2025-01-16T09:06:36Z</time>
      </trkpt>
      <trkpt lat="47.58161" lon="-2.29333">
        <ele>9.8</ele>
        <time>2025-01-16T09:06:37Z</time>
      </trkpt>
      <trkpt lat="47.58161" lon="-2.29333">
        <ele>9.8</ele>
        <time>2025-01-16T09:06:38Z</time>
      </trkpt>
      <trkpt lat="47.58161" lon="-2.29333">
        <ele>9.8</ele>
        <time>2025-01-16T09:06:39Z</time>
      </trkpt>
      <trkpt lat="47.58161" lon="-2.29333">
        <ele>9.8</ele>
        <time>2025-01-16T09:06:40Z</time>
      </trkpt>
      <trkpt lat="47.58161" lon="-2.29333">
        <ele>9.8</ele>
        <time>2025-01-16T09:06:41Z</time>
      </trkpt>
      <trkpt lat="47.58161" lon="-2.29333">
        <ele>9.8</ele>
        <time>2025-01-16T09:06:42Z</time>
      </trkpt>
      <trkpt lat="47.58161" lon="-2.29334">
        <ele>9.8</ele>
        <time>2025-01-16T09:06:43Z</time>
      </trkpt>
      <trkpt lat="47.58161" lon="-2.29336">
        <ele>9.8</ele>
        <time>2025-01-16T09:06:44Z</time>
      </trkpt>
      <trkpt lat="47.58162" lon="-2.29337">
        <ele>9.4</ele>
        <time>2025-01-16T09:06:45Z</time>
      </trkpt>
      <trkpt lat="47.58163" lon="-2.29337">
        <ele>9.1</ele>
        <time>2025-01-16T09:06:46Z</time>
      </trkpt>
      <trkpt lat="47.58163" lon="-2.29337">
        <ele>9.1</ele>
        <time>2025-01-16T09:06:47Z</time>
      </trkpt>
      <trkpt lat="47.58163" lon="-2.29338">
        <ele>9.1</ele>
        <time>2025-01-16T09:06:48Z</time>
      </trkpt>
      <trkpt lat="47.58163" lon="-2.29338">
        <ele>9.1</ele>
        <time>2025-01-16T09:06:49Z</time>
      </trkpt>
      <trkpt lat="47.58163" lon="-2.29338">
        <ele>9.1</ele>
        <time>2025-01-16T09:06:50Z</time>
      </trkpt>
      <trkpt lat="47.58163" lon="-2.29339">
        <ele>9.1</ele>
        <time>2025-01-16T09:06:51Z</time>
      </trkpt>
      <trkpt lat="47.58163" lon="-2.2934">
        <ele>9.1</ele>
        <time>2025-01-16T09:06:52Z</time>
      </trkpt>
      <trkpt lat="47.58162" lon="-2.29341">
        <ele>9.4</ele>
        <time>2025-01-16T09:06:53Z</time>
      </trkpt>
      <trkpt lat="47.58162" lon="-2.29342">
        <ele>9.4</ele>
        <time>2025-01-16T09:06:54Z</time>
      </trkpt>
      <trkpt lat="47.58162" lon="-2.29342">
        <ele>9.4</ele>
        <time>2025-01-16T09:06:55Z</time>
      </trkpt>
      <trkpt lat="47.58162" lon="-2.29342">
        <ele>9.4</ele>
        <time>2025-01-16T09:06:56Z</time>
      </trkpt>
      <trkpt lat="47.58164" lon="-2.29342">
        <ele>8.8</ele>
        <time>2025-01-16T09:06:57Z</time>
      </trkpt>
      <trkpt lat="47.58164" lon="-2.29342">
        <ele>8.8</ele>
        <time>2025-01-16T09:06:58Z</time>
      </trkpt>
      <trkpt lat="47.58164" lon="-2.29343">
        <ele>8.8</ele>
        <time>2025-01-16T09:06:59Z</time>
      </trkpt>
      <trkpt lat="47.58165" lon="-2.29343">
        <ele>8.5</ele>
        <time>2025-01-16T09:07:00Z</time>
      </trkpt>
      <trkpt lat="47.58165" lon="-2.29343">
        <ele>8.5</ele>
        <time>2025-01-16T09:07:01Z</time>
      </trkpt>
      <trkpt lat="47.58165" lon="-2.29343">
        <ele>8.5</ele>
        <time>2025-01-16T09:07:02Z</time>
      </trkpt>
      <trkpt lat="47.58165" lon="-2.29344">
        <ele>8.5</ele>
        <time>2025-01-16T09:07:03Z</time>
      </trkpt>
      <trkpt lat="47.58165" lon="-2.29344">
        <ele>8.5</ele>
        <time>2025-01-16T09:07:04Z</time>
      </trkpt>
      <trkpt lat="47.58164" lon="-2.29346">
        <ele>8.7</ele>
        <time>2025-01-16T09:07:05Z</time>
      </trkpt>
      <trkpt lat="47.58164" lon="-2.29347">
        <ele>8.7</ele>
        <time>2025-01-16T09:07:06Z</time>
      </trkpt>
      <trkpt lat="47.58163" lon="-2.29348">
        <ele>9</ele>
        <time>2025-01-16T09:07:07Z</time>
      </trkpt>
      <trkpt lat="47.58163" lon="-2.29349">
        <ele>9</ele>
        <time>2025-01-16T09:07:08Z</time>
      </trkpt>
      <trkpt lat="47.58162" lon="-2.2935">
        <ele>9.2</ele>
        <time>2025-01-16T09:07:09Z</time>
      </trkpt>
      <trkpt lat="47.58162" lon="-2.29352">
        <ele>9.2</ele>
        <time>2025-01-16T09:07:10Z</time>
      </trkpt>
      <trkpt lat="47.58162" lon="-2.29353">
        <ele>9.2</ele>
        <time>2025-01-16T09:07:11Z</time>
      </trkpt>
      <trkpt lat="47.58161" lon="-2.29355">
        <ele>9.4</ele>
        <time>2025-01-16T09:07:12Z</time>
      </trkpt>
      <trkpt lat="47.58161" lon="-2.29356">
        <ele>9.3</ele>
        <time>2025-01-16T09:07:13Z</time>
      </trkpt>
      <trkpt lat="47.58161" lon="-2.29357">
        <ele>9.3</ele>
        <time>2025-01-16T09:07:14Z</time>
      </trkpt>
      <trkpt lat="47.58161" lon="-2.29358">
        <ele>9.3</ele>
        <time>2025-01-16T09:07:15Z</time>
      </trkpt>
      <trkpt lat="47.5816" lon="-2.29359">
        <ele>9.5</ele>
        <time>2025-01-16T09:07:16Z</time>
      </trkpt>
      <trkpt lat="47.5816" lon="-2.2936">
        <ele>9.5</ele>
        <time>2025-01-16T09:07:17Z</time>
      </trkpt>
      <trkpt lat="47.5816" lon="-2.29361">
        <ele>9.4</ele>
        <time>2025-01-16T09:07:18Z</time>
      </trkpt>
      <trkpt lat="47.58159" lon="-2.29363">
        <ele>9.6</ele>
        <time>2025-01-16T09:07:19Z</time>
      </trkpt>
      <trkpt lat="47.58158" lon="-2.29365">
        <ele>9.7</ele>
        <time>2025-01-16T09:07:20Z</time>
      </trkpt>
      <trkpt lat="47.58158" lon="-2.29366">
        <ele>9.7</ele>
        <time>2025-01-16T09:07:21Z</time>
      </trkpt>
      <trkpt lat="47.58157" lon="-2.29366">
        <ele>9.9</ele>
        <time>2025-01-16T09:07:22Z</time>
      </trkpt>
      <trkpt lat="47.58157" lon="-2.29367">
        <ele>9.9</ele>
        <time>2025-01-16T09:07:23Z</time>
      </trkpt>
      <trkpt lat="47.58156" lon="-2.29369">
        <ele>10</ele>
        <time>2025-01-16T09:07:24Z</time>
      </trkpt>
      <trkpt lat="47.58155" lon="-2.2937">
        <ele>10.1</ele>
        <time>2025-01-16T09:07:25Z</time>
      </trkpt>
      <trkpt lat="47.58154" lon="-2.29372">
        <ele>10.2</ele>
        <time>2025-01-16T09:07:26Z</time>
      </trkpt>
      <trkpt lat="47.58154" lon="-2.29373">
        <ele>10.2</ele>
        <time>2025-01-16T09:07:27Z</time>
      </trkpt>
      <trkpt lat="47.58152" lon="-2.29375">
        <ele>10.4</ele>
        <time>2025-01-16T09:07:28Z</time>
      </trkpt>
      <trkpt lat="47.58152" lon="-2.29376">
        <ele>10.3</ele>
        <time>2025-01-16T09:07:29Z</time>
      </trkpt>
      <trkpt lat="47.58151" lon="-2.29377">
        <ele>10.4</ele>
        <time>2025-01-16T09:07:30Z</time>
      </trkpt>
      <trkpt lat="47.5815" lon="-2.29377">
        <ele>10.6</ele>
        <time>2025-01-16T09:07:31Z</time>
      </trkpt>
      <trkpt lat="47.5815" lon="-2.29378">
        <ele>10.5</ele>
        <time>2025-01-16T09:07:32Z</time>
      </trkpt>
      <trkpt lat="47.58149" lon="-2.29379">
        <ele>10.6</ele>
        <time>2025-01-16T09:07:33Z</time>
      </trkpt>
      <trkpt lat="47.58149" lon="-2.29379">
        <ele>10.6</ele>
        <time>2025-01-16T09:07:34Z</time>
      </trkpt>
      <trkpt lat="47.58147" lon="-2.29381">
        <ele>10.7</ele>
        <time>2025-01-16T09:07:35Z</time>
      </trkpt>
      <trkpt lat="47.58146" lon="-2.29382">
        <ele>10.8</ele>
        <time>2025-01-16T09:07:36Z</time>
      </trkpt>
      <trkpt lat="47.58145" lon="-2.29383">
        <ele>10.8</ele>
        <time>2025-01-16T09:07:37Z</time>
      </trkpt>
      <trkpt lat="47.58145" lon="-2.29384">
        <ele>10.8</ele>
        <time>2025-01-16T09:07:38Z</time>
      </trkpt>
      <trkpt lat="47.58144" lon="-2.29386">
        <ele>10.7</ele>
        <time>2025-01-16T09:07:39Z</time>
      </trkpt>
      <trkpt lat="47.58143" lon="-2.29387">
        <ele>10.7</ele>
        <time>2025-01-16T09:07:40Z</time>
      </trkpt>
      <trkpt lat="47.58142" lon="-2.29388">
        <ele>10.7</ele>
        <time>2025-01-16T09:07:41Z</time>
      </trkpt>
      <trkpt lat="47.58141" lon="-2.29389">
        <ele>10.8</ele>
        <time>2025-01-16T09:07:42Z</time>
      </trkpt>
      <trkpt lat="47.5814" lon="-2.29389">
        <ele>10.9</ele>
        <time>2025-01-16T09:07:43Z</time>
      </trkpt>
      <trkpt lat="47.58139" lon="-2.2939">
        <ele>10.9</ele>
        <time>2025-01-16T09:07:44Z</time>
      </trkpt>
      <trkpt lat="47.58138" lon="-2.29391">
        <ele>11.1</ele>
        <time>2025-01-16T09:07:45Z</time>
      </trkpt>
      <trkpt lat="47.58137" lon="-2.29391">
        <ele>11.4</ele>
        <time>2025-01-16T09:07:46Z</time>
      </trkpt>
      <trkpt lat="47.58137" lon="-2.29392">
        <ele>11.3</ele>
        <time>2025-01-16T09:07:47Z</time>
      </trkpt>
      <trkpt lat="47.58137" lon="-2.29393">
        <ele>11.3</ele>
        <time>2025-01-16T09:07:48Z</time>
      </trkpt>
      <trkpt lat="47.58136" lon="-2.29393">
        <ele>11.5</ele>
        <time>2025-01-16T09:07:49Z</time>
      </trkpt>
      <trkpt lat="47.58136" lon="-2.29394">
        <ele>11.5</ele>
        <time>2025-01-16T09:07:50Z</time>
      </trkpt>
      <trkpt lat="47.58135" lon="-2.29395">
        <ele>11.6</ele>
        <time>2025-01-16T09:07:51Z</time>
      </trkpt>
      <trkpt lat="47.58135" lon="-2.29395">
        <ele>11.6</ele>
        <time>2025-01-16T09:07:52Z</time>
      </trkpt>
      <trkpt lat="47.58135" lon="-2.29396">
        <ele>11.6</ele>
        <time>2025-01-16T09:07:53Z</time>
      </trkpt>
      <trkpt lat="47.58135" lon="-2.29396">
        <ele>11.6</ele>
        <time>2025-01-16T09:07:54Z</time>
      </trkpt>
      <trkpt lat="47.58135" lon="-2.29396">
        <ele>11.6</ele>
        <time>2025-01-16T09:07:55Z</time>
      </trkpt>
      <trkpt lat="47.58134" lon="-2.29397">
        <ele>11.7</ele>
        <time>2025-01-16T09:07:56Z</time>
      </trkpt>
      <trkpt lat="47.58134" lon="-2.29398">
        <ele>11.7</ele>
        <time>2025-01-16T09:07:57Z</time>
      </trkpt>
      <trkpt lat="47.58134" lon="-2.29399">
        <ele>11.6</ele>
        <time>2025-01-16T09:07:58Z</time>
      </trkpt>
      <trkpt lat="47.58133" lon="-2.29399">
        <ele>11.8</ele>
        <time>2025-01-16T09:07:59Z</time>
      </trkpt>
      <trkpt lat="47.58133" lon="-2.294">
        <ele>11.7</ele>
        <time>2025-01-16T09:08:00Z</time>
      </trkpt>
      <trkpt lat="47.58132" lon="-2.29401">
        <ele>11.9</ele>
        <time>2025-01-16T09:08:01Z</time>
      </trkpt>
      <trkpt lat="47.58132" lon="-2.29401">
        <ele>11.9</ele>
        <time>2025-01-16T09:08:02Z</time>
      </trkpt>
      <trkpt lat="47.58131" lon="-2.29402">
        <ele>12</ele>
        <time>2025-01-16T09:08:03Z</time>
      </trkpt>
      <trkpt lat="47.58131" lon="-2.29402">
        <ele>12</ele>
        <time>2025-01-16T09:08:04Z</time>
      </trkpt>
      <trkpt lat="47.5813" lon="-2.29402">
        <ele>12.2</ele>
        <time>2025-01-16T09:08:05Z</time>
      </trkpt>
      <trkpt lat="47.58128" lon="-2.29403">
        <ele>12.4</ele>
        <time>2025-01-16T09:08:06Z</time>
      </trkpt>
      <trkpt lat="47.58127" lon="-2.29404">
        <ele>12.5</ele>
        <time>2025-01-16T09:08:07Z</time>
      </trkpt>
      <trkpt lat="47.58126" lon="-2.29404">
        <ele>12.7</ele>
        <time>2025-01-16T09:08:08Z</time>
      </trkpt>
      <trkpt lat="47.58125" lon="-2.29405">
        <ele>12.8</ele>
        <time>2025-01-16T09:08:09Z</time>
      </trkpt>
      <trkpt lat="47.58124" lon="-2.29405">
        <ele>12.9</ele>
        <time>2025-01-16T09:08:10Z</time>
      </trkpt>
      <trkpt lat="47.58123" lon="-2.29406">
        <ele>13</ele>
        <time>2025-01-16T09:08:11Z</time>
      </trkpt>
      <trkpt lat="47.58123" lon="-2.29406">
        <ele>13</ele>
        <time>2025-01-16T09:08:12Z</time>
      </trkpt>
      <trkpt lat="47.58122" lon="-2.29407">
        <ele>13</ele>
        <time>2025-01-16T09:08:13Z</time>
      </trkpt>
      <trkpt lat="47.58122" lon="-2.29407">
        <ele>13</ele>
        <time>2025-01-16T09:08:14Z</time>
      </trkpt>
      <trkpt lat="47.58121" lon="-2.29408">
        <ele>13</ele>
        <time>2025-01-16T09:08:15Z</time>
      </trkpt>
      <trkpt lat="47.58119" lon="-2.29408">
        <ele>13.4</ele>
        <time>2025-01-16T09:08:16Z</time>
      </trkpt>
      <trkpt lat="47.58118" lon="-2.29408">
        <ele>13.5</ele>
        <time>2025-01-16T09:08:17Z</time>
      </trkpt>
      <trkpt lat="47.58116" lon="-2.29408">
        <ele>13.8</ele>
        <time>2025-01-16T09:08:18Z</time>
      </trkpt>
      <trkpt lat="47.58115" lon="-2.29408">
        <ele>14</ele>
        <time>2025-01-16T09:08:19Z</time>
      </trkpt>
      <trkpt lat="47.58114" lon="-2.29409">
        <ele>14</ele>
        <time>2025-01-16T09:08:20Z</time>
      </trkpt>
      <trkpt lat="47.58112" lon="-2.2941">
        <ele>14.1</ele>
        <time>2025-01-16T09:08:21Z</time>
      </trkpt>
      <trkpt lat="47.58111" lon="-2.29411">
        <ele>14</ele>
        <time>2025-01-16T09:08:22Z</time>
      </trkpt>
      <trkpt lat="47.58109" lon="-2.29412">
        <ele>14.3</ele>
        <time>2025-01-16T09:08:23Z</time>
      </trkpt>
      <trkpt lat="47.58107" lon="-2.29414">
        <ele>14.3</ele>
        <time>2025-01-16T09:08:24Z</time>
      </trkpt>
      <trkpt lat="47.58106" lon="-2.29415">
        <ele>14.4</ele>
        <time>2025-01-16T09:08:25Z</time>
      </trkpt>
      <trkpt lat="47.58105" lon="-2.29416">
        <ele>14.4</ele>
        <time>2025-01-16T09:08:26Z</time>
      </trkpt>
      <trkpt lat="47.58103" lon="-2.29417">
        <ele>14.7</ele>
        <time>2025-01-16T09:08:27Z</time>
      </trkpt>
      <trkpt lat="47.58101" lon="-2.29418">
        <ele>15.1</ele>
        <time>2025-01-16T09:08:28Z</time>
      </trkpt>
      <trkpt lat="47.581" lon="-2.29419">
        <ele>15.2</ele>
        <time>2025-01-16T09:08:29Z</time>
      </trkpt>
      <trkpt lat="47.58099" lon="-2.2942">
        <ele>15.4</ele>
        <time>2025-01-16T09:08:30Z</time>
      </trkpt>
      <trkpt lat="47.58098" lon="-2.29421">
        <ele>15.5</ele>
        <time>2025-01-16T09:08:31Z</time>
      </trkpt>
      <trkpt lat="47.58096" lon="-2.29422">
        <ele>15.7</ele>
        <time>2025-01-16T09:08:32Z</time>
      </trkpt>
      <trkpt lat="47.58095" lon="-2.29424">
        <ele>15.7</ele>
        <time>2025-01-16T09:08:33Z</time>
      </trkpt>
      <trkpt lat="47.58094" lon="-2.29426">
        <ele>15.7</ele>
        <time>2025-01-16T09:08:34Z</time>
      </trkpt>
      <trkpt lat="47.58094" lon="-2.29426">
        <ele>15.7</ele>
        <time>2025-01-16T09:08:35Z</time>
      </trkpt>
      <trkpt lat="47.58093" lon="-2.29427">
        <ele>15.7</ele>
        <time>2025-01-16T09:08:36Z</time>
      </trkpt>
      <trkpt lat="47.58093" lon="-2.29427">
        <ele>15.7</ele>
        <time>2025-01-16T09:08:37Z</time>
      </trkpt>
      <trkpt lat="47.58091" lon="-2.29427">
        <ele>16</ele>
        <time>2025-01-16T09:08:38Z</time>
      </trkpt>
      <trkpt lat="47.58091" lon="-2.29428">
        <ele>15.9</ele>
        <time>2025-01-16T09:08:39Z</time>
      </trkpt>
      <trkpt lat="47.5809" lon="-2.29428">
        <ele>16</ele>
        <time>2025-01-16T09:08:40Z</time>
      </trkpt>
      <trkpt lat="47.58089" lon="-2.29429">
        <ele>16</ele>
        <time>2025-01-16T09:08:41Z</time>
      </trkpt>
      <trkpt lat="47.58088" lon="-2.2943">
        <ele>16</ele>
        <time>2025-01-16T09:08:42Z</time>
      </trkpt>
      <trkpt lat="47.58088" lon="-2.2943">
        <ele>16</ele>
        <time>2025-01-16T09:08:43Z</time>
      </trkpt>
      <trkpt lat="47.58088" lon="-2.29431">
        <ele>15.8</ele>
        <time>2025-01-16T09:08:44Z</time>
      </trkpt>
      <trkpt lat="47.58087" lon="-2.29431">
        <ele>16</ele>
        <time>2025-01-16T09:08:45Z</time>
      </trkpt>
      <trkpt lat="47.58087" lon="-2.29431">
        <ele>16</ele>
        <time>2025-01-16T09:08:46Z</time>
      </trkpt>
      <trkpt lat="47.58087" lon="-2.29431">
        <ele>16</ele>
        <time>2025-01-16T09:08:47Z</time>
      </trkpt>
      <trkpt lat="47.58087" lon="-2.29432">
        <ele>15.8</ele>
        <time>2025-01-16T09:08:48Z</time>
      </trkpt>
      <trkpt lat="47.58086" lon="-2.29432">
        <ele>15.9</ele>
        <time>2025-01-16T09:08:49Z</time>
      </trkpt>
      <trkpt lat="47.58085" lon="-2.29433">
        <ele>15.9</ele>
        <time>2025-01-16T09:08:50Z</time>
      </trkpt>
      <trkpt lat="47.58084" lon="-2.29434">
        <ele>15.8</ele>
        <time>2025-01-16T09:08:51Z</time>
      </trkpt>
      <trkpt lat="47.58083" lon="-2.29435">
        <ele>15.8</ele>
        <time>2025-01-16T09:08:52Z</time>
      </trkpt>
      <trkpt lat="47.58082" lon="-2.29435">
        <ele>16</ele>
        <time>2025-01-16T09:08:53Z</time>
      </trkpt>
      <trkpt lat="47.58082" lon="-2.29436">
        <ele>15.8</ele>
        <time>2025-01-16T09:08:54Z</time>
      </trkpt>
      <trkpt lat="47.58081" lon="-2.29437">
        <ele>15.8</ele>
        <time>2025-01-16T09:08:55Z</time>
      </trkpt>
      <trkpt lat="47.5808" lon="-2.29438">
        <ele>15.9</ele>
        <time>2025-01-16T09:08:56Z</time>
      </trkpt>
      <trkpt lat="47.5808" lon="-2.29439">
        <ele>15.7</ele>
        <time>2025-01-16T09:08:57Z</time>
      </trkpt>
      <trkpt lat="47.5808" lon="-2.29439">
        <ele>15.7</ele>
        <time>2025-01-16T09:08:58Z</time>
      </trkpt>
      <trkpt lat="47.58079" lon="-2.2944">
        <ele>15.7</ele>
        <time>2025-01-16T09:08:59Z</time>
      </trkpt>
      <trkpt lat="47.58079" lon="-2.2944">
        <ele>15.7</ele>
        <time>2025-01-16T09:09:00Z</time>
      </trkpt>
      <trkpt lat="47.58079" lon="-2.2944">
        <ele>15.7</ele>
        <time>2025-01-16T09:09:01Z</time>
      </trkpt>
      <trkpt lat="47.58078" lon="-2.29441">
        <ele>15.7</ele>
        <time>2025-01-16T09:09:02Z</time>
      </trkpt>
      <trkpt lat="47.58077" lon="-2.29442">
        <ele>15.8</ele>
        <time>2025-01-16T09:09:03Z</time>
      </trkpt>
      <trkpt lat="47.58077" lon="-2.29442">
        <ele>15.8</ele>
        <time>2025-01-16T09:09:04Z</time>
      </trkpt>
      <trkpt lat="47.58077" lon="-2.29443">
        <ele>15.6</ele>
        <time>2025-01-16T09:09:05Z</time>
      </trkpt>
      <trkpt lat="47.58077" lon="-2.29443">
        <ele>15.6</ele>
        <time>2025-01-16T09:09:06Z</time>
      </trkpt>
      <trkpt lat="47.58077" lon="-2.29443">
        <ele>15.6</ele>
        <time>2025-01-16T09:09:07Z</time>
      </trkpt>
      <trkpt lat="47.58077" lon="-2.29443">
        <ele>15.6</ele>
        <time>2025-01-16T09:09:08Z</time>
      </trkpt>
      <trkpt lat="47.58077" lon="-2.29443">
        <ele>15.6</ele>
        <time>2025-01-16T09:09:09Z</time>
      </trkpt>
      <trkpt lat="47.58076" lon="-2.29444">
        <ele>15.7</ele>
        <time>2025-01-16T09:09:10Z</time>
      </trkpt>
      <trkpt lat="47.58074" lon="-2.29446">
        <ele>16.1</ele>
        <time>2025-01-16T09:09:11Z</time>
      </trkpt>
      <trkpt lat="47.58073" lon="-2.29447">
        <ele>16.3</ele>
        <time>2025-01-16T09:09:12Z</time>
      </trkpt>
      <trkpt lat="47.58072" lon="-2.29448">
        <ele>16.5</ele>
        <time>2025-01-16T09:09:13Z</time>
      </trkpt>
      <trkpt lat="47.58071" lon="-2.29449">
        <ele>16.7</ele>
        <time>2025-01-16T09:09:14Z</time>
      </trkpt>
      <trkpt lat="47.5807" lon="-2.29449">
        <ele>16.9</ele>
        <time>2025-01-16T09:09:15Z</time>
      </trkpt>
      <trkpt lat="47.58069" lon="-2.2945">
        <ele>17.1</ele>
        <time>2025-01-16T09:09:16Z</time>
      </trkpt>
      <trkpt lat="47.58068" lon="-2.29451">
        <ele>17.3</ele>
        <time>2025-01-16T09:09:17Z</time>
      </trkpt>
      <trkpt lat="47.58067" lon="-2.29452">
        <ele>17.4</ele>
        <time>2025-01-16T09:09:18Z</time>
      </trkpt>
      <trkpt lat="47.58066" lon="-2.29453">
        <ele>17.6</ele>
        <time>2025-01-16T09:09:19Z</time>
      </trkpt>
      <trkpt lat="47.58065" lon="-2.29454">
        <ele>17.7</ele>
        <time>2025-01-16T09:09:20Z</time>
      </trkpt>
      <trkpt lat="47.58064" lon="-2.29455">
        <ele>17.9</ele>
        <time>2025-01-16T09:09:21Z</time>
      </trkpt>
      <trkpt lat="47.58062" lon="-2.29456">
        <ele>18.2</ele>
        <time>2025-01-16T09:09:22Z</time>
      </trkpt>
      <trkpt lat="47.58061" lon="-2.29457">
        <ele>18.3</ele>
        <time>2025-01-16T09:09:23Z</time>
      </trkpt>
      <trkpt lat="47.5806" lon="-2.29459">
        <ele>18.3</ele>
        <time>2025-01-16T09:09:24Z</time>
      </trkpt>
      <trkpt lat="47.58059" lon="-2.2946">
        <ele>18.4</ele>
        <time>2025-01-16T09:09:25Z</time>
      </trkpt>
      <trkpt lat="47.58058" lon="-2.29461">
        <ele>18.5</ele>
        <time>2025-01-16T09:09:26Z</time>
      </trkpt>
      <trkpt lat="47.58058" lon="-2.29463">
        <ele>18.4</ele>
        <time>2025-01-16T09:09:27Z</time>
      </trkpt>
      <trkpt lat="47.58057" lon="-2.29464">
        <ele>18.4</ele>
        <time>2025-01-16T09:09:28Z</time>
      </trkpt>
      <trkpt lat="47.58055" lon="-2.29466">
        <ele>18.6</ele>
        <time>2025-01-16T09:09:29Z</time>
      </trkpt>
      <trkpt lat="47.58054" lon="-2.29468">
        <ele>18.6</ele>
        <time>2025-01-16T09:09:30Z</time>
      </trkpt>
      <trkpt lat="47.58053" lon="-2.29471">
        <ele>18.6</ele>
        <time>2025-01-16T09:09:31Z</time>
      </trkpt>
      <trkpt lat="47.58052" lon="-2.29474">
        <ele>18.9</ele>
        <time>2025-01-16T09:09:32Z</time>
      </trkpt>
      <trkpt lat="47.58051" lon="-2.29476">
        <ele>19.2</ele>
        <time>2025-01-16T09:09:34Z</time>
      </trkpt>
      <trkpt lat="47.58051" lon="-2.29477">
        <ele>19.3</ele>
        <time>2025-01-16T09:09:35Z</time>
      </trkpt>
      <trkpt lat="47.58051" lon="-2.29477">
        <ele>19.3</ele>
        <time>2025-01-16T09:09:36Z</time>
      </trkpt>
      <trkpt lat="47.58051" lon="-2.29478">
        <ele>19.3</ele>
        <time>2025-01-16T09:09:37Z</time>
      </trkpt>
      <trkpt lat="47.58051" lon="-2.29479">
        <ele>19.4</ele>
        <time>2025-01-16T09:09:38Z</time>
      </trkpt>
      <trkpt lat="47.58051" lon="-2.29481">
        <ele>19.5</ele>
        <time>2025-01-16T09:09:39Z</time>
      </trkpt>
      <trkpt lat="47.58051" lon="-2.29482">
        <ele>19.6</ele>
        <time>2025-01-16T09:09:40Z</time>
      </trkpt>
      <trkpt lat="47.58051" lon="-2.29484">
        <ele>19.7</ele>
        <time>2025-01-16T09:09:41Z</time>
      </trkpt>
      <trkpt lat="47.58051" lon="-2.29485">
        <ele>19.8</ele>
        <time>2025-01-16T09:09:42Z</time>
      </trkpt>
      <trkpt lat="47.58052" lon="-2.29486">
        <ele>19.6</ele>
        <time>2025-01-16T09:09:43Z</time>
      </trkpt>
      <trkpt lat="47.58052" lon="-2.29487">
        <ele>19.7</ele>
        <time>2025-01-16T09:09:44Z</time>
      </trkpt>
      <trkpt lat="47.58053" lon="-2.29488">
        <ele>19.6</ele>
        <time>2025-01-16T09:09:45Z</time>
      </trkpt>
      <trkpt lat="47.58053" lon="-2.29489">
        <ele>19.6</ele>
        <time>2025-01-16T09:09:46Z</time>
      </trkpt>
      <trkpt lat="47.58054" lon="-2.2949">
        <ele>19.5</ele>
        <time>2025-01-16T09:09:47Z</time>
      </trkpt>
      <trkpt lat="47.58054" lon="-2.29491">
        <ele>19.6</ele>
        <time>2025-01-16T09:09:48Z</time>
      </trkpt>
      <trkpt lat="47.58054" lon="-2.29492">
        <ele>19.7</ele>
        <time>2025-01-16T09:09:49Z</time>
      </trkpt>
      <trkpt lat="47.58055" lon="-2.29493">
        <ele>19.6</ele>
        <time>2025-01-16T09:09:50Z</time>
      </trkpt>
      <trkpt lat="47.58056" lon="-2.29493">
        <ele>19.5</ele>
        <time>2025-01-16T09:09:51Z</time>
      </trkpt>
      <trkpt lat="47.58056" lon="-2.29494">
        <ele>19.5</ele>
        <time>2025-01-16T09:09:52Z</time>
      </trkpt>
      <trkpt lat="47.58057" lon="-2.29495">
        <ele>19.6</ele>
        <time>2025-01-16T09:09:53Z</time>
      </trkpt>
      <trkpt lat="47.58057" lon="-2.29496">
        <ele>19.7</ele>
        <time>2025-01-16T09:09:54Z</time>
      </trkpt>
      <trkpt lat="47.58058" lon="-2.29497">
        <ele>19.7</ele>
        <time>2025-01-16T09:09:55Z</time>
      </trkpt>
      <trkpt lat="47.58058" lon="-2.29498">
        <ele>19.8</ele>
        <time>2025-01-16T09:09:56Z</time>
      </trkpt>
      <trkpt lat="47.58059" lon="-2.29499">
        <ele>19.8</ele>
        <time>2025-01-16T09:09:57Z</time>
      </trkpt>
      <trkpt lat="47.5806" lon="-2.295">
        <ele>19.8</ele>
        <time>2025-01-16T09:09:58Z</time>
      </trkpt>
      <trkpt lat="47.5806" lon="-2.29501">
        <ele>20</ele>
        <time>2025-01-16T09:09:59Z</time>
      </trkpt>
      <trkpt lat="47.58061" lon="-2.29503">
        <ele>20.3</ele>
        <time>2025-01-16T09:10:00Z</time>
      </trkpt>
      <trkpt lat="47.58063" lon="-2.29504">
        <ele>20.4</ele>
        <time>2025-01-16T09:10:01Z</time>
      </trkpt>
      <trkpt lat="47.58064" lon="-2.29505">
        <ele>20.5</ele>
        <time>2025-01-16T09:10:02Z</time>
      </trkpt>
      <trkpt lat="47.58065" lon="-2.29505">
        <ele>20.4</ele>
        <time>2025-01-16T09:10:03Z</time>
      </trkpt>
      <trkpt lat="47.58067" lon="-2.29505">
        <ele>20.3</ele>
        <time>2025-01-16T09:10:04Z</time>
      </trkpt>
      <trkpt lat="47.58067" lon="-2.29506">
        <ele>20.5</ele>
        <time>2025-01-16T09:10:05Z</time>
      </trkpt>
      <trkpt lat="47.58068" lon="-2.29506">
        <ele>20.4</ele>
        <time>2025-01-16T09:10:06Z</time>
      </trkpt>
      <trkpt lat="47.58069" lon="-2.29507">
        <ele>20.5</ele>
        <time>2025-01-16T09:10:07Z</time>
      </trkpt>
      <trkpt lat="47.5807" lon="-2.29508">
        <ele>20.6</ele>
        <time>2025-01-16T09:10:08Z</time>
      </trkpt>
      <trkpt lat="47.5807" lon="-2.29508">
        <ele>20.6</ele>
        <time>2025-01-16T09:10:09Z</time>
      </trkpt>
      <trkpt lat="47.58071" lon="-2.29509">
        <ele>20.7</ele>
        <time>2025-01-16T09:10:10Z</time>
      </trkpt>
      <trkpt lat="47.58072" lon="-2.29509">
        <ele>20.6</ele>
        <time>2025-01-16T09:10:11Z</time>
      </trkpt>
      <trkpt lat="47.58072" lon="-2.29509">
        <ele>20.6</ele>
        <time>2025-01-16T09:10:12Z</time>
      </trkpt>
      <trkpt lat="47.58073" lon="-2.2951">
        <ele>20.7</ele>
        <time>2025-01-16T09:10:13Z</time>
      </trkpt>
      <trkpt lat="47.58073" lon="-2.29511">
        <ele>20.9</ele>
        <time>2025-01-16T09:10:14Z</time>
      </trkpt>
      <trkpt lat="47.58074" lon="-2.29513">
        <ele>21.1</ele>
        <time>2025-01-16T09:10:15Z</time>
      </trkpt>
      <trkpt lat="47.58075" lon="-2.29514">
        <ele>21.1</ele>
        <time>2025-01-16T09:10:16Z</time>
      </trkpt>
      <trkpt lat="47.58076" lon="-2.29515">
        <ele>21.2</ele>
        <time>2025-01-16T09:10:17Z</time>
      </trkpt>
      <trkpt lat="47.58077" lon="-2.29516">
        <ele>21.2</ele>
        <time>2025-01-16T09:10:18Z</time>
      </trkpt>
      <trkpt lat="47.58078" lon="-2.29516">
        <ele>21.1</ele>
        <time>2025-01-16T09:10:19Z</time>
      </trkpt>
      <trkpt lat="47.58079" lon="-2.29517">
        <ele>21.2</ele>
        <time>2025-01-16T09:10:20Z</time>
      </trkpt>
      <trkpt lat="47.58079" lon="-2.29518">
        <ele>21.3</ele>
        <time>2025-01-16T09:10:21Z</time>
      </trkpt>
      <trkpt lat="47.5808" lon="-2.29518">
        <ele>21.2</ele>
        <time>2025-01-16T09:10:22Z</time>
      </trkpt>
      <trkpt lat="47.58081" lon="-2.29519">
        <ele>21.3</ele>
        <time>2025-01-16T09:10:23Z</time>
      </trkpt>
      <trkpt lat="47.58082" lon="-2.2952">
        <ele>21.3</ele>
        <time>2025-01-16T09:10:24Z</time>
      </trkpt>
      <trkpt lat="47.58082" lon="-2.29521">
        <ele>21.4</ele>
        <time>2025-01-16T09:10:25Z</time>
      </trkpt>
      <trkpt lat="47.58083" lon="-2.29522">
        <ele>21.4</ele>
        <time>2025-01-16T09:10:26Z</time>
      </trkpt>
      <trkpt lat="47.58084" lon="-2.29523">
        <ele>21.4</ele>
        <time>2025-01-16T09:10:27Z</time>
      </trkpt>
      <trkpt lat="47.58084" lon="-2.29525">
        <ele>21.6</ele>
        <time>2025-01-16T09:10:28Z</time>
      </trkpt>
      <trkpt lat="47.58085" lon="-2.29526">
        <ele>21.6</ele>
        <time>2025-01-16T09:10:29Z</time>
      </trkpt>
      <trkpt lat="47.58085" lon="-2.29527">
        <ele>21.7</ele>
        <time>2025-01-16T09:10:30Z</time>
      </trkpt>
      <trkpt lat="47.58086" lon="-2.29528">
        <ele>21.6</ele>
        <time>2025-01-16T09:10:31Z</time>
      </trkpt>
      <trkpt lat="47.58087" lon="-2.29529">
        <ele>21.6</ele>
        <time>2025-01-16T09:10:32Z</time>
      </trkpt>
      <trkpt lat="47.58087" lon="-2.2953">
        <ele>21.8</ele>
        <time>2025-01-16T09:10:33Z</time>
      </trkpt>
      <trkpt lat="47.58088" lon="-2.29531">
        <ele>21.8</ele>
        <time>2025-01-16T09:10:34Z</time>
      </trkpt>
      <trkpt lat="47.58089" lon="-2.29532">
        <ele>21.7</ele>
        <time>2025-01-16T09:10:35Z</time>
      </trkpt>
      <trkpt lat="47.5809" lon="-2.29534">
        <ele>21.8</ele>
        <time>2025-01-16T09:10:36Z</time>
      </trkpt>
      <trkpt lat="47.5809" lon="-2.29535">
        <ele>22</ele>
        <time>2025-01-16T09:10:37Z</time>
      </trkpt>
      <trkpt lat="47.58091" lon="-2.29535">
        <ele>21.8</ele>
        <time>2025-01-16T09:10:38Z</time>
      </trkpt>
      <trkpt lat="47.58092" lon="-2.29536">
        <ele>21.8</ele>
        <time>2025-01-16T09:10:39Z</time>
      </trkpt>
      <trkpt lat="47.58093" lon="-2.29537">
        <ele>21.7</ele>
        <time>2025-01-16T09:10:40Z</time>
      </trkpt>
      <trkpt lat="47.58094" lon="-2.29538">
        <ele>21.7</ele>
        <time>2025-01-16T09:10:41Z</time>
      </trkpt>
      <trkpt lat="47.58095" lon="-2.2954">
        <ele>21.7</ele>
        <time>2025-01-16T09:10:42Z</time>
      </trkpt>
      <trkpt lat="47.58096" lon="-2.29541">
        <ele>21.6</ele>
        <time>2025-01-16T09:10:43Z</time>
      </trkpt>
      <trkpt lat="47.58098" lon="-2.29542">
        <ele>21.4</ele>
        <time>2025-01-16T09:10:44Z</time>
      </trkpt>
      <trkpt lat="47.58099" lon="-2.29543">
        <ele>21.3</ele>
        <time>2025-01-16T09:10:45Z</time>
      </trkpt>
      <trkpt lat="47.581" lon="-2.29544">
        <ele>21.2</ele>
        <time>2025-01-16T09:10:46Z</time>
      </trkpt>
      <trkpt lat="47.58101" lon="-2.29545">
        <ele>21.1</ele>
        <time>2025-01-16T09:10:47Z</time>
      </trkpt>
      <trkpt lat="47.58101" lon="-2.29546">
        <ele>21.2</ele>
        <time>2025-01-16T09:10:48Z</time>
      </trkpt>
      <trkpt lat="47.58102" lon="-2.29547">
        <ele>21.1</ele>
        <time>2025-01-16T09:10:49Z</time>
      </trkpt>
      <trkpt lat="47.58102" lon="-2.29549">
        <ele>21.3</ele>
        <time>2025-01-16T09:10:50Z</time>
      </trkpt>
      <trkpt lat="47.58102" lon="-2.2955">
        <ele>21.4</ele>
        <time>2025-01-16T09:10:51Z</time>
      </trkpt>
      <trkpt lat="47.58102" lon="-2.29552">
        <ele>21.6</ele>
        <time>2025-01-16T09:10:52Z</time>
      </trkpt>
      <trkpt lat="47.58102" lon="-2.29553">
        <ele>21.7</ele>
        <time>2025-01-16T09:10:53Z</time>
      </trkpt>
      <trkpt lat="47.58102" lon="-2.29554">
        <ele>21.8</ele>
        <time>2025-01-16T09:10:54Z</time>
      </trkpt>
      <trkpt lat="47.58102" lon="-2.29555">
        <ele>21.9</ele>
        <time>2025-01-16T09:10:55Z</time>
      </trkpt>
      <trkpt lat="47.58102" lon="-2.29556">
        <ele>22</ele>
        <time>2025-01-16T09:10:56Z</time>
      </trkpt>
      <trkpt lat="47.58103" lon="-2.29557">
        <ele>21.8</ele>
        <time>2025-01-16T09:10:57Z</time>
      </trkpt>
      <trkpt lat="47.58103" lon="-2.29558">
        <ele>21.9</ele>
        <time>2025-01-16T09:10:58Z</time>
      </trkpt>
      <trkpt lat="47.58103" lon="-2.2956">
        <ele>22</ele>
        <time>2025-01-16T09:10:59Z</time>
      </trkpt>
      <trkpt lat="47.58103" lon="-2.29561">
        <ele>22.1</ele>
        <time>2025-01-16T09:11:00Z</time>
      </trkpt>
      <trkpt lat="47.58104" lon="-2.29562">
        <ele>21.9</ele>
        <time>2025-01-16T09:11:01Z</time>
      </trkpt>
      <trkpt lat="47.58104" lon="-2.29563">
        <ele>22</ele>
        <time>2025-01-16T09:11:02Z</time>
      </trkpt>
      <trkpt lat="47.58103" lon="-2.29564">
        <ele>22.3</ele>
        <time>2025-01-16T09:11:03Z</time>
      </trkpt>
      <trkpt lat="47.58103" lon="-2.29564">
        <ele>22.3</ele>
        <time>2025-01-16T09:11:04Z</time>
      </trkpt>
      <trkpt lat="47.58102" lon="-2.29565">
        <ele>22.5</ele>
        <time>2025-01-16T09:11:05Z</time>
      </trkpt>
      <trkpt lat="47.58102" lon="-2.29566">
        <ele>22.6</ele>
        <time>2025-01-16T09:11:06Z</time>
      </trkpt>
      <trkpt lat="47.58101" lon="-2.29567">
        <ele>22.9</ele>
        <time>2025-01-16T09:11:07Z</time>
      </trkpt>
      <trkpt lat="47.58101" lon="-2.29567">
        <ele>22.9</ele>
        <time>2025-01-16T09:11:08Z</time>
      </trkpt>
      <trkpt lat="47.58102" lon="-2.29567">
        <ele>22.7</ele>
        <time>2025-01-16T09:11:09Z</time>
      </trkpt>
      <trkpt lat="47.58102" lon="-2.29567">
        <ele>22.7</ele>
        <time>2025-01-16T09:11:10Z</time>
      </trkpt>
      <trkpt lat="47.58103" lon="-2.29567">
        <ele>22.5</ele>
        <time>2025-01-16T09:11:11Z</time>
      </trkpt>
      <trkpt lat="47.58103" lon="-2.29567">
        <ele>22.5</ele>
        <time>2025-01-16T09:11:12Z</time>
      </trkpt>
      <trkpt lat="47.58103" lon="-2.29568">
        <ele>22.5</ele>
        <time>2025-01-16T09:11:13Z</time>
      </trkpt>
      <trkpt lat="47.58103" lon="-2.29567">
        <ele>22.5</ele>
        <time>2025-01-16T09:11:14Z</time>
      </trkpt>
      <trkpt lat="47.58103" lon="-2.29568">
        <ele>22.5</ele>
        <time>2025-01-16T09:11:15Z</time>
      </trkpt>
      <trkpt lat="47.58103" lon="-2.29568">
        <ele>22.5</ele>
        <time>2025-01-16T09:11:16Z</time>
      </trkpt>
      <trkpt lat="47.58102" lon="-2.29568">
        <ele>22.7</ele>
        <time>2025-01-16T09:11:17Z</time>
      </trkpt>
      <trkpt lat="47.58102" lon="-2.29568">
        <ele>22.7</ele>
        <time>2025-01-16T09:11:18Z</time>
      </trkpt>
      <trkpt lat="47.58102" lon="-2.29568">
        <ele>22.7</ele>
        <time>2025-01-16T09:11:19Z</time>
      </trkpt>
      <trkpt lat="47.58102" lon="-2.29568">
        <ele>22.7</ele>
        <time>2025-01-16T09:11:20Z</time>
      </trkpt>
      <trkpt lat="47.58102" lon="-2.29568">
        <ele>22.7</ele>
        <time>2025-01-16T09:11:21Z</time>
      </trkpt>
      <trkpt lat="47.58102" lon="-2.29568">
        <ele>22.7</ele>
        <time>2025-01-16T09:11:22Z</time>
      </trkpt>
      <trkpt lat="47.58102" lon="-2.29568">
        <ele>22.7</ele>
        <time>2025-01-16T09:11:23Z</time>
      </trkpt>
      <trkpt lat="47.58102" lon="-2.29568">
        <ele>22.7</ele>
        <time>2025-01-16T09:11:24Z</time>
      </trkpt>
      <trkpt lat="47.58102" lon="-2.29568">
        <ele>22.7</ele>
        <time>2025-01-16T09:11:25Z</time>
      </trkpt>
      <trkpt lat="47.58102" lon="-2.29567">
        <ele>22.7</ele>
        <time>2025-01-16T09:11:26Z</time>
      </trkpt>
      <trkpt lat="47.58102" lon="-2.29567">
        <ele>22.7</ele>
        <time>2025-01-16T09:11:27Z</time>
      </trkpt>
      <trkpt lat="47.58102" lon="-2.29567">
        <ele>22.7</ele>
        <time>2025-01-16T09:11:28Z</time>
      </trkpt>
      <trkpt lat="47.58102" lon="-2.29567">
        <ele>22.7</ele>
        <time>2025-01-16T09:11:29Z</time>
      </trkpt>
      <trkpt lat="47.58102" lon="-2.29567">
        <ele>22.7</ele>
        <time>2025-01-16T09:11:30Z</time>
      </trkpt>
      <trkpt lat="47.58102" lon="-2.29567">
        <ele>22.7</ele>
        <time>2025-01-16T09:11:31Z</time>
      </trkpt>
      <trkpt lat="47.58101" lon="-2.29567">
        <ele>22.9</ele>
        <time>2025-01-16T09:11:32Z</time>
      </trkpt>
      <trkpt lat="47.58101" lon="-2.29567">
        <ele>22.9</ele>
        <time>2025-01-16T09:11:33Z</time>
      </trkpt>
      <trkpt lat="47.58101" lon="-2.29567">
        <ele>22.9</ele>
        <time>2025-01-16T09:11:34Z</time>
      </trkpt>
      <trkpt lat="47.58101" lon="-2.29567">
        <ele>22.9</ele>
        <time>2025-01-16T09:11:35Z</time>
      </trkpt>
      <trkpt lat="47.58101" lon="-2.29567">
        <ele>22.9</ele>
        <time>2025-01-16T09:11:36Z</time>
      </trkpt>
      <trkpt lat="47.58101" lon="-2.29567">
        <ele>22.9</ele>
        <time>2025-01-16T09:11:37Z</time>
      </trkpt>
      <trkpt lat="47.58101" lon="-2.29567">
        <ele>22.9</ele>
        <time>2025-01-16T09:11:38Z</time>
      </trkpt>
      <trkpt lat="47.58101" lon="-2.29567">
        <ele>22.9</ele>
        <time>2025-01-16T09:11:39Z</time>
      </trkpt>
      <trkpt lat="47.58101" lon="-2.29567">
        <ele>22.9</ele>
        <time>2025-01-16T09:11:40Z</time>
      </trkpt>
      <trkpt lat="47.58101" lon="-2.29567">
        <ele>22.9</ele>
        <time>2025-01-16T09:11:41Z</time>
      </trkpt>
      <trkpt lat="47.58101" lon="-2.29567">
        <ele>22.9</ele>
        <time>2025-01-16T09:11:42Z</time>
      </trkpt>
      <trkpt lat="47.58101" lon="-2.29568">
        <ele>22.9</ele>
        <time>2025-01-16T09:11:43Z</time>
      </trkpt>
      <trkpt lat="47.58101" lon="-2.29568">
        <ele>22.9</ele>
        <time>2025-01-16T09:11:44Z</time>
      </trkpt>
      <trkpt lat="47.58101" lon="-2.29569">
        <ele>23</ele>
        <time>2025-01-16T09:11:45Z</time>
      </trkpt>
      <trkpt lat="47.58101" lon="-2.29569">
        <ele>23</ele>
        <time>2025-01-16T09:11:46Z</time>
      </trkpt>
      <trkpt lat="47.58101" lon="-2.29569">
        <ele>23</ele>
        <time>2025-01-16T09:11:47Z</time>
      </trkpt>
      <trkpt lat="47.58101" lon="-2.29569">
        <ele>23</ele>
        <time>2025-01-16T09:11:51Z</time>
      </trkpt>
      <trkpt lat="47.58101" lon="-2.29569">
        <ele>23</ele>
        <time>2025-01-16T09:11:52Z</time>
      </trkpt>
      <trkpt lat="47.58101" lon="-2.29569">
        <ele>23</ele>
        <time>2025-01-16T09:11:53Z</time>
      </trkpt>
      <trkpt lat="47.58101" lon="-2.29569">
        <ele>23</ele>
        <time>2025-01-16T09:11:54Z</time>
      </trkpt>
      <trkpt lat="47.58101" lon="-2.29569">
        <ele>23</ele>
        <time>2025-01-16T09:11:55Z</time>
      </trkpt>
      <trkpt lat="47.58101" lon="-2.29569">
        <ele>23</ele>
        <time>2025-01-16T09:11:56Z</time>
      </trkpt>
      <trkpt lat="47.58101" lon="-2.29569">
        <ele>23</ele>
        <time>2025-01-16T09:11:57Z</time>
      </trkpt>
      <trkpt lat="47.58101" lon="-2.29569">
        <ele>23</ele>
        <time>2025-01-16T09:11:58Z</time>
      </trkpt>
      <trkpt lat="47.58101" lon="-2.29569">
        <ele>23</ele>
        <time>2025-01-16T09:11:59Z</time>
      </trkpt>
      <trkpt lat="47.58101" lon="-2.29569">
        <ele>23</ele>
        <time>2025-01-16T09:12:00Z</time>
      </trkpt>
      <trkpt lat="47.58101" lon="-2.29569">
        <ele>23</ele>
        <time>2025-01-16T09:12:01Z</time>
      </trkpt>
      <trkpt lat="47.58101" lon="-2.29569">
        <ele>23</ele>
        <time>2025-01-16T09:12:02Z</time>
      </trkpt>
      <trkpt lat="47.58101" lon="-2.29569">
        <ele>23</ele>
        <time>2025-01-16T09:12:03Z</time>
      </trkpt>
      <trkpt lat="47.58101" lon="-2.29568">
        <ele>22.9</ele>
        <time>2025-01-16T09:12:04Z</time>
      </trkpt>
      <trkpt lat="47.58101" lon="-2.29568">
        <ele>22.9</ele>
        <time>2025-01-16T09:12:05Z</time>
      </trkpt>
      <trkpt lat="47.581" lon="-2.29568">
        <ele>23.1</ele>
        <time>2025-01-16T09:12:06Z</time>
      </trkpt>
      <trkpt lat="47.581" lon="-2.29567">
        <ele>23.1</ele>
        <time>2025-01-16T09:12:07Z</time>
      </trkpt>
      <trkpt lat="47.581" lon="-2.29565">
        <ele>22.9</ele>
        <time>2025-01-16T09:12:08Z</time>
      </trkpt>
      <trkpt lat="47.58099" lon="-2.29564">
        <ele>23.1</ele>
        <time>2025-01-16T09:12:09Z</time>
      </trkpt>
      <trkpt lat="47.58098" lon="-2.29564">
        <ele>23.3</ele>
        <time>2025-01-16T09:12:10Z</time>
      </trkpt>
      <trkpt lat="47.58098" lon="-2.29563">
        <ele>23.2</ele>
        <time>2025-01-16T09:12:11Z</time>
      </trkpt>
      <trkpt lat="47.58097" lon="-2.29561">
        <ele>23.3</ele>
        <time>2025-01-16T09:12:12Z</time>
      </trkpt>
      <trkpt lat="47.58096" lon="-2.2956">
        <ele>23.5</ele>
        <time>2025-01-16T09:12:13Z</time>
      </trkpt>
      <trkpt lat="47.58096" lon="-2.29559">
        <ele>23.4</ele>
        <time>2025-01-16T09:12:14Z</time>
      </trkpt>
      <trkpt lat="47.58095" lon="-2.29558">
        <ele>23.6</ele>
        <time>2025-01-16T09:12:15Z</time>
      </trkpt>
      <trkpt lat="47.58094" lon="-2.29557">
        <ele>23.8</ele>
        <time>2025-01-16T09:12:16Z</time>
      </trkpt>
      <trkpt lat="47.58093" lon="-2.29556">
        <ele>23.9</ele>
        <time>2025-01-16T09:12:17Z</time>
      </trkpt>
      <trkpt lat="47.58092" lon="-2.29555">
        <ele>24.1</ele>
        <time>2025-01-16T09:12:18Z</time>
      </trkpt>
      <trkpt lat="47.58091" lon="-2.29554">
        <ele>24.2</ele>
        <time>2025-01-16T09:12:19Z</time>
      </trkpt>
      <trkpt lat="47.58091" lon="-2.29553">
        <ele>24</ele>
        <time>2025-01-16T09:12:20Z</time>
      </trkpt>
      <trkpt lat="47.5809" lon="-2.29552">
        <ele>24.1</ele>
        <time>2025-01-16T09:12:21Z</time>
      </trkpt>
      <trkpt lat="47.58089" lon="-2.29552">
        <ele>24.3</ele>
        <time>2025-01-16T09:12:22Z</time>
      </trkpt>
      <trkpt lat="47.58089" lon="-2.29552">
        <ele>24.3</ele>
        <time>2025-01-16T09:12:23Z</time>
      </trkpt>
      <trkpt lat="47.58088" lon="-2.29551">
        <ele>24.4</ele>
        <time>2025-01-16T09:12:24Z</time>
      </trkpt>
      <trkpt lat="47.58087" lon="-2.2955">
        <ele>24.5</ele>
        <time>2025-01-16T09:12:25Z</time>
      </trkpt>
      <trkpt lat="47.58086" lon="-2.2955">
        <ele>24.7</ele>
        <time>2025-01-16T09:12:26Z</time>
      </trkpt>
      <trkpt lat="47.58085" lon="-2.29549">
        <ele>24.7</ele>
        <time>2025-01-16T09:12:27Z</time>
      </trkpt>
      <trkpt lat="47.58084" lon="-2.29549">
        <ele>24.9</ele>
        <time>2025-01-16T09:12:28Z</time>
      </trkpt>
      <trkpt lat="47.58083" lon="-2.29548">
        <ele>24.9</ele>
        <time>2025-01-16T09:12:29Z</time>
      </trkpt>
      <trkpt lat="47.58082" lon="-2.29547">
        <ele>24.9</ele>
        <time>2025-01-16T09:12:30Z</time>
      </trkpt>
      <trkpt lat="47.58081" lon="-2.29547">
        <ele>25</ele>
        <time>2025-01-16T09:12:31Z</time>
      </trkpt>
      <trkpt lat="47.5808" lon="-2.29546">
        <ele>24.9</ele>
        <time>2025-01-16T09:12:32Z</time>
      </trkpt>
      <trkpt lat="47.58079" lon="-2.29545">
        <ele>24.9</ele>
        <time>2025-01-16T09:12:33Z</time>
      </trkpt>
      <trkpt lat="47.58079" lon="-2.29545">
        <ele>24.9</ele>
        <time>2025-01-16T09:12:34Z</time>
      </trkpt>
      <trkpt lat="47.58077" lon="-2.29544">
        <ele>24.9</ele>
        <time>2025-01-16T09:12:35Z</time>
      </trkpt>
      <trkpt lat="47.58076" lon="-2.29544">
        <ele>25</ele>
        <time>2025-01-16T09:12:36Z</time>
      </trkpt>
      <trkpt lat="47.58074" lon="-2.29544">
        <ele>25.1</ele>
        <time>2025-01-16T09:12:37Z</time>
      </trkpt>
      <trkpt lat="47.58073" lon="-2.29544">
        <ele>25.2</ele>
        <time>2025-01-16T09:12:38Z</time>
      </trkpt>
      <trkpt lat="47.58072" lon="-2.29544">
        <ele>25.3</ele>
        <time>2025-01-16T09:12:39Z</time>
      </trkpt>
      <trkpt lat="47.58071" lon="-2.29543">
        <ele>25.3</ele>
        <time>2025-01-16T09:12:40Z</time>
      </trkpt>
      <trkpt lat="47.5807" lon="-2.29543">
        <ele>25.4</ele>
        <time>2025-01-16T09:12:41Z</time>
      </trkpt>
      <trkpt lat="47.58068" lon="-2.29543">
        <ele>25.5</ele>
        <time>2025-01-16T09:12:42Z</time>
      </trkpt>
      <trkpt lat="47.58067" lon="-2.29543">
        <ele>25.6</ele>
        <time>2025-01-16T09:12:43Z</time>
      </trkpt>
      <trkpt lat="47.58066" lon="-2.29543">
        <ele>25.7</ele>
        <time>2025-01-16T09:12:44Z</time>
      </trkpt>
      <trkpt lat="47.58065" lon="-2.29542">
        <ele>25.7</ele>
        <time>2025-01-16T09:12:45Z</time>
      </trkpt>
      <trkpt lat="47.58064" lon="-2.29542">
        <ele>25.8</ele>
        <time>2025-01-16T09:12:46Z</time>
      </trkpt>
      <trkpt lat="47.58064" lon="-2.29541">
        <ele>25.7</ele>
        <time>2025-01-16T09:12:47Z</time>
      </trkpt>
      <trkpt lat="47.58062" lon="-2.29541">
        <ele>25.8</ele>
        <time>2025-01-16T09:12:48Z</time>
      </trkpt>
      <trkpt lat="47.58061" lon="-2.29541">
        <ele>25.9</ele>
        <time>2025-01-16T09:12:49Z</time>
      </trkpt>
      <trkpt lat="47.5806" lon="-2.29542">
        <ele>26.1</ele>
        <time>2025-01-16T09:12:50Z</time>
      </trkpt>
      <trkpt lat="47.58059" lon="-2.29542">
        <ele>26.2</ele>
        <time>2025-01-16T09:12:51Z</time>
      </trkpt>
      <trkpt lat="47.58059" lon="-2.29542">
        <ele>26.2</ele>
        <time>2025-01-16T09:12:52Z</time>
      </trkpt>
      <trkpt lat="47.58057" lon="-2.29542">
        <ele>26.4</ele>
        <time>2025-01-16T09:12:53Z</time>
      </trkpt>
      <trkpt lat="47.58056" lon="-2.29542">
        <ele>26.5</ele>
        <time>2025-01-16T09:12:54Z</time>
      </trkpt>
      <trkpt lat="47.58054" lon="-2.29542">
        <ele>26.6</ele>
        <time>2025-01-16T09:12:55Z</time>
      </trkpt>
      <trkpt lat="47.58053" lon="-2.29542">
        <ele>26.7</ele>
        <time>2025-01-16T09:12:56Z</time>
      </trkpt>
      <trkpt lat="47.58052" lon="-2.29542">
        <ele>26.8</ele>
        <time>2025-01-16T09:12:57Z</time>
      </trkpt>
      <trkpt lat="47.5805" lon="-2.29543">
        <ele>27</ele>
        <time>2025-01-16T09:12:58Z</time>
      </trkpt>
      <trkpt lat="47.58049" lon="-2.29543">
        <ele>27.1</ele>
        <time>2025-01-16T09:12:59Z</time>
      </trkpt>
      <trkpt lat="47.58048" lon="-2.29543">
        <ele>27.2</ele>
        <time>2025-01-16T09:13:00Z</time>
      </trkpt>
      <trkpt lat="47.58047" lon="-2.29544">
        <ele>27.4</ele>
        <time>2025-01-16T09:13:01Z</time>
      </trkpt>
      <trkpt lat="47.58046" lon="-2.29544">
        <ele>27.4</ele>
        <time>2025-01-16T09:13:02Z</time>
      </trkpt>
      <trkpt lat="47.58045" lon="-2.29544">
        <ele>27.5</ele>
        <time>2025-01-16T09:13:03Z</time>
      </trkpt>
      <trkpt lat="47.58044" lon="-2.29544">
        <ele>27.6</ele>
        <time>2025-01-16T09:13:04Z</time>
      </trkpt>
      <trkpt lat="47.58043" lon="-2.29545">
        <ele>27.8</ele>
        <time>2025-01-16T09:13:05Z</time>
      </trkpt>
      <trkpt lat="47.58041" lon="-2.29545">
        <ele>27.9</ele>
        <time>2025-01-16T09:13:06Z</time>
      </trkpt>
      <trkpt lat="47.5804" lon="-2.29545">
        <ele>28</ele>
        <time>2025-01-16T09:13:07Z</time>
      </trkpt>
      <trkpt lat="47.58038" lon="-2.29546">
        <ele>28.2</ele>
        <time>2025-01-16T09:13:08Z</time>
      </trkpt>
      <trkpt lat="47.58037" lon="-2.29546">
        <ele>28.3</ele>
        <time>2025-01-16T09:13:09Z</time>
      </trkpt>
      <trkpt lat="47.58036" lon="-2.29546">
        <ele>28.4</ele>
        <time>2025-01-16T09:13:10Z</time>
      </trkpt>
      <trkpt lat="47.58036" lon="-2.29546">
        <ele>28.4</ele>
        <time>2025-01-16T09:13:11Z</time>
      </trkpt>
      <trkpt lat="47.58035" lon="-2.29545">
        <ele>28.3</ele>
        <time>2025-01-16T09:13:12Z</time>
      </trkpt>
      <trkpt lat="47.58035" lon="-2.29545">
        <ele>28.3</ele>
        <time>2025-01-16T09:13:13Z</time>
      </trkpt>
      <trkpt lat="47.58034" lon="-2.29544">
        <ele>28.3</ele>
        <time>2025-01-16T09:13:14Z</time>
      </trkpt>
      <trkpt lat="47.58032" lon="-2.29544">
        <ele>28.4</ele>
        <time>2025-01-16T09:13:15Z</time>
      </trkpt>
      <trkpt lat="47.58031" lon="-2.29544">
        <ele>28.5</ele>
        <time>2025-01-16T09:13:16Z</time>
      </trkpt>
      <trkpt lat="47.58029" lon="-2.29544">
        <ele>28.7</ele>
        <time>2025-01-16T09:13:17Z</time>
      </trkpt>
      <trkpt lat="47.58028" lon="-2.29544">
        <ele>28.7</ele>
        <time>2025-01-16T09:13:18Z</time>
      </trkpt>
      <trkpt lat="47.58026" lon="-2.29545">
        <ele>29</ele>
        <time>2025-01-16T09:13:19Z</time>
      </trkpt>
      <trkpt lat="47.58025" lon="-2.29546">
        <ele>29.2</ele>
        <time>2025-01-16T09:13:20Z</time>
      </trkpt>
      <trkpt lat="47.58023" lon="-2.29546">
        <ele>29.3</ele>
        <time>2025-01-16T09:13:21Z</time>
      </trkpt>
      <trkpt lat="47.58022" lon="-2.29547">
        <ele>29.5</ele>
        <time>2025-01-16T09:13:22Z</time>
      </trkpt>
      <trkpt lat="47.58021" lon="-2.29547">
        <ele>29.6</ele>
        <time>2025-01-16T09:13:23Z</time>
      </trkpt>
      <trkpt lat="47.58019" lon="-2.29548">
        <ele>29.8</ele>
        <time>2025-01-16T09:13:24Z</time>
      </trkpt>
      <trkpt lat="47.58018" lon="-2.29548">
        <ele>29.9</ele>
        <time>2025-01-16T09:13:25Z</time>
      </trkpt>
      <trkpt lat="47.58017" lon="-2.29549">
        <ele>30.1</ele>
        <time>2025-01-16T09:13:26Z</time>
      </trkpt>
      <trkpt lat="47.58016" lon="-2.29549">
        <ele>30.1</ele>
        <time>2025-01-16T09:13:27Z</time>
      </trkpt>
      <trkpt lat="47.58015" lon="-2.2955">
        <ele>30.3</ele>
        <time>2025-01-16T09:13:28Z</time>
      </trkpt>
      <trkpt lat="47.58013" lon="-2.2955">
        <ele>30.5</ele>
        <time>2025-01-16T09:13:29Z</time>
      </trkpt>
      <trkpt lat="47.58012" lon="-2.2955">
        <ele>30.5</ele>
        <time>2025-01-16T09:13:30Z</time>
      </trkpt>
      <trkpt lat="47.58011" lon="-2.2955">
        <ele>30.6</ele>
        <time>2025-01-16T09:13:31Z</time>
      </trkpt>
      <trkpt lat="47.5801" lon="-2.29551">
        <ele>30.8</ele>
        <time>2025-01-16T09:13:32Z</time>
      </trkpt>
      <trkpt lat="47.58009" lon="-2.2955">
        <ele>30.8</ele>
        <time>2025-01-16T09:13:33Z</time>
      </trkpt>
      <trkpt lat="47.58008" lon="-2.2955">
        <ele>30.8</ele>
        <time>2025-01-16T09:13:34Z</time>
      </trkpt>
      <trkpt lat="47.58008" lon="-2.2955">
        <ele>30.8</ele>
        <time>2025-01-16T09:13:35Z</time>
      </trkpt>
      <trkpt lat="47.58007" lon="-2.29549">
        <ele>30.8</ele>
        <time>2025-01-16T09:13:36Z</time>
      </trkpt>
      <trkpt lat="47.58006" lon="-2.29549">
        <ele>30.9</ele>
        <time>2025-01-16T09:13:37Z</time>
      </trkpt>
      <trkpt lat="47.58005" lon="-2.29549">
        <ele>30.9</ele>
        <time>2025-01-16T09:13:38Z</time>
      </trkpt>
      <trkpt lat="47.58003" lon="-2.29549">
        <ele>31.1</ele>
        <time>2025-01-16T09:13:39Z</time>
      </trkpt>
      <trkpt lat="47.58002" lon="-2.2955">
        <ele>31.3</ele>
        <time>2025-01-16T09:13:40Z</time>
      </trkpt>
      <trkpt lat="47.58001" lon="-2.2955">
        <ele>31.3</ele>
        <time>2025-01-16T09:13:41Z</time>
      </trkpt>
      <trkpt lat="47.57999" lon="-2.2955">
        <ele>31.5</ele>
        <time>2025-01-16T09:13:42Z</time>
      </trkpt>
      <trkpt lat="47.57998" lon="-2.2955">
        <ele>31.6</ele>
        <time>2025-01-16T09:13:43Z</time>
      </trkpt>
      <trkpt lat="47.57997" lon="-2.2955">
        <ele>31.7</ele>
        <time>2025-01-16T09:13:44Z</time>
      </trkpt>
      <trkpt lat="47.57996" lon="-2.2955">
        <ele>31.7</ele>
        <time>2025-01-16T09:13:45Z</time>
      </trkpt>
      <trkpt lat="47.57995" lon="-2.2955">
        <ele>31.8</ele>
        <time>2025-01-16T09:13:46Z</time>
      </trkpt>
      <trkpt lat="47.57994" lon="-2.2955">
        <ele>31.9</ele>
        <time>2025-01-16T09:13:47Z</time>
      </trkpt>
      <trkpt lat="47.57992" lon="-2.2955">
        <ele>32.1</ele>
        <time>2025-01-16T09:13:48Z</time>
      </trkpt>
      <trkpt lat="47.57991" lon="-2.2955">
        <ele>32.2</ele>
        <time>2025-01-16T09:13:49Z</time>
      </trkpt>
      <trkpt lat="47.5799" lon="-2.2955">
        <ele>32.3</ele>
        <time>2025-01-16T09:13:50Z</time>
      </trkpt>
      <trkpt lat="47.57989" lon="-2.2955">
        <ele>32.4</ele>
        <time>2025-01-16T09:13:51Z</time>
      </trkpt>
      <trkpt lat="47.57987" lon="-2.29551">
        <ele>32.6</ele>
        <time>2025-01-16T09:13:52Z</time>
      </trkpt>
      <trkpt lat="47.57986" lon="-2.29551">
        <ele>32.7</ele>
        <time>2025-01-16T09:13:53Z</time>
      </trkpt>
      <trkpt lat="47.57985" lon="-2.29551">
        <ele>32.8</ele>
        <time>2025-01-16T09:13:54Z</time>
      </trkpt>
      <trkpt lat="47.57984" lon="-2.29551">
        <ele>32.8</ele>
        <time>2025-01-16T09:13:55Z</time>
      </trkpt>
      <trkpt lat="47.57983" lon="-2.29551">
        <ele>32.9</ele>
        <time>2025-01-16T09:13:56Z</time>
      </trkpt>
      <trkpt lat="47.57982" lon="-2.29551">
        <ele>33</ele>
        <time>2025-01-16T09:13:57Z</time>
      </trkpt>
      <trkpt lat="47.57981" lon="-2.29551">
        <ele>33.1</ele>
        <time>2025-01-16T09:13:58Z</time>
      </trkpt>
      <trkpt lat="47.57979" lon="-2.29551">
        <ele>33.3</ele>
        <time>2025-01-16T09:13:59Z</time>
      </trkpt>
      <trkpt lat="47.57978" lon="-2.29551">
        <ele>33.4</ele>
        <time>2025-01-16T09:14:00Z</time>
      </trkpt>
      <trkpt lat="47.57977" lon="-2.29551">
        <ele>33.4</ele>
        <time>2025-01-16T09:14:01Z</time>
      </trkpt>
      <trkpt lat="47.57976" lon="-2.29551">
        <ele>33.5</ele>
        <time>2025-01-16T09:14:02Z</time>
      </trkpt>
      <trkpt lat="47.57975" lon="-2.29551">
        <ele>33.6</ele>
        <time>2025-01-16T09:14:03Z</time>
      </trkpt>
      <trkpt lat="47.57974" lon="-2.29551">
        <ele>33.7</ele>
        <time>2025-01-16T09:14:04Z</time>
      </trkpt>
      <trkpt lat="47.57973" lon="-2.29551">
        <ele>33.8</ele>
        <time>2025-01-16T09:14:05Z</time>
      </trkpt>
      <trkpt lat="47.57972" lon="-2.29551">
        <ele>33.9</ele>
        <time>2025-01-16T09:14:06Z</time>
      </trkpt>
      <trkpt lat="47.5797" lon="-2.29551">
        <ele>34.1</ele>
        <time>2025-01-16T09:14:07Z</time>
      </trkpt>
      <trkpt lat="47.57969" lon="-2.29551">
        <ele>34.2</ele>
        <time>2025-01-16T09:14:08Z</time>
      </trkpt>
      <trkpt lat="47.57968" lon="-2.29551">
        <ele>34.3</ele>
        <time>2025-01-16T09:14:09Z</time>
      </trkpt>
      <trkpt lat="47.57967" lon="-2.29551">
        <ele>34.4</ele>
        <time>2025-01-16T09:14:10Z</time>
      </trkpt>
      <trkpt lat="47.57966" lon="-2.29551">
        <ele>34.5</ele>
        <time>2025-01-16T09:14:11Z</time>
      </trkpt>
      <trkpt lat="47.57965" lon="-2.29552">
        <ele>34.7</ele>
        <time>2025-01-16T09:14:12Z</time>
      </trkpt>
      <trkpt lat="47.57964" lon="-2.29552">
        <ele>34.8</ele>
        <time>2025-01-16T09:14:13Z</time>
      </trkpt>
      <trkpt lat="47.57963" lon="-2.29552">
        <ele>34.9</ele>
        <time>2025-01-16T09:14:14Z</time>
      </trkpt>
      <trkpt lat="47.57962" lon="-2.29551">
        <ele>34.9</ele>
        <time>2025-01-16T09:14:15Z</time>
      </trkpt>
      <trkpt lat="47.5796" lon="-2.29551">
        <ele>35.2</ele>
        <time>2025-01-16T09:14:16Z</time>
      </trkpt>
      <trkpt lat="47.57959" lon="-2.29551">
        <ele>35.3</ele>
        <time>2025-01-16T09:14:17Z</time>
      </trkpt>
      <trkpt lat="47.57958" lon="-2.29551">
        <ele>35.4</ele>
        <time>2025-01-16T09:14:18Z</time>
      </trkpt>
      <trkpt lat="47.57957" lon="-2.29551">
        <ele>35.5</ele>
        <time>2025-01-16T09:14:19Z</time>
      </trkpt>
      <trkpt lat="47.57956" lon="-2.29551">
        <ele>35.6</ele>
        <time>2025-01-16T09:14:20Z</time>
      </trkpt>
      <trkpt lat="47.57955" lon="-2.29551">
        <ele>35.7</ele>
        <time>2025-01-16T09:14:21Z</time>
      </trkpt>
      <trkpt lat="47.57954" lon="-2.29551">
        <ele>35.8</ele>
        <time>2025-01-16T09:14:22Z</time>
      </trkpt>
      <trkpt lat="47.57953" lon="-2.29551">
        <ele>35.9</ele>
        <time>2025-01-16T09:14:23Z</time>
      </trkpt>
      <trkpt lat="47.57952" lon="-2.29551">
        <ele>36</ele>
        <time>2025-01-16T09:14:24Z</time>
      </trkpt>
      <trkpt lat="47.5795" lon="-2.2955">
        <ele>36.2</ele>
        <time>2025-01-16T09:14:25Z</time>
      </trkpt>
      <trkpt lat="47.57949" lon="-2.2955">
        <ele>36.3</ele>
        <time>2025-01-16T09:14:26Z</time>
      </trkpt>
      <trkpt lat="47.57948" lon="-2.2955">
        <ele>36.4</ele>
        <time>2025-01-16T09:14:27Z</time>
      </trkpt>
      <trkpt lat="47.57947" lon="-2.2955">
        <ele>36.5</ele>
        <time>2025-01-16T09:14:28Z</time>
      </trkpt>
      <trkpt lat="47.57946" lon="-2.2955">
        <ele>36.6</ele>
        <time>2025-01-16T09:14:29Z</time>
      </trkpt>
      <trkpt lat="47.57945" lon="-2.29549">
        <ele>36.7</ele>
        <time>2025-01-16T09:14:30Z</time>
      </trkpt>
      <trkpt lat="47.57944" lon="-2.29549">
        <ele>36.8</ele>
        <time>2025-01-16T09:14:31Z</time>
      </trkpt>
      <trkpt lat="47.57943" lon="-2.29549">
        <ele>36.9</ele>
        <time>2025-01-16T09:14:32Z</time>
      </trkpt>
      <trkpt lat="47.57942" lon="-2.29549">
        <ele>36.9</ele>
        <time>2025-01-16T09:14:33Z</time>
      </trkpt>
      <trkpt lat="47.57941" lon="-2.29549">
        <ele>37</ele>
        <time>2025-01-16T09:14:34Z</time>
      </trkpt>
      <trkpt lat="47.57939" lon="-2.29549">
        <ele>37.2</ele>
        <time>2025-01-16T09:14:35Z</time>
      </trkpt>
      <trkpt lat="47.57938" lon="-2.29548">
        <ele>37.2</ele>
        <time>2025-01-16T09:14:36Z</time>
      </trkpt>
      <trkpt lat="47.57937" lon="-2.29548">
        <ele>37.3</ele>
        <time>2025-01-16T09:14:37Z</time>
      </trkpt>
      <trkpt lat="47.57936" lon="-2.29548">
        <ele>37.3</ele>
        <time>2025-01-16T09:14:38Z</time>
      </trkpt>
      <trkpt lat="47.57935" lon="-2.29548">
        <ele>37.4</ele>
        <time>2025-01-16T09:14:39Z</time>
      </trkpt>
      <trkpt lat="47.57933" lon="-2.29548">
        <ele>37.6</ele>
        <time>2025-01-16T09:14:40Z</time>
      </trkpt>
      <trkpt lat="47.57932" lon="-2.29548">
        <ele>37.6</ele>
        <time>2025-01-16T09:14:41Z</time>
      </trkpt>
      <trkpt lat="47.57931" lon="-2.29548">
        <ele>37.7</ele>
        <time>2025-01-16T09:14:42Z</time>
      </trkpt>
      <trkpt lat="47.5793" lon="-2.29548">
        <ele>37.8</ele>
        <time>2025-01-16T09:14:43Z</time>
      </trkpt>
      <trkpt lat="47.57929" lon="-2.29548">
        <ele>37.8</ele>
        <time>2025-01-16T09:14:44Z</time>
      </trkpt>
      <trkpt lat="47.57928" lon="-2.29548">
        <ele>37.9</ele>
        <time>2025-01-16T09:14:45Z</time>
      </trkpt>
      <trkpt lat="47.57927" lon="-2.29548">
        <ele>38</ele>
        <time>2025-01-16T09:14:46Z</time>
      </trkpt>
      <trkpt lat="47.57926" lon="-2.29548">
        <ele>38.1</ele>
        <time>2025-01-16T09:14:47Z</time>
      </trkpt>
      <trkpt lat="47.57924" lon="-2.29548">
        <ele>38.2</ele>
        <time>2025-01-16T09:14:48Z</time>
      </trkpt>
      <trkpt lat="47.57923" lon="-2.29547">
        <ele>38.2</ele>
        <time>2025-01-16T09:14:49Z</time>
      </trkpt>
      <trkpt lat="47.57922" lon="-2.29547">
        <ele>38.3</ele>
        <time>2025-01-16T09:14:50Z</time>
      </trkpt>
      <trkpt lat="47.57921" lon="-2.29547">
        <ele>38.4</ele>
        <time>2025-01-16T09:14:51Z</time>
      </trkpt>
      <trkpt lat="47.5792" lon="-2.29547">
        <ele>38.5</ele>
        <time>2025-01-16T09:14:52Z</time>
      </trkpt>
      <trkpt lat="47.57918" lon="-2.29547">
        <ele>38.6</ele>
        <time>2025-01-16T09:14:53Z</time>
      </trkpt>
      <trkpt lat="47.57917" lon="-2.29547">
        <ele>38.7</ele>
        <time>2025-01-16T09:14:54Z</time>
      </trkpt>
      <trkpt lat="47.57916" lon="-2.29547">
        <ele>38.7</ele>
        <time>2025-01-16T09:14:55Z</time>
      </trkpt>
      <trkpt lat="47.57915" lon="-2.29547">
        <ele>38.7</ele>
        <time>2025-01-16T09:14:56Z</time>
      </trkpt>
      <trkpt lat="47.57914" lon="-2.29546">
        <ele>38.7</ele>
        <time>2025-01-16T09:14:57Z</time>
      </trkpt>
      <trkpt lat="47.57913" lon="-2.29546">
        <ele>38.7</ele>
        <time>2025-01-16T09:14:58Z</time>
      </trkpt>
      <trkpt lat="47.57911" lon="-2.29546">
        <ele>38.8</ele>
        <time>2025-01-16T09:14:59Z</time>
      </trkpt>
      <trkpt lat="47.5791" lon="-2.29546">
        <ele>38.8</ele>
        <time>2025-01-16T09:15:00Z</time>
      </trkpt>
      <trkpt lat="47.57909" lon="-2.29546">
        <ele>38.8</ele>
        <time>2025-01-16T09:15:01Z</time>
      </trkpt>
      <trkpt lat="47.57908" lon="-2.29546">
        <ele>38.9</ele>
        <time>2025-01-16T09:15:02Z</time>
      </trkpt>
      <trkpt lat="47.57907" lon="-2.29546">
        <ele>38.9</ele>
        <time>2025-01-16T09:15:03Z</time>
      </trkpt>
      <trkpt lat="47.57905" lon="-2.29546">
        <ele>38.9</ele>
        <time>2025-01-16T09:15:04Z</time>
      </trkpt>
      <trkpt lat="47.57904" lon="-2.29546">
        <ele>39</ele>
        <time>2025-01-16T09:15:05Z</time>
      </trkpt>
      <trkpt lat="47.57902" lon="-2.29546">
        <ele>39</ele>
        <time>2025-01-16T09:15:06Z</time>
      </trkpt>
      <trkpt lat="47.57901" lon="-2.29546">
        <ele>39</ele>
        <time>2025-01-16T09:15:07Z</time>
      </trkpt>
      <trkpt lat="47.579" lon="-2.29546">
        <ele>39.1</ele>
        <time>2025-01-16T09:15:08Z</time>
      </trkpt>
      <trkpt lat="47.57899" lon="-2.29546">
        <ele>39.1</ele>
        <time>2025-01-16T09:15:09Z</time>
      </trkpt>
      <trkpt lat="47.57898" lon="-2.29546">
        <ele>39.1</ele>
        <time>2025-01-16T09:15:10Z</time>
      </trkpt>
      <trkpt lat="47.57896" lon="-2.29545">
        <ele>39.2</ele>
        <time>2025-01-16T09:15:11Z</time>
      </trkpt>
      <trkpt lat="47.57895" lon="-2.29545">
        <ele>39.2</ele>
        <time>2025-01-16T09:15:12Z</time>
      </trkpt>
      <trkpt lat="47.57894" lon="-2.29545">
        <ele>39.2</ele>
        <time>2025-01-16T09:15:13Z</time>
      </trkpt>
      <trkpt lat="47.57893" lon="-2.29545">
        <ele>39.3</ele>
        <time>2025-01-16T09:15:14Z</time>
      </trkpt>
      <trkpt lat="47.57891" lon="-2.29544">
        <ele>39.4</ele>
        <time>2025-01-16T09:15:15Z</time>
      </trkpt>
      <trkpt lat="47.5789" lon="-2.29544">
        <ele>39.4</ele>
        <time>2025-01-16T09:15:16Z</time>
      </trkpt>
      <trkpt lat="47.57889" lon="-2.29544">
        <ele>39.4</ele>
        <time>2025-01-16T09:15:17Z</time>
      </trkpt>
      <trkpt lat="47.57888" lon="-2.29544">
        <ele>39.4</ele>
        <time>2025-01-16T09:15:18Z</time>
      </trkpt>
      <trkpt lat="47.57887" lon="-2.29544">
        <ele>39.5</ele>
        <time>2025-01-16T09:15:19Z</time>
      </trkpt>
      <trkpt lat="47.57886" lon="-2.29543">
        <ele>39.5</ele>
        <time>2025-01-16T09:15:20Z</time>
      </trkpt>
      <trkpt lat="47.57884" lon="-2.29543">
        <ele>39.5</ele>
        <time>2025-01-16T09:15:21Z</time>
      </trkpt>
      <trkpt lat="47.57883" lon="-2.29542">
        <ele>39.6</ele>
        <time>2025-01-16T09:15:22Z</time>
      </trkpt>
      <trkpt lat="47.57882" lon="-2.29542">
        <ele>39.6</ele>
        <time>2025-01-16T09:15:23Z</time>
      </trkpt>
      <trkpt lat="47.57881" lon="-2.29542">
        <ele>39.6</ele>
        <time>2025-01-16T09:15:24Z</time>
      </trkpt>
      <trkpt lat="47.5788" lon="-2.29542">
        <ele>39.7</ele>
        <time>2025-01-16T09:15:25Z</time>
      </trkpt>
      <trkpt lat="47.57879" lon="-2.29541">
        <ele>39.7</ele>
        <time>2025-01-16T09:15:26Z</time>
      </trkpt>
      <trkpt lat="47.57877" lon="-2.29541">
        <ele>39.7</ele>
        <time>2025-01-16T09:15:27Z</time>
      </trkpt>
      <trkpt lat="47.57876" lon="-2.29541">
        <ele>39.7</ele>
        <time>2025-01-16T09:15:28Z</time>
      </trkpt>
      <trkpt lat="47.57875" lon="-2.29541">
        <ele>39.8</ele>
        <time>2025-01-16T09:15:29Z</time>
      </trkpt>
      <trkpt lat="47.57874" lon="-2.29541">
        <ele>39.8</ele>
        <time>2025-01-16T09:15:30Z</time>
      </trkpt>
      <trkpt lat="47.57873" lon="-2.29541">
        <ele>39.8</ele>
        <time>2025-01-16T09:15:31Z</time>
      </trkpt>
      <trkpt lat="47.57872" lon="-2.2954">
        <ele>39.8</ele>
        <time>2025-01-16T09:15:32Z</time>
      </trkpt>
      <trkpt lat="47.5787" lon="-2.2954">
        <ele>39.9</ele>
        <time>2025-01-16T09:15:33Z</time>
      </trkpt>
      <trkpt lat="47.57869" lon="-2.2954">
        <ele>39.9</ele>
        <time>2025-01-16T09:15:34Z</time>
      </trkpt>
      <trkpt lat="47.57868" lon="-2.29539">
        <ele>39.9</ele>
        <time>2025-01-16T09:15:35Z</time>
      </trkpt>
      <trkpt lat="47.57867" lon="-2.29538">
        <ele>39.9</ele>
        <time>2025-01-16T09:15:36Z</time>
      </trkpt>
      <trkpt lat="47.57866" lon="-2.29538">
        <ele>39.9</ele>
        <time>2025-01-16T09:15:37Z</time>
      </trkpt>
      <trkpt lat="47.57865" lon="-2.29537">
        <ele>40</ele>
        <time>2025-01-16T09:15:38Z</time>
      </trkpt>
      <trkpt lat="47.57864" lon="-2.29536">
        <ele>40</ele>
        <time>2025-01-16T09:15:39Z</time>
      </trkpt>
      <trkpt lat="47.57863" lon="-2.29536">
        <ele>40</ele>
        <time>2025-01-16T09:15:40Z</time>
      </trkpt>
      <trkpt lat="47.57862" lon="-2.29534">
        <ele>40</ele>
        <time>2025-01-16T09:15:41Z</time>
      </trkpt>
      <trkpt lat="47.57862" lon="-2.29533">
        <ele>40</ele>
        <time>2025-01-16T09:15:42Z</time>
      </trkpt>
      <trkpt lat="47.57861" lon="-2.29531">
        <ele>40</ele>
        <time>2025-01-16T09:15:43Z</time>
      </trkpt>
      <trkpt lat="47.57861" lon="-2.29529">
        <ele>40</ele>
        <time>2025-01-16T09:15:44Z</time>
      </trkpt>
      <trkpt lat="47.57861" lon="-2.29527">
        <ele>40</ele>
        <time>2025-01-16T09:15:45Z</time>
      </trkpt>
      <trkpt lat="47.5786" lon="-2.29525">
        <ele>40.1</ele>
        <time>2025-01-16T09:15:46Z</time>
      </trkpt>
      <trkpt lat="47.5786" lon="-2.29523">
        <ele>40.2</ele>
        <time>2025-01-16T09:15:47Z</time>
      </trkpt>
      <trkpt lat="47.5786" lon="-2.29521">
        <ele>40.2</ele>
        <time>2025-01-16T09:15:48Z</time>
      </trkpt>
      <trkpt lat="47.5786" lon="-2.29519">
        <ele>40.3</ele>
        <time>2025-01-16T09:15:49Z</time>
      </trkpt>
      <trkpt lat="47.57861" lon="-2.29517">
        <ele>40.4</ele>
        <time>2025-01-16T09:15:50Z</time>
      </trkpt>
      <trkpt lat="47.57861" lon="-2.29515">
        <ele>40.5</ele>
        <time>2025-01-16T09:15:51Z</time>
      </trkpt>
      <trkpt lat="47.57862" lon="-2.29513">
        <ele>40.5</ele>
        <time>2025-01-16T09:15:52Z</time>
      </trkpt>
      <trkpt lat="47.57862" lon="-2.29511">
        <ele>40.6</ele>
        <time>2025-01-16T09:15:53Z</time>
      </trkpt>
      <trkpt lat="47.57863" lon="-2.29509">
        <ele>40.6</ele>
        <time>2025-01-16T09:15:54Z</time>
      </trkpt>
      <trkpt lat="47.57863" lon="-2.29507">
        <ele>40.7</ele>
        <time>2025-01-16T09:15:55Z</time>
      </trkpt>
      <trkpt lat="47.57864" lon="-2.29505">
        <ele>40.7</ele>
        <time>2025-01-16T09:15:56Z</time>
      </trkpt>
      <trkpt lat="47.57865" lon="-2.29504">
        <ele>40.7</ele>
        <time>2025-01-16T09:15:57Z</time>
      </trkpt>
      <trkpt lat="47.57865" lon="-2.29502">
        <ele>40.8</ele>
        <time>2025-01-16T09:15:58Z</time>
      </trkpt>
      <trkpt lat="47.57866" lon="-2.29501">
        <ele>40.8</ele>
        <time>2025-01-16T09:15:59Z</time>
      </trkpt>
      <trkpt lat="47.57866" lon="-2.29499">
        <ele>40.8</ele>
        <time>2025-01-16T09:16:00Z</time>
      </trkpt>
      <trkpt lat="47.57867" lon="-2.29498">
        <ele>40.8</ele>
        <time>2025-01-16T09:16:01Z</time>
      </trkpt>
      <trkpt lat="47.57867" lon="-2.29496">
        <ele>40.8</ele>
        <time>2025-01-16T09:16:02Z</time>
      </trkpt>
      <trkpt lat="47.57868" lon="-2.29494">
        <ele>40.8</ele>
        <time>2025-01-16T09:16:03Z</time>
      </trkpt>
      <trkpt lat="47.57868" lon="-2.29493">
        <ele>40.8</ele>
        <time>2025-01-16T09:16:04Z</time>
      </trkpt>
      <trkpt lat="47.57869" lon="-2.29491">
        <ele>40.7</ele>
        <time>2025-01-16T09:16:05Z</time>
      </trkpt>
      <trkpt lat="47.57869" lon="-2.2949">
        <ele>40.7</ele>
        <time>2025-01-16T09:16:06Z</time>
      </trkpt>
      <trkpt lat="47.5787" lon="-2.29488">
        <ele>40.7</ele>
        <time>2025-01-16T09:16:07Z</time>
      </trkpt>
      <trkpt lat="47.5787" lon="-2.29487">
        <ele>40.7</ele>
        <time>2025-01-16T09:16:08Z</time>
      </trkpt>
      <trkpt lat="47.57871" lon="-2.29485">
        <ele>40.6</ele>
        <time>2025-01-16T09:16:09Z</time>
      </trkpt>
      <trkpt lat="47.57871" lon="-2.29483">
        <ele>40.6</ele>
        <time>2025-01-16T09:16:10Z</time>
      </trkpt>
      <trkpt lat="47.57872" lon="-2.29482">
        <ele>40.6</ele>
        <time>2025-01-16T09:16:11Z</time>
      </trkpt>
      <trkpt lat="47.57872" lon="-2.2948">
        <ele>40.6</ele>
        <time>2025-01-16T09:16:12Z</time>
      </trkpt>
      <trkpt lat="47.57872" lon="-2.29478">
        <ele>40.6</ele>
        <time>2025-01-16T09:16:13Z</time>
      </trkpt>
      <trkpt lat="47.57873" lon="-2.29477">
        <ele>40.6</ele>
        <time>2025-01-16T09:16:14Z</time>
      </trkpt>
      <trkpt lat="47.57873" lon="-2.29475">
        <ele>40.6</ele>
        <time>2025-01-16T09:16:15Z</time>
      </trkpt>
      <trkpt lat="47.57874" lon="-2.29473">
        <ele>40.5</ele>
        <time>2025-01-16T09:16:16Z</time>
      </trkpt>
      <trkpt lat="47.57874" lon="-2.29472">
        <ele>40.5</ele>
        <time>2025-01-16T09:16:17Z</time>
      </trkpt>
      <trkpt lat="47.57874" lon="-2.2947">
        <ele>40.6</ele>
        <time>2025-01-16T09:16:18Z</time>
      </trkpt>
      <trkpt lat="47.57875" lon="-2.29468">
        <ele>40.6</ele>
        <time>2025-01-16T09:16:19Z</time>
      </trkpt>
      <trkpt lat="47.57875" lon="-2.29466">
        <ele>40.6</ele>
        <time>2025-01-16T09:16:20Z</time>
      </trkpt>
      <trkpt lat="47.57876" lon="-2.29464">
        <ele>40.6</ele>
        <time>2025-01-16T09:16:21Z</time>
      </trkpt>
      <trkpt lat="47.57876" lon="-2.29462">
        <ele>40.7</ele>
        <time>2025-01-16T09:16:22Z</time>
      </trkpt>
      <trkpt lat="47.57876" lon="-2.29461">
        <ele>40.7</ele>
        <time>2025-01-16T09:16:23Z</time>
      </trkpt>
      <trkpt lat="47.57877" lon="-2.29459">
        <ele>40.7</ele>
        <time>2025-01-16T09:16:24Z</time>
      </trkpt>
      <trkpt lat="47.57877" lon="-2.29457">
        <ele>40.7</ele>
        <time>2025-01-16T09:16:25Z</time>
      </trkpt>
      <trkpt lat="47.57877" lon="-2.29455">
        <ele>40.8</ele>
        <time>2025-01-16T09:16:26Z</time>
      </trkpt>
      <trkpt lat="47.57878" lon="-2.29453">
        <ele>40.8</ele>
        <time>2025-01-16T09:16:27Z</time>
      </trkpt>
      <trkpt lat="47.57878" lon="-2.29451">
        <ele>40.9</ele>
        <time>2025-01-16T09:16:28Z</time>
      </trkpt>
      <trkpt lat="47.57879" lon="-2.29449">
        <ele>40.9</ele>
        <time>2025-01-16T09:16:29Z</time>
      </trkpt>
      <trkpt lat="47.57879" lon="-2.29448">
        <ele>40.9</ele>
        <time>2025-01-16T09:16:30Z</time>
      </trkpt>
      <trkpt lat="47.57879" lon="-2.29446">
        <ele>41</ele>
        <time>2025-01-16T09:16:31Z</time>
      </trkpt>
      <trkpt lat="47.5788" lon="-2.29444">
        <ele>41</ele>
        <time>2025-01-16T09:16:32Z</time>
      </trkpt>
      <trkpt lat="47.5788" lon="-2.29443">
        <ele>41</ele>
        <time>2025-01-16T09:16:33Z</time>
      </trkpt>
      <trkpt lat="47.5788" lon="-2.29441">
        <ele>41</ele>
        <time>2025-01-16T09:16:34Z</time>
      </trkpt>
      <trkpt lat="47.57881" lon="-2.29439">
        <ele>41</ele>
        <time>2025-01-16T09:16:35Z</time>
      </trkpt>
      <trkpt lat="47.57881" lon="-2.29438">
        <ele>41</ele>
        <time>2025-01-16T09:16:36Z</time>
      </trkpt>
      <trkpt lat="47.57881" lon="-2.29436">
        <ele>41</ele>
        <time>2025-01-16T09:16:37Z</time>
      </trkpt>
      <trkpt lat="47.57882" lon="-2.29434">
        <ele>41</ele>
        <time>2025-01-16T09:16:38Z</time>
      </trkpt>
      <trkpt lat="47.57882" lon="-2.29432">
        <ele>41</ele>
        <time>2025-01-16T09:16:39Z</time>
      </trkpt>
      <trkpt lat="47.57882" lon="-2.2943">
        <ele>41</ele>
        <time>2025-01-16T09:16:40Z</time>
      </trkpt>
      <trkpt lat="47.57883" lon="-2.29429">
        <ele>41</ele>
        <time>2025-01-16T09:16:41Z</time>
      </trkpt>
      <trkpt lat="47.57883" lon="-2.29427">
        <ele>41</ele>
        <time>2025-01-16T09:16:42Z</time>
      </trkpt>
      <trkpt lat="47.57883" lon="-2.29425">
        <ele>41</ele>
        <time>2025-01-16T09:16:43Z</time>
      </trkpt>
      <trkpt lat="47.57884" lon="-2.29423">
        <ele>41</ele>
        <time>2025-01-16T09:16:44Z</time>
      </trkpt>
      <trkpt lat="47.57884" lon="-2.29421">
        <ele>41</ele>
        <time>2025-01-16T09:16:45Z</time>
      </trkpt>
      <trkpt lat="47.57884" lon="-2.2942">
        <ele>41</ele>
        <time>2025-01-16T09:16:46Z</time>
      </trkpt>
      <trkpt lat="47.57885" lon="-2.29418">
        <ele>41</ele>
        <time>2025-01-16T09:16:47Z</time>
      </trkpt>
      <trkpt lat="47.57885" lon="-2.29416">
        <ele>41</ele>
        <time>2025-01-16T09:16:48Z</time>
      </trkpt>
      <trkpt lat="47.57886" lon="-2.29414">
        <ele>41</ele>
        <time>2025-01-16T09:16:49Z</time>
      </trkpt>
      <trkpt lat="47.57886" lon="-2.29412">
        <ele>41</ele>
        <time>2025-01-16T09:16:50Z</time>
      </trkpt>
      <trkpt lat="47.57886" lon="-2.2941">
        <ele>41</ele>
        <time>2025-01-16T09:16:51Z</time>
      </trkpt>
      <trkpt lat="47.57887" lon="-2.29409">
        <ele>41</ele>
        <time>2025-01-16T09:16:52Z</time>
      </trkpt>
      <trkpt lat="47.57887" lon="-2.29407">
        <ele>41</ele>
        <time>2025-01-16T09:16:53Z</time>
      </trkpt>
      <trkpt lat="47.57888" lon="-2.29406">
        <ele>41</ele>
        <time>2025-01-16T09:16:54Z</time>
      </trkpt>
      <trkpt lat="47.57888" lon="-2.29404">
        <ele>41</ele>
        <time>2025-01-16T09:16:55Z</time>
      </trkpt>
      <trkpt lat="47.57889" lon="-2.29402">
        <ele>41</ele>
        <time>2025-01-16T09:16:56Z</time>
      </trkpt>
      <trkpt lat="47.57889" lon="-2.294">
        <ele>41</ele>
        <time>2025-01-16T09:16:57Z</time>
      </trkpt>
      <trkpt lat="47.5789" lon="-2.29399">
        <ele>41</ele>
        <time>2025-01-16T09:16:58Z</time>
      </trkpt>
      <trkpt lat="47.5789" lon="-2.29397">
        <ele>41</ele>
        <time>2025-01-16T09:16:59Z</time>
      </trkpt>
      <trkpt lat="47.5789" lon="-2.29395">
        <ele>41</ele>
        <time>2025-01-16T09:17:00Z</time>
      </trkpt>
      <trkpt lat="47.57891" lon="-2.29393">
        <ele>40.9</ele>
        <time>2025-01-16T09:17:01Z</time>
      </trkpt>
      <trkpt lat="47.57891" lon="-2.29391">
        <ele>40.9</ele>
        <time>2025-01-16T09:17:02Z</time>
      </trkpt>
      <trkpt lat="47.57891" lon="-2.2939">
        <ele>40.9</ele>
        <time>2025-01-16T09:17:03Z</time>
      </trkpt>
      <trkpt lat="47.57891" lon="-2.29388">
        <ele>40.9</ele>
        <time>2025-01-16T09:17:04Z</time>
      </trkpt>
      <trkpt lat="47.57892" lon="-2.29386">
        <ele>40.9</ele>
        <time>2025-01-16T09:17:05Z</time>
      </trkpt>
      <trkpt lat="47.57892" lon="-2.29384">
        <ele>40.9</ele>
        <time>2025-01-16T09:17:06Z</time>
      </trkpt>
      <trkpt lat="47.57892" lon="-2.29382">
        <ele>40.9</ele>
        <time>2025-01-16T09:17:07Z</time>
      </trkpt>
      <trkpt lat="47.57893" lon="-2.29381">
        <ele>40.9</ele>
        <time>2025-01-16T09:17:08Z</time>
      </trkpt>
      <trkpt lat="47.57893" lon="-2.29379">
        <ele>40.9</ele>
        <time>2025-01-16T09:17:09Z</time>
      </trkpt>
      <trkpt lat="47.57894" lon="-2.29377">
        <ele>40.8</ele>
        <time>2025-01-16T09:17:10Z</time>
      </trkpt>
      <trkpt lat="47.57894" lon="-2.29376">
        <ele>40.8</ele>
        <time>2025-01-16T09:17:11Z</time>
      </trkpt>
      <trkpt lat="47.57895" lon="-2.29374">
        <ele>40.8</ele>
        <time>2025-01-16T09:17:12Z</time>
      </trkpt>
      <trkpt lat="47.57895" lon="-2.29372">
        <ele>40.8</ele>
        <time>2025-01-16T09:17:13Z</time>
      </trkpt>
      <trkpt lat="47.57895" lon="-2.29371">
        <ele>40.8</ele>
        <time>2025-01-16T09:17:14Z</time>
      </trkpt>
      <trkpt lat="47.57896" lon="-2.2937">
        <ele>40.7</ele>
        <time>2025-01-16T09:17:15Z</time>
      </trkpt>
      <trkpt lat="47.57896" lon="-2.29368">
        <ele>40.7</ele>
        <time>2025-01-16T09:17:16Z</time>
      </trkpt>
      <trkpt lat="47.57897" lon="-2.29366">
        <ele>40.7</ele>
        <time>2025-01-16T09:17:17Z</time>
      </trkpt>
      <trkpt lat="47.57897" lon="-2.29364">
        <ele>40.7</ele>
        <time>2025-01-16T09:17:18Z</time>
      </trkpt>
      <trkpt lat="47.57898" lon="-2.29363">
        <ele>40.7</ele>
        <time>2025-01-16T09:17:19Z</time>
      </trkpt>
      <trkpt lat="47.57898" lon="-2.29361">
        <ele>40.7</ele>
        <time>2025-01-16T09:17:20Z</time>
      </trkpt>
      <trkpt lat="47.57898" lon="-2.29359">
        <ele>40.6</ele>
        <time>2025-01-16T09:17:21Z</time>
      </trkpt>
      <trkpt lat="47.57899" lon="-2.29357">
        <ele>40.5</ele>
        <time>2025-01-16T09:17:22Z</time>
      </trkpt>
      <trkpt lat="47.57899" lon="-2.29356">
        <ele>40.5</ele>
        <time>2025-01-16T09:17:23Z</time>
      </trkpt>
      <trkpt lat="47.579" lon="-2.29354">
        <ele>40.3</ele>
        <time>2025-01-16T09:17:24Z</time>
      </trkpt>
      <trkpt lat="47.579" lon="-2.29353">
        <ele>40.3</ele>
        <time>2025-01-16T09:17:25Z</time>
      </trkpt>
      <trkpt lat="47.57901" lon="-2.29351">
        <ele>40.2</ele>
        <time>2025-01-16T09:17:26Z</time>
      </trkpt>
      <trkpt lat="47.57901" lon="-2.2935">
        <ele>40.2</ele>
        <time>2025-01-16T09:17:27Z</time>
      </trkpt>
      <trkpt lat="47.57901" lon="-2.29348">
        <ele>40.1</ele>
        <time>2025-01-16T09:17:28Z</time>
      </trkpt>
      <trkpt lat="47.57902" lon="-2.29346">
        <ele>40</ele>
        <time>2025-01-16T09:17:29Z</time>
      </trkpt>
      <trkpt lat="47.57902" lon="-2.29345">
        <ele>39.9</ele>
        <time>2025-01-16T09:17:30Z</time>
      </trkpt>
      <trkpt lat="47.57902" lon="-2.29344">
        <ele>39.9</ele>
        <time>2025-01-16T09:17:31Z</time>
      </trkpt>
      <trkpt lat="47.57903" lon="-2.29342">
        <ele>39.8</ele>
        <time>2025-01-16T09:17:32Z</time>
      </trkpt>
      <trkpt lat="47.57903" lon="-2.2934">
        <ele>39.7</ele>
        <time>2025-01-16T09:17:33Z</time>
      </trkpt>
      <trkpt lat="47.57903" lon="-2.29338">
        <ele>39.7</ele>
        <time>2025-01-16T09:17:34Z</time>
      </trkpt>
      <trkpt lat="47.57904" lon="-2.29337">
        <ele>39.6</ele>
        <time>2025-01-16T09:17:35Z</time>
      </trkpt>
      <trkpt lat="47.57904" lon="-2.29335">
        <ele>39.5</ele>
        <time>2025-01-16T09:17:36Z</time>
      </trkpt>
      <trkpt lat="47.57904" lon="-2.29333">
        <ele>39.5</ele>
        <time>2025-01-16T09:17:37Z</time>
      </trkpt>
      <trkpt lat="47.57905" lon="-2.29331">
        <ele>39.4</ele>
        <time>2025-01-16T09:17:38Z</time>
      </trkpt>
      <trkpt lat="47.57905" lon="-2.2933">
        <ele>39.4</ele>
        <time>2025-01-16T09:17:39Z</time>
      </trkpt>
      <trkpt lat="47.57906" lon="-2.29328">
        <ele>39.3</ele>
        <time>2025-01-16T09:17:40Z</time>
      </trkpt>
      <trkpt lat="47.57906" lon="-2.29326">
        <ele>39.3</ele>
        <time>2025-01-16T09:17:41Z</time>
      </trkpt>
      <trkpt lat="47.57906" lon="-2.29324">
        <ele>39.3</ele>
        <time>2025-01-16T09:17:42Z</time>
      </trkpt>
      <trkpt lat="47.57907" lon="-2.29322">
        <ele>39.2</ele>
        <time>2025-01-16T09:17:43Z</time>
      </trkpt>
      <trkpt lat="47.57907" lon="-2.29321">
        <ele>39.2</ele>
        <time>2025-01-16T09:17:44Z</time>
      </trkpt>
      <trkpt lat="47.57907" lon="-2.29319">
        <ele>39.2</ele>
        <time>2025-01-16T09:17:45Z</time>
      </trkpt>
      <trkpt lat="47.57908" lon="-2.29317">
        <ele>39.1</ele>
        <time>2025-01-16T09:17:46Z</time>
      </trkpt>
      <trkpt lat="47.57908" lon="-2.29316">
        <ele>39.1</ele>
        <time>2025-01-16T09:17:47Z</time>
      </trkpt>
      <trkpt lat="47.57908" lon="-2.29314">
        <ele>39.1</ele>
        <time>2025-01-16T09:17:48Z</time>
      </trkpt>
      <trkpt lat="47.57909" lon="-2.29312">
        <ele>39.1</ele>
        <time>2025-01-16T09:17:49Z</time>
      </trkpt>
      <trkpt lat="47.57909" lon="-2.2931">
        <ele>39</ele>
        <time>2025-01-16T09:17:50Z</time>
      </trkpt>
      <trkpt lat="47.5791" lon="-2.29308">
        <ele>39</ele>
        <time>2025-01-16T09:17:51Z</time>
      </trkpt>
      <trkpt lat="47.5791" lon="-2.29306">
        <ele>39</ele>
        <time>2025-01-16T09:17:52Z</time>
      </trkpt>
      <trkpt lat="47.5791" lon="-2.29304">
        <ele>38.9</ele>
        <time>2025-01-16T09:17:53Z</time>
      </trkpt>
      <trkpt lat="47.57911" lon="-2.29303">
        <ele>38.9</ele>
        <time>2025-01-16T09:17:54Z</time>
      </trkpt>
      <trkpt lat="47.57911" lon="-2.29301">
        <ele>38.8</ele>
        <time>2025-01-16T09:17:55Z</time>
      </trkpt>
      <trkpt lat="47.57911" lon="-2.29299">
        <ele>38.8</ele>
        <time>2025-01-16T09:17:56Z</time>
      </trkpt>
      <trkpt lat="47.57912" lon="-2.29298">
        <ele>38.7</ele>
        <time>2025-01-16T09:17:57Z</time>
      </trkpt>
      <trkpt lat="47.57912" lon="-2.29296">
        <ele>38.7</ele>
        <time>2025-01-16T09:17:58Z</time>
      </trkpt>
      <trkpt lat="47.57913" lon="-2.29294">
        <ele>38.6</ele>
        <time>2025-01-16T09:17:59Z</time>
      </trkpt>
      <trkpt lat="47.57913" lon="-2.29292">
        <ele>38.5</ele>
        <time>2025-01-16T09:18:00Z</time>
      </trkpt>
      <trkpt lat="47.57913" lon="-2.29291">
        <ele>38.5</ele>
        <time>2025-01-16T09:18:01Z</time>
      </trkpt>
      <trkpt lat="47.57914" lon="-2.29289">
        <ele>38.4</ele>
        <time>2025-01-16T09:18:02Z</time>
      </trkpt>
      <trkpt lat="47.57914" lon="-2.29288">
        <ele>38.4</ele>
        <time>2025-01-16T09:18:03Z</time>
      </trkpt>
      <trkpt lat="47.57915" lon="-2.29287">
        <ele>38.3</ele>
        <time>2025-01-16T09:18:04Z</time>
      </trkpt>
      <trkpt lat="47.57915" lon="-2.29285">
        <ele>38.3</ele>
        <time>2025-01-16T09:18:05Z</time>
      </trkpt>
      <trkpt lat="47.57916" lon="-2.29283">
        <ele>38.2</ele>
        <time>2025-01-16T09:18:06Z</time>
      </trkpt>
      <trkpt lat="47.57916" lon="-2.29281">
        <ele>38.1</ele>
        <time>2025-01-16T09:18:07Z</time>
      </trkpt>
      <trkpt lat="47.57917" lon="-2.29279">
        <ele>38</ele>
        <time>2025-01-16T09:18:08Z</time>
      </trkpt>
      <trkpt lat="47.57917" lon="-2.29278">
        <ele>38</ele>
        <time>2025-01-16T09:18:09Z</time>
      </trkpt>
      <trkpt lat="47.57918" lon="-2.29276">
        <ele>37.8</ele>
        <time>2025-01-16T09:18:10Z</time>
      </trkpt>
      <trkpt lat="47.57918" lon="-2.29274">
        <ele>37.7</ele>
        <time>2025-01-16T09:18:11Z</time>
      </trkpt>
      <trkpt lat="47.57919" lon="-2.29272">
        <ele>37.5</ele>
        <time>2025-01-16T09:18:12Z</time>
      </trkpt>
      <trkpt lat="47.5792" lon="-2.29271">
        <ele>37.4</ele>
        <time>2025-01-16T09:18:13Z</time>
      </trkpt>
      <trkpt lat="47.5792" lon="-2.2927">
        <ele>37.4</ele>
        <time>2025-01-16T09:18:14Z</time>
      </trkpt>
      <trkpt lat="47.57921" lon="-2.29268">
        <ele>37.2</ele>
        <time>2025-01-16T09:18:15Z</time>
      </trkpt>
      <trkpt lat="47.57921" lon="-2.29266">
        <ele>37.1</ele>
        <time>2025-01-16T09:18:16Z</time>
      </trkpt>
      <trkpt lat="47.57922" lon="-2.29264">
        <ele>36.9</ele>
        <time>2025-01-16T09:18:17Z</time>
      </trkpt>
      <trkpt lat="47.57923" lon="-2.29262">
        <ele>36.8</ele>
        <time>2025-01-16T09:18:18Z</time>
      </trkpt>
      <trkpt lat="47.57923" lon="-2.2926">
        <ele>36.6</ele>
        <time>2025-01-16T09:18:19Z</time>
      </trkpt>
      <trkpt lat="47.57924" lon="-2.29258">
        <ele>36.5</ele>
        <time>2025-01-16T09:18:20Z</time>
      </trkpt>
      <trkpt lat="47.57924" lon="-2.29256">
        <ele>36.4</ele>
        <time>2025-01-16T09:18:21Z</time>
      </trkpt>
      <trkpt lat="47.57925" lon="-2.29254">
        <ele>36.2</ele>
        <time>2025-01-16T09:18:22Z</time>
      </trkpt>
      <trkpt lat="47.57925" lon="-2.29253">
        <ele>36.2</ele>
        <time>2025-01-16T09:18:23Z</time>
      </trkpt>
      <trkpt lat="47.57926" lon="-2.29251">
        <ele>36.1</ele>
        <time>2025-01-16T09:18:24Z</time>
      </trkpt>
      <trkpt lat="47.57926" lon="-2.2925">
        <ele>36</ele>
        <time>2025-01-16T09:18:25Z</time>
      </trkpt>
      <trkpt lat="47.57927" lon="-2.29248">
        <ele>35.9</ele>
        <time>2025-01-16T09:18:26Z</time>
      </trkpt>
      <trkpt lat="47.57927" lon="-2.29246">
        <ele>35.9</ele>
        <time>2025-01-16T09:18:27Z</time>
      </trkpt>
      <trkpt lat="47.57928" lon="-2.29245">
        <ele>35.8</ele>
        <time>2025-01-16T09:18:28Z</time>
      </trkpt>
      <trkpt lat="47.57928" lon="-2.29243">
        <ele>35.7</ele>
        <time>2025-01-16T09:18:29Z</time>
      </trkpt>
      <trkpt lat="47.57929" lon="-2.29242">
        <ele>35.7</ele>
        <time>2025-01-16T09:18:30Z</time>
      </trkpt>
      <trkpt lat="47.57929" lon="-2.2924">
        <ele>35.6</ele>
        <time>2025-01-16T09:18:31Z</time>
      </trkpt>
      <trkpt lat="47.57929" lon="-2.29238">
        <ele>35.6</ele>
        <time>2025-01-16T09:18:32Z</time>
      </trkpt>
      <trkpt lat="47.5793" lon="-2.29236">
        <ele>35.5</ele>
        <time>2025-01-16T09:18:33Z</time>
      </trkpt>
      <trkpt lat="47.57931" lon="-2.29235">
        <ele>35.5</ele>
        <time>2025-01-16T09:18:34Z</time>
      </trkpt>
      <trkpt lat="47.57931" lon="-2.29233">
        <ele>35.4</ele>
        <time>2025-01-16T09:18:35Z</time>
      </trkpt>
      <trkpt lat="47.57932" lon="-2.29232">
        <ele>35.4</ele>
        <time>2025-01-16T09:18:36Z</time>
      </trkpt>
      <trkpt lat="47.57932" lon="-2.2923">
        <ele>35.3</ele>
        <time>2025-01-16T09:18:37Z</time>
      </trkpt>
      <trkpt lat="47.57933" lon="-2.29228">
        <ele>35.2</ele>
        <time>2025-01-16T09:18:38Z</time>
      </trkpt>
      <trkpt lat="47.57933" lon="-2.29226">
        <ele>35.1</ele>
        <time>2025-01-16T09:18:39Z</time>
      </trkpt>
      <trkpt lat="47.57933" lon="-2.29225">
        <ele>35.1</ele>
        <time>2025-01-16T09:18:40Z</time>
      </trkpt>
      <trkpt lat="47.57934" lon="-2.29224">
        <ele>35.1</ele>
        <time>2025-01-16T09:18:41Z</time>
      </trkpt>
      <trkpt lat="47.57934" lon="-2.29222">
        <ele>35</ele>
        <time>2025-01-16T09:18:42Z</time>
      </trkpt>
      <trkpt lat="47.57935" lon="-2.2922">
        <ele>34.8</ele>
        <time>2025-01-16T09:18:43Z</time>
      </trkpt>
      <trkpt lat="47.57935" lon="-2.29218">
        <ele>34.7</ele>
        <time>2025-01-16T09:18:44Z</time>
      </trkpt>
      <trkpt lat="47.57936" lon="-2.29217">
        <ele>34.6</ele>
        <time>2025-01-16T09:18:45Z</time>
      </trkpt>
      <trkpt lat="47.57936" lon="-2.29215">
        <ele>34.5</ele>
        <time>2025-01-16T09:18:46Z</time>
      </trkpt>
      <trkpt lat="47.57937" lon="-2.29214">
        <ele>34.4</ele>
        <time>2025-01-16T09:18:47Z</time>
      </trkpt>
      <trkpt lat="47.57937" lon="-2.29212">
        <ele>34.3</ele>
        <time>2025-01-16T09:18:48Z</time>
      </trkpt>
      <trkpt lat="47.57938" lon="-2.29211">
        <ele>34.2</ele>
        <time>2025-01-16T09:18:49Z</time>
      </trkpt>
      <trkpt lat="47.57938" lon="-2.29209">
        <ele>34</ele>
        <time>2025-01-16T09:18:50Z</time>
      </trkpt>
      <trkpt lat="47.57939" lon="-2.29207">
        <ele>33.9</ele>
        <time>2025-01-16T09:18:51Z</time>
      </trkpt>
      <trkpt lat="47.57939" lon="-2.29206">
        <ele>33.8</ele>
        <time>2025-01-16T09:18:52Z</time>
      </trkpt>
      <trkpt lat="47.5794" lon="-2.29205">
        <ele>33.8</ele>
        <time>2025-01-16T09:18:53Z</time>
      </trkpt>
      <trkpt lat="47.5794" lon="-2.29203">
        <ele>33.6</ele>
        <time>2025-01-16T09:18:54Z</time>
      </trkpt>
      <trkpt lat="47.57941" lon="-2.29202">
        <ele>33.5</ele>
        <time>2025-01-16T09:18:55Z</time>
      </trkpt>
      <trkpt lat="47.57941" lon="-2.292">
        <ele>33.4</ele>
        <time>2025-01-16T09:18:56Z</time>
      </trkpt>
      <trkpt lat="47.57942" lon="-2.29198">
        <ele>33.3</ele>
        <time>2025-01-16T09:18:57Z</time>
      </trkpt>
      <trkpt lat="47.57942" lon="-2.29197">
        <ele>33.2</ele>
        <time>2025-01-16T09:18:58Z</time>
      </trkpt>
      <trkpt lat="47.57943" lon="-2.29195">
        <ele>33</ele>
        <time>2025-01-16T09:18:59Z</time>
      </trkpt>
      <trkpt lat="47.57944" lon="-2.29194">
        <ele>33</ele>
        <time>2025-01-16T09:19:00Z</time>
      </trkpt>
      <trkpt lat="47.57944" lon="-2.29192">
        <ele>33</ele>
        <time>2025-01-16T09:19:01Z</time>
      </trkpt>
      <trkpt lat="47.57945" lon="-2.2919">
        <ele>33</ele>
        <time>2025-01-16T09:19:02Z</time>
      </trkpt>
      <trkpt lat="47.57946" lon="-2.29188">
        <ele>33</ele>
        <time>2025-01-16T09:19:03Z</time>
      </trkpt>
      <trkpt lat="47.57946" lon="-2.29187">
        <ele>33</ele>
        <time>2025-01-16T09:19:04Z</time>
      </trkpt>
      <trkpt lat="47.57947" lon="-2.29185">
        <ele>33.1</ele>
        <time>2025-01-16T09:19:05Z</time>
      </trkpt>
      <trkpt lat="47.57947" lon="-2.29184">
        <ele>33.1</ele>
        <time>2025-01-16T09:19:06Z</time>
      </trkpt>
      <trkpt lat="47.57948" lon="-2.29182">
        <ele>33.1</ele>
        <time>2025-01-16T09:19:07Z</time>
      </trkpt>
      <trkpt lat="47.57948" lon="-2.29181">
        <ele>33.1</ele>
        <time>2025-01-16T09:19:08Z</time>
      </trkpt>
      <trkpt lat="47.57949" lon="-2.29179">
        <ele>33.1</ele>
        <time>2025-01-16T09:19:09Z</time>
      </trkpt>
      <trkpt lat="47.57949" lon="-2.29178">
        <ele>33.1</ele>
        <time>2025-01-16T09:19:10Z</time>
      </trkpt>
      <trkpt lat="47.5795" lon="-2.29176">
        <ele>33.1</ele>
        <time>2025-01-16T09:19:11Z</time>
      </trkpt>
      <trkpt lat="47.5795" lon="-2.29175">
        <ele>33.1</ele>
        <time>2025-01-16T09:19:12Z</time>
      </trkpt>
      <trkpt lat="47.57951" lon="-2.29173">
        <ele>33.1</ele>
        <time>2025-01-16T09:19:13Z</time>
      </trkpt>
      <trkpt lat="47.57952" lon="-2.29171">
        <ele>33</ele>
        <time>2025-01-16T09:19:14Z</time>
      </trkpt>
      <trkpt lat="47.57952" lon="-2.2917">
        <ele>33</ele>
        <time>2025-01-16T09:19:15Z</time>
      </trkpt>
      <trkpt lat="47.57952" lon="-2.29168">
        <ele>33</ele>
        <time>2025-01-16T09:19:16Z</time>
      </trkpt>
      <trkpt lat="47.57953" lon="-2.29167">
        <ele>33</ele>
        <time>2025-01-16T09:19:17Z</time>
      </trkpt>
      <trkpt lat="47.57953" lon="-2.29166">
        <ele>33</ele>
        <time>2025-01-16T09:19:18Z</time>
      </trkpt>
      <trkpt lat="47.57954" lon="-2.29164">
        <ele>32.8</ele>
        <time>2025-01-16T09:19:19Z</time>
      </trkpt>
      <trkpt lat="47.57954" lon="-2.29163">
        <ele>32.8</ele>
        <time>2025-01-16T09:19:20Z</time>
      </trkpt>
      <trkpt lat="47.57955" lon="-2.29162">
        <ele>32.7</ele>
        <time>2025-01-16T09:19:21Z</time>
      </trkpt>
      <trkpt lat="47.57955" lon="-2.2916">
        <ele>32.6</ele>
        <time>2025-01-16T09:19:22Z</time>
      </trkpt>
      <trkpt lat="47.57956" lon="-2.29159">
        <ele>32.6</ele>
        <time>2025-01-16T09:19:23Z</time>
      </trkpt>
      <trkpt lat="47.57956" lon="-2.29157">
        <ele>32.4</ele>
        <time>2025-01-16T09:19:24Z</time>
      </trkpt>
      <trkpt lat="47.57957" lon="-2.29156">
        <ele>32.4</ele>
        <time>2025-01-16T09:19:25Z</time>
      </trkpt>
      <trkpt lat="47.57957" lon="-2.29154">
        <ele>32.3</ele>
        <time>2025-01-16T09:19:26Z</time>
      </trkpt>
      <trkpt lat="47.57958" lon="-2.29153">
        <ele>32.3</ele>
        <time>2025-01-16T09:19:27Z</time>
      </trkpt>
      <trkpt lat="47.57958" lon="-2.29151">
        <ele>32.1</ele>
        <time>2025-01-16T09:19:28Z</time>
      </trkpt>
      <trkpt lat="47.57959" lon="-2.29149">
        <ele>32.1</ele>
        <time>2025-01-16T09:19:29Z</time>
      </trkpt>
      <trkpt lat="47.57959" lon="-2.29147">
        <ele>32</ele>
        <time>2025-01-16T09:19:30Z</time>
      </trkpt>
      <trkpt lat="47.5796" lon="-2.29145">
        <ele>31.9</ele>
        <time>2025-01-16T09:19:31Z</time>
      </trkpt>
      <trkpt lat="47.5796" lon="-2.29144">
        <ele>31.8</ele>
        <time>2025-01-16T09:19:32Z</time>
      </trkpt>
      <trkpt lat="47.57961" lon="-2.29142">
        <ele>31.8</ele>
        <time>2025-01-16T09:19:33Z</time>
      </trkpt>
      <trkpt lat="47.57961" lon="-2.2914">
        <ele>31.7</ele>
        <time>2025-01-16T09:19:34Z</time>
      </trkpt>
      <trkpt lat="47.57962" lon="-2.29138">
        <ele>31.6</ele>
        <time>2025-01-16T09:19:35Z</time>
      </trkpt>
      <trkpt lat="47.57962" lon="-2.29136">
        <ele>31.6</ele>
        <time>2025-01-16T09:19:36Z</time>
      </trkpt>
      <trkpt lat="47.57963" lon="-2.29135">
        <ele>31.6</ele>
        <time>2025-01-16T09:19:37Z</time>
      </trkpt>
      <trkpt lat="47.57963" lon="-2.29133">
        <ele>31.5</ele>
        <time>2025-01-16T09:19:38Z</time>
      </trkpt>
      <trkpt lat="47.57964" lon="-2.29131">
        <ele>31.5</ele>
        <time>2025-01-16T09:19:39Z</time>
      </trkpt>
      <trkpt lat="47.57964" lon="-2.29129">
        <ele>31.5</ele>
        <time>2025-01-16T09:19:40Z</time>
      </trkpt>
      <trkpt lat="47.57965" lon="-2.29128">
        <ele>31.4</ele>
        <time>2025-01-16T09:19:41Z</time>
      </trkpt>
      <trkpt lat="47.57965" lon="-2.29126">
        <ele>31.4</ele>
        <time>2025-01-16T09:19:42Z</time>
      </trkpt>
      <trkpt lat="47.57966" lon="-2.29124">
        <ele>31.4</ele>
        <time>2025-01-16T09:19:43Z</time>
      </trkpt>
      <trkpt lat="47.57966" lon="-2.29123">
        <ele>31.3</ele>
        <time>2025-01-16T09:19:44Z</time>
      </trkpt>
      <trkpt lat="47.57967" lon="-2.29121">
        <ele>31.3</ele>
        <time>2025-01-16T09:19:45Z</time>
      </trkpt>
      <trkpt lat="47.57968" lon="-2.2912">
        <ele>31.3</ele>
        <time>2025-01-16T09:19:46Z</time>
      </trkpt>
      <trkpt lat="47.57968" lon="-2.29118">
        <ele>31.2</ele>
        <time>2025-01-16T09:19:47Z</time>
      </trkpt>
      <trkpt lat="47.57969" lon="-2.29117">
        <ele>31.2</ele>
        <time>2025-01-16T09:19:48Z</time>
      </trkpt>
      <trkpt lat="47.5797" lon="-2.29115">
        <ele>31.1</ele>
        <time>2025-01-16T09:19:49Z</time>
      </trkpt>
      <trkpt lat="47.5797" lon="-2.29113">
        <ele>31.1</ele>
        <time>2025-01-16T09:19:50Z</time>
      </trkpt>
      <trkpt lat="47.57971" lon="-2.29111">
        <ele>31</ele>
        <time>2025-01-16T09:19:51Z</time>
      </trkpt>
      <trkpt lat="47.57971" lon="-2.2911">
        <ele>31</ele>
        <time>2025-01-16T09:19:52Z</time>
      </trkpt>
      <trkpt lat="47.57972" lon="-2.29108">
        <ele>30.9</ele>
        <time>2025-01-16T09:19:53Z</time>
      </trkpt>
      <trkpt lat="47.57972" lon="-2.29107">
        <ele>30.9</ele>
        <time>2025-01-16T09:19:54Z</time>
      </trkpt>
      <trkpt lat="47.57973" lon="-2.29105">
        <ele>30.8</ele>
        <time>2025-01-16T09:19:55Z</time>
      </trkpt>
      <trkpt lat="47.57974" lon="-2.29104">
        <ele>30.7</ele>
        <time>2025-01-16T09:19:56Z</time>
      </trkpt>
      <trkpt lat="47.57974" lon="-2.29102">
        <ele>30.7</ele>
        <time>2025-01-16T09:19:57Z</time>
      </trkpt>
      <trkpt lat="47.57975" lon="-2.291">
        <ele>30.6</ele>
        <time>2025-01-16T09:19:58Z</time>
      </trkpt>
      <trkpt lat="47.57975" lon="-2.29099">
        <ele>30.5</ele>
        <time>2025-01-16T09:19:59Z</time>
      </trkpt>
      <trkpt lat="47.57975" lon="-2.29097">
        <ele>30.4</ele>
        <time>2025-01-16T09:20:00Z</time>
      </trkpt>
      <trkpt lat="47.57976" lon="-2.29095">
        <ele>30.3</ele>
        <time>2025-01-16T09:20:01Z</time>
      </trkpt>
      <trkpt lat="47.57976" lon="-2.29094">
        <ele>30.3</ele>
        <time>2025-01-16T09:20:02Z</time>
      </trkpt>
      <trkpt lat="47.57977" lon="-2.29093">
        <ele>30.2</ele>
        <time>2025-01-16T09:20:03Z</time>
      </trkpt>
      <trkpt lat="47.57977" lon="-2.29091">
        <ele>30.2</ele>
        <time>2025-01-16T09:20:04Z</time>
      </trkpt>
      <trkpt lat="47.57978" lon="-2.29089">
        <ele>30</ele>
        <time>2025-01-16T09:20:05Z</time>
      </trkpt>
      <trkpt lat="47.57978" lon="-2.29088">
        <ele>30</ele>
        <time>2025-01-16T09:20:06Z</time>
      </trkpt>
      <trkpt lat="47.57978" lon="-2.29086">
        <ele>29.9</ele>
        <time>2025-01-16T09:20:07Z</time>
      </trkpt>
      <trkpt lat="47.57979" lon="-2.29084">
        <ele>29.8</ele>
        <time>2025-01-16T09:20:08Z</time>
      </trkpt>
      <trkpt lat="47.57979" lon="-2.29083">
        <ele>29.7</ele>
        <time>2025-01-16T09:20:09Z</time>
      </trkpt>
      <trkpt lat="47.57979" lon="-2.29082">
        <ele>29.7</ele>
        <time>2025-01-16T09:20:10Z</time>
      </trkpt>
      <trkpt lat="47.5798" lon="-2.2908">
        <ele>29.6</ele>
        <time>2025-01-16T09:20:11Z</time>
      </trkpt>
      <trkpt lat="47.5798" lon="-2.29079">
        <ele>29.6</ele>
        <time>2025-01-16T09:20:12Z</time>
      </trkpt>
      <trkpt lat="47.57981" lon="-2.29077">
        <ele>29.5</ele>
        <time>2025-01-16T09:20:13Z</time>
      </trkpt>
      <trkpt lat="47.57981" lon="-2.29075">
        <ele>29.4</ele>
        <time>2025-01-16T09:20:14Z</time>
      </trkpt>
      <trkpt lat="47.57982" lon="-2.29074">
        <ele>29.3</ele>
        <time>2025-01-16T09:20:15Z</time>
      </trkpt>
      <trkpt lat="47.57982" lon="-2.29072">
        <ele>29.2</ele>
        <time>2025-01-16T09:20:16Z</time>
      </trkpt>
      <trkpt lat="47.57983" lon="-2.29071">
        <ele>29.2</ele>
        <time>2025-01-16T09:20:17Z</time>
      </trkpt>
      <trkpt lat="47.57983" lon="-2.29069">
        <ele>29.1</ele>
        <time>2025-01-16T09:20:18Z</time>
      </trkpt>
      <trkpt lat="47.57984" lon="-2.29067">
        <ele>29</ele>
        <time>2025-01-16T09:20:19Z</time>
      </trkpt>
      <trkpt lat="47.57984" lon="-2.29066">
        <ele>29</ele>
        <time>2025-01-16T09:20:20Z</time>
      </trkpt>
      <trkpt lat="47.57985" lon="-2.29064">
        <ele>28.8</ele>
        <time>2025-01-16T09:20:21Z</time>
      </trkpt>
      <trkpt lat="47.57985" lon="-2.29063">
        <ele>28.8</ele>
        <time>2025-01-16T09:20:22Z</time>
      </trkpt>
      <trkpt lat="47.57986" lon="-2.29061">
        <ele>28.7</ele>
        <time>2025-01-16T09:20:23Z</time>
      </trkpt>
      <trkpt lat="47.57987" lon="-2.2906">
        <ele>28.6</ele>
        <time>2025-01-16T09:20:24Z</time>
      </trkpt>
      <trkpt lat="47.57987" lon="-2.29058">
        <ele>28.6</ele>
        <time>2025-01-16T09:20:25Z</time>
      </trkpt>
      <trkpt lat="47.57988" lon="-2.29057">
        <ele>28.5</ele>
        <time>2025-01-16T09:20:26Z</time>
      </trkpt>
      <trkpt lat="47.57988" lon="-2.29056">
        <ele>28.4</ele>
        <time>2025-01-16T09:20:27Z</time>
      </trkpt>
      <trkpt lat="47.57989" lon="-2.29054">
        <ele>28.3</ele>
        <time>2025-01-16T09:20:28Z</time>
      </trkpt>
      <trkpt lat="47.57989" lon="-2.29052">
        <ele>28.3</ele>
        <time>2025-01-16T09:20:29Z</time>
      </trkpt>
      <trkpt lat="47.5799" lon="-2.29051">
        <ele>28.2</ele>
        <time>2025-01-16T09:20:30Z</time>
      </trkpt>
      <trkpt lat="47.5799" lon="-2.29049">
        <ele>28.1</ele>
        <time>2025-01-16T09:20:31Z</time>
      </trkpt>
      <trkpt lat="47.57991" lon="-2.29048">
        <ele>28.1</ele>
        <time>2025-01-16T09:20:32Z</time>
      </trkpt>
      <trkpt lat="47.57991" lon="-2.29046">
        <ele>28</ele>
        <time>2025-01-16T09:20:33Z</time>
      </trkpt>
      <trkpt lat="47.57992" lon="-2.29044">
        <ele>27.9</ele>
        <time>2025-01-16T09:20:34Z</time>
      </trkpt>
      <trkpt lat="47.57992" lon="-2.29042">
        <ele>27.8</ele>
        <time>2025-01-16T09:20:35Z</time>
      </trkpt>
      <trkpt lat="47.57992" lon="-2.29041">
        <ele>27.8</ele>
        <time>2025-01-16T09:20:36Z</time>
      </trkpt>
      <trkpt lat="47.57993" lon="-2.29039">
        <ele>27.7</ele>
        <time>2025-01-16T09:20:37Z</time>
      </trkpt>
      <trkpt lat="47.57993" lon="-2.29038">
        <ele>27.6</ele>
        <time>2025-01-16T09:20:38Z</time>
      </trkpt>
      <trkpt lat="47.57993" lon="-2.29037">
        <ele>27.6</ele>
        <time>2025-01-16T09:20:39Z</time>
      </trkpt>
      <trkpt lat="47.57993" lon="-2.29036">
        <ele>27.5</ele>
        <time>2025-01-16T09:20:40Z</time>
      </trkpt>
      <trkpt lat="47.57993" lon="-2.29034">
        <ele>27.5</ele>
        <time>2025-01-16T09:20:41Z</time>
      </trkpt>
      <trkpt lat="47.57993" lon="-2.29033">
        <ele>27.4</ele>
        <time>2025-01-16T09:20:42Z</time>
      </trkpt>
      <trkpt lat="47.57993" lon="-2.29031">
        <ele>27.4</ele>
        <time>2025-01-16T09:20:43Z</time>
      </trkpt>
      <trkpt lat="47.57993" lon="-2.29029">
        <ele>27.3</ele>
        <time>2025-01-16T09:20:44Z</time>
      </trkpt>
      <trkpt lat="47.57993" lon="-2.29028">
        <ele>27.3</ele>
        <time>2025-01-16T09:20:45Z</time>
      </trkpt>
      <trkpt lat="47.57993" lon="-2.29026">
        <ele>26.9</ele>
        <time>2025-01-16T09:20:46Z</time>
      </trkpt>
      <trkpt lat="47.57992" lon="-2.29025">
        <ele>26.8</ele>
        <time>2025-01-16T09:20:47Z</time>
      </trkpt>
      <trkpt lat="47.57992" lon="-2.29023">
        <ele>26.4</ele>
        <time>2025-01-16T09:20:48Z</time>
      </trkpt>
      <trkpt lat="47.57991" lon="-2.29022">
        <ele>26.3</ele>
        <time>2025-01-16T09:20:49Z</time>
      </trkpt>
      <trkpt lat="47.5799" lon="-2.29021">
        <ele>26.2</ele>
        <time>2025-01-16T09:20:50Z</time>
      </trkpt>
      <trkpt lat="47.57989" lon="-2.2902">
        <ele>26.1</ele>
        <time>2025-01-16T09:20:51Z</time>
      </trkpt>
      <trkpt lat="47.57988" lon="-2.29019">
        <ele>26</ele>
        <time>2025-01-16T09:20:52Z</time>
      </trkpt>
      <trkpt lat="47.57988" lon="-2.29018">
        <ele>25.9</ele>
        <time>2025-01-16T09:20:53Z</time>
      </trkpt>
      <trkpt lat="47.57987" lon="-2.29017">
        <ele>25.8</ele>
        <time>2025-01-16T09:20:54Z</time>
      </trkpt>
      <trkpt lat="47.57987" lon="-2.29016">
        <ele>25.7</ele>
        <time>2025-01-16T09:20:55Z</time>
      </trkpt>
      <trkpt lat="47.57986" lon="-2.29015">
        <ele>25.7</ele>
        <time>2025-01-16T09:20:56Z</time>
      </trkpt>
      <trkpt lat="47.57985" lon="-2.29015">
        <ele>25.8</ele>
        <time>2025-01-16T09:20:57Z</time>
      </trkpt>
      <trkpt lat="47.57984" lon="-2.29015">
        <ele>25.9</ele>
        <time>2025-01-16T09:20:58Z</time>
      </trkpt>
      <trkpt lat="47.57983" lon="-2.29014">
        <ele>26</ele>
        <time>2025-01-16T09:20:59Z</time>
      </trkpt>
      <trkpt lat="47.57982" lon="-2.29013">
        <ele>26</ele>
        <time>2025-01-16T09:21:00Z</time>
      </trkpt>
      <trkpt lat="47.5798" lon="-2.29013">
        <ele>26.3</ele>
        <time>2025-01-16T09:21:01Z</time>
      </trkpt>
      <trkpt lat="47.57979" lon="-2.29013">
        <ele>26.4</ele>
        <time>2025-01-16T09:21:02Z</time>
      </trkpt>
      <trkpt lat="47.57978" lon="-2.29013">
        <ele>26.6</ele>
        <time>2025-01-16T09:21:03Z</time>
      </trkpt>
      <trkpt lat="47.57977" lon="-2.29012">
        <ele>26.7</ele>
        <time>2025-01-16T09:21:04Z</time>
      </trkpt>
      <trkpt lat="47.57976" lon="-2.29012">
        <ele>26.8</ele>
        <time>2025-01-16T09:21:05Z</time>
      </trkpt>
      <trkpt lat="47.57974" lon="-2.29012">
        <ele>27.1</ele>
        <time>2025-01-16T09:21:06Z</time>
      </trkpt>
      <trkpt lat="47.57973" lon="-2.29011">
        <ele>27.3</ele>
        <time>2025-01-16T09:21:07Z</time>
      </trkpt>
      <trkpt lat="47.57972" lon="-2.2901">
        <ele>27.4</ele>
        <time>2025-01-16T09:21:08Z</time>
      </trkpt>
      <trkpt lat="47.57971" lon="-2.2901">
        <ele>27.4</ele>
        <time>2025-01-16T09:21:09Z</time>
      </trkpt>
      <trkpt lat="47.5797" lon="-2.29009">
        <ele>27.3</ele>
        <time>2025-01-16T09:21:10Z</time>
      </trkpt>
      <trkpt lat="47.57969" lon="-2.29009">
        <ele>27.3</ele>
        <time>2025-01-16T09:21:11Z</time>
      </trkpt>
      <trkpt lat="47.57967" lon="-2.29008">
        <ele>27.3</ele>
        <time>2025-01-16T09:21:12Z</time>
      </trkpt>
      <trkpt lat="47.57966" lon="-2.29007">
        <ele>27.3</ele>
        <time>2025-01-16T09:21:13Z</time>
      </trkpt>
      <trkpt lat="47.57965" lon="-2.29007">
        <ele>27.3</ele>
        <time>2025-01-16T09:21:14Z</time>
      </trkpt>
      <trkpt lat="47.57964" lon="-2.29007">
        <ele>27.3</ele>
        <time>2025-01-16T09:21:15Z</time>
      </trkpt>
      <trkpt lat="47.57963" lon="-2.29006">
        <ele>27.2</ele>
        <time>2025-01-16T09:21:16Z</time>
      </trkpt>
      <trkpt lat="47.57961" lon="-2.29006">
        <ele>27.2</ele>
        <time>2025-01-16T09:21:17Z</time>
      </trkpt>
      <trkpt lat="47.5796" lon="-2.29006">
        <ele>27.2</ele>
        <time>2025-01-16T09:21:18Z</time>
      </trkpt>
      <trkpt lat="47.57959" lon="-2.29005">
        <ele>27.2</ele>
        <time>2025-01-16T09:21:19Z</time>
      </trkpt>
      <trkpt lat="47.57958" lon="-2.29005">
        <ele>27.2</ele>
        <time>2025-01-16T09:21:20Z</time>
      </trkpt>
      <trkpt lat="47.57956" lon="-2.29004">
        <ele>27.1</ele>
        <time>2025-01-16T09:21:21Z</time>
      </trkpt>
      <trkpt lat="47.57955" lon="-2.29004">
        <ele>27.1</ele>
        <time>2025-01-16T09:21:22Z</time>
      </trkpt>
      <trkpt lat="47.57954" lon="-2.29003">
        <ele>27.1</ele>
        <time>2025-01-16T09:21:23Z</time>
      </trkpt>
      <trkpt lat="47.57953" lon="-2.29003">
        <ele>27.1</ele>
        <time>2025-01-16T09:21:24Z</time>
      </trkpt>
      <trkpt lat="47.57952" lon="-2.29002">
        <ele>27.1</ele>
        <time>2025-01-16T09:21:25Z</time>
      </trkpt>
      <trkpt lat="47.57951" lon="-2.29001">
        <ele>27</ele>
        <time>2025-01-16T09:21:26Z</time>
      </trkpt>
      <trkpt lat="47.5795" lon="-2.29001">
        <ele>27</ele>
        <time>2025-01-16T09:21:27Z</time>
      </trkpt>
      <trkpt lat="47.57948" lon="-2.29">
        <ele>27</ele>
        <time>2025-01-16T09:21:28Z</time>
      </trkpt>
      <trkpt lat="47.57947" lon="-2.29">
        <ele>27</ele>
        <time>2025-01-16T09:21:29Z</time>
      </trkpt>
      <trkpt lat="47.57946" lon="-2.29">
        <ele>27</ele>
        <time>2025-01-16T09:21:30Z</time>
      </trkpt>
      <trkpt lat="47.57945" lon="-2.28999">
        <ele>26.8</ele>
        <time>2025-01-16T09:21:31Z</time>
      </trkpt>
      <trkpt lat="47.57944" lon="-2.28999">
        <ele>26.8</ele>
        <time>2025-01-16T09:21:32Z</time>
      </trkpt>
      <trkpt lat="47.57942" lon="-2.28999">
        <ele>26.7</ele>
        <time>2025-01-16T09:21:33Z</time>
      </trkpt>
      <trkpt lat="47.57941" lon="-2.28998">
        <ele>26.5</ele>
        <time>2025-01-16T09:21:34Z</time>
      </trkpt>
      <trkpt lat="47.57941" lon="-2.28997">
        <ele>26.3</ele>
        <time>2025-01-16T09:21:35Z</time>
      </trkpt>
      <trkpt lat="47.5794" lon="-2.28997">
        <ele>26.2</ele>
        <time>2025-01-16T09:21:36Z</time>
      </trkpt>
      <trkpt lat="47.57939" lon="-2.28996">
        <ele>26</ele>
        <time>2025-01-16T09:21:37Z</time>
      </trkpt>
      <trkpt lat="47.57937" lon="-2.28995">
        <ele>25.8</ele>
        <time>2025-01-16T09:21:38Z</time>
      </trkpt>
      <trkpt lat="47.57936" lon="-2.28995">
        <ele>25.8</ele>
        <time>2025-01-16T09:21:39Z</time>
      </trkpt>
      <trkpt lat="47.57935" lon="-2.28995">
        <ele>25.8</ele>
        <time>2025-01-16T09:21:40Z</time>
      </trkpt>
      <trkpt lat="47.57934" lon="-2.28995">
        <ele>25.7</ele>
        <time>2025-01-16T09:21:41Z</time>
      </trkpt>
      <trkpt lat="47.57933" lon="-2.28995">
        <ele>25.7</ele>
        <time>2025-01-16T09:21:42Z</time>
      </trkpt>
      <trkpt lat="47.57932" lon="-2.28994">
        <ele>25.5</ele>
        <time>2025-01-16T09:21:43Z</time>
      </trkpt>
      <trkpt lat="47.57932" lon="-2.28994">
        <ele>25.5</ele>
        <time>2025-01-16T09:21:44Z</time>
      </trkpt>
      <trkpt lat="47.5793" lon="-2.28993">
        <ele>25.4</ele>
        <time>2025-01-16T09:21:45Z</time>
      </trkpt>
      <trkpt lat="47.57929" lon="-2.28993">
        <ele>25.4</ele>
        <time>2025-01-16T09:21:46Z</time>
      </trkpt>
      <trkpt lat="47.57928" lon="-2.28993">
        <ele>25.3</ele>
        <time>2025-01-16T09:21:47Z</time>
      </trkpt>
      <trkpt lat="47.57927" lon="-2.28993">
        <ele>25.3</ele>
        <time>2025-01-16T09:21:48Z</time>
      </trkpt>
      <trkpt lat="47.57926" lon="-2.28993">
        <ele>25.3</ele>
        <time>2025-01-16T09:21:49Z</time>
      </trkpt>
      <trkpt lat="47.57924" lon="-2.28993">
        <ele>25.3</ele>
        <time>2025-01-16T09:21:50Z</time>
      </trkpt>
      <trkpt lat="47.57923" lon="-2.28992">
        <ele>25.2</ele>
        <time>2025-01-16T09:21:51Z</time>
      </trkpt>
      <trkpt lat="47.57922" lon="-2.28992">
        <ele>25.2</ele>
        <time>2025-01-16T09:21:52Z</time>
      </trkpt>
      <trkpt lat="47.57921" lon="-2.28992">
        <ele>25.2</ele>
        <time>2025-01-16T09:21:53Z</time>
      </trkpt>
      <trkpt lat="47.57919" lon="-2.28992">
        <ele>25.1</ele>
        <time>2025-01-16T09:21:54Z</time>
      </trkpt>
      <trkpt lat="47.57918" lon="-2.28991">
        <ele>25</ele>
        <time>2025-01-16T09:21:55Z</time>
      </trkpt>
      <trkpt lat="47.57917" lon="-2.2899">
        <ele>24.9</ele>
        <time>2025-01-16T09:21:56Z</time>
      </trkpt>
      <trkpt lat="47.57916" lon="-2.2899">
        <ele>24.9</ele>
        <time>2025-01-16T09:21:57Z</time>
      </trkpt>
      <trkpt lat="47.57914" lon="-2.28989">
        <ele>24.9</ele>
        <time>2025-01-16T09:21:58Z</time>
      </trkpt>
      <trkpt lat="47.57913" lon="-2.28988">
        <ele>24.9</ele>
        <time>2025-01-16T09:21:59Z</time>
      </trkpt>
      <trkpt lat="47.57912" lon="-2.28987">
        <ele>24.8</ele>
        <time>2025-01-16T09:22:00Z</time>
      </trkpt>
      <trkpt lat="47.57911" lon="-2.28987">
        <ele>24.9</ele>
        <time>2025-01-16T09:22:01Z</time>
      </trkpt>
      <trkpt lat="47.5791" lon="-2.28986">
        <ele>24.9</ele>
        <time>2025-01-16T09:22:02Z</time>
      </trkpt>
      <trkpt lat="47.57909" lon="-2.28985">
        <ele>24.8</ele>
        <time>2025-01-16T09:22:03Z</time>
      </trkpt>
      <trkpt lat="47.57907" lon="-2.28984">
        <ele>24.9</ele>
        <time>2025-01-16T09:22:04Z</time>
      </trkpt>
      <trkpt lat="47.57906" lon="-2.28984">
        <ele>24.9</ele>
        <time>2025-01-16T09:22:05Z</time>
      </trkpt>
      <trkpt lat="47.57905" lon="-2.28983">
        <ele>24.9</ele>
        <time>2025-01-16T09:22:06Z</time>
      </trkpt>
      <trkpt lat="47.57903" lon="-2.28982">
        <ele>25</ele>
        <time>2025-01-16T09:22:07Z</time>
      </trkpt>
      <trkpt lat="47.57902" lon="-2.28981">
        <ele>25</ele>
        <time>2025-01-16T09:22:08Z</time>
      </trkpt>
      <trkpt lat="47.57901" lon="-2.28981">
        <ele>25.1</ele>
        <time>2025-01-16T09:22:09Z</time>
      </trkpt>
      <trkpt lat="47.579" lon="-2.2898">
        <ele>25.1</ele>
        <time>2025-01-16T09:22:10Z</time>
      </trkpt>
      <trkpt lat="47.57899" lon="-2.28979">
        <ele>25.2</ele>
        <time>2025-01-16T09:22:11Z</time>
      </trkpt>
      <trkpt lat="47.57898" lon="-2.28978">
        <ele>25.2</ele>
        <time>2025-01-16T09:22:12Z</time>
      </trkpt>
      <trkpt lat="47.57897" lon="-2.28978">
        <ele>25.3</ele>
        <time>2025-01-16T09:22:13Z</time>
      </trkpt>
      <trkpt lat="47.57897" lon="-2.28977">
        <ele>25.3</ele>
        <time>2025-01-16T09:22:14Z</time>
      </trkpt>
      <trkpt lat="47.57896" lon="-2.28976">
        <ele>25.3</ele>
        <time>2025-01-16T09:22:15Z</time>
      </trkpt>
      <trkpt lat="47.57895" lon="-2.28975">
        <ele>25.4</ele>
        <time>2025-01-16T09:22:16Z</time>
      </trkpt>
      <trkpt lat="47.57894" lon="-2.28975">
        <ele>25.5</ele>
        <time>2025-01-16T09:22:17Z</time>
      </trkpt>
      <trkpt lat="47.57892" lon="-2.28974">
        <ele>25.7</ele>
        <time>2025-01-16T09:22:18Z</time>
      </trkpt>
      <trkpt lat="47.57891" lon="-2.28974">
        <ele>25.8</ele>
        <time>2025-01-16T09:22:19Z</time>
      </trkpt>
      <trkpt lat="47.5789" lon="-2.28974">
        <ele>25.9</ele>
        <time>2025-01-16T09:22:20Z</time>
      </trkpt>
      <trkpt lat="47.57889" lon="-2.28974">
        <ele>26</ele>
        <time>2025-01-16T09:22:21Z</time>
      </trkpt>
      <trkpt lat="47.57888" lon="-2.28974">
        <ele>26</ele>
        <time>2025-01-16T09:22:22Z</time>
      </trkpt>
      <trkpt lat="47.57888" lon="-2.28975">
        <ele>26</ele>
        <time>2025-01-16T09:22:23Z</time>
      </trkpt>
      <trkpt lat="47.57887" lon="-2.28976">
        <ele>25.9</ele>
        <time>2025-01-16T09:22:24Z</time>
      </trkpt>
      <trkpt lat="47.57886" lon="-2.28977">
        <ele>25.9</ele>
        <time>2025-01-16T09:22:25Z</time>
      </trkpt>
      <trkpt lat="47.57885" lon="-2.28978">
        <ele>25.9</ele>
        <time>2025-01-16T09:22:26Z</time>
      </trkpt>
      <trkpt lat="47.57884" lon="-2.28979">
        <ele>25.8</ele>
        <time>2025-01-16T09:22:27Z</time>
      </trkpt>
      <trkpt lat="47.57883" lon="-2.2898">
        <ele>25.8</ele>
        <time>2025-01-16T09:22:28Z</time>
      </trkpt>
      <trkpt lat="47.57883" lon="-2.28981">
        <ele>25.8</ele>
        <time>2025-01-16T09:22:29Z</time>
      </trkpt>
      <trkpt lat="47.57882" lon="-2.28982">
        <ele>25.8</ele>
        <time>2025-01-16T09:22:30Z</time>
      </trkpt>
      <trkpt lat="47.57882" lon="-2.28984">
        <ele>25.8</ele>
        <time>2025-01-16T09:22:31Z</time>
      </trkpt>
      <trkpt lat="47.57881" lon="-2.28985">
        <ele>25.7</ele>
        <time>2025-01-16T09:22:32Z</time>
      </trkpt>
      <trkpt lat="47.5788" lon="-2.28986">
        <ele>25.7</ele>
        <time>2025-01-16T09:22:33Z</time>
      </trkpt>
      <trkpt lat="47.57879" lon="-2.28988">
        <ele>25.6</ele>
        <time>2025-01-16T09:22:34Z</time>
      </trkpt>
      <trkpt lat="47.57878" lon="-2.28989">
        <ele>25.6</ele>
        <time>2025-01-16T09:22:35Z</time>
      </trkpt>
      <trkpt lat="47.57877" lon="-2.2899">
        <ele>25.6</ele>
        <time>2025-01-16T09:22:36Z</time>
      </trkpt>
      <trkpt lat="47.57876" lon="-2.28992">
        <ele>25.5</ele>
        <time>2025-01-16T09:22:37Z</time>
      </trkpt>
      <trkpt lat="47.57875" lon="-2.28993">
        <ele>25.5</ele>
        <time>2025-01-16T09:22:38Z</time>
      </trkpt>
      <trkpt lat="47.57875" lon="-2.28994">
        <ele>25.5</ele>
        <time>2025-01-16T09:22:39Z</time>
      </trkpt>
      <trkpt lat="47.57874" lon="-2.28995">
        <ele>25.5</ele>
        <time>2025-01-16T09:22:40Z</time>
      </trkpt>
      <trkpt lat="47.57873" lon="-2.28996">
        <ele>25.4</ele>
        <time>2025-01-16T09:22:41Z</time>
      </trkpt>
      <trkpt lat="47.57872" lon="-2.28997">
        <ele>25.4</ele>
        <time>2025-01-16T09:22:42Z</time>
      </trkpt>
      <trkpt lat="47.57872" lon="-2.28998">
        <ele>25.4</ele>
        <time>2025-01-16T09:22:43Z</time>
      </trkpt>
      <trkpt lat="47.57871" lon="-2.28999">
        <ele>25.4</ele>
        <time>2025-01-16T09:22:44Z</time>
      </trkpt>
      <trkpt lat="47.5787" lon="-2.29">
        <ele>25.3</ele>
        <time>2025-01-16T09:22:45Z</time>
      </trkpt>
      <trkpt lat="47.57869" lon="-2.29001">
        <ele>25.3</ele>
        <time>2025-01-16T09:22:46Z</time>
      </trkpt>
      <trkpt lat="47.57868" lon="-2.29002">
        <ele>25.2</ele>
        <time>2025-01-16T09:22:47Z</time>
      </trkpt>
      <trkpt lat="47.57867" lon="-2.29003">
        <ele>25.1</ele>
        <time>2025-01-16T09:22:48Z</time>
      </trkpt>
      <trkpt lat="47.57866" lon="-2.29004">
        <ele>25.1</ele>
        <time>2025-01-16T09:22:49Z</time>
      </trkpt>
      <trkpt lat="47.57865" lon="-2.29006">
        <ele>25</ele>
        <time>2025-01-16T09:22:50Z</time>
      </trkpt>
      <trkpt lat="47.57864" lon="-2.29007">
        <ele>24.9</ele>
        <time>2025-01-16T09:22:51Z</time>
      </trkpt>
      <trkpt lat="47.57863" lon="-2.29008">
        <ele>24.8</ele>
        <time>2025-01-16T09:22:52Z</time>
      </trkpt>
      <trkpt lat="47.57862" lon="-2.29009">
        <ele>24.7</ele>
        <time>2025-01-16T09:22:53Z</time>
      </trkpt>
      <trkpt lat="47.57861" lon="-2.2901">
        <ele>24.6</ele>
        <time>2025-01-16T09:22:54Z</time>
      </trkpt>
      <trkpt lat="47.5786" lon="-2.2901">
        <ele>24.5</ele>
        <time>2025-01-16T09:22:55Z</time>
      </trkpt>
      <trkpt lat="47.5786" lon="-2.29011">
        <ele>24.4</ele>
        <time>2025-01-16T09:22:56Z</time>
      </trkpt>
      <trkpt lat="47.57859" lon="-2.29012">
        <ele>24.3</ele>
        <time>2025-01-16T09:22:57Z</time>
      </trkpt>
      <trkpt lat="47.57858" lon="-2.29013">
        <ele>24.1</ele>
        <time>2025-01-16T09:22:58Z</time>
      </trkpt>
      <trkpt lat="47.57857" lon="-2.29014">
        <ele>23.9</ele>
        <time>2025-01-16T09:22:59Z</time>
      </trkpt>
      <trkpt lat="47.57856" lon="-2.29014">
        <ele>23.8</ele>
        <time>2025-01-16T09:23:00Z</time>
      </trkpt>
      <trkpt lat="47.57856" lon="-2.29015">
        <ele>23.7</ele>
        <time>2025-01-16T09:23:01Z</time>
      </trkpt>
      <trkpt lat="47.57855" lon="-2.29016">
        <ele>23.5</ele>
        <time>2025-01-16T09:23:02Z</time>
      </trkpt>
      <trkpt lat="47.57854" lon="-2.29018">
        <ele>23.3</ele>
        <time>2025-01-16T09:23:03Z</time>
      </trkpt>
      <trkpt lat="47.57853" lon="-2.29019">
        <ele>23.1</ele>
        <time>2025-01-16T09:23:04Z</time>
      </trkpt>
      <trkpt lat="47.57852" lon="-2.2902">
        <ele>23</ele>
        <time>2025-01-16T09:23:05Z</time>
      </trkpt>
      <trkpt lat="47.57852" lon="-2.29021">
        <ele>22.9</ele>
        <time>2025-01-16T09:23:06Z</time>
      </trkpt>
      <trkpt lat="47.57851" lon="-2.29022">
        <ele>22.8</ele>
        <time>2025-01-16T09:23:07Z</time>
      </trkpt>
      <trkpt lat="47.5785" lon="-2.29023">
        <ele>22.6</ele>
        <time>2025-01-16T09:23:08Z</time>
      </trkpt>
      <trkpt lat="47.57849" lon="-2.29023">
        <ele>22.4</ele>
        <time>2025-01-16T09:23:09Z</time>
      </trkpt>
      <trkpt lat="47.57848" lon="-2.29023">
        <ele>22.3</ele>
        <time>2025-01-16T09:23:10Z</time>
      </trkpt>
      <trkpt lat="47.57847" lon="-2.29024">
        <ele>22.1</ele>
        <time>2025-01-16T09:23:11Z</time>
      </trkpt>
      <trkpt lat="47.57846" lon="-2.29025">
        <ele>21.9</ele>
        <time>2025-01-16T09:23:12Z</time>
      </trkpt>
      <trkpt lat="47.57845" lon="-2.29025">
        <ele>21.8</ele>
        <time>2025-01-16T09:23:13Z</time>
      </trkpt>
      <trkpt lat="47.57844" lon="-2.29026">
        <ele>21.6</ele>
        <time>2025-01-16T09:23:14Z</time>
      </trkpt>
      <trkpt lat="47.57843" lon="-2.29027">
        <ele>21.4</ele>
        <time>2025-01-16T09:23:15Z</time>
      </trkpt>
      <trkpt lat="47.57842" lon="-2.29027">
        <ele>21.3</ele>
        <time>2025-01-16T09:23:16Z</time>
      </trkpt>
      <trkpt lat="47.57841" lon="-2.29027">
        <ele>21.1</ele>
        <time>2025-01-16T09:23:17Z</time>
      </trkpt>
      <trkpt lat="47.57841" lon="-2.29028">
        <ele>21.1</ele>
        <time>2025-01-16T09:23:18Z</time>
      </trkpt>
      <trkpt lat="47.57839" lon="-2.29028">
        <ele>20.8</ele>
        <time>2025-01-16T09:23:19Z</time>
      </trkpt>
      <trkpt lat="47.57838" lon="-2.29028">
        <ele>20.7</ele>
        <time>2025-01-16T09:23:20Z</time>
      </trkpt>
      <trkpt lat="47.57838" lon="-2.29028">
        <ele>20.7</ele>
        <time>2025-01-16T09:23:21Z</time>
      </trkpt>
      <trkpt lat="47.57837" lon="-2.29028">
        <ele>20.5</ele>
        <time>2025-01-16T09:23:22Z</time>
      </trkpt>
      <trkpt lat="47.57836" lon="-2.29027">
        <ele>20.4</ele>
        <time>2025-01-16T09:23:23Z</time>
      </trkpt>
      <trkpt lat="47.57836" lon="-2.29027">
        <ele>20.4</ele>
        <time>2025-01-16T09:23:24Z</time>
      </trkpt>
      <trkpt lat="47.57835" lon="-2.29026">
        <ele>20.3</ele>
        <time>2025-01-16T09:23:25Z</time>
      </trkpt>
      <trkpt lat="47.57835" lon="-2.29025">
        <ele>20.3</ele>
        <time>2025-01-16T09:23:26Z</time>
      </trkpt>
      <trkpt lat="47.57836" lon="-2.29024">
        <ele>20.5</ele>
        <time>2025-01-16T09:23:27Z</time>
      </trkpt>
      <trkpt lat="47.57836" lon="-2.29023">
        <ele>20.6</ele>
        <time>2025-01-16T09:23:28Z</time>
      </trkpt>
      <trkpt lat="47.57836" lon="-2.29022">
        <ele>20.6</ele>
        <time>2025-01-16T09:23:29Z</time>
      </trkpt>
      <trkpt lat="47.57835" lon="-2.2902">
        <ele>20.5</ele>
        <time>2025-01-16T09:23:30Z</time>
      </trkpt>
      <trkpt lat="47.57835" lon="-2.29019">
        <ele>20.6</ele>
        <time>2025-01-16T09:23:31Z</time>
      </trkpt>
      <trkpt lat="47.57834" lon="-2.29018">
        <ele>20.4</ele>
        <time>2025-01-16T09:23:32Z</time>
      </trkpt>
      <trkpt lat="47.57834" lon="-2.29017">
        <ele>20.5</ele>
        <time>2025-01-16T09:23:33Z</time>
      </trkpt>
      <trkpt lat="47.57833" lon="-2.29015">
        <ele>20.4</ele>
        <time>2025-01-16T09:23:34Z</time>
      </trkpt>
      <trkpt lat="47.57832" lon="-2.29014">
        <ele>20.2</ele>
        <time>2025-01-16T09:23:35Z</time>
      </trkpt>
      <trkpt lat="47.57831" lon="-2.29012">
        <ele>20</ele>
        <time>2025-01-16T09:23:36Z</time>
      </trkpt>
      <trkpt lat="47.5783" lon="-2.29011">
        <ele>19.8</ele>
        <time>2025-01-16T09:23:37Z</time>
      </trkpt>
      <trkpt lat="47.57829" lon="-2.29009">
        <ele>19.7</ele>
        <time>2025-01-16T09:23:38Z</time>
      </trkpt>
      <trkpt lat="47.57827" lon="-2.29008">
        <ele>19.3</ele>
        <time>2025-01-16T09:23:39Z</time>
      </trkpt>
      <trkpt lat="47.57827" lon="-2.29007">
        <ele>19.3</ele>
        <time>2025-01-16T09:23:40Z</time>
      </trkpt>
      <trkpt lat="47.57826" lon="-2.29006">
        <ele>19.1</ele>
        <time>2025-01-16T09:23:41Z</time>
      </trkpt>
      <trkpt lat="47.57826" lon="-2.29005">
        <ele>19.2</ele>
        <time>2025-01-16T09:23:42Z</time>
      </trkpt>
      <trkpt lat="47.57825" lon="-2.29003">
        <ele>19.1</ele>
        <time>2025-01-16T09:23:43Z</time>
      </trkpt>
      <trkpt lat="47.57824" lon="-2.29001">
        <ele>18.9</ele>
        <time>2025-01-16T09:23:44Z</time>
      </trkpt>
      <trkpt lat="47.57822" lon="-2.28999">
        <ele>18.6</ele>
        <time>2025-01-16T09:23:45Z</time>
      </trkpt>
      <trkpt lat="47.57821" lon="-2.28998">
        <ele>18.3</ele>
        <time>2025-01-16T09:23:46Z</time>
      </trkpt>
      <trkpt lat="47.5782" lon="-2.28997">
        <ele>18.1</ele>
        <time>2025-01-16T09:23:47Z</time>
      </trkpt>
      <trkpt lat="47.57819" lon="-2.28995">
        <ele>17.9</ele>
        <time>2025-01-16T09:23:48Z</time>
      </trkpt>
      <trkpt lat="47.57817" lon="-2.28993">
        <ele>17.5</ele>
        <time>2025-01-16T09:23:49Z</time>
      </trkpt>
      <trkpt lat="47.57816" lon="-2.28992">
        <ele>17.3</ele>
        <time>2025-01-16T09:23:50Z</time>
      </trkpt>
      <trkpt lat="47.57815" lon="-2.28991">
        <ele>17</ele>
        <time>2025-01-16T09:23:51Z</time>
      </trkpt>
      <trkpt lat="47.57814" lon="-2.28989">
        <ele>16.8</ele>
        <time>2025-01-16T09:23:52Z</time>
      </trkpt>
      <trkpt lat="47.57813" lon="-2.28988">
        <ele>16.6</ele>
        <time>2025-01-16T09:23:53Z</time>
      </trkpt>
      <trkpt lat="47.57812" lon="-2.28986">
        <ele>16.4</ele>
        <time>2025-01-16T09:23:54Z</time>
      </trkpt>
      <trkpt lat="47.57811" lon="-2.28985">
        <ele>16.2</ele>
        <time>2025-01-16T09:23:55Z</time>
      </trkpt>
      <trkpt lat="47.5781" lon="-2.28984">
        <ele>16</ele>
        <time>2025-01-16T09:23:56Z</time>
      </trkpt>
      <trkpt lat="47.57809" lon="-2.28982">
        <ele>15.7</ele>
        <time>2025-01-16T09:23:57Z</time>
      </trkpt>
      <trkpt lat="47.57808" lon="-2.28981">
        <ele>15.5</ele>
        <time>2025-01-16T09:23:58Z</time>
      </trkpt>
      <trkpt lat="47.57807" lon="-2.2898">
        <ele>15.3</ele>
        <time>2025-01-16T09:23:59Z</time>
      </trkpt>
      <trkpt lat="47.57806" lon="-2.28978">
        <ele>15.1</ele>
        <time>2025-01-16T09:24:00Z</time>
      </trkpt>
      <trkpt lat="47.57806" lon="-2.28977">
        <ele>15.1</ele>
        <time>2025-01-16T09:24:01Z</time>
      </trkpt>
      <trkpt lat="47.57805" lon="-2.28975">
        <ele>14.8</ele>
        <time>2025-01-16T09:24:02Z</time>
      </trkpt>
      <trkpt lat="47.57804" lon="-2.28974">
        <ele>14.6</ele>
        <time>2025-01-16T09:24:03Z</time>
      </trkpt>
      <trkpt lat="47.57804" lon="-2.28972">
        <ele>14.6</ele>
        <time>2025-01-16T09:24:04Z</time>
      </trkpt>
      <trkpt lat="47.57803" lon="-2.28971">
        <ele>14.3</ele>
        <time>2025-01-16T09:24:05Z</time>
      </trkpt>
      <trkpt lat="47.57802" lon="-2.2897">
        <ele>14</ele>
        <time>2025-01-16T09:24:06Z</time>
      </trkpt>
      <trkpt lat="47.57802" lon="-2.28968">
        <ele>14.1</ele>
        <time>2025-01-16T09:24:07Z</time>
      </trkpt>
      <trkpt lat="47.57801" lon="-2.28967">
        <ele>13.8</ele>
        <time>2025-01-16T09:24:08Z</time>
      </trkpt>
      <trkpt lat="47.578" lon="-2.28966">
        <ele>13.6</ele>
        <time>2025-01-16T09:24:09Z</time>
      </trkpt>
      <trkpt lat="47.578" lon="-2.28965">
        <ele>13.6</ele>
        <time>2025-01-16T09:24:10Z</time>
      </trkpt>
      <trkpt lat="47.57799" lon="-2.28963">
        <ele>13.4</ele>
        <time>2025-01-16T09:24:11Z</time>
      </trkpt>
      <trkpt lat="47.57799" lon="-2.28962">
        <ele>13.4</ele>
        <time>2025-01-16T09:24:12Z</time>
      </trkpt>
      <trkpt lat="47.57799" lon="-2.2896">
        <ele>13.4</ele>
        <time>2025-01-16T09:24:13Z</time>
      </trkpt>
      <trkpt lat="47.57798" lon="-2.28959">
        <ele>13.2</ele>
        <time>2025-01-16T09:24:14Z</time>
      </trkpt>
      <trkpt lat="47.57798" lon="-2.28957">
        <ele>13.2</ele>
        <time>2025-01-16T09:24:15Z</time>
      </trkpt>
      <trkpt lat="47.57797" lon="-2.28956">
        <ele>12.9</ele>
        <time>2025-01-16T09:24:16Z</time>
      </trkpt>
      <trkpt lat="47.57796" lon="-2.28955">
        <ele>12.7</ele>
        <time>2025-01-16T09:24:17Z</time>
      </trkpt>
      <trkpt lat="47.57796" lon="-2.28954">
        <ele>12.7</ele>
        <time>2025-01-16T09:24:18Z</time>
      </trkpt>
      <trkpt lat="47.57796" lon="-2.28953">
        <ele>12.7</ele>
        <time>2025-01-16T09:24:19Z</time>
      </trkpt>
      <trkpt lat="47.57795" lon="-2.28952">
        <ele>12.4</ele>
        <time>2025-01-16T09:24:20Z</time>
      </trkpt>
      <trkpt lat="47.57794" lon="-2.28951">
        <ele>12.1</ele>
        <time>2025-01-16T09:24:21Z</time>
      </trkpt>
      <trkpt lat="47.57794" lon="-2.2895">
        <ele>12.1</ele>
        <time>2025-01-16T09:24:22Z</time>
      </trkpt>
      <trkpt lat="47.57794" lon="-2.28949">
        <ele>12.2</ele>
        <time>2025-01-16T09:24:23Z</time>
      </trkpt>
      <trkpt lat="47.57794" lon="-2.28948">
        <ele>12.2</ele>
        <time>2025-01-16T09:24:24Z</time>
      </trkpt>
      <trkpt lat="47.57794" lon="-2.28947">
        <ele>12.2</ele>
        <time>2025-01-16T09:24:25Z</time>
      </trkpt>
      <trkpt lat="47.57793" lon="-2.28946">
        <ele>11.9</ele>
        <time>2025-01-16T09:24:26Z</time>
      </trkpt>
      <trkpt lat="47.57793" lon="-2.28945">
        <ele>11.9</ele>
        <time>2025-01-16T09:24:27Z</time>
      </trkpt>
      <trkpt lat="47.57792" lon="-2.28944">
        <ele>11.6</ele>
        <time>2025-01-16T09:24:28Z</time>
      </trkpt>
      <trkpt lat="47.57792" lon="-2.28944">
        <ele>11.6</ele>
        <time>2025-01-16T09:24:29Z</time>
      </trkpt>
      <trkpt lat="47.57792" lon="-2.28944">
        <ele>11.6</ele>
        <time>2025-01-16T09:24:30Z</time>
      </trkpt>
      <trkpt lat="47.57791" lon="-2.28944">
        <ele>11.3</ele>
        <time>2025-01-16T09:24:31Z</time>
      </trkpt>
      <trkpt lat="47.57791" lon="-2.28944">
        <ele>11.3</ele>
        <time>2025-01-16T09:24:32Z</time>
      </trkpt>
      <trkpt lat="47.57791" lon="-2.28944">
        <ele>11.3</ele>
        <time>2025-01-16T09:24:33Z</time>
      </trkpt>
      <trkpt lat="47.57791" lon="-2.28944">
        <ele>11.3</ele>
        <time>2025-01-16T09:24:34Z</time>
      </trkpt>
      <trkpt lat="47.57791" lon="-2.28943">
        <ele>11.3</ele>
        <time>2025-01-16T09:24:35Z</time>
      </trkpt>
      <trkpt lat="47.57791" lon="-2.28943">
        <ele>11.3</ele>
        <time>2025-01-16T09:24:36Z</time>
      </trkpt>
      <trkpt lat="47.57792" lon="-2.28944">
        <ele>11.6</ele>
        <time>2025-01-16T09:24:37Z</time>
      </trkpt>
      <trkpt lat="47.57791" lon="-2.28945">
        <ele>11.3</ele>
        <time>2025-01-16T09:24:38Z</time>
      </trkpt>
      <trkpt lat="47.57791" lon="-2.28946">
        <ele>11.3</ele>
        <time>2025-01-16T09:24:39Z</time>
      </trkpt>
      <trkpt lat="47.5779" lon="-2.28948">
        <ele>10.9</ele>
        <time>2025-01-16T09:24:40Z</time>
      </trkpt>
      <trkpt lat="47.5779" lon="-2.2895">
        <ele>10.9</ele>
        <time>2025-01-16T09:24:41Z</time>
      </trkpt>
      <trkpt lat="47.57789" lon="-2.28951">
        <ele>10.5</ele>
        <time>2025-01-16T09:24:42Z</time>
      </trkpt>
      <trkpt lat="47.57788" lon="-2.28953">
        <ele>10.2</ele>
        <time>2025-01-16T09:24:43Z</time>
      </trkpt>
      <trkpt lat="47.57788" lon="-2.28954">
        <ele>10.2</ele>
        <time>2025-01-16T09:24:44Z</time>
      </trkpt>
      <trkpt lat="47.57787" lon="-2.28956">
        <ele>9.8</ele>
        <time>2025-01-16T09:24:45Z</time>
      </trkpt>
      <trkpt lat="47.57787" lon="-2.28958">
        <ele>9.8</ele>
        <time>2025-01-16T09:24:46Z</time>
      </trkpt>
      <trkpt lat="47.57787" lon="-2.2896">
        <ele>9.8</ele>
        <time>2025-01-16T09:24:47Z</time>
      </trkpt>
      <trkpt lat="47.57787" lon="-2.28961">
        <ele>9.8</ele>
        <time>2025-01-16T09:24:48Z</time>
      </trkpt>
      <trkpt lat="47.57787" lon="-2.28963">
        <ele>9.8</ele>
        <time>2025-01-16T09:24:49Z</time>
      </trkpt>
      <trkpt lat="47.57787" lon="-2.28964">
        <ele>9.8</ele>
        <time>2025-01-16T09:24:50Z</time>
      </trkpt>
      <trkpt lat="47.57787" lon="-2.28965">
        <ele>9.7</ele>
        <time>2025-01-16T09:24:51Z</time>
      </trkpt>
      <trkpt lat="47.57787" lon="-2.28966">
        <ele>9.7</ele>
        <time>2025-01-16T09:24:52Z</time>
      </trkpt>
      <trkpt lat="47.57787" lon="-2.28967">
        <ele>9.7</ele>
        <time>2025-01-16T09:24:53Z</time>
      </trkpt>
      <trkpt lat="47.57787" lon="-2.28968">
        <ele>9.7</ele>
        <time>2025-01-16T09:24:54Z</time>
      </trkpt>
      <trkpt lat="47.57787" lon="-2.28969">
        <ele>9.7</ele>
        <time>2025-01-16T09:24:55Z</time>
      </trkpt>
      <trkpt lat="47.57788" lon="-2.28971">
        <ele>10</ele>
        <time>2025-01-16T09:24:56Z</time>
      </trkpt>
      <trkpt lat="47.57788" lon="-2.28972">
        <ele>9.9</ele>
        <time>2025-01-16T09:24:57Z</time>
      </trkpt>
      <trkpt lat="47.57787" lon="-2.28973">
        <ele>9.7</ele>
        <time>2025-01-16T09:24:58Z</time>
      </trkpt>
      <trkpt lat="47.57787" lon="-2.28974">
        <ele>9.7</ele>
        <time>2025-01-16T09:24:59Z</time>
      </trkpt>
      <trkpt lat="47.57787" lon="-2.28976">
        <ele>9.7</ele>
        <time>2025-01-16T09:25:00Z</time>
      </trkpt>
      <trkpt lat="47.57787" lon="-2.28978">
        <ele>9.7</ele>
        <time>2025-01-16T09:25:01Z</time>
      </trkpt>
      <trkpt lat="47.57787" lon="-2.28979">
        <ele>9.7</ele>
        <time>2025-01-16T09:25:02Z</time>
      </trkpt>
      <trkpt lat="47.57787" lon="-2.2898">
        <ele>9.7</ele>
        <time>2025-01-16T09:25:03Z</time>
      </trkpt>
      <trkpt lat="47.57787" lon="-2.28982">
        <ele>9.7</ele>
        <time>2025-01-16T09:25:04Z</time>
      </trkpt>
      <trkpt lat="47.57786" lon="-2.28983">
        <ele>9.4</ele>
        <time>2025-01-16T09:25:05Z</time>
      </trkpt>
      <trkpt lat="47.57786" lon="-2.28984">
        <ele>9.4</ele>
        <time>2025-01-16T09:25:06Z</time>
      </trkpt>
      <trkpt lat="47.57786" lon="-2.28985">
        <ele>9.4</ele>
        <time>2025-01-16T09:25:07Z</time>
      </trkpt>
      <trkpt lat="47.57786" lon="-2.28987">
        <ele>9.4</ele>
        <time>2025-01-16T09:25:08Z</time>
      </trkpt>
      <trkpt lat="47.57785" lon="-2.28988">
        <ele>9.1</ele>
        <time>2025-01-16T09:25:09Z</time>
      </trkpt>
      <trkpt lat="47.57784" lon="-2.2899">
        <ele>8.8</ele>
        <time>2025-01-16T09:25:10Z</time>
      </trkpt>
      <trkpt lat="47.57783" lon="-2.28992">
        <ele>8.5</ele>
        <time>2025-01-16T09:25:11Z</time>
      </trkpt>
      <trkpt lat="47.57783" lon="-2.28993">
        <ele>8.5</ele>
        <time>2025-01-16T09:25:12Z</time>
      </trkpt>
      <trkpt lat="47.57783" lon="-2.28995">
        <ele>8.5</ele>
        <time>2025-01-16T09:25:13Z</time>
      </trkpt>
      <trkpt lat="47.57783" lon="-2.28996">
        <ele>8.5</ele>
        <time>2025-01-16T09:25:14Z</time>
      </trkpt>
      <trkpt lat="47.57782" lon="-2.28998">
        <ele>8.2</ele>
        <time>2025-01-16T09:25:15Z</time>
      </trkpt>
      <trkpt lat="47.57782" lon="-2.28999">
        <ele>8.2</ele>
        <time>2025-01-16T09:25:16Z</time>
      </trkpt>
      <trkpt lat="47.57782" lon="-2.29">
        <ele>8.2</ele>
        <time>2025-01-16T09:25:17Z</time>
      </trkpt>
      <trkpt lat="47.57783" lon="-2.29001">
        <ele>8.5</ele>
        <time>2025-01-16T09:25:18Z</time>
      </trkpt>
      <trkpt lat="47.57783" lon="-2.29002">
        <ele>8.5</ele>
        <time>2025-01-16T09:25:19Z</time>
      </trkpt>
      <trkpt lat="47.57783" lon="-2.29004">
        <ele>8.4</ele>
        <time>2025-01-16T09:25:20Z</time>
      </trkpt>
      <trkpt lat="47.57783" lon="-2.29006">
        <ele>8.4</ele>
        <time>2025-01-16T09:25:21Z</time>
      </trkpt>
      <trkpt lat="47.57783" lon="-2.29009">
        <ele>8.4</ele>
        <time>2025-01-16T09:25:22Z</time>
      </trkpt>
      <trkpt lat="47.57783" lon="-2.2901">
        <ele>8.4</ele>
        <time>2025-01-16T09:25:23Z</time>
      </trkpt>
      <trkpt lat="47.57783" lon="-2.29012">
        <ele>8.3</ele>
        <time>2025-01-16T09:25:24Z</time>
      </trkpt>
      <trkpt lat="47.57783" lon="-2.29013">
        <ele>8.3</ele>
        <time>2025-01-16T09:25:25Z</time>
      </trkpt>
      <trkpt lat="47.57783" lon="-2.29014">
        <ele>8.3</ele>
        <time>2025-01-16T09:25:26Z</time>
      </trkpt>
      <trkpt lat="47.57783" lon="-2.29015">
        <ele>8.3</ele>
        <time>2025-01-16T09:25:27Z</time>
      </trkpt>
      <trkpt lat="47.57782" lon="-2.29016">
        <ele>8</ele>
        <time>2025-01-16T09:25:28Z</time>
      </trkpt>
      <trkpt lat="47.57783" lon="-2.29017">
        <ele>8.3</ele>
        <time>2025-01-16T09:25:29Z</time>
      </trkpt>
      <trkpt lat="47.57782" lon="-2.29018">
        <ele>8</ele>
        <time>2025-01-16T09:25:30Z</time>
      </trkpt>
      <trkpt lat="47.57782" lon="-2.2902">
        <ele>8</ele>
        <time>2025-01-16T09:25:31Z</time>
      </trkpt>
      <trkpt lat="47.57781" lon="-2.29022">
        <ele>7.7</ele>
        <time>2025-01-16T09:25:32Z</time>
      </trkpt>
      <trkpt lat="47.57781" lon="-2.29024">
        <ele>7.7</ele>
        <time>2025-01-16T09:25:33Z</time>
      </trkpt>
      <trkpt lat="47.57781" lon="-2.29025">
        <ele>7.7</ele>
        <time>2025-01-16T09:25:34Z</time>
      </trkpt>
      <trkpt lat="47.57781" lon="-2.29027">
        <ele>7.7</ele>
        <time>2025-01-16T09:25:35Z</time>
      </trkpt>
      <trkpt lat="47.57781" lon="-2.29028">
        <ele>7.7</ele>
        <time>2025-01-16T09:25:36Z</time>
      </trkpt>
      <trkpt lat="47.57781" lon="-2.2903">
        <ele>7.8</ele>
        <time>2025-01-16T09:25:37Z</time>
      </trkpt>
      <trkpt lat="47.5778" lon="-2.29032">
        <ele>7.6</ele>
        <time>2025-01-16T09:25:38Z</time>
      </trkpt>
      <trkpt lat="47.5778" lon="-2.29033">
        <ele>7.7</ele>
        <time>2025-01-16T09:25:39Z</time>
      </trkpt>
      <trkpt lat="47.57779" lon="-2.29033">
        <ele>7.4</ele>
        <time>2025-01-16T09:25:40Z</time>
      </trkpt>
      <trkpt lat="47.57778" lon="-2.29034">
        <ele>7.3</ele>
        <time>2025-01-16T09:25:41Z</time>
      </trkpt>
      <trkpt lat="47.57777" lon="-2.29035">
        <ele>7.4</ele>
        <time>2025-01-16T09:25:42Z</time>
      </trkpt>
      <trkpt lat="47.57777" lon="-2.29036">
        <ele>7.4</ele>
        <time>2025-01-16T09:25:43Z</time>
      </trkpt>
      <trkpt lat="47.57776" lon="-2.29036">
        <ele>7.5</ele>
        <time>2025-01-16T09:25:44Z</time>
      </trkpt>
      <trkpt lat="47.57776" lon="-2.29037">
        <ele>7.6</ele>
        <time>2025-01-16T09:25:45Z</time>
      </trkpt>
      <trkpt lat="47.57775" lon="-2.29038">
        <ele>7.7</ele>
        <time>2025-01-16T09:25:46Z</time>
      </trkpt>
      <trkpt lat="47.57773" lon="-2.29039">
        <ele>8.1</ele>
        <time>2025-01-16T09:25:47Z</time>
      </trkpt>
      <trkpt lat="47.57772" lon="-2.29039">
        <ele>8.2</ele>
        <time>2025-01-16T09:25:48Z</time>
      </trkpt>
      <trkpt lat="47.57771" lon="-2.2904">
        <ele>8.4</ele>
        <time>2025-01-16T09:25:49Z</time>
      </trkpt>
      <trkpt lat="47.57769" lon="-2.29041">
        <ele>8.7</ele>
        <time>2025-01-16T09:25:50Z</time>
      </trkpt>
      <trkpt lat="47.57768" lon="-2.29043">
        <ele>9</ele>
        <time>2025-01-16T09:25:51Z</time>
      </trkpt>
      <trkpt lat="47.57766" lon="-2.29044">
        <ele>9.4</ele>
        <time>2025-01-16T09:25:52Z</time>
      </trkpt>
      <trkpt lat="47.57765" lon="-2.29045">
        <ele>9.6</ele>
        <time>2025-01-16T09:25:53Z</time>
      </trkpt>
      <trkpt lat="47.57764" lon="-2.29047">
        <ele>9.9</ele>
        <time>2025-01-16T09:25:54Z</time>
      </trkpt>
      <trkpt lat="47.57763" lon="-2.29048">
        <ele>10.1</ele>
        <time>2025-01-16T09:25:55Z</time>
      </trkpt>
      <trkpt lat="47.57762" lon="-2.29049">
        <ele>10.3</ele>
        <time>2025-01-16T09:25:56Z</time>
      </trkpt>
      <trkpt lat="47.57761" lon="-2.29049">
        <ele>10.5</ele>
        <time>2025-01-16T09:25:57Z</time>
      </trkpt>
      <trkpt lat="47.5776" lon="-2.2905">
        <ele>10.7</ele>
        <time>2025-01-16T09:25:58Z</time>
      </trkpt>
      <trkpt lat="47.57758" lon="-2.29051">
        <ele>11.2</ele>
        <time>2025-01-16T09:25:59Z</time>
      </trkpt>
      <trkpt lat="47.57757" lon="-2.29051">
        <ele>11.3</ele>
        <time>2025-01-16T09:26:00Z</time>
      </trkpt>
      <trkpt lat="47.57756" lon="-2.29051">
        <ele>11.5</ele>
        <time>2025-01-16T09:26:01Z</time>
      </trkpt>
      <trkpt lat="47.57755" lon="-2.29052">
        <ele>11.8</ele>
        <time>2025-01-16T09:26:02Z</time>
      </trkpt>
      <trkpt lat="47.57754" lon="-2.29052">
        <ele>11.9</ele>
        <time>2025-01-16T09:26:03Z</time>
      </trkpt>
      <trkpt lat="47.57753" lon="-2.29052">
        <ele>12.1</ele>
        <time>2025-01-16T09:26:04Z</time>
      </trkpt>
      <trkpt lat="47.57752" lon="-2.29053">
        <ele>12.4</ele>
        <time>2025-01-16T09:26:05Z</time>
      </trkpt>
      <trkpt lat="47.57752" lon="-2.29054">
        <ele>12.5</ele>
        <time>2025-01-16T09:26:06Z</time>
      </trkpt>
      <trkpt lat="47.57751" lon="-2.29055">
        <ele>12.8</ele>
        <time>2025-01-16T09:26:07Z</time>
      </trkpt>
      <trkpt lat="47.57751" lon="-2.29055">
        <ele>12.8</ele>
        <time>2025-01-16T09:26:08Z</time>
      </trkpt>
      <trkpt lat="47.5775" lon="-2.29055">
        <ele>12.9</ele>
        <time>2025-01-16T09:26:09Z</time>
      </trkpt>
      <trkpt lat="47.57749" lon="-2.29056">
        <ele>13.1</ele>
        <time>2025-01-16T09:26:10Z</time>
      </trkpt>
      <trkpt lat="47.57748" lon="-2.29055">
        <ele>13.1</ele>
        <time>2025-01-16T09:26:11Z</time>
      </trkpt>
      <trkpt lat="47.57748" lon="-2.29055">
        <ele>13.1</ele>
        <time>2025-01-16T09:26:12Z</time>
      </trkpt>
      <trkpt lat="47.57747" lon="-2.29055">
        <ele>13.2</ele>
        <time>2025-01-16T09:26:13Z</time>
      </trkpt>
      <trkpt lat="47.57746" lon="-2.29055">
        <ele>13.2</ele>
        <time>2025-01-16T09:26:14Z</time>
      </trkpt>
      <trkpt lat="47.57745" lon="-2.29055">
        <ele>13.3</ele>
        <time>2025-01-16T09:26:15Z</time>
      </trkpt>
      <trkpt lat="47.57744" lon="-2.29056">
        <ele>13.5</ele>
        <time>2025-01-16T09:26:16Z</time>
      </trkpt>
      <trkpt lat="47.57744" lon="-2.29056">
        <ele>13.5</ele>
        <time>2025-01-16T09:26:17Z</time>
      </trkpt>
      <trkpt lat="47.57744" lon="-2.29055">
        <ele>13.4</ele>
        <time>2025-01-16T09:26:18Z</time>
      </trkpt>
      <trkpt lat="47.57743" lon="-2.29055">
        <ele>13.4</ele>
        <time>2025-01-16T09:26:19Z</time>
      </trkpt>
      <trkpt lat="47.57743" lon="-2.29055">
        <ele>13.4</ele>
        <time>2025-01-16T09:26:20Z</time>
      </trkpt>
      <trkpt lat="47.57742" lon="-2.29056">
        <ele>13.6</ele>
        <time>2025-01-16T09:26:21Z</time>
      </trkpt>
      <trkpt lat="47.57742" lon="-2.29056">
        <ele>13.6</ele>
        <time>2025-01-16T09:26:22Z</time>
      </trkpt>
      <trkpt lat="47.57741" lon="-2.29056">
        <ele>13.7</ele>
        <time>2025-01-16T09:26:23Z</time>
      </trkpt>
      <trkpt lat="47.57741" lon="-2.29057">
        <ele>13.7</ele>
        <time>2025-01-16T09:26:24Z</time>
      </trkpt>
      <trkpt lat="47.5774" lon="-2.29057">
        <ele>13.8</ele>
        <time>2025-01-16T09:26:25Z</time>
      </trkpt>
      <trkpt lat="47.57739" lon="-2.29057">
        <ele>13.9</ele>
        <time>2025-01-16T09:26:26Z</time>
      </trkpt>
      <trkpt lat="47.57738" lon="-2.29057">
        <ele>14</ele>
        <time>2025-01-16T09:26:27Z</time>
      </trkpt>
      <trkpt lat="47.57737" lon="-2.29058">
        <ele>14.1</ele>
        <time>2025-01-16T09:26:28Z</time>
      </trkpt>
      <trkpt lat="47.57735" lon="-2.29059">
        <ele>14.3</ele>
        <time>2025-01-16T09:26:29Z</time>
      </trkpt>
      <trkpt lat="47.57734" lon="-2.29059">
        <ele>14.4</ele>
        <time>2025-01-16T09:26:30Z</time>
      </trkpt>
      <trkpt lat="47.57733" lon="-2.2906">
        <ele>14.6</ele>
        <time>2025-01-16T09:26:31Z</time>
      </trkpt>
      <trkpt lat="47.57732" lon="-2.2906">
        <ele>14.7</ele>
        <time>2025-01-16T09:26:32Z</time>
      </trkpt>
      <trkpt lat="47.57731" lon="-2.29061">
        <ele>14.8</ele>
        <time>2025-01-16T09:26:33Z</time>
      </trkpt>
      <trkpt lat="47.5773" lon="-2.29062">
        <ele>15</ele>
        <time>2025-01-16T09:26:34Z</time>
      </trkpt>
      <trkpt lat="47.57729" lon="-2.29063">
        <ele>15.2</ele>
        <time>2025-01-16T09:26:35Z</time>
      </trkpt>
      <trkpt lat="47.57728" lon="-2.29063">
        <ele>15.3</ele>
        <time>2025-01-16T09:26:36Z</time>
      </trkpt>
      <trkpt lat="47.57727" lon="-2.29064">
        <ele>15.5</ele>
        <time>2025-01-16T09:26:37Z</time>
      </trkpt>
      <trkpt lat="47.57726" lon="-2.29064">
        <ele>15.6</ele>
        <time>2025-01-16T09:26:38Z</time>
      </trkpt>
      <trkpt lat="47.57726" lon="-2.29064">
        <ele>15.6</ele>
        <time>2025-01-16T09:26:39Z</time>
      </trkpt>
      <trkpt lat="47.57725" lon="-2.29065">
        <ele>15.8</ele>
        <time>2025-01-16T09:26:40Z</time>
      </trkpt>
      <trkpt lat="47.57724" lon="-2.29066">
        <ele>16</ele>
        <time>2025-01-16T09:26:41Z</time>
      </trkpt>
      <trkpt lat="47.57724" lon="-2.29067">
        <ele>16.1</ele>
        <time>2025-01-16T09:26:42Z</time>
      </trkpt>
      <trkpt lat="47.57723" lon="-2.29069">
        <ele>16.4</ele>
        <time>2025-01-16T09:26:43Z</time>
      </trkpt>
      <trkpt lat="47.57722" lon="-2.2907">
        <ele>16.6</ele>
        <time>2025-01-16T09:26:44Z</time>
      </trkpt>
      <trkpt lat="47.57722" lon="-2.29071">
        <ele>16.7</ele>
        <time>2025-01-16T09:26:45Z</time>
      </trkpt>
      <trkpt lat="47.57721" lon="-2.29072">
        <ele>16.8</ele>
        <time>2025-01-16T09:26:46Z</time>
      </trkpt>
      <trkpt lat="47.5772" lon="-2.29073">
        <ele>16.9</ele>
        <time>2025-01-16T09:26:47Z</time>
      </trkpt>
      <trkpt lat="47.57719" lon="-2.29074">
        <ele>17</ele>
        <time>2025-01-16T09:26:48Z</time>
      </trkpt>
      <trkpt lat="47.57718" lon="-2.29075">
        <ele>17.2</ele>
        <time>2025-01-16T09:26:49Z</time>
      </trkpt>
      <trkpt lat="47.57717" lon="-2.29076">
        <ele>17.3</ele>
        <time>2025-01-16T09:26:50Z</time>
      </trkpt>
      <trkpt lat="47.57716" lon="-2.29076">
        <ele>17.4</ele>
        <time>2025-01-16T09:26:51Z</time>
      </trkpt>
      <trkpt lat="47.57716" lon="-2.29076">
        <ele>17.4</ele>
        <time>2025-01-16T09:26:52Z</time>
      </trkpt>
      <trkpt lat="47.57715" lon="-2.29077">
        <ele>17.5</ele>
        <time>2025-01-16T09:26:53Z</time>
      </trkpt>
      <trkpt lat="47.57714" lon="-2.29077">
        <ele>17.6</ele>
        <time>2025-01-16T09:26:54Z</time>
      </trkpt>
      <trkpt lat="47.57714" lon="-2.29078">
        <ele>17.7</ele>
        <time>2025-01-16T09:26:55Z</time>
      </trkpt>
      <trkpt lat="47.57713" lon="-2.2908">
        <ele>18.1</ele>
        <time>2025-01-16T09:26:56Z</time>
      </trkpt>
      <trkpt lat="47.57712" lon="-2.29081">
        <ele>18.3</ele>
        <time>2025-01-16T09:26:57Z</time>
      </trkpt>
      <trkpt lat="47.57712" lon="-2.29082">
        <ele>18.5</ele>
        <time>2025-01-16T09:26:58Z</time>
      </trkpt>
      <trkpt lat="47.57711" lon="-2.29082">
        <ele>18.6</ele>
        <time>2025-01-16T09:26:59Z</time>
      </trkpt>
      <trkpt lat="47.57711" lon="-2.29083">
        <ele>18.7</ele>
        <time>2025-01-16T09:27:00Z</time>
      </trkpt>
      <trkpt lat="47.5771" lon="-2.29083">
        <ele>18.8</ele>
        <time>2025-01-16T09:27:01Z</time>
      </trkpt>
      <trkpt lat="47.57709" lon="-2.29084">
        <ele>19</ele>
        <time>2025-01-16T09:27:02Z</time>
      </trkpt>
      <trkpt lat="47.57708" lon="-2.29085">
        <ele>19.2</ele>
        <time>2025-01-16T09:27:03Z</time>
      </trkpt>
      <trkpt lat="47.57708" lon="-2.29086">
        <ele>19.3</ele>
        <time>2025-01-16T09:27:04Z</time>
      </trkpt>
      <trkpt lat="47.57707" lon="-2.29087">
        <ele>19.4</ele>
        <time>2025-01-16T09:27:05Z</time>
      </trkpt>
      <trkpt lat="47.57706" lon="-2.29087">
        <ele>19.5</ele>
        <time>2025-01-16T09:27:06Z</time>
      </trkpt>
      <trkpt lat="47.57706" lon="-2.29088">
        <ele>19.6</ele>
        <time>2025-01-16T09:27:07Z</time>
      </trkpt>
      <trkpt lat="47.57705" lon="-2.29089">
        <ele>19.8</ele>
        <time>2025-01-16T09:27:08Z</time>
      </trkpt>
      <trkpt lat="47.57704" lon="-2.2909">
        <ele>20</ele>
        <time>2025-01-16T09:27:09Z</time>
      </trkpt>
      <trkpt lat="47.57704" lon="-2.2909">
        <ele>20</ele>
        <time>2025-01-16T09:27:10Z</time>
      </trkpt>
      <trkpt lat="47.57703" lon="-2.2909">
        <ele>20.1</ele>
        <time>2025-01-16T09:27:11Z</time>
      </trkpt>
      <trkpt lat="47.57702" lon="-2.29091">
        <ele>20.3</ele>
        <time>2025-01-16T09:27:12Z</time>
      </trkpt>
      <trkpt lat="47.57701" lon="-2.29091">
        <ele>20.4</ele>
        <time>2025-01-16T09:27:13Z</time>
      </trkpt>
      <trkpt lat="47.577" lon="-2.29092">
        <ele>20.7</ele>
        <time>2025-01-16T09:27:14Z</time>
      </trkpt>
      <trkpt lat="47.577" lon="-2.29093">
        <ele>20.8</ele>
        <time>2025-01-16T09:27:15Z</time>
      </trkpt>
      <trkpt lat="47.57699" lon="-2.29093">
        <ele>20.9</ele>
        <time>2025-01-16T09:27:16Z</time>
      </trkpt>
      <trkpt lat="47.57698" lon="-2.29093">
        <ele>21</ele>
        <time>2025-01-16T09:27:17Z</time>
      </trkpt>
      <trkpt lat="47.57698" lon="-2.29093">
        <ele>21</ele>
        <time>2025-01-16T09:27:18Z</time>
      </trkpt>
      <trkpt lat="47.57697" lon="-2.29094">
        <ele>21.2</ele>
        <time>2025-01-16T09:27:19Z</time>
      </trkpt>
      <trkpt lat="47.57697" lon="-2.29094">
        <ele>21.2</ele>
        <time>2025-01-16T09:27:20Z</time>
      </trkpt>
      <trkpt lat="47.57696" lon="-2.29095">
        <ele>21.5</ele>
        <time>2025-01-16T09:27:21Z</time>
      </trkpt>
      <trkpt lat="47.57696" lon="-2.29095">
        <ele>21.5</ele>
        <time>2025-01-16T09:27:22Z</time>
      </trkpt>
      <trkpt lat="47.57695" lon="-2.29097">
        <ele>21.9</ele>
        <time>2025-01-16T09:27:23Z</time>
      </trkpt>
      <trkpt lat="47.57694" lon="-2.29098">
        <ele>22.1</ele>
        <time>2025-01-16T09:27:24Z</time>
      </trkpt>
      <trkpt lat="47.57693" lon="-2.29098">
        <ele>22.2</ele>
        <time>2025-01-16T09:27:25Z</time>
      </trkpt>
      <trkpt lat="47.57692" lon="-2.29099">
        <ele>22.4</ele>
        <time>2025-01-16T09:27:26Z</time>
      </trkpt>
      <trkpt lat="47.57692" lon="-2.291">
        <ele>22.5</ele>
        <time>2025-01-16T09:27:27Z</time>
      </trkpt>
      <trkpt lat="47.57691" lon="-2.29101">
        <ele>22.7</ele>
        <time>2025-01-16T09:27:28Z</time>
      </trkpt>
      <trkpt lat="47.5769" lon="-2.29102">
        <ele>23</ele>
        <time>2025-01-16T09:27:29Z</time>
      </trkpt>
      <trkpt lat="47.5769" lon="-2.29103">
        <ele>23.1</ele>
        <time>2025-01-16T09:27:30Z</time>
      </trkpt>
      <trkpt lat="47.57689" lon="-2.29103">
        <ele>23.2</ele>
        <time>2025-01-16T09:27:31Z</time>
      </trkpt>
      <trkpt lat="47.57688" lon="-2.29104">
        <ele>23.4</ele>
        <time>2025-01-16T09:27:32Z</time>
      </trkpt>
      <trkpt lat="47.57688" lon="-2.29105">
        <ele>23.6</ele>
        <time>2025-01-16T09:27:33Z</time>
      </trkpt>
      <trkpt lat="47.57687" lon="-2.29106">
        <ele>23.9</ele>
        <time>2025-01-16T09:27:34Z</time>
      </trkpt>
      <trkpt lat="47.57686" lon="-2.29107">
        <ele>24.1</ele>
        <time>2025-01-16T09:27:35Z</time>
      </trkpt>
      <trkpt lat="47.57685" lon="-2.29107">
        <ele>24.2</ele>
        <time>2025-01-16T09:27:36Z</time>
      </trkpt>
      <trkpt lat="47.57685" lon="-2.29108">
        <ele>24.4</ele>
        <time>2025-01-16T09:27:37Z</time>
      </trkpt>
      <trkpt lat="47.57684" lon="-2.29109">
        <ele>24.7</ele>
        <time>2025-01-16T09:27:38Z</time>
      </trkpt>
      <trkpt lat="47.57683" lon="-2.2911">
        <ele>25</ele>
        <time>2025-01-16T09:27:39Z</time>
      </trkpt>
      <trkpt lat="47.57683" lon="-2.2911">
        <ele>25</ele>
        <time>2025-01-16T09:27:40Z</time>
      </trkpt>
      <trkpt lat="47.57682" lon="-2.29111">
        <ele>25.3</ele>
        <time>2025-01-16T09:27:41Z</time>
      </trkpt>
      <trkpt lat="47.57681" lon="-2.29111">
        <ele>25.4</ele>
        <time>2025-01-16T09:27:42Z</time>
      </trkpt>
      <trkpt lat="47.5768" lon="-2.29112">
        <ele>25.6</ele>
        <time>2025-01-16T09:27:43Z</time>
      </trkpt>
      <trkpt lat="47.57679" lon="-2.29113">
        <ele>25.8</ele>
        <time>2025-01-16T09:27:44Z</time>
      </trkpt>
      <trkpt lat="47.57678" lon="-2.29114">
        <ele>26</ele>
        <time>2025-01-16T09:27:45Z</time>
      </trkpt>
      <trkpt lat="47.57677" lon="-2.29114">
        <ele>26.1</ele>
        <time>2025-01-16T09:27:46Z</time>
      </trkpt>
      <trkpt lat="47.57677" lon="-2.29115">
        <ele>26.2</ele>
        <time>2025-01-16T09:27:47Z</time>
      </trkpt>
      <trkpt lat="47.57675" lon="-2.29116">
        <ele>26.5</ele>
        <time>2025-01-16T09:27:48Z</time>
      </trkpt>
      <trkpt lat="47.57674" lon="-2.29117">
        <ele>26.7</ele>
        <time>2025-01-16T09:27:49Z</time>
      </trkpt>
      <trkpt lat="47.57673" lon="-2.29118">
        <ele>26.9</ele>
        <time>2025-01-16T09:27:50Z</time>
      </trkpt>
      <trkpt lat="47.57672" lon="-2.29119">
        <ele>27.2</ele>
        <time>2025-01-16T09:27:51Z</time>
      </trkpt>
      <trkpt lat="47.57671" lon="-2.29121">
        <ele>27.5</ele>
        <time>2025-01-16T09:27:52Z</time>
      </trkpt>
      <trkpt lat="47.5767" lon="-2.29122">
        <ele>27.7</ele>
        <time>2025-01-16T09:27:53Z</time>
      </trkpt>
      <trkpt lat="47.5767" lon="-2.29123">
        <ele>27.8</ele>
        <time>2025-01-16T09:27:54Z</time>
      </trkpt>
      <trkpt lat="47.57669" lon="-2.29124">
        <ele>28.1</ele>
        <time>2025-01-16T09:27:55Z</time>
      </trkpt>
      <trkpt lat="47.57669" lon="-2.29125">
        <ele>28.2</ele>
        <time>2025-01-16T09:27:56Z</time>
      </trkpt>
      <trkpt lat="47.57668" lon="-2.29126">
        <ele>28.4</ele>
        <time>2025-01-16T09:27:57Z</time>
      </trkpt>
      <trkpt lat="47.57668" lon="-2.29127">
        <ele>28.5</ele>
        <time>2025-01-16T09:27:58Z</time>
      </trkpt>
      <trkpt lat="47.57667" lon="-2.29128">
        <ele>28.8</ele>
        <time>2025-01-16T09:27:59Z</time>
      </trkpt>
      <trkpt lat="47.57666" lon="-2.29128">
        <ele>28.9</ele>
        <time>2025-01-16T09:28:00Z</time>
      </trkpt>
      <trkpt lat="47.57665" lon="-2.29129">
        <ele>29.2</ele>
        <time>2025-01-16T09:28:01Z</time>
      </trkpt>
      <trkpt lat="47.57665" lon="-2.2913">
        <ele>29.3</ele>
        <time>2025-01-16T09:28:02Z</time>
      </trkpt>
      <trkpt lat="47.57664" lon="-2.29131">
        <ele>29.5</ele>
        <time>2025-01-16T09:28:03Z</time>
      </trkpt>
      <trkpt lat="47.57663" lon="-2.29131">
        <ele>29.6</ele>
        <time>2025-01-16T09:28:04Z</time>
      </trkpt>
      <trkpt lat="47.57663" lon="-2.29131">
        <ele>29.6</ele>
        <time>2025-01-16T09:28:05Z</time>
      </trkpt>
      <trkpt lat="47.57662" lon="-2.29132">
        <ele>29.9</ele>
        <time>2025-01-16T09:28:06Z</time>
      </trkpt>
      <trkpt lat="47.57661" lon="-2.29133">
        <ele>30.1</ele>
        <time>2025-01-16T09:28:07Z</time>
      </trkpt>
      <trkpt lat="47.57661" lon="-2.29134">
        <ele>30.3</ele>
        <time>2025-01-16T09:28:08Z</time>
      </trkpt>
      <trkpt lat="47.5766" lon="-2.29136">
        <ele>30.6</ele>
        <time>2025-01-16T09:28:09Z</time>
      </trkpt>
      <trkpt lat="47.57659" lon="-2.29137">
        <ele>30.9</ele>
        <time>2025-01-16T09:28:10Z</time>
      </trkpt>
      <trkpt lat="47.57658" lon="-2.29138">
        <ele>31.1</ele>
        <time>2025-01-16T09:28:11Z</time>
      </trkpt>
      <trkpt lat="47.57657" lon="-2.29139">
        <ele>31.4</ele>
        <time>2025-01-16T09:28:12Z</time>
      </trkpt>
      <trkpt lat="47.57656" lon="-2.2914">
        <ele>31.6</ele>
        <time>2025-01-16T09:28:13Z</time>
      </trkpt>
      <trkpt lat="47.57656" lon="-2.2914">
        <ele>31.6</ele>
        <time>2025-01-16T09:28:14Z</time>
      </trkpt>
      <trkpt lat="47.57655" lon="-2.29141">
        <ele>31.8</ele>
        <time>2025-01-16T09:28:15Z</time>
      </trkpt>
      <trkpt lat="47.57654" lon="-2.29141">
        <ele>31.9</ele>
        <time>2025-01-16T09:28:16Z</time>
      </trkpt>
      <trkpt lat="47.57654" lon="-2.29141">
        <ele>31.9</ele>
        <time>2025-01-16T09:28:17Z</time>
      </trkpt>
      <trkpt lat="47.57653" lon="-2.29141">
        <ele>32</ele>
        <time>2025-01-16T09:28:18Z</time>
      </trkpt>
      <trkpt lat="47.57652" lon="-2.29142">
        <ele>32.2</ele>
        <time>2025-01-16T09:28:19Z</time>
      </trkpt>
      <trkpt lat="47.57652" lon="-2.29142">
        <ele>32.2</ele>
        <time>2025-01-16T09:28:20Z</time>
      </trkpt>
      <trkpt lat="47.57651" lon="-2.29142">
        <ele>32.4</ele>
        <time>2025-01-16T09:28:21Z</time>
      </trkpt>
      <trkpt lat="47.5765" lon="-2.29142">
        <ele>32.5</ele>
        <time>2025-01-16T09:28:22Z</time>
      </trkpt>
      <trkpt lat="47.57649" lon="-2.29143">
        <ele>32.7</ele>
        <time>2025-01-16T09:28:23Z</time>
      </trkpt>
      <trkpt lat="47.57648" lon="-2.29144">
        <ele>32.9</ele>
        <time>2025-01-16T09:28:24Z</time>
      </trkpt>
      <trkpt lat="47.57648" lon="-2.29144">
        <ele>32.9</ele>
        <time>2025-01-16T09:28:25Z</time>
      </trkpt>
      <trkpt lat="47.57647" lon="-2.29145">
        <ele>33.1</ele>
        <time>2025-01-16T09:28:26Z</time>
      </trkpt>
      <trkpt lat="47.57646" lon="-2.29145">
        <ele>33.2</ele>
        <time>2025-01-16T09:28:27Z</time>
      </trkpt>
      <trkpt lat="47.57646" lon="-2.29145">
        <ele>33.2</ele>
        <time>2025-01-16T09:28:28Z</time>
      </trkpt>
      <trkpt lat="47.57646" lon="-2.29145">
        <ele>33.2</ele>
        <time>2025-01-16T09:28:29Z</time>
      </trkpt>
      <trkpt lat="47.57645" lon="-2.29145">
        <ele>33.3</ele>
        <time>2025-01-16T09:28:30Z</time>
      </trkpt>
      <trkpt lat="47.57644" lon="-2.29146">
        <ele>33.5</ele>
        <time>2025-01-16T09:28:31Z</time>
      </trkpt>
      <trkpt lat="47.57644" lon="-2.29147">
        <ele>33.6</ele>
        <time>2025-01-16T09:28:32Z</time>
      </trkpt>
      <trkpt lat="47.57643" lon="-2.29147">
        <ele>33.7</ele>
        <time>2025-01-16T09:28:33Z</time>
      </trkpt>
      <trkpt lat="47.57642" lon="-2.29147">
        <ele>33.8</ele>
        <time>2025-01-16T09:28:34Z</time>
      </trkpt>
      <trkpt lat="47.57641" lon="-2.29147">
        <ele>34</ele>
        <time>2025-01-16T09:28:35Z</time>
      </trkpt>
      <trkpt lat="47.5764" lon="-2.29147">
        <ele>34.1</ele>
        <time>2025-01-16T09:28:36Z</time>
      </trkpt>
      <trkpt lat="47.57639" lon="-2.29147">
        <ele>34.3</ele>
        <time>2025-01-16T09:28:37Z</time>
      </trkpt>
      <trkpt lat="47.57638" lon="-2.29148">
        <ele>34.4</ele>
        <time>2025-01-16T09:28:38Z</time>
      </trkpt>
      <trkpt lat="47.57638" lon="-2.29148">
        <ele>34.4</ele>
        <time>2025-01-16T09:28:39Z</time>
      </trkpt>
      <trkpt lat="47.57637" lon="-2.29148">
        <ele>34.6</ele>
        <time>2025-01-16T09:28:40Z</time>
      </trkpt>
      <trkpt lat="47.57636" lon="-2.29148">
        <ele>34.7</ele>
        <time>2025-01-16T09:28:41Z</time>
      </trkpt>
      <trkpt lat="47.57635" lon="-2.29148">
        <ele>34.8</ele>
        <time>2025-01-16T09:28:42Z</time>
      </trkpt>
      <trkpt lat="47.57634" lon="-2.29148">
        <ele>34.9</ele>
        <time>2025-01-16T09:28:43Z</time>
      </trkpt>
      <trkpt lat="47.57633" lon="-2.29148">
        <ele>35</ele>
        <time>2025-01-16T09:28:44Z</time>
      </trkpt>
      <trkpt lat="47.57632" lon="-2.29148">
        <ele>35.2</ele>
        <time>2025-01-16T09:28:45Z</time>
      </trkpt>
      <trkpt lat="47.57631" lon="-2.29148">
        <ele>35.3</ele>
        <time>2025-01-16T09:28:46Z</time>
      </trkpt>
      <trkpt lat="47.5763" lon="-2.29147">
        <ele>35.3</ele>
        <time>2025-01-16T09:28:47Z</time>
      </trkpt>
      <trkpt lat="47.57629" lon="-2.29147">
        <ele>35.5</ele>
        <time>2025-01-16T09:28:48Z</time>
      </trkpt>
      <trkpt lat="47.57629" lon="-2.29147">
        <ele>35.5</ele>
        <time>2025-01-16T09:28:49Z</time>
      </trkpt>
      <trkpt lat="47.57629" lon="-2.29147">
        <ele>35.5</ele>
        <time>2025-01-16T09:28:50Z</time>
      </trkpt>
      <trkpt lat="47.57628" lon="-2.29146">
        <ele>35.5</ele>
        <time>2025-01-16T09:28:51Z</time>
      </trkpt>
      <trkpt lat="47.57627" lon="-2.29145">
        <ele>35.6</ele>
        <time>2025-01-16T09:28:52Z</time>
      </trkpt>
      <trkpt lat="47.57627" lon="-2.29145">
        <ele>35.6</ele>
        <time>2025-01-16T09:28:53Z</time>
      </trkpt>
      <trkpt lat="47.57627" lon="-2.29144">
        <ele>35.5</ele>
        <time>2025-01-16T09:28:54Z</time>
      </trkpt>
      <trkpt lat="47.57626" lon="-2.29143">
        <ele>35.6</ele>
        <time>2025-01-16T09:28:55Z</time>
      </trkpt>
      <trkpt lat="47.57626" lon="-2.29142">
        <ele>35.6</ele>
        <time>2025-01-16T09:28:56Z</time>
      </trkpt>
      <trkpt lat="47.57626" lon="-2.29141">
        <ele>35.5</ele>
        <time>2025-01-16T09:28:57Z</time>
      </trkpt>
      <trkpt lat="47.57625" lon="-2.2914">
        <ele>35.6</ele>
        <time>2025-01-16T09:28:58Z</time>
      </trkpt>
      <trkpt lat="47.57625" lon="-2.29139">
        <ele>35.5</ele>
        <time>2025-01-16T09:28:59Z</time>
      </trkpt>
      <trkpt lat="47.57624" lon="-2.29138">
        <ele>35.5</ele>
        <time>2025-01-16T09:29:00Z</time>
      </trkpt>
      <trkpt lat="47.57623" lon="-2.29137">
        <ele>35.4</ele>
        <time>2025-01-16T09:29:01Z</time>
      </trkpt>
      <trkpt lat="47.57622" lon="-2.29136">
        <ele>35.3</ele>
        <time>2025-01-16T09:29:02Z</time>
      </trkpt>
      <trkpt lat="47.57621" lon="-2.29134">
        <ele>35.1</ele>
        <time>2025-01-16T09:29:03Z</time>
      </trkpt>
      <trkpt lat="47.5762" lon="-2.29133">
        <ele>35</ele>
        <time>2025-01-16T09:29:04Z</time>
      </trkpt>
      <trkpt lat="47.57618" lon="-2.29132">
        <ele>35.1</ele>
        <time>2025-01-16T09:29:05Z</time>
      </trkpt>
      <trkpt lat="47.57617" lon="-2.29132">
        <ele>35.2</ele>
        <time>2025-01-16T09:29:06Z</time>
      </trkpt>
      <trkpt lat="47.57616" lon="-2.29131">
        <ele>35.1</ele>
        <time>2025-01-16T09:29:07Z</time>
      </trkpt>
      <trkpt lat="47.57615" lon="-2.29131">
        <ele>35.2</ele>
        <time>2025-01-16T09:29:08Z</time>
      </trkpt>
      <trkpt lat="47.57614" lon="-2.2913">
        <ele>35.1</ele>
        <time>2025-01-16T09:29:09Z</time>
      </trkpt>
      <trkpt lat="47.57613" lon="-2.2913">
        <ele>35.2</ele>
        <time>2025-01-16T09:29:10Z</time>
      </trkpt>
      <trkpt lat="47.57612" lon="-2.29129">
        <ele>35.1</ele>
        <time>2025-01-16T09:29:11Z</time>
      </trkpt>
      <trkpt lat="47.57612" lon="-2.29128">
        <ele>35</ele>
        <time>2025-01-16T09:29:12Z</time>
      </trkpt>
      <trkpt lat="47.57611" lon="-2.29127">
        <ele>34.9</ele>
        <time>2025-01-16T09:29:13Z</time>
      </trkpt>
      <trkpt lat="47.57609" lon="-2.29127">
        <ele>34.9</ele>
        <time>2025-01-16T09:29:14Z</time>
      </trkpt>
      <trkpt lat="47.57608" lon="-2.29126">
        <ele>34.8</ele>
        <time>2025-01-16T09:29:15Z</time>
      </trkpt>
      <trkpt lat="47.57607" lon="-2.29125">
        <ele>34.6</ele>
        <time>2025-01-16T09:29:16Z</time>
      </trkpt>
      <trkpt lat="47.57605" lon="-2.29124">
        <ele>34.6</ele>
        <time>2025-01-16T09:29:17Z</time>
      </trkpt>
      <trkpt lat="47.57604" lon="-2.29124">
        <ele>34.6</ele>
        <time>2025-01-16T09:29:18Z</time>
      </trkpt>
      <trkpt lat="47.57603" lon="-2.29123">
        <ele>34.5</ele>
        <time>2025-01-16T09:29:19Z</time>
      </trkpt>
      <trkpt lat="47.57601" lon="-2.29123">
        <ele>34.6</ele>
        <time>2025-01-16T09:29:20Z</time>
      </trkpt>
      <trkpt lat="47.57599" lon="-2.29122">
        <ele>34.5</ele>
        <time>2025-01-16T09:29:21Z</time>
      </trkpt>
      <trkpt lat="47.57598" lon="-2.29122">
        <ele>34.5</ele>
        <time>2025-01-16T09:29:22Z</time>
      </trkpt>
      <trkpt lat="47.57597" lon="-2.29122">
        <ele>34.6</ele>
        <time>2025-01-16T09:29:23Z</time>
      </trkpt>
      <trkpt lat="47.57595" lon="-2.29121">
        <ele>34.5</ele>
        <time>2025-01-16T09:29:24Z</time>
      </trkpt>
      <trkpt lat="47.57594" lon="-2.2912">
        <ele>34.4</ele>
        <time>2025-01-16T09:29:25Z</time>
      </trkpt>
      <trkpt lat="47.57592" lon="-2.2912">
        <ele>34.5</ele>
        <time>2025-01-16T09:29:26Z</time>
      </trkpt>
      <trkpt lat="47.57591" lon="-2.29119">
        <ele>34.5</ele>
        <time>2025-01-16T09:29:27Z</time>
      </trkpt>
      <trkpt lat="47.5759" lon="-2.29118">
        <ele>34.4</ele>
        <time>2025-01-16T09:29:28Z</time>
      </trkpt>
      <trkpt lat="47.57589" lon="-2.29117">
        <ele>34.3</ele>
        <time>2025-01-16T09:29:29Z</time>
      </trkpt>
      <trkpt lat="47.57588" lon="-2.29116">
        <ele>34.3</ele>
        <time>2025-01-16T09:29:30Z</time>
      </trkpt>
      <trkpt lat="47.57587" lon="-2.29116">
        <ele>34.3</ele>
        <time>2025-01-16T09:29:31Z</time>
      </trkpt>
      <trkpt lat="47.57586" lon="-2.29116">
        <ele>34.4</ele>
        <time>2025-01-16T09:29:32Z</time>
      </trkpt>
      <trkpt lat="47.57585" lon="-2.29116">
        <ele>34.4</ele>
        <time>2025-01-16T09:29:33Z</time>
      </trkpt>
      <trkpt lat="47.57584" lon="-2.29115">
        <ele>34.4</ele>
        <time>2025-01-16T09:29:34Z</time>
      </trkpt>
      <trkpt lat="47.57583" lon="-2.29115">
        <ele>34.4</ele>
        <time>2025-01-16T09:29:35Z</time>
      </trkpt>
      <trkpt lat="47.57582" lon="-2.29114">
        <ele>34.4</ele>
        <time>2025-01-16T09:29:36Z</time>
      </trkpt>
      <trkpt lat="47.57581" lon="-2.29114">
        <ele>34.5</ele>
        <time>2025-01-16T09:29:37Z</time>
      </trkpt>
      <trkpt lat="47.5758" lon="-2.29113">
        <ele>34.4</ele>
        <time>2025-01-16T09:29:38Z</time>
      </trkpt>
      <trkpt lat="47.57579" lon="-2.29112">
        <ele>34.4</ele>
        <time>2025-01-16T09:29:39Z</time>
      </trkpt>
      <trkpt lat="47.57578" lon="-2.29111">
        <ele>34.4</ele>
        <time>2025-01-16T09:29:40Z</time>
      </trkpt>
      <trkpt lat="47.57577" lon="-2.29109">
        <ele>34.4</ele>
        <time>2025-01-16T09:29:41Z</time>
      </trkpt>
      <trkpt lat="47.57577" lon="-2.29107">
        <ele>34.4</ele>
        <time>2025-01-16T09:29:42Z</time>
      </trkpt>
      <trkpt lat="47.57576" lon="-2.29106">
        <ele>34.5</ele>
        <time>2025-01-16T09:29:43Z</time>
      </trkpt>
      <trkpt lat="47.57575" lon="-2.29104">
        <ele>34.6</ele>
        <time>2025-01-16T09:29:44Z</time>
      </trkpt>
      <trkpt lat="47.57575" lon="-2.29102">
        <ele>34.6</ele>
        <time>2025-01-16T09:29:45Z</time>
      </trkpt>
      <trkpt lat="47.57574" lon="-2.29101">
        <ele>34.7</ele>
        <time>2025-01-16T09:29:46Z</time>
      </trkpt>
      <trkpt lat="47.57573" lon="-2.291">
        <ele>34.8</ele>
        <time>2025-01-16T09:29:47Z</time>
      </trkpt>
      <trkpt lat="47.57572" lon="-2.29099">
        <ele>34.9</ele>
        <time>2025-01-16T09:29:48Z</time>
      </trkpt>
      <trkpt lat="47.57571" lon="-2.29098">
        <ele>35</ele>
        <time>2025-01-16T09:29:49Z</time>
      </trkpt>
      <trkpt lat="47.57571" lon="-2.29097">
        <ele>35.1</ele>
        <time>2025-01-16T09:29:50Z</time>
      </trkpt>
      <trkpt lat="47.57571" lon="-2.29095">
        <ele>35.1</ele>
        <time>2025-01-16T09:29:51Z</time>
      </trkpt>
      <trkpt lat="47.57571" lon="-2.29094">
        <ele>35.1</ele>
        <time>2025-01-16T09:29:52Z</time>
      </trkpt>
      <trkpt lat="47.57571" lon="-2.29093">
        <ele>35.1</ele>
        <time>2025-01-16T09:29:53Z</time>
      </trkpt>
      <trkpt lat="47.57571" lon="-2.29093">
        <ele>35.1</ele>
        <time>2025-01-16T09:29:54Z</time>
      </trkpt>
      <trkpt lat="47.57571" lon="-2.29092">
        <ele>35.1</ele>
        <time>2025-01-16T09:29:55Z</time>
      </trkpt>
      <trkpt lat="47.57571" lon="-2.29091">
        <ele>35.1</ele>
        <time>2025-01-16T09:29:56Z</time>
      </trkpt>
      <trkpt lat="47.57571" lon="-2.2909">
        <ele>35.1</ele>
        <time>2025-01-16T09:29:57Z</time>
      </trkpt>
      <trkpt lat="47.57571" lon="-2.2909">
        <ele>35.1</ele>
        <time>2025-01-16T09:29:58Z</time>
      </trkpt>
      <trkpt lat="47.57571" lon="-2.2909">
        <ele>35.1</ele>
        <time>2025-01-16T09:29:59Z</time>
      </trkpt>
      <trkpt lat="47.57571" lon="-2.29091">
        <ele>35.1</ele>
        <time>2025-01-16T09:30:00Z</time>
      </trkpt>
      <trkpt lat="47.57571" lon="-2.2909">
        <ele>35.1</ele>
        <time>2025-01-16T09:30:01Z</time>
      </trkpt>
      <trkpt lat="47.57571" lon="-2.2909">
        <ele>35.1</ele>
        <time>2025-01-16T09:30:02Z</time>
      </trkpt>
      <trkpt lat="47.57571" lon="-2.2909">
        <ele>35.1</ele>
        <time>2025-01-16T09:30:03Z</time>
      </trkpt>
      <trkpt lat="47.57571" lon="-2.2909">
        <ele>35.1</ele>
        <time>2025-01-16T09:30:04Z</time>
      </trkpt>
      <trkpt lat="47.57571" lon="-2.29089">
        <ele>35.2</ele>
        <time>2025-01-16T09:30:05Z</time>
      </trkpt>
      <trkpt lat="47.57572" lon="-2.29089">
        <ele>35</ele>
        <time>2025-01-16T09:30:06Z</time>
      </trkpt>
      <trkpt lat="47.57572" lon="-2.29088">
        <ele>35</ele>
        <time>2025-01-16T09:30:07Z</time>
      </trkpt>
      <trkpt lat="47.57573" lon="-2.29087">
        <ele>34.8</ele>
        <time>2025-01-16T09:30:08Z</time>
      </trkpt>
      <trkpt lat="47.57573" lon="-2.29086">
        <ele>34.8</ele>
        <time>2025-01-16T09:30:09Z</time>
      </trkpt>
      <trkpt lat="47.57574" lon="-2.29085">
        <ele>34.7</ele>
        <time>2025-01-16T09:30:10Z</time>
      </trkpt>
      <trkpt lat="47.57575" lon="-2.29084">
        <ele>34.5</ele>
        <time>2025-01-16T09:30:11Z</time>
      </trkpt>
      <trkpt lat="47.57575" lon="-2.29083">
        <ele>34.5</ele>
        <time>2025-01-16T09:30:12Z</time>
      </trkpt>
      <trkpt lat="47.57576" lon="-2.29083">
        <ele>34.4</ele>
        <time>2025-01-16T09:30:13Z</time>
      </trkpt>
      <trkpt lat="47.57576" lon="-2.29083">
        <ele>34.4</ele>
        <time>2025-01-16T09:30:14Z</time>
      </trkpt>
      <trkpt lat="47.57576" lon="-2.29082">
        <ele>34.5</ele>
        <time>2025-01-16T09:30:15Z</time>
      </trkpt>
      <trkpt lat="47.57576" lon="-2.29082">
        <ele>34.5</ele>
        <time>2025-01-16T09:30:16Z</time>
      </trkpt>
      <trkpt lat="47.57576" lon="-2.29082">
        <ele>34.5</ele>
        <time>2025-01-16T09:30:17Z</time>
      </trkpt>
      <trkpt lat="47.57576" lon="-2.29081">
        <ele>34.6</ele>
        <time>2025-01-16T09:30:18Z</time>
      </trkpt>
      <trkpt lat="47.57576" lon="-2.29081">
        <ele>34.6</ele>
        <time>2025-01-16T09:30:19Z</time>
      </trkpt>
      <trkpt lat="47.57576" lon="-2.29081">
        <ele>34.6</ele>
        <time>2025-01-16T09:30:20Z</time>
      </trkpt>
      <trkpt lat="47.57576" lon="-2.2908">
        <ele>34.7</ele>
        <time>2025-01-16T09:30:21Z</time>
      </trkpt>
      <trkpt lat="47.57576" lon="-2.2908">
        <ele>34.7</ele>
        <time>2025-01-16T09:30:22Z</time>
      </trkpt>
      <trkpt lat="47.57576" lon="-2.2908">
        <ele>34.7</ele>
        <time>2025-01-16T09:30:23Z</time>
      </trkpt>
      <trkpt lat="47.57576" lon="-2.2908">
        <ele>34.7</ele>
        <time>2025-01-16T09:30:24Z</time>
      </trkpt>
      <trkpt lat="47.57576" lon="-2.2908">
        <ele>34.7</ele>
        <time>2025-01-16T09:30:25Z</time>
      </trkpt>
      <trkpt lat="47.57576" lon="-2.29079">
        <ele>34.8</ele>
        <time>2025-01-16T09:30:26Z</time>
      </trkpt>
      <trkpt lat="47.57576" lon="-2.29079">
        <ele>34.8</ele>
        <time>2025-01-16T09:30:27Z</time>
      </trkpt>
      <trkpt lat="47.57576" lon="-2.29079">
        <ele>34.8</ele>
        <time>2025-01-16T09:30:28Z</time>
      </trkpt>
      <trkpt lat="47.57576" lon="-2.29079">
        <ele>34.8</ele>
        <time>2025-01-16T09:30:29Z</time>
      </trkpt>
      <trkpt lat="47.57577" lon="-2.29078">
        <ele>34.8</ele>
        <time>2025-01-16T09:30:30Z</time>
      </trkpt>
      <trkpt lat="47.57577" lon="-2.29077">
        <ele>34.9</ele>
        <time>2025-01-16T09:30:31Z</time>
      </trkpt>
      <trkpt lat="47.57578" lon="-2.29077">
        <ele>34.7</ele>
        <time>2025-01-16T09:30:32Z</time>
      </trkpt>
      <trkpt lat="47.57579" lon="-2.29076">
        <ele>34.6</ele>
        <time>2025-01-16T09:30:33Z</time>
      </trkpt>
      <trkpt lat="47.5758" lon="-2.29075">
        <ele>34.5</ele>
        <time>2025-01-16T09:30:34Z</time>
      </trkpt>
      <trkpt lat="47.57581" lon="-2.29074">
        <ele>34.5</ele>
        <time>2025-01-16T09:30:35Z</time>
      </trkpt>
      <trkpt lat="47.57581" lon="-2.29073">
        <ele>34.6</ele>
        <time>2025-01-16T09:30:36Z</time>
      </trkpt>
      <trkpt lat="47.57582" lon="-2.29072">
        <ele>34.5</ele>
        <time>2025-01-16T09:30:37Z</time>
      </trkpt>
      <trkpt lat="47.57583" lon="-2.29071">
        <ele>34.4</ele>
        <time>2025-01-16T09:30:38Z</time>
      </trkpt>
      <trkpt lat="47.57584" lon="-2.2907">
        <ele>34.3</ele>
        <time>2025-01-16T09:30:39Z</time>
      </trkpt>
      <trkpt lat="47.57584" lon="-2.29068">
        <ele>34.5</ele>
        <time>2025-01-16T09:30:40Z</time>
      </trkpt>
      <trkpt lat="47.57585" lon="-2.29068">
        <ele>34.2</ele>
        <time>2025-01-16T09:30:41Z</time>
      </trkpt>
      <trkpt lat="47.57586" lon="-2.29067">
        <ele>34.1</ele>
        <time>2025-01-16T09:30:42Z</time>
      </trkpt>
      <trkpt lat="47.57586" lon="-2.29066">
        <ele>34.2</ele>
        <time>2025-01-16T09:30:43Z</time>
      </trkpt>
      <trkpt lat="47.57587" lon="-2.29065">
        <ele>34.1</ele>
        <time>2025-01-16T09:30:44Z</time>
      </trkpt>
      <trkpt lat="47.57588" lon="-2.29064">
        <ele>33.9</ele>
        <time>2025-01-16T09:30:45Z</time>
      </trkpt>
      <trkpt lat="47.57589" lon="-2.29063">
        <ele>33.8</ele>
        <time>2025-01-16T09:30:46Z</time>
      </trkpt>
      <trkpt lat="47.57589" lon="-2.29062">
        <ele>33.9</ele>
        <time>2025-01-16T09:30:47Z</time>
      </trkpt>
      <trkpt lat="47.5759" lon="-2.29061">
        <ele>33.7</ele>
        <time>2025-01-16T09:30:48Z</time>
      </trkpt>
      <trkpt lat="47.5759" lon="-2.29061">
        <ele>33.7</ele>
        <time>2025-01-16T09:30:49Z</time>
      </trkpt>
      <trkpt lat="47.57591" lon="-2.2906">
        <ele>33.6</ele>
        <time>2025-01-16T09:30:50Z</time>
      </trkpt>
      <trkpt lat="47.57592" lon="-2.29059">
        <ele>33.4</ele>
        <time>2025-01-16T09:30:51Z</time>
      </trkpt>
      <trkpt lat="47.57592" lon="-2.29058">
        <ele>33.6</ele>
        <time>2025-01-16T09:30:52Z</time>
      </trkpt>
      <trkpt lat="47.57593" lon="-2.29057">
        <ele>33.4</ele>
        <time>2025-01-16T09:30:53Z</time>
      </trkpt>
      <trkpt lat="47.57594" lon="-2.29056">
        <ele>33.3</ele>
        <time>2025-01-16T09:30:54Z</time>
      </trkpt>
      <trkpt lat="47.57594" lon="-2.29055">
        <ele>33.3</ele>
        <time>2025-01-16T09:30:55Z</time>
      </trkpt>
      <trkpt lat="47.57595" lon="-2.29053">
        <ele>33.2</ele>
        <time>2025-01-16T09:30:56Z</time>
      </trkpt>
      <trkpt lat="47.57596" lon="-2.29052">
        <ele>33.1</ele>
        <time>2025-01-16T09:30:57Z</time>
      </trkpt>
      <trkpt lat="47.57597" lon="-2.2905">
        <ele>33</ele>
        <time>2025-01-16T09:30:58Z</time>
      </trkpt>
      <trkpt lat="47.57597" lon="-2.29049">
        <ele>33</ele>
        <time>2025-01-16T09:30:59Z</time>
      </trkpt>
      <trkpt lat="47.57598" lon="-2.29048">
        <ele>32.9</ele>
        <time>2025-01-16T09:31:00Z</time>
      </trkpt>
      <trkpt lat="47.57599" lon="-2.29046">
        <ele>32.8</ele>
        <time>2025-01-16T09:31:01Z</time>
      </trkpt>
      <trkpt lat="47.57599" lon="-2.29045">
        <ele>32.9</ele>
        <time>2025-01-16T09:31:02Z</time>
      </trkpt>
      <trkpt lat="47.576" lon="-2.29044">
        <ele>32.7</ele>
        <time>2025-01-16T09:31:03Z</time>
      </trkpt>
      <trkpt lat="47.57601" lon="-2.29042">
        <ele>32.7</ele>
        <time>2025-01-16T09:31:04Z</time>
      </trkpt>
      <trkpt lat="47.57602" lon="-2.29041">
        <ele>32.5</ele>
        <time>2025-01-16T09:31:05Z</time>
      </trkpt>
      <trkpt lat="47.57603" lon="-2.2904">
        <ele>32.4</ele>
        <time>2025-01-16T09:31:06Z</time>
      </trkpt>
      <trkpt lat="47.57603" lon="-2.29039">
        <ele>32.5</ele>
        <time>2025-01-16T09:31:07Z</time>
      </trkpt>
      <trkpt lat="47.57604" lon="-2.29039">
        <ele>32.3</ele>
        <time>2025-01-16T09:31:08Z</time>
      </trkpt>
      <trkpt lat="47.57605" lon="-2.29038">
        <ele>32.2</ele>
        <time>2025-01-16T09:31:09Z</time>
      </trkpt>
      <trkpt lat="47.57606" lon="-2.29038">
        <ele>32</ele>
        <time>2025-01-16T09:31:10Z</time>
      </trkpt>
      <trkpt lat="47.57607" lon="-2.29037">
        <ele>31.8</ele>
        <time>2025-01-16T09:31:11Z</time>
      </trkpt>
      <trkpt lat="47.57608" lon="-2.29036">
        <ele>31.7</ele>
        <time>2025-01-16T09:31:12Z</time>
      </trkpt>
      <trkpt lat="47.57609" lon="-2.29035">
        <ele>31.6</ele>
        <time>2025-01-16T09:31:13Z</time>
      </trkpt>
      <trkpt lat="47.5761" lon="-2.29034">
        <ele>31.5</ele>
        <time>2025-01-16T09:31:14Z</time>
      </trkpt>
      <trkpt lat="47.57611" lon="-2.29032">
        <ele>31.6</ele>
        <time>2025-01-16T09:31:15Z</time>
      </trkpt>
      <trkpt lat="47.57612" lon="-2.29031">
        <ele>31.4</ele>
        <time>2025-01-16T09:31:16Z</time>
      </trkpt>
      <trkpt lat="47.57612" lon="-2.29029">
        <ele>31.7</ele>
        <time>2025-01-16T09:31:17Z</time>
      </trkpt>
      <trkpt lat="47.57613" lon="-2.29028">
        <ele>31.6</ele>
        <time>2025-01-16T09:31:18Z</time>
      </trkpt>
      <trkpt lat="47.57614" lon="-2.29026">
        <ele>31.4</ele>
        <time>2025-01-16T09:31:19Z</time>
      </trkpt>
      <trkpt lat="47.57615" lon="-2.29025">
        <ele>31.2</ele>
        <time>2025-01-16T09:31:20Z</time>
      </trkpt>
      <trkpt lat="47.57616" lon="-2.29024">
        <ele>31</ele>
        <time>2025-01-16T09:31:21Z</time>
      </trkpt>
      <trkpt lat="47.57617" lon="-2.29023">
        <ele>30.8</ele>
        <time>2025-01-16T09:31:22Z</time>
      </trkpt>
      <trkpt lat="47.57618" lon="-2.29022">
        <ele>30.6</ele>
        <time>2025-01-16T09:31:23Z</time>
      </trkpt>
      <trkpt lat="47.57618" lon="-2.29022">
        <ele>30.6</ele>
        <time>2025-01-16T09:31:24Z</time>
      </trkpt>
      <trkpt lat="47.57619" lon="-2.29021">
        <ele>30.4</ele>
        <time>2025-01-16T09:31:25Z</time>
      </trkpt>
      <trkpt lat="47.5762" lon="-2.29021">
        <ele>30.2</ele>
        <time>2025-01-16T09:31:26Z</time>
      </trkpt>
      <trkpt lat="47.57621" lon="-2.2902">
        <ele>30.1</ele>
        <time>2025-01-16T09:31:27Z</time>
      </trkpt>
      <trkpt lat="47.57622" lon="-2.29019">
        <ele>29.9</ele>
        <time>2025-01-16T09:31:28Z</time>
      </trkpt>
      <trkpt lat="47.57623" lon="-2.29018">
        <ele>29.7</ele>
        <time>2025-01-16T09:31:29Z</time>
      </trkpt>
      <trkpt lat="47.57623" lon="-2.29017">
        <ele>29.8</ele>
        <time>2025-01-16T09:31:30Z</time>
      </trkpt>
      <trkpt lat="47.57624" lon="-2.29016">
        <ele>29.6</ele>
        <time>2025-01-16T09:31:31Z</time>
      </trkpt>
      <trkpt lat="47.57625" lon="-2.29015">
        <ele>29.5</ele>
        <time>2025-01-16T09:31:32Z</time>
      </trkpt>
      <trkpt lat="47.57626" lon="-2.29013">
        <ele>29.4</ele>
        <time>2025-01-16T09:31:33Z</time>
      </trkpt>
      <trkpt lat="47.57626" lon="-2.29012">
        <ele>29.4</ele>
        <time>2025-01-16T09:31:34Z</time>
      </trkpt>
      <trkpt lat="47.57627" lon="-2.29011">
        <ele>29.3</ele>
        <time>2025-01-16T09:31:35Z</time>
      </trkpt>
      <trkpt lat="47.57628" lon="-2.2901">
        <ele>29.1</ele>
        <time>2025-01-16T09:31:36Z</time>
      </trkpt>
      <trkpt lat="47.57629" lon="-2.29008">
        <ele>29.1</ele>
        <time>2025-01-16T09:31:37Z</time>
      </trkpt>
      <trkpt lat="47.57629" lon="-2.29007">
        <ele>29.1</ele>
        <time>2025-01-16T09:31:38Z</time>
      </trkpt>
      <trkpt lat="47.5763" lon="-2.29005">
        <ele>29</ele>
        <time>2025-01-16T09:31:39Z</time>
      </trkpt>
      <trkpt lat="47.5763" lon="-2.29003">
        <ele>29.1</ele>
        <time>2025-01-16T09:31:40Z</time>
      </trkpt>
      <trkpt lat="47.57631" lon="-2.29002">
        <ele>29</ele>
        <time>2025-01-16T09:31:41Z</time>
      </trkpt>
      <trkpt lat="47.57632" lon="-2.29">
        <ele>29</ele>
        <time>2025-01-16T09:31:42Z</time>
      </trkpt>
      <trkpt lat="47.57632" lon="-2.28998">
        <ele>28.9</ele>
        <time>2025-01-16T09:31:43Z</time>
      </trkpt>
      <trkpt lat="47.57633" lon="-2.28997">
        <ele>28.7</ele>
        <time>2025-01-16T09:31:44Z</time>
      </trkpt>
      <trkpt lat="47.57633" lon="-2.28995">
        <ele>28.6</ele>
        <time>2025-01-16T09:31:45Z</time>
      </trkpt>
      <trkpt lat="47.57633" lon="-2.28993">
        <ele>28.5</ele>
        <time>2025-01-16T09:31:46Z</time>
      </trkpt>
      <trkpt lat="47.57634" lon="-2.28992">
        <ele>28.3</ele>
        <time>2025-01-16T09:31:47Z</time>
      </trkpt>
      <trkpt lat="47.57634" lon="-2.28991">
        <ele>28.3</ele>
        <time>2025-01-16T09:31:48Z</time>
      </trkpt>
      <trkpt lat="47.57635" lon="-2.28989">
        <ele>28.1</ele>
        <time>2025-01-16T09:31:49Z</time>
      </trkpt>
      <trkpt lat="47.57635" lon="-2.28988">
        <ele>28</ele>
        <time>2025-01-16T09:31:50Z</time>
      </trkpt>
      <trkpt lat="47.57635" lon="-2.28986">
        <ele>27.9</ele>
        <time>2025-01-16T09:31:51Z</time>
      </trkpt>
      <trkpt lat="47.57636" lon="-2.28985">
        <ele>27.8</ele>
        <time>2025-01-16T09:31:52Z</time>
      </trkpt>
      <trkpt lat="47.57636" lon="-2.28984">
        <ele>27.7</ele>
        <time>2025-01-16T09:31:53Z</time>
      </trkpt>
      <trkpt lat="47.57637" lon="-2.28983">
        <ele>27.6</ele>
        <time>2025-01-16T09:31:54Z</time>
      </trkpt>
      <trkpt lat="47.57637" lon="-2.28982">
        <ele>27.5</ele>
        <time>2025-01-16T09:31:55Z</time>
      </trkpt>
      <trkpt lat="47.57637" lon="-2.28981">
        <ele>27.5</ele>
        <time>2025-01-16T09:31:56Z</time>
      </trkpt>
      <trkpt lat="47.57638" lon="-2.28979">
        <ele>27.3</ele>
        <time>2025-01-16T09:31:57Z</time>
      </trkpt>
      <trkpt lat="47.57638" lon="-2.28978">
        <ele>27.3</ele>
        <time>2025-01-16T09:31:58Z</time>
      </trkpt>
      <trkpt lat="47.57638" lon="-2.28977">
        <ele>27.2</ele>
        <time>2025-01-16T09:31:59Z</time>
      </trkpt>
      <trkpt lat="47.57639" lon="-2.28976">
        <ele>27.1</ele>
        <time>2025-01-16T09:32:00Z</time>
      </trkpt>
      <trkpt lat="47.57639" lon="-2.28975">
        <ele>27.1</ele>
        <time>2025-01-16T09:32:01Z</time>
      </trkpt>
      <trkpt lat="47.57639" lon="-2.28973">
        <ele>27</ele>
        <time>2025-01-16T09:32:02Z</time>
      </trkpt>
      <trkpt lat="47.5764" lon="-2.28972">
        <ele>26.7</ele>
        <time>2025-01-16T09:32:03Z</time>
      </trkpt>
      <trkpt lat="47.5764" lon="-2.2897">
        <ele>26.6</ele>
        <time>2025-01-16T09:32:04Z</time>
      </trkpt>
      <trkpt lat="47.57641" lon="-2.28969">
        <ele>26.3</ele>
        <time>2025-01-16T09:32:05Z</time>
      </trkpt>
      <trkpt lat="47.57641" lon="-2.28968">
        <ele>26.2</ele>
        <time>2025-01-16T09:32:06Z</time>
      </trkpt>
      <trkpt lat="47.57642" lon="-2.28966">
        <ele>25.8</ele>
        <time>2025-01-16T09:32:07Z</time>
      </trkpt>
      <trkpt lat="47.57642" lon="-2.28965">
        <ele>25.8</ele>
        <time>2025-01-16T09:32:08Z</time>
      </trkpt>
      <trkpt lat="47.57642" lon="-2.28963">
        <ele>25.7</ele>
        <time>2025-01-16T09:32:09Z</time>
      </trkpt>
      <trkpt lat="47.57643" lon="-2.28962">
        <ele>25.4</ele>
        <time>2025-01-16T09:32:10Z</time>
      </trkpt>
      <trkpt lat="47.57643" lon="-2.28961">
        <ele>25.3</ele>
        <time>2025-01-16T09:32:11Z</time>
      </trkpt>
      <trkpt lat="47.57644" lon="-2.2896">
        <ele>25.1</ele>
        <time>2025-01-16T09:32:12Z</time>
      </trkpt>
      <trkpt lat="47.57644" lon="-2.28959">
        <ele>25</ele>
        <time>2025-01-16T09:32:13Z</time>
      </trkpt>
      <trkpt lat="47.57645" lon="-2.28957">
        <ele>24.7</ele>
        <time>2025-01-16T09:32:14Z</time>
      </trkpt>
      <trkpt lat="47.57645" lon="-2.28956">
        <ele>24.7</ele>
        <time>2025-01-16T09:32:15Z</time>
      </trkpt>
      <trkpt lat="47.57646" lon="-2.28954">
        <ele>24.4</ele>
        <time>2025-01-16T09:32:16Z</time>
      </trkpt>
      <trkpt lat="47.57647" lon="-2.28952">
        <ele>24.1</ele>
        <time>2025-01-16T09:32:17Z</time>
      </trkpt>
      <trkpt lat="47.57647" lon="-2.28951">
        <ele>24.1</ele>
        <time>2025-01-16T09:32:18Z</time>
      </trkpt>
      <trkpt lat="47.57648" lon="-2.28949">
        <ele>23.9</ele>
        <time>2025-01-16T09:32:19Z</time>
      </trkpt>
      <trkpt lat="47.57649" lon="-2.28948">
        <ele>23.7</ele>
        <time>2025-01-16T09:32:20Z</time>
      </trkpt>
      <trkpt lat="47.5765" lon="-2.28947">
        <ele>23.5</ele>
        <time>2025-01-16T09:32:21Z</time>
      </trkpt>
      <trkpt lat="47.5765" lon="-2.28946">
        <ele>23.4</ele>
        <time>2025-01-16T09:32:22Z</time>
      </trkpt>
      <trkpt lat="47.57651" lon="-2.28944">
        <ele>23.2</ele>
        <time>2025-01-16T09:32:23Z</time>
      </trkpt>
      <trkpt lat="47.57651" lon="-2.28943">
        <ele>23.2</ele>
        <time>2025-01-16T09:32:24Z</time>
      </trkpt>
      <trkpt lat="47.57652" lon="-2.28941">
        <ele>23</ele>
        <time>2025-01-16T09:32:25Z</time>
      </trkpt>
      <trkpt lat="47.57652" lon="-2.28939">
        <ele>23</ele>
        <time>2025-01-16T09:32:26Z</time>
      </trkpt>
      <trkpt lat="47.57652" lon="-2.28938">
        <ele>23</ele>
        <time>2025-01-16T09:32:27Z</time>
      </trkpt>
      <trkpt lat="47.57653" lon="-2.28937">
        <ele>22.8</ele>
        <time>2025-01-16T09:32:28Z</time>
      </trkpt>
      <trkpt lat="47.57654" lon="-2.28935">
        <ele>22.7</ele>
        <time>2025-01-16T09:32:29Z</time>
      </trkpt>
      <trkpt lat="47.57654" lon="-2.28934">
        <ele>22.7</ele>
        <time>2025-01-16T09:32:30Z</time>
      </trkpt>
      <trkpt lat="47.57655" lon="-2.28932">
        <ele>22.5</ele>
        <time>2025-01-16T09:32:31Z</time>
      </trkpt>
      <trkpt lat="47.57655" lon="-2.2893">
        <ele>22.5</ele>
        <time>2025-01-16T09:32:32Z</time>
      </trkpt>
      <trkpt lat="47.57656" lon="-2.28929">
        <ele>22.3</ele>
        <time>2025-01-16T09:32:33Z</time>
      </trkpt>
      <trkpt lat="47.57656" lon="-2.28928">
        <ele>22.3</ele>
        <time>2025-01-16T09:32:34Z</time>
      </trkpt>
      <trkpt lat="47.57656" lon="-2.28927">
        <ele>22.3</ele>
        <time>2025-01-16T09:32:35Z</time>
      </trkpt>
      <trkpt lat="47.57657" lon="-2.28926">
        <ele>22.2</ele>
        <time>2025-01-16T09:32:36Z</time>
      </trkpt>
      <trkpt lat="47.57658" lon="-2.28924">
        <ele>22</ele>
        <time>2025-01-16T09:32:37Z</time>
      </trkpt>
      <trkpt lat="47.57658" lon="-2.28923">
        <ele>22</ele>
        <time>2025-01-16T09:32:38Z</time>
      </trkpt>
      <trkpt lat="47.57658" lon="-2.28922">
        <ele>22</ele>
        <time>2025-01-16T09:32:39Z</time>
      </trkpt>
      <trkpt lat="47.57658" lon="-2.2892">
        <ele>22</ele>
        <time>2025-01-16T09:32:40Z</time>
      </trkpt>
      <trkpt lat="47.57659" lon="-2.28918">
        <ele>21.8</ele>
        <time>2025-01-16T09:32:41Z</time>
      </trkpt>
      <trkpt lat="47.57659" lon="-2.28917">
        <ele>21.8</ele>
        <time>2025-01-16T09:32:42Z</time>
      </trkpt>
      <trkpt lat="47.5766" lon="-2.28916">
        <ele>21.7</ele>
        <time>2025-01-16T09:32:43Z</time>
      </trkpt>
      <trkpt lat="47.5766" lon="-2.28914">
        <ele>21.5</ele>
        <time>2025-01-16T09:32:44Z</time>
      </trkpt>
      <trkpt lat="47.5766" lon="-2.28913">
        <ele>21.4</ele>
        <time>2025-01-16T09:32:45Z</time>
      </trkpt>
      <trkpt lat="47.5766" lon="-2.28911">
        <ele>21.2</ele>
        <time>2025-01-16T09:32:46Z</time>
      </trkpt>
      <trkpt lat="47.5766" lon="-2.2891">
        <ele>21.1</ele>
        <time>2025-01-16T09:32:47Z</time>
      </trkpt>
      <trkpt lat="47.5766" lon="-2.28908">
        <ele>20.9</ele>
        <time>2025-01-16T09:32:48Z</time>
      </trkpt>
      <trkpt lat="47.57659" lon="-2.28907">
        <ele>20.9</ele>
        <time>2025-01-16T09:32:49Z</time>
      </trkpt>
      <trkpt lat="47.57659" lon="-2.28905">
        <ele>20.8</ele>
        <time>2025-01-16T09:32:50Z</time>
      </trkpt>
      <trkpt lat="47.57658" lon="-2.28904">
        <ele>20.7</ele>
        <time>2025-01-16T09:32:51Z</time>
      </trkpt>
      <trkpt lat="47.57657" lon="-2.28903">
        <ele>20.7</ele>
        <time>2025-01-16T09:32:52Z</time>
      </trkpt>
      <trkpt lat="47.57657" lon="-2.28902">
        <ele>20.6</ele>
        <time>2025-01-16T09:32:53Z</time>
      </trkpt>
      <trkpt lat="47.57656" lon="-2.28901">
        <ele>20.6</ele>
        <time>2025-01-16T09:32:54Z</time>
      </trkpt>
      <trkpt lat="47.57655" lon="-2.289">
        <ele>20.6</ele>
        <time>2025-01-16T09:32:55Z</time>
      </trkpt>
      <trkpt lat="47.57654" lon="-2.28899">
        <ele>20.5</ele>
        <time>2025-01-16T09:32:56Z</time>
      </trkpt>
      <trkpt lat="47.57653" lon="-2.28897">
        <ele>20.4</ele>
        <time>2025-01-16T09:32:57Z</time>
      </trkpt>
      <trkpt lat="47.57653" lon="-2.28895">
        <ele>20.1</ele>
        <time>2025-01-16T09:32:58Z</time>
      </trkpt>
      <trkpt lat="47.57652" lon="-2.28894">
        <ele>20.1</ele>
        <time>2025-01-16T09:32:59Z</time>
      </trkpt>
      <trkpt lat="47.57651" lon="-2.28893">
        <ele>20</ele>
        <time>2025-01-16T09:33:00Z</time>
      </trkpt>
      <trkpt lat="47.5765" lon="-2.28891">
        <ele>19.8</ele>
        <time>2025-01-16T09:33:01Z</time>
      </trkpt>
      <trkpt lat="47.57648" lon="-2.2889">
        <ele>19.8</ele>
        <time>2025-01-16T09:33:02Z</time>
      </trkpt>
      <trkpt lat="47.57647" lon="-2.28889">
        <ele>19.7</ele>
        <time>2025-01-16T09:33:03Z</time>
      </trkpt>
      <trkpt lat="47.57647" lon="-2.28887">
        <ele>19.5</ele>
        <time>2025-01-16T09:33:04Z</time>
      </trkpt>
      <trkpt lat="47.57646" lon="-2.28887">
        <ele>19.5</ele>
        <time>2025-01-16T09:33:05Z</time>
      </trkpt>
      <trkpt lat="47.57645" lon="-2.28886">
        <ele>19.4</ele>
        <time>2025-01-16T09:33:06Z</time>
      </trkpt>
      <trkpt lat="47.57645" lon="-2.28886">
        <ele>19.4</ele>
        <time>2025-01-16T09:33:07Z</time>
      </trkpt>
      <trkpt lat="47.57644" lon="-2.28885">
        <ele>19.3</ele>
        <time>2025-01-16T09:33:08Z</time>
      </trkpt>
      <trkpt lat="47.57642" lon="-2.28885">
        <ele>19.3</ele>
        <time>2025-01-16T09:33:09Z</time>
      </trkpt>
      <trkpt lat="47.57641" lon="-2.28884">
        <ele>19.2</ele>
        <time>2025-01-16T09:33:10Z</time>
      </trkpt>
      <trkpt lat="47.57639" lon="-2.28883">
        <ele>19.1</ele>
        <time>2025-01-16T09:33:11Z</time>
      </trkpt>
      <trkpt lat="47.57639" lon="-2.28883">
        <ele>19.1</ele>
        <time>2025-01-16T09:33:12Z</time>
      </trkpt>
      <trkpt lat="47.57638" lon="-2.28882">
        <ele>18.9</ele>
        <time>2025-01-16T09:33:13Z</time>
      </trkpt>
      <trkpt lat="47.57636" lon="-2.28882">
        <ele>18.8</ele>
        <time>2025-01-16T09:33:14Z</time>
      </trkpt>
      <trkpt lat="47.57635" lon="-2.28881">
        <ele>18.6</ele>
        <time>2025-01-16T09:33:15Z</time>
      </trkpt>
      <trkpt lat="47.57634" lon="-2.28881">
        <ele>18.5</ele>
        <time>2025-01-16T09:33:16Z</time>
      </trkpt>
      <trkpt lat="47.57633" lon="-2.2888">
        <ele>18.3</ele>
        <time>2025-01-16T09:33:17Z</time>
      </trkpt>
      <trkpt lat="47.57631" lon="-2.2888">
        <ele>18.2</ele>
        <time>2025-01-16T09:33:18Z</time>
      </trkpt>
      <trkpt lat="47.5763" lon="-2.28879">
        <ele>17.9</ele>
        <time>2025-01-16T09:33:19Z</time>
      </trkpt>
      <trkpt lat="47.57628" lon="-2.28879">
        <ele>17.8</ele>
        <time>2025-01-16T09:33:20Z</time>
      </trkpt>
      <trkpt lat="47.57627" lon="-2.28878">
        <ele>17.6</ele>
        <time>2025-01-16T09:33:21Z</time>
      </trkpt>
      <trkpt lat="47.57626" lon="-2.28878">
        <ele>17.5</ele>
        <time>2025-01-16T09:33:22Z</time>
      </trkpt>
      <trkpt lat="47.57626" lon="-2.28878">
        <ele>17.5</ele>
        <time>2025-01-16T09:33:23Z</time>
      </trkpt>
      <trkpt lat="47.57625" lon="-2.28878">
        <ele>17.4</ele>
        <time>2025-01-16T09:33:24Z</time>
      </trkpt>
      <trkpt lat="47.57624" lon="-2.28878">
        <ele>17.4</ele>
        <time>2025-01-16T09:33:25Z</time>
      </trkpt>
      <trkpt lat="47.57623" lon="-2.28878">
        <ele>17.3</ele>
        <time>2025-01-16T09:33:26Z</time>
      </trkpt>
      <trkpt lat="47.57622" lon="-2.28878">
        <ele>17.2</ele>
        <time>2025-01-16T09:33:27Z</time>
      </trkpt>
      <trkpt lat="47.57622" lon="-2.28877">
        <ele>17.1</ele>
        <time>2025-01-16T09:33:28Z</time>
      </trkpt>
      <trkpt lat="47.57621" lon="-2.28876">
        <ele>16.9</ele>
        <time>2025-01-16T09:33:29Z</time>
      </trkpt>
      <trkpt lat="47.5762" lon="-2.28875">
        <ele>16.6</ele>
        <time>2025-01-16T09:33:30Z</time>
      </trkpt>
      <trkpt lat="47.57619" lon="-2.28874">
        <ele>16.4</ele>
        <time>2025-01-16T09:33:31Z</time>
      </trkpt>
      <trkpt lat="47.57618" lon="-2.28873">
        <ele>16.2</ele>
        <time>2025-01-16T09:33:32Z</time>
      </trkpt>
      <trkpt lat="47.57617" lon="-2.28873">
        <ele>16.1</ele>
        <time>2025-01-16T09:33:33Z</time>
      </trkpt>
      <trkpt lat="47.57616" lon="-2.28872">
        <ele>15.9</ele>
        <time>2025-01-16T09:33:34Z</time>
      </trkpt>
      <trkpt lat="47.57614" lon="-2.28872">
        <ele>15.8</ele>
        <time>2025-01-16T09:33:35Z</time>
      </trkpt>
      <trkpt lat="47.57613" lon="-2.28871">
        <ele>15.6</ele>
        <time>2025-01-16T09:33:36Z</time>
      </trkpt>
      <trkpt lat="47.57611" lon="-2.2887">
        <ele>15.3</ele>
        <time>2025-01-16T09:33:37Z</time>
      </trkpt>
      <trkpt lat="47.5761" lon="-2.2887">
        <ele>15.3</ele>
        <time>2025-01-16T09:33:38Z</time>
      </trkpt>
      <trkpt lat="47.57609" lon="-2.28869">
        <ele>15.2</ele>
        <time>2025-01-16T09:33:39Z</time>
      </trkpt>
      <trkpt lat="47.57607" lon="-2.28868">
        <ele>15.1</ele>
        <time>2025-01-16T09:33:40Z</time>
      </trkpt>
      <trkpt lat="47.57606" lon="-2.28867">
        <ele>15</ele>
        <time>2025-01-16T09:33:41Z</time>
      </trkpt>
      <trkpt lat="47.57605" lon="-2.28867">
        <ele>15.1</ele>
        <time>2025-01-16T09:33:42Z</time>
      </trkpt>
      <trkpt lat="47.57604" lon="-2.28867">
        <ele>15.1</ele>
        <time>2025-01-16T09:33:43Z</time>
      </trkpt>
      <trkpt lat="47.57603" lon="-2.28866">
        <ele>15</ele>
        <time>2025-01-16T09:33:44Z</time>
      </trkpt>
      <trkpt lat="47.57602" lon="-2.28865">
        <ele>14.9</ele>
        <time>2025-01-16T09:33:45Z</time>
      </trkpt>
      <trkpt lat="47.576" lon="-2.28864">
        <ele>14.8</ele>
        <time>2025-01-16T09:33:46Z</time>
      </trkpt>
      <trkpt lat="47.57599" lon="-2.28862">
        <ele>14.6</ele>
        <time>2025-01-16T09:33:47Z</time>
      </trkpt>
      <trkpt lat="47.57597" lon="-2.28861">
        <ele>14.5</ele>
        <time>2025-01-16T09:33:48Z</time>
      </trkpt>
      <trkpt lat="47.57596" lon="-2.2886">
        <ele>14.4</ele>
        <time>2025-01-16T09:33:49Z</time>
      </trkpt>
      <trkpt lat="47.57595" lon="-2.28859">
        <ele>14.3</ele>
        <time>2025-01-16T09:33:50Z</time>
      </trkpt>
      <trkpt lat="47.57594" lon="-2.28858">
        <ele>14.2</ele>
        <time>2025-01-16T09:33:51Z</time>
      </trkpt>
      <trkpt lat="47.57593" lon="-2.28858">
        <ele>14.2</ele>
        <time>2025-01-16T09:33:52Z</time>
      </trkpt>
      <trkpt lat="47.57592" lon="-2.28857">
        <ele>14.1</ele>
        <time>2025-01-16T09:33:53Z</time>
      </trkpt>
      <trkpt lat="47.57591" lon="-2.28855">
        <ele>13.9</ele>
        <time>2025-01-16T09:33:54Z</time>
      </trkpt>
      <trkpt lat="47.5759" lon="-2.28854">
        <ele>13.8</ele>
        <time>2025-01-16T09:33:55Z</time>
      </trkpt>
      <trkpt lat="47.57589" lon="-2.28853">
        <ele>13.7</ele>
        <time>2025-01-16T09:33:56Z</time>
      </trkpt>
      <trkpt lat="47.57588" lon="-2.28851">
        <ele>13.6</ele>
        <time>2025-01-16T09:33:57Z</time>
      </trkpt>
      <trkpt lat="47.57587" lon="-2.2885">
        <ele>13.5</ele>
        <time>2025-01-16T09:33:58Z</time>
      </trkpt>
      <trkpt lat="47.57586" lon="-2.28848">
        <ele>13.4</ele>
        <time>2025-01-16T09:33:59Z</time>
      </trkpt>
      <trkpt lat="47.57586" lon="-2.28846">
        <ele>13.1</ele>
        <time>2025-01-16T09:34:00Z</time>
      </trkpt>
      <trkpt lat="47.57585" lon="-2.28845">
        <ele>13.1</ele>
        <time>2025-01-16T09:34:01Z</time>
      </trkpt>
      <trkpt lat="47.57585" lon="-2.28843">
        <ele>12.9</ele>
        <time>2025-01-16T09:34:02Z</time>
      </trkpt>
      <trkpt lat="47.57585" lon="-2.28842">
        <ele>12.8</ele>
        <time>2025-01-16T09:34:03Z</time>
      </trkpt>
      <trkpt lat="47.57585" lon="-2.2884">
        <ele>12.5</ele>
        <time>2025-01-16T09:34:04Z</time>
      </trkpt>
      <trkpt lat="47.57584" lon="-2.28838">
        <ele>12.4</ele>
        <time>2025-01-16T09:34:05Z</time>
      </trkpt>
      <trkpt lat="47.57584" lon="-2.28836">
        <ele>12.2</ele>
        <time>2025-01-16T09:34:06Z</time>
      </trkpt>
      <trkpt lat="47.57584" lon="-2.28834">
        <ele>12</ele>
        <time>2025-01-16T09:34:07Z</time>
      </trkpt>
      <trkpt lat="47.57584" lon="-2.28833">
        <ele>11.9</ele>
        <time>2025-01-16T09:34:08Z</time>
      </trkpt>
      <trkpt lat="47.57583" lon="-2.28831">
        <ele>11.8</ele>
        <time>2025-01-16T09:34:09Z</time>
      </trkpt>
      <trkpt lat="47.57583" lon="-2.28829">
        <ele>11.6</ele>
        <time>2025-01-16T09:34:10Z</time>
      </trkpt>
      <trkpt lat="47.57582" lon="-2.28827">
        <ele>11.6</ele>
        <time>2025-01-16T09:34:11Z</time>
      </trkpt>
      <trkpt lat="47.57581" lon="-2.28826">
        <ele>11.7</ele>
        <time>2025-01-16T09:34:12Z</time>
      </trkpt>
      <trkpt lat="47.57581" lon="-2.28825">
        <ele>11.6</ele>
        <time>2025-01-16T09:34:13Z</time>
      </trkpt>
      <trkpt lat="47.5758" lon="-2.28823">
        <ele>11.6</ele>
        <time>2025-01-16T09:34:14Z</time>
      </trkpt>
      <trkpt lat="47.5758" lon="-2.28821">
        <ele>11.3</ele>
        <time>2025-01-16T09:34:15Z</time>
      </trkpt>
      <trkpt lat="47.57579" lon="-2.2882">
        <ele>11.4</ele>
        <time>2025-01-16T09:34:16Z</time>
      </trkpt>
      <trkpt lat="47.57578" lon="-2.28818">
        <ele>11.4</ele>
        <time>2025-01-16T09:34:17Z</time>
      </trkpt>
      <trkpt lat="47.57578" lon="-2.28817">
        <ele>11.2</ele>
        <time>2025-01-16T09:34:18Z</time>
      </trkpt>
      <trkpt lat="47.57577" lon="-2.28815">
        <ele>11.2</ele>
        <time>2025-01-16T09:34:19Z</time>
      </trkpt>
      <trkpt lat="47.57576" lon="-2.28814">
        <ele>11.2</ele>
        <time>2025-01-16T09:34:20Z</time>
      </trkpt>
      <trkpt lat="47.57575" lon="-2.28812">
        <ele>11.1</ele>
        <time>2025-01-16T09:34:21Z</time>
      </trkpt>
      <trkpt lat="47.57575" lon="-2.28811">
        <ele>11</ele>
        <time>2025-01-16T09:34:22Z</time>
      </trkpt>
      <trkpt lat="47.57574" lon="-2.2881">
        <ele>11</ele>
        <time>2025-01-16T09:34:23Z</time>
      </trkpt>
      <trkpt lat="47.57573" lon="-2.28809">
        <ele>11</ele>
        <time>2025-01-16T09:34:24Z</time>
      </trkpt>
      <trkpt lat="47.57573" lon="-2.28808">
        <ele>10.9</ele>
        <time>2025-01-16T09:34:25Z</time>
      </trkpt>
      <trkpt lat="47.57572" lon="-2.28806">
        <ele>10.7</ele>
        <time>2025-01-16T09:34:26Z</time>
      </trkpt>
      <trkpt lat="47.57571" lon="-2.28805">
        <ele>10.7</ele>
        <time>2025-01-16T09:34:27Z</time>
      </trkpt>
      <trkpt lat="47.5757" lon="-2.28804">
        <ele>10.6</ele>
        <time>2025-01-16T09:34:28Z</time>
      </trkpt>
      <trkpt lat="47.57569" lon="-2.28803">
        <ele>10.6</ele>
        <time>2025-01-16T09:34:29Z</time>
      </trkpt>
      <trkpt lat="47.57569" lon="-2.28801">
        <ele>10.2</ele>
        <time>2025-01-16T09:34:30Z</time>
      </trkpt>
      <trkpt lat="47.57568" lon="-2.288">
        <ele>10.1</ele>
        <time>2025-01-16T09:34:31Z</time>
      </trkpt>
      <trkpt lat="47.57568" lon="-2.28798">
        <ele>9.7</ele>
        <time>2025-01-16T09:34:32Z</time>
      </trkpt>
      <trkpt lat="47.57567" lon="-2.28797">
        <ele>9.6</ele>
        <time>2025-01-16T09:34:33Z</time>
      </trkpt>
      <trkpt lat="47.57566" lon="-2.28795">
        <ele>9.4</ele>
        <time>2025-01-16T09:34:34Z</time>
      </trkpt>
      <trkpt lat="47.57565" lon="-2.28793">
        <ele>9.1</ele>
        <time>2025-01-16T09:34:35Z</time>
      </trkpt>
      <trkpt lat="47.57565" lon="-2.28792">
        <ele>8.9</ele>
        <time>2025-01-16T09:34:36Z</time>
      </trkpt>
      <trkpt lat="47.57564" lon="-2.28791">
        <ele>8.8</ele>
        <time>2025-01-16T09:34:37Z</time>
      </trkpt>
      <trkpt lat="47.57562" lon="-2.28789">
        <ele>8.6</ele>
        <time>2025-01-16T09:34:38Z</time>
      </trkpt>
      <trkpt lat="47.57561" lon="-2.28788">
        <ele>8.5</ele>
        <time>2025-01-16T09:34:39Z</time>
      </trkpt>
      <trkpt lat="47.5756" lon="-2.28787">
        <ele>8.5</ele>
        <time>2025-01-16T09:34:40Z</time>
      </trkpt>
      <trkpt lat="47.57559" lon="-2.28786">
        <ele>8.4</ele>
        <time>2025-01-16T09:34:41Z</time>
      </trkpt>
      <trkpt lat="47.57558" lon="-2.28786">
        <ele>8.5</ele>
        <time>2025-01-16T09:34:42Z</time>
      </trkpt>
      <trkpt lat="47.57557" lon="-2.28785">
        <ele>8.4</ele>
        <time>2025-01-16T09:34:43Z</time>
      </trkpt>
      <trkpt lat="47.57556" lon="-2.28784">
        <ele>8.3</ele>
        <time>2025-01-16T09:34:44Z</time>
      </trkpt>
      <trkpt lat="47.57556" lon="-2.28784">
        <ele>8.3</ele>
        <time>2025-01-16T09:34:45Z</time>
      </trkpt>
      <trkpt lat="47.57555" lon="-2.28783">
        <ele>8.2</ele>
        <time>2025-01-16T09:34:46Z</time>
      </trkpt>
      <trkpt lat="47.57554" lon="-2.28782">
        <ele>8.1</ele>
        <time>2025-01-16T09:34:47Z</time>
      </trkpt>
      <trkpt lat="47.57553" lon="-2.28781">
        <ele>8.1</ele>
        <time>2025-01-16T09:34:48Z</time>
      </trkpt>
      <trkpt lat="47.57552" lon="-2.28779">
        <ele>7.8</ele>
        <time>2025-01-16T09:34:49Z</time>
      </trkpt>
      <trkpt lat="47.57551" lon="-2.28778">
        <ele>7.7</ele>
        <time>2025-01-16T09:34:50Z</time>
      </trkpt>
      <trkpt lat="47.5755" lon="-2.28777">
        <ele>7.7</ele>
        <time>2025-01-16T09:34:51Z</time>
      </trkpt>
      <trkpt lat="47.57548" lon="-2.28776">
        <ele>7.8</ele>
        <time>2025-01-16T09:34:52Z</time>
      </trkpt>
      <trkpt lat="47.57547" lon="-2.28775">
        <ele>7.9</ele>
        <time>2025-01-16T09:34:53Z</time>
      </trkpt>
      <trkpt lat="47.57546" lon="-2.28774">
        <ele>7.9</ele>
        <time>2025-01-16T09:34:54Z</time>
      </trkpt>
      <trkpt lat="47.57545" lon="-2.28772">
        <ele>7.8</ele>
        <time>2025-01-16T09:34:55Z</time>
      </trkpt>
      <trkpt lat="47.57544" lon="-2.28771">
        <ele>7.9</ele>
        <time>2025-01-16T09:34:56Z</time>
      </trkpt>
      <trkpt lat="47.57543" lon="-2.2877">
        <ele>7.9</ele>
        <time>2025-01-16T09:34:57Z</time>
      </trkpt>
      <trkpt lat="47.57542" lon="-2.28769">
        <ele>8</ele>
        <time>2025-01-16T09:34:58Z</time>
      </trkpt>
      <trkpt lat="47.57542" lon="-2.28767">
        <ele>7.8</ele>
        <time>2025-01-16T09:34:59Z</time>
      </trkpt>
      <trkpt lat="47.57541" lon="-2.28766">
        <ele>7.9</ele>
        <time>2025-01-16T09:35:00Z</time>
      </trkpt>
      <trkpt lat="47.5754" lon="-2.28764">
        <ele>7.9</ele>
        <time>2025-01-16T09:35:01Z</time>
      </trkpt>
      <trkpt lat="47.5754" lon="-2.28763">
        <ele>7.8</ele>
        <time>2025-01-16T09:35:02Z</time>
      </trkpt>
      <trkpt lat="47.5754" lon="-2.28762">
        <ele>7.7</ele>
        <time>2025-01-16T09:35:03Z</time>
      </trkpt>
      <trkpt lat="47.5754" lon="-2.2876">
        <ele>7.5</ele>
        <time>2025-01-16T09:35:04Z</time>
      </trkpt>
      <trkpt lat="47.57539" lon="-2.2876">
        <ele>7.7</ele>
        <time>2025-01-16T09:35:05Z</time>
      </trkpt>
      <trkpt lat="47.57539" lon="-2.28759">
        <ele>7.6</ele>
        <time>2025-01-16T09:35:06Z</time>
      </trkpt>
      <trkpt lat="47.57538" lon="-2.28757">
        <ele>7.7</ele>
        <time>2025-01-16T09:35:07Z</time>
      </trkpt>
      <trkpt lat="47.57537" lon="-2.28755">
        <ele>7.8</ele>
        <time>2025-01-16T09:35:08Z</time>
      </trkpt>
      <trkpt lat="47.57536" lon="-2.28753">
        <ele>7.9</ele>
        <time>2025-01-16T09:35:09Z</time>
      </trkpt>
      <trkpt lat="47.57536" lon="-2.28752">
        <ele>7.8</ele>
        <time>2025-01-16T09:35:10Z</time>
      </trkpt>
      <trkpt lat="47.57535" lon="-2.2875">
        <ele>7.9</ele>
        <time>2025-01-16T09:35:11Z</time>
      </trkpt>
      <trkpt lat="47.57535" lon="-2.28749">
        <ele>7.8</ele>
        <time>2025-01-16T09:35:12Z</time>
      </trkpt>
      <trkpt lat="47.57534" lon="-2.28748">
        <ele>8</ele>
        <time>2025-01-16T09:35:13Z</time>
      </trkpt>
      <trkpt lat="47.57533" lon="-2.28747">
        <ele>8.1</ele>
        <time>2025-01-16T09:35:14Z</time>
      </trkpt>
      <trkpt lat="47.57533" lon="-2.28746">
        <ele>8</ele>
        <time>2025-01-16T09:35:15Z</time>
      </trkpt>
      <trkpt lat="47.57532" lon="-2.28744">
        <ele>8.1</ele>
        <time>2025-01-16T09:35:16Z</time>
      </trkpt>
      <trkpt lat="47.57531" lon="-2.28743">
        <ele>8.2</ele>
        <time>2025-01-16T09:35:17Z</time>
      </trkpt>
      <trkpt lat="47.57531" lon="-2.28742">
        <ele>8.1</ele>
        <time>2025-01-16T09:35:18Z</time>
      </trkpt>
      <trkpt lat="47.5753" lon="-2.28741">
        <ele>8.2</ele>
        <time>2025-01-16T09:35:19Z</time>
      </trkpt>
      <trkpt lat="47.57529" lon="-2.2874">
        <ele>8.3</ele>
        <time>2025-01-16T09:35:20Z</time>
      </trkpt>
      <trkpt lat="47.57529" lon="-2.28739">
        <ele>8.1</ele>
        <time>2025-01-16T09:35:21Z</time>
      </trkpt>
      <trkpt lat="47.57529" lon="-2.28739">
        <ele>8.1</ele>
        <time>2025-01-16T09:35:22Z</time>
      </trkpt>
      <trkpt lat="47.57528" lon="-2.28738">
        <ele>8.2</ele>
        <time>2025-01-16T09:35:23Z</time>
      </trkpt>
      <trkpt lat="47.57528" lon="-2.28737">
        <ele>8.1</ele>
        <time>2025-01-16T09:35:24Z</time>
      </trkpt>
      <trkpt lat="47.57527" lon="-2.28736">
        <ele>8.3</ele>
        <time>2025-01-16T09:35:25Z</time>
      </trkpt>
      <trkpt lat="47.57527" lon="-2.28735">
        <ele>8.1</ele>
        <time>2025-01-16T09:35:26Z</time>
      </trkpt>
      <trkpt lat="47.57526" lon="-2.28733">
        <ele>8.2</ele>
        <time>2025-01-16T09:35:27Z</time>
      </trkpt>
      <trkpt lat="47.57525" lon="-2.28732">
        <ele>8.4</ele>
        <time>2025-01-16T09:35:28Z</time>
      </trkpt>
      <trkpt lat="47.57525" lon="-2.28731">
        <ele>8.2</ele>
        <time>2025-01-16T09:35:29Z</time>
      </trkpt>
      <trkpt lat="47.57524" lon="-2.2873">
        <ele>8.4</ele>
        <time>2025-01-16T09:35:30Z</time>
      </trkpt>
      <trkpt lat="47.57523" lon="-2.28728">
        <ele>8.5</ele>
        <time>2025-01-16T09:35:31Z</time>
      </trkpt>
      <trkpt lat="47.57523" lon="-2.28727">
        <ele>8.3</ele>
        <time>2025-01-16T09:35:32Z</time>
      </trkpt>
      <trkpt lat="47.57522" lon="-2.28725">
        <ele>8.3</ele>
        <time>2025-01-16T09:35:33Z</time>
      </trkpt>
      <trkpt lat="47.57522" lon="-2.28724">
        <ele>8.2</ele>
        <time>2025-01-16T09:35:34Z</time>
      </trkpt>
      <trkpt lat="47.57521" lon="-2.28723">
        <ele>8.3</ele>
        <time>2025-01-16T09:35:35Z</time>
      </trkpt>
      <trkpt lat="47.5752" lon="-2.28722">
        <ele>8.5</ele>
        <time>2025-01-16T09:35:36Z</time>
      </trkpt>
      <trkpt lat="47.5752" lon="-2.28721">
        <ele>8.3</ele>
        <time>2025-01-16T09:35:37Z</time>
      </trkpt>
      <trkpt lat="47.57519" lon="-2.28721">
        <ele>8.6</ele>
        <time>2025-01-16T09:35:38Z</time>
      </trkpt>
      <trkpt lat="47.57519" lon="-2.28721">
        <ele>8.6</ele>
        <time>2025-01-16T09:35:39Z</time>
      </trkpt>
      <trkpt lat="47.57519" lon="-2.28721">
        <ele>8.6</ele>
        <time>2025-01-16T09:35:40Z</time>
      </trkpt>
      <trkpt lat="47.57519" lon="-2.2872">
        <ele>8.4</ele>
        <time>2025-01-16T09:35:41Z</time>
      </trkpt>
      <trkpt lat="47.5752" lon="-2.28719">
        <ele>7.9</ele>
        <time>2025-01-16T09:35:42Z</time>
      </trkpt>
      <trkpt lat="47.5752" lon="-2.28718">
        <ele>7.7</ele>
        <time>2025-01-16T09:35:43Z</time>
      </trkpt>
      <trkpt lat="47.57521" lon="-2.28718">
        <ele>7.4</ele>
        <time>2025-01-16T09:35:44Z</time>
      </trkpt>
      <trkpt lat="47.57521" lon="-2.28717">
        <ele>7.3</ele>
        <time>2025-01-16T09:35:45Z</time>
      </trkpt>
      <trkpt lat="47.57521" lon="-2.28716">
        <ele>7.1</ele>
        <time>2025-01-16T09:35:46Z</time>
      </trkpt>
      <trkpt lat="47.57521" lon="-2.28716">
        <ele>7.1</ele>
        <time>2025-01-16T09:35:47Z</time>
      </trkpt>
      <trkpt lat="47.57521" lon="-2.28714">
        <ele>6.7</ele>
        <time>2025-01-16T09:35:50Z</time>
      </trkpt>
      <trkpt lat="47.57521" lon="-2.28714">
        <ele>6.7</ele>
        <time>2025-01-16T09:35:51Z</time>
      </trkpt>
      <trkpt lat="47.57521" lon="-2.28713">
        <ele>6.5</ele>
        <time>2025-01-16T09:35:52Z</time>
      </trkpt>
      <trkpt lat="47.57522" lon="-2.28713">
        <ele>6.3</ele>
        <time>2025-01-16T09:35:53Z</time>
      </trkpt>
      <trkpt lat="47.57522" lon="-2.28712">
        <ele>6.1</ele>
        <time>2025-01-16T09:35:54Z</time>
      </trkpt>
      <trkpt lat="47.57522" lon="-2.28711">
        <ele>5.9</ele>
        <time>2025-01-16T09:35:55Z</time>
      </trkpt>
      <trkpt lat="47.57522" lon="-2.28711">
        <ele>5.9</ele>
        <time>2025-01-16T09:35:56Z</time>
      </trkpt>
      <trkpt lat="47.57522" lon="-2.28711">
        <ele>5.9</ele>
        <time>2025-01-16T09:35:57Z</time>
      </trkpt>
      <trkpt lat="47.57523" lon="-2.28711">
        <ele>5.7</ele>
        <time>2025-01-16T09:35:58Z</time>
      </trkpt>
      <trkpt lat="47.57523" lon="-2.28711">
        <ele>5.7</ele>
        <time>2025-01-16T09:35:59Z</time>
      </trkpt>
      <trkpt lat="47.57523" lon="-2.28711">
        <ele>5.7</ele>
        <time>2025-01-16T09:36:00Z</time>
      </trkpt>
      <trkpt lat="47.57523" lon="-2.2871">
        <ele>5.5</ele>
        <time>2025-01-16T09:36:01Z</time>
      </trkpt>
      <trkpt lat="47.57523" lon="-2.28709">
        <ele>5.3</ele>
        <time>2025-01-16T09:36:02Z</time>
      </trkpt>
      <trkpt lat="47.57523" lon="-2.28709">
        <ele>5.3</ele>
        <time>2025-01-16T09:36:03Z</time>
      </trkpt>
      <trkpt lat="47.57523" lon="-2.28709">
        <ele>5.3</ele>
        <time>2025-01-16T09:36:04Z</time>
      </trkpt>
      <trkpt lat="47.57523" lon="-2.28708">
        <ele>5.1</ele>
        <time>2025-01-16T09:36:05Z</time>
      </trkpt>
      <trkpt lat="47.57523" lon="-2.28707">
        <ele>5</ele>
        <time>2025-01-16T09:36:06Z</time>
      </trkpt>
      <trkpt lat="47.57522" lon="-2.28707">
        <ele>5.2</ele>
        <time>2025-01-16T09:36:07Z</time>
      </trkpt>
      <trkpt lat="47.57523" lon="-2.28706">
        <ele>4.8</ele>
        <time>2025-01-16T09:36:08Z</time>
      </trkpt>
      <trkpt lat="47.57523" lon="-2.28706">
        <ele>4.8</ele>
        <time>2025-01-16T09:36:09Z</time>
      </trkpt>
      <trkpt lat="47.57523" lon="-2.28706">
        <ele>4.8</ele>
        <time>2025-01-16T09:36:10Z</time>
      </trkpt>
      <trkpt lat="47.57523" lon="-2.28706">
        <ele>4.8</ele>
        <time>2025-01-16T09:36:11Z</time>
      </trkpt>
      <trkpt lat="47.57523" lon="-2.28706">
        <ele>4.8</ele>
        <time>2025-01-16T09:36:12Z</time>
      </trkpt>
      <trkpt lat="47.57524" lon="-2.28705">
        <ele>4.4</ele>
        <time>2025-01-16T09:36:13Z</time>
      </trkpt>
      <trkpt lat="47.57524" lon="-2.28704">
        <ele>4.2</ele>
        <time>2025-01-16T09:36:14Z</time>
      </trkpt>
      <trkpt lat="47.57524" lon="-2.28704">
        <ele>4.2</ele>
        <time>2025-01-16T09:36:15Z</time>
      </trkpt>
      <trkpt lat="47.57524" lon="-2.28704">
        <ele>4.2</ele>
        <time>2025-01-16T09:36:16Z</time>
      </trkpt>
      <trkpt lat="47.57524" lon="-2.28704">
        <ele>4.2</ele>
        <time>2025-01-16T09:36:17Z</time>
      </trkpt>
      <trkpt lat="47.57524" lon="-2.28704">
        <ele>4.2</ele>
        <time>2025-01-16T09:36:18Z</time>
      </trkpt>
      <trkpt lat="47.57525" lon="-2.28704">
        <ele>4</ele>
        <time>2025-01-16T09:36:19Z</time>
      </trkpt>
      <trkpt lat="47.57525" lon="-2.28704">
        <ele>4</ele>
        <time>2025-01-16T09:36:20Z</time>
      </trkpt>
      <trkpt lat="47.57525" lon="-2.28704">
        <ele>4</ele>
        <time>2025-01-16T09:36:21Z</time>
      </trkpt>
      <trkpt lat="47.57525" lon="-2.28704">
        <ele>4</ele>
        <time>2025-01-16T09:36:22Z</time>
      </trkpt>
      <trkpt lat="47.57526" lon="-2.28703">
        <ele>3.6</ele>
        <time>2025-01-16T09:36:23Z</time>
      </trkpt>
      <trkpt lat="47.57526" lon="-2.28703">
        <ele>3.6</ele>
        <time>2025-01-16T09:36:24Z</time>
      </trkpt>
      <trkpt lat="47.57527" lon="-2.28702">
        <ele>3.3</ele>
        <time>2025-01-16T09:36:25Z</time>
      </trkpt>
      <trkpt lat="47.57527" lon="-2.28701">
        <ele>3.1</ele>
        <time>2025-01-16T09:36:26Z</time>
      </trkpt>
      <trkpt lat="47.57527" lon="-2.28701">
        <ele>3.1</ele>
        <time>2025-01-16T09:36:27Z</time>
      </trkpt>
      <trkpt lat="47.57528" lon="-2.287">
        <ele>2.8</ele>
        <time>2025-01-16T09:36:28Z</time>
      </trkpt>
      <trkpt lat="47.57528" lon="-2.287">
        <ele>2.8</ele>
        <time>2025-01-16T09:36:29Z</time>
      </trkpt>
      <trkpt lat="47.57528" lon="-2.287">
        <ele>2.8</ele>
        <time>2025-01-16T09:36:30Z</time>
      </trkpt>
      <trkpt lat="47.57528" lon="-2.287">
        <ele>2.8</ele>
        <time>2025-01-16T09:36:31Z</time>
      </trkpt>
      <trkpt lat="47.57528" lon="-2.287">
        <ele>2.8</ele>
        <time>2025-01-16T09:36:32Z</time>
      </trkpt>
      <trkpt lat="47.57528" lon="-2.287">
        <ele>2.8</ele>
        <time>2025-01-16T09:36:33Z</time>
      </trkpt>
      <trkpt lat="47.57528" lon="-2.28699">
        <ele>2.7</ele>
        <time>2025-01-16T09:36:34Z</time>
      </trkpt>
      <trkpt lat="47.57529" lon="-2.28699">
        <ele>2.6</ele>
        <time>2025-01-16T09:36:35Z</time>
      </trkpt>
      <trkpt lat="47.57529" lon="-2.28699">
        <ele>2.6</ele>
        <time>2025-01-16T09:36:36Z</time>
      </trkpt>
      <trkpt lat="47.57529" lon="-2.28699">
        <ele>2.6</ele>
        <time>2025-01-16T09:36:37Z</time>
      </trkpt>
      <trkpt lat="47.57529" lon="-2.28699">
        <ele>2.6</ele>
        <time>2025-01-16T09:36:38Z</time>
      </trkpt>
      <trkpt lat="47.57529" lon="-2.28699">
        <ele>2.6</ele>
        <time>2025-01-16T09:36:39Z</time>
      </trkpt>
      <trkpt lat="47.57529" lon="-2.28699">
        <ele>2.6</ele>
        <time>2025-01-16T09:36:40Z</time>
      </trkpt>
      <trkpt lat="47.5753" lon="-2.287">
        <ele>2.7</ele>
        <time>2025-01-16T09:36:41Z</time>
      </trkpt>
      <trkpt lat="47.5753" lon="-2.287">
        <ele>2.7</ele>
        <time>2025-01-16T09:36:42Z</time>
      </trkpt>
      <trkpt lat="47.5753" lon="-2.287">
        <ele>2.7</ele>
        <time>2025-01-16T09:36:43Z</time>
      </trkpt>
      <trkpt lat="47.57529" lon="-2.287">
        <ele>2.8</ele>
        <time>2025-01-16T09:36:44Z</time>
      </trkpt>
      <trkpt lat="47.57529" lon="-2.287">
        <ele>2.8</ele>
        <time>2025-01-16T09:36:45Z</time>
      </trkpt>
      <trkpt lat="47.57529" lon="-2.287">
        <ele>2.8</ele>
        <time>2025-01-16T09:36:46Z</time>
      </trkpt>
      <trkpt lat="47.57529" lon="-2.287">
        <ele>2.8</ele>
        <time>2025-01-16T09:36:47Z</time>
      </trkpt>
      <trkpt lat="47.57529" lon="-2.287">
        <ele>2.8</ele>
        <time>2025-01-16T09:36:48Z</time>
      </trkpt>
      <trkpt lat="47.57529" lon="-2.287">
        <ele>2.8</ele>
        <time>2025-01-16T09:36:49Z</time>
      </trkpt>
      <trkpt lat="47.57529" lon="-2.28699">
        <ele>2.6</ele>
        <time>2025-01-16T09:36:50Z</time>
      </trkpt>
      <trkpt lat="47.57529" lon="-2.28699">
        <ele>2.6</ele>
        <time>2025-01-16T09:36:51Z</time>
      </trkpt>
      <trkpt lat="47.57529" lon="-2.28699">
        <ele>2.6</ele>
        <time>2025-01-16T09:36:52Z</time>
      </trkpt>
      <trkpt lat="47.57529" lon="-2.28699">
        <ele>2.6</ele>
        <time>2025-01-16T09:36:53Z</time>
      </trkpt>
      <trkpt lat="47.57529" lon="-2.28699">
        <ele>2.6</ele>
        <time>2025-01-16T09:36:54Z</time>
      </trkpt>
      <trkpt lat="47.57529" lon="-2.28699">
        <ele>2.6</ele>
        <time>2025-01-16T09:36:55Z</time>
      </trkpt>
      <trkpt lat="47.5753" lon="-2.28699">
        <ele>2.6</ele>
        <time>2025-01-16T09:36:56Z</time>
      </trkpt>
      <trkpt lat="47.5753" lon="-2.28699">
        <ele>2.6</ele>
        <time>2025-01-16T09:36:57Z</time>
      </trkpt>
      <trkpt lat="47.5753" lon="-2.28699">
        <ele>2.6</ele>
        <time>2025-01-16T09:36:58Z</time>
      </trkpt>
      <trkpt lat="47.5753" lon="-2.28699">
        <ele>2.6</ele>
        <time>2025-01-16T09:37:00Z</time>
      </trkpt>
      <trkpt lat="47.5753" lon="-2.28699">
        <ele>2.6</ele>
        <time>2025-01-16T09:37:01Z</time>
      </trkpt>
      <trkpt lat="47.5753" lon="-2.28699">
        <ele>2.6</ele>
        <time>2025-01-16T09:37:02Z</time>
      </trkpt>
      <trkpt lat="47.5753" lon="-2.28699">
        <ele>2.6</ele>
        <time>2025-01-16T09:37:03Z</time>
      </trkpt>
      <trkpt lat="47.5753" lon="-2.28699">
        <ele>2.6</ele>
        <time>2025-01-16T09:37:04Z</time>
      </trkpt>
      <trkpt lat="47.5753" lon="-2.28699">
        <ele>2.6</ele>
        <time>2025-01-16T09:37:05Z</time>
      </trkpt>
      <trkpt lat="47.5753" lon="-2.28699">
        <ele>2.6</ele>
        <time>2025-01-16T09:37:06Z</time>
      </trkpt>
      <trkpt lat="47.57529" lon="-2.28699">
        <ele>2.6</ele>
        <time>2025-01-16T09:37:07Z</time>
      </trkpt>
      <trkpt lat="47.57529" lon="-2.28699">
        <ele>2.6</ele>
        <time>2025-01-16T09:37:08Z</time>
      </trkpt>
      <trkpt lat="47.57529" lon="-2.28699">
        <ele>2.6</ele>
        <time>2025-01-16T09:37:09Z</time>
      </trkpt>
      <trkpt lat="47.57529" lon="-2.28698">
        <ele>2.5</ele>
        <time>2025-01-16T09:37:10Z</time>
      </trkpt>
      <trkpt lat="47.57529" lon="-2.28698">
        <ele>2.5</ele>
        <time>2025-01-16T09:37:11Z</time>
      </trkpt>
      <trkpt lat="47.57529" lon="-2.28698">
        <ele>2.5</ele>
        <time>2025-01-16T09:37:12Z</time>
      </trkpt>
      <trkpt lat="47.57529" lon="-2.28698">
        <ele>2.5</ele>
        <time>2025-01-16T09:37:13Z</time>
      </trkpt>
      <trkpt lat="47.57529" lon="-2.28698">
        <ele>2.5</ele>
        <time>2025-01-16T09:37:14Z</time>
      </trkpt>
      <trkpt lat="47.57529" lon="-2.28698">
        <ele>2.5</ele>
        <time>2025-01-16T09:37:15Z</time>
      </trkpt>
      <trkpt lat="47.57529" lon="-2.28698">
        <ele>2.5</ele>
        <time>2025-01-16T09:37:16Z</time>
      </trkpt>
      <trkpt lat="47.57529" lon="-2.28698">
        <ele>2.5</ele>
        <time>2025-01-16T09:37:17Z</time>
      </trkpt>
      <trkpt lat="47.57529" lon="-2.28698">
        <ele>2.5</ele>
        <time>2025-01-16T09:37:18Z</time>
      </trkpt>
      <trkpt lat="47.57529" lon="-2.28698">
        <ele>2.5</ele>
        <time>2025-01-16T09:37:19Z</time>
      </trkpt>
      <trkpt lat="47.57529" lon="-2.28698">
        <ele>2.5</ele>
        <time>2025-01-16T09:37:20Z</time>
      </trkpt>
      <trkpt lat="47.57529" lon="-2.28698">
        <ele>2.5</ele>
        <time>2025-01-16T09:37:21Z</time>
      </trkpt>
      <trkpt lat="47.57529" lon="-2.28697">
        <ele>2.4</ele>
        <time>2025-01-16T09:37:22Z</time>
      </trkpt>
      <trkpt lat="47.57529" lon="-2.28697">
        <ele>2.4</ele>
        <time>2025-01-16T09:37:23Z</time>
      </trkpt>
      <trkpt lat="47.57529" lon="-2.28697">
        <ele>2.4</ele>
        <time>2025-01-16T09:37:24Z</time>
      </trkpt>
      <trkpt lat="47.5753" lon="-2.28697">
        <ele>2.3</ele>
        <time>2025-01-16T09:37:25Z</time>
      </trkpt>
      <trkpt lat="47.5753" lon="-2.28697">
        <ele>2.3</ele>
        <time>2025-01-16T09:37:26Z</time>
      </trkpt>
      <trkpt lat="47.5753" lon="-2.28696">
        <ele>2.2</ele>
        <time>2025-01-16T09:37:27Z</time>
      </trkpt>
      <trkpt lat="47.57531" lon="-2.28696">
        <ele>2.2</ele>
        <time>2025-01-16T09:37:28Z</time>
      </trkpt>
      <trkpt lat="47.57531" lon="-2.28696">
        <ele>2.2</ele>
        <time>2025-01-16T09:37:29Z</time>
      </trkpt>
      <trkpt lat="47.57531" lon="-2.28696">
        <ele>2.2</ele>
        <time>2025-01-16T09:37:30Z</time>
      </trkpt>
      <trkpt lat="47.57531" lon="-2.28695">
        <ele>2.1</ele>
        <time>2025-01-16T09:37:31Z</time>
      </trkpt>
      <trkpt lat="47.57531" lon="-2.28695">
        <ele>2.1</ele>
        <time>2025-01-16T09:37:32Z</time>
      </trkpt>
      <trkpt lat="47.57531" lon="-2.28694">
        <ele>2</ele>
        <time>2025-01-16T09:37:33Z</time>
      </trkpt>
      <trkpt lat="47.57531" lon="-2.28694">
        <ele>2</ele>
        <time>2025-01-16T09:37:34Z</time>
      </trkpt>
      <trkpt lat="47.57531" lon="-2.28695">
        <ele>2.1</ele>
        <time>2025-01-16T09:37:35Z</time>
      </trkpt>
      <trkpt lat="47.57531" lon="-2.28695">
        <ele>2.1</ele>
        <time>2025-01-16T09:37:36Z</time>
      </trkpt>
      <trkpt lat="47.57532" lon="-2.28696">
        <ele>2.2</ele>
        <time>2025-01-16T09:37:37Z</time>
      </trkpt>
      <trkpt lat="47.57532" lon="-2.28696">
        <ele>2.2</ele>
        <time>2025-01-16T09:37:38Z</time>
      </trkpt>
      <trkpt lat="47.57532" lon="-2.28697">
        <ele>2.3</ele>
        <time>2025-01-16T09:37:39Z</time>
      </trkpt>
      <trkpt lat="47.57532" lon="-2.28697">
        <ele>2.3</ele>
        <time>2025-01-16T09:37:40Z</time>
      </trkpt>
      <trkpt lat="47.57532" lon="-2.28698">
        <ele>2.4</ele>
        <time>2025-01-16T09:37:41Z</time>
      </trkpt>
      <trkpt lat="47.57532" lon="-2.28698">
        <ele>2.4</ele>
        <time>2025-01-16T09:37:42Z</time>
      </trkpt>
      <trkpt lat="47.57532" lon="-2.28699">
        <ele>2.6</ele>
        <time>2025-01-16T09:37:43Z</time>
      </trkpt>
      <trkpt lat="47.57532" lon="-2.28699">
        <ele>2.6</ele>
        <time>2025-01-16T09:37:44Z</time>
      </trkpt>
      <trkpt lat="47.57532" lon="-2.287">
        <ele>2.7</ele>
        <time>2025-01-16T09:37:45Z</time>
      </trkpt>
      <trkpt lat="47.57532" lon="-2.28701">
        <ele>2.8</ele>
        <time>2025-01-16T09:37:46Z</time>
      </trkpt>
      <trkpt lat="47.57532" lon="-2.28701">
        <ele>2.8</ele>
        <time>2025-01-16T09:37:47Z</time>
      </trkpt>
      <trkpt lat="47.57532" lon="-2.28701">
        <ele>2.8</ele>
        <time>2025-01-16T09:37:48Z</time>
      </trkpt>
      <trkpt lat="47.57531" lon="-2.28702">
        <ele>3</ele>
        <time>2025-01-16T09:37:49Z</time>
      </trkpt>
      <trkpt lat="47.57531" lon="-2.28702">
        <ele>3</ele>
        <time>2025-01-16T09:37:50Z</time>
      </trkpt>
      <trkpt lat="47.57531" lon="-2.28702">
        <ele>3</ele>
        <time>2025-01-16T09:37:51Z</time>
      </trkpt>
      <trkpt lat="47.5753" lon="-2.28702">
        <ele>3</ele>
        <time>2025-01-16T09:37:52Z</time>
      </trkpt>
      <trkpt lat="47.5753" lon="-2.28701">
        <ele>2.9</ele>
        <time>2025-01-16T09:37:53Z</time>
      </trkpt>
      <trkpt lat="47.5753" lon="-2.28701">
        <ele>2.9</ele>
        <time>2025-01-16T09:37:54Z</time>
      </trkpt>
      <trkpt lat="47.5753" lon="-2.28701">
        <ele>2.9</ele>
        <time>2025-01-16T09:37:55Z</time>
      </trkpt>
      <trkpt lat="47.5753" lon="-2.28701">
        <ele>2.9</ele>
        <time>2025-01-16T09:37:56Z</time>
      </trkpt>
      <trkpt lat="47.5753" lon="-2.28701">
        <ele>2.9</ele>
        <time>2025-01-16T09:37:57Z</time>
      </trkpt>
      <trkpt lat="47.5753" lon="-2.28701">
        <ele>2.9</ele>
        <time>2025-01-16T09:37:58Z</time>
      </trkpt>
      <trkpt lat="47.5753" lon="-2.28701">
        <ele>2.9</ele>
        <time>2025-01-16T09:37:59Z</time>
      </trkpt>
      <trkpt lat="47.5753" lon="-2.28701">
        <ele>2.9</ele>
        <time>2025-01-16T09:38:00Z</time>
      </trkpt>
      <trkpt lat="47.5753" lon="-2.28701">
        <ele>2.9</ele>
        <time>2025-01-16T09:38:01Z</time>
      </trkpt>
      <trkpt lat="47.5753" lon="-2.28701">
        <ele>2.9</ele>
        <time>2025-01-16T09:38:02Z</time>
      </trkpt>
      <trkpt lat="47.5753" lon="-2.28701">
        <ele>2.9</ele>
        <time>2025-01-16T09:38:03Z</time>
      </trkpt>
      <trkpt lat="47.5753" lon="-2.28701">
        <ele>2.9</ele>
        <time>2025-01-16T09:38:04Z</time>
      </trkpt>
      <trkpt lat="47.5753" lon="-2.28701">
        <ele>2.9</ele>
        <time>2025-01-16T09:38:05Z</time>
      </trkpt>
      <trkpt lat="47.5753" lon="-2.28701">
        <ele>2.9</ele>
        <time>2025-01-16T09:38:06Z</time>
      </trkpt>
      <trkpt lat="47.5753" lon="-2.28701">
        <ele>2.9</ele>
        <time>2025-01-16T09:38:07Z</time>
      </trkpt>
      <trkpt lat="47.5753" lon="-2.28701">
        <ele>2.9</ele>
        <time>2025-01-16T09:38:08Z</time>
      </trkpt>
      <trkpt lat="47.5753" lon="-2.28701">
        <ele>2.9</ele>
        <time>2025-01-16T09:38:09Z</time>
      </trkpt>
      <trkpt lat="47.5753" lon="-2.28701">
        <ele>2.9</ele>
        <time>2025-01-16T09:38:10Z</time>
      </trkpt>
      <trkpt lat="47.5753" lon="-2.28701">
        <ele>2.9</ele>
        <time>2025-01-16T09:38:11Z</time>
      </trkpt>
      <trkpt lat="47.5753" lon="-2.28701">
        <ele>2.9</ele>
        <time>2025-01-16T09:38:12Z</time>
      </trkpt>
      <trkpt lat="47.5753" lon="-2.28701">
        <ele>2.9</ele>
        <time>2025-01-16T09:38:13Z</time>
      </trkpt>
      <trkpt lat="47.5753" lon="-2.28701">
        <ele>2.9</ele>
        <time>2025-01-16T09:38:14Z</time>
      </trkpt>
      <trkpt lat="47.5753" lon="-2.28701">
        <ele>2.9</ele>
        <time>2025-01-16T09:38:15Z</time>
      </trkpt>
      <trkpt lat="47.5753" lon="-2.28701">
        <ele>2.9</ele>
        <time>2025-01-16T09:38:16Z</time>
      </trkpt>
      <trkpt lat="47.5753" lon="-2.28701">
        <ele>2.9</ele>
        <time>2025-01-16T09:38:17Z</time>
      </trkpt>
      <trkpt lat="47.5753" lon="-2.28701">
        <ele>2.9</ele>
        <time>2025-01-16T09:38:18Z</time>
      </trkpt>
      <trkpt lat="47.5753" lon="-2.28701">
        <ele>2.9</ele>
        <time>2025-01-16T09:38:19Z</time>
      </trkpt>
      <trkpt lat="47.5753" lon="-2.28701">
        <ele>2.9</ele>
        <time>2025-01-16T09:38:20Z</time>
      </trkpt>
      <trkpt lat="47.5753" lon="-2.28701">
        <ele>2.9</ele>
        <time>2025-01-16T09:38:21Z</time>
      </trkpt>
      <trkpt lat="47.5753" lon="-2.28701">
        <ele>2.9</ele>
        <time>2025-01-16T09:38:22Z</time>
      </trkpt>
      <trkpt lat="47.5753" lon="-2.28701">
        <ele>2.9</ele>
        <time>2025-01-16T09:38:23Z</time>
      </trkpt>
      <trkpt lat="47.5753" lon="-2.28701">
        <ele>2.9</ele>
        <time>2025-01-16T09:38:24Z</time>
      </trkpt>
      <trkpt lat="47.5753" lon="-2.28701">
        <ele>2.9</ele>
        <time>2025-01-16T09:38:25Z</time>
      </trkpt>
      <trkpt lat="47.5753" lon="-2.28701">
        <ele>2.9</ele>
        <time>2025-01-16T09:38:26Z</time>
      </trkpt>
      <trkpt lat="47.5753" lon="-2.28701">
        <ele>2.9</ele>
        <time>2025-01-16T09:38:27Z</time>
      </trkpt>
      <trkpt lat="47.5753" lon="-2.28701">
        <ele>2.9</ele>
        <time>2025-01-16T09:38:28Z</time>
      </trkpt>
      <trkpt lat="47.5753" lon="-2.28701">
        <ele>2.9</ele>
        <time>2025-01-16T09:38:29Z</time>
      </trkpt>
      <trkpt lat="47.5753" lon="-2.28701">
        <ele>2.9</ele>
        <time>2025-01-16T09:38:30Z</time>
      </trkpt>
      <trkpt lat="47.5753" lon="-2.28701">
        <ele>2.9</ele>
        <time>2025-01-16T09:38:31Z</time>
      </trkpt>
      <trkpt lat="47.5753" lon="-2.28701">
        <ele>2.9</ele>
        <time>2025-01-16T09:38:32Z</time>
      </trkpt>
      <trkpt lat="47.5753" lon="-2.28701">
        <ele>2.9</ele>
        <time>2025-01-16T09:38:33Z</time>
      </trkpt>
      <trkpt lat="47.5753" lon="-2.28701">
        <ele>2.9</ele>
        <time>2025-01-16T09:38:34Z</time>
      </trkpt>
      <trkpt lat="47.5753" lon="-2.28701">
        <ele>2.9</ele>
        <time>2025-01-16T09:38:35Z</time>
      </trkpt>
      <trkpt lat="47.57531" lon="-2.28701">
        <ele>2.8</ele>
        <time>2025-01-16T09:38:36Z</time>
      </trkpt>
      <trkpt lat="47.57531" lon="-2.28701">
        <ele>2.8</ele>
        <time>2025-01-16T09:38:37Z</time>
      </trkpt>
      <trkpt lat="47.57531" lon="-2.28701">
        <ele>2.8</ele>
        <time>2025-01-16T09:38:38Z</time>
      </trkpt>
      <trkpt lat="47.57531" lon="-2.28701">
        <ele>2.8</ele>
        <time>2025-01-16T09:38:39Z</time>
      </trkpt>
      <trkpt lat="47.57531" lon="-2.28701">
        <ele>2.8</ele>
        <time>2025-01-16T09:38:40Z</time>
      </trkpt>
      <trkpt lat="47.57531" lon="-2.28701">
        <ele>2.8</ele>
        <time>2025-01-16T09:38:41Z</time>
      </trkpt>
      <trkpt lat="47.57531" lon="-2.28701">
        <ele>2.8</ele>
        <time>2025-01-16T09:38:42Z</time>
      </trkpt>
      <trkpt lat="47.57531" lon="-2.28701">
        <ele>2.8</ele>
        <time>2025-01-16T09:38:43Z</time>
      </trkpt>
      <trkpt lat="47.57531" lon="-2.28701">
        <ele>2.8</ele>
        <time>2025-01-16T09:38:44Z</time>
      </trkpt>
      <trkpt lat="47.57531" lon="-2.28701">
        <ele>2.8</ele>
        <time>2025-01-16T09:38:45Z</time>
      </trkpt>
      <trkpt lat="47.57531" lon="-2.28701">
        <ele>2.8</ele>
        <time>2025-01-16T09:38:46Z</time>
      </trkpt>
      <trkpt lat="47.57531" lon="-2.28701">
        <ele>2.8</ele>
        <time>2025-01-16T09:38:47Z</time>
      </trkpt>
      <trkpt lat="47.57531" lon="-2.28701">
        <ele>2.8</ele>
        <time>2025-01-16T09:38:48Z</time>
      </trkpt>
      <trkpt lat="47.57531" lon="-2.28701">
        <ele>2.8</ele>
        <time>2025-01-16T09:38:49Z</time>
      </trkpt>
      <trkpt lat="47.57531" lon="-2.28701">
        <ele>2.8</ele>
        <time>2025-01-16T09:38:50Z</time>
      </trkpt>
      <trkpt lat="47.57531" lon="-2.28701">
        <ele>2.8</ele>
        <time>2025-01-16T09:38:51Z</time>
      </trkpt>
      <trkpt lat="47.5753" lon="-2.28701">
        <ele>2.9</ele>
        <time>2025-01-16T09:38:52Z</time>
      </trkpt>
      <trkpt lat="47.5753" lon="-2.28701">
        <ele>2.9</ele>
        <time>2025-01-16T09:38:53Z</time>
      </trkpt>
      <trkpt lat="47.5753" lon="-2.28701">
        <ele>2.9</ele>
        <time>2025-01-16T09:38:54Z</time>
      </trkpt>
      <trkpt lat="47.5753" lon="-2.28702">
        <ele>3</ele>
        <time>2025-01-16T09:38:55Z</time>
      </trkpt>
      <trkpt lat="47.5753" lon="-2.28702">
        <ele>3</ele>
        <time>2025-01-16T09:38:56Z</time>
      </trkpt>
      <trkpt lat="47.5753" lon="-2.28702">
        <ele>3</ele>
        <time>2025-01-16T09:38:57Z</time>
      </trkpt>
      <trkpt lat="47.5753" lon="-2.28702">
        <ele>3</ele>
        <time>2025-01-16T09:38:58Z</time>
      </trkpt>
      <trkpt lat="47.57531" lon="-2.28702">
        <ele>3</ele>
        <time>2025-01-16T09:38:59Z</time>
      </trkpt>
      <trkpt lat="47.57531" lon="-2.28701">
        <ele>2.8</ele>
        <time>2025-01-16T09:39:00Z</time>
      </trkpt>
      <trkpt lat="47.57531" lon="-2.28701">
        <ele>2.8</ele>
        <time>2025-01-16T09:39:01Z</time>
      </trkpt>
      <trkpt lat="47.57531" lon="-2.28701">
        <ele>2.8</ele>
        <time>2025-01-16T09:39:02Z</time>
      </trkpt>
      <trkpt lat="47.57531" lon="-2.28701">
        <ele>2.8</ele>
        <time>2025-01-16T09:39:03Z</time>
      </trkpt>
      <trkpt lat="47.57531" lon="-2.28701">
        <ele>2.8</ele>
        <time>2025-01-16T09:39:04Z</time>
      </trkpt>
      <trkpt lat="47.57531" lon="-2.28701">
        <ele>2.8</ele>
        <time>2025-01-16T09:39:05Z</time>
      </trkpt>
      <trkpt lat="47.57531" lon="-2.28701">
        <ele>2.8</ele>
        <time>2025-01-16T09:39:06Z</time>
      </trkpt>
      <trkpt lat="47.57531" lon="-2.28701">
        <ele>2.8</ele>
        <time>2025-01-16T09:39:07Z</time>
      </trkpt>
      <trkpt lat="47.57531" lon="-2.28701">
        <ele>2.8</ele>
        <time>2025-01-16T09:39:08Z</time>
      </trkpt>
      <trkpt lat="47.57531" lon="-2.28701">
        <ele>2.8</ele>
        <time>2025-01-16T09:39:09Z</time>
      </trkpt>
      <trkpt lat="47.57531" lon="-2.28701">
        <ele>2.8</ele>
        <time>2025-01-16T09:39:10Z</time>
      </trkpt>
      <trkpt lat="47.57531" lon="-2.28701">
        <ele>2.8</ele>
        <time>2025-01-16T09:39:11Z</time>
      </trkpt>
      <trkpt lat="47.57531" lon="-2.28701">
        <ele>2.8</ele>
        <time>2025-01-16T09:39:12Z</time>
      </trkpt>
      <trkpt lat="47.57531" lon="-2.28701">
        <ele>2.8</ele>
        <time>2025-01-16T09:39:13Z</time>
      </trkpt>
      <trkpt lat="47.57531" lon="-2.28701">
        <ele>2.8</ele>
        <time>2025-01-16T09:39:14Z</time>
      </trkpt>
      <trkpt lat="47.57531" lon="-2.28701">
        <ele>2.8</ele>
        <time>2025-01-16T09:39:15Z</time>
      </trkpt>
      <trkpt lat="47.57531" lon="-2.28701">
        <ele>2.8</ele>
        <time>2025-01-16T09:39:16Z</time>
      </trkpt>
      <trkpt lat="47.57531" lon="-2.28701">
        <ele>2.8</ele>
        <time>2025-01-16T09:39:17Z</time>
      </trkpt>
      <trkpt lat="47.57531" lon="-2.28701">
        <ele>2.8</ele>
        <time>2025-01-16T09:39:18Z</time>
      </trkpt>
      <trkpt lat="47.57531" lon="-2.28701">
        <ele>2.8</ele>
        <time>2025-01-16T09:39:19Z</time>
      </trkpt>
      <trkpt lat="47.57531" lon="-2.28701">
        <ele>2.8</ele>
        <time>2025-01-16T09:39:20Z</time>
      </trkpt>
      <trkpt lat="47.57531" lon="-2.28701">
        <ele>2.8</ele>
        <time>2025-01-16T09:39:21Z</time>
      </trkpt>
      <trkpt lat="47.57531" lon="-2.28701">
        <ele>2.8</ele>
        <time>2025-01-16T09:39:22Z</time>
      </trkpt>
      <trkpt lat="47.57531" lon="-2.28701">
        <ele>2.8</ele>
        <time>2025-01-16T09:39:23Z</time>
      </trkpt>
      <trkpt lat="47.57531" lon="-2.28701">
        <ele>2.8</ele>
        <time>2025-01-16T09:39:24Z</time>
      </trkpt>
      <trkpt lat="47.57531" lon="-2.28701">
        <ele>2.8</ele>
        <time>2025-01-16T09:39:25Z</time>
      </trkpt>
      <trkpt lat="47.57531" lon="-2.28701">
        <ele>2.8</ele>
        <time>2025-01-16T09:39:26Z</time>
      </trkpt>
      <trkpt lat="47.57531" lon="-2.28701">
        <ele>2.8</ele>
        <time>2025-01-16T09:39:27Z</time>
      </trkpt>
      <trkpt lat="47.57531" lon="-2.28701">
        <ele>2.8</ele>
        <time>2025-01-16T09:39:28Z</time>
      </trkpt>
      <trkpt lat="47.57531" lon="-2.28701">
        <ele>2.8</ele>
        <time>2025-01-16T09:39:29Z</time>
      </trkpt>
      <trkpt lat="47.57531" lon="-2.28701">
        <ele>2.8</ele>
        <time>2025-01-16T09:39:30Z</time>
      </trkpt>
      <trkpt lat="47.57531" lon="-2.28701">
        <ele>2.8</ele>
        <time>2025-01-16T09:39:31Z</time>
      </trkpt>
      <trkpt lat="47.57531" lon="-2.28701">
        <ele>2.8</ele>
        <time>2025-01-16T09:39:32Z</time>
      </trkpt>
      <trkpt lat="47.57531" lon="-2.28701">
        <ele>2.8</ele>
        <time>2025-01-16T09:39:33Z</time>
      </trkpt>
      <trkpt lat="47.57531" lon="-2.28701">
        <ele>2.8</ele>
        <time>2025-01-16T09:39:34Z</time>
      </trkpt>
      <trkpt lat="47.57531" lon="-2.28701">
        <ele>2.8</ele>
        <time>2025-01-16T09:39:35Z</time>
      </trkpt>
      <trkpt lat="47.57531" lon="-2.28701">
        <ele>2.8</ele>
        <time>2025-01-16T09:39:36Z</time>
      </trkpt>
      <trkpt lat="47.57531" lon="-2.28701">
        <ele>2.8</ele>
        <time>2025-01-16T09:39:37Z</time>
      </trkpt>
      <trkpt lat="47.57531" lon="-2.28701">
        <ele>2.8</ele>
        <time>2025-01-16T09:39:38Z</time>
      </trkpt>
      <trkpt lat="47.57531" lon="-2.28701">
        <ele>2.8</ele>
        <time>2025-01-16T09:39:39Z</time>
      </trkpt>
      <trkpt lat="47.57531" lon="-2.28701">
        <ele>2.8</ele>
        <time>2025-01-16T09:39:40Z</time>
      </trkpt>
      <trkpt lat="47.57531" lon="-2.28701">
        <ele>2.8</ele>
        <time>2025-01-16T09:39:41Z</time>
      </trkpt>
      <trkpt lat="47.57531" lon="-2.28701">
        <ele>2.8</ele>
        <time>2025-01-16T09:39:42Z</time>
      </trkpt>
      <trkpt lat="47.57531" lon="-2.28701">
        <ele>2.8</ele>
        <time>2025-01-16T09:39:43Z</time>
      </trkpt>
      <trkpt lat="47.57531" lon="-2.28701">
        <ele>2.8</ele>
        <time>2025-01-16T09:39:44Z</time>
      </trkpt>
      <trkpt lat="47.57531" lon="-2.28701">
        <ele>2.8</ele>
        <time>2025-01-16T09:39:45Z</time>
      </trkpt>
      <trkpt lat="47.57531" lon="-2.28701">
        <ele>2.8</ele>
        <time>2025-01-16T09:39:46Z</time>
      </trkpt>
      <trkpt lat="47.57531" lon="-2.28701">
        <ele>2.8</ele>
        <time>2025-01-16T09:39:47Z</time>
      </trkpt>
      <trkpt lat="47.57531" lon="-2.28701">
        <ele>2.8</ele>
        <time>2025-01-16T09:39:48Z</time>
      </trkpt>
      <trkpt lat="47.57531" lon="-2.28701">
        <ele>2.8</ele>
        <time>2025-01-16T09:39:49Z</time>
      </trkpt>
      <trkpt lat="47.57531" lon="-2.28701">
        <ele>2.8</ele>
        <time>2025-01-16T09:39:50Z</time>
      </trkpt>
      <trkpt lat="47.57531" lon="-2.28701">
        <ele>2.8</ele>
        <time>2025-01-16T09:39:51Z</time>
      </trkpt>
      <trkpt lat="47.57531" lon="-2.28701">
        <ele>2.8</ele>
        <time>2025-01-16T09:39:52Z</time>
      </trkpt>
      <trkpt lat="47.57531" lon="-2.28701">
        <ele>2.8</ele>
        <time>2025-01-16T09:39:53Z</time>
      </trkpt>
      <trkpt lat="47.57531" lon="-2.28701">
        <ele>2.8</ele>
        <time>2025-01-16T09:39:54Z</time>
      </trkpt>
      <trkpt lat="47.57531" lon="-2.28701">
        <ele>2.8</ele>
        <time>2025-01-16T09:39:55Z</time>
      </trkpt>
      <trkpt lat="47.57531" lon="-2.28701">
        <ele>2.8</ele>
        <time>2025-01-16T09:39:56Z</time>
      </trkpt>
      <trkpt lat="47.57531" lon="-2.28701">
        <ele>2.8</ele>
        <time>2025-01-16T09:39:57Z</time>
      </trkpt>
      <trkpt lat="47.57531" lon="-2.28701">
        <ele>2.8</ele>
        <time>2025-01-16T09:39:58Z</time>
      </trkpt>
      <trkpt lat="47.57531" lon="-2.28701">
        <ele>2.8</ele>
        <time>2025-01-16T09:39:59Z</time>
      </trkpt>
      <trkpt lat="47.57531" lon="-2.28701">
        <ele>2.8</ele>
        <time>2025-01-16T09:40:00Z</time>
      </trkpt>
      <trkpt lat="47.57531" lon="-2.28701">
        <ele>2.8</ele>
        <time>2025-01-16T09:40:01Z</time>
      </trkpt>
      <trkpt lat="47.57531" lon="-2.28701">
        <ele>2.8</ele>
        <time>2025-01-16T09:40:02Z</time>
      </trkpt>
      <trkpt lat="47.57531" lon="-2.28701">
        <ele>2.8</ele>
        <time>2025-01-16T09:40:03Z</time>
      </trkpt>
      <trkpt lat="47.57531" lon="-2.28701">
        <ele>2.8</ele>
        <time>2025-01-16T09:40:04Z</time>
      </trkpt>
      <trkpt lat="47.57531" lon="-2.28701">
        <ele>2.8</ele>
        <time>2025-01-16T09:40:05Z</time>
      </trkpt>
      <trkpt lat="47.57531" lon="-2.28701">
        <ele>2.8</ele>
        <time>2025-01-16T09:40:06Z</time>
      </trkpt>
      <trkpt lat="47.5753" lon="-2.28701">
        <ele>2.9</ele>
        <time>2025-01-16T09:40:07Z</time>
      </trkpt>
      <trkpt lat="47.5753" lon="-2.28701">
        <ele>2.9</ele>
        <time>2025-01-16T09:40:08Z</time>
      </trkpt>
      <trkpt lat="47.5753" lon="-2.28701">
        <ele>2.9</ele>
        <time>2025-01-16T09:40:09Z</time>
      </trkpt>
      <trkpt lat="47.5753" lon="-2.28701">
        <ele>2.9</ele>
        <time>2025-01-16T09:40:10Z</time>
      </trkpt>
      <trkpt lat="47.5753" lon="-2.287">
        <ele>2.7</ele>
        <time>2025-01-16T09:40:11Z</time>
      </trkpt>
      <trkpt lat="47.5753" lon="-2.287">
        <ele>2.7</ele>
        <time>2025-01-16T09:40:12Z</time>
      </trkpt>
      <trkpt lat="47.5753" lon="-2.287">
        <ele>2.7</ele>
        <time>2025-01-16T09:40:13Z</time>
      </trkpt>
      <trkpt lat="47.5753" lon="-2.287">
        <ele>2.7</ele>
        <time>2025-01-16T09:40:14Z</time>
      </trkpt>
      <trkpt lat="47.5753" lon="-2.287">
        <ele>2.7</ele>
        <time>2025-01-16T09:40:15Z</time>
      </trkpt>
      <trkpt lat="47.5753" lon="-2.28699">
        <ele>2.6</ele>
        <time>2025-01-16T09:40:16Z</time>
      </trkpt>
      <trkpt lat="47.5753" lon="-2.287">
        <ele>2.7</ele>
        <time>2025-01-16T09:40:17Z</time>
      </trkpt>
      <trkpt lat="47.5753" lon="-2.287">
        <ele>2.7</ele>
        <time>2025-01-16T09:40:18Z</time>
      </trkpt>
      <trkpt lat="47.57529" lon="-2.287">
        <ele>2.8</ele>
        <time>2025-01-16T09:40:19Z</time>
      </trkpt>
      <trkpt lat="47.57529" lon="-2.28702">
        <ele>3</ele>
        <time>2025-01-16T09:40:20Z</time>
      </trkpt>
      <trkpt lat="47.57528" lon="-2.28703">
        <ele>3.2</ele>
        <time>2025-01-16T09:40:21Z</time>
      </trkpt>
      <trkpt lat="47.57528" lon="-2.28703">
        <ele>3.2</ele>
        <time>2025-01-16T09:40:22Z</time>
      </trkpt>
      <trkpt lat="47.57527" lon="-2.28704">
        <ele>3.6</ele>
        <time>2025-01-16T09:40:23Z</time>
      </trkpt>
      <trkpt lat="47.57527" lon="-2.28705">
        <ele>3.7</ele>
        <time>2025-01-16T09:40:24Z</time>
      </trkpt>
      <trkpt lat="47.57527" lon="-2.28706">
        <ele>3.9</ele>
        <time>2025-01-16T09:40:25Z</time>
      </trkpt>
      <trkpt lat="47.57526" lon="-2.28707">
        <ele>4.2</ele>
        <time>2025-01-16T09:40:26Z</time>
      </trkpt>
      <trkpt lat="47.57525" lon="-2.28708">
        <ele>4.6</ele>
        <time>2025-01-16T09:40:27Z</time>
      </trkpt>
      <trkpt lat="47.57525" lon="-2.28708">
        <ele>4.6</ele>
        <time>2025-01-16T09:40:28Z</time>
      </trkpt>
      <trkpt lat="47.57525" lon="-2.28709">
        <ele>4.8</ele>
        <time>2025-01-16T09:40:29Z</time>
      </trkpt>
      <trkpt lat="47.57526" lon="-2.28708">
        <ele>4.4</ele>
        <time>2025-01-16T09:40:30Z</time>
      </trkpt>
      <trkpt lat="47.57526" lon="-2.28707">
        <ele>4.2</ele>
        <time>2025-01-16T09:40:31Z</time>
      </trkpt>
      <trkpt lat="47.57526" lon="-2.28707">
        <ele>4.2</ele>
        <time>2025-01-16T09:40:32Z</time>
      </trkpt>
      <trkpt lat="47.57526" lon="-2.28707">
        <ele>4.2</ele>
        <time>2025-01-16T09:40:33Z</time>
      </trkpt>
      <trkpt lat="47.57526" lon="-2.28708">
        <ele>4.4</ele>
        <time>2025-01-16T09:40:34Z</time>
      </trkpt>
      <trkpt lat="47.57525" lon="-2.28708">
        <ele>4.6</ele>
        <time>2025-01-16T09:40:35Z</time>
      </trkpt>
      <trkpt lat="47.57525" lon="-2.28708">
        <ele>4.6</ele>
        <time>2025-01-16T09:40:36Z</time>
      </trkpt>
      <trkpt lat="47.57524" lon="-2.28708">
        <ele>4.9</ele>
        <time>2025-01-16T09:40:37Z</time>
      </trkpt>
      <trkpt lat="47.57523" lon="-2.28709">
        <ele>5.3</ele>
        <time>2025-01-16T09:40:38Z</time>
      </trkpt>
      <trkpt lat="47.57522" lon="-2.2871">
        <ele>5.7</ele>
        <time>2025-01-16T09:40:39Z</time>
      </trkpt>
      <trkpt lat="47.57521" lon="-2.2871">
        <ele>6</ele>
        <time>2025-01-16T09:40:40Z</time>
      </trkpt>
      <trkpt lat="47.57521" lon="-2.28711">
        <ele>6.2</ele>
        <time>2025-01-16T09:40:41Z</time>
      </trkpt>
      <trkpt lat="47.5752" lon="-2.28711">
        <ele>6.5</ele>
        <time>2025-01-16T09:40:42Z</time>
      </trkpt>
      <trkpt lat="47.5752" lon="-2.28712">
        <ele>6.6</ele>
        <time>2025-01-16T09:40:43Z</time>
      </trkpt>
      <trkpt lat="47.5752" lon="-2.28712">
        <ele>6.6</ele>
        <time>2025-01-16T09:40:44Z</time>
      </trkpt>
      <trkpt lat="47.5752" lon="-2.28712">
        <ele>6.6</ele>
        <time>2025-01-16T09:40:45Z</time>
      </trkpt>
      <trkpt lat="47.5752" lon="-2.28712">
        <ele>6.6</ele>
        <time>2025-01-16T09:40:46Z</time>
      </trkpt>
      <trkpt lat="47.5752" lon="-2.28713">
        <ele>6.8</ele>
        <time>2025-01-16T09:40:47Z</time>
      </trkpt>
      <trkpt lat="47.5752" lon="-2.28713">
        <ele>6.8</ele>
        <time>2025-01-16T09:40:48Z</time>
      </trkpt>
      <trkpt lat="47.5752" lon="-2.28713">
        <ele>6.8</ele>
        <time>2025-01-16T09:40:49Z</time>
      </trkpt>
      <trkpt lat="47.5752" lon="-2.28713">
        <ele>6.8</ele>
        <time>2025-01-16T09:40:50Z</time>
      </trkpt>
      <trkpt lat="47.5752" lon="-2.28713">
        <ele>6.8</ele>
        <time>2025-01-16T09:40:51Z</time>
      </trkpt>
      <trkpt lat="47.5752" lon="-2.28713">
        <ele>6.8</ele>
        <time>2025-01-16T09:40:52Z</time>
      </trkpt>
      <trkpt lat="47.5752" lon="-2.28712">
        <ele>6.6</ele>
        <time>2025-01-16T09:40:53Z</time>
      </trkpt>
      <trkpt lat="47.57519" lon="-2.28711">
        <ele>6.7</ele>
        <time>2025-01-16T09:40:54Z</time>
      </trkpt>
      <trkpt lat="47.57518" lon="-2.28711">
        <ele>7</ele>
        <time>2025-01-16T09:40:55Z</time>
      </trkpt>
      <trkpt lat="47.57518" lon="-2.2871">
        <ele>6.8</ele>
        <time>2025-01-16T09:40:56Z</time>
      </trkpt>
      <trkpt lat="47.57517" lon="-2.28709">
        <ele>6.8</ele>
        <time>2025-01-16T09:40:57Z</time>
      </trkpt>
      <trkpt lat="47.57516" lon="-2.28708">
        <ele>6.9</ele>
        <time>2025-01-16T09:40:58Z</time>
      </trkpt>
      <trkpt lat="47.57516" lon="-2.28707">
        <ele>6.7</ele>
        <time>2025-01-16T09:40:59Z</time>
      </trkpt>
      <trkpt lat="47.57515" lon="-2.28707">
        <ele>6.9</ele>
        <time>2025-01-16T09:41:00Z</time>
      </trkpt>
      <trkpt lat="47.57515" lon="-2.28706">
        <ele>6.7</ele>
        <time>2025-01-16T09:41:01Z</time>
      </trkpt>
      <trkpt lat="47.57514" lon="-2.28705">
        <ele>6.8</ele>
        <time>2025-01-16T09:41:02Z</time>
      </trkpt>
      <trkpt lat="47.57514" lon="-2.28704">
        <ele>6.5</ele>
        <time>2025-01-16T09:41:03Z</time>
      </trkpt>
      <trkpt lat="47.57513" lon="-2.28704">
        <ele>6.8</ele>
        <time>2025-01-16T09:41:04Z</time>
      </trkpt>
      <trkpt lat="47.57513" lon="-2.28703">
        <ele>6.5</ele>
        <time>2025-01-16T09:41:05Z</time>
      </trkpt>
      <trkpt lat="47.57512" lon="-2.28703">
        <ele>6.8</ele>
        <time>2025-01-16T09:41:06Z</time>
      </trkpt>
      <trkpt lat="47.57512" lon="-2.28703">
        <ele>6.8</ele>
        <time>2025-01-16T09:41:07Z</time>
      </trkpt>
      <trkpt lat="47.57511" lon="-2.28703">
        <ele>7</ele>
        <time>2025-01-16T09:41:08Z</time>
      </trkpt>
      <trkpt lat="47.57511" lon="-2.28702">
        <ele>6.8</ele>
        <time>2025-01-16T09:41:09Z</time>
      </trkpt>
      <trkpt lat="47.5751" lon="-2.28702">
        <ele>7</ele>
        <time>2025-01-16T09:41:10Z</time>
      </trkpt>
      <trkpt lat="47.57509" lon="-2.28702">
        <ele>7.2</ele>
        <time>2025-01-16T09:41:11Z</time>
      </trkpt>
      <trkpt lat="47.57508" lon="-2.28701">
        <ele>7.2</ele>
        <time>2025-01-16T09:41:12Z</time>
      </trkpt>
      <trkpt lat="47.57507" lon="-2.287">
        <ele>7.1</ele>
        <time>2025-01-16T09:41:13Z</time>
      </trkpt>
      <trkpt lat="47.57507" lon="-2.28699">
        <ele>6.9</ele>
        <time>2025-01-16T09:41:14Z</time>
      </trkpt>
      <trkpt lat="47.57506" lon="-2.28699">
        <ele>7.1</ele>
        <time>2025-01-16T09:41:15Z</time>
      </trkpt>
      <trkpt lat="47.57505" lon="-2.28698">
        <ele>7</ele>
        <time>2025-01-16T09:41:16Z</time>
      </trkpt>
      <trkpt lat="47.57504" lon="-2.28697">
        <ele>7</ele>
        <time>2025-01-16T09:41:17Z</time>
      </trkpt>
      <trkpt lat="47.57503" lon="-2.28696">
        <ele>6.9</ele>
        <time>2025-01-16T09:41:18Z</time>
      </trkpt>
      <trkpt lat="47.57501" lon="-2.28694">
        <ele>6.7</ele>
        <time>2025-01-16T09:41:19Z</time>
      </trkpt>
      <trkpt lat="47.575" lon="-2.28693">
        <ele>6.7</ele>
        <time>2025-01-16T09:41:20Z</time>
      </trkpt>
      <trkpt lat="47.57499" lon="-2.28692">
        <ele>6.8</ele>
        <time>2025-01-16T09:41:21Z</time>
      </trkpt>
      <trkpt lat="47.57499" lon="-2.28691">
        <ele>6.7</ele>
        <time>2025-01-16T09:41:22Z</time>
      </trkpt>
      <trkpt lat="47.57498" lon="-2.2869">
        <ele>6.7</ele>
        <time>2025-01-16T09:41:23Z</time>
      </trkpt>
      <trkpt lat="47.57498" lon="-2.2869">
        <ele>6.7</ele>
        <time>2025-01-16T09:41:24Z</time>
      </trkpt>
      <trkpt lat="47.57497" lon="-2.28688">
        <ele>6.6</ele>
        <time>2025-01-16T09:41:25Z</time>
      </trkpt>
      <trkpt lat="47.57496" lon="-2.28687">
        <ele>6.7</ele>
        <time>2025-01-16T09:41:26Z</time>
      </trkpt>
      <trkpt lat="47.57495" lon="-2.28686">
        <ele>6.8</ele>
        <time>2025-01-16T09:41:27Z</time>
      </trkpt>
      <trkpt lat="47.57494" lon="-2.28685">
        <ele>6.8</ele>
        <time>2025-01-16T09:41:28Z</time>
      </trkpt>
      <trkpt lat="47.57492" lon="-2.28684">
        <ele>7.1</ele>
        <time>2025-01-16T09:41:29Z</time>
      </trkpt>
      <trkpt lat="47.57491" lon="-2.28685">
        <ele>7.6</ele>
        <time>2025-01-16T09:41:30Z</time>
      </trkpt>
      <trkpt lat="47.57491" lon="-2.28685">
        <ele>7.6</ele>
        <time>2025-01-16T09:41:31Z</time>
      </trkpt>
      <trkpt lat="47.57491" lon="-2.28685">
        <ele>7.6</ele>
        <time>2025-01-16T09:41:32Z</time>
      </trkpt>
      <trkpt lat="47.57491" lon="-2.28685">
        <ele>7.6</ele>
        <time>2025-01-16T09:41:33Z</time>
      </trkpt>
      <trkpt lat="47.57491" lon="-2.28686">
        <ele>7.8</ele>
        <time>2025-01-16T09:41:34Z</time>
      </trkpt>
      <trkpt lat="47.57491" lon="-2.28686">
        <ele>7.8</ele>
        <time>2025-01-16T09:41:35Z</time>
      </trkpt>
      <trkpt lat="47.5749" lon="-2.28687">
        <ele>8.3</ele>
        <time>2025-01-16T09:41:36Z</time>
      </trkpt>
      <trkpt lat="47.5749" lon="-2.28687">
        <ele>8.3</ele>
        <time>2025-01-16T09:41:37Z</time>
      </trkpt>
      <trkpt lat="47.5749" lon="-2.28686">
        <ele>8</ele>
        <time>2025-01-16T09:41:38Z</time>
      </trkpt>
      <trkpt lat="47.57489" lon="-2.28686">
        <ele>8.3</ele>
        <time>2025-01-16T09:41:39Z</time>
      </trkpt>
      <trkpt lat="47.57488" lon="-2.28685">
        <ele>8.3</ele>
        <time>2025-01-16T09:41:40Z</time>
      </trkpt>
      <trkpt lat="47.57487" lon="-2.28684">
        <ele>8.3</ele>
        <time>2025-01-16T09:41:41Z</time>
      </trkpt>
      <trkpt lat="47.57486" lon="-2.28683">
        <ele>8.3</ele>
        <time>2025-01-16T09:41:42Z</time>
      </trkpt>
      <trkpt lat="47.57486" lon="-2.28681">
        <ele>7.9</ele>
        <time>2025-01-16T09:41:43Z</time>
      </trkpt>
      <trkpt lat="47.57486" lon="-2.28679">
        <ele>7.4</ele>
        <time>2025-01-16T09:41:44Z</time>
      </trkpt>
      <trkpt lat="47.57485" lon="-2.28677">
        <ele>7.2</ele>
        <time>2025-01-16T09:41:45Z</time>
      </trkpt>
      <trkpt lat="47.57484" lon="-2.28675">
        <ele>6.9</ele>
        <time>2025-01-16T09:41:46Z</time>
      </trkpt>
      <trkpt lat="47.57483" lon="-2.28674">
        <ele>6.9</ele>
        <time>2025-01-16T09:41:47Z</time>
      </trkpt>
      <trkpt lat="47.57482" lon="-2.28674">
        <ele>7.1</ele>
        <time>2025-01-16T09:41:48Z</time>
      </trkpt>
      <trkpt lat="47.57481" lon="-2.28673">
        <ele>7</ele>
        <time>2025-01-16T09:41:49Z</time>
      </trkpt>
      <trkpt lat="47.5748" lon="-2.28672">
        <ele>7</ele>
        <time>2025-01-16T09:41:50Z</time>
      </trkpt>
      <trkpt lat="47.57479" lon="-2.28671">
        <ele>6.9</ele>
        <time>2025-01-16T09:41:51Z</time>
      </trkpt>
      <trkpt lat="47.57478" lon="-2.28671">
        <ele>7.1</ele>
        <time>2025-01-16T09:41:52Z</time>
      </trkpt>
      <trkpt lat="47.57477" lon="-2.2867">
        <ele>7</ele>
        <time>2025-01-16T09:41:53Z</time>
      </trkpt>
      <trkpt lat="47.57476" lon="-2.2867">
        <ele>7.2</ele>
        <time>2025-01-16T09:41:54Z</time>
      </trkpt>
      <trkpt lat="47.57475" lon="-2.28669">
        <ele>7.1</ele>
        <time>2025-01-16T09:41:55Z</time>
      </trkpt>
      <trkpt lat="47.57474" lon="-2.28669">
        <ele>7.3</ele>
        <time>2025-01-16T09:41:56Z</time>
      </trkpt>
      <trkpt lat="47.57473" lon="-2.28668">
        <ele>7.2</ele>
        <time>2025-01-16T09:41:57Z</time>
      </trkpt>
      <trkpt lat="47.57472" lon="-2.28668">
        <ele>7.5</ele>
        <time>2025-01-16T09:41:58Z</time>
      </trkpt>
      <trkpt lat="47.5747" lon="-2.28667">
        <ele>7.8</ele>
        <time>2025-01-16T09:41:59Z</time>
      </trkpt>
      <trkpt lat="47.57469" lon="-2.28667">
        <ele>8.1</ele>
        <time>2025-01-16T09:42:00Z</time>
      </trkpt>
      <trkpt lat="47.57468" lon="-2.28666">
        <ele>8.3</ele>
        <time>2025-01-16T09:42:01Z</time>
      </trkpt>
      <trkpt lat="47.57467" lon="-2.28666">
        <ele>8.6</ele>
        <time>2025-01-16T09:42:02Z</time>
      </trkpt>
      <trkpt lat="47.57466" lon="-2.28665">
        <ele>8.7</ele>
        <time>2025-01-16T09:42:03Z</time>
      </trkpt>
      <trkpt lat="47.57466" lon="-2.28665">
        <ele>8.7</ele>
        <time>2025-01-16T09:42:04Z</time>
      </trkpt>
      <trkpt lat="47.57465" lon="-2.28664">
        <ele>8.9</ele>
        <time>2025-01-16T09:42:05Z</time>
      </trkpt>
      <trkpt lat="47.57464" lon="-2.28663">
        <ele>9</ele>
        <time>2025-01-16T09:42:06Z</time>
      </trkpt>
      <trkpt lat="47.57463" lon="-2.28662">
        <ele>9.1</ele>
        <time>2025-01-16T09:42:07Z</time>
      </trkpt>
      <trkpt lat="47.57462" lon="-2.28661">
        <ele>9.3</ele>
        <time>2025-01-16T09:42:08Z</time>
      </trkpt>
      <trkpt lat="47.57461" lon="-2.2866">
        <ele>9.4</ele>
        <time>2025-01-16T09:42:09Z</time>
      </trkpt>
      <trkpt lat="47.5746" lon="-2.28659">
        <ele>9.5</ele>
        <time>2025-01-16T09:42:10Z</time>
      </trkpt>
      <trkpt lat="47.57459" lon="-2.28659">
        <ele>9.8</ele>
        <time>2025-01-16T09:42:11Z</time>
      </trkpt>
      <trkpt lat="47.57458" lon="-2.28658">
        <ele>9.9</ele>
        <time>2025-01-16T09:42:12Z</time>
      </trkpt>
      <trkpt lat="47.57457" lon="-2.28657">
        <ele>10</ele>
        <time>2025-01-16T09:42:13Z</time>
      </trkpt>
      <trkpt lat="47.57455" lon="-2.28657">
        <ele>10.5</ele>
        <time>2025-01-16T09:42:14Z</time>
      </trkpt>
      <trkpt lat="47.57454" lon="-2.28656">
        <ele>10.6</ele>
        <time>2025-01-16T09:42:15Z</time>
      </trkpt>
      <trkpt lat="47.57454" lon="-2.28655">
        <ele>10.4</ele>
        <time>2025-01-16T09:42:16Z</time>
      </trkpt>
      <trkpt lat="47.57453" lon="-2.28655">
        <ele>10.7</ele>
        <time>2025-01-16T09:42:17Z</time>
      </trkpt>
      <trkpt lat="47.57452" lon="-2.28654">
        <ele>10.7</ele>
        <time>2025-01-16T09:42:18Z</time>
      </trkpt>
      <trkpt lat="47.57452" lon="-2.28654">
        <ele>10.7</ele>
        <time>2025-01-16T09:42:19Z</time>
      </trkpt>
      <trkpt lat="47.57451" lon="-2.28653">
        <ele>10.8</ele>
        <time>2025-01-16T09:42:20Z</time>
      </trkpt>
      <trkpt lat="47.5745" lon="-2.28652">
        <ele>10.8</ele>
        <time>2025-01-16T09:42:21Z</time>
      </trkpt>
      <trkpt lat="47.57449" lon="-2.28652">
        <ele>11.1</ele>
        <time>2025-01-16T09:42:22Z</time>
      </trkpt>
      <trkpt lat="47.57448" lon="-2.28651">
        <ele>11.1</ele>
        <time>2025-01-16T09:42:23Z</time>
      </trkpt>
      <trkpt lat="47.57447" lon="-2.2865">
        <ele>11.1</ele>
        <time>2025-01-16T09:42:24Z</time>
      </trkpt>
      <trkpt lat="47.57447" lon="-2.2865">
        <ele>11.1</ele>
        <time>2025-01-16T09:42:25Z</time>
      </trkpt>
      <trkpt lat="47.57446" lon="-2.28649">
        <ele>11.2</ele>
        <time>2025-01-16T09:42:26Z</time>
      </trkpt>
      <trkpt lat="47.57445" lon="-2.28649">
        <ele>11.4</ele>
        <time>2025-01-16T09:42:27Z</time>
      </trkpt>
      <trkpt lat="47.57445" lon="-2.28648">
        <ele>11.2</ele>
        <time>2025-01-16T09:42:28Z</time>
      </trkpt>
      <trkpt lat="47.57444" lon="-2.28648">
        <ele>11.4</ele>
        <time>2025-01-16T09:42:29Z</time>
      </trkpt>
      <trkpt lat="47.57444" lon="-2.28648">
        <ele>11.4</ele>
        <time>2025-01-16T09:42:30Z</time>
      </trkpt>
      <trkpt lat="47.57444" lon="-2.28648">
        <ele>11.4</ele>
        <time>2025-01-16T09:42:31Z</time>
      </trkpt>
      <trkpt lat="47.57444" lon="-2.28648">
        <ele>11.4</ele>
        <time>2025-01-16T09:42:32Z</time>
      </trkpt>
      <trkpt lat="47.57445" lon="-2.28648">
        <ele>11.2</ele>
        <time>2025-01-16T09:42:33Z</time>
      </trkpt>
      <trkpt lat="47.57445" lon="-2.28648">
        <ele>11.2</ele>
        <time>2025-01-16T09:42:34Z</time>
      </trkpt>
      <trkpt lat="47.57445" lon="-2.28648">
        <ele>11.2</ele>
        <time>2025-01-16T09:42:35Z</time>
      </trkpt>
      <trkpt lat="47.57446" lon="-2.28649">
        <ele>11.2</ele>
        <time>2025-01-16T09:42:36Z</time>
      </trkpt>
      <trkpt lat="47.57446" lon="-2.28649">
        <ele>11.2</ele>
        <time>2025-01-16T09:42:37Z</time>
      </trkpt>
      <trkpt lat="47.57446" lon="-2.28649">
        <ele>11.2</ele>
        <time>2025-01-16T09:42:38Z</time>
      </trkpt>
      <trkpt lat="47.57446" lon="-2.28649">
        <ele>11.2</ele>
        <time>2025-01-16T09:42:39Z</time>
      </trkpt>
      <trkpt lat="47.57446" lon="-2.28649">
        <ele>11.2</ele>
        <time>2025-01-16T09:42:40Z</time>
      </trkpt>
      <trkpt lat="47.57446" lon="-2.28649">
        <ele>11.2</ele>
        <time>2025-01-16T09:42:41Z</time>
      </trkpt>
      <trkpt lat="47.57447" lon="-2.28649">
        <ele>10.9</ele>
        <time>2025-01-16T09:42:42Z</time>
      </trkpt>
      <trkpt lat="47.57447" lon="-2.2865">
        <ele>11.1</ele>
        <time>2025-01-16T09:42:43Z</time>
      </trkpt>
      <trkpt lat="47.57447" lon="-2.2865">
        <ele>11.1</ele>
        <time>2025-01-16T09:42:44Z</time>
      </trkpt>
      <trkpt lat="47.57447" lon="-2.2865">
        <ele>11.1</ele>
        <time>2025-01-16T09:42:45Z</time>
      </trkpt>
      <trkpt lat="47.57447" lon="-2.28649">
        <ele>10.9</ele>
        <time>2025-01-16T09:42:46Z</time>
      </trkpt>
      <trkpt lat="47.57447" lon="-2.2865">
        <ele>11.1</ele>
        <time>2025-01-16T09:42:47Z</time>
      </trkpt>
      <trkpt lat="47.57447" lon="-2.28649">
        <ele>10.9</ele>
        <time>2025-01-16T09:42:48Z</time>
      </trkpt>
      <trkpt lat="47.57447" lon="-2.2865">
        <ele>11.1</ele>
        <time>2025-01-16T09:42:49Z</time>
      </trkpt>
      <trkpt lat="47.57447" lon="-2.28649">
        <ele>10.9</ele>
        <time>2025-01-16T09:42:50Z</time>
      </trkpt>
      <trkpt lat="47.57447" lon="-2.2865">
        <ele>11.1</ele>
        <time>2025-01-16T09:42:51Z</time>
      </trkpt>
      <trkpt lat="47.57447" lon="-2.2865">
        <ele>11.1</ele>
        <time>2025-01-16T09:42:52Z</time>
      </trkpt>
      <trkpt lat="47.57447" lon="-2.2865">
        <ele>11.1</ele>
        <time>2025-01-16T09:42:53Z</time>
      </trkpt>
      <trkpt lat="47.57447" lon="-2.2865">
        <ele>11.1</ele>
        <time>2025-01-16T09:42:54Z</time>
      </trkpt>
      <trkpt lat="47.57447" lon="-2.2865">
        <ele>11.1</ele>
        <time>2025-01-16T09:42:55Z</time>
      </trkpt>
      <trkpt lat="47.57447" lon="-2.2865">
        <ele>11.1</ele>
        <time>2025-01-16T09:42:56Z</time>
      </trkpt>
      <trkpt lat="47.57447" lon="-2.28651">
        <ele>11.4</ele>
        <time>2025-01-16T09:42:57Z</time>
      </trkpt>
      <trkpt lat="47.57447" lon="-2.28651">
        <ele>11.4</ele>
        <time>2025-01-16T09:42:58Z</time>
      </trkpt>
      <trkpt lat="47.57447" lon="-2.28652">
        <ele>11.6</ele>
        <time>2025-01-16T09:42:59Z</time>
      </trkpt>
      <trkpt lat="47.57447" lon="-2.28652">
        <ele>11.6</ele>
        <time>2025-01-16T09:43:00Z</time>
      </trkpt>
      <trkpt lat="47.57447" lon="-2.28653">
        <ele>11.9</ele>
        <time>2025-01-16T09:43:01Z</time>
      </trkpt>
      <trkpt lat="47.57447" lon="-2.28653">
        <ele>11.9</ele>
        <time>2025-01-16T09:43:02Z</time>
      </trkpt>
      <trkpt lat="47.57447" lon="-2.28654">
        <ele>12.1</ele>
        <time>2025-01-16T09:43:03Z</time>
      </trkpt>
      <trkpt lat="47.57447" lon="-2.28654">
        <ele>12.1</ele>
        <time>2025-01-16T09:43:04Z</time>
      </trkpt>
      <trkpt lat="47.57446" lon="-2.28655">
        <ele>12.6</ele>
        <time>2025-01-16T09:43:05Z</time>
      </trkpt>
      <trkpt lat="47.57446" lon="-2.28655">
        <ele>12.6</ele>
        <time>2025-01-16T09:43:06Z</time>
      </trkpt>
      <trkpt lat="47.57447" lon="-2.28655">
        <ele>12.3</ele>
        <time>2025-01-16T09:43:07Z</time>
      </trkpt>
      <trkpt lat="47.57447" lon="-2.28656">
        <ele>12.6</ele>
        <time>2025-01-16T09:43:08Z</time>
      </trkpt>
      <trkpt lat="47.57447" lon="-2.28657">
        <ele>12.8</ele>
        <time>2025-01-16T09:43:09Z</time>
      </trkpt>
      <trkpt lat="47.57448" lon="-2.28657">
        <ele>12.5</ele>
        <time>2025-01-16T09:43:10Z</time>
      </trkpt>
      <trkpt lat="47.57448" lon="-2.28657">
        <ele>12.5</ele>
        <time>2025-01-16T09:43:11Z</time>
      </trkpt>
      <trkpt lat="47.57448" lon="-2.28657">
        <ele>12.5</ele>
        <time>2025-01-16T09:43:12Z</time>
      </trkpt>
      <trkpt lat="47.57448" lon="-2.28657">
        <ele>12.5</ele>
        <time>2025-01-16T09:43:13Z</time>
      </trkpt>
      <trkpt lat="47.57449" lon="-2.28658">
        <ele>12.5</ele>
        <time>2025-01-16T09:43:14Z</time>
      </trkpt>
      <trkpt lat="47.57449" lon="-2.28658">
        <ele>12.5</ele>
        <time>2025-01-16T09:43:15Z</time>
      </trkpt>
      <trkpt lat="47.57449" lon="-2.28659">
        <ele>12.7</ele>
        <time>2025-01-16T09:43:16Z</time>
      </trkpt>
      <trkpt lat="47.57448" lon="-2.28659">
        <ele>13</ele>
        <time>2025-01-16T09:43:17Z</time>
      </trkpt>
      <trkpt lat="47.57448" lon="-2.28659">
        <ele>13</ele>
        <time>2025-01-16T09:43:18Z</time>
      </trkpt>
      <trkpt lat="47.57448" lon="-2.28659">
        <ele>13</ele>
        <time>2025-01-16T09:43:19Z</time>
      </trkpt>
      <trkpt lat="47.57447" lon="-2.28659">
        <ele>13.3</ele>
        <time>2025-01-16T09:43:20Z</time>
      </trkpt>
      <trkpt lat="47.57447" lon="-2.28659">
        <ele>13.3</ele>
        <time>2025-01-16T09:43:21Z</time>
      </trkpt>
      <trkpt lat="47.57446" lon="-2.2866">
        <ele>13.9</ele>
        <time>2025-01-16T09:43:22Z</time>
      </trkpt>
      <trkpt lat="47.57445" lon="-2.28661">
        <ele>14.4</ele>
        <time>2025-01-16T09:43:23Z</time>
      </trkpt>
      <trkpt lat="47.57445" lon="-2.28661">
        <ele>14.4</ele>
        <time>2025-01-16T09:43:24Z</time>
      </trkpt>
      <trkpt lat="47.57445" lon="-2.28661">
        <ele>14.4</ele>
        <time>2025-01-16T09:43:25Z</time>
      </trkpt>
      <trkpt lat="47.57444" lon="-2.28662">
        <ele>14.9</ele>
        <time>2025-01-16T09:43:26Z</time>
      </trkpt>
      <trkpt lat="47.57444" lon="-2.28662">
        <ele>14.9</ele>
        <time>2025-01-16T09:43:27Z</time>
      </trkpt>
      <trkpt lat="47.57443" lon="-2.28662">
        <ele>15.2</ele>
        <time>2025-01-16T09:43:28Z</time>
      </trkpt>
      <trkpt lat="47.57443" lon="-2.28663">
        <ele>15.4</ele>
        <time>2025-01-16T09:43:29Z</time>
      </trkpt>
      <trkpt lat="47.57443" lon="-2.28663">
        <ele>15.4</ele>
        <time>2025-01-16T09:43:30Z</time>
      </trkpt>
      <trkpt lat="47.57442" lon="-2.28663">
        <ele>15.7</ele>
        <time>2025-01-16T09:43:31Z</time>
      </trkpt>
      <trkpt lat="47.57442" lon="-2.28663">
        <ele>15.7</ele>
        <time>2025-01-16T09:43:32Z</time>
      </trkpt>
      <trkpt lat="47.57441" lon="-2.28664">
        <ele>16.2</ele>
        <time>2025-01-16T09:43:33Z</time>
      </trkpt>
      <trkpt lat="47.57441" lon="-2.28664">
        <ele>16.2</ele>
        <time>2025-01-16T09:43:34Z</time>
      </trkpt>
      <trkpt lat="47.5744" lon="-2.28665">
        <ele>16.7</ele>
        <time>2025-01-16T09:43:35Z</time>
      </trkpt>
      <trkpt lat="47.5744" lon="-2.28665">
        <ele>16.7</ele>
        <time>2025-01-16T09:43:36Z</time>
      </trkpt>
      <trkpt lat="47.5744" lon="-2.28665">
        <ele>16.7</ele>
        <time>2025-01-16T09:43:37Z</time>
      </trkpt>
      <trkpt lat="47.57439" lon="-2.28666">
        <ele>17.2</ele>
        <time>2025-01-16T09:43:38Z</time>
      </trkpt>
      <trkpt lat="47.57439" lon="-2.28666">
        <ele>17.2</ele>
        <time>2025-01-16T09:43:39Z</time>
      </trkpt>
      <trkpt lat="47.57438" lon="-2.28666">
        <ele>17.5</ele>
        <time>2025-01-16T09:43:40Z</time>
      </trkpt>
      <trkpt lat="47.57438" lon="-2.28667">
        <ele>17.7</ele>
        <time>2025-01-16T09:43:41Z</time>
      </trkpt>
      <trkpt lat="47.57437" lon="-2.28667">
        <ele>18</ele>
        <time>2025-01-16T09:43:42Z</time>
      </trkpt>
      <trkpt lat="47.57437" lon="-2.28667">
        <ele>18</ele>
        <time>2025-01-16T09:43:43Z</time>
      </trkpt>
      <trkpt lat="47.57436" lon="-2.28668">
        <ele>18.5</ele>
        <time>2025-01-16T09:43:44Z</time>
      </trkpt>
      <trkpt lat="47.57436" lon="-2.28668">
        <ele>18.5</ele>
        <time>2025-01-16T09:43:45Z</time>
      </trkpt>
      <trkpt lat="47.57435" lon="-2.28668">
        <ele>18.7</ele>
        <time>2025-01-16T09:43:46Z</time>
      </trkpt>
      <trkpt lat="47.57435" lon="-2.28668">
        <ele>18.7</ele>
        <time>2025-01-16T09:43:47Z</time>
      </trkpt>
      <trkpt lat="47.57435" lon="-2.28668">
        <ele>18.7</ele>
        <time>2025-01-16T09:43:48Z</time>
      </trkpt>
      <trkpt lat="47.57435" lon="-2.28669">
        <ele>19</ele>
        <time>2025-01-16T09:43:49Z</time>
      </trkpt>
      <trkpt lat="47.57435" lon="-2.28669">
        <ele>19</ele>
        <time>2025-01-16T09:43:50Z</time>
      </trkpt>
      <trkpt lat="47.57435" lon="-2.28669">
        <ele>19</ele>
        <time>2025-01-16T09:43:51Z</time>
      </trkpt>
      <trkpt lat="47.57435" lon="-2.28669">
        <ele>19</ele>
        <time>2025-01-16T09:43:52Z</time>
      </trkpt>
      <trkpt lat="47.57435" lon="-2.28669">
        <ele>19</ele>
        <time>2025-01-16T09:43:53Z</time>
      </trkpt>
      <trkpt lat="47.57435" lon="-2.28669">
        <ele>19</ele>
        <time>2025-01-16T09:43:54Z</time>
      </trkpt>
      <trkpt lat="47.57435" lon="-2.28669">
        <ele>19</ele>
        <time>2025-01-16T09:43:55Z</time>
      </trkpt>
      <trkpt lat="47.57435" lon="-2.28669">
        <ele>19</ele>
        <time>2025-01-16T09:43:56Z</time>
      </trkpt>
      <trkpt lat="47.57435" lon="-2.28669">
        <ele>19</ele>
        <time>2025-01-16T09:43:57Z</time>
      </trkpt>
      <trkpt lat="47.57435" lon="-2.28669">
        <ele>19</ele>
        <time>2025-01-16T09:43:58Z</time>
      </trkpt>
      <trkpt lat="47.57435" lon="-2.28669">
        <ele>19</ele>
        <time>2025-01-16T09:43:59Z</time>
      </trkpt>
      <trkpt lat="47.57434" lon="-2.28669">
        <ele>19.3</ele>
        <time>2025-01-16T09:44:00Z</time>
      </trkpt>
      <trkpt lat="47.57434" lon="-2.28669">
        <ele>19.3</ele>
        <time>2025-01-16T09:44:01Z</time>
      </trkpt>
      <trkpt lat="47.57434" lon="-2.28669">
        <ele>19.3</ele>
        <time>2025-01-16T09:44:02Z</time>
      </trkpt>
      <trkpt lat="47.57433" lon="-2.2867">
        <ele>19.8</ele>
        <time>2025-01-16T09:44:03Z</time>
      </trkpt>
      <trkpt lat="47.57432" lon="-2.28671">
        <ele>20.3</ele>
        <time>2025-01-16T09:44:04Z</time>
      </trkpt>
      <trkpt lat="47.57431" lon="-2.28672">
        <ele>20.8</ele>
        <time>2025-01-16T09:44:05Z</time>
      </trkpt>
      <trkpt lat="47.57431" lon="-2.28673">
        <ele>21.1</ele>
        <time>2025-01-16T09:44:06Z</time>
      </trkpt>
      <trkpt lat="47.5743" lon="-2.28673">
        <ele>21.3</ele>
        <time>2025-01-16T09:44:07Z</time>
      </trkpt>
      <trkpt lat="47.5743" lon="-2.28674">
        <ele>21.6</ele>
        <time>2025-01-16T09:44:08Z</time>
      </trkpt>
      <trkpt lat="47.57429" lon="-2.28674">
        <ele>21.9</ele>
        <time>2025-01-16T09:44:09Z</time>
      </trkpt>
      <trkpt lat="47.57428" lon="-2.28674">
        <ele>22.1</ele>
        <time>2025-01-16T09:44:10Z</time>
      </trkpt>
      <trkpt lat="47.57427" lon="-2.28674">
        <ele>22.3</ele>
        <time>2025-01-16T09:44:11Z</time>
      </trkpt>
      <trkpt lat="47.57426" lon="-2.28674">
        <ele>22.6</ele>
        <time>2025-01-16T09:44:12Z</time>
      </trkpt>
      <trkpt lat="47.57425" lon="-2.28673">
        <ele>22.6</ele>
        <time>2025-01-16T09:44:13Z</time>
      </trkpt>
      <trkpt lat="47.57423" lon="-2.28673">
        <ele>23.1</ele>
        <time>2025-01-16T09:44:14Z</time>
      </trkpt>
      <trkpt lat="47.57422" lon="-2.28672">
        <ele>23</ele>
        <time>2025-01-16T09:44:15Z</time>
      </trkpt>
      <trkpt lat="47.57421" lon="-2.28672">
        <ele>23.3</ele>
        <time>2025-01-16T09:44:16Z</time>
      </trkpt>
      <trkpt lat="47.5742" lon="-2.28672">
        <ele>23.5</ele>
        <time>2025-01-16T09:44:17Z</time>
      </trkpt>
      <trkpt lat="47.57419" lon="-2.28672">
        <ele>23.8</ele>
        <time>2025-01-16T09:44:18Z</time>
      </trkpt>
      <trkpt lat="47.57418" lon="-2.28672">
        <ele>24</ele>
        <time>2025-01-16T09:44:19Z</time>
      </trkpt>
      <trkpt lat="47.57417" lon="-2.28672">
        <ele>24.3</ele>
        <time>2025-01-16T09:44:20Z</time>
      </trkpt>
      <trkpt lat="47.57417" lon="-2.28672">
        <ele>24.3</ele>
        <time>2025-01-16T09:44:21Z</time>
      </trkpt>
      <trkpt lat="47.57416" lon="-2.28672">
        <ele>24.4</ele>
        <time>2025-01-16T09:44:22Z</time>
      </trkpt>
      <trkpt lat="47.57415" lon="-2.28672">
        <ele>24.6</ele>
        <time>2025-01-16T09:44:23Z</time>
      </trkpt>
      <trkpt lat="47.57415" lon="-2.28671">
        <ele>24.3</ele>
        <time>2025-01-16T09:44:24Z</time>
      </trkpt>
      <trkpt lat="47.57414" lon="-2.28671">
        <ele>24.5</ele>
        <time>2025-01-16T09:44:25Z</time>
      </trkpt>
      <trkpt lat="47.57413" lon="-2.28671">
        <ele>24.6</ele>
        <time>2025-01-16T09:44:26Z</time>
      </trkpt>
      <trkpt lat="47.57412" lon="-2.28672">
        <ele>25</ele>
        <time>2025-01-16T09:44:27Z</time>
      </trkpt>
      <trkpt lat="47.57412" lon="-2.28672">
        <ele>25</ele>
        <time>2025-01-16T09:44:28Z</time>
      </trkpt>
      <trkpt lat="47.57411" lon="-2.28672">
        <ele>25.1</ele>
        <time>2025-01-16T09:44:29Z</time>
      </trkpt>
      <trkpt lat="47.57411" lon="-2.28673">
        <ele>25.4</ele>
        <time>2025-01-16T09:44:30Z</time>
      </trkpt>
      <trkpt lat="47.5741" lon="-2.28673">
        <ele>25.5</ele>
        <time>2025-01-16T09:44:31Z</time>
      </trkpt>
      <trkpt lat="47.57409" lon="-2.28673">
        <ele>25.6</ele>
        <time>2025-01-16T09:44:32Z</time>
      </trkpt>
      <trkpt lat="47.57409" lon="-2.28674">
        <ele>25.9</ele>
        <time>2025-01-16T09:44:33Z</time>
      </trkpt>
      <trkpt lat="47.57408" lon="-2.28674">
        <ele>26</ele>
        <time>2025-01-16T09:44:34Z</time>
      </trkpt>
      <trkpt lat="47.57407" lon="-2.28674">
        <ele>26.1</ele>
        <time>2025-01-16T09:44:35Z</time>
      </trkpt>
      <trkpt lat="47.57407" lon="-2.28675">
        <ele>26.4</ele>
        <time>2025-01-16T09:44:36Z</time>
      </trkpt>
      <trkpt lat="47.57406" lon="-2.28675">
        <ele>26.5</ele>
        <time>2025-01-16T09:44:37Z</time>
      </trkpt>
      <trkpt lat="47.57405" lon="-2.28675">
        <ele>26.7</ele>
        <time>2025-01-16T09:44:38Z</time>
      </trkpt>
      <trkpt lat="47.57405" lon="-2.28675">
        <ele>26.7</ele>
        <time>2025-01-16T09:44:39Z</time>
      </trkpt>
      <trkpt lat="47.57405" lon="-2.28675">
        <ele>26.7</ele>
        <time>2025-01-16T09:44:40Z</time>
      </trkpt>
      <trkpt lat="47.57405" lon="-2.28676">
        <ele>26.9</ele>
        <time>2025-01-16T09:44:41Z</time>
      </trkpt>
      <trkpt lat="47.57404" lon="-2.28676">
        <ele>27</ele>
        <time>2025-01-16T09:44:42Z</time>
      </trkpt>
      <trkpt lat="47.57403" lon="-2.28676">
        <ele>27.2</ele>
        <time>2025-01-16T09:44:43Z</time>
      </trkpt>
      <trkpt lat="47.57403" lon="-2.28676">
        <ele>27.2</ele>
        <time>2025-01-16T09:44:44Z</time>
      </trkpt>
      <trkpt lat="47.57403" lon="-2.28675">
        <ele>26.9</ele>
        <time>2025-01-16T09:44:45Z</time>
      </trkpt>
      <trkpt lat="47.57402" lon="-2.28675">
        <ele>27.1</ele>
        <time>2025-01-16T09:44:46Z</time>
      </trkpt>
      <trkpt lat="47.57401" lon="-2.28674">
        <ele>27</ele>
        <time>2025-01-16T09:44:47Z</time>
      </trkpt>
      <trkpt lat="47.57401" lon="-2.28674">
        <ele>27</ele>
        <time>2025-01-16T09:44:48Z</time>
      </trkpt>
      <trkpt lat="47.574" lon="-2.28673">
        <ele>26.9</ele>
        <time>2025-01-16T09:44:49Z</time>
      </trkpt>
      <trkpt lat="47.57399" lon="-2.28673">
        <ele>27</ele>
        <time>2025-01-16T09:44:50Z</time>
      </trkpt>
      <trkpt lat="47.57398" lon="-2.28673">
        <ele>27.1</ele>
        <time>2025-01-16T09:44:51Z</time>
      </trkpt>
      <trkpt lat="47.57398" lon="-2.28673">
        <ele>27.1</ele>
        <time>2025-01-16T09:44:52Z</time>
      </trkpt>
      <trkpt lat="47.57397" lon="-2.28673">
        <ele>27.3</ele>
        <time>2025-01-16T09:44:53Z</time>
      </trkpt>
      <trkpt lat="47.57397" lon="-2.28673">
        <ele>27.3</ele>
        <time>2025-01-16T09:44:54Z</time>
      </trkpt>
      <trkpt lat="47.57396" lon="-2.28672">
        <ele>27.2</ele>
        <time>2025-01-16T09:44:55Z</time>
      </trkpt>
      <trkpt lat="47.57395" lon="-2.28672">
        <ele>27.3</ele>
        <time>2025-01-16T09:44:56Z</time>
      </trkpt>
      <trkpt lat="47.57393" lon="-2.28671">
        <ele>27.4</ele>
        <time>2025-01-16T09:44:57Z</time>
      </trkpt>
      <trkpt lat="47.57392" lon="-2.2867">
        <ele>27.3</ele>
        <time>2025-01-16T09:44:58Z</time>
      </trkpt>
      <trkpt lat="47.57391" lon="-2.2867">
        <ele>27.4</ele>
        <time>2025-01-16T09:44:59Z</time>
      </trkpt>
      <trkpt lat="47.5739" lon="-2.2867">
        <ele>27.6</ele>
        <time>2025-01-16T09:45:00Z</time>
      </trkpt>
      <trkpt lat="47.57389" lon="-2.2867">
        <ele>27.7</ele>
        <time>2025-01-16T09:45:01Z</time>
      </trkpt>
      <trkpt lat="47.57388" lon="-2.28671">
        <ele>28</ele>
        <time>2025-01-16T09:45:02Z</time>
      </trkpt>
      <trkpt lat="47.57387" lon="-2.28671">
        <ele>28.1</ele>
        <time>2025-01-16T09:45:03Z</time>
      </trkpt>
      <trkpt lat="47.57386" lon="-2.2867">
        <ele>27.9</ele>
        <time>2025-01-16T09:45:04Z</time>
      </trkpt>
      <trkpt lat="47.57385" lon="-2.2867">
        <ele>28</ele>
        <time>2025-01-16T09:45:05Z</time>
      </trkpt>
      <trkpt lat="47.57385" lon="-2.2867">
        <ele>28</ele>
        <time>2025-01-16T09:45:06Z</time>
      </trkpt>
      <trkpt lat="47.57384" lon="-2.2867">
        <ele>28</ele>
        <time>2025-01-16T09:45:07Z</time>
      </trkpt>
      <trkpt lat="47.57384" lon="-2.28669">
        <ele>27.8</ele>
        <time>2025-01-16T09:45:08Z</time>
      </trkpt>
      <trkpt lat="47.57384" lon="-2.28669">
        <ele>27.8</ele>
        <time>2025-01-16T09:45:09Z</time>
      </trkpt>
      <trkpt lat="47.57383" lon="-2.28669">
        <ele>27.9</ele>
        <time>2025-01-16T09:45:10Z</time>
      </trkpt>
      <trkpt lat="47.57383" lon="-2.28669">
        <ele>27.9</ele>
        <time>2025-01-16T09:45:11Z</time>
      </trkpt>
      <trkpt lat="47.57382" lon="-2.28669">
        <ele>28</ele>
        <time>2025-01-16T09:45:12Z</time>
      </trkpt>
      <trkpt lat="47.57381" lon="-2.28669">
        <ele>28</ele>
        <time>2025-01-16T09:45:13Z</time>
      </trkpt>
      <trkpt lat="47.57381" lon="-2.2867">
        <ele>28.2</ele>
        <time>2025-01-16T09:45:14Z</time>
      </trkpt>
      <trkpt lat="47.5738" lon="-2.28671">
        <ele>28.5</ele>
        <time>2025-01-16T09:45:15Z</time>
      </trkpt>
      <trkpt lat="47.57379" lon="-2.28672">
        <ele>28.7</ele>
        <time>2025-01-16T09:45:16Z</time>
      </trkpt>
      <trkpt lat="47.57378" lon="-2.28672">
        <ele>28.8</ele>
        <time>2025-01-16T09:45:17Z</time>
      </trkpt>
      <trkpt lat="47.57377" lon="-2.28673">
        <ele>29</ele>
        <time>2025-01-16T09:45:18Z</time>
      </trkpt>
      <trkpt lat="47.57376" lon="-2.28673">
        <ele>29.1</ele>
        <time>2025-01-16T09:45:19Z</time>
      </trkpt>
      <trkpt lat="47.57375" lon="-2.28674">
        <ele>29.3</ele>
        <time>2025-01-16T09:45:20Z</time>
      </trkpt>
      <trkpt lat="47.57374" lon="-2.28674">
        <ele>29.4</ele>
        <time>2025-01-16T09:45:21Z</time>
      </trkpt>
      <trkpt lat="47.57373" lon="-2.28674">
        <ele>29.4</ele>
        <time>2025-01-16T09:45:22Z</time>
      </trkpt>
      <trkpt lat="47.57372" lon="-2.28675">
        <ele>29.7</ele>
        <time>2025-01-16T09:45:23Z</time>
      </trkpt>
      <trkpt lat="47.57371" lon="-2.28675">
        <ele>29.7</ele>
        <time>2025-01-16T09:45:24Z</time>
      </trkpt>
      <trkpt lat="47.57369" lon="-2.28675">
        <ele>29.8</ele>
        <time>2025-01-16T09:45:25Z</time>
      </trkpt>
      <trkpt lat="47.57368" lon="-2.28676">
        <ele>30</ele>
        <time>2025-01-16T09:45:26Z</time>
      </trkpt>
      <trkpt lat="47.57367" lon="-2.28676">
        <ele>30.1</ele>
        <time>2025-01-16T09:45:27Z</time>
      </trkpt>
      <trkpt lat="47.57366" lon="-2.28676">
        <ele>30.1</ele>
        <time>2025-01-16T09:45:28Z</time>
      </trkpt>
      <trkpt lat="47.57365" lon="-2.28677">
        <ele>30.3</ele>
        <time>2025-01-16T09:45:29Z</time>
      </trkpt>
      <trkpt lat="47.57364" lon="-2.28677">
        <ele>30.4</ele>
        <time>2025-01-16T09:45:30Z</time>
      </trkpt>
      <trkpt lat="47.57363" lon="-2.28677">
        <ele>30.4</ele>
        <time>2025-01-16T09:45:31Z</time>
      </trkpt>
      <trkpt lat="47.57362" lon="-2.28677">
        <ele>30.4</ele>
        <time>2025-01-16T09:45:32Z</time>
      </trkpt>
      <trkpt lat="47.57361" lon="-2.28676">
        <ele>30.4</ele>
        <time>2025-01-16T09:45:33Z</time>
      </trkpt>
      <trkpt lat="47.5736" lon="-2.28676">
        <ele>30.5</ele>
        <time>2025-01-16T09:45:34Z</time>
      </trkpt>
      <trkpt lat="47.57359" lon="-2.28675">
        <ele>30.5</ele>
        <time>2025-01-16T09:45:35Z</time>
      </trkpt>
      <trkpt lat="47.57358" lon="-2.28675">
        <ele>30.6</ele>
        <time>2025-01-16T09:45:36Z</time>
      </trkpt>
      <trkpt lat="47.57357" lon="-2.28674">
        <ele>30.6</ele>
        <time>2025-01-16T09:45:37Z</time>
      </trkpt>
      <trkpt lat="47.57356" lon="-2.28673">
        <ele>30.7</ele>
        <time>2025-01-16T09:45:38Z</time>
      </trkpt>
      <trkpt lat="47.57356" lon="-2.28672">
        <ele>30.5</ele>
        <time>2025-01-16T09:45:39Z</time>
      </trkpt>
      <trkpt lat="47.57356" lon="-2.28672">
        <ele>30.5</ele>
        <time>2025-01-16T09:45:40Z</time>
      </trkpt>
      <trkpt lat="47.57355" lon="-2.28671">
        <ele>30.6</ele>
        <time>2025-01-16T09:45:41Z</time>
      </trkpt>
      <trkpt lat="47.57354" lon="-2.2867">
        <ele>30.6</ele>
        <time>2025-01-16T09:45:42Z</time>
      </trkpt>
      <trkpt lat="47.57353" lon="-2.2867">
        <ele>30.8</ele>
        <time>2025-01-16T09:45:43Z</time>
      </trkpt>
      <trkpt lat="47.57352" lon="-2.2867">
        <ele>31</ele>
        <time>2025-01-16T09:45:44Z</time>
      </trkpt>
      <trkpt lat="47.57351" lon="-2.28668">
        <ele>30.9</ele>
        <time>2025-01-16T09:45:45Z</time>
      </trkpt>
      <trkpt lat="47.5735" lon="-2.28667">
        <ele>31</ele>
        <time>2025-01-16T09:45:46Z</time>
      </trkpt>
      <trkpt lat="47.57349" lon="-2.28666">
        <ele>31.1</ele>
        <time>2025-01-16T09:45:47Z</time>
      </trkpt>
      <trkpt lat="47.57348" lon="-2.28666">
        <ele>31.3</ele>
        <time>2025-01-16T09:45:48Z</time>
      </trkpt>
      <trkpt lat="47.57346" lon="-2.28666">
        <ele>31.7</ele>
        <time>2025-01-16T09:45:49Z</time>
      </trkpt>
      <trkpt lat="47.57345" lon="-2.28666">
        <ele>31.8</ele>
        <time>2025-01-16T09:45:50Z</time>
      </trkpt>
      <trkpt lat="47.57344" lon="-2.28666">
        <ele>32</ele>
        <time>2025-01-16T09:45:51Z</time>
      </trkpt>
      <trkpt lat="47.57343" lon="-2.28666">
        <ele>32.2</ele>
        <time>2025-01-16T09:45:52Z</time>
      </trkpt>
      <trkpt lat="47.57343" lon="-2.28665">
        <ele>32.1</ele>
        <time>2025-01-16T09:45:53Z</time>
      </trkpt>
      <trkpt lat="47.57342" lon="-2.28665">
        <ele>32.3</ele>
        <time>2025-01-16T09:45:54Z</time>
      </trkpt>
      <trkpt lat="47.57341" lon="-2.28665">
        <ele>32.5</ele>
        <time>2025-01-16T09:45:55Z</time>
      </trkpt>
      <trkpt lat="47.5734" lon="-2.28665">
        <ele>32.7</ele>
        <time>2025-01-16T09:45:56Z</time>
      </trkpt>
      <trkpt lat="47.57339" lon="-2.28664">
        <ele>32.8</ele>
        <time>2025-01-16T09:45:57Z</time>
      </trkpt>
      <trkpt lat="47.57339" lon="-2.28664">
        <ele>32.8</ele>
        <time>2025-01-16T09:45:58Z</time>
      </trkpt>
      <trkpt lat="47.57338" lon="-2.28663">
        <ele>33</ele>
        <time>2025-01-16T09:45:59Z</time>
      </trkpt>
      <trkpt lat="47.57337" lon="-2.28662">
        <ele>33.1</ele>
        <time>2025-01-16T09:46:00Z</time>
      </trkpt>
      <trkpt lat="47.57336" lon="-2.28662">
        <ele>33.3</ele>
        <time>2025-01-16T09:46:01Z</time>
      </trkpt>
      <trkpt lat="47.57335" lon="-2.28661">
        <ele>33.5</ele>
        <time>2025-01-16T09:46:02Z</time>
      </trkpt>
      <trkpt lat="47.57334" lon="-2.28661">
        <ele>33.7</ele>
        <time>2025-01-16T09:46:03Z</time>
      </trkpt>
      <trkpt lat="47.57333" lon="-2.28661">
        <ele>33.8</ele>
        <time>2025-01-16T09:46:04Z</time>
      </trkpt>
      <trkpt lat="47.57332" lon="-2.28661">
        <ele>33.8</ele>
        <time>2025-01-16T09:46:05Z</time>
      </trkpt>
      <trkpt lat="47.57331" lon="-2.28661">
        <ele>33.9</ele>
        <time>2025-01-16T09:46:06Z</time>
      </trkpt>
      <trkpt lat="47.5733" lon="-2.28661">
        <ele>33.9</ele>
        <time>2025-01-16T09:46:07Z</time>
      </trkpt>
      <trkpt lat="47.57329" lon="-2.28661">
        <ele>34</ele>
        <time>2025-01-16T09:46:08Z</time>
      </trkpt>
      <trkpt lat="47.57328" lon="-2.28662">
        <ele>34</ele>
        <time>2025-01-16T09:46:09Z</time>
      </trkpt>
      <trkpt lat="47.57326" lon="-2.28662">
        <ele>34.1</ele>
        <time>2025-01-16T09:46:10Z</time>
      </trkpt>
      <trkpt lat="47.57325" lon="-2.28662">
        <ele>34.1</ele>
        <time>2025-01-16T09:46:11Z</time>
      </trkpt>
      <trkpt lat="47.57324" lon="-2.28662">
        <ele>34.2</ele>
        <time>2025-01-16T09:46:12Z</time>
      </trkpt>
      <trkpt lat="47.57323" lon="-2.28663">
        <ele>34.2</ele>
        <time>2025-01-16T09:46:13Z</time>
      </trkpt>
      <trkpt lat="47.57322" lon="-2.28664">
        <ele>34.3</ele>
        <time>2025-01-16T09:46:14Z</time>
      </trkpt>
      <trkpt lat="47.57321" lon="-2.28665">
        <ele>34.4</ele>
        <time>2025-01-16T09:46:15Z</time>
      </trkpt>
      <trkpt lat="47.5732" lon="-2.28665">
        <ele>34.4</ele>
        <time>2025-01-16T09:46:16Z</time>
      </trkpt>
      <trkpt lat="47.57319" lon="-2.28665">
        <ele>34.5</ele>
        <time>2025-01-16T09:46:17Z</time>
      </trkpt>
      <trkpt lat="47.57318" lon="-2.28666">
        <ele>34.5</ele>
        <time>2025-01-16T09:46:18Z</time>
      </trkpt>
      <trkpt lat="47.57317" lon="-2.28666">
        <ele>34.6</ele>
        <time>2025-01-16T09:46:19Z</time>
      </trkpt>
      <trkpt lat="47.57316" lon="-2.28666">
        <ele>34.6</ele>
        <time>2025-01-16T09:46:20Z</time>
      </trkpt>
      <trkpt lat="47.57315" lon="-2.28665">
        <ele>34.6</ele>
        <time>2025-01-16T09:46:21Z</time>
      </trkpt>
      <trkpt lat="47.57314" lon="-2.28664">
        <ele>34.6</ele>
        <time>2025-01-16T09:46:22Z</time>
      </trkpt>
      <trkpt lat="47.57314" lon="-2.28663">
        <ele>34.6</ele>
        <time>2025-01-16T09:46:23Z</time>
      </trkpt>
      <trkpt lat="47.57314" lon="-2.28661">
        <ele>34.5</ele>
        <time>2025-01-16T09:46:24Z</time>
      </trkpt>
      <trkpt lat="47.57314" lon="-2.2866">
        <ele>34.5</ele>
        <time>2025-01-16T09:46:25Z</time>
      </trkpt>
      <trkpt lat="47.57314" lon="-2.28658">
        <ele>34.4</ele>
        <time>2025-01-16T09:46:26Z</time>
      </trkpt>
      <trkpt lat="47.57314" lon="-2.28657">
        <ele>34.3</ele>
        <time>2025-01-16T09:46:27Z</time>
      </trkpt>
      <trkpt lat="47.57314" lon="-2.28655">
        <ele>34.3</ele>
        <time>2025-01-16T09:46:28Z</time>
      </trkpt>
      <trkpt lat="47.57314" lon="-2.28653">
        <ele>34.2</ele>
        <time>2025-01-16T09:46:29Z</time>
      </trkpt>
      <trkpt lat="47.57314" lon="-2.28651">
        <ele>34.1</ele>
        <time>2025-01-16T09:46:30Z</time>
      </trkpt>
      <trkpt lat="47.57315" lon="-2.28649">
        <ele>34</ele>
        <time>2025-01-16T09:46:31Z</time>
      </trkpt>
      <trkpt lat="47.57315" lon="-2.28648">
        <ele>34</ele>
        <time>2025-01-16T09:46:32Z</time>
      </trkpt>
      <trkpt lat="47.57316" lon="-2.28646">
        <ele>33.9</ele>
        <time>2025-01-16T09:46:33Z</time>
      </trkpt>
      <trkpt lat="47.57315" lon="-2.28644">
        <ele>33.8</ele>
        <time>2025-01-16T09:46:34Z</time>
      </trkpt>
      <trkpt lat="47.57315" lon="-2.28642">
        <ele>33.8</ele>
        <time>2025-01-16T09:46:35Z</time>
      </trkpt>
      <trkpt lat="47.57315" lon="-2.28641">
        <ele>33.7</ele>
        <time>2025-01-16T09:46:36Z</time>
      </trkpt>
      <trkpt lat="47.57315" lon="-2.28639">
        <ele>33.7</ele>
        <time>2025-01-16T09:46:37Z</time>
      </trkpt>
      <trkpt lat="47.57314" lon="-2.28638">
        <ele>33.7</ele>
        <time>2025-01-16T09:46:38Z</time>
      </trkpt>
      <trkpt lat="47.57313" lon="-2.28636">
        <ele>33.6</ele>
        <time>2025-01-16T09:46:39Z</time>
      </trkpt>
      <trkpt lat="47.57313" lon="-2.28635">
        <ele>33.6</ele>
        <time>2025-01-16T09:46:40Z</time>
      </trkpt>
      <trkpt lat="47.57312" lon="-2.28634">
        <ele>33.6</ele>
        <time>2025-01-16T09:46:41Z</time>
      </trkpt>
      <trkpt lat="47.57312" lon="-2.28632">
        <ele>33.5</ele>
        <time>2025-01-16T09:46:42Z</time>
      </trkpt>
      <trkpt lat="47.57312" lon="-2.28631">
        <ele>33.4</ele>
        <time>2025-01-16T09:46:43Z</time>
      </trkpt>
      <trkpt lat="47.57312" lon="-2.2863">
        <ele>33.4</ele>
        <time>2025-01-16T09:46:44Z</time>
      </trkpt>
      <trkpt lat="47.57311" lon="-2.28629">
        <ele>33.4</ele>
        <time>2025-01-16T09:46:45Z</time>
      </trkpt>
      <trkpt lat="47.57311" lon="-2.28628">
        <ele>33.3</ele>
        <time>2025-01-16T09:46:46Z</time>
      </trkpt>
      <trkpt lat="47.57311" lon="-2.28626">
        <ele>33.2</ele>
        <time>2025-01-16T09:46:47Z</time>
      </trkpt>
      <trkpt lat="47.57311" lon="-2.28625">
        <ele>33.2</ele>
        <time>2025-01-16T09:46:48Z</time>
      </trkpt>
      <trkpt lat="47.57311" lon="-2.28623">
        <ele>33.1</ele>
        <time>2025-01-16T09:46:49Z</time>
      </trkpt>
      <trkpt lat="47.57311" lon="-2.28621">
        <ele>33</ele>
        <time>2025-01-16T09:46:50Z</time>
      </trkpt>
      <trkpt lat="47.5731" lon="-2.2862">
        <ele>33.1</ele>
        <time>2025-01-16T09:46:51Z</time>
      </trkpt>
      <trkpt lat="47.5731" lon="-2.28618">
        <ele>33</ele>
        <time>2025-01-16T09:46:52Z</time>
      </trkpt>
      <trkpt lat="47.57309" lon="-2.28617">
        <ele>33</ele>
        <time>2025-01-16T09:46:53Z</time>
      </trkpt>
      <trkpt lat="47.57309" lon="-2.28615">
        <ele>32.9</ele>
        <time>2025-01-16T09:46:54Z</time>
      </trkpt>
      <trkpt lat="47.57309" lon="-2.28612">
        <ele>32.8</ele>
        <time>2025-01-16T09:46:55Z</time>
      </trkpt>
      <trkpt lat="47.57308" lon="-2.2861">
        <ele>32.7</ele>
        <time>2025-01-16T09:46:56Z</time>
      </trkpt>
      <trkpt lat="47.57308" lon="-2.28608">
        <ele>32.5</ele>
        <time>2025-01-16T09:46:57Z</time>
      </trkpt>
      <trkpt lat="47.57308" lon="-2.28606">
        <ele>32.3</ele>
        <time>2025-01-16T09:46:58Z</time>
      </trkpt>
      <trkpt lat="47.57308" lon="-2.28605">
        <ele>32.2</ele>
        <time>2025-01-16T09:46:59Z</time>
      </trkpt>
      <trkpt lat="47.57308" lon="-2.28603">
        <ele>31.9</ele>
        <time>2025-01-16T09:47:00Z</time>
      </trkpt>
      <trkpt lat="47.57308" lon="-2.28601">
        <ele>31.7</ele>
        <time>2025-01-16T09:47:01Z</time>
      </trkpt>
      <trkpt lat="47.57308" lon="-2.286">
        <ele>31.6</ele>
        <time>2025-01-16T09:47:02Z</time>
      </trkpt>
      <trkpt lat="47.57308" lon="-2.28599">
        <ele>31.5</ele>
        <time>2025-01-16T09:47:03Z</time>
      </trkpt>
      <trkpt lat="47.57307" lon="-2.28598">
        <ele>31.5</ele>
        <time>2025-01-16T09:47:04Z</time>
      </trkpt>
      <trkpt lat="47.57307" lon="-2.28598">
        <ele>31.5</ele>
        <time>2025-01-16T09:47:05Z</time>
      </trkpt>
      <trkpt lat="47.57306" lon="-2.28596">
        <ele>31.3</ele>
        <time>2025-01-16T09:47:06Z</time>
      </trkpt>
      <trkpt lat="47.57305" lon="-2.28595">
        <ele>31.2</ele>
        <time>2025-01-16T09:47:07Z</time>
      </trkpt>
      <trkpt lat="47.57304" lon="-2.28593">
        <ele>31</ele>
        <time>2025-01-16T09:47:08Z</time>
      </trkpt>
      <trkpt lat="47.57304" lon="-2.28592">
        <ele>30.9</ele>
        <time>2025-01-16T09:47:09Z</time>
      </trkpt>
      <trkpt lat="47.57303" lon="-2.28592">
        <ele>30.9</ele>
        <time>2025-01-16T09:47:10Z</time>
      </trkpt>
      <trkpt lat="47.57302" lon="-2.28591">
        <ele>30.8</ele>
        <time>2025-01-16T09:47:11Z</time>
      </trkpt>
      <trkpt lat="47.57301" lon="-2.28591">
        <ele>30.7</ele>
        <time>2025-01-16T09:47:12Z</time>
      </trkpt>
      <trkpt lat="47.57301" lon="-2.28591">
        <ele>30.7</ele>
        <time>2025-01-16T09:47:13Z</time>
      </trkpt>
      <trkpt lat="47.57301" lon="-2.2859">
        <ele>30.6</ele>
        <time>2025-01-16T09:47:14Z</time>
      </trkpt>
      <trkpt lat="47.573" lon="-2.2859">
        <ele>30.6</ele>
        <time>2025-01-16T09:47:15Z</time>
      </trkpt>
      <trkpt lat="47.57298" lon="-2.28589">
        <ele>30.5</ele>
        <time>2025-01-16T09:47:16Z</time>
      </trkpt>
      <trkpt lat="47.57297" lon="-2.28588">
        <ele>30.4</ele>
        <time>2025-01-16T09:47:17Z</time>
      </trkpt>
      <trkpt lat="47.57296" lon="-2.28588">
        <ele>30.4</ele>
        <time>2025-01-16T09:47:18Z</time>
      </trkpt>
      <trkpt lat="47.57295" lon="-2.28587">
        <ele>30.3</ele>
        <time>2025-01-16T09:47:19Z</time>
      </trkpt>
      <trkpt lat="47.57294" lon="-2.28586">
        <ele>30.2</ele>
        <time>2025-01-16T09:47:20Z</time>
      </trkpt>
      <trkpt lat="47.57292" lon="-2.28586">
        <ele>30.2</ele>
        <time>2025-01-16T09:47:21Z</time>
      </trkpt>
      <trkpt lat="47.57291" lon="-2.28586">
        <ele>30.2</ele>
        <time>2025-01-16T09:47:22Z</time>
      </trkpt>
      <trkpt lat="47.57289" lon="-2.28586">
        <ele>30.2</ele>
        <time>2025-01-16T09:47:23Z</time>
      </trkpt>
      <trkpt lat="47.57288" lon="-2.28586">
        <ele>30.2</ele>
        <time>2025-01-16T09:47:24Z</time>
      </trkpt>
      <trkpt lat="47.57287" lon="-2.28586">
        <ele>30.2</ele>
        <time>2025-01-16T09:47:25Z</time>
      </trkpt>
      <trkpt lat="47.57286" lon="-2.28586">
        <ele>30.2</ele>
        <time>2025-01-16T09:47:26Z</time>
      </trkpt>
      <trkpt lat="47.57285" lon="-2.28586">
        <ele>30.1</ele>
        <time>2025-01-16T09:47:27Z</time>
      </trkpt>
      <trkpt lat="47.57284" lon="-2.28586">
        <ele>30.1</ele>
        <time>2025-01-16T09:47:28Z</time>
      </trkpt>
      <trkpt lat="47.57283" lon="-2.28586">
        <ele>30.1</ele>
        <time>2025-01-16T09:47:29Z</time>
      </trkpt>
      <trkpt lat="47.57281" lon="-2.28586">
        <ele>30.1</ele>
        <time>2025-01-16T09:47:30Z</time>
      </trkpt>
      <trkpt lat="47.57281" lon="-2.28586">
        <ele>30.1</ele>
        <time>2025-01-16T09:47:31Z</time>
      </trkpt>
      <trkpt lat="47.5728" lon="-2.28586">
        <ele>30.1</ele>
        <time>2025-01-16T09:47:32Z</time>
      </trkpt>
      <trkpt lat="47.57279" lon="-2.28586">
        <ele>30.1</ele>
        <time>2025-01-16T09:47:33Z</time>
      </trkpt>
      <trkpt lat="47.57277" lon="-2.28585">
        <ele>30</ele>
        <time>2025-01-16T09:47:34Z</time>
      </trkpt>
      <trkpt lat="47.57276" lon="-2.28585">
        <ele>29.9</ele>
        <time>2025-01-16T09:47:35Z</time>
      </trkpt>
      <trkpt lat="47.57275" lon="-2.28585">
        <ele>29.8</ele>
        <time>2025-01-16T09:47:36Z</time>
      </trkpt>
      <trkpt lat="47.57274" lon="-2.28585">
        <ele>29.7</ele>
        <time>2025-01-16T09:47:37Z</time>
      </trkpt>
      <trkpt lat="47.57272" lon="-2.28585">
        <ele>29.4</ele>
        <time>2025-01-16T09:47:38Z</time>
      </trkpt>
      <trkpt lat="47.57271" lon="-2.28585">
        <ele>29.3</ele>
        <time>2025-01-16T09:47:39Z</time>
      </trkpt>
      <trkpt lat="47.5727" lon="-2.28584">
        <ele>29.2</ele>
        <time>2025-01-16T09:47:40Z</time>
      </trkpt>
      <trkpt lat="47.57269" lon="-2.28584">
        <ele>29.1</ele>
        <time>2025-01-16T09:47:41Z</time>
      </trkpt>
      <trkpt lat="47.57269" lon="-2.28583">
        <ele>29</ele>
        <time>2025-01-16T09:47:42Z</time>
      </trkpt>
      <trkpt lat="47.57268" lon="-2.28582">
        <ele>28.5</ele>
        <time>2025-01-16T09:47:43Z</time>
      </trkpt>
      <trkpt lat="47.57267" lon="-2.28581">
        <ele>28.1</ele>
        <time>2025-01-16T09:47:44Z</time>
      </trkpt>
      <trkpt lat="47.57266" lon="-2.28581">
        <ele>28</ele>
        <time>2025-01-16T09:47:45Z</time>
      </trkpt>
      <trkpt lat="47.57265" lon="-2.2858">
        <ele>27.6</ele>
        <time>2025-01-16T09:47:46Z</time>
      </trkpt>
      <trkpt lat="47.57264" lon="-2.2858">
        <ele>27.5</ele>
        <time>2025-01-16T09:47:47Z</time>
      </trkpt>
      <trkpt lat="47.57263" lon="-2.28579">
        <ele>27.1</ele>
        <time>2025-01-16T09:47:48Z</time>
      </trkpt>
      <trkpt lat="47.57262" lon="-2.28579">
        <ele>27</ele>
        <time>2025-01-16T09:47:49Z</time>
      </trkpt>
      <trkpt lat="47.57262" lon="-2.28579">
        <ele>27</ele>
        <time>2025-01-16T09:47:50Z</time>
      </trkpt>
      <trkpt lat="47.57261" lon="-2.28578">
        <ele>26.5</ele>
        <time>2025-01-16T09:47:51Z</time>
      </trkpt>
      <trkpt lat="47.5726" lon="-2.28577">
        <ele>26.1</ele>
        <time>2025-01-16T09:47:52Z</time>
      </trkpt>
      <trkpt lat="47.57258" lon="-2.28577">
        <ele>25.9</ele>
        <time>2025-01-16T09:47:53Z</time>
      </trkpt>
      <trkpt lat="47.57258" lon="-2.28576">
        <ele>25.6</ele>
        <time>2025-01-16T09:47:54Z</time>
      </trkpt>
      <trkpt lat="47.57257" lon="-2.28575">
        <ele>25.1</ele>
        <time>2025-01-16T09:47:55Z</time>
      </trkpt>
      <trkpt lat="47.57256" lon="-2.28574">
        <ele>24.7</ele>
        <time>2025-01-16T09:47:56Z</time>
      </trkpt>
      <trkpt lat="47.57255" lon="-2.28573">
        <ele>24.3</ele>
        <time>2025-01-16T09:47:57Z</time>
      </trkpt>
      <trkpt lat="47.57254" lon="-2.28574">
        <ele>24.5</ele>
        <time>2025-01-16T09:47:58Z</time>
      </trkpt>
      <trkpt lat="47.57252" lon="-2.28574">
        <ele>24.2</ele>
        <time>2025-01-16T09:47:59Z</time>
      </trkpt>
      <trkpt lat="47.57251" lon="-2.28575">
        <ele>24.4</ele>
        <time>2025-01-16T09:48:00Z</time>
      </trkpt>
      <trkpt lat="47.5725" lon="-2.28575">
        <ele>24.3</ele>
        <time>2025-01-16T09:48:01Z</time>
      </trkpt>
      <trkpt lat="47.57249" lon="-2.28575">
        <ele>24.2</ele>
        <time>2025-01-16T09:48:02Z</time>
      </trkpt>
      <trkpt lat="47.57248" lon="-2.28575">
        <ele>24.1</ele>
        <time>2025-01-16T09:48:03Z</time>
      </trkpt>
      <trkpt lat="47.57247" lon="-2.28574">
        <ele>23.7</ele>
        <time>2025-01-16T09:48:04Z</time>
      </trkpt>
      <trkpt lat="47.57246" lon="-2.28574">
        <ele>23.6</ele>
        <time>2025-01-16T09:48:05Z</time>
      </trkpt>
      <trkpt lat="47.57245" lon="-2.28574">
        <ele>23.5</ele>
        <time>2025-01-16T09:48:06Z</time>
      </trkpt>
      <trkpt lat="47.57243" lon="-2.28574">
        <ele>23.3</ele>
        <time>2025-01-16T09:48:07Z</time>
      </trkpt>
      <trkpt lat="47.57242" lon="-2.28574">
        <ele>23.2</ele>
        <time>2025-01-16T09:48:08Z</time>
      </trkpt>
      <trkpt lat="47.5724" lon="-2.28574">
        <ele>23</ele>
        <time>2025-01-16T09:48:09Z</time>
      </trkpt>
      <trkpt lat="47.57239" lon="-2.28575">
        <ele>23.2</ele>
        <time>2025-01-16T09:48:10Z</time>
      </trkpt>
      <trkpt lat="47.57238" lon="-2.28575">
        <ele>23.1</ele>
        <time>2025-01-16T09:48:11Z</time>
      </trkpt>
      <trkpt lat="47.57237" lon="-2.28576">
        <ele>23.2</ele>
        <time>2025-01-16T09:48:12Z</time>
      </trkpt>
      <trkpt lat="47.57236" lon="-2.28576">
        <ele>23.1</ele>
        <time>2025-01-16T09:48:13Z</time>
      </trkpt>
      <trkpt lat="47.57234" lon="-2.28576">
        <ele>22.9</ele>
        <time>2025-01-16T09:48:14Z</time>
      </trkpt>
      <trkpt lat="47.57233" lon="-2.28576">
        <ele>22.8</ele>
        <time>2025-01-16T09:48:15Z</time>
      </trkpt>
      <trkpt lat="47.57232" lon="-2.28576">
        <ele>22.7</ele>
        <time>2025-01-16T09:48:16Z</time>
      </trkpt>
      <trkpt lat="47.57231" lon="-2.28576">
        <ele>22.6</ele>
        <time>2025-01-16T09:48:17Z</time>
      </trkpt>
      <trkpt lat="47.5723" lon="-2.28577">
        <ele>22.7</ele>
        <time>2025-01-16T09:48:18Z</time>
      </trkpt>
      <trkpt lat="47.57229" lon="-2.28577">
        <ele>22.6</ele>
        <time>2025-01-16T09:48:19Z</time>
      </trkpt>
      <trkpt lat="47.57227" lon="-2.28577">
        <ele>22.4</ele>
        <time>2025-01-16T09:48:20Z</time>
      </trkpt>
      <trkpt lat="47.57227" lon="-2.28577">
        <ele>22.4</ele>
        <time>2025-01-16T09:48:21Z</time>
      </trkpt>
      <trkpt lat="47.57225" lon="-2.28577">
        <ele>22.2</ele>
        <time>2025-01-16T09:48:22Z</time>
      </trkpt>
      <trkpt lat="47.57224" lon="-2.28577">
        <ele>22.1</ele>
        <time>2025-01-16T09:48:23Z</time>
      </trkpt>
      <trkpt lat="47.57223" lon="-2.28577">
        <ele>21.9</ele>
        <time>2025-01-16T09:48:24Z</time>
      </trkpt>
      <trkpt lat="47.57222" lon="-2.28577">
        <ele>21.8</ele>
        <time>2025-01-16T09:48:25Z</time>
      </trkpt>
      <trkpt lat="47.5722" lon="-2.28578">
        <ele>21.8</ele>
        <time>2025-01-16T09:48:26Z</time>
      </trkpt>
      <trkpt lat="47.57219" lon="-2.28578">
        <ele>21.7</ele>
        <time>2025-01-16T09:48:27Z</time>
      </trkpt>
      <trkpt lat="47.57217" lon="-2.28579">
        <ele>21.7</ele>
        <time>2025-01-16T09:48:28Z</time>
      </trkpt>
      <trkpt lat="47.57215" lon="-2.28579">
        <ele>21.5</ele>
        <time>2025-01-16T09:48:29Z</time>
      </trkpt>
      <trkpt lat="47.57214" lon="-2.28579">
        <ele>21.4</ele>
        <time>2025-01-16T09:48:30Z</time>
      </trkpt>
      <trkpt lat="47.57213" lon="-2.28579">
        <ele>21.3</ele>
        <time>2025-01-16T09:48:31Z</time>
      </trkpt>
      <trkpt lat="47.57211" lon="-2.28579">
        <ele>21.1</ele>
        <time>2025-01-16T09:48:32Z</time>
      </trkpt>
      <trkpt lat="47.5721" lon="-2.28578">
        <ele>20.8</ele>
        <time>2025-01-16T09:48:33Z</time>
      </trkpt>
      <trkpt lat="47.57209" lon="-2.28578">
        <ele>20.7</ele>
        <time>2025-01-16T09:48:34Z</time>
      </trkpt>
      <trkpt lat="47.57208" lon="-2.28578">
        <ele>20.6</ele>
        <time>2025-01-16T09:48:35Z</time>
      </trkpt>
      <trkpt lat="47.57206" lon="-2.28578">
        <ele>20.4</ele>
        <time>2025-01-16T09:48:36Z</time>
      </trkpt>
      <trkpt lat="47.57205" lon="-2.28579">
        <ele>20.5</ele>
        <time>2025-01-16T09:48:37Z</time>
      </trkpt>
      <trkpt lat="47.57203" lon="-2.28579">
        <ele>20.3</ele>
        <time>2025-01-16T09:48:38Z</time>
      </trkpt>
      <trkpt lat="47.57202" lon="-2.28578">
        <ele>20</ele>
        <time>2025-01-16T09:48:39Z</time>
      </trkpt>
      <trkpt lat="47.57201" lon="-2.28578">
        <ele>19.9</ele>
        <time>2025-01-16T09:48:40Z</time>
      </trkpt>
      <trkpt lat="47.57199" lon="-2.28577">
        <ele>19.5</ele>
        <time>2025-01-16T09:48:41Z</time>
      </trkpt>
      <trkpt lat="47.57198" lon="-2.28577">
        <ele>19.4</ele>
        <time>2025-01-16T09:48:42Z</time>
      </trkpt>
      <trkpt lat="47.57197" lon="-2.28576">
        <ele>19.2</ele>
        <time>2025-01-16T09:48:43Z</time>
      </trkpt>
      <trkpt lat="47.57196" lon="-2.28576">
        <ele>19.1</ele>
        <time>2025-01-16T09:48:44Z</time>
      </trkpt>
      <trkpt lat="47.57195" lon="-2.28575">
        <ele>18.9</ele>
        <time>2025-01-16T09:48:45Z</time>
      </trkpt>
      <trkpt lat="47.57195" lon="-2.28575">
        <ele>18.9</ele>
        <time>2025-01-16T09:48:46Z</time>
      </trkpt>
      <trkpt lat="47.57194" lon="-2.28575">
        <ele>18.6</ele>
        <time>2025-01-16T09:48:47Z</time>
      </trkpt>
      <trkpt lat="47.57193" lon="-2.28575">
        <ele>18.3</ele>
        <time>2025-01-16T09:48:48Z</time>
      </trkpt>
      <trkpt lat="47.57192" lon="-2.28575">
        <ele>18</ele>
        <time>2025-01-16T09:48:49Z</time>
      </trkpt>
      <trkpt lat="47.57191" lon="-2.28576">
        <ele>17.8</ele>
        <time>2025-01-16T09:48:50Z</time>
      </trkpt>
      <trkpt lat="47.57189" lon="-2.28577">
        <ele>17.2</ele>
        <time>2025-01-16T09:48:51Z</time>
      </trkpt>
      <trkpt lat="47.57188" lon="-2.28578">
        <ele>17</ele>
        <time>2025-01-16T09:48:52Z</time>
      </trkpt>
      <trkpt lat="47.57187" lon="-2.28579">
        <ele>16.8</ele>
        <time>2025-01-16T09:48:53Z</time>
      </trkpt>
      <trkpt lat="47.57187" lon="-2.2858">
        <ele>16.9</ele>
        <time>2025-01-16T09:48:54Z</time>
      </trkpt>
      <trkpt lat="47.57186" lon="-2.2858">
        <ele>16.6</ele>
        <time>2025-01-16T09:48:55Z</time>
      </trkpt>
      <trkpt lat="47.57186" lon="-2.2858">
        <ele>16.6</ele>
        <time>2025-01-16T09:48:56Z</time>
      </trkpt>
      <trkpt lat="47.57186" lon="-2.2858">
        <ele>16.6</ele>
        <time>2025-01-16T09:48:57Z</time>
      </trkpt>
      <trkpt lat="47.57186" lon="-2.28581">
        <ele>16.7</ele>
        <time>2025-01-16T09:48:58Z</time>
      </trkpt>
      <trkpt lat="47.57185" lon="-2.28581">
        <ele>16.3</ele>
        <time>2025-01-16T09:48:59Z</time>
      </trkpt>
      <trkpt lat="47.57185" lon="-2.28582">
        <ele>16.4</ele>
        <time>2025-01-16T09:49:00Z</time>
      </trkpt>
      <trkpt lat="47.57185" lon="-2.28584">
        <ele>16.7</ele>
        <time>2025-01-16T09:49:01Z</time>
      </trkpt>
      <trkpt lat="47.57184" lon="-2.28586">
        <ele>16.5</ele>
        <time>2025-01-16T09:49:02Z</time>
      </trkpt>
      <trkpt lat="47.57184" lon="-2.28587">
        <ele>16.6</ele>
        <time>2025-01-16T09:49:03Z</time>
      </trkpt>
      <trkpt lat="47.57183" lon="-2.28589">
        <ele>16.4</ele>
        <time>2025-01-16T09:49:04Z</time>
      </trkpt>
      <trkpt lat="47.57183" lon="-2.28591">
        <ele>16.5</ele>
        <time>2025-01-16T09:49:05Z</time>
      </trkpt>
      <trkpt lat="47.57183" lon="-2.28593">
        <ele>16.7</ele>
        <time>2025-01-16T09:49:06Z</time>
      </trkpt>
      <trkpt lat="47.57183" lon="-2.28594">
        <ele>16.8</ele>
        <time>2025-01-16T09:49:07Z</time>
      </trkpt>
      <trkpt lat="47.57183" lon="-2.28594">
        <ele>16.8</ele>
        <time>2025-01-16T09:49:08Z</time>
      </trkpt>
      <trkpt lat="47.57183" lon="-2.28594">
        <ele>16.8</ele>
        <time>2025-01-16T09:49:09Z</time>
      </trkpt>
      <trkpt lat="47.57183" lon="-2.28596">
        <ele>17</ele>
        <time>2025-01-16T09:49:10Z</time>
      </trkpt>
      <trkpt lat="47.57183" lon="-2.28597">
        <ele>17.1</ele>
        <time>2025-01-16T09:49:11Z</time>
      </trkpt>
      <trkpt lat="47.57183" lon="-2.28598">
        <ele>17.2</ele>
        <time>2025-01-16T09:49:12Z</time>
      </trkpt>
      <trkpt lat="47.57183" lon="-2.286">
        <ele>17.3</ele>
        <time>2025-01-16T09:49:13Z</time>
      </trkpt>
      <trkpt lat="47.57183" lon="-2.28601">
        <ele>17.4</ele>
        <time>2025-01-16T09:49:14Z</time>
      </trkpt>
      <trkpt lat="47.57184" lon="-2.28601">
        <ele>17.8</ele>
        <time>2025-01-16T09:49:15Z</time>
      </trkpt>
      <trkpt lat="47.57184" lon="-2.28603">
        <ele>17.9</ele>
        <time>2025-01-16T09:49:16Z</time>
      </trkpt>
      <trkpt lat="47.57184" lon="-2.28604">
        <ele>18</ele>
        <time>2025-01-16T09:49:17Z</time>
      </trkpt>
      <trkpt lat="47.57184" lon="-2.28606">
        <ele>18.2</ele>
        <time>2025-01-16T09:49:18Z</time>
      </trkpt>
      <trkpt lat="47.57184" lon="-2.28608">
        <ele>18.3</ele>
        <time>2025-01-16T09:49:19Z</time>
      </trkpt>
      <trkpt lat="47.57184" lon="-2.28609">
        <ele>18.4</ele>
        <time>2025-01-16T09:49:20Z</time>
      </trkpt>
      <trkpt lat="47.57184" lon="-2.28611">
        <ele>18.6</ele>
        <time>2025-01-16T09:49:21Z</time>
      </trkpt>
      <trkpt lat="47.57184" lon="-2.28613">
        <ele>18.8</ele>
        <time>2025-01-16T09:49:22Z</time>
      </trkpt>
      <trkpt lat="47.57184" lon="-2.28615">
        <ele>19.1</ele>
        <time>2025-01-16T09:49:23Z</time>
      </trkpt>
      <trkpt lat="47.57184" lon="-2.28617">
        <ele>19.3</ele>
        <time>2025-01-16T09:49:24Z</time>
      </trkpt>
      <trkpt lat="47.57184" lon="-2.28619">
        <ele>19.6</ele>
        <time>2025-01-16T09:49:25Z</time>
      </trkpt>
      <trkpt lat="47.57184" lon="-2.2862">
        <ele>19.7</ele>
        <time>2025-01-16T09:49:26Z</time>
      </trkpt>
      <trkpt lat="47.57184" lon="-2.28622">
        <ele>19.9</ele>
        <time>2025-01-16T09:49:27Z</time>
      </trkpt>
      <trkpt lat="47.57184" lon="-2.28624">
        <ele>20.2</ele>
        <time>2025-01-16T09:49:28Z</time>
      </trkpt>
      <trkpt lat="47.57184" lon="-2.28625">
        <ele>20.3</ele>
        <time>2025-01-16T09:49:29Z</time>
      </trkpt>
      <trkpt lat="47.57184" lon="-2.28626">
        <ele>20.4</ele>
        <time>2025-01-16T09:49:30Z</time>
      </trkpt>
      <trkpt lat="47.57184" lon="-2.28628">
        <ele>20.7</ele>
        <time>2025-01-16T09:49:31Z</time>
      </trkpt>
      <trkpt lat="47.57183" lon="-2.2863">
        <ele>20.6</ele>
        <time>2025-01-16T09:49:32Z</time>
      </trkpt>
      <trkpt lat="47.57183" lon="-2.28631">
        <ele>20.7</ele>
        <time>2025-01-16T09:49:33Z</time>
      </trkpt>
      <trkpt lat="47.57183" lon="-2.28633">
        <ele>21</ele>
        <time>2025-01-16T09:49:34Z</time>
      </trkpt>
      <trkpt lat="47.57183" lon="-2.28635">
        <ele>21.2</ele>
        <time>2025-01-16T09:49:35Z</time>
      </trkpt>
      <trkpt lat="47.57184" lon="-2.28637">
        <ele>21.8</ele>
        <time>2025-01-16T09:49:36Z</time>
      </trkpt>
      <trkpt lat="47.57184" lon="-2.28639">
        <ele>22</ele>
        <time>2025-01-16T09:49:37Z</time>
      </trkpt>
      <trkpt lat="47.57184" lon="-2.28641">
        <ele>22.2</ele>
        <time>2025-01-16T09:49:38Z</time>
      </trkpt>
      <trkpt lat="47.57184" lon="-2.28643">
        <ele>22.3</ele>
        <time>2025-01-16T09:49:39Z</time>
      </trkpt>
      <trkpt lat="47.57183" lon="-2.28645">
        <ele>22.2</ele>
        <time>2025-01-16T09:49:40Z</time>
      </trkpt>
      <trkpt lat="47.57183" lon="-2.28647">
        <ele>22.4</ele>
        <time>2025-01-16T09:49:41Z</time>
      </trkpt>
      <trkpt lat="47.57183" lon="-2.28647">
        <ele>22.4</ele>
        <time>2025-01-16T09:49:42Z</time>
      </trkpt>
      <trkpt lat="47.57183" lon="-2.28649">
        <ele>22.6</ele>
        <time>2025-01-16T09:49:43Z</time>
      </trkpt>
      <trkpt lat="47.57183" lon="-2.28651">
        <ele>22.8</ele>
        <time>2025-01-16T09:49:44Z</time>
      </trkpt>
      <trkpt lat="47.57182" lon="-2.28652">
        <ele>22.6</ele>
        <time>2025-01-16T09:49:45Z</time>
      </trkpt>
      <trkpt lat="47.57182" lon="-2.28653">
        <ele>22.7</ele>
        <time>2025-01-16T09:49:46Z</time>
      </trkpt>
      <trkpt lat="47.57181" lon="-2.28655">
        <ele>22.6</ele>
        <time>2025-01-16T09:49:47Z</time>
      </trkpt>
      <trkpt lat="47.5718" lon="-2.28657">
        <ele>22.5</ele>
        <time>2025-01-16T09:49:48Z</time>
      </trkpt>
      <trkpt lat="47.5718" lon="-2.28658">
        <ele>22.6</ele>
        <time>2025-01-16T09:49:49Z</time>
      </trkpt>
      <trkpt lat="47.57179" lon="-2.28659">
        <ele>22.4</ele>
        <time>2025-01-16T09:49:50Z</time>
      </trkpt>
      <trkpt lat="47.57178" lon="-2.2866">
        <ele>22.2</ele>
        <time>2025-01-16T09:49:51Z</time>
      </trkpt>
      <trkpt lat="47.57177" lon="-2.28661">
        <ele>22.1</ele>
        <time>2025-01-16T09:49:52Z</time>
      </trkpt>
      <trkpt lat="47.57176" lon="-2.28662">
        <ele>21.9</ele>
        <time>2025-01-16T09:49:53Z</time>
      </trkpt>
      <trkpt lat="47.57175" lon="-2.28663">
        <ele>21.7</ele>
        <time>2025-01-16T09:49:54Z</time>
      </trkpt>
      <trkpt lat="47.57174" lon="-2.28665">
        <ele>21.7</ele>
        <time>2025-01-16T09:49:55Z</time>
      </trkpt>
      <trkpt lat="47.57173" lon="-2.28666">
        <ele>21.5</ele>
        <time>2025-01-16T09:49:56Z</time>
      </trkpt>
      <trkpt lat="47.57172" lon="-2.28668">
        <ele>21.5</ele>
        <time>2025-01-16T09:49:57Z</time>
      </trkpt>
      <trkpt lat="47.57171" lon="-2.28669">
        <ele>21.3</ele>
        <time>2025-01-16T09:49:58Z</time>
      </trkpt>
      <trkpt lat="47.57171" lon="-2.28671">
        <ele>21.5</ele>
        <time>2025-01-16T09:49:59Z</time>
      </trkpt>
      <trkpt lat="47.5717" lon="-2.28673">
        <ele>21.5</ele>
        <time>2025-01-16T09:50:00Z</time>
      </trkpt>
      <trkpt lat="47.57169" lon="-2.28674">
        <ele>21.3</ele>
        <time>2025-01-16T09:50:01Z</time>
      </trkpt>
      <trkpt lat="47.57168" lon="-2.28676">
        <ele>21.3</ele>
        <time>2025-01-16T09:50:02Z</time>
      </trkpt>
      <trkpt lat="47.57167" lon="-2.28677">
        <ele>21.2</ele>
        <time>2025-01-16T09:50:03Z</time>
      </trkpt>
      <trkpt lat="47.57165" lon="-2.28678">
        <ele>20.6</ele>
        <time>2025-01-16T09:50:04Z</time>
      </trkpt>
      <trkpt lat="47.57164" lon="-2.28678">
        <ele>20.2</ele>
        <time>2025-01-16T09:50:05Z</time>
      </trkpt>
      <trkpt lat="47.57163" lon="-2.28679">
        <ele>19.9</ele>
        <time>2025-01-16T09:50:06Z</time>
      </trkpt>
      <trkpt lat="47.57162" lon="-2.28681">
        <ele>19.8</ele>
        <time>2025-01-16T09:50:07Z</time>
      </trkpt>
      <trkpt lat="47.57161" lon="-2.28682">
        <ele>19.5</ele>
        <time>2025-01-16T09:50:08Z</time>
      </trkpt>
      <trkpt lat="47.5716" lon="-2.28683">
        <ele>19.3</ele>
        <time>2025-01-16T09:50:09Z</time>
      </trkpt>
      <trkpt lat="47.5716" lon="-2.28684">
        <ele>19.4</ele>
        <time>2025-01-16T09:50:10Z</time>
      </trkpt>
      <trkpt lat="47.57159" lon="-2.28685">
        <ele>19.2</ele>
        <time>2025-01-16T09:50:11Z</time>
      </trkpt>
      <trkpt lat="47.57158" lon="-2.28686">
        <ele>19</ele>
        <time>2025-01-16T09:50:12Z</time>
      </trkpt>
      <trkpt lat="47.57157" lon="-2.28687">
        <ele>18.8</ele>
        <time>2025-01-16T09:50:13Z</time>
      </trkpt>
      <trkpt lat="47.57156" lon="-2.28688">
        <ele>18.6</ele>
        <time>2025-01-16T09:50:14Z</time>
      </trkpt>
      <trkpt lat="47.57155" lon="-2.2869">
        <ele>18.5</ele>
        <time>2025-01-16T09:50:15Z</time>
      </trkpt>
      <trkpt lat="47.57154" lon="-2.28692">
        <ele>18.5</ele>
        <time>2025-01-16T09:50:16Z</time>
      </trkpt>
      <trkpt lat="47.57153" lon="-2.28694">
        <ele>18.5</ele>
        <time>2025-01-16T09:50:17Z</time>
      </trkpt>
      <trkpt lat="47.57152" lon="-2.28695">
        <ele>18.3</ele>
        <time>2025-01-16T09:50:18Z</time>
      </trkpt>
      <trkpt lat="47.57151" lon="-2.28697">
        <ele>18.3</ele>
        <time>2025-01-16T09:50:19Z</time>
      </trkpt>
      <trkpt lat="47.5715" lon="-2.28699">
        <ele>18.3</ele>
        <time>2025-01-16T09:50:20Z</time>
      </trkpt>
      <trkpt lat="47.5715" lon="-2.287">
        <ele>18.5</ele>
        <time>2025-01-16T09:50:21Z</time>
      </trkpt>
      <trkpt lat="47.57149" lon="-2.28701">
        <ele>18.3</ele>
        <time>2025-01-16T09:50:22Z</time>
      </trkpt>
      <trkpt lat="47.57149" lon="-2.28703">
        <ele>18.6</ele>
        <time>2025-01-16T09:50:23Z</time>
      </trkpt>
      <trkpt lat="47.57149" lon="-2.28705">
        <ele>18.9</ele>
        <time>2025-01-16T09:50:24Z</time>
      </trkpt>
      <trkpt lat="47.57148" lon="-2.28707">
        <ele>18.9</ele>
        <time>2025-01-16T09:50:25Z</time>
      </trkpt>
      <trkpt lat="47.57148" lon="-2.28708">
        <ele>19.1</ele>
        <time>2025-01-16T09:50:26Z</time>
      </trkpt>
      <trkpt lat="47.57147" lon="-2.28709">
        <ele>18.9</ele>
        <time>2025-01-16T09:50:27Z</time>
      </trkpt>
      <trkpt lat="47.57147" lon="-2.2871">
        <ele>19</ele>
        <time>2025-01-16T09:50:28Z</time>
      </trkpt>
      <trkpt lat="47.57147" lon="-2.28711">
        <ele>19.2</ele>
        <time>2025-01-16T09:50:29Z</time>
      </trkpt>
      <trkpt lat="47.57147" lon="-2.28712">
        <ele>19.3</ele>
        <time>2025-01-16T09:50:30Z</time>
      </trkpt>
      <trkpt lat="47.57146" lon="-2.28713">
        <ele>19.1</ele>
        <time>2025-01-16T09:50:31Z</time>
      </trkpt>
      <trkpt lat="47.57146" lon="-2.28714">
        <ele>19.3</ele>
        <time>2025-01-16T09:50:32Z</time>
      </trkpt>
      <trkpt lat="47.57145" lon="-2.28714">
        <ele>19</ele>
        <time>2025-01-16T09:50:33Z</time>
      </trkpt>
      <trkpt lat="47.57145" lon="-2.28714">
        <ele>19</ele>
        <time>2025-01-16T09:50:34Z</time>
      </trkpt>
      <trkpt lat="47.57145" lon="-2.28716">
        <ele>19.3</ele>
        <time>2025-01-16T09:50:35Z</time>
      </trkpt>
      <trkpt lat="47.57145" lon="-2.28717">
        <ele>19.4</ele>
        <time>2025-01-16T09:50:36Z</time>
      </trkpt>
      <trkpt lat="47.57144" lon="-2.28718">
        <ele>19.2</ele>
        <time>2025-01-16T09:50:37Z</time>
      </trkpt>
      <trkpt lat="47.57144" lon="-2.2872">
        <ele>19.5</ele>
        <time>2025-01-16T09:50:38Z</time>
      </trkpt>
      <trkpt lat="47.57144" lon="-2.28721">
        <ele>19.7</ele>
        <time>2025-01-16T09:50:39Z</time>
      </trkpt>
      <trkpt lat="47.57143" lon="-2.28723">
        <ele>19.6</ele>
        <time>2025-01-16T09:50:40Z</time>
      </trkpt>
      <trkpt lat="47.57143" lon="-2.28724">
        <ele>19.7</ele>
        <time>2025-01-16T09:50:41Z</time>
      </trkpt>
      <trkpt lat="47.57143" lon="-2.28725">
        <ele>19.9</ele>
        <time>2025-01-16T09:50:42Z</time>
      </trkpt>
      <trkpt lat="47.57143" lon="-2.28726">
        <ele>20</ele>
        <time>2025-01-16T09:50:43Z</time>
      </trkpt>
      <trkpt lat="47.57143" lon="-2.28728">
        <ele>20.3</ele>
        <time>2025-01-16T09:50:44Z</time>
      </trkpt>
      <trkpt lat="47.57143" lon="-2.28728">
        <ele>20.3</ele>
        <time>2025-01-16T09:50:45Z</time>
      </trkpt>
      <trkpt lat="47.57142" lon="-2.28728">
        <ele>20</ele>
        <time>2025-01-16T09:50:46Z</time>
      </trkpt>
      <trkpt lat="47.57142" lon="-2.28729">
        <ele>20.1</ele>
        <time>2025-01-16T09:50:47Z</time>
      </trkpt>
      <trkpt lat="47.57142" lon="-2.2873">
        <ele>20.2</ele>
        <time>2025-01-16T09:50:48Z</time>
      </trkpt>
      <trkpt lat="47.57142" lon="-2.28731">
        <ele>20.4</ele>
        <time>2025-01-16T09:50:49Z</time>
      </trkpt>
      <trkpt lat="47.57141" lon="-2.28732">
        <ele>20.2</ele>
        <time>2025-01-16T09:50:50Z</time>
      </trkpt>
      <trkpt lat="47.57141" lon="-2.28733">
        <ele>20.3</ele>
        <time>2025-01-16T09:50:51Z</time>
      </trkpt>
      <trkpt lat="47.5714" lon="-2.28734">
        <ele>20.1</ele>
        <time>2025-01-16T09:50:52Z</time>
      </trkpt>
      <trkpt lat="47.57139" lon="-2.28736">
        <ele>20</ele>
        <time>2025-01-16T09:50:53Z</time>
      </trkpt>
      <trkpt lat="47.57138" lon="-2.28738">
        <ele>20.1</ele>
        <time>2025-01-16T09:50:54Z</time>
      </trkpt>
      <trkpt lat="47.57137" lon="-2.2874">
        <ele>20.2</ele>
        <time>2025-01-16T09:50:55Z</time>
      </trkpt>
      <trkpt lat="47.57136" lon="-2.28742">
        <ele>20.3</ele>
        <time>2025-01-16T09:50:56Z</time>
      </trkpt>
      <trkpt lat="47.57136" lon="-2.28745">
        <ele>20.7</ele>
        <time>2025-01-16T09:50:57Z</time>
      </trkpt>
      <trkpt lat="47.57135" lon="-2.28747">
        <ele>20.8</ele>
        <time>2025-01-16T09:50:58Z</time>
      </trkpt>
      <trkpt lat="47.57135" lon="-2.28749">
        <ele>21</ele>
        <time>2025-01-16T09:50:59Z</time>
      </trkpt>
      <trkpt lat="47.57134" lon="-2.28751">
        <ele>21.1</ele>
        <time>2025-01-16T09:51:00Z</time>
      </trkpt>
      <trkpt lat="47.57133" lon="-2.28753">
        <ele>21.2</ele>
        <time>2025-01-16T09:51:01Z</time>
      </trkpt>
      <trkpt lat="47.57132" lon="-2.28755">
        <ele>21.2</ele>
        <time>2025-01-16T09:51:02Z</time>
      </trkpt>
      <trkpt lat="47.57131" lon="-2.28758">
        <ele>21.4</ele>
        <time>2025-01-16T09:51:03Z</time>
      </trkpt>
      <trkpt lat="47.5713" lon="-2.2876">
        <ele>21.4</ele>
        <time>2025-01-16T09:51:04Z</time>
      </trkpt>
      <trkpt lat="47.57129" lon="-2.28762">
        <ele>21.4</ele>
        <time>2025-01-16T09:51:05Z</time>
      </trkpt>
      <trkpt lat="47.57128" lon="-2.28764">
        <ele>21.4</ele>
        <time>2025-01-16T09:51:06Z</time>
      </trkpt>
      <trkpt lat="47.57127" lon="-2.28766">
        <ele>21.3</ele>
        <time>2025-01-16T09:51:07Z</time>
      </trkpt>
      <trkpt lat="47.57127" lon="-2.28767">
        <ele>21.4</ele>
        <time>2025-01-16T09:51:08Z</time>
      </trkpt>
      <trkpt lat="47.57127" lon="-2.28768">
        <ele>21.6</ele>
        <time>2025-01-16T09:51:09Z</time>
      </trkpt>
      <trkpt lat="47.57126" lon="-2.28769">
        <ele>21.4</ele>
        <time>2025-01-16T09:51:10Z</time>
      </trkpt>
      <trkpt lat="47.57125" lon="-2.28771">
        <ele>21.3</ele>
        <time>2025-01-16T09:51:11Z</time>
      </trkpt>
      <trkpt lat="47.57124" lon="-2.28772">
        <ele>21</ele>
        <time>2025-01-16T09:51:12Z</time>
      </trkpt>
      <trkpt lat="47.57123" lon="-2.28774">
        <ele>20.9</ele>
        <time>2025-01-16T09:51:13Z</time>
      </trkpt>
      <trkpt lat="47.57122" lon="-2.28775">
        <ele>20.7</ele>
        <time>2025-01-16T09:51:14Z</time>
      </trkpt>
      <trkpt lat="47.57122" lon="-2.28776">
        <ele>20.8</ele>
        <time>2025-01-16T09:51:15Z</time>
      </trkpt>
      <trkpt lat="47.57122" lon="-2.28777">
        <ele>20.8</ele>
        <time>2025-01-16T09:51:16Z</time>
      </trkpt>
      <trkpt lat="47.57121" lon="-2.28777">
        <ele>20.5</ele>
        <time>2025-01-16T09:51:17Z</time>
      </trkpt>
      <trkpt lat="47.57121" lon="-2.28778">
        <ele>20.6</ele>
        <time>2025-01-16T09:51:18Z</time>
      </trkpt>
      <trkpt lat="47.57121" lon="-2.28779">
        <ele>20.7</ele>
        <time>2025-01-16T09:51:19Z</time>
      </trkpt>
      <trkpt lat="47.5712" lon="-2.2878">
        <ele>20.5</ele>
        <time>2025-01-16T09:51:20Z</time>
      </trkpt>
      <trkpt lat="47.5712" lon="-2.28781">
        <ele>20.6</ele>
        <time>2025-01-16T09:51:21Z</time>
      </trkpt>
      <trkpt lat="47.5712" lon="-2.28783">
        <ele>20.8</ele>
        <time>2025-01-16T09:51:22Z</time>
      </trkpt>
      <trkpt lat="47.57119" lon="-2.28785">
        <ele>20.7</ele>
        <time>2025-01-16T09:51:23Z</time>
      </trkpt>
      <trkpt lat="47.57118" lon="-2.28787">
        <ele>20.6</ele>
        <time>2025-01-16T09:51:24Z</time>
      </trkpt>
      <trkpt lat="47.57118" lon="-2.28788">
        <ele>20.7</ele>
        <time>2025-01-16T09:51:25Z</time>
      </trkpt>
      <trkpt lat="47.57118" lon="-2.2879">
        <ele>20.9</ele>
        <time>2025-01-16T09:51:26Z</time>
      </trkpt>
      <trkpt lat="47.57118" lon="-2.28792">
        <ele>21.1</ele>
        <time>2025-01-16T09:51:27Z</time>
      </trkpt>
      <trkpt lat="47.57118" lon="-2.28794">
        <ele>21.4</ele>
        <time>2025-01-16T09:51:28Z</time>
      </trkpt>
      <trkpt lat="47.57118" lon="-2.28796">
        <ele>21.6</ele>
        <time>2025-01-16T09:51:29Z</time>
      </trkpt>
      <trkpt lat="47.57117" lon="-2.28798">
        <ele>21.5</ele>
        <time>2025-01-16T09:51:30Z</time>
      </trkpt>
      <trkpt lat="47.57117" lon="-2.288">
        <ele>21.7</ele>
        <time>2025-01-16T09:51:31Z</time>
      </trkpt>
      <trkpt lat="47.57117" lon="-2.28801">
        <ele>21.8</ele>
        <time>2025-01-16T09:51:32Z</time>
      </trkpt>
      <trkpt lat="47.57117" lon="-2.28803">
        <ele>22</ele>
        <time>2025-01-16T09:51:33Z</time>
      </trkpt>
      <trkpt lat="47.57117" lon="-2.28805">
        <ele>22.3</ele>
        <time>2025-01-16T09:51:34Z</time>
      </trkpt>
      <trkpt lat="47.57117" lon="-2.28806">
        <ele>22.3</ele>
        <time>2025-01-16T09:51:35Z</time>
      </trkpt>
      <trkpt lat="47.57117" lon="-2.28807">
        <ele>22.4</ele>
        <time>2025-01-16T09:51:36Z</time>
      </trkpt>
      <trkpt lat="47.57116" lon="-2.28809">
        <ele>22.1</ele>
        <time>2025-01-16T09:51:37Z</time>
      </trkpt>
      <trkpt lat="47.57116" lon="-2.2881">
        <ele>22.1</ele>
        <time>2025-01-16T09:51:38Z</time>
      </trkpt>
      <trkpt lat="47.57116" lon="-2.28812">
        <ele>22.2</ele>
        <time>2025-01-16T09:51:39Z</time>
      </trkpt>
      <trkpt lat="47.57116" lon="-2.28813">
        <ele>22.2</ele>
        <time>2025-01-16T09:51:40Z</time>
      </trkpt>
      <trkpt lat="47.57116" lon="-2.28815">
        <ele>22.3</ele>
        <time>2025-01-16T09:51:41Z</time>
      </trkpt>
      <trkpt lat="47.57116" lon="-2.28817">
        <ele>22.3</ele>
        <time>2025-01-16T09:51:42Z</time>
      </trkpt>
      <trkpt lat="47.57116" lon="-2.28818">
        <ele>22.4</ele>
        <time>2025-01-16T09:51:43Z</time>
      </trkpt>
      <trkpt lat="47.57116" lon="-2.2882">
        <ele>22.5</ele>
        <time>2025-01-16T09:51:44Z</time>
      </trkpt>
      <trkpt lat="47.57116" lon="-2.28821">
        <ele>22.5</ele>
        <time>2025-01-16T09:51:45Z</time>
      </trkpt>
      <trkpt lat="47.57116" lon="-2.28823">
        <ele>22.6</ele>
        <time>2025-01-16T09:51:46Z</time>
      </trkpt>
      <trkpt lat="47.57116" lon="-2.28824">
        <ele>22.6</ele>
        <time>2025-01-16T09:51:47Z</time>
      </trkpt>
      <trkpt lat="47.57117" lon="-2.28826">
        <ele>23.1</ele>
        <time>2025-01-16T09:51:48Z</time>
      </trkpt>
      <trkpt lat="47.57117" lon="-2.28827">
        <ele>23.1</ele>
        <time>2025-01-16T09:51:49Z</time>
      </trkpt>
      <trkpt lat="47.57117" lon="-2.28829">
        <ele>23.2</ele>
        <time>2025-01-16T09:51:50Z</time>
      </trkpt>
      <trkpt lat="47.57117" lon="-2.2883">
        <ele>23.2</ele>
        <time>2025-01-16T09:51:51Z</time>
      </trkpt>
      <trkpt lat="47.57117" lon="-2.28832">
        <ele>23.3</ele>
        <time>2025-01-16T09:51:52Z</time>
      </trkpt>
      <trkpt lat="47.57117" lon="-2.28833">
        <ele>23.3</ele>
        <time>2025-01-16T09:51:53Z</time>
      </trkpt>
      <trkpt lat="47.57117" lon="-2.28834">
        <ele>23.3</ele>
        <time>2025-01-16T09:51:54Z</time>
      </trkpt>
      <trkpt lat="47.57117" lon="-2.28835">
        <ele>23.4</ele>
        <time>2025-01-16T09:51:55Z</time>
      </trkpt>
      <trkpt lat="47.57117" lon="-2.28836">
        <ele>23.4</ele>
        <time>2025-01-16T09:51:56Z</time>
      </trkpt>
      <trkpt lat="47.57118" lon="-2.28837">
        <ele>23.8</ele>
        <time>2025-01-16T09:51:57Z</time>
      </trkpt>
      <trkpt lat="47.57118" lon="-2.28838">
        <ele>23.8</ele>
        <time>2025-01-16T09:51:58Z</time>
      </trkpt>
      <trkpt lat="47.57118" lon="-2.28839">
        <ele>23.8</ele>
        <time>2025-01-16T09:51:59Z</time>
      </trkpt>
      <trkpt lat="47.57118" lon="-2.2884">
        <ele>23.8</ele>
        <time>2025-01-16T09:52:00Z</time>
      </trkpt>
      <trkpt lat="47.57118" lon="-2.28841">
        <ele>23.9</ele>
        <time>2025-01-16T09:52:01Z</time>
      </trkpt>
      <trkpt lat="47.57117" lon="-2.28843">
        <ele>23.5</ele>
        <time>2025-01-16T09:52:02Z</time>
      </trkpt>
      <trkpt lat="47.57116" lon="-2.28844">
        <ele>23.2</ele>
        <time>2025-01-16T09:52:03Z</time>
      </trkpt>
      <trkpt lat="47.57115" lon="-2.28845">
        <ele>22.8</ele>
        <time>2025-01-16T09:52:04Z</time>
      </trkpt>
      <trkpt lat="47.57114" lon="-2.28845">
        <ele>22.5</ele>
        <time>2025-01-16T09:52:05Z</time>
      </trkpt>
      <trkpt lat="47.57113" lon="-2.28846">
        <ele>22.1</ele>
        <time>2025-01-16T09:52:06Z</time>
      </trkpt>
      <trkpt lat="47.57112" lon="-2.28847">
        <ele>21.8</ele>
        <time>2025-01-16T09:52:07Z</time>
      </trkpt>
      <trkpt lat="47.57112" lon="-2.28846">
        <ele>21.8</ele>
        <time>2025-01-16T09:52:08Z</time>
      </trkpt>
      <trkpt lat="47.57111" lon="-2.28847">
        <ele>21.5</ele>
        <time>2025-01-16T09:52:09Z</time>
      </trkpt>
      <trkpt lat="47.5711" lon="-2.28848">
        <ele>21.7</ele>
        <time>2025-01-16T09:52:10Z</time>
      </trkpt>
      <trkpt lat="47.57109" lon="-2.28849">
        <ele>21.9</ele>
        <time>2025-01-16T09:52:11Z</time>
      </trkpt>
      <trkpt lat="47.57108" lon="-2.28849">
        <ele>22.1</ele>
        <time>2025-01-16T09:52:12Z</time>
      </trkpt>
      <trkpt lat="47.57107" lon="-2.2885">
        <ele>22.3</ele>
        <time>2025-01-16T09:52:13Z</time>
      </trkpt>
      <trkpt lat="47.57106" lon="-2.28852">
        <ele>22.6</ele>
        <time>2025-01-16T09:52:14Z</time>
      </trkpt>
      <trkpt lat="47.57105" lon="-2.28853">
        <ele>22.8</ele>
        <time>2025-01-16T09:52:15Z</time>
      </trkpt>
      <trkpt lat="47.57104" lon="-2.28855">
        <ele>23.1</ele>
        <time>2025-01-16T09:52:16Z</time>
      </trkpt>
      <trkpt lat="47.57103" lon="-2.28856">
        <ele>23.4</ele>
        <time>2025-01-16T09:52:17Z</time>
      </trkpt>
      <trkpt lat="47.57102" lon="-2.28858">
        <ele>23.7</ele>
        <time>2025-01-16T09:52:18Z</time>
      </trkpt>
      <trkpt lat="47.57101" lon="-2.28859">
        <ele>24</ele>
        <time>2025-01-16T09:52:19Z</time>
      </trkpt>
      <trkpt lat="47.571" lon="-2.2886">
        <ele>24.3</ele>
        <time>2025-01-16T09:52:20Z</time>
      </trkpt>
      <trkpt lat="47.57099" lon="-2.28861">
        <ele>24.6</ele>
        <time>2025-01-16T09:52:21Z</time>
      </trkpt>
      <trkpt lat="47.57099" lon="-2.28862">
        <ele>24.7</ele>
        <time>2025-01-16T09:52:22Z</time>
      </trkpt>
      <trkpt lat="47.57098" lon="-2.28864">
        <ele>25</ele>
        <time>2025-01-16T09:52:23Z</time>
      </trkpt>
      <trkpt lat="47.57098" lon="-2.28865">
        <ele>25</ele>
        <time>2025-01-16T09:52:24Z</time>
      </trkpt>
      <trkpt lat="47.57097" lon="-2.28866">
        <ele>25.3</ele>
        <time>2025-01-16T09:52:25Z</time>
      </trkpt>
      <trkpt lat="47.57097" lon="-2.28867">
        <ele>25.4</ele>
        <time>2025-01-16T09:52:26Z</time>
      </trkpt>
      <trkpt lat="47.57096" lon="-2.28867">
        <ele>25.6</ele>
        <time>2025-01-16T09:52:27Z</time>
      </trkpt>
      <trkpt lat="47.57096" lon="-2.28867">
        <ele>25.6</ele>
        <time>2025-01-16T09:52:28Z</time>
      </trkpt>
      <trkpt lat="47.57096" lon="-2.28867">
        <ele>25.6</ele>
        <time>2025-01-16T09:52:29Z</time>
      </trkpt>
      <trkpt lat="47.57096" lon="-2.28868">
        <ele>25.6</ele>
        <time>2025-01-16T09:52:30Z</time>
      </trkpt>
      <trkpt lat="47.57095" lon="-2.28868">
        <ele>25.8</ele>
        <time>2025-01-16T09:52:31Z</time>
      </trkpt>
      <trkpt lat="47.57094" lon="-2.28869">
        <ele>26.1</ele>
        <time>2025-01-16T09:52:32Z</time>
      </trkpt>
      <trkpt lat="47.57093" lon="-2.2887">
        <ele>26.3</ele>
        <time>2025-01-16T09:52:33Z</time>
      </trkpt>
      <trkpt lat="47.57093" lon="-2.2887">
        <ele>26.3</ele>
        <time>2025-01-16T09:52:34Z</time>
      </trkpt>
      <trkpt lat="47.57092" lon="-2.2887">
        <ele>26.5</ele>
        <time>2025-01-16T09:52:35Z</time>
      </trkpt>
      <trkpt lat="47.57091" lon="-2.2887">
        <ele>26.8</ele>
        <time>2025-01-16T09:52:36Z</time>
      </trkpt>
      <trkpt lat="47.5709" lon="-2.2887">
        <ele>27</ele>
        <time>2025-01-16T09:52:37Z</time>
      </trkpt>
      <trkpt lat="47.57089" lon="-2.2887">
        <ele>27.2</ele>
        <time>2025-01-16T09:52:38Z</time>
      </trkpt>
      <trkpt lat="47.57088" lon="-2.28871">
        <ele>27.4</ele>
        <time>2025-01-16T09:52:39Z</time>
      </trkpt>
      <trkpt lat="47.57087" lon="-2.28871">
        <ele>27.6</ele>
        <time>2025-01-16T09:52:40Z</time>
      </trkpt>
      <trkpt lat="47.57086" lon="-2.28871">
        <ele>27.8</ele>
        <time>2025-01-16T09:52:41Z</time>
      </trkpt>
      <trkpt lat="47.57085" lon="-2.2887">
        <ele>28</ele>
        <time>2025-01-16T09:52:42Z</time>
      </trkpt>
      <trkpt lat="47.57084" lon="-2.2887">
        <ele>28.2</ele>
        <time>2025-01-16T09:52:43Z</time>
      </trkpt>
      <trkpt lat="47.57083" lon="-2.28869">
        <ele>28.4</ele>
        <time>2025-01-16T09:52:44Z</time>
      </trkpt>
      <trkpt lat="47.57082" lon="-2.28868">
        <ele>28.6</ele>
        <time>2025-01-16T09:52:45Z</time>
      </trkpt>
      <trkpt lat="47.57081" lon="-2.28867">
        <ele>28.8</ele>
        <time>2025-01-16T09:52:46Z</time>
      </trkpt>
      <trkpt lat="47.57081" lon="-2.28866">
        <ele>28.8</ele>
        <time>2025-01-16T09:52:47Z</time>
      </trkpt>
      <trkpt lat="47.5708" lon="-2.28865">
        <ele>29</ele>
        <time>2025-01-16T09:52:48Z</time>
      </trkpt>
      <trkpt lat="47.5708" lon="-2.28864">
        <ele>29</ele>
        <time>2025-01-16T09:52:49Z</time>
      </trkpt>
      <trkpt lat="47.57079" lon="-2.28862">
        <ele>29.1</ele>
        <time>2025-01-16T09:52:50Z</time>
      </trkpt>
      <trkpt lat="47.57079" lon="-2.28861">
        <ele>29.1</ele>
        <time>2025-01-16T09:52:51Z</time>
      </trkpt>
      <trkpt lat="47.57078" lon="-2.2886">
        <ele>29.2</ele>
        <time>2025-01-16T09:52:52Z</time>
      </trkpt>
      <trkpt lat="47.57078" lon="-2.28859">
        <ele>29.1</ele>
        <time>2025-01-16T09:52:53Z</time>
      </trkpt>
      <trkpt lat="47.57078" lon="-2.28858">
        <ele>28.9</ele>
        <time>2025-01-16T09:52:54Z</time>
      </trkpt>
      <trkpt lat="47.57077" lon="-2.28856">
        <ele>28.9</ele>
        <time>2025-01-16T09:52:55Z</time>
      </trkpt>
      <trkpt lat="47.57077" lon="-2.28855">
        <ele>28.8</ele>
        <time>2025-01-16T09:52:56Z</time>
      </trkpt>
      <trkpt lat="47.57077" lon="-2.28853">
        <ele>28.5</ele>
        <time>2025-01-16T09:52:57Z</time>
      </trkpt>
      <trkpt lat="47.57077" lon="-2.28852">
        <ele>28.4</ele>
        <time>2025-01-16T09:52:58Z</time>
      </trkpt>
      <trkpt lat="47.57077" lon="-2.2885">
        <ele>28.1</ele>
        <time>2025-01-16T09:52:59Z</time>
      </trkpt>
      <trkpt lat="47.57076" lon="-2.28848">
        <ele>28.1</ele>
        <time>2025-01-16T09:53:00Z</time>
      </trkpt>
      <trkpt lat="47.57076" lon="-2.28847">
        <ele>28</ele>
        <time>2025-01-16T09:53:01Z</time>
      </trkpt>
      <trkpt lat="47.57075" lon="-2.28846">
        <ele>28.1</ele>
        <time>2025-01-16T09:53:02Z</time>
      </trkpt>
      <trkpt lat="47.57074" lon="-2.28844">
        <ele>28.1</ele>
        <time>2025-01-16T09:53:03Z</time>
      </trkpt>
      <trkpt lat="47.57074" lon="-2.28842">
        <ele>27.8</ele>
        <time>2025-01-16T09:53:04Z</time>
      </trkpt>
      <trkpt lat="47.57074" lon="-2.28841">
        <ele>27.7</ele>
        <time>2025-01-16T09:53:05Z</time>
      </trkpt>
      <trkpt lat="47.57073" lon="-2.28839">
        <ele>27.7</ele>
        <time>2025-01-16T09:53:06Z</time>
      </trkpt>
      <trkpt lat="47.57073" lon="-2.28837">
        <ele>27.5</ele>
        <time>2025-01-16T09:53:07Z</time>
      </trkpt>
      <trkpt lat="47.57072" lon="-2.28836">
        <ele>27.6</ele>
        <time>2025-01-16T09:53:08Z</time>
      </trkpt>
      <trkpt lat="47.57071" lon="-2.28834">
        <ele>27.6</ele>
        <time>2025-01-16T09:53:09Z</time>
      </trkpt>
      <trkpt lat="47.5707" lon="-2.28832">
        <ele>27.7</ele>
        <time>2025-01-16T09:53:10Z</time>
      </trkpt>
      <trkpt lat="47.5707" lon="-2.28831">
        <ele>27.6</ele>
        <time>2025-01-16T09:53:11Z</time>
      </trkpt>
      <trkpt lat="47.57069" lon="-2.28829">
        <ele>27.7</ele>
        <time>2025-01-16T09:53:12Z</time>
      </trkpt>
      <trkpt lat="47.57068" lon="-2.28827">
        <ele>27.8</ele>
        <time>2025-01-16T09:53:13Z</time>
      </trkpt>
      <trkpt lat="47.57068" lon="-2.28824">
        <ele>27.6</ele>
        <time>2025-01-16T09:53:14Z</time>
      </trkpt>
      <trkpt lat="47.57067" lon="-2.28822">
        <ele>27.6</ele>
        <time>2025-01-16T09:53:15Z</time>
      </trkpt>
      <trkpt lat="47.57067" lon="-2.2882">
        <ele>27.5</ele>
        <time>2025-01-16T09:53:16Z</time>
      </trkpt>
      <trkpt lat="47.57066" lon="-2.28818">
        <ele>27.5</ele>
        <time>2025-01-16T09:53:17Z</time>
      </trkpt>
      <trkpt lat="47.57066" lon="-2.28816">
        <ele>27.4</ele>
        <time>2025-01-16T09:53:18Z</time>
      </trkpt>
      <trkpt lat="47.57065" lon="-2.28814">
        <ele>27.4</ele>
        <time>2025-01-16T09:53:19Z</time>
      </trkpt>
      <trkpt lat="47.57064" lon="-2.28812">
        <ele>27.5</ele>
        <time>2025-01-16T09:53:20Z</time>
      </trkpt>
      <trkpt lat="47.57064" lon="-2.2881">
        <ele>27.3</ele>
        <time>2025-01-16T09:53:21Z</time>
      </trkpt>
      <trkpt lat="47.57064" lon="-2.28809">
        <ele>27.2</ele>
        <time>2025-01-16T09:53:22Z</time>
      </trkpt>
      <trkpt lat="47.57064" lon="-2.28807">
        <ele>27</ele>
        <time>2025-01-16T09:53:23Z</time>
      </trkpt>
      <trkpt lat="47.57063" lon="-2.28805">
        <ele>27.1</ele>
        <time>2025-01-16T09:53:24Z</time>
      </trkpt>
      <trkpt lat="47.57063" lon="-2.28803">
        <ele>27</ele>
        <time>2025-01-16T09:53:25Z</time>
      </trkpt>
      <trkpt lat="47.57062" lon="-2.28801">
        <ele>27.2</ele>
        <time>2025-01-16T09:53:26Z</time>
      </trkpt>
      <trkpt lat="47.57062" lon="-2.28799">
        <ele>27.1</ele>
        <time>2025-01-16T09:53:27Z</time>
      </trkpt>
      <trkpt lat="47.57062" lon="-2.28798">
        <ele>27.1</ele>
        <time>2025-01-16T09:53:28Z</time>
      </trkpt>
      <trkpt lat="47.57062" lon="-2.28797">
        <ele>27.1</ele>
        <time>2025-01-16T09:53:29Z</time>
      </trkpt>
      <trkpt lat="47.57062" lon="-2.28796">
        <ele>27</ele>
        <time>2025-01-16T09:53:30Z</time>
      </trkpt>
      <trkpt lat="47.57062" lon="-2.28794">
        <ele>27</ele>
        <time>2025-01-16T09:53:31Z</time>
      </trkpt>
      <trkpt lat="47.57062" lon="-2.28793">
        <ele>26.9</ele>
        <time>2025-01-16T09:53:32Z</time>
      </trkpt>
      <trkpt lat="47.57062" lon="-2.28792">
        <ele>26.9</ele>
        <time>2025-01-16T09:53:33Z</time>
      </trkpt>
      <trkpt lat="47.57062" lon="-2.2879">
        <ele>26.8</ele>
        <time>2025-01-16T09:53:34Z</time>
      </trkpt>
      <trkpt lat="47.57063" lon="-2.28789">
        <ele>26.5</ele>
        <time>2025-01-16T09:53:35Z</time>
      </trkpt>
      <trkpt lat="47.57063" lon="-2.28788">
        <ele>26.5</ele>
        <time>2025-01-16T09:53:36Z</time>
      </trkpt>
      <trkpt lat="47.57063" lon="-2.28786">
        <ele>26.4</ele>
        <time>2025-01-16T09:53:37Z</time>
      </trkpt>
      <trkpt lat="47.57063" lon="-2.28784">
        <ele>26.3</ele>
        <time>2025-01-16T09:53:38Z</time>
      </trkpt>
      <trkpt lat="47.57063" lon="-2.28782">
        <ele>26.3</ele>
        <time>2025-01-16T09:53:39Z</time>
      </trkpt>
      <trkpt lat="47.57064" lon="-2.2878">
        <ele>26</ele>
        <time>2025-01-16T09:53:40Z</time>
      </trkpt>
      <trkpt lat="47.57064" lon="-2.28779">
        <ele>25.9</ele>
        <time>2025-01-16T09:53:41Z</time>
      </trkpt>
      <trkpt lat="47.57064" lon="-2.28777">
        <ele>25.9</ele>
        <time>2025-01-16T09:53:42Z</time>
      </trkpt>
      <trkpt lat="47.57064" lon="-2.28775">
        <ele>25.9</ele>
        <time>2025-01-16T09:53:43Z</time>
      </trkpt>
      <trkpt lat="47.57065" lon="-2.28774">
        <ele>25.7</ele>
        <time>2025-01-16T09:53:44Z</time>
      </trkpt>
      <trkpt lat="47.57065" lon="-2.28773">
        <ele>25.7</ele>
        <time>2025-01-16T09:53:45Z</time>
      </trkpt>
      <trkpt lat="47.57065" lon="-2.28771">
        <ele>25.8</ele>
        <time>2025-01-16T09:53:46Z</time>
      </trkpt>
      <trkpt lat="47.57066" lon="-2.2877">
        <ele>25.5</ele>
        <time>2025-01-16T09:53:47Z</time>
      </trkpt>
      <trkpt lat="47.57067" lon="-2.28769">
        <ele>25.3</ele>
        <time>2025-01-16T09:53:48Z</time>
      </trkpt>
      <trkpt lat="47.57068" lon="-2.28768">
        <ele>25.1</ele>
        <time>2025-01-16T09:53:49Z</time>
      </trkpt>
      <trkpt lat="47.57068" lon="-2.28766">
        <ele>25.1</ele>
        <time>2025-01-16T09:53:50Z</time>
      </trkpt>
      <trkpt lat="47.57069" lon="-2.28765">
        <ele>24.8</ele>
        <time>2025-01-16T09:53:51Z</time>
      </trkpt>
      <trkpt lat="47.57069" lon="-2.28763">
        <ele>24.9</ele>
        <time>2025-01-16T09:53:52Z</time>
      </trkpt>
      <trkpt lat="47.5707" lon="-2.28762">
        <ele>24.6</ele>
        <time>2025-01-16T09:53:53Z</time>
      </trkpt>
      <trkpt lat="47.5707" lon="-2.2876">
        <ele>24.7</ele>
        <time>2025-01-16T09:53:54Z</time>
      </trkpt>
      <trkpt lat="47.5707" lon="-2.28759">
        <ele>24.7</ele>
        <time>2025-01-16T09:53:55Z</time>
      </trkpt>
      <trkpt lat="47.5707" lon="-2.28758">
        <ele>24.7</ele>
        <time>2025-01-16T09:53:56Z</time>
      </trkpt>
      <trkpt lat="47.5707" lon="-2.28757">
        <ele>24.7</ele>
        <time>2025-01-16T09:53:57Z</time>
      </trkpt>
      <trkpt lat="47.57071" lon="-2.28756">
        <ele>24.5</ele>
        <time>2025-01-16T09:53:58Z</time>
      </trkpt>
      <trkpt lat="47.57071" lon="-2.28755">
        <ele>24.5</ele>
        <time>2025-01-16T09:53:59Z</time>
      </trkpt>
      <trkpt lat="47.57071" lon="-2.28754">
        <ele>24.5</ele>
        <time>2025-01-16T09:54:00Z</time>
      </trkpt>
      <trkpt lat="47.57071" lon="-2.28753">
        <ele>24.5</ele>
        <time>2025-01-16T09:54:01Z</time>
      </trkpt>
      <trkpt lat="47.57072" lon="-2.28751">
        <ele>24.2</ele>
        <time>2025-01-16T09:54:02Z</time>
      </trkpt>
      <trkpt lat="47.57072" lon="-2.2875">
        <ele>24.3</ele>
        <time>2025-01-16T09:54:03Z</time>
      </trkpt>
      <trkpt lat="47.57072" lon="-2.28749">
        <ele>24.3</ele>
        <time>2025-01-16T09:54:04Z</time>
      </trkpt>
      <trkpt lat="47.57072" lon="-2.28748">
        <ele>24.2</ele>
        <time>2025-01-16T09:54:05Z</time>
      </trkpt>
      <trkpt lat="47.57073" lon="-2.28747">
        <ele>24</ele>
        <time>2025-01-16T09:54:06Z</time>
      </trkpt>
      <trkpt lat="47.57073" lon="-2.28746">
        <ele>24</ele>
        <time>2025-01-16T09:54:07Z</time>
      </trkpt>
      <trkpt lat="47.57073" lon="-2.28744">
        <ele>24</ele>
        <time>2025-01-16T09:54:08Z</time>
      </trkpt>
      <trkpt lat="47.57073" lon="-2.28742">
        <ele>23.9</ele>
        <time>2025-01-16T09:54:09Z</time>
      </trkpt>
      <trkpt lat="47.57073" lon="-2.28741">
        <ele>23.9</ele>
        <time>2025-01-16T09:54:10Z</time>
      </trkpt>
      <trkpt lat="47.57074" lon="-2.28739">
        <ele>23.7</ele>
        <time>2025-01-16T09:54:11Z</time>
      </trkpt>
      <trkpt lat="47.57074" lon="-2.28737">
        <ele>23.7</ele>
        <time>2025-01-16T09:54:12Z</time>
      </trkpt>
      <trkpt lat="47.57074" lon="-2.28735">
        <ele>23.7</ele>
        <time>2025-01-16T09:54:13Z</time>
      </trkpt>
      <trkpt lat="47.57074" lon="-2.28733">
        <ele>23.7</ele>
        <time>2025-01-16T09:54:14Z</time>
      </trkpt>
      <trkpt lat="47.57074" lon="-2.28731">
        <ele>23.7</ele>
        <time>2025-01-16T09:54:15Z</time>
      </trkpt>
      <trkpt lat="47.57074" lon="-2.28729">
        <ele>23.7</ele>
        <time>2025-01-16T09:54:16Z</time>
      </trkpt>
      <trkpt lat="47.57074" lon="-2.28728">
        <ele>23.7</ele>
        <time>2025-01-16T09:54:17Z</time>
      </trkpt>
      <trkpt lat="47.57075" lon="-2.28726">
        <ele>23.5</ele>
        <time>2025-01-16T09:54:18Z</time>
      </trkpt>
      <trkpt lat="47.57075" lon="-2.28724">
        <ele>23.5</ele>
        <time>2025-01-16T09:54:19Z</time>
      </trkpt>
      <trkpt lat="47.57075" lon="-2.28721">
        <ele>23.5</ele>
        <time>2025-01-16T09:54:20Z</time>
      </trkpt>
      <trkpt lat="47.57075" lon="-2.28719">
        <ele>23.4</ele>
        <time>2025-01-16T09:54:21Z</time>
      </trkpt>
      <trkpt lat="47.57074" lon="-2.28718">
        <ele>23.5</ele>
        <time>2025-01-16T09:54:22Z</time>
      </trkpt>
      <trkpt lat="47.57074" lon="-2.28717">
        <ele>23.5</ele>
        <time>2025-01-16T09:54:23Z</time>
      </trkpt>
      <trkpt lat="47.57073" lon="-2.28715">
        <ele>23.6</ele>
        <time>2025-01-16T09:54:24Z</time>
      </trkpt>
      <trkpt lat="47.57073" lon="-2.28713">
        <ele>23.5</ele>
        <time>2025-01-16T09:54:25Z</time>
      </trkpt>
      <trkpt lat="47.57073" lon="-2.28711">
        <ele>23.4</ele>
        <time>2025-01-16T09:54:26Z</time>
      </trkpt>
      <trkpt lat="47.57072" lon="-2.28709">
        <ele>23.5</ele>
        <time>2025-01-16T09:54:27Z</time>
      </trkpt>
      <trkpt lat="47.57072" lon="-2.28707">
        <ele>23.4</ele>
        <time>2025-01-16T09:54:28Z</time>
      </trkpt>
      <trkpt lat="47.57072" lon="-2.28705">
        <ele>23.3</ele>
        <time>2025-01-16T09:54:29Z</time>
      </trkpt>
      <trkpt lat="47.57071" lon="-2.28703">
        <ele>23.3</ele>
        <time>2025-01-16T09:54:30Z</time>
      </trkpt>
      <trkpt lat="47.5707" lon="-2.28702">
        <ele>23.4</ele>
        <time>2025-01-16T09:54:31Z</time>
      </trkpt>
      <trkpt lat="47.5707" lon="-2.287">
        <ele>23.2</ele>
        <time>2025-01-16T09:54:32Z</time>
      </trkpt>
      <trkpt lat="47.57069" lon="-2.28699">
        <ele>23.3</ele>
        <time>2025-01-16T09:54:33Z</time>
      </trkpt>
      <trkpt lat="47.57068" lon="-2.28698">
        <ele>23.3</ele>
        <time>2025-01-16T09:54:34Z</time>
      </trkpt>
      <trkpt lat="47.57068" lon="-2.28696">
        <ele>23.2</ele>
        <time>2025-01-16T09:54:35Z</time>
      </trkpt>
      <trkpt lat="47.57067" lon="-2.28695">
        <ele>23.2</ele>
        <time>2025-01-16T09:54:36Z</time>
      </trkpt>
      <trkpt lat="47.57067" lon="-2.28694">
        <ele>23.1</ele>
        <time>2025-01-16T09:54:37Z</time>
      </trkpt>
      <trkpt lat="47.57066" lon="-2.28693">
        <ele>23</ele>
        <time>2025-01-16T09:54:38Z</time>
      </trkpt>
      <trkpt lat="47.57066" lon="-2.28691">
        <ele>22.7</ele>
        <time>2025-01-16T09:54:39Z</time>
      </trkpt>
      <trkpt lat="47.57065" lon="-2.28691">
        <ele>22.8</ele>
        <time>2025-01-16T09:54:40Z</time>
      </trkpt>
      <trkpt lat="47.57065" lon="-2.28689">
        <ele>22.5</ele>
        <time>2025-01-16T09:54:41Z</time>
      </trkpt>
      <trkpt lat="47.57064" lon="-2.28688">
        <ele>22.4</ele>
        <time>2025-01-16T09:54:42Z</time>
      </trkpt>
      <trkpt lat="47.57064" lon="-2.28686">
        <ele>22.1</ele>
        <time>2025-01-16T09:54:43Z</time>
      </trkpt>
      <trkpt lat="47.57063" lon="-2.28685">
        <ele>22</ele>
        <time>2025-01-16T09:54:44Z</time>
      </trkpt>
      <trkpt lat="47.57063" lon="-2.28684">
        <ele>21.9</ele>
        <time>2025-01-16T09:54:45Z</time>
      </trkpt>
      <trkpt lat="47.57063" lon="-2.28683">
        <ele>21.7</ele>
        <time>2025-01-16T09:54:46Z</time>
      </trkpt>
      <trkpt lat="47.57063" lon="-2.28682">
        <ele>21.6</ele>
        <time>2025-01-16T09:54:47Z</time>
      </trkpt>
      <trkpt lat="47.57063" lon="-2.2868">
        <ele>21.2</ele>
        <time>2025-01-16T09:54:48Z</time>
      </trkpt>
      <trkpt lat="47.57063" lon="-2.28679">
        <ele>21.1</ele>
        <time>2025-01-16T09:54:49Z</time>
      </trkpt>
      <trkpt lat="47.57063" lon="-2.28677">
        <ele>20.8</ele>
        <time>2025-01-16T09:54:50Z</time>
      </trkpt>
      <trkpt lat="47.57063" lon="-2.28675">
        <ele>20.5</ele>
        <time>2025-01-16T09:54:51Z</time>
      </trkpt>
      <trkpt lat="47.57063" lon="-2.28673">
        <ele>20.2</ele>
        <time>2025-01-16T09:54:52Z</time>
      </trkpt>
      <trkpt lat="47.57062" lon="-2.28671">
        <ele>20</ele>
        <time>2025-01-16T09:54:53Z</time>
      </trkpt>
      <trkpt lat="47.57062" lon="-2.2867">
        <ele>19.8</ele>
        <time>2025-01-16T09:54:54Z</time>
      </trkpt>
      <trkpt lat="47.57062" lon="-2.28668">
        <ele>19.5</ele>
        <time>2025-01-16T09:54:55Z</time>
      </trkpt>
      <trkpt lat="47.57062" lon="-2.28667">
        <ele>19.4</ele>
        <time>2025-01-16T09:54:56Z</time>
      </trkpt>
      <trkpt lat="47.57062" lon="-2.28665">
        <ele>19.2</ele>
        <time>2025-01-16T09:54:57Z</time>
      </trkpt>
      <trkpt lat="47.57062" lon="-2.28664">
        <ele>19.1</ele>
        <time>2025-01-16T09:54:58Z</time>
      </trkpt>
      <trkpt lat="47.57062" lon="-2.28663">
        <ele>19</ele>
        <time>2025-01-16T09:54:59Z</time>
      </trkpt>
      <trkpt lat="47.57062" lon="-2.28662">
        <ele>19</ele>
        <time>2025-01-16T09:55:00Z</time>
      </trkpt>
      <trkpt lat="47.57062" lon="-2.28661">
        <ele>18.9</ele>
        <time>2025-01-16T09:55:01Z</time>
      </trkpt>
      <trkpt lat="47.57061" lon="-2.2866">
        <ele>19</ele>
        <time>2025-01-16T09:55:02Z</time>
      </trkpt>
      <trkpt lat="47.57061" lon="-2.28658">
        <ele>18.9</ele>
        <time>2025-01-16T09:55:03Z</time>
      </trkpt>
      <trkpt lat="47.57061" lon="-2.28656">
        <ele>18.7</ele>
        <time>2025-01-16T09:55:04Z</time>
      </trkpt>
      <trkpt lat="47.57061" lon="-2.28654">
        <ele>18.6</ele>
        <time>2025-01-16T09:55:05Z</time>
      </trkpt>
      <trkpt lat="47.57061" lon="-2.28653">
        <ele>18.5</ele>
        <time>2025-01-16T09:55:06Z</time>
      </trkpt>
      <trkpt lat="47.57061" lon="-2.28652">
        <ele>18.5</ele>
        <time>2025-01-16T09:55:07Z</time>
      </trkpt>
      <trkpt lat="47.57061" lon="-2.2865">
        <ele>18.3</ele>
        <time>2025-01-16T09:55:08Z</time>
      </trkpt>
      <trkpt lat="47.57062" lon="-2.28649">
        <ele>18.1</ele>
        <time>2025-01-16T09:55:09Z</time>
      </trkpt>
      <trkpt lat="47.57062" lon="-2.28647">
        <ele>17.9</ele>
        <time>2025-01-16T09:55:10Z</time>
      </trkpt>
      <trkpt lat="47.57062" lon="-2.28646">
        <ele>17.9</ele>
        <time>2025-01-16T09:55:11Z</time>
      </trkpt>
      <trkpt lat="47.57062" lon="-2.28644">
        <ele>17.7</ele>
        <time>2025-01-16T09:55:12Z</time>
      </trkpt>
      <trkpt lat="47.57062" lon="-2.28643">
        <ele>17.7</ele>
        <time>2025-01-16T09:55:13Z</time>
      </trkpt>
      <trkpt lat="47.57063" lon="-2.28641">
        <ele>17.3</ele>
        <time>2025-01-16T09:55:14Z</time>
      </trkpt>
      <trkpt lat="47.57063" lon="-2.2864">
        <ele>17.2</ele>
        <time>2025-01-16T09:55:15Z</time>
      </trkpt>
      <trkpt lat="47.57063" lon="-2.28637">
        <ele>17.3</ele>
        <time>2025-01-16T09:55:16Z</time>
      </trkpt>
      <trkpt lat="47.57063" lon="-2.28635">
        <ele>17.6</ele>
        <time>2025-01-16T09:55:17Z</time>
      </trkpt>
      <trkpt lat="47.57063" lon="-2.28632">
        <ele>17.9</ele>
        <time>2025-01-16T09:55:18Z</time>
      </trkpt>
      <trkpt lat="47.57063" lon="-2.2863">
        <ele>18.2</ele>
        <time>2025-01-16T09:55:19Z</time>
      </trkpt>
      <trkpt lat="47.57064" lon="-2.28628">
        <ele>18.2</ele>
        <time>2025-01-16T09:55:20Z</time>
      </trkpt>
      <trkpt lat="47.57064" lon="-2.28627">
        <ele>18.3</ele>
        <time>2025-01-16T09:55:21Z</time>
      </trkpt>
      <trkpt lat="47.57065" lon="-2.28625">
        <ele>18.3</ele>
        <time>2025-01-16T09:55:22Z</time>
      </trkpt>
      <trkpt lat="47.57065" lon="-2.28623">
        <ele>18.5</ele>
        <time>2025-01-16T09:55:23Z</time>
      </trkpt>
      <trkpt lat="47.57066" lon="-2.28621">
        <ele>18.5</ele>
        <time>2025-01-16T09:55:24Z</time>
      </trkpt>
      <trkpt lat="47.57066" lon="-2.2862">
        <ele>18.7</ele>
        <time>2025-01-16T09:55:25Z</time>
      </trkpt>
      <trkpt lat="47.57067" lon="-2.28619">
        <ele>18.6</ele>
        <time>2025-01-16T09:55:26Z</time>
      </trkpt>
      <trkpt lat="47.57068" lon="-2.28618">
        <ele>18.5</ele>
        <time>2025-01-16T09:55:27Z</time>
      </trkpt>
      <trkpt lat="47.57068" lon="-2.28617">
        <ele>18.6</ele>
        <time>2025-01-16T09:55:28Z</time>
      </trkpt>
      <trkpt lat="47.57069" lon="-2.28616">
        <ele>18.5</ele>
        <time>2025-01-16T09:55:29Z</time>
      </trkpt>
      <trkpt lat="47.57069" lon="-2.28614">
        <ele>18.7</ele>
        <time>2025-01-16T09:55:30Z</time>
      </trkpt>
      <trkpt lat="47.5707" lon="-2.28613">
        <ele>18.6</ele>
        <time>2025-01-16T09:55:31Z</time>
      </trkpt>
      <trkpt lat="47.57071" lon="-2.28611">
        <ele>18.7</ele>
        <time>2025-01-16T09:55:32Z</time>
      </trkpt>
      <trkpt lat="47.57072" lon="-2.28609">
        <ele>18.4</ele>
        <time>2025-01-16T09:55:33Z</time>
      </trkpt>
      <trkpt lat="47.57073" lon="-2.28608">
        <ele>18.2</ele>
        <time>2025-01-16T09:55:34Z</time>
      </trkpt>
      <trkpt lat="47.57074" lon="-2.28606">
        <ele>18</ele>
        <time>2025-01-16T09:55:35Z</time>
      </trkpt>
      <trkpt lat="47.57074" lon="-2.28605">
        <ele>17.9</ele>
        <time>2025-01-16T09:55:36Z</time>
      </trkpt>
      <trkpt lat="47.57074" lon="-2.28603">
        <ele>17.9</ele>
        <time>2025-01-16T09:55:37Z</time>
      </trkpt>
      <trkpt lat="47.57074" lon="-2.28602">
        <ele>17.9</ele>
        <time>2025-01-16T09:55:38Z</time>
      </trkpt>
      <trkpt lat="47.57075" lon="-2.286">
        <ele>17.7</ele>
        <time>2025-01-16T09:55:39Z</time>
      </trkpt>
      <trkpt lat="47.57075" lon="-2.28599">
        <ele>17.7</ele>
        <time>2025-01-16T09:55:40Z</time>
      </trkpt>
      <trkpt lat="47.57075" lon="-2.28597">
        <ele>17.7</ele>
        <time>2025-01-16T09:55:41Z</time>
      </trkpt>
      <trkpt lat="47.57074" lon="-2.28595">
        <ele>17.8</ele>
        <time>2025-01-16T09:55:42Z</time>
      </trkpt>
      <trkpt lat="47.57074" lon="-2.28593">
        <ele>17.8</ele>
        <time>2025-01-16T09:55:43Z</time>
      </trkpt>
      <trkpt lat="47.57074" lon="-2.28592">
        <ele>17.8</ele>
        <time>2025-01-16T09:55:44Z</time>
      </trkpt>
      <trkpt lat="47.57073" lon="-2.28591">
        <ele>17.9</ele>
        <time>2025-01-16T09:55:45Z</time>
      </trkpt>
      <trkpt lat="47.57072" lon="-2.28589">
        <ele>17.9</ele>
        <time>2025-01-16T09:55:46Z</time>
      </trkpt>
      <trkpt lat="47.57071" lon="-2.28588">
        <ele>18</ele>
        <time>2025-01-16T09:55:47Z</time>
      </trkpt>
      <trkpt lat="47.57069" lon="-2.28587">
        <ele>18.2</ele>
        <time>2025-01-16T09:55:48Z</time>
      </trkpt>
      <trkpt lat="47.57068" lon="-2.28587">
        <ele>18.3</ele>
        <time>2025-01-16T09:55:49Z</time>
      </trkpt>
      <trkpt lat="47.57066" lon="-2.28586">
        <ele>18.4</ele>
        <time>2025-01-16T09:55:50Z</time>
      </trkpt>
      <trkpt lat="47.57065" lon="-2.28586">
        <ele>18.5</ele>
        <time>2025-01-16T09:55:51Z</time>
      </trkpt>
      <trkpt lat="47.57064" lon="-2.28585">
        <ele>18.5</ele>
        <time>2025-01-16T09:55:52Z</time>
      </trkpt>
      <trkpt lat="47.57064" lon="-2.28585">
        <ele>18.5</ele>
        <time>2025-01-16T09:55:53Z</time>
      </trkpt>
      <trkpt lat="47.57063" lon="-2.28585">
        <ele>18.6</ele>
        <time>2025-01-16T09:55:54Z</time>
      </trkpt>
      <trkpt lat="47.57063" lon="-2.28585">
        <ele>18.6</ele>
        <time>2025-01-16T09:55:55Z</time>
      </trkpt>
      <trkpt lat="47.57062" lon="-2.28585">
        <ele>18.7</ele>
        <time>2025-01-16T09:55:56Z</time>
      </trkpt>
      <trkpt lat="47.57061" lon="-2.28584">
        <ele>18.7</ele>
        <time>2025-01-16T09:55:57Z</time>
      </trkpt>
      <trkpt lat="47.5706" lon="-2.28584">
        <ele>18.7</ele>
        <time>2025-01-16T09:55:58Z</time>
      </trkpt>
      <trkpt lat="47.57059" lon="-2.28584">
        <ele>18.8</ele>
        <time>2025-01-16T09:55:59Z</time>
      </trkpt>
      <trkpt lat="47.57058" lon="-2.28584">
        <ele>18.9</ele>
        <time>2025-01-16T09:56:00Z</time>
      </trkpt>
      <trkpt lat="47.57057" lon="-2.28585">
        <ele>19.1</ele>
        <time>2025-01-16T09:56:01Z</time>
      </trkpt>
      <trkpt lat="47.57056" lon="-2.28585">
        <ele>19.1</ele>
        <time>2025-01-16T09:56:02Z</time>
      </trkpt>
      <trkpt lat="47.57055" lon="-2.28585">
        <ele>19.2</ele>
        <time>2025-01-16T09:56:03Z</time>
      </trkpt>
      <trkpt lat="47.57054" lon="-2.28585">
        <ele>19.3</ele>
        <time>2025-01-16T09:56:04Z</time>
      </trkpt>
      <trkpt lat="47.57052" lon="-2.28585">
        <ele>19.4</ele>
        <time>2025-01-16T09:56:05Z</time>
      </trkpt>
      <trkpt lat="47.57051" lon="-2.28584">
        <ele>19.4</ele>
        <time>2025-01-16T09:56:06Z</time>
      </trkpt>
      <trkpt lat="47.57049" lon="-2.28584">
        <ele>19.5</ele>
        <time>2025-01-16T09:56:07Z</time>
      </trkpt>
      <trkpt lat="47.57049" lon="-2.28584">
        <ele>19.5</ele>
        <time>2025-01-16T09:56:08Z</time>
      </trkpt>
      <trkpt lat="47.57048" lon="-2.28584">
        <ele>19.6</ele>
        <time>2025-01-16T09:56:09Z</time>
      </trkpt>
      <trkpt lat="47.57047" lon="-2.28584">
        <ele>19.7</ele>
        <time>2025-01-16T09:56:10Z</time>
      </trkpt>
      <trkpt lat="47.57046" lon="-2.28584">
        <ele>19.8</ele>
        <time>2025-01-16T09:56:11Z</time>
      </trkpt>
      <trkpt lat="47.57044" lon="-2.28584">
        <ele>19.9</ele>
        <time>2025-01-16T09:56:12Z</time>
      </trkpt>
      <trkpt lat="47.57043" lon="-2.28584">
        <ele>20</ele>
        <time>2025-01-16T09:56:13Z</time>
      </trkpt>
      <trkpt lat="47.57042" lon="-2.28584">
        <ele>20</ele>
        <time>2025-01-16T09:56:14Z</time>
      </trkpt>
      <trkpt lat="47.57041" lon="-2.28585">
        <ele>20.2</ele>
        <time>2025-01-16T09:56:15Z</time>
      </trkpt>
      <trkpt lat="47.5704" lon="-2.28585">
        <ele>20.3</ele>
        <time>2025-01-16T09:56:16Z</time>
      </trkpt>
      <trkpt lat="47.57038" lon="-2.28585">
        <ele>20.4</ele>
        <time>2025-01-16T09:56:17Z</time>
      </trkpt>
      <trkpt lat="47.57037" lon="-2.28584">
        <ele>20.4</ele>
        <time>2025-01-16T09:56:18Z</time>
      </trkpt>
      <trkpt lat="47.57035" lon="-2.28584">
        <ele>20.6</ele>
        <time>2025-01-16T09:56:19Z</time>
      </trkpt>
      <trkpt lat="47.57034" lon="-2.28583">
        <ele>20.5</ele>
        <time>2025-01-16T09:56:20Z</time>
      </trkpt>
      <trkpt lat="47.57033" lon="-2.28583">
        <ele>20.6</ele>
        <time>2025-01-16T09:56:21Z</time>
      </trkpt>
      <trkpt lat="47.57031" lon="-2.28582">
        <ele>20.5</ele>
        <time>2025-01-16T09:56:22Z</time>
      </trkpt>
      <trkpt lat="47.5703" lon="-2.28581">
        <ele>20.5</ele>
        <time>2025-01-16T09:56:23Z</time>
      </trkpt>
      <trkpt lat="47.57029" lon="-2.28581">
        <ele>20.6</ele>
        <time>2025-01-16T09:56:24Z</time>
      </trkpt>
      <trkpt lat="47.57029" lon="-2.28581">
        <ele>20.6</ele>
        <time>2025-01-16T09:56:25Z</time>
      </trkpt>
      <trkpt lat="47.57029" lon="-2.2858">
        <ele>20.4</ele>
        <time>2025-01-16T09:56:26Z</time>
      </trkpt>
      <trkpt lat="47.57028" lon="-2.2858">
        <ele>20.5</ele>
        <time>2025-01-16T09:56:27Z</time>
      </trkpt>
      <trkpt lat="47.57027" lon="-2.2858">
        <ele>20.6</ele>
        <time>2025-01-16T09:56:28Z</time>
      </trkpt>
      <trkpt lat="47.57025" lon="-2.28579">
        <ele>20.8</ele>
        <time>2025-01-16T09:56:29Z</time>
      </trkpt>
      <trkpt lat="47.57024" lon="-2.28579">
        <ele>21</ele>
        <time>2025-01-16T09:56:30Z</time>
      </trkpt>
      <trkpt lat="47.57022" lon="-2.28578">
        <ele>21.2</ele>
        <time>2025-01-16T09:56:31Z</time>
      </trkpt>
      <trkpt lat="47.5702" lon="-2.28578">
        <ele>21.5</ele>
        <time>2025-01-16T09:56:32Z</time>
      </trkpt>
      <trkpt lat="47.57018" lon="-2.28578">
        <ele>21.8</ele>
        <time>2025-01-16T09:56:33Z</time>
      </trkpt>
      <trkpt lat="47.57017" lon="-2.28578">
        <ele>22</ele>
        <time>2025-01-16T09:56:34Z</time>
      </trkpt>
      <trkpt lat="47.57016" lon="-2.28579">
        <ele>22.3</ele>
        <time>2025-01-16T09:56:35Z</time>
      </trkpt>
      <trkpt lat="47.57015" lon="-2.28579">
        <ele>22.4</ele>
        <time>2025-01-16T09:56:36Z</time>
      </trkpt>
      <trkpt lat="47.57013" lon="-2.2858">
        <ele>22.8</ele>
        <time>2025-01-16T09:56:37Z</time>
      </trkpt>
      <trkpt lat="47.57012" lon="-2.2858">
        <ele>23</ele>
        <time>2025-01-16T09:56:38Z</time>
      </trkpt>
      <trkpt lat="47.57011" lon="-2.28579">
        <ele>23.1</ele>
        <time>2025-01-16T09:56:39Z</time>
      </trkpt>
      <trkpt lat="47.5701" lon="-2.28579">
        <ele>23.2</ele>
        <time>2025-01-16T09:56:40Z</time>
      </trkpt>
      <trkpt lat="47.5701" lon="-2.2858">
        <ele>23.3</ele>
        <time>2025-01-16T09:56:41Z</time>
      </trkpt>
      <trkpt lat="47.57009" lon="-2.2858">
        <ele>23.5</ele>
        <time>2025-01-16T09:56:42Z</time>
      </trkpt>
      <trkpt lat="47.57008" lon="-2.2858">
        <ele>23.6</ele>
        <time>2025-01-16T09:56:43Z</time>
      </trkpt>
      <trkpt lat="47.57007" lon="-2.2858">
        <ele>23.8</ele>
        <time>2025-01-16T09:56:44Z</time>
      </trkpt>
      <trkpt lat="47.57007" lon="-2.2858">
        <ele>23.8</ele>
        <time>2025-01-16T09:56:45Z</time>
      </trkpt>
      <trkpt lat="47.57006" lon="-2.2858">
        <ele>23.9</ele>
        <time>2025-01-16T09:56:46Z</time>
      </trkpt>
      <trkpt lat="47.57006" lon="-2.2858">
        <ele>23.9</ele>
        <time>2025-01-16T09:56:47Z</time>
      </trkpt>
      <trkpt lat="47.57005" lon="-2.28581">
        <ele>24.2</ele>
        <time>2025-01-16T09:56:48Z</time>
      </trkpt>
      <trkpt lat="47.57004" lon="-2.28581">
        <ele>24.3</ele>
        <time>2025-01-16T09:56:49Z</time>
      </trkpt>
      <trkpt lat="47.57003" lon="-2.28582">
        <ele>24.5</ele>
        <time>2025-01-16T09:56:50Z</time>
      </trkpt>
      <trkpt lat="47.57003" lon="-2.28582">
        <ele>24.5</ele>
        <time>2025-01-16T09:56:51Z</time>
      </trkpt>
      <trkpt lat="47.57002" lon="-2.28583">
        <ele>24.7</ele>
        <time>2025-01-16T09:56:52Z</time>
      </trkpt>
      <trkpt lat="47.57001" lon="-2.28583">
        <ele>24.8</ele>
        <time>2025-01-16T09:56:53Z</time>
      </trkpt>
      <trkpt lat="47.57" lon="-2.28583">
        <ele>25</ele>
        <time>2025-01-16T09:56:54Z</time>
      </trkpt>
      <trkpt lat="47.56999" lon="-2.28582">
        <ele>25.3</ele>
        <time>2025-01-16T09:56:55Z</time>
      </trkpt>
      <trkpt lat="47.56997" lon="-2.2858">
        <ele>25.9</ele>
        <time>2025-01-16T09:56:56Z</time>
      </trkpt>
      <trkpt lat="47.56997" lon="-2.28579">
        <ele>25.8</ele>
        <time>2025-01-16T09:56:57Z</time>
      </trkpt>
      <trkpt lat="47.56996" lon="-2.28579">
        <ele>26.1</ele>
        <time>2025-01-16T09:56:58Z</time>
      </trkpt>
      <trkpt lat="47.56995" lon="-2.28579">
        <ele>26.5</ele>
        <time>2025-01-16T09:56:59Z</time>
      </trkpt>
      <trkpt lat="47.56995" lon="-2.28578">
        <ele>26.4</ele>
        <time>2025-01-16T09:57:00Z</time>
      </trkpt>
      <trkpt lat="47.56994" lon="-2.28578">
        <ele>26.8</ele>
        <time>2025-01-16T09:57:01Z</time>
      </trkpt>
      <trkpt lat="47.56994" lon="-2.28577">
        <ele>26.7</ele>
        <time>2025-01-16T09:57:02Z</time>
      </trkpt>
      <trkpt lat="47.56994" lon="-2.28576">
        <ele>26.7</ele>
        <time>2025-01-16T09:57:03Z</time>
      </trkpt>
      <trkpt lat="47.56994" lon="-2.28576">
        <ele>26.7</ele>
        <time>2025-01-16T09:57:04Z</time>
      </trkpt>
      <trkpt lat="47.56993" lon="-2.28574">
        <ele>26.9</ele>
        <time>2025-01-16T09:57:05Z</time>
      </trkpt>
      <trkpt lat="47.56992" lon="-2.28572">
        <ele>27.2</ele>
        <time>2025-01-16T09:57:06Z</time>
      </trkpt>
      <trkpt lat="47.56992" lon="-2.28571">
        <ele>27.1</ele>
        <time>2025-01-16T09:57:07Z</time>
      </trkpt>
      <trkpt lat="47.56992" lon="-2.28569">
        <ele>27.1</ele>
        <time>2025-01-16T09:57:08Z</time>
      </trkpt>
      <trkpt lat="47.56991" lon="-2.28568">
        <ele>27.4</ele>
        <time>2025-01-16T09:57:09Z</time>
      </trkpt>
      <trkpt lat="47.56991" lon="-2.28566">
        <ele>27.3</ele>
        <time>2025-01-16T09:57:10Z</time>
      </trkpt>
      <trkpt lat="47.56991" lon="-2.28564">
        <ele>27.2</ele>
        <time>2025-01-16T09:57:11Z</time>
      </trkpt>
      <trkpt lat="47.5699" lon="-2.28562">
        <ele>27.5</ele>
        <time>2025-01-16T09:57:12Z</time>
      </trkpt>
      <trkpt lat="47.5699" lon="-2.2856">
        <ele>27.4</ele>
        <time>2025-01-16T09:57:13Z</time>
      </trkpt>
      <trkpt lat="47.5699" lon="-2.28558">
        <ele>27.3</ele>
        <time>2025-01-16T09:57:14Z</time>
      </trkpt>
      <trkpt lat="47.56989" lon="-2.28555">
        <ele>27.5</ele>
        <time>2025-01-16T09:57:15Z</time>
      </trkpt>
      <trkpt lat="47.56989" lon="-2.28553">
        <ele>27.2</ele>
        <time>2025-01-16T09:57:16Z</time>
      </trkpt>
      <trkpt lat="47.56988" lon="-2.28551">
        <ele>27.3</ele>
        <time>2025-01-16T09:57:17Z</time>
      </trkpt>
      <trkpt lat="47.56988" lon="-2.28549">
        <ele>27</ele>
        <time>2025-01-16T09:57:18Z</time>
      </trkpt>
      <trkpt lat="47.56987" lon="-2.28547">
        <ele>27.1</ele>
        <time>2025-01-16T09:57:19Z</time>
      </trkpt>
      <trkpt lat="47.56987" lon="-2.28545">
        <ele>26.9</ele>
        <time>2025-01-16T09:57:20Z</time>
      </trkpt>
      <trkpt lat="47.56987" lon="-2.28543">
        <ele>26.6</ele>
        <time>2025-01-16T09:57:21Z</time>
      </trkpt>
      <trkpt lat="47.56987" lon="-2.28542">
        <ele>26.5</ele>
        <time>2025-01-16T09:57:22Z</time>
      </trkpt>
      <trkpt lat="47.56987" lon="-2.2854">
        <ele>26.2</ele>
        <time>2025-01-16T09:57:23Z</time>
      </trkpt>
      <trkpt lat="47.56986" lon="-2.28538">
        <ele>26.3</ele>
        <time>2025-01-16T09:57:24Z</time>
      </trkpt>
      <trkpt lat="47.56985" lon="-2.28536">
        <ele>26.4</ele>
        <time>2025-01-16T09:57:25Z</time>
      </trkpt>
      <trkpt lat="47.56985" lon="-2.28535">
        <ele>26.3</ele>
        <time>2025-01-16T09:57:26Z</time>
      </trkpt>
      <trkpt lat="47.56984" lon="-2.28533">
        <ele>26.4</ele>
        <time>2025-01-16T09:57:27Z</time>
      </trkpt>
      <trkpt lat="47.56983" lon="-2.28531">
        <ele>26.5</ele>
        <time>2025-01-16T09:57:28Z</time>
      </trkpt>
      <trkpt lat="47.56983" lon="-2.2853">
        <ele>26.4</ele>
        <time>2025-01-16T09:57:29Z</time>
      </trkpt>
      <trkpt lat="47.56983" lon="-2.28529">
        <ele>26.3</ele>
        <time>2025-01-16T09:57:30Z</time>
      </trkpt>
      <trkpt lat="47.56982" lon="-2.28528">
        <ele>26.5</ele>
        <time>2025-01-16T09:57:31Z</time>
      </trkpt>
      <trkpt lat="47.56982" lon="-2.28527">
        <ele>26.4</ele>
        <time>2025-01-16T09:57:32Z</time>
      </trkpt>
      <trkpt lat="47.56981" lon="-2.28525">
        <ele>26.4</ele>
        <time>2025-01-16T09:57:33Z</time>
      </trkpt>
      <trkpt lat="47.56981" lon="-2.28523">
        <ele>26.2</ele>
        <time>2025-01-16T09:57:34Z</time>
      </trkpt>
      <trkpt lat="47.56981" lon="-2.28521">
        <ele>25.9</ele>
        <time>2025-01-16T09:57:35Z</time>
      </trkpt>
      <trkpt lat="47.56981" lon="-2.28521">
        <ele>25.9</ele>
        <time>2025-01-16T09:57:36Z</time>
      </trkpt>
      <trkpt lat="47.56981" lon="-2.2852">
        <ele>25.7</ele>
        <time>2025-01-16T09:57:37Z</time>
      </trkpt>
      <trkpt lat="47.56981" lon="-2.28519">
        <ele>25.6</ele>
        <time>2025-01-16T09:57:38Z</time>
      </trkpt>
      <trkpt lat="47.56981" lon="-2.28519">
        <ele>25.6</ele>
        <time>2025-01-16T09:57:39Z</time>
      </trkpt>
      <trkpt lat="47.5698" lon="-2.28517">
        <ele>25.7</ele>
        <time>2025-01-16T09:57:40Z</time>
      </trkpt>
      <trkpt lat="47.5698" lon="-2.28515">
        <ele>25.4</ele>
        <time>2025-01-16T09:57:41Z</time>
      </trkpt>
      <trkpt lat="47.56979" lon="-2.28514">
        <ele>25.7</ele>
        <time>2025-01-16T09:57:42Z</time>
      </trkpt>
      <trkpt lat="47.56979" lon="-2.28512">
        <ele>25.4</ele>
        <time>2025-01-16T09:57:43Z</time>
      </trkpt>
      <trkpt lat="47.56979" lon="-2.2851">
        <ele>25.2</ele>
        <time>2025-01-16T09:57:44Z</time>
      </trkpt>
      <trkpt lat="47.56978" lon="-2.28508">
        <ele>25.3</ele>
        <time>2025-01-16T09:57:45Z</time>
      </trkpt>
      <trkpt lat="47.56978" lon="-2.28506">
        <ele>25.1</ele>
        <time>2025-01-16T09:57:46Z</time>
      </trkpt>
      <trkpt lat="47.56978" lon="-2.28504">
        <ele>24.8</ele>
        <time>2025-01-16T09:57:47Z</time>
      </trkpt>
      <trkpt lat="47.56978" lon="-2.28502">
        <ele>24.6</ele>
        <time>2025-01-16T09:57:48Z</time>
      </trkpt>
      <trkpt lat="47.56978" lon="-2.285">
        <ele>24.3</ele>
        <time>2025-01-16T09:57:49Z</time>
      </trkpt>
      <trkpt lat="47.56978" lon="-2.28498">
        <ele>24</ele>
        <time>2025-01-16T09:57:50Z</time>
      </trkpt>
      <trkpt lat="47.56978" lon="-2.28496">
        <ele>23.7</ele>
        <time>2025-01-16T09:57:51Z</time>
      </trkpt>
      <trkpt lat="47.56977" lon="-2.28493">
        <ele>23.7</ele>
        <time>2025-01-16T09:57:52Z</time>
      </trkpt>
      <trkpt lat="47.56976" lon="-2.28491">
        <ele>24</ele>
        <time>2025-01-16T09:57:53Z</time>
      </trkpt>
      <trkpt lat="47.56976" lon="-2.28489">
        <ele>23.7</ele>
        <time>2025-01-16T09:57:54Z</time>
      </trkpt>
      <trkpt lat="47.56976" lon="-2.28487">
        <ele>23.4</ele>
        <time>2025-01-16T09:57:55Z</time>
      </trkpt>
      <trkpt lat="47.56976" lon="-2.28485">
        <ele>23.2</ele>
        <time>2025-01-16T09:57:56Z</time>
      </trkpt>
      <trkpt lat="47.56976" lon="-2.28483">
        <ele>22.9</ele>
        <time>2025-01-16T09:57:57Z</time>
      </trkpt>
      <trkpt lat="47.56976" lon="-2.28481">
        <ele>22.6</ele>
        <time>2025-01-16T09:57:58Z</time>
      </trkpt>
      <trkpt lat="47.56976" lon="-2.28478">
        <ele>22.2</ele>
        <time>2025-01-16T09:57:59Z</time>
      </trkpt>
      <trkpt lat="47.56975" lon="-2.28476">
        <ele>22.6</ele>
        <time>2025-01-16T09:58:00Z</time>
      </trkpt>
      <trkpt lat="47.56975" lon="-2.28475">
        <ele>22.5</ele>
        <time>2025-01-16T09:58:01Z</time>
      </trkpt>
      <trkpt lat="47.56975" lon="-2.28473">
        <ele>22.2</ele>
        <time>2025-01-16T09:58:02Z</time>
      </trkpt>
      <trkpt lat="47.56975" lon="-2.28472">
        <ele>22</ele>
        <time>2025-01-16T09:58:03Z</time>
      </trkpt>
      <trkpt lat="47.56975" lon="-2.28469">
        <ele>21.3</ele>
        <time>2025-01-16T09:58:04Z</time>
      </trkpt>
      <trkpt lat="47.56975" lon="-2.28467">
        <ele>20.9</ele>
        <time>2025-01-16T09:58:05Z</time>
      </trkpt>
      <trkpt lat="47.56975" lon="-2.28465">
        <ele>20.4</ele>
        <time>2025-01-16T09:58:06Z</time>
      </trkpt>
      <trkpt lat="47.56975" lon="-2.28464">
        <ele>20.1</ele>
        <time>2025-01-16T09:58:07Z</time>
      </trkpt>
      <trkpt lat="47.56974" lon="-2.28462">
        <ele>20.3</ele>
        <time>2025-01-16T09:58:08Z</time>
      </trkpt>
      <trkpt lat="47.56974" lon="-2.28461">
        <ele>20.1</ele>
        <time>2025-01-16T09:58:09Z</time>
      </trkpt>
      <trkpt lat="47.56974" lon="-2.2846">
        <ele>19.8</ele>
        <time>2025-01-16T09:58:10Z</time>
      </trkpt>
      <trkpt lat="47.56973" lon="-2.28458">
        <ele>19.9</ele>
        <time>2025-01-16T09:58:11Z</time>
      </trkpt>
      <trkpt lat="47.56973" lon="-2.28457">
        <ele>19.7</ele>
        <time>2025-01-16T09:58:12Z</time>
      </trkpt>
      <trkpt lat="47.56973" lon="-2.28456">
        <ele>19.4</ele>
        <time>2025-01-16T09:58:13Z</time>
      </trkpt>
      <trkpt lat="47.56973" lon="-2.28454">
        <ele>18.9</ele>
        <time>2025-01-16T09:58:14Z</time>
      </trkpt>
      <trkpt lat="47.56972" lon="-2.28452">
        <ele>19</ele>
        <time>2025-01-16T09:58:15Z</time>
      </trkpt>
      <trkpt lat="47.56972" lon="-2.28451">
        <ele>18.8</ele>
        <time>2025-01-16T09:58:16Z</time>
      </trkpt>
      <trkpt lat="47.56971" lon="-2.2845">
        <ele>19.1</ele>
        <time>2025-01-16T09:58:17Z</time>
      </trkpt>
      <trkpt lat="47.56971" lon="-2.2845">
        <ele>19.1</ele>
        <time>2025-01-16T09:58:18Z</time>
      </trkpt>
      <trkpt lat="47.56971" lon="-2.28449">
        <ele>18.8</ele>
        <time>2025-01-16T09:58:19Z</time>
      </trkpt>
      <trkpt lat="47.56971" lon="-2.28449">
        <ele>18.8</ele>
        <time>2025-01-16T09:58:20Z</time>
      </trkpt>
      <trkpt lat="47.56971" lon="-2.28448">
        <ele>18.6</ele>
        <time>2025-01-16T09:58:21Z</time>
      </trkpt>
      <trkpt lat="47.56971" lon="-2.28448">
        <ele>18.6</ele>
        <time>2025-01-16T09:58:22Z</time>
      </trkpt>
      <trkpt lat="47.56971" lon="-2.28448">
        <ele>18.6</ele>
        <time>2025-01-16T09:58:23Z</time>
      </trkpt>
      <trkpt lat="47.56971" lon="-2.28447">
        <ele>18.3</ele>
        <time>2025-01-16T09:58:24Z</time>
      </trkpt>
      <trkpt lat="47.56971" lon="-2.28446">
        <ele>18.1</ele>
        <time>2025-01-16T09:58:25Z</time>
      </trkpt>
      <trkpt lat="47.56971" lon="-2.28446">
        <ele>18.1</ele>
        <time>2025-01-16T09:58:26Z</time>
      </trkpt>
      <trkpt lat="47.56971" lon="-2.28446">
        <ele>18.1</ele>
        <time>2025-01-16T09:58:27Z</time>
      </trkpt>
      <trkpt lat="47.56971" lon="-2.28445">
        <ele>17.8</ele>
        <time>2025-01-16T09:58:28Z</time>
      </trkpt>
      <trkpt lat="47.56972" lon="-2.28445">
        <ele>17.3</ele>
        <time>2025-01-16T09:58:29Z</time>
      </trkpt>
      <trkpt lat="47.56972" lon="-2.28445">
        <ele>17.3</ele>
        <time>2025-01-16T09:58:30Z</time>
      </trkpt>
      <trkpt lat="47.56972" lon="-2.28445">
        <ele>17.3</ele>
        <time>2025-01-16T09:58:31Z</time>
      </trkpt>
      <trkpt lat="47.56972" lon="-2.28446">
        <ele>17.5</ele>
        <time>2025-01-16T09:58:32Z</time>
      </trkpt>
      <trkpt lat="47.56972" lon="-2.28446">
        <ele>17.5</ele>
        <time>2025-01-16T09:58:33Z</time>
      </trkpt>
      <trkpt lat="47.56972" lon="-2.28446">
        <ele>17.5</ele>
        <time>2025-01-16T09:58:34Z</time>
      </trkpt>
      <trkpt lat="47.56972" lon="-2.28446">
        <ele>17.5</ele>
        <time>2025-01-16T09:58:37Z</time>
      </trkpt>
      <trkpt lat="47.56972" lon="-2.28446">
        <ele>17.5</ele>
        <time>2025-01-16T09:58:38Z</time>
      </trkpt>
      <trkpt lat="47.56972" lon="-2.28446">
        <ele>17.5</ele>
        <time>2025-01-16T09:58:39Z</time>
      </trkpt>
      <trkpt lat="47.56973" lon="-2.28446">
        <ele>17</ele>
        <time>2025-01-16T09:58:40Z</time>
      </trkpt>
      <trkpt lat="47.56973" lon="-2.28446">
        <ele>17</ele>
        <time>2025-01-16T09:58:41Z</time>
      </trkpt>
      <trkpt lat="47.56973" lon="-2.28446">
        <ele>17</ele>
        <time>2025-01-16T09:58:42Z</time>
      </trkpt>
      <trkpt lat="47.56973" lon="-2.28446">
        <ele>17</ele>
        <time>2025-01-16T09:58:43Z</time>
      </trkpt>
      <trkpt lat="47.56973" lon="-2.28446">
        <ele>17</ele>
        <time>2025-01-16T09:58:44Z</time>
      </trkpt>
      <trkpt lat="47.56973" lon="-2.28446">
        <ele>17</ele>
        <time>2025-01-16T09:58:45Z</time>
      </trkpt>
      <trkpt lat="47.56973" lon="-2.28446">
        <ele>17</ele>
        <time>2025-01-16T09:58:46Z</time>
      </trkpt>
      <trkpt lat="47.56973" lon="-2.28446">
        <ele>17</ele>
        <time>2025-01-16T09:58:47Z</time>
      </trkpt>
      <trkpt lat="47.56973" lon="-2.28446">
        <ele>17</ele>
        <time>2025-01-16T09:58:48Z</time>
      </trkpt>
      <trkpt lat="47.56973" lon="-2.28446">
        <ele>17</ele>
        <time>2025-01-16T09:58:49Z</time>
      </trkpt>
      <trkpt lat="47.56973" lon="-2.28446">
        <ele>17</ele>
        <time>2025-01-16T09:58:50Z</time>
      </trkpt>
      <trkpt lat="47.56973" lon="-2.28446">
        <ele>17</ele>
        <time>2025-01-16T09:58:51Z</time>
      </trkpt>
      <trkpt lat="47.56973" lon="-2.28446">
        <ele>17</ele>
        <time>2025-01-16T09:58:52Z</time>
      </trkpt>
      <trkpt lat="47.56973" lon="-2.28446">
        <ele>17</ele>
        <time>2025-01-16T09:58:53Z</time>
      </trkpt>
      <trkpt lat="47.56973" lon="-2.28446">
        <ele>17</ele>
        <time>2025-01-16T09:58:54Z</time>
      </trkpt>
      <trkpt lat="47.56973" lon="-2.28446">
        <ele>17</ele>
        <time>2025-01-16T09:58:55Z</time>
      </trkpt>
      <trkpt lat="47.56973" lon="-2.28446">
        <ele>17</ele>
        <time>2025-01-16T09:58:56Z</time>
      </trkpt>
      <trkpt lat="47.56973" lon="-2.28447">
        <ele>17.2</ele>
        <time>2025-01-16T09:58:57Z</time>
      </trkpt>
      <trkpt lat="47.56973" lon="-2.28447">
        <ele>17.2</ele>
        <time>2025-01-16T09:58:58Z</time>
      </trkpt>
      <trkpt lat="47.56973" lon="-2.28447">
        <ele>17.2</ele>
        <time>2025-01-16T09:58:59Z</time>
      </trkpt>
      <trkpt lat="47.56973" lon="-2.28447">
        <ele>17.2</ele>
        <time>2025-01-16T09:59:00Z</time>
      </trkpt>
      <trkpt lat="47.56973" lon="-2.28447">
        <ele>17.2</ele>
        <time>2025-01-16T09:59:01Z</time>
      </trkpt>
      <trkpt lat="47.56973" lon="-2.28447">
        <ele>17.2</ele>
        <time>2025-01-16T09:59:02Z</time>
      </trkpt>
      <trkpt lat="47.56973" lon="-2.28447">
        <ele>17.2</ele>
        <time>2025-01-16T09:59:03Z</time>
      </trkpt>
      <trkpt lat="47.56973" lon="-2.28447">
        <ele>17.2</ele>
        <time>2025-01-16T09:59:04Z</time>
      </trkpt>
      <trkpt lat="47.56973" lon="-2.28447">
        <ele>17.2</ele>
        <time>2025-01-16T09:59:05Z</time>
      </trkpt>
      <trkpt lat="47.56973" lon="-2.28447">
        <ele>17.2</ele>
        <time>2025-01-16T09:59:06Z</time>
      </trkpt>
      <trkpt lat="47.56972" lon="-2.28448">
        <ele>18</ele>
        <time>2025-01-16T09:59:07Z</time>
      </trkpt>
      <trkpt lat="47.56971" lon="-2.2845">
        <ele>19.1</ele>
        <time>2025-01-16T09:59:08Z</time>
      </trkpt>
      <trkpt lat="47.56968" lon="-2.28451">
        <ele>21</ele>
        <time>2025-01-16T09:59:09Z</time>
      </trkpt>
      <trkpt lat="47.56967" lon="-2.28452">
        <ele>21.8</ele>
        <time>2025-01-16T09:59:10Z</time>
      </trkpt>
      <trkpt lat="47.56966" lon="-2.28452">
        <ele>22.4</ele>
        <time>2025-01-16T09:59:11Z</time>
      </trkpt>
      <trkpt lat="47.56966" lon="-2.28451">
        <ele>22.1</ele>
        <time>2025-01-16T09:59:12Z</time>
      </trkpt>
      <trkpt lat="47.56966" lon="-2.28451">
        <ele>22.1</ele>
        <time>2025-01-16T09:59:13Z</time>
      </trkpt>
      <trkpt lat="47.56965" lon="-2.28451">
        <ele>22.7</ele>
        <time>2025-01-16T09:59:14Z</time>
      </trkpt>
      <trkpt lat="47.56964" lon="-2.28451">
        <ele>23.2</ele>
        <time>2025-01-16T09:59:15Z</time>
      </trkpt>
      <trkpt lat="47.56964" lon="-2.2845">
        <ele>23</ele>
        <time>2025-01-16T09:59:16Z</time>
      </trkpt>
      <trkpt lat="47.56964" lon="-2.28449">
        <ele>22.8</ele>
        <time>2025-01-16T09:59:17Z</time>
      </trkpt>
      <trkpt lat="47.56964" lon="-2.28449">
        <ele>22.8</ele>
        <time>2025-01-16T09:59:18Z</time>
      </trkpt>
      <trkpt lat="47.56964" lon="-2.28449">
        <ele>22.8</ele>
        <time>2025-01-16T09:59:19Z</time>
      </trkpt>
      <trkpt lat="47.56964" lon="-2.28448">
        <ele>22.6</ele>
        <time>2025-01-16T09:59:20Z</time>
      </trkpt>
      <trkpt lat="47.56964" lon="-2.28448">
        <ele>22.6</ele>
        <time>2025-01-16T09:59:21Z</time>
      </trkpt>
      <trkpt lat="47.56964" lon="-2.28447">
        <ele>22.3</ele>
        <time>2025-01-16T09:59:22Z</time>
      </trkpt>
      <trkpt lat="47.56964" lon="-2.28446">
        <ele>22.1</ele>
        <time>2025-01-16T09:59:23Z</time>
      </trkpt>
      <trkpt lat="47.56964" lon="-2.28446">
        <ele>22.1</ele>
        <time>2025-01-16T09:59:24Z</time>
      </trkpt>
      <trkpt lat="47.56964" lon="-2.28446">
        <ele>22.1</ele>
        <time>2025-01-16T09:59:25Z</time>
      </trkpt>
      <trkpt lat="47.56964" lon="-2.28445">
        <ele>21.9</ele>
        <time>2025-01-16T09:59:26Z</time>
      </trkpt>
      <trkpt lat="47.56964" lon="-2.28445">
        <ele>21.9</ele>
        <time>2025-01-16T09:59:27Z</time>
      </trkpt>
      <trkpt lat="47.56964" lon="-2.28445">
        <ele>21.9</ele>
        <time>2025-01-16T09:59:28Z</time>
      </trkpt>
      <trkpt lat="47.56964" lon="-2.28445">
        <ele>21.9</ele>
        <time>2025-01-16T09:59:29Z</time>
      </trkpt>
      <trkpt lat="47.56964" lon="-2.28445">
        <ele>21.9</ele>
        <time>2025-01-16T09:59:30Z</time>
      </trkpt>
      <trkpt lat="47.56964" lon="-2.28445">
        <ele>21.9</ele>
        <time>2025-01-16T09:59:31Z</time>
      </trkpt>
      <trkpt lat="47.56964" lon="-2.28445">
        <ele>21.9</ele>
        <time>2025-01-16T09:59:32Z</time>
      </trkpt>
      <trkpt lat="47.56964" lon="-2.28445">
        <ele>21.9</ele>
        <time>2025-01-16T09:59:33Z</time>
      </trkpt>
      <trkpt lat="47.56963" lon="-2.28445">
        <ele>22.4</ele>
        <time>2025-01-16T09:59:34Z</time>
      </trkpt>
      <trkpt lat="47.56962" lon="-2.28444">
        <ele>22.8</ele>
        <time>2025-01-16T09:59:35Z</time>
      </trkpt>
      <trkpt lat="47.56961" lon="-2.28444">
        <ele>23.3</ele>
        <time>2025-01-16T09:59:36Z</time>
      </trkpt>
      <trkpt lat="47.56961" lon="-2.28444">
        <ele>23.3</ele>
        <time>2025-01-16T09:59:37Z</time>
      </trkpt>
      <trkpt lat="47.5696" lon="-2.28446">
        <ele>24.4</ele>
        <time>2025-01-16T09:59:38Z</time>
      </trkpt>
      <trkpt lat="47.56959" lon="-2.28447">
        <ele>25.2</ele>
        <time>2025-01-16T09:59:39Z</time>
      </trkpt>
      <trkpt lat="47.56959" lon="-2.28447">
        <ele>25.2</ele>
        <time>2025-01-16T09:59:40Z</time>
      </trkpt>
      <trkpt lat="47.56958" lon="-2.28447">
        <ele>25.7</ele>
        <time>2025-01-16T09:59:41Z</time>
      </trkpt>
      <trkpt lat="47.56957" lon="-2.28447">
        <ele>26.3</ele>
        <time>2025-01-16T09:59:42Z</time>
      </trkpt>
      <trkpt lat="47.56957" lon="-2.28447">
        <ele>26.3</ele>
        <time>2025-01-16T09:59:43Z</time>
      </trkpt>
      <trkpt lat="47.56957" lon="-2.28447">
        <ele>26.3</ele>
        <time>2025-01-16T09:59:44Z</time>
      </trkpt>
      <trkpt lat="47.56957" lon="-2.28446">
        <ele>26.1</ele>
        <time>2025-01-16T09:59:45Z</time>
      </trkpt>
      <trkpt lat="47.56956" lon="-2.28446">
        <ele>26.7</ele>
        <time>2025-01-16T09:59:46Z</time>
      </trkpt>
      <trkpt lat="47.56955" lon="-2.28446">
        <ele>27.2</ele>
        <time>2025-01-16T09:59:47Z</time>
      </trkpt>
      <trkpt lat="47.56955" lon="-2.28445">
        <ele>27</ele>
        <time>2025-01-16T09:59:48Z</time>
      </trkpt>
      <trkpt lat="47.56954" lon="-2.28445">
        <ele>27.6</ele>
        <time>2025-01-16T09:59:49Z</time>
      </trkpt>
      <trkpt lat="47.56954" lon="-2.28445">
        <ele>27.6</ele>
        <time>2025-01-16T09:59:50Z</time>
      </trkpt>
      <trkpt lat="47.56953" lon="-2.28445">
        <ele>28.2</ele>
        <time>2025-01-16T09:59:51Z</time>
      </trkpt>
      <trkpt lat="47.56952" lon="-2.28444">
        <ele>28.5</ele>
        <time>2025-01-16T09:59:52Z</time>
      </trkpt>
      <trkpt lat="47.56951" lon="-2.28444">
        <ele>29.1</ele>
        <time>2025-01-16T09:59:53Z</time>
      </trkpt>
      <trkpt lat="47.5695" lon="-2.28444">
        <ele>29.6</ele>
        <time>2025-01-16T09:59:54Z</time>
      </trkpt>
      <trkpt lat="47.56949" lon="-2.28444">
        <ele>30.2</ele>
        <time>2025-01-16T09:59:55Z</time>
      </trkpt>
      <trkpt lat="47.56949" lon="-2.28443">
        <ele>29.9</ele>
        <time>2025-01-16T09:59:56Z</time>
      </trkpt>
      <trkpt lat="47.56948" lon="-2.28443">
        <ele>30.5</ele>
        <time>2025-01-16T09:59:57Z</time>
      </trkpt>
      <trkpt lat="47.56947" lon="-2.28443">
        <ele>31</ele>
        <time>2025-01-16T09:59:58Z</time>
      </trkpt>
      <trkpt lat="47.56946" lon="-2.28443">
        <ele>31.6</ele>
        <time>2025-01-16T09:59:59Z</time>
      </trkpt>
      <trkpt lat="47.56945" lon="-2.28442">
        <ele>31.8</ele>
        <time>2025-01-16T10:00:00Z</time>
      </trkpt>
      <trkpt lat="47.56945" lon="-2.28442">
        <ele>31.8</ele>
        <time>2025-01-16T10:00:01Z</time>
      </trkpt>
      <trkpt lat="47.56944" lon="-2.28441">
        <ele>31.9</ele>
        <time>2025-01-16T10:00:02Z</time>
      </trkpt>
      <trkpt lat="47.56943" lon="-2.28441">
        <ele>32.1</ele>
        <time>2025-01-16T10:00:03Z</time>
      </trkpt>
      <trkpt lat="47.56942" lon="-2.2844">
        <ele>31.9</ele>
        <time>2025-01-16T10:00:04Z</time>
      </trkpt>
      <trkpt lat="47.56941" lon="-2.2844">
        <ele>32.1</ele>
        <time>2025-01-16T10:00:05Z</time>
      </trkpt>
      <trkpt lat="47.5694" lon="-2.28439">
        <ele>32</ele>
        <time>2025-01-16T10:00:06Z</time>
      </trkpt>
      <trkpt lat="47.56939" lon="-2.28438">
        <ele>31.9</ele>
        <time>2025-01-16T10:00:07Z</time>
      </trkpt>
      <trkpt lat="47.56938" lon="-2.28438">
        <ele>32.1</ele>
        <time>2025-01-16T10:00:08Z</time>
      </trkpt>
      <trkpt lat="47.56938" lon="-2.28438">
        <ele>32.1</ele>
        <time>2025-01-16T10:00:09Z</time>
      </trkpt>
      <trkpt lat="47.56937" lon="-2.28438">
        <ele>32.3</ele>
        <time>2025-01-16T10:00:10Z</time>
      </trkpt>
      <trkpt lat="47.56937" lon="-2.28438">
        <ele>32.3</ele>
        <time>2025-01-16T10:00:11Z</time>
      </trkpt>
      <trkpt lat="47.56936" lon="-2.28437">
        <ele>32.1</ele>
        <time>2025-01-16T10:00:12Z</time>
      </trkpt>
      <trkpt lat="47.56935" lon="-2.28436">
        <ele>32</ele>
        <time>2025-01-16T10:00:13Z</time>
      </trkpt>
      <trkpt lat="47.56934" lon="-2.28435">
        <ele>31.9</ele>
        <time>2025-01-16T10:00:14Z</time>
      </trkpt>
      <trkpt lat="47.56933" lon="-2.28434">
        <ele>31.7</ele>
        <time>2025-01-16T10:00:15Z</time>
      </trkpt>
      <trkpt lat="47.56932" lon="-2.28434">
        <ele>31.9</ele>
        <time>2025-01-16T10:00:16Z</time>
      </trkpt>
      <trkpt lat="47.56931" lon="-2.28433">
        <ele>31.8</ele>
        <time>2025-01-16T10:00:17Z</time>
      </trkpt>
      <trkpt lat="47.56929" lon="-2.28432">
        <ele>31.9</ele>
        <time>2025-01-16T10:00:18Z</time>
      </trkpt>
      <trkpt lat="47.56928" lon="-2.28431">
        <ele>31.7</ele>
        <time>2025-01-16T10:00:19Z</time>
      </trkpt>
      <trkpt lat="47.56927" lon="-2.2843">
        <ele>31.6</ele>
        <time>2025-01-16T10:00:20Z</time>
      </trkpt>
      <trkpt lat="47.56926" lon="-2.28429">
        <ele>31.4</ele>
        <time>2025-01-16T10:00:21Z</time>
      </trkpt>
      <trkpt lat="47.56925" lon="-2.28428">
        <ele>31.3</ele>
        <time>2025-01-16T10:00:22Z</time>
      </trkpt>
      <trkpt lat="47.56924" lon="-2.28427">
        <ele>31.1</ele>
        <time>2025-01-16T10:00:23Z</time>
      </trkpt>
      <trkpt lat="47.56923" lon="-2.28426">
        <ele>31</ele>
        <time>2025-01-16T10:00:24Z</time>
      </trkpt>
      <trkpt lat="47.56922" lon="-2.28425">
        <ele>30.8</ele>
        <time>2025-01-16T10:00:25Z</time>
      </trkpt>
      <trkpt lat="47.56922" lon="-2.28424">
        <ele>30.5</ele>
        <time>2025-01-16T10:00:26Z</time>
      </trkpt>
      <trkpt lat="47.56921" lon="-2.28423">
        <ele>30.3</ele>
        <time>2025-01-16T10:00:27Z</time>
      </trkpt>
      <trkpt lat="47.56919" lon="-2.28422">
        <ele>30.4</ele>
        <time>2025-01-16T10:00:28Z</time>
      </trkpt>
      <trkpt lat="47.56919" lon="-2.28422">
        <ele>30.4</ele>
        <time>2025-01-16T10:00:29Z</time>
      </trkpt>
      <trkpt lat="47.56918" lon="-2.28421">
        <ele>30.3</ele>
        <time>2025-01-16T10:00:30Z</time>
      </trkpt>
      <trkpt lat="47.56918" lon="-2.28421">
        <ele>30.3</ele>
        <time>2025-01-16T10:00:31Z</time>
      </trkpt>
      <trkpt lat="47.56917" lon="-2.2842">
        <ele>30.1</ele>
        <time>2025-01-16T10:00:32Z</time>
      </trkpt>
      <trkpt lat="47.56916" lon="-2.28419">
        <ele>30</ele>
        <time>2025-01-16T10:00:33Z</time>
      </trkpt>
      <trkpt lat="47.56916" lon="-2.28418">
        <ele>29.7</ele>
        <time>2025-01-16T10:00:34Z</time>
      </trkpt>
      <trkpt lat="47.56915" lon="-2.28417">
        <ele>29.6</ele>
        <time>2025-01-16T10:00:35Z</time>
      </trkpt>
      <trkpt lat="47.56914" lon="-2.28416">
        <ele>29.5</ele>
        <time>2025-01-16T10:00:36Z</time>
      </trkpt>
      <trkpt lat="47.56913" lon="-2.28414">
        <ele>28.9</ele>
        <time>2025-01-16T10:00:37Z</time>
      </trkpt>
      <trkpt lat="47.56913" lon="-2.28413">
        <ele>28.5</ele>
        <time>2025-01-16T10:00:38Z</time>
      </trkpt>
      <trkpt lat="47.56912" lon="-2.28412">
        <ele>28.3</ele>
        <time>2025-01-16T10:00:39Z</time>
      </trkpt>
      <trkpt lat="47.56912" lon="-2.28411">
        <ele>27.9</ele>
        <time>2025-01-16T10:00:40Z</time>
      </trkpt>
      <trkpt lat="47.56911" lon="-2.2841">
        <ele>27.8</ele>
        <time>2025-01-16T10:00:41Z</time>
      </trkpt>
      <trkpt lat="47.56911" lon="-2.28409">
        <ele>27.3</ele>
        <time>2025-01-16T10:00:42Z</time>
      </trkpt>
      <trkpt lat="47.5691" lon="-2.28408">
        <ele>27.2</ele>
        <time>2025-01-16T10:00:43Z</time>
      </trkpt>
      <trkpt lat="47.56909" lon="-2.28406">
        <ele>26.6</ele>
        <time>2025-01-16T10:00:44Z</time>
      </trkpt>
      <trkpt lat="47.56909" lon="-2.28404">
        <ele>25.7</ele>
        <time>2025-01-16T10:00:45Z</time>
      </trkpt>
      <trkpt lat="47.56908" lon="-2.28403">
        <ele>25.6</ele>
        <time>2025-01-16T10:00:46Z</time>
      </trkpt>
      <trkpt lat="47.56908" lon="-2.28401">
        <ele>24.7</ele>
        <time>2025-01-16T10:00:47Z</time>
      </trkpt>
      <trkpt lat="47.56907" lon="-2.284">
        <ele>24.6</ele>
        <time>2025-01-16T10:00:48Z</time>
      </trkpt>
      <trkpt lat="47.56906" lon="-2.28398">
        <ele>24</ele>
        <time>2025-01-16T10:00:49Z</time>
      </trkpt>
      <trkpt lat="47.56906" lon="-2.28398">
        <ele>24</ele>
        <time>2025-01-16T10:00:50Z</time>
      </trkpt>
      <trkpt lat="47.56905" lon="-2.28397">
        <ele>23.9</ele>
        <time>2025-01-16T10:00:51Z</time>
      </trkpt>
      <trkpt lat="47.56905" lon="-2.28396">
        <ele>23.4</ele>
        <time>2025-01-16T10:00:52Z</time>
      </trkpt>
      <trkpt lat="47.56904" lon="-2.28395">
        <ele>23.3</ele>
        <time>2025-01-16T10:00:53Z</time>
      </trkpt>
      <trkpt lat="47.56904" lon="-2.28395">
        <ele>23.3</ele>
        <time>2025-01-16T10:00:54Z</time>
      </trkpt>
      <trkpt lat="47.56903" lon="-2.28394">
        <ele>23.1</ele>
        <time>2025-01-16T10:00:55Z</time>
      </trkpt>
      <trkpt lat="47.56903" lon="-2.28394">
        <ele>23.1</ele>
        <time>2025-01-16T10:00:56Z</time>
      </trkpt>
      <trkpt lat="47.56902" lon="-2.28393">
        <ele>23</ele>
        <time>2025-01-16T10:00:57Z</time>
      </trkpt>
      <trkpt lat="47.56902" lon="-2.28393">
        <ele>23</ele>
        <time>2025-01-16T10:00:58Z</time>
      </trkpt>
      <trkpt lat="47.56901" lon="-2.28392">
        <ele>22.9</ele>
        <time>2025-01-16T10:00:59Z</time>
      </trkpt>
      <trkpt lat="47.569" lon="-2.28391">
        <ele>22.7</ele>
        <time>2025-01-16T10:01:00Z</time>
      </trkpt>
      <trkpt lat="47.56899" lon="-2.2839">
        <ele>22.6</ele>
        <time>2025-01-16T10:01:01Z</time>
      </trkpt>
      <trkpt lat="47.56899" lon="-2.28389">
        <ele>22.1</ele>
        <time>2025-01-16T10:01:02Z</time>
      </trkpt>
      <trkpt lat="47.56898" lon="-2.28388">
        <ele>22</ele>
        <time>2025-01-16T10:01:03Z</time>
      </trkpt>
      <trkpt lat="47.56898" lon="-2.28386">
        <ele>21.3</ele>
        <time>2025-01-16T10:01:04Z</time>
      </trkpt>
      <trkpt lat="47.56897" lon="-2.28386">
        <ele>21.6</ele>
        <time>2025-01-16T10:01:05Z</time>
      </trkpt>
      <trkpt lat="47.56897" lon="-2.28386">
        <ele>21.6</ele>
        <time>2025-01-16T10:01:06Z</time>
      </trkpt>
      <trkpt lat="47.56896" lon="-2.28385">
        <ele>21.5</ele>
        <time>2025-01-16T10:01:07Z</time>
      </trkpt>
      <trkpt lat="47.56896" lon="-2.28384">
        <ele>21.1</ele>
        <time>2025-01-16T10:01:08Z</time>
      </trkpt>
      <trkpt lat="47.56896" lon="-2.28383">
        <ele>20.7</ele>
        <time>2025-01-16T10:01:09Z</time>
      </trkpt>
      <trkpt lat="47.56896" lon="-2.28383">
        <ele>20.7</ele>
        <time>2025-01-16T10:01:10Z</time>
      </trkpt>
      <trkpt lat="47.56896" lon="-2.28382">
        <ele>20.3</ele>
        <time>2025-01-16T10:01:11Z</time>
      </trkpt>
      <trkpt lat="47.56896" lon="-2.2838">
        <ele>19.6</ele>
        <time>2025-01-16T10:01:12Z</time>
      </trkpt>
      <trkpt lat="47.56896" lon="-2.28379">
        <ele>19.2</ele>
        <time>2025-01-16T10:01:13Z</time>
      </trkpt>
      <trkpt lat="47.56895" lon="-2.28379">
        <ele>19.5</ele>
        <time>2025-01-16T10:01:14Z</time>
      </trkpt>
      <trkpt lat="47.56895" lon="-2.28378">
        <ele>19.1</ele>
        <time>2025-01-16T10:01:15Z</time>
      </trkpt>
      <trkpt lat="47.56894" lon="-2.28376">
        <ele>18.7</ele>
        <time>2025-01-16T10:01:16Z</time>
      </trkpt>
      <trkpt lat="47.56894" lon="-2.28374">
        <ele>18</ele>
        <time>2025-01-16T10:01:17Z</time>
      </trkpt>
      <trkpt lat="47.56893" lon="-2.28373">
        <ele>17.9</ele>
        <time>2025-01-16T10:01:18Z</time>
      </trkpt>
      <trkpt lat="47.56892" lon="-2.28371">
        <ele>17.5</ele>
        <time>2025-01-16T10:01:19Z</time>
      </trkpt>
      <trkpt lat="47.56891" lon="-2.28369">
        <ele>17.1</ele>
        <time>2025-01-16T10:01:20Z</time>
      </trkpt>
      <trkpt lat="47.5689" lon="-2.28367">
        <ele>16.7</ele>
        <time>2025-01-16T10:01:21Z</time>
      </trkpt>
      <trkpt lat="47.56888" lon="-2.28366">
        <ele>17</ele>
        <time>2025-01-16T10:01:22Z</time>
      </trkpt>
      <trkpt lat="47.56887" lon="-2.28365">
        <ele>16.8</ele>
        <time>2025-01-16T10:01:23Z</time>
      </trkpt>
      <trkpt lat="47.56887" lon="-2.28364">
        <ele>16.5</ele>
        <time>2025-01-16T10:01:24Z</time>
      </trkpt>
      <trkpt lat="47.56885" lon="-2.28364">
        <ele>16.9</ele>
        <time>2025-01-16T10:01:25Z</time>
      </trkpt>
      <trkpt lat="47.56884" lon="-2.28364">
        <ele>17.1</ele>
        <time>2025-01-16T10:01:26Z</time>
      </trkpt>
      <trkpt lat="47.56883" lon="-2.28364">
        <ele>17.4</ele>
        <time>2025-01-16T10:01:27Z</time>
      </trkpt>
      <trkpt lat="47.56881" lon="-2.28363">
        <ele>17.4</ele>
        <time>2025-01-16T10:01:28Z</time>
      </trkpt>
      <trkpt lat="47.5688" lon="-2.28362">
        <ele>17.3</ele>
        <time>2025-01-16T10:01:29Z</time>
      </trkpt>
      <trkpt lat="47.5688" lon="-2.28361">
        <ele>16.9</ele>
        <time>2025-01-16T10:01:30Z</time>
      </trkpt>
      <trkpt lat="47.56878" lon="-2.2836">
        <ele>16.9</ele>
        <time>2025-01-16T10:01:31Z</time>
      </trkpt>
      <trkpt lat="47.56877" lon="-2.2836">
        <ele>17.2</ele>
        <time>2025-01-16T10:01:32Z</time>
      </trkpt>
      <trkpt lat="47.56876" lon="-2.2836">
        <ele>17.4</ele>
        <time>2025-01-16T10:01:33Z</time>
      </trkpt>
      <trkpt lat="47.56875" lon="-2.2836">
        <ele>17.6</ele>
        <time>2025-01-16T10:01:34Z</time>
      </trkpt>
      <trkpt lat="47.56874" lon="-2.2836">
        <ele>17.8</ele>
        <time>2025-01-16T10:01:35Z</time>
      </trkpt>
      <trkpt lat="47.56874" lon="-2.2836">
        <ele>17.8</ele>
        <time>2025-01-16T10:01:36Z</time>
      </trkpt>
      <trkpt lat="47.56873" lon="-2.2836">
        <ele>18</ele>
        <time>2025-01-16T10:01:37Z</time>
      </trkpt>
      <trkpt lat="47.56872" lon="-2.2836">
        <ele>18.3</ele>
        <time>2025-01-16T10:01:38Z</time>
      </trkpt>
      <trkpt lat="47.56871" lon="-2.2836">
        <ele>18.5</ele>
        <time>2025-01-16T10:01:39Z</time>
      </trkpt>
      <trkpt lat="47.5687" lon="-2.28359">
        <ele>18.3</ele>
        <time>2025-01-16T10:01:40Z</time>
      </trkpt>
      <trkpt lat="47.56869" lon="-2.28359">
        <ele>18.6</ele>
        <time>2025-01-16T10:01:41Z</time>
      </trkpt>
      <trkpt lat="47.56868" lon="-2.28358">
        <ele>18.4</ele>
        <time>2025-01-16T10:01:42Z</time>
      </trkpt>
      <trkpt lat="47.56867" lon="-2.28358">
        <ele>18.7</ele>
        <time>2025-01-16T10:01:43Z</time>
      </trkpt>
      <trkpt lat="47.56866" lon="-2.28358">
        <ele>18.9</ele>
        <time>2025-01-16T10:01:44Z</time>
      </trkpt>
      <trkpt lat="47.56865" lon="-2.28358">
        <ele>19.1</ele>
        <time>2025-01-16T10:01:45Z</time>
      </trkpt>
      <trkpt lat="47.56864" lon="-2.28358">
        <ele>19.3</ele>
        <time>2025-01-16T10:01:46Z</time>
      </trkpt>
      <trkpt lat="47.56863" lon="-2.28358">
        <ele>19.6</ele>
        <time>2025-01-16T10:01:47Z</time>
      </trkpt>
      <trkpt lat="47.56862" lon="-2.28357">
        <ele>19.5</ele>
        <time>2025-01-16T10:01:48Z</time>
      </trkpt>
      <trkpt lat="47.56861" lon="-2.28357">
        <ele>19.7</ele>
        <time>2025-01-16T10:01:49Z</time>
      </trkpt>
      <trkpt lat="47.56861" lon="-2.28356">
        <ele>19.4</ele>
        <time>2025-01-16T10:01:50Z</time>
      </trkpt>
      <trkpt lat="47.5686" lon="-2.28355">
        <ele>19.5</ele>
        <time>2025-01-16T10:01:51Z</time>
      </trkpt>
      <trkpt lat="47.56859" lon="-2.28354">
        <ele>19.6</ele>
        <time>2025-01-16T10:01:52Z</time>
      </trkpt>
      <trkpt lat="47.56858" lon="-2.28353">
        <ele>19.7</ele>
        <time>2025-01-16T10:01:53Z</time>
      </trkpt>
      <trkpt lat="47.56857" lon="-2.28353">
        <ele>20.1</ele>
        <time>2025-01-16T10:01:54Z</time>
      </trkpt>
      <trkpt lat="47.56856" lon="-2.28351">
        <ele>19.8</ele>
        <time>2025-01-16T10:01:55Z</time>
      </trkpt>
      <trkpt lat="47.56855" lon="-2.28351">
        <ele>20.2</ele>
        <time>2025-01-16T10:01:56Z</time>
      </trkpt>
      <trkpt lat="47.56854" lon="-2.2835">
        <ele>20.3</ele>
        <time>2025-01-16T10:01:57Z</time>
      </trkpt>
      <trkpt lat="47.56853" lon="-2.28348">
        <ele>20</ele>
        <time>2025-01-16T10:01:58Z</time>
      </trkpt>
      <trkpt lat="47.56852" lon="-2.28347">
        <ele>20</ele>
        <time>2025-01-16T10:01:59Z</time>
      </trkpt>
      <trkpt lat="47.56851" lon="-2.28347">
        <ele>20.4</ele>
        <time>2025-01-16T10:02:00Z</time>
      </trkpt>
      <trkpt lat="47.5685" lon="-2.28346">
        <ele>20.5</ele>
        <time>2025-01-16T10:02:01Z</time>
      </trkpt>
      <trkpt lat="47.56849" lon="-2.28346">
        <ele>20.9</ele>
        <time>2025-01-16T10:02:02Z</time>
      </trkpt>
      <trkpt lat="47.56848" lon="-2.28345">
        <ele>20.9</ele>
        <time>2025-01-16T10:02:03Z</time>
      </trkpt>
      <trkpt lat="47.56847" lon="-2.28344">
        <ele>20.9</ele>
        <time>2025-01-16T10:02:04Z</time>
      </trkpt>
      <trkpt lat="47.56846" lon="-2.28343">
        <ele>21</ele>
        <time>2025-01-16T10:02:05Z</time>
      </trkpt>
      <trkpt lat="47.56845" lon="-2.28342">
        <ele>21</ele>
        <time>2025-01-16T10:02:06Z</time>
      </trkpt>
      <trkpt lat="47.56844" lon="-2.28341">
        <ele>21</ele>
        <time>2025-01-16T10:02:07Z</time>
      </trkpt>
      <trkpt lat="47.56843" lon="-2.28341">
        <ele>21.4</ele>
        <time>2025-01-16T10:02:08Z</time>
      </trkpt>
      <trkpt lat="47.56842" lon="-2.2834">
        <ele>21.4</ele>
        <time>2025-01-16T10:02:09Z</time>
      </trkpt>
      <trkpt lat="47.56841" lon="-2.28339">
        <ele>21.4</ele>
        <time>2025-01-16T10:02:10Z</time>
      </trkpt>
      <trkpt lat="47.56841" lon="-2.28338">
        <ele>21</ele>
        <time>2025-01-16T10:02:11Z</time>
      </trkpt>
      <trkpt lat="47.5684" lon="-2.28337">
        <ele>21</ele>
        <time>2025-01-16T10:02:12Z</time>
      </trkpt>
      <trkpt lat="47.5684" lon="-2.28336">
        <ele>20.6</ele>
        <time>2025-01-16T10:02:13Z</time>
      </trkpt>
      <trkpt lat="47.56838" lon="-2.28335">
        <ele>21</ele>
        <time>2025-01-16T10:02:14Z</time>
      </trkpt>
      <trkpt lat="47.56837" lon="-2.28334">
        <ele>20.9</ele>
        <time>2025-01-16T10:02:15Z</time>
      </trkpt>
      <trkpt lat="47.56836" lon="-2.28333">
        <ele>20.9</ele>
        <time>2025-01-16T10:02:16Z</time>
      </trkpt>
      <trkpt lat="47.56835" lon="-2.28332">
        <ele>21</ele>
        <time>2025-01-16T10:02:17Z</time>
      </trkpt>
      <trkpt lat="47.56834" lon="-2.28331">
        <ele>21</ele>
        <time>2025-01-16T10:02:18Z</time>
      </trkpt>
      <trkpt lat="47.56833" lon="-2.28331">
        <ele>21.4</ele>
        <time>2025-01-16T10:02:19Z</time>
      </trkpt>
      <trkpt lat="47.56832" lon="-2.2833">
        <ele>21.5</ele>
        <time>2025-01-16T10:02:20Z</time>
      </trkpt>
      <trkpt lat="47.56831" lon="-2.28329">
        <ele>21.7</ele>
        <time>2025-01-16T10:02:21Z</time>
      </trkpt>
      <trkpt lat="47.56829" lon="-2.28328">
        <ele>22.3</ele>
        <time>2025-01-16T10:02:22Z</time>
      </trkpt>
      <trkpt lat="47.56828" lon="-2.28327">
        <ele>22.5</ele>
        <time>2025-01-16T10:02:23Z</time>
      </trkpt>
      <trkpt lat="47.56828" lon="-2.28327">
        <ele>22.5</ele>
        <time>2025-01-16T10:02:24Z</time>
      </trkpt>
      <trkpt lat="47.56827" lon="-2.28326">
        <ele>22.6</ele>
        <time>2025-01-16T10:02:25Z</time>
      </trkpt>
      <trkpt lat="47.56826" lon="-2.28326">
        <ele>23.1</ele>
        <time>2025-01-16T10:02:26Z</time>
      </trkpt>
      <trkpt lat="47.56825" lon="-2.28325">
        <ele>23.3</ele>
        <time>2025-01-16T10:02:27Z</time>
      </trkpt>
      <trkpt lat="47.56824" lon="-2.28324">
        <ele>23.5</ele>
        <time>2025-01-16T10:02:28Z</time>
      </trkpt>
      <trkpt lat="47.56823" lon="-2.28322">
        <ele>23.3</ele>
        <time>2025-01-16T10:02:29Z</time>
      </trkpt>
      <trkpt lat="47.56823" lon="-2.28321">
        <ele>23</ele>
        <time>2025-01-16T10:02:30Z</time>
      </trkpt>
      <trkpt lat="47.56822" lon="-2.2832">
        <ele>23.2</ele>
        <time>2025-01-16T10:02:31Z</time>
      </trkpt>
      <trkpt lat="47.56821" lon="-2.2832">
        <ele>23.7</ele>
        <time>2025-01-16T10:02:32Z</time>
      </trkpt>
      <trkpt lat="47.56821" lon="-2.2832">
        <ele>23.7</ele>
        <time>2025-01-16T10:02:33Z</time>
      </trkpt>
      <trkpt lat="47.5682" lon="-2.2832">
        <ele>24.2</ele>
        <time>2025-01-16T10:02:34Z</time>
      </trkpt>
      <trkpt lat="47.56819" lon="-2.2832">
        <ele>24.6</ele>
        <time>2025-01-16T10:02:35Z</time>
      </trkpt>
      <trkpt lat="47.56819" lon="-2.28319">
        <ele>24.3</ele>
        <time>2025-01-16T10:02:36Z</time>
      </trkpt>
      <trkpt lat="47.56818" lon="-2.28318">
        <ele>24.5</ele>
        <time>2025-01-16T10:02:37Z</time>
      </trkpt>
      <trkpt lat="47.56817" lon="-2.28317">
        <ele>24.7</ele>
        <time>2025-01-16T10:02:38Z</time>
      </trkpt>
      <trkpt lat="47.56816" lon="-2.28315">
        <ele>24.6</ele>
        <time>2025-01-16T10:02:39Z</time>
      </trkpt>
      <trkpt lat="47.56816" lon="-2.28314">
        <ele>24.3</ele>
        <time>2025-01-16T10:02:40Z</time>
      </trkpt>
      <trkpt lat="47.56815" lon="-2.28312">
        <ele>24.2</ele>
        <time>2025-01-16T10:02:41Z</time>
      </trkpt>
      <trkpt lat="47.56815" lon="-2.28311">
        <ele>23.9</ele>
        <time>2025-01-16T10:02:42Z</time>
      </trkpt>
      <trkpt lat="47.56814" lon="-2.28309">
        <ele>23.8</ele>
        <time>2025-01-16T10:02:43Z</time>
      </trkpt>
      <trkpt lat="47.56813" lon="-2.28308">
        <ele>24</ele>
        <time>2025-01-16T10:02:44Z</time>
      </trkpt>
      <trkpt lat="47.56813" lon="-2.28307">
        <ele>23.7</ele>
        <time>2025-01-16T10:02:45Z</time>
      </trkpt>
      <trkpt lat="47.56813" lon="-2.28306">
        <ele>23.4</ele>
        <time>2025-01-16T10:02:46Z</time>
      </trkpt>
      <trkpt lat="47.56812" lon="-2.28304">
        <ele>23.3</ele>
        <time>2025-01-16T10:02:47Z</time>
      </trkpt>
      <trkpt lat="47.56811" lon="-2.28303">
        <ele>23.6</ele>
        <time>2025-01-16T10:02:48Z</time>
      </trkpt>
      <trkpt lat="47.5681" lon="-2.28302">
        <ele>23.8</ele>
        <time>2025-01-16T10:02:49Z</time>
      </trkpt>
      <trkpt lat="47.5681" lon="-2.28301">
        <ele>23.5</ele>
        <time>2025-01-16T10:02:50Z</time>
      </trkpt>
      <trkpt lat="47.56809" lon="-2.283">
        <ele>23.8</ele>
        <time>2025-01-16T10:02:51Z</time>
      </trkpt>
      <trkpt lat="47.56808" lon="-2.28299">
        <ele>24.1</ele>
        <time>2025-01-16T10:02:52Z</time>
      </trkpt>
      <trkpt lat="47.56807" lon="-2.28298">
        <ele>24.3</ele>
        <time>2025-01-16T10:02:53Z</time>
      </trkpt>
      <trkpt lat="47.56806" lon="-2.28297">
        <ele>24.6</ele>
        <time>2025-01-16T10:02:54Z</time>
      </trkpt>
      <trkpt lat="47.56805" lon="-2.28296">
        <ele>24.8</ele>
        <time>2025-01-16T10:02:55Z</time>
      </trkpt>
      <trkpt lat="47.56805" lon="-2.28295">
        <ele>24.6</ele>
        <time>2025-01-16T10:02:56Z</time>
      </trkpt>
      <trkpt lat="47.56804" lon="-2.28294">
        <ele>24.7</ele>
        <time>2025-01-16T10:02:57Z</time>
      </trkpt>
      <trkpt lat="47.56803" lon="-2.28293">
        <ele>24.8</ele>
        <time>2025-01-16T10:02:58Z</time>
      </trkpt>
      <trkpt lat="47.56803" lon="-2.28292">
        <ele>24.6</ele>
        <time>2025-01-16T10:02:59Z</time>
      </trkpt>
      <trkpt lat="47.56802" lon="-2.28292">
        <ele>25</ele>
        <time>2025-01-16T10:03:00Z</time>
      </trkpt>
      <trkpt lat="47.56802" lon="-2.28291">
        <ele>24.7</ele>
        <time>2025-01-16T10:03:01Z</time>
      </trkpt>
      <trkpt lat="47.56801" lon="-2.28291">
        <ele>25.1</ele>
        <time>2025-01-16T10:03:02Z</time>
      </trkpt>
      <trkpt lat="47.568" lon="-2.2829">
        <ele>25.3</ele>
        <time>2025-01-16T10:03:03Z</time>
      </trkpt>
      <trkpt lat="47.56799" lon="-2.28289">
        <ele>25.4</ele>
        <time>2025-01-16T10:03:04Z</time>
      </trkpt>
      <trkpt lat="47.56797" lon="-2.28288">
        <ele>26</ele>
        <time>2025-01-16T10:03:05Z</time>
      </trkpt>
      <trkpt lat="47.56796" lon="-2.28287">
        <ele>26.1</ele>
        <time>2025-01-16T10:03:06Z</time>
      </trkpt>
      <trkpt lat="47.56795" lon="-2.28286">
        <ele>26.3</ele>
        <time>2025-01-16T10:03:07Z</time>
      </trkpt>
      <trkpt lat="47.56795" lon="-2.28284">
        <ele>25.7</ele>
        <time>2025-01-16T10:03:08Z</time>
      </trkpt>
      <trkpt lat="47.56794" lon="-2.28283">
        <ele>25.9</ele>
        <time>2025-01-16T10:03:09Z</time>
      </trkpt>
      <trkpt lat="47.56793" lon="-2.28282">
        <ele>26</ele>
        <time>2025-01-16T10:03:10Z</time>
      </trkpt>
      <trkpt lat="47.56793" lon="-2.28281">
        <ele>25.8</ele>
        <time>2025-01-16T10:03:11Z</time>
      </trkpt>
      <trkpt lat="47.56792" lon="-2.2828">
        <ele>25.9</ele>
        <time>2025-01-16T10:03:12Z</time>
      </trkpt>
      <trkpt lat="47.56791" lon="-2.28279">
        <ele>26.1</ele>
        <time>2025-01-16T10:03:13Z</time>
      </trkpt>
      <trkpt lat="47.5679" lon="-2.28278">
        <ele>26.2</ele>
        <time>2025-01-16T10:03:14Z</time>
      </trkpt>
      <trkpt lat="47.56789" lon="-2.28277">
        <ele>26.4</ele>
        <time>2025-01-16T10:03:15Z</time>
      </trkpt>
      <trkpt lat="47.56788" lon="-2.28276">
        <ele>26.5</ele>
        <time>2025-01-16T10:03:16Z</time>
      </trkpt>
      <trkpt lat="47.56788" lon="-2.28275">
        <ele>26.3</ele>
        <time>2025-01-16T10:03:17Z</time>
      </trkpt>
      <trkpt lat="47.56788" lon="-2.28274">
        <ele>26.1</ele>
        <time>2025-01-16T10:03:18Z</time>
      </trkpt>
      <trkpt lat="47.56787" lon="-2.28273">
        <ele>26.2</ele>
        <time>2025-01-16T10:03:19Z</time>
      </trkpt>
      <trkpt lat="47.56786" lon="-2.28273">
        <ele>26.6</ele>
        <time>2025-01-16T10:03:20Z</time>
      </trkpt>
      <trkpt lat="47.56786" lon="-2.28272">
        <ele>26.3</ele>
        <time>2025-01-16T10:03:21Z</time>
      </trkpt>
      <trkpt lat="47.56785" lon="-2.28272">
        <ele>26.7</ele>
        <time>2025-01-16T10:03:22Z</time>
      </trkpt>
      <trkpt lat="47.56785" lon="-2.28271">
        <ele>26.5</ele>
        <time>2025-01-16T10:03:23Z</time>
      </trkpt>
      <trkpt lat="47.56784" lon="-2.28271">
        <ele>26.9</ele>
        <time>2025-01-16T10:03:24Z</time>
      </trkpt>
      <trkpt lat="47.56783" lon="-2.2827">
        <ele>27</ele>
        <time>2025-01-16T10:03:25Z</time>
      </trkpt>
      <trkpt lat="47.56782" lon="-2.2827">
        <ele>27.4</ele>
        <time>2025-01-16T10:03:26Z</time>
      </trkpt>
      <trkpt lat="47.56781" lon="-2.28269">
        <ele>27.5</ele>
        <time>2025-01-16T10:03:27Z</time>
      </trkpt>
      <trkpt lat="47.56779" lon="-2.28269">
        <ele>28.3</ele>
        <time>2025-01-16T10:03:28Z</time>
      </trkpt>
      <trkpt lat="47.56778" lon="-2.28269">
        <ele>28.7</ele>
        <time>2025-01-16T10:03:29Z</time>
      </trkpt>
      <trkpt lat="47.56777" lon="-2.28269">
        <ele>28.7</ele>
        <time>2025-01-16T10:03:30Z</time>
      </trkpt>
      <trkpt lat="47.56776" lon="-2.28269">
        <ele>28.6</ele>
        <time>2025-01-16T10:03:31Z</time>
      </trkpt>
      <trkpt lat="47.56775" lon="-2.28269">
        <ele>28.6</ele>
        <time>2025-01-16T10:03:32Z</time>
      </trkpt>
      <trkpt lat="47.56773" lon="-2.28269">
        <ele>28.4</ele>
        <time>2025-01-16T10:03:33Z</time>
      </trkpt>
      <trkpt lat="47.56772" lon="-2.28269">
        <ele>28.3</ele>
        <time>2025-01-16T10:03:34Z</time>
      </trkpt>
      <trkpt lat="47.56771" lon="-2.28268">
        <ele>28</ele>
        <time>2025-01-16T10:03:35Z</time>
      </trkpt>
      <trkpt lat="47.5677" lon="-2.28268">
        <ele>27.9</ele>
        <time>2025-01-16T10:03:36Z</time>
      </trkpt>
      <trkpt lat="47.56769" lon="-2.28268">
        <ele>27.8</ele>
        <time>2025-01-16T10:03:37Z</time>
      </trkpt>
      <trkpt lat="47.56768" lon="-2.28268">
        <ele>27.7</ele>
        <time>2025-01-16T10:03:38Z</time>
      </trkpt>
      <trkpt lat="47.56767" lon="-2.28269">
        <ele>27.9</ele>
        <time>2025-01-16T10:03:39Z</time>
      </trkpt>
      <trkpt lat="47.56766" lon="-2.28269">
        <ele>27.8</ele>
        <time>2025-01-16T10:03:40Z</time>
      </trkpt>
      <trkpt lat="47.56765" lon="-2.2827">
        <ele>28</ele>
        <time>2025-01-16T10:03:41Z</time>
      </trkpt>
      <trkpt lat="47.56765" lon="-2.28271">
        <ele>28.3</ele>
        <time>2025-01-16T10:03:42Z</time>
      </trkpt>
      <trkpt lat="47.56765" lon="-2.28271">
        <ele>28.3</ele>
        <time>2025-01-16T10:03:43Z</time>
      </trkpt>
      <trkpt lat="47.56764" lon="-2.28272">
        <ele>28.4</ele>
        <time>2025-01-16T10:03:44Z</time>
      </trkpt>
      <trkpt lat="47.56763" lon="-2.28272">
        <ele>28.4</ele>
        <time>2025-01-16T10:03:45Z</time>
      </trkpt>
      <trkpt lat="47.56762" lon="-2.28272">
        <ele>28.3</ele>
        <time>2025-01-16T10:03:46Z</time>
      </trkpt>
      <trkpt lat="47.56761" lon="-2.28273">
        <ele>28.5</ele>
        <time>2025-01-16T10:03:47Z</time>
      </trkpt>
      <trkpt lat="47.5676" lon="-2.28273">
        <ele>28.4</ele>
        <time>2025-01-16T10:03:48Z</time>
      </trkpt>
      <trkpt lat="47.56759" lon="-2.28273">
        <ele>28.3</ele>
        <time>2025-01-16T10:03:49Z</time>
      </trkpt>
      <trkpt lat="47.56758" lon="-2.28273">
        <ele>28.2</ele>
        <time>2025-01-16T10:03:50Z</time>
      </trkpt>
      <trkpt lat="47.56757" lon="-2.28272">
        <ele>27.9</ele>
        <time>2025-01-16T10:03:51Z</time>
      </trkpt>
      <trkpt lat="47.56756" lon="-2.28272">
        <ele>27.8</ele>
        <time>2025-01-16T10:03:52Z</time>
      </trkpt>
      <trkpt lat="47.56755" lon="-2.28272">
        <ele>27.7</ele>
        <time>2025-01-16T10:03:53Z</time>
      </trkpt>
      <trkpt lat="47.56754" lon="-2.28273">
        <ele>27.9</ele>
        <time>2025-01-16T10:03:54Z</time>
      </trkpt>
      <trkpt lat="47.56752" lon="-2.28274">
        <ele>28.1</ele>
        <time>2025-01-16T10:03:55Z</time>
      </trkpt>
      <trkpt lat="47.5675" lon="-2.28274">
        <ele>27.9</ele>
        <time>2025-01-16T10:03:56Z</time>
      </trkpt>
      <trkpt lat="47.56749" lon="-2.28275">
        <ele>28.2</ele>
        <time>2025-01-16T10:03:57Z</time>
      </trkpt>
      <trkpt lat="47.56748" lon="-2.28275">
        <ele>28.1</ele>
        <time>2025-01-16T10:03:58Z</time>
      </trkpt>
      <trkpt lat="47.56747" lon="-2.28275">
        <ele>28.1</ele>
        <time>2025-01-16T10:03:59Z</time>
      </trkpt>
      <trkpt lat="47.56745" lon="-2.28276">
        <ele>28.3</ele>
        <time>2025-01-16T10:04:00Z</time>
      </trkpt>
      <trkpt lat="47.56744" lon="-2.28277">
        <ele>28.6</ele>
        <time>2025-01-16T10:04:01Z</time>
      </trkpt>
      <trkpt lat="47.56743" lon="-2.28277">
        <ele>28.5</ele>
        <time>2025-01-16T10:04:02Z</time>
      </trkpt>
      <trkpt lat="47.56742" lon="-2.28278">
        <ele>28.8</ele>
        <time>2025-01-16T10:04:03Z</time>
      </trkpt>
      <trkpt lat="47.56741" lon="-2.28279">
        <ele>29</ele>
        <time>2025-01-16T10:04:04Z</time>
      </trkpt>
      <trkpt lat="47.56739" lon="-2.2828">
        <ele>29.2</ele>
        <time>2025-01-16T10:04:05Z</time>
      </trkpt>
      <trkpt lat="47.56738" lon="-2.28281">
        <ele>29.4</ele>
        <time>2025-01-16T10:04:06Z</time>
      </trkpt>
      <trkpt lat="47.56737" lon="-2.28283">
        <ele>29.9</ele>
        <time>2025-01-16T10:04:07Z</time>
      </trkpt>
      <trkpt lat="47.56736" lon="-2.28284">
        <ele>30.2</ele>
        <time>2025-01-16T10:04:08Z</time>
      </trkpt>
      <trkpt lat="47.56735" lon="-2.28285">
        <ele>30.4</ele>
        <time>2025-01-16T10:04:09Z</time>
      </trkpt>
      <trkpt lat="47.56734" lon="-2.28285">
        <ele>30.4</ele>
        <time>2025-01-16T10:04:10Z</time>
      </trkpt>
      <trkpt lat="47.56733" lon="-2.28286">
        <ele>30.6</ele>
        <time>2025-01-16T10:04:11Z</time>
      </trkpt>
      <trkpt lat="47.56732" lon="-2.28286">
        <ele>30.5</ele>
        <time>2025-01-16T10:04:12Z</time>
      </trkpt>
      <trkpt lat="47.5673" lon="-2.28287">
        <ele>30.7</ele>
        <time>2025-01-16T10:04:13Z</time>
      </trkpt>
      <trkpt lat="47.56729" lon="-2.28288">
        <ele>30.9</ele>
        <time>2025-01-16T10:04:14Z</time>
      </trkpt>
      <trkpt lat="47.56728" lon="-2.28289">
        <ele>31.1</ele>
        <time>2025-01-16T10:04:15Z</time>
      </trkpt>
      <trkpt lat="47.56727" lon="-2.2829">
        <ele>31.3</ele>
        <time>2025-01-16T10:04:16Z</time>
      </trkpt>
      <trkpt lat="47.56726" lon="-2.2829">
        <ele>31.3</ele>
        <time>2025-01-16T10:04:17Z</time>
      </trkpt>
      <trkpt lat="47.56725" lon="-2.28291">
        <ele>31.5</ele>
        <time>2025-01-16T10:04:18Z</time>
      </trkpt>
      <trkpt lat="47.56724" lon="-2.28292">
        <ele>31.7</ele>
        <time>2025-01-16T10:04:19Z</time>
      </trkpt>
      <trkpt lat="47.56723" lon="-2.28292">
        <ele>31.6</ele>
        <time>2025-01-16T10:04:20Z</time>
      </trkpt>
      <trkpt lat="47.56722" lon="-2.28292">
        <ele>31.6</ele>
        <time>2025-01-16T10:04:21Z</time>
      </trkpt>
      <trkpt lat="47.56722" lon="-2.28293">
        <ele>31.8</ele>
        <time>2025-01-16T10:04:22Z</time>
      </trkpt>
      <trkpt lat="47.56721" lon="-2.28292">
        <ele>31.5</ele>
        <time>2025-01-16T10:04:23Z</time>
      </trkpt>
      <trkpt lat="47.56721" lon="-2.28292">
        <ele>31.5</ele>
        <time>2025-01-16T10:04:24Z</time>
      </trkpt>
      <trkpt lat="47.5672" lon="-2.28292">
        <ele>31.5</ele>
        <time>2025-01-16T10:04:25Z</time>
      </trkpt>
      <trkpt lat="47.56719" lon="-2.28292">
        <ele>31.4</ele>
        <time>2025-01-16T10:04:26Z</time>
      </trkpt>
      <trkpt lat="47.56718" lon="-2.28292">
        <ele>31.4</ele>
        <time>2025-01-16T10:04:27Z</time>
      </trkpt>
      <trkpt lat="47.56717" lon="-2.28293">
        <ele>31.5</ele>
        <time>2025-01-16T10:04:28Z</time>
      </trkpt>
      <trkpt lat="47.56716" lon="-2.28293">
        <ele>31.5</ele>
        <time>2025-01-16T10:04:29Z</time>
      </trkpt>
      <trkpt lat="47.56715" lon="-2.28294">
        <ele>31.7</ele>
        <time>2025-01-16T10:04:30Z</time>
      </trkpt>
      <trkpt lat="47.56714" lon="-2.28294">
        <ele>31.6</ele>
        <time>2025-01-16T10:04:31Z</time>
      </trkpt>
      <trkpt lat="47.56713" lon="-2.28295">
        <ele>31.8</ele>
        <time>2025-01-16T10:04:32Z</time>
      </trkpt>
      <trkpt lat="47.56712" lon="-2.28295">
        <ele>31.7</ele>
        <time>2025-01-16T10:04:33Z</time>
      </trkpt>
      <trkpt lat="47.56711" lon="-2.28295">
        <ele>31.7</ele>
        <time>2025-01-16T10:04:34Z</time>
      </trkpt>
      <trkpt lat="47.56711" lon="-2.28296">
        <ele>31.9</ele>
        <time>2025-01-16T10:04:35Z</time>
      </trkpt>
      <trkpt lat="47.56709" lon="-2.28297">
        <ele>32</ele>
        <time>2025-01-16T10:04:36Z</time>
      </trkpt>
      <trkpt lat="47.56708" lon="-2.28297">
        <ele>32</ele>
        <time>2025-01-16T10:04:37Z</time>
      </trkpt>
      <trkpt lat="47.56706" lon="-2.28298">
        <ele>32.1</ele>
        <time>2025-01-16T10:04:38Z</time>
      </trkpt>
      <trkpt lat="47.56705" lon="-2.28298">
        <ele>32</ele>
        <time>2025-01-16T10:04:39Z</time>
      </trkpt>
      <trkpt lat="47.56704" lon="-2.28299">
        <ele>32.2</ele>
        <time>2025-01-16T10:04:40Z</time>
      </trkpt>
      <trkpt lat="47.56702" lon="-2.283">
        <ele>32.3</ele>
        <time>2025-01-16T10:04:41Z</time>
      </trkpt>
      <trkpt lat="47.56701" lon="-2.28301">
        <ele>32.4</ele>
        <time>2025-01-16T10:04:42Z</time>
      </trkpt>
      <trkpt lat="47.567" lon="-2.28303">
        <ele>32.8</ele>
        <time>2025-01-16T10:04:43Z</time>
      </trkpt>
      <trkpt lat="47.56698" lon="-2.28304">
        <ele>32.9</ele>
        <time>2025-01-16T10:04:44Z</time>
      </trkpt>
      <trkpt lat="47.56697" lon="-2.28305">
        <ele>33.1</ele>
        <time>2025-01-16T10:04:45Z</time>
      </trkpt>
      <trkpt lat="47.56696" lon="-2.28305">
        <ele>33</ele>
        <time>2025-01-16T10:04:46Z</time>
      </trkpt>
      <trkpt lat="47.56695" lon="-2.28306">
        <ele>33.1</ele>
        <time>2025-01-16T10:04:47Z</time>
      </trkpt>
      <trkpt lat="47.56694" lon="-2.28306">
        <ele>33.1</ele>
        <time>2025-01-16T10:04:48Z</time>
      </trkpt>
      <trkpt lat="47.56693" lon="-2.28306">
        <ele>33.1</ele>
        <time>2025-01-16T10:04:49Z</time>
      </trkpt>
      <trkpt lat="47.56692" lon="-2.28307">
        <ele>33.2</ele>
        <time>2025-01-16T10:04:50Z</time>
      </trkpt>
      <trkpt lat="47.56692" lon="-2.28307">
        <ele>33.2</ele>
        <time>2025-01-16T10:04:51Z</time>
      </trkpt>
      <trkpt lat="47.56691" lon="-2.28308">
        <ele>33.4</ele>
        <time>2025-01-16T10:04:52Z</time>
      </trkpt>
      <trkpt lat="47.5669" lon="-2.28308">
        <ele>33.4</ele>
        <time>2025-01-16T10:04:53Z</time>
      </trkpt>
      <trkpt lat="47.56689" lon="-2.28308">
        <ele>33.5</ele>
        <time>2025-01-16T10:04:54Z</time>
      </trkpt>
      <trkpt lat="47.56688" lon="-2.28309">
        <ele>33.6</ele>
        <time>2025-01-16T10:04:55Z</time>
      </trkpt>
      <trkpt lat="47.56687" lon="-2.28308">
        <ele>33.5</ele>
        <time>2025-01-16T10:04:56Z</time>
      </trkpt>
      <trkpt lat="47.56685" lon="-2.28308">
        <ele>33.6</ele>
        <time>2025-01-16T10:04:57Z</time>
      </trkpt>
      <trkpt lat="47.56684" lon="-2.28308">
        <ele>33.6</ele>
        <time>2025-01-16T10:04:58Z</time>
      </trkpt>
      <trkpt lat="47.56683" lon="-2.28307">
        <ele>33.6</ele>
        <time>2025-01-16T10:04:59Z</time>
      </trkpt>
      <trkpt lat="47.56682" lon="-2.28307">
        <ele>33.6</ele>
        <time>2025-01-16T10:05:00Z</time>
      </trkpt>
      <trkpt lat="47.5668" lon="-2.28306">
        <ele>33.6</ele>
        <time>2025-01-16T10:05:01Z</time>
      </trkpt>
      <trkpt lat="47.56679" lon="-2.28305">
        <ele>33.5</ele>
        <time>2025-01-16T10:05:02Z</time>
      </trkpt>
      <trkpt lat="47.56678" lon="-2.28304">
        <ele>33.4</ele>
        <time>2025-01-16T10:05:03Z</time>
      </trkpt>
      <trkpt lat="47.56677" lon="-2.28303">
        <ele>33.3</ele>
        <time>2025-01-16T10:05:04Z</time>
      </trkpt>
      <trkpt lat="47.56676" lon="-2.28302">
        <ele>33.2</ele>
        <time>2025-01-16T10:05:05Z</time>
      </trkpt>
      <trkpt lat="47.56675" lon="-2.28302">
        <ele>33.3</ele>
        <time>2025-01-16T10:05:06Z</time>
      </trkpt>
      <trkpt lat="47.56674" lon="-2.28301">
        <ele>33.2</ele>
        <time>2025-01-16T10:05:07Z</time>
      </trkpt>
      <trkpt lat="47.56674" lon="-2.283">
        <ele>33.1</ele>
        <time>2025-01-16T10:05:08Z</time>
      </trkpt>
      <trkpt lat="47.56674" lon="-2.283">
        <ele>33.1</ele>
        <time>2025-01-16T10:05:09Z</time>
      </trkpt>
      <trkpt lat="47.56673" lon="-2.283">
        <ele>33.2</ele>
        <time>2025-01-16T10:05:10Z</time>
      </trkpt>
      <trkpt lat="47.56672" lon="-2.28299">
        <ele>33.2</ele>
        <time>2025-01-16T10:05:11Z</time>
      </trkpt>
      <trkpt lat="47.56671" lon="-2.28299">
        <ele>33.2</ele>
        <time>2025-01-16T10:05:12Z</time>
      </trkpt>
      <trkpt lat="47.5667" lon="-2.28299">
        <ele>33.3</ele>
        <time>2025-01-16T10:05:13Z</time>
      </trkpt>
      <trkpt lat="47.56669" lon="-2.283">
        <ele>33.4</ele>
        <time>2025-01-16T10:05:14Z</time>
      </trkpt>
      <trkpt lat="47.56668" lon="-2.283">
        <ele>33.5</ele>
        <time>2025-01-16T10:05:15Z</time>
      </trkpt>
      <trkpt lat="47.56667" lon="-2.283">
        <ele>33.6</ele>
        <time>2025-01-16T10:05:16Z</time>
      </trkpt>
      <trkpt lat="47.56665" lon="-2.283">
        <ele>33.7</ele>
        <time>2025-01-16T10:05:17Z</time>
      </trkpt>
      <trkpt lat="47.56664" lon="-2.283">
        <ele>33.7</ele>
        <time>2025-01-16T10:05:18Z</time>
      </trkpt>
      <trkpt lat="47.56663" lon="-2.283">
        <ele>33.8</ele>
        <time>2025-01-16T10:05:19Z</time>
      </trkpt>
      <trkpt lat="47.56661" lon="-2.283">
        <ele>33.8</ele>
        <time>2025-01-16T10:05:20Z</time>
      </trkpt>
      <trkpt lat="47.5666" lon="-2.283">
        <ele>33.9</ele>
        <time>2025-01-16T10:05:21Z</time>
      </trkpt>
      <trkpt lat="47.56659" lon="-2.283">
        <ele>33.9</ele>
        <time>2025-01-16T10:05:22Z</time>
      </trkpt>
      <trkpt lat="47.56657" lon="-2.28301">
        <ele>34.1</ele>
        <time>2025-01-16T10:05:23Z</time>
      </trkpt>
      <trkpt lat="47.56656" lon="-2.28301">
        <ele>34.1</ele>
        <time>2025-01-16T10:05:24Z</time>
      </trkpt>
      <trkpt lat="47.56654" lon="-2.28301">
        <ele>34.2</ele>
        <time>2025-01-16T10:05:25Z</time>
      </trkpt>
      <trkpt lat="47.56653" lon="-2.28301">
        <ele>34.2</ele>
        <time>2025-01-16T10:05:26Z</time>
      </trkpt>
      <trkpt lat="47.56651" lon="-2.28302">
        <ele>34.4</ele>
        <time>2025-01-16T10:05:27Z</time>
      </trkpt>
      <trkpt lat="47.5665" lon="-2.28302">
        <ele>34.4</ele>
        <time>2025-01-16T10:05:28Z</time>
      </trkpt>
      <trkpt lat="47.56649" lon="-2.28303">
        <ele>34.5</ele>
        <time>2025-01-16T10:05:29Z</time>
      </trkpt>
      <trkpt lat="47.56648" lon="-2.28303">
        <ele>34.5</ele>
        <time>2025-01-16T10:05:30Z</time>
      </trkpt>
      <trkpt lat="47.56647" lon="-2.28304">
        <ele>34.6</ele>
        <time>2025-01-16T10:05:31Z</time>
      </trkpt>
      <trkpt lat="47.56646" lon="-2.28305">
        <ele>34.7</ele>
        <time>2025-01-16T10:05:32Z</time>
      </trkpt>
      <trkpt lat="47.56645" lon="-2.28306">
        <ele>34.8</ele>
        <time>2025-01-16T10:05:33Z</time>
      </trkpt>
      <trkpt lat="47.56644" lon="-2.28307">
        <ele>34.9</ele>
        <time>2025-01-16T10:05:34Z</time>
      </trkpt>
      <trkpt lat="47.56644" lon="-2.28308">
        <ele>34.9</ele>
        <time>2025-01-16T10:05:35Z</time>
      </trkpt>
      <trkpt lat="47.56643" lon="-2.28309">
        <ele>35</ele>
        <time>2025-01-16T10:05:36Z</time>
      </trkpt>
      <trkpt lat="47.56642" lon="-2.28309">
        <ele>35</ele>
        <time>2025-01-16T10:05:37Z</time>
      </trkpt>
      <trkpt lat="47.56642" lon="-2.2831">
        <ele>35.1</ele>
        <time>2025-01-16T10:05:38Z</time>
      </trkpt>
      <trkpt lat="47.56642" lon="-2.2831">
        <ele>35.1</ele>
        <time>2025-01-16T10:05:39Z</time>
      </trkpt>
      <trkpt lat="47.56642" lon="-2.28309">
        <ele>35</ele>
        <time>2025-01-16T10:05:40Z</time>
      </trkpt>
      <trkpt lat="47.56642" lon="-2.28309">
        <ele>35</ele>
        <time>2025-01-16T10:05:41Z</time>
      </trkpt>
      <trkpt lat="47.56641" lon="-2.28309">
        <ele>35.1</ele>
        <time>2025-01-16T10:05:42Z</time>
      </trkpt>
      <trkpt lat="47.56641" lon="-2.2831">
        <ele>35.1</ele>
        <time>2025-01-16T10:05:43Z</time>
      </trkpt>
      <trkpt lat="47.5664" lon="-2.2831">
        <ele>35.1</ele>
        <time>2025-01-16T10:05:44Z</time>
      </trkpt>
      <trkpt lat="47.56639" lon="-2.28311">
        <ele>35.2</ele>
        <time>2025-01-16T10:05:45Z</time>
      </trkpt>
      <trkpt lat="47.56638" lon="-2.28311">
        <ele>35.1</ele>
        <time>2025-01-16T10:05:46Z</time>
      </trkpt>
      <trkpt lat="47.56637" lon="-2.28311">
        <ele>35</ele>
        <time>2025-01-16T10:05:47Z</time>
      </trkpt>
      <trkpt lat="47.56636" lon="-2.28311">
        <ele>34.8</ele>
        <time>2025-01-16T10:05:48Z</time>
      </trkpt>
      <trkpt lat="47.56636" lon="-2.28311">
        <ele>34.8</ele>
        <time>2025-01-16T10:05:49Z</time>
      </trkpt>
      <trkpt lat="47.56635" lon="-2.2831">
        <ele>34.7</ele>
        <time>2025-01-16T10:05:50Z</time>
      </trkpt>
      <trkpt lat="47.56634" lon="-2.2831">
        <ele>34.6</ele>
        <time>2025-01-16T10:05:51Z</time>
      </trkpt>
      <trkpt lat="47.56633" lon="-2.28309">
        <ele>34.4</ele>
        <time>2025-01-16T10:05:52Z</time>
      </trkpt>
      <trkpt lat="47.56633" lon="-2.28308">
        <ele>34.4</ele>
        <time>2025-01-16T10:05:53Z</time>
      </trkpt>
      <trkpt lat="47.56632" lon="-2.28308">
        <ele>34.3</ele>
        <time>2025-01-16T10:05:54Z</time>
      </trkpt>
      <trkpt lat="47.56632" lon="-2.28308">
        <ele>34.3</ele>
        <time>2025-01-16T10:05:55Z</time>
      </trkpt>
      <trkpt lat="47.56632" lon="-2.28308">
        <ele>34.3</ele>
        <time>2025-01-16T10:05:56Z</time>
      </trkpt>
      <trkpt lat="47.56632" lon="-2.28308">
        <ele>34.3</ele>
        <time>2025-01-16T10:05:57Z</time>
      </trkpt>
      <trkpt lat="47.56632" lon="-2.28308">
        <ele>34.3</ele>
        <time>2025-01-16T10:05:58Z</time>
      </trkpt>
      <trkpt lat="47.56632" lon="-2.28308">
        <ele>34.3</ele>
        <time>2025-01-16T10:05:59Z</time>
      </trkpt>
      <trkpt lat="47.56632" lon="-2.28308">
        <ele>34.3</ele>
        <time>2025-01-16T10:06:00Z</time>
      </trkpt>
      <trkpt lat="47.56632" lon="-2.28308">
        <ele>34.3</ele>
        <time>2025-01-16T10:06:01Z</time>
      </trkpt>
      <trkpt lat="47.56631" lon="-2.28308">
        <ele>34.2</ele>
        <time>2025-01-16T10:06:02Z</time>
      </trkpt>
      <trkpt lat="47.56631" lon="-2.28307">
        <ele>34.2</ele>
        <time>2025-01-16T10:06:03Z</time>
      </trkpt>
      <trkpt lat="47.5663" lon="-2.28307">
        <ele>34.1</ele>
        <time>2025-01-16T10:06:04Z</time>
      </trkpt>
      <trkpt lat="47.5663" lon="-2.28306">
        <ele>34</ele>
        <time>2025-01-16T10:06:05Z</time>
      </trkpt>
      <trkpt lat="47.56629" lon="-2.28305">
        <ele>33.9</ele>
        <time>2025-01-16T10:06:06Z</time>
      </trkpt>
      <trkpt lat="47.56629" lon="-2.28305">
        <ele>33.9</ele>
        <time>2025-01-16T10:06:07Z</time>
      </trkpt>
      <trkpt lat="47.56628" lon="-2.28304">
        <ele>33.8</ele>
        <time>2025-01-16T10:06:08Z</time>
      </trkpt>
      <trkpt lat="47.56628" lon="-2.28303">
        <ele>33.8</ele>
        <time>2025-01-16T10:06:09Z</time>
      </trkpt>
      <trkpt lat="47.56627" lon="-2.28303">
        <ele>33.7</ele>
        <time>2025-01-16T10:06:10Z</time>
      </trkpt>
      <trkpt lat="47.56626" lon="-2.28302">
        <ele>33.5</ele>
        <time>2025-01-16T10:06:11Z</time>
      </trkpt>
      <trkpt lat="47.56625" lon="-2.28301">
        <ele>33.4</ele>
        <time>2025-01-16T10:06:12Z</time>
      </trkpt>
      <trkpt lat="47.56624" lon="-2.28301">
        <ele>33.3</ele>
        <time>2025-01-16T10:06:13Z</time>
      </trkpt>
      <trkpt lat="47.56623" lon="-2.28299">
        <ele>33.2</ele>
        <time>2025-01-16T10:06:14Z</time>
      </trkpt>
      <trkpt lat="47.56622" lon="-2.28299">
        <ele>33.1</ele>
        <time>2025-01-16T10:06:15Z</time>
      </trkpt>
      <trkpt lat="47.56621" lon="-2.28298">
        <ele>33</ele>
        <time>2025-01-16T10:06:16Z</time>
      </trkpt>
      <trkpt lat="47.5662" lon="-2.28297">
        <ele>32.9</ele>
        <time>2025-01-16T10:06:17Z</time>
      </trkpt>
      <trkpt lat="47.56619" lon="-2.28296">
        <ele>32.8</ele>
        <time>2025-01-16T10:06:18Z</time>
      </trkpt>
      <trkpt lat="47.56619" lon="-2.28295">
        <ele>32.7</ele>
        <time>2025-01-16T10:06:19Z</time>
      </trkpt>
      <trkpt lat="47.56619" lon="-2.28294">
        <ele>32.7</ele>
        <time>2025-01-16T10:06:20Z</time>
      </trkpt>
      <trkpt lat="47.56619" lon="-2.28293">
        <ele>32.7</ele>
        <time>2025-01-16T10:06:21Z</time>
      </trkpt>
      <trkpt lat="47.56618" lon="-2.28292">
        <ele>32.6</ele>
        <time>2025-01-16T10:06:22Z</time>
      </trkpt>
      <trkpt lat="47.56618" lon="-2.28291">
        <ele>32.6</ele>
        <time>2025-01-16T10:06:23Z</time>
      </trkpt>
      <trkpt lat="47.56617" lon="-2.2829">
        <ele>32.5</ele>
        <time>2025-01-16T10:06:24Z</time>
      </trkpt>
      <trkpt lat="47.56616" lon="-2.2829">
        <ele>32.4</ele>
        <time>2025-01-16T10:06:25Z</time>
      </trkpt>
      <trkpt lat="47.56615" lon="-2.28289">
        <ele>32.3</ele>
        <time>2025-01-16T10:06:26Z</time>
      </trkpt>
      <trkpt lat="47.56614" lon="-2.28288">
        <ele>32.2</ele>
        <time>2025-01-16T10:06:27Z</time>
      </trkpt>
      <trkpt lat="47.56614" lon="-2.28287">
        <ele>32.2</ele>
        <time>2025-01-16T10:06:28Z</time>
      </trkpt>
      <trkpt lat="47.56613" lon="-2.28286">
        <ele>32.2</ele>
        <time>2025-01-16T10:06:29Z</time>
      </trkpt>
      <trkpt lat="47.56613" lon="-2.28286">
        <ele>32.2</ele>
        <time>2025-01-16T10:06:30Z</time>
      </trkpt>
      <trkpt lat="47.56613" lon="-2.28286">
        <ele>32.2</ele>
        <time>2025-01-16T10:06:31Z</time>
      </trkpt>
      <trkpt lat="47.56613" lon="-2.28285">
        <ele>32.2</ele>
        <time>2025-01-16T10:06:32Z</time>
      </trkpt>
      <trkpt lat="47.56613" lon="-2.28285">
        <ele>32.2</ele>
        <time>2025-01-16T10:06:33Z</time>
      </trkpt>
      <trkpt lat="47.56612" lon="-2.28285">
        <ele>32.1</ele>
        <time>2025-01-16T10:06:34Z</time>
      </trkpt>
      <trkpt lat="47.56612" lon="-2.28284">
        <ele>32.1</ele>
        <time>2025-01-16T10:06:35Z</time>
      </trkpt>
      <trkpt lat="47.56612" lon="-2.28284">
        <ele>32.1</ele>
        <time>2025-01-16T10:06:36Z</time>
      </trkpt>
      <trkpt lat="47.56612" lon="-2.28285">
        <ele>32.1</ele>
        <time>2025-01-16T10:06:37Z</time>
      </trkpt>
      <trkpt lat="47.56612" lon="-2.28285">
        <ele>32.1</ele>
        <time>2025-01-16T10:06:38Z</time>
      </trkpt>
      <trkpt lat="47.56612" lon="-2.28285">
        <ele>32.1</ele>
        <time>2025-01-16T10:06:39Z</time>
      </trkpt>
      <trkpt lat="47.56612" lon="-2.28285">
        <ele>32.1</ele>
        <time>2025-01-16T10:06:40Z</time>
      </trkpt>
      <trkpt lat="47.56611" lon="-2.28285">
        <ele>32</ele>
        <time>2025-01-16T10:06:41Z</time>
      </trkpt>
      <trkpt lat="47.56611" lon="-2.28285">
        <ele>32</ele>
        <time>2025-01-16T10:06:42Z</time>
      </trkpt>
      <trkpt lat="47.56611" lon="-2.28285">
        <ele>32</ele>
        <time>2025-01-16T10:06:43Z</time>
      </trkpt>
      <trkpt lat="47.56612" lon="-2.28285">
        <ele>32.1</ele>
        <time>2025-01-16T10:06:44Z</time>
      </trkpt>
      <trkpt lat="47.56612" lon="-2.28285">
        <ele>32.1</ele>
        <time>2025-01-16T10:06:45Z</time>
      </trkpt>
      <trkpt lat="47.56612" lon="-2.28285">
        <ele>32.1</ele>
        <time>2025-01-16T10:06:46Z</time>
      </trkpt>
      <trkpt lat="47.56612" lon="-2.28284">
        <ele>32.1</ele>
        <time>2025-01-16T10:06:47Z</time>
      </trkpt>
      <trkpt lat="47.56612" lon="-2.28285">
        <ele>32.1</ele>
        <time>2025-01-16T10:06:48Z</time>
      </trkpt>
      <trkpt lat="47.56613" lon="-2.28284">
        <ele>32.2</ele>
        <time>2025-01-16T10:06:49Z</time>
      </trkpt>
      <trkpt lat="47.56613" lon="-2.28284">
        <ele>32.2</ele>
        <time>2025-01-16T10:06:50Z</time>
      </trkpt>
      <trkpt lat="47.56613" lon="-2.28283">
        <ele>32.1</ele>
        <time>2025-01-16T10:06:51Z</time>
      </trkpt>
      <trkpt lat="47.56612" lon="-2.28283">
        <ele>32.1</ele>
        <time>2025-01-16T10:06:52Z</time>
      </trkpt>
      <trkpt lat="47.56612" lon="-2.28283">
        <ele>32.1</ele>
        <time>2025-01-16T10:06:53Z</time>
      </trkpt>
      <trkpt lat="47.56612" lon="-2.28283">
        <ele>32.1</ele>
        <time>2025-01-16T10:06:54Z</time>
      </trkpt>
      <trkpt lat="47.56612" lon="-2.28283">
        <ele>32.1</ele>
        <time>2025-01-16T10:06:55Z</time>
      </trkpt>
      <trkpt lat="47.56613" lon="-2.28283">
        <ele>32.1</ele>
        <time>2025-01-16T10:06:56Z</time>
      </trkpt>
      <trkpt lat="47.56613" lon="-2.28283">
        <ele>32.1</ele>
        <time>2025-01-16T10:06:57Z</time>
      </trkpt>
      <trkpt lat="47.56613" lon="-2.28284">
        <ele>32.2</ele>
        <time>2025-01-16T10:06:58Z</time>
      </trkpt>
      <trkpt lat="47.56613" lon="-2.28284">
        <ele>32.2</ele>
        <time>2025-01-16T10:06:59Z</time>
      </trkpt>
      <trkpt lat="47.56613" lon="-2.28284">
        <ele>32.2</ele>
        <time>2025-01-16T10:07:00Z</time>
      </trkpt>
      <trkpt lat="47.56613" lon="-2.28284">
        <ele>32.2</ele>
        <time>2025-01-16T10:07:01Z</time>
      </trkpt>
      <trkpt lat="47.56613" lon="-2.28284">
        <ele>32.2</ele>
        <time>2025-01-16T10:07:02Z</time>
      </trkpt>
      <trkpt lat="47.56613" lon="-2.28284">
        <ele>32.2</ele>
        <time>2025-01-16T10:07:03Z</time>
      </trkpt>
      <trkpt lat="47.56613" lon="-2.28284">
        <ele>32.2</ele>
        <time>2025-01-16T10:07:04Z</time>
      </trkpt>
      <trkpt lat="47.56613" lon="-2.28284">
        <ele>32.2</ele>
        <time>2025-01-16T10:07:05Z</time>
      </trkpt>
      <trkpt lat="47.56613" lon="-2.28284">
        <ele>32.2</ele>
        <time>2025-01-16T10:07:06Z</time>
      </trkpt>
      <trkpt lat="47.56613" lon="-2.28284">
        <ele>32.2</ele>
        <time>2025-01-16T10:07:07Z</time>
      </trkpt>
      <trkpt lat="47.56613" lon="-2.28284">
        <ele>32.2</ele>
        <time>2025-01-16T10:07:08Z</time>
      </trkpt>
      <trkpt lat="47.56613" lon="-2.28284">
        <ele>32.2</ele>
        <time>2025-01-16T10:07:09Z</time>
      </trkpt>
      <trkpt lat="47.56613" lon="-2.28284">
        <ele>32.2</ele>
        <time>2025-01-16T10:07:10Z</time>
      </trkpt>
      <trkpt lat="47.56613" lon="-2.28284">
        <ele>32.2</ele>
        <time>2025-01-16T10:07:11Z</time>
      </trkpt>
      <trkpt lat="47.56613" lon="-2.28284">
        <ele>32.2</ele>
        <time>2025-01-16T10:07:12Z</time>
      </trkpt>
      <trkpt lat="47.56613" lon="-2.28284">
        <ele>32.2</ele>
        <time>2025-01-16T10:07:13Z</time>
      </trkpt>
      <trkpt lat="47.56613" lon="-2.28284">
        <ele>32.2</ele>
        <time>2025-01-16T10:07:14Z</time>
      </trkpt>
      <trkpt lat="47.56613" lon="-2.28284">
        <ele>32.2</ele>
        <time>2025-01-16T10:07:15Z</time>
      </trkpt>
      <trkpt lat="47.56613" lon="-2.28284">
        <ele>32.2</ele>
        <time>2025-01-16T10:07:16Z</time>
      </trkpt>
      <trkpt lat="47.56613" lon="-2.28284">
        <ele>32.2</ele>
        <time>2025-01-16T10:07:17Z</time>
      </trkpt>
      <trkpt lat="47.56613" lon="-2.28284">
        <ele>32.2</ele>
        <time>2025-01-16T10:07:18Z</time>
      </trkpt>
      <trkpt lat="47.56613" lon="-2.28284">
        <ele>32.2</ele>
        <time>2025-01-16T10:07:19Z</time>
      </trkpt>
      <trkpt lat="47.56613" lon="-2.28284">
        <ele>32.2</ele>
        <time>2025-01-16T10:07:20Z</time>
      </trkpt>
      <trkpt lat="47.56613" lon="-2.28284">
        <ele>32.2</ele>
        <time>2025-01-16T10:07:21Z</time>
      </trkpt>
      <trkpt lat="47.56613" lon="-2.28284">
        <ele>32.2</ele>
        <time>2025-01-16T10:07:22Z</time>
      </trkpt>
      <trkpt lat="47.56613" lon="-2.28284">
        <ele>32.2</ele>
        <time>2025-01-16T10:07:23Z</time>
      </trkpt>
      <trkpt lat="47.56613" lon="-2.28284">
        <ele>32.2</ele>
        <time>2025-01-16T10:07:24Z</time>
      </trkpt>
      <trkpt lat="47.56613" lon="-2.28284">
        <ele>32.2</ele>
        <time>2025-01-16T10:07:25Z</time>
      </trkpt>
      <trkpt lat="47.56613" lon="-2.28284">
        <ele>32.2</ele>
        <time>2025-01-16T10:07:26Z</time>
      </trkpt>
      <trkpt lat="47.56613" lon="-2.28284">
        <ele>32.2</ele>
        <time>2025-01-16T10:07:27Z</time>
      </trkpt>
      <trkpt lat="47.56613" lon="-2.28284">
        <ele>32.2</ele>
        <time>2025-01-16T10:07:28Z</time>
      </trkpt>
      <trkpt lat="47.56613" lon="-2.28284">
        <ele>32.2</ele>
        <time>2025-01-16T10:07:29Z</time>
      </trkpt>
      <trkpt lat="47.56613" lon="-2.28284">
        <ele>32.2</ele>
        <time>2025-01-16T10:07:30Z</time>
      </trkpt>
      <trkpt lat="47.56613" lon="-2.28284">
        <ele>32.2</ele>
        <time>2025-01-16T10:07:31Z</time>
      </trkpt>
      <trkpt lat="47.56613" lon="-2.28283">
        <ele>32.1</ele>
        <time>2025-01-16T10:07:32Z</time>
      </trkpt>
      <trkpt lat="47.56613" lon="-2.28282">
        <ele>32.1</ele>
        <time>2025-01-16T10:07:33Z</time>
      </trkpt>
      <trkpt lat="47.56613" lon="-2.28281">
        <ele>32.1</ele>
        <time>2025-01-16T10:07:34Z</time>
      </trkpt>
      <trkpt lat="47.56614" lon="-2.28281">
        <ele>32.2</ele>
        <time>2025-01-16T10:07:35Z</time>
      </trkpt>
      <trkpt lat="47.56614" lon="-2.28281">
        <ele>32.2</ele>
        <time>2025-01-16T10:07:36Z</time>
      </trkpt>
      <trkpt lat="47.56614" lon="-2.28281">
        <ele>32.2</ele>
        <time>2025-01-16T10:07:37Z</time>
      </trkpt>
      <trkpt lat="47.56614" lon="-2.28281">
        <ele>32.2</ele>
        <time>2025-01-16T10:07:38Z</time>
      </trkpt>
      <trkpt lat="47.56613" lon="-2.28281">
        <ele>32.1</ele>
        <time>2025-01-16T10:07:39Z</time>
      </trkpt>
      <trkpt lat="47.56613" lon="-2.28281">
        <ele>32.1</ele>
        <time>2025-01-16T10:07:40Z</time>
      </trkpt>
      <trkpt lat="47.56613" lon="-2.28281">
        <ele>32.1</ele>
        <time>2025-01-16T10:07:41Z</time>
      </trkpt>
      <trkpt lat="47.56613" lon="-2.28281">
        <ele>32.1</ele>
        <time>2025-01-16T10:07:42Z</time>
      </trkpt>
      <trkpt lat="47.56613" lon="-2.28281">
        <ele>32.1</ele>
        <time>2025-01-16T10:07:43Z</time>
      </trkpt>
      <trkpt lat="47.56613" lon="-2.28281">
        <ele>32.1</ele>
        <time>2025-01-16T10:07:44Z</time>
      </trkpt>
      <trkpt lat="47.56613" lon="-2.28281">
        <ele>32.1</ele>
        <time>2025-01-16T10:07:45Z</time>
      </trkpt>
      <trkpt lat="47.56613" lon="-2.28281">
        <ele>32.1</ele>
        <time>2025-01-16T10:07:46Z</time>
      </trkpt>
      <trkpt lat="47.56612" lon="-2.28281">
        <ele>32.1</ele>
        <time>2025-01-16T10:07:47Z</time>
      </trkpt>
      <trkpt lat="47.56612" lon="-2.28281">
        <ele>32.1</ele>
        <time>2025-01-16T10:07:48Z</time>
      </trkpt>
      <trkpt lat="47.56612" lon="-2.28281">
        <ele>32.1</ele>
        <time>2025-01-16T10:07:49Z</time>
      </trkpt>
      <trkpt lat="47.56611" lon="-2.28282">
        <ele>32</ele>
        <time>2025-01-16T10:07:50Z</time>
      </trkpt>
      <trkpt lat="47.56611" lon="-2.28282">
        <ele>32</ele>
        <time>2025-01-16T10:07:51Z</time>
      </trkpt>
      <trkpt lat="47.5661" lon="-2.28283">
        <ele>31.8</ele>
        <time>2025-01-16T10:07:52Z</time>
      </trkpt>
      <trkpt lat="47.5661" lon="-2.28283">
        <ele>31.8</ele>
        <time>2025-01-16T10:07:53Z</time>
      </trkpt>
      <trkpt lat="47.5661" lon="-2.28283">
        <ele>31.8</ele>
        <time>2025-01-16T10:07:54Z</time>
      </trkpt>
      <trkpt lat="47.5661" lon="-2.28283">
        <ele>31.8</ele>
        <time>2025-01-16T10:07:55Z</time>
      </trkpt>
      <trkpt lat="47.56609" lon="-2.28283">
        <ele>31.7</ele>
        <time>2025-01-16T10:07:56Z</time>
      </trkpt>
      <trkpt lat="47.56609" lon="-2.28283">
        <ele>31.7</ele>
        <time>2025-01-16T10:07:57Z</time>
      </trkpt>
      <trkpt lat="47.56609" lon="-2.28283">
        <ele>31.7</ele>
        <time>2025-01-16T10:07:58Z</time>
      </trkpt>
      <trkpt lat="47.56609" lon="-2.28283">
        <ele>31.7</ele>
        <time>2025-01-16T10:07:59Z</time>
      </trkpt>
      <trkpt lat="47.56609" lon="-2.28283">
        <ele>31.7</ele>
        <time>2025-01-16T10:08:00Z</time>
      </trkpt>
      <trkpt lat="47.56609" lon="-2.28283">
        <ele>31.7</ele>
        <time>2025-01-16T10:08:01Z</time>
      </trkpt>
      <trkpt lat="47.56609" lon="-2.28283">
        <ele>31.7</ele>
        <time>2025-01-16T10:08:02Z</time>
      </trkpt>
      <trkpt lat="47.56609" lon="-2.28283">
        <ele>31.7</ele>
        <time>2025-01-16T10:08:03Z</time>
      </trkpt>
      <trkpt lat="47.56609" lon="-2.28283">
        <ele>31.7</ele>
        <time>2025-01-16T10:08:04Z</time>
      </trkpt>
      <trkpt lat="47.56609" lon="-2.28283">
        <ele>31.7</ele>
        <time>2025-01-16T10:08:05Z</time>
      </trkpt>
      <trkpt lat="47.56609" lon="-2.28283">
        <ele>31.7</ele>
        <time>2025-01-16T10:08:06Z</time>
      </trkpt>
      <trkpt lat="47.56608" lon="-2.28283">
        <ele>31.5</ele>
        <time>2025-01-16T10:08:07Z</time>
      </trkpt>
      <trkpt lat="47.56607" lon="-2.28282">
        <ele>31.4</ele>
        <time>2025-01-16T10:08:08Z</time>
      </trkpt>
      <trkpt lat="47.56607" lon="-2.28282">
        <ele>31.4</ele>
        <time>2025-01-16T10:08:09Z</time>
      </trkpt>
      <trkpt lat="47.56606" lon="-2.28281">
        <ele>31.2</ele>
        <time>2025-01-16T10:08:10Z</time>
      </trkpt>
      <trkpt lat="47.56606" lon="-2.2828">
        <ele>31.2</ele>
        <time>2025-01-16T10:08:11Z</time>
      </trkpt>
      <trkpt lat="47.56605" lon="-2.28279">
        <ele>31.1</ele>
        <time>2025-01-16T10:08:12Z</time>
      </trkpt>
      <trkpt lat="47.56606" lon="-2.2828">
        <ele>31.2</ele>
        <time>2025-01-16T10:08:13Z</time>
      </trkpt>
      <trkpt lat="47.56605" lon="-2.28279">
        <ele>31.1</ele>
        <time>2025-01-16T10:08:14Z</time>
      </trkpt>
      <trkpt lat="47.56604" lon="-2.28277">
        <ele>31</ele>
        <time>2025-01-16T10:08:15Z</time>
      </trkpt>
      <trkpt lat="47.56604" lon="-2.28276">
        <ele>30.9</ele>
        <time>2025-01-16T10:08:16Z</time>
      </trkpt>
      <trkpt lat="47.56603" lon="-2.28275">
        <ele>30.8</ele>
        <time>2025-01-16T10:08:17Z</time>
      </trkpt>
      <trkpt lat="47.56603" lon="-2.28274">
        <ele>30.7</ele>
        <time>2025-01-16T10:08:18Z</time>
      </trkpt>
      <trkpt lat="47.56602" lon="-2.28273">
        <ele>30.6</ele>
        <time>2025-01-16T10:08:19Z</time>
      </trkpt>
      <trkpt lat="47.56603" lon="-2.28272">
        <ele>30.7</ele>
        <time>2025-01-16T10:08:20Z</time>
      </trkpt>
      <trkpt lat="47.56602" lon="-2.28272">
        <ele>30.5</ele>
        <time>2025-01-16T10:08:21Z</time>
      </trkpt>
      <trkpt lat="47.56602" lon="-2.28271">
        <ele>30.5</ele>
        <time>2025-01-16T10:08:22Z</time>
      </trkpt>
      <trkpt lat="47.56601" lon="-2.2827">
        <ele>30.4</ele>
        <time>2025-01-16T10:08:23Z</time>
      </trkpt>
      <trkpt lat="47.56601" lon="-2.28269">
        <ele>30.3</ele>
        <time>2025-01-16T10:08:24Z</time>
      </trkpt>
      <trkpt lat="47.566" lon="-2.28268">
        <ele>30.2</ele>
        <time>2025-01-16T10:08:25Z</time>
      </trkpt>
      <trkpt lat="47.56599" lon="-2.28267">
        <ele>30</ele>
        <time>2025-01-16T10:08:26Z</time>
      </trkpt>
      <trkpt lat="47.56598" lon="-2.28266">
        <ele>29.9</ele>
        <time>2025-01-16T10:08:27Z</time>
      </trkpt>
      <trkpt lat="47.56597" lon="-2.28265">
        <ele>29.7</ele>
        <time>2025-01-16T10:08:28Z</time>
      </trkpt>
      <trkpt lat="47.56595" lon="-2.28264">
        <ele>29.5</ele>
        <time>2025-01-16T10:08:29Z</time>
      </trkpt>
      <trkpt lat="47.56594" lon="-2.28263">
        <ele>29.3</ele>
        <time>2025-01-16T10:08:30Z</time>
      </trkpt>
      <trkpt lat="47.56593" lon="-2.28262">
        <ele>29.2</ele>
        <time>2025-01-16T10:08:31Z</time>
      </trkpt>
      <trkpt lat="47.56592" lon="-2.28262">
        <ele>29.1</ele>
        <time>2025-01-16T10:08:32Z</time>
      </trkpt>
      <trkpt lat="47.56591" lon="-2.2826">
        <ele>28.9</ele>
        <time>2025-01-16T10:08:33Z</time>
      </trkpt>
      <trkpt lat="47.56591" lon="-2.28259">
        <ele>28.9</ele>
        <time>2025-01-16T10:08:34Z</time>
      </trkpt>
      <trkpt lat="47.5659" lon="-2.28258">
        <ele>28.8</ele>
        <time>2025-01-16T10:08:35Z</time>
      </trkpt>
      <trkpt lat="47.56589" lon="-2.28256">
        <ele>28.7</ele>
        <time>2025-01-16T10:08:36Z</time>
      </trkpt>
      <trkpt lat="47.56587" lon="-2.28255">
        <ele>28.4</ele>
        <time>2025-01-16T10:08:37Z</time>
      </trkpt>
      <trkpt lat="47.56586" lon="-2.28254">
        <ele>28.3</ele>
        <time>2025-01-16T10:08:38Z</time>
      </trkpt>
      <trkpt lat="47.56584" lon="-2.28253">
        <ele>28.1</ele>
        <time>2025-01-16T10:08:39Z</time>
      </trkpt>
      <trkpt lat="47.56583" lon="-2.28252">
        <ele>28</ele>
        <time>2025-01-16T10:08:40Z</time>
      </trkpt>
      <trkpt lat="47.56581" lon="-2.28251">
        <ele>27.7</ele>
        <time>2025-01-16T10:08:41Z</time>
      </trkpt>
      <trkpt lat="47.5658" lon="-2.2825">
        <ele>27.5</ele>
        <time>2025-01-16T10:08:42Z</time>
      </trkpt>
      <trkpt lat="47.56578" lon="-2.28249">
        <ele>27.2</ele>
        <time>2025-01-16T10:08:43Z</time>
      </trkpt>
      <trkpt lat="47.56578" lon="-2.28248">
        <ele>27.2</ele>
        <time>2025-01-16T10:08:44Z</time>
      </trkpt>
      <trkpt lat="47.56576" lon="-2.28247">
        <ele>26.9</ele>
        <time>2025-01-16T10:08:45Z</time>
      </trkpt>
      <trkpt lat="47.56575" lon="-2.28246">
        <ele>26.7</ele>
        <time>2025-01-16T10:08:46Z</time>
      </trkpt>
      <trkpt lat="47.56573" lon="-2.28245">
        <ele>26.4</ele>
        <time>2025-01-16T10:08:47Z</time>
      </trkpt>
      <trkpt lat="47.56572" lon="-2.28244">
        <ele>26.2</ele>
        <time>2025-01-16T10:08:48Z</time>
      </trkpt>
      <trkpt lat="47.56571" lon="-2.28243">
        <ele>26.1</ele>
        <time>2025-01-16T10:08:49Z</time>
      </trkpt>
      <trkpt lat="47.56571" lon="-2.28242">
        <ele>26.1</ele>
        <time>2025-01-16T10:08:50Z</time>
      </trkpt>
      <trkpt lat="47.5657" lon="-2.28241">
        <ele>25.9</ele>
        <time>2025-01-16T10:08:51Z</time>
      </trkpt>
      <trkpt lat="47.56569" lon="-2.28241">
        <ele>25.8</ele>
        <time>2025-01-16T10:08:52Z</time>
      </trkpt>
      <trkpt lat="47.56569" lon="-2.2824">
        <ele>25.8</ele>
        <time>2025-01-16T10:08:53Z</time>
      </trkpt>
      <trkpt lat="47.56568" lon="-2.28239">
        <ele>25.6</ele>
        <time>2025-01-16T10:08:54Z</time>
      </trkpt>
      <trkpt lat="47.56567" lon="-2.28238">
        <ele>25.5</ele>
        <time>2025-01-16T10:08:55Z</time>
      </trkpt>
      <trkpt lat="47.56567" lon="-2.28237">
        <ele>25.5</ele>
        <time>2025-01-16T10:08:56Z</time>
      </trkpt>
      <trkpt lat="47.56566" lon="-2.28236">
        <ele>25.3</ele>
        <time>2025-01-16T10:08:57Z</time>
      </trkpt>
      <trkpt lat="47.56565" lon="-2.28235">
        <ele>25.2</ele>
        <time>2025-01-16T10:08:58Z</time>
      </trkpt>
      <trkpt lat="47.56563" lon="-2.28234">
        <ele>24.9</ele>
        <time>2025-01-16T10:08:59Z</time>
      </trkpt>
      <trkpt lat="47.56562" lon="-2.28233">
        <ele>24.8</ele>
        <time>2025-01-16T10:09:00Z</time>
      </trkpt>
      <trkpt lat="47.56561" lon="-2.28233">
        <ele>24.7</ele>
        <time>2025-01-16T10:09:01Z</time>
      </trkpt>
      <trkpt lat="47.5656" lon="-2.28232">
        <ele>24.5</ele>
        <time>2025-01-16T10:09:02Z</time>
      </trkpt>
      <trkpt lat="47.56558" lon="-2.28231">
        <ele>24.3</ele>
        <time>2025-01-16T10:09:03Z</time>
      </trkpt>
      <trkpt lat="47.56557" lon="-2.28231">
        <ele>24.2</ele>
        <time>2025-01-16T10:09:04Z</time>
      </trkpt>
      <trkpt lat="47.56556" lon="-2.2823">
        <ele>24.1</ele>
        <time>2025-01-16T10:09:05Z</time>
      </trkpt>
      <trkpt lat="47.56555" lon="-2.28229">
        <ele>24</ele>
        <time>2025-01-16T10:09:06Z</time>
      </trkpt>
      <trkpt lat="47.56555" lon="-2.28228">
        <ele>24</ele>
        <time>2025-01-16T10:09:07Z</time>
      </trkpt>
      <trkpt lat="47.56555" lon="-2.28227">
        <ele>24</ele>
        <time>2025-01-16T10:09:08Z</time>
      </trkpt>
      <trkpt lat="47.56554" lon="-2.28226">
        <ele>23.9</ele>
        <time>2025-01-16T10:09:09Z</time>
      </trkpt>
      <trkpt lat="47.56554" lon="-2.28225">
        <ele>23.9</ele>
        <time>2025-01-16T10:09:10Z</time>
      </trkpt>
      <trkpt lat="47.56553" lon="-2.28224">
        <ele>23.8</ele>
        <time>2025-01-16T10:09:11Z</time>
      </trkpt>
      <trkpt lat="47.56553" lon="-2.28223">
        <ele>23.8</ele>
        <time>2025-01-16T10:09:12Z</time>
      </trkpt>
      <trkpt lat="47.56552" lon="-2.28222">
        <ele>23.7</ele>
        <time>2025-01-16T10:09:13Z</time>
      </trkpt>
      <trkpt lat="47.5655" lon="-2.28222">
        <ele>23.6</ele>
        <time>2025-01-16T10:09:14Z</time>
      </trkpt>
      <trkpt lat="47.56549" lon="-2.28221">
        <ele>23.4</ele>
        <time>2025-01-16T10:09:15Z</time>
      </trkpt>
      <trkpt lat="47.56548" lon="-2.2822">
        <ele>23.3</ele>
        <time>2025-01-16T10:09:16Z</time>
      </trkpt>
      <trkpt lat="47.56548" lon="-2.28219">
        <ele>23.2</ele>
        <time>2025-01-16T10:09:17Z</time>
      </trkpt>
      <trkpt lat="47.56547" lon="-2.28219">
        <ele>23.2</ele>
        <time>2025-01-16T10:09:18Z</time>
      </trkpt>
      <trkpt lat="47.56547" lon="-2.28218">
        <ele>23.1</ele>
        <time>2025-01-16T10:09:19Z</time>
      </trkpt>
      <trkpt lat="47.56545" lon="-2.28217">
        <ele>22.9</ele>
        <time>2025-01-16T10:09:20Z</time>
      </trkpt>
      <trkpt lat="47.56544" lon="-2.28216">
        <ele>22.7</ele>
        <time>2025-01-16T10:09:21Z</time>
      </trkpt>
      <trkpt lat="47.56542" lon="-2.28215">
        <ele>22.5</ele>
        <time>2025-01-16T10:09:22Z</time>
      </trkpt>
      <trkpt lat="47.56541" lon="-2.28214">
        <ele>22.4</ele>
        <time>2025-01-16T10:09:23Z</time>
      </trkpt>
      <trkpt lat="47.56539" lon="-2.28213">
        <ele>22.1</ele>
        <time>2025-01-16T10:09:24Z</time>
      </trkpt>
      <trkpt lat="47.56537" lon="-2.28212">
        <ele>21.9</ele>
        <time>2025-01-16T10:09:25Z</time>
      </trkpt>
      <trkpt lat="47.56536" lon="-2.28212">
        <ele>21.9</ele>
        <time>2025-01-16T10:09:26Z</time>
      </trkpt>
      <trkpt lat="47.56536" lon="-2.28211">
        <ele>21.8</ele>
        <time>2025-01-16T10:09:27Z</time>
      </trkpt>
      <trkpt lat="47.56535" lon="-2.2821">
        <ele>21.6</ele>
        <time>2025-01-16T10:09:28Z</time>
      </trkpt>
      <trkpt lat="47.56535" lon="-2.28209">
        <ele>21.6</ele>
        <time>2025-01-16T10:09:29Z</time>
      </trkpt>
      <trkpt lat="47.56535" lon="-2.28208">
        <ele>21.5</ele>
        <time>2025-01-16T10:09:30Z</time>
      </trkpt>
      <trkpt lat="47.56535" lon="-2.28207">
        <ele>21.4</ele>
        <time>2025-01-16T10:09:31Z</time>
      </trkpt>
      <trkpt lat="47.56536" lon="-2.28205">
        <ele>21.4</ele>
        <time>2025-01-16T10:09:32Z</time>
      </trkpt>
      <trkpt lat="47.56536" lon="-2.28203">
        <ele>21.2</ele>
        <time>2025-01-16T10:09:33Z</time>
      </trkpt>
      <trkpt lat="47.56536" lon="-2.28202">
        <ele>21.1</ele>
        <time>2025-01-16T10:09:34Z</time>
      </trkpt>
      <trkpt lat="47.56537" lon="-2.282">
        <ele>21.1</ele>
        <time>2025-01-16T10:09:35Z</time>
      </trkpt>
      <trkpt lat="47.56537" lon="-2.28199">
        <ele>21</ele>
        <time>2025-01-16T10:09:36Z</time>
      </trkpt>
      <trkpt lat="47.56538" lon="-2.28198">
        <ele>21</ele>
        <time>2025-01-16T10:09:37Z</time>
      </trkpt>
      <trkpt lat="47.56538" lon="-2.28196">
        <ele>20.8</ele>
        <time>2025-01-16T10:09:38Z</time>
      </trkpt>
      <trkpt lat="47.56538" lon="-2.28195">
        <ele>20.8</ele>
        <time>2025-01-16T10:09:39Z</time>
      </trkpt>
      <trkpt lat="47.56539" lon="-2.28193">
        <ele>20.6</ele>
        <time>2025-01-16T10:09:40Z</time>
      </trkpt>
      <trkpt lat="47.56539" lon="-2.28192">
        <ele>20.4</ele>
        <time>2025-01-16T10:09:41Z</time>
      </trkpt>
      <trkpt lat="47.56539" lon="-2.28191">
        <ele>20.3</ele>
        <time>2025-01-16T10:09:42Z</time>
      </trkpt>
      <trkpt lat="47.56539" lon="-2.2819">
        <ele>20.1</ele>
        <time>2025-01-16T10:09:43Z</time>
      </trkpt>
      <trkpt lat="47.5654" lon="-2.28189">
        <ele>20</ele>
        <time>2025-01-16T10:09:44Z</time>
      </trkpt>
      <trkpt lat="47.5654" lon="-2.28188">
        <ele>19.8</ele>
        <time>2025-01-16T10:09:45Z</time>
      </trkpt>
      <trkpt lat="47.5654" lon="-2.28187">
        <ele>19.7</ele>
        <time>2025-01-16T10:09:46Z</time>
      </trkpt>
      <trkpt lat="47.5654" lon="-2.28187">
        <ele>19.7</ele>
        <time>2025-01-16T10:09:47Z</time>
      </trkpt>
      <trkpt lat="47.5654" lon="-2.28185">
        <ele>19.4</ele>
        <time>2025-01-16T10:09:48Z</time>
      </trkpt>
      <trkpt lat="47.5654" lon="-2.28184">
        <ele>19.2</ele>
        <time>2025-01-16T10:09:49Z</time>
      </trkpt>
      <trkpt lat="47.5654" lon="-2.28183">
        <ele>19.1</ele>
        <time>2025-01-16T10:09:50Z</time>
      </trkpt>
      <trkpt lat="47.5654" lon="-2.28183">
        <ele>19.1</ele>
        <time>2025-01-16T10:09:51Z</time>
      </trkpt>
      <trkpt lat="47.5654" lon="-2.28182">
        <ele>18.9</ele>
        <time>2025-01-16T10:09:52Z</time>
      </trkpt>
      <trkpt lat="47.5654" lon="-2.28181">
        <ele>18.7</ele>
        <time>2025-01-16T10:09:53Z</time>
      </trkpt>
      <trkpt lat="47.5654" lon="-2.2818">
        <ele>18.6</ele>
        <time>2025-01-16T10:09:54Z</time>
      </trkpt>
      <trkpt lat="47.5654" lon="-2.28179">
        <ele>18.4</ele>
        <time>2025-01-16T10:09:55Z</time>
      </trkpt>
      <trkpt lat="47.5654" lon="-2.28177">
        <ele>18.1</ele>
        <time>2025-01-16T10:09:56Z</time>
      </trkpt>
      <trkpt lat="47.5654" lon="-2.28177">
        <ele>18.1</ele>
        <time>2025-01-16T10:09:57Z</time>
      </trkpt>
      <trkpt lat="47.5654" lon="-2.28176">
        <ele>17.9</ele>
        <time>2025-01-16T10:09:58Z</time>
      </trkpt>
      <trkpt lat="47.5654" lon="-2.28176">
        <ele>17.9</ele>
        <time>2025-01-16T10:09:59Z</time>
      </trkpt>
      <trkpt lat="47.5654" lon="-2.28175">
        <ele>17.8</ele>
        <time>2025-01-16T10:10:00Z</time>
      </trkpt>
      <trkpt lat="47.5654" lon="-2.28174">
        <ele>17.6</ele>
        <time>2025-01-16T10:10:01Z</time>
      </trkpt>
      <trkpt lat="47.5654" lon="-2.28173">
        <ele>17.5</ele>
        <time>2025-01-16T10:10:02Z</time>
      </trkpt>
      <trkpt lat="47.56539" lon="-2.28172">
        <ele>17.2</ele>
        <time>2025-01-16T10:10:03Z</time>
      </trkpt>
      <trkpt lat="47.56539" lon="-2.2817">
        <ele>16.9</ele>
        <time>2025-01-16T10:10:04Z</time>
      </trkpt>
      <trkpt lat="47.56538" lon="-2.28169">
        <ele>16.7</ele>
        <time>2025-01-16T10:10:05Z</time>
      </trkpt>
      <trkpt lat="47.56537" lon="-2.28168">
        <ele>16.5</ele>
        <time>2025-01-16T10:10:06Z</time>
      </trkpt>
      <trkpt lat="47.56537" lon="-2.28167">
        <ele>16.4</ele>
        <time>2025-01-16T10:10:07Z</time>
      </trkpt>
      <trkpt lat="47.56536" lon="-2.28166">
        <ele>16.1</ele>
        <time>2025-01-16T10:10:08Z</time>
      </trkpt>
      <trkpt lat="47.56536" lon="-2.28165">
        <ele>15.9</ele>
        <time>2025-01-16T10:10:09Z</time>
      </trkpt>
      <trkpt lat="47.56536" lon="-2.28165">
        <ele>15.9</ele>
        <time>2025-01-16T10:10:10Z</time>
      </trkpt>
      <trkpt lat="47.56536" lon="-2.28164">
        <ele>15.7</ele>
        <time>2025-01-16T10:10:11Z</time>
      </trkpt>
      <trkpt lat="47.56536" lon="-2.28164">
        <ele>15.7</ele>
        <time>2025-01-16T10:10:12Z</time>
      </trkpt>
      <trkpt lat="47.56536" lon="-2.28163">
        <ele>15.5</ele>
        <time>2025-01-16T10:10:13Z</time>
      </trkpt>
      <trkpt lat="47.56536" lon="-2.28161">
        <ele>15</ele>
        <time>2025-01-16T10:10:14Z</time>
      </trkpt>
      <trkpt lat="47.56536" lon="-2.2816">
        <ele>14.8</ele>
        <time>2025-01-16T10:10:15Z</time>
      </trkpt>
      <trkpt lat="47.56536" lon="-2.28159">
        <ele>14.6</ele>
        <time>2025-01-16T10:10:16Z</time>
      </trkpt>
      <trkpt lat="47.56535" lon="-2.28158">
        <ele>14.3</ele>
        <time>2025-01-16T10:10:17Z</time>
      </trkpt>
      <trkpt lat="47.56535" lon="-2.28157">
        <ele>14.1</ele>
        <time>2025-01-16T10:10:18Z</time>
      </trkpt>
      <trkpt lat="47.56535" lon="-2.28156">
        <ele>13.9</ele>
        <time>2025-01-16T10:10:19Z</time>
      </trkpt>
      <trkpt lat="47.56535" lon="-2.28155">
        <ele>13.6</ele>
        <time>2025-01-16T10:10:20Z</time>
      </trkpt>
      <trkpt lat="47.56534" lon="-2.28154">
        <ele>13.4</ele>
        <time>2025-01-16T10:10:21Z</time>
      </trkpt>
      <trkpt lat="47.56534" lon="-2.28153">
        <ele>13.2</ele>
        <time>2025-01-16T10:10:22Z</time>
      </trkpt>
      <trkpt lat="47.56533" lon="-2.28153">
        <ele>13.1</ele>
        <time>2025-01-16T10:10:23Z</time>
      </trkpt>
      <trkpt lat="47.56533" lon="-2.28152">
        <ele>12.9</ele>
        <time>2025-01-16T10:10:24Z</time>
      </trkpt>
      <trkpt lat="47.56532" lon="-2.28152">
        <ele>12.9</ele>
        <time>2025-01-16T10:10:25Z</time>
      </trkpt>
      <trkpt lat="47.56531" lon="-2.28151">
        <ele>12.7</ele>
        <time>2025-01-16T10:10:26Z</time>
      </trkpt>
      <trkpt lat="47.5653" lon="-2.28151">
        <ele>12.7</ele>
        <time>2025-01-16T10:10:27Z</time>
      </trkpt>
      <trkpt lat="47.5653" lon="-2.2815">
        <ele>12.4</ele>
        <time>2025-01-16T10:10:28Z</time>
      </trkpt>
      <trkpt lat="47.56529" lon="-2.28149">
        <ele>12.2</ele>
        <time>2025-01-16T10:10:29Z</time>
      </trkpt>
      <trkpt lat="47.56529" lon="-2.28148">
        <ele>12</ele>
        <time>2025-01-16T10:10:30Z</time>
      </trkpt>
      <trkpt lat="47.56528" lon="-2.28147">
        <ele>11.8</ele>
        <time>2025-01-16T10:10:31Z</time>
      </trkpt>
      <trkpt lat="47.56528" lon="-2.28146">
        <ele>11.5</ele>
        <time>2025-01-16T10:10:32Z</time>
      </trkpt>
      <trkpt lat="47.56527" lon="-2.28145">
        <ele>11.2</ele>
        <time>2025-01-16T10:10:33Z</time>
      </trkpt>
      <trkpt lat="47.56527" lon="-2.28144">
        <ele>11</ele>
        <time>2025-01-16T10:10:34Z</time>
      </trkpt>
      <trkpt lat="47.56526" lon="-2.28143">
        <ele>10.7</ele>
        <time>2025-01-16T10:10:35Z</time>
      </trkpt>
      <trkpt lat="47.56525" lon="-2.28142">
        <ele>10.4</ele>
        <time>2025-01-16T10:10:36Z</time>
      </trkpt>
      <trkpt lat="47.56524" lon="-2.28142">
        <ele>10.3</ele>
        <time>2025-01-16T10:10:37Z</time>
      </trkpt>
      <trkpt lat="47.56522" lon="-2.28141">
        <ele>9.8</ele>
        <time>2025-01-16T10:10:38Z</time>
      </trkpt>
      <trkpt lat="47.56521" lon="-2.28141">
        <ele>9.7</ele>
        <time>2025-01-16T10:10:39Z</time>
      </trkpt>
      <trkpt lat="47.5652" lon="-2.28141">
        <ele>9.6</ele>
        <time>2025-01-16T10:10:40Z</time>
      </trkpt>
      <trkpt lat="47.56518" lon="-2.28141">
        <ele>9.4</ele>
        <time>2025-01-16T10:10:41Z</time>
      </trkpt>
      <trkpt lat="47.56517" lon="-2.2814">
        <ele>9.1</ele>
        <time>2025-01-16T10:10:42Z</time>
      </trkpt>
      <trkpt lat="47.56516" lon="-2.2814">
        <ele>9</ele>
        <time>2025-01-16T10:10:43Z</time>
      </trkpt>
      <trkpt lat="47.56516" lon="-2.2814">
        <ele>9</ele>
        <time>2025-01-16T10:10:44Z</time>
      </trkpt>
      <trkpt lat="47.56515" lon="-2.2814">
        <ele>8.9</ele>
        <time>2025-01-16T10:10:45Z</time>
      </trkpt>
      <trkpt lat="47.56514" lon="-2.2814">
        <ele>8.8</ele>
        <time>2025-01-16T10:10:46Z</time>
      </trkpt>
      <trkpt lat="47.56513" lon="-2.2814">
        <ele>8.6</ele>
        <time>2025-01-16T10:10:47Z</time>
      </trkpt>
      <trkpt lat="47.56512" lon="-2.28141">
        <ele>8.8</ele>
        <time>2025-01-16T10:10:48Z</time>
      </trkpt>
      <trkpt lat="47.5651" lon="-2.28141">
        <ele>8.5</ele>
        <time>2025-01-16T10:10:49Z</time>
      </trkpt>
      <trkpt lat="47.5651" lon="-2.2814">
        <ele>8.3</ele>
        <time>2025-01-16T10:10:50Z</time>
      </trkpt>
      <trkpt lat="47.56509" lon="-2.2814">
        <ele>8.2</ele>
        <time>2025-01-16T10:10:51Z</time>
      </trkpt>
      <trkpt lat="47.56507" lon="-2.28141">
        <ele>8.2</ele>
        <time>2025-01-16T10:10:52Z</time>
      </trkpt>
      <trkpt lat="47.56506" lon="-2.28141">
        <ele>8.1</ele>
        <time>2025-01-16T10:10:53Z</time>
      </trkpt>
      <trkpt lat="47.56505" lon="-2.28142">
        <ele>8.2</ele>
        <time>2025-01-16T10:10:54Z</time>
      </trkpt>
      <trkpt lat="47.56504" lon="-2.28143">
        <ele>8.3</ele>
        <time>2025-01-16T10:10:55Z</time>
      </trkpt>
      <trkpt lat="47.56504" lon="-2.28144">
        <ele>8.5</ele>
        <time>2025-01-16T10:10:56Z</time>
      </trkpt>
      <trkpt lat="47.56503" lon="-2.28145">
        <ele>8.6</ele>
        <time>2025-01-16T10:10:57Z</time>
      </trkpt>
      <trkpt lat="47.56502" lon="-2.28146">
        <ele>8.8</ele>
        <time>2025-01-16T10:10:58Z</time>
      </trkpt>
      <trkpt lat="47.56501" lon="-2.28147">
        <ele>8.9</ele>
        <time>2025-01-16T10:10:59Z</time>
      </trkpt>
      <trkpt lat="47.56501" lon="-2.28148">
        <ele>9.1</ele>
        <time>2025-01-16T10:11:00Z</time>
      </trkpt>
      <trkpt lat="47.56501" lon="-2.28148">
        <ele>9.1</ele>
        <time>2025-01-16T10:11:01Z</time>
      </trkpt>
      <trkpt lat="47.56501" lon="-2.28149">
        <ele>9.3</ele>
        <time>2025-01-16T10:11:02Z</time>
      </trkpt>
      <trkpt lat="47.565" lon="-2.2815">
        <ele>9.4</ele>
        <time>2025-01-16T10:11:03Z</time>
      </trkpt>
      <trkpt lat="47.56498" lon="-2.28151">
        <ele>9.2</ele>
        <time>2025-01-16T10:11:04Z</time>
      </trkpt>
      <trkpt lat="47.56497" lon="-2.28152">
        <ele>9.1</ele>
        <time>2025-01-16T10:11:05Z</time>
      </trkpt>
      <trkpt lat="47.56496" lon="-2.28153">
        <ele>9.1</ele>
        <time>2025-01-16T10:11:06Z</time>
      </trkpt>
      <trkpt lat="47.56495" lon="-2.28153">
        <ele>8.9</ele>
        <time>2025-01-16T10:11:07Z</time>
      </trkpt>
      <trkpt lat="47.56494" lon="-2.28154">
        <ele>8.8</ele>
        <time>2025-01-16T10:11:08Z</time>
      </trkpt>
      <trkpt lat="47.56494" lon="-2.28155">
        <ele>9</ele>
        <time>2025-01-16T10:11:09Z</time>
      </trkpt>
      <trkpt lat="47.56494" lon="-2.28156">
        <ele>9.2</ele>
        <time>2025-01-16T10:11:10Z</time>
      </trkpt>
      <trkpt lat="47.56494" lon="-2.28157">
        <ele>9.3</ele>
        <time>2025-01-16T10:11:11Z</time>
      </trkpt>
      <trkpt lat="47.56493" lon="-2.28159">
        <ele>9.4</ele>
        <time>2025-01-16T10:11:12Z</time>
      </trkpt>
      <trkpt lat="47.56493" lon="-2.2816">
        <ele>9.6</ele>
        <time>2025-01-16T10:11:13Z</time>
      </trkpt>
      <trkpt lat="47.56492" lon="-2.28161">
        <ele>9.5</ele>
        <time>2025-01-16T10:11:14Z</time>
      </trkpt>
      <trkpt lat="47.56492" lon="-2.28163">
        <ele>9.8</ele>
        <time>2025-01-16T10:11:15Z</time>
      </trkpt>
      <trkpt lat="47.56492" lon="-2.28164">
        <ele>10</ele>
        <time>2025-01-16T10:11:16Z</time>
      </trkpt>
      <trkpt lat="47.56491" lon="-2.28166">
        <ele>10</ele>
        <time>2025-01-16T10:11:17Z</time>
      </trkpt>
      <trkpt lat="47.5649" lon="-2.28167">
        <ele>9.8</ele>
        <time>2025-01-16T10:11:18Z</time>
      </trkpt>
      <trkpt lat="47.5649" lon="-2.28169">
        <ele>10</ele>
        <time>2025-01-16T10:11:19Z</time>
      </trkpt>
      <trkpt lat="47.56489" lon="-2.28171">
        <ele>9.9</ele>
        <time>2025-01-16T10:11:20Z</time>
      </trkpt>
      <trkpt lat="47.56488" lon="-2.28172">
        <ele>9.7</ele>
        <time>2025-01-16T10:11:21Z</time>
      </trkpt>
      <trkpt lat="47.56488" lon="-2.28173">
        <ele>9.8</ele>
        <time>2025-01-16T10:11:22Z</time>
      </trkpt>
      <trkpt lat="47.56487" lon="-2.28174">
        <ele>9.6</ele>
        <time>2025-01-16T10:11:23Z</time>
      </trkpt>
      <trkpt lat="47.56486" lon="-2.28175">
        <ele>9.4</ele>
        <time>2025-01-16T10:11:24Z</time>
      </trkpt>
      <trkpt lat="47.56485" lon="-2.28176">
        <ele>9.1</ele>
        <time>2025-01-16T10:11:25Z</time>
      </trkpt>
      <trkpt lat="47.56484" lon="-2.28176">
        <ele>8.8</ele>
        <time>2025-01-16T10:11:26Z</time>
      </trkpt>
      <trkpt lat="47.56483" lon="-2.28176">
        <ele>8.4</ele>
        <time>2025-01-16T10:11:27Z</time>
      </trkpt>
      <trkpt lat="47.56483" lon="-2.28176">
        <ele>8.4</ele>
        <time>2025-01-16T10:11:28Z</time>
      </trkpt>
      <trkpt lat="47.56483" lon="-2.28176">
        <ele>8.4</ele>
        <time>2025-01-16T10:11:29Z</time>
      </trkpt>
      <trkpt lat="47.56482" lon="-2.28176">
        <ele>8.1</ele>
        <time>2025-01-16T10:11:30Z</time>
      </trkpt>
      <trkpt lat="47.5648" lon="-2.28176">
        <ele>7.4</ele>
        <time>2025-01-16T10:11:31Z</time>
      </trkpt>
      <trkpt lat="47.56479" lon="-2.28176">
        <ele>7</ele>
        <time>2025-01-16T10:11:32Z</time>
      </trkpt>
      <trkpt lat="47.56478" lon="-2.28175">
        <ele>6.6</ele>
        <time>2025-01-16T10:11:33Z</time>
      </trkpt>
      <trkpt lat="47.56476" lon="-2.28174">
        <ele>5.8</ele>
        <time>2025-01-16T10:11:34Z</time>
      </trkpt>
      <trkpt lat="47.56475" lon="-2.28174">
        <ele>5.5</ele>
        <time>2025-01-16T10:11:35Z</time>
      </trkpt>
      <trkpt lat="47.56473" lon="-2.28174">
        <ele>4.8</ele>
        <time>2025-01-16T10:11:36Z</time>
      </trkpt>
      <trkpt lat="47.56472" lon="-2.28173">
        <ele>4.5</ele>
        <time>2025-01-16T10:11:37Z</time>
      </trkpt>
      <trkpt lat="47.56471" lon="-2.28173">
        <ele>4.5</ele>
        <time>2025-01-16T10:11:38Z</time>
      </trkpt>
      <trkpt lat="47.56471" lon="-2.28173">
        <ele>4.5</ele>
        <time>2025-01-16T10:11:39Z</time>
      </trkpt>
      <trkpt lat="47.56471" lon="-2.28173">
        <ele>4.5</ele>
        <time>2025-01-16T10:11:40Z</time>
      </trkpt>
      <trkpt lat="47.56471" lon="-2.28174">
        <ele>4.6</ele>
        <time>2025-01-16T10:11:41Z</time>
      </trkpt>
      <trkpt lat="47.56469" lon="-2.28174">
        <ele>4.7</ele>
        <time>2025-01-16T10:11:42Z</time>
      </trkpt>
      <trkpt lat="47.56468" lon="-2.28174">
        <ele>4.8</ele>
        <time>2025-01-16T10:11:43Z</time>
      </trkpt>
      <trkpt lat="47.56468" lon="-2.28174">
        <ele>4.8</ele>
        <time>2025-01-16T10:11:44Z</time>
      </trkpt>
      <trkpt lat="47.56466" lon="-2.28174">
        <ele>4.9</ele>
        <time>2025-01-16T10:11:45Z</time>
      </trkpt>
      <trkpt lat="47.56465" lon="-2.28173">
        <ele>4.9</ele>
        <time>2025-01-16T10:11:46Z</time>
      </trkpt>
      <trkpt lat="47.56464" lon="-2.28173">
        <ele>5</ele>
        <time>2025-01-16T10:11:47Z</time>
      </trkpt>
      <trkpt lat="47.56462" lon="-2.28172">
        <ele>5</ele>
        <time>2025-01-16T10:11:48Z</time>
      </trkpt>
      <trkpt lat="47.5646" lon="-2.28172">
        <ele>5.1</ele>
        <time>2025-01-16T10:11:49Z</time>
      </trkpt>
      <trkpt lat="47.56458" lon="-2.28172">
        <ele>5.2</ele>
        <time>2025-01-16T10:11:50Z</time>
      </trkpt>
      <trkpt lat="47.56456" lon="-2.28171">
        <ele>5.2</ele>
        <time>2025-01-16T10:11:51Z</time>
      </trkpt>
      <trkpt lat="47.56455" lon="-2.28171">
        <ele>5.2</ele>
        <time>2025-01-16T10:11:52Z</time>
      </trkpt>
      <trkpt lat="47.56454" lon="-2.28169">
        <ele>5</ele>
        <time>2025-01-16T10:11:53Z</time>
      </trkpt>
      <trkpt lat="47.56453" lon="-2.28168">
        <ele>4.9</ele>
        <time>2025-01-16T10:11:54Z</time>
      </trkpt>
      <trkpt lat="47.56452" lon="-2.28167">
        <ele>4.8</ele>
        <time>2025-01-16T10:11:55Z</time>
      </trkpt>
      <trkpt lat="47.56451" lon="-2.28168">
        <ele>5</ele>
        <time>2025-01-16T10:11:56Z</time>
      </trkpt>
      <trkpt lat="47.5645" lon="-2.28168">
        <ele>5</ele>
        <time>2025-01-16T10:11:57Z</time>
      </trkpt>
      <trkpt lat="47.56449" lon="-2.28166">
        <ele>4.8</ele>
        <time>2025-01-16T10:11:58Z</time>
      </trkpt>
      <trkpt lat="47.56448" lon="-2.28165">
        <ele>4.8</ele>
        <time>2025-01-16T10:11:59Z</time>
      </trkpt>
      <trkpt lat="47.56446" lon="-2.28165">
        <ele>4.8</ele>
        <time>2025-01-16T10:12:00Z</time>
      </trkpt>
      <trkpt lat="47.56445" lon="-2.28166">
        <ele>4.9</ele>
        <time>2025-01-16T10:12:01Z</time>
      </trkpt>
      <trkpt lat="47.56445" lon="-2.28167">
        <ele>5</ele>
        <time>2025-01-16T10:12:02Z</time>
      </trkpt>
      <trkpt lat="47.56444" lon="-2.28167">
        <ele>5.1</ele>
        <time>2025-01-16T10:12:03Z</time>
      </trkpt>
      <trkpt lat="47.56443" lon="-2.28167">
        <ele>5.2</ele>
        <time>2025-01-16T10:12:04Z</time>
      </trkpt>
      <trkpt lat="47.56442" lon="-2.28167">
        <ele>5.2</ele>
        <time>2025-01-16T10:12:05Z</time>
      </trkpt>
      <trkpt lat="47.5644" lon="-2.28167">
        <ele>5.4</ele>
        <time>2025-01-16T10:12:06Z</time>
      </trkpt>
      <trkpt lat="47.56439" lon="-2.28167">
        <ele>5.4</ele>
        <time>2025-01-16T10:12:07Z</time>
      </trkpt>
      <trkpt lat="47.56437" lon="-2.28167">
        <ele>5.6</ele>
        <time>2025-01-16T10:12:08Z</time>
      </trkpt>
      <trkpt lat="47.56435" lon="-2.28166">
        <ele>5.6</ele>
        <time>2025-01-16T10:12:09Z</time>
      </trkpt>
      <trkpt lat="47.56434" lon="-2.28165">
        <ele>5.6</ele>
        <time>2025-01-16T10:12:10Z</time>
      </trkpt>
      <trkpt lat="47.56432" lon="-2.28165">
        <ele>5.7</ele>
        <time>2025-01-16T10:12:11Z</time>
      </trkpt>
      <trkpt lat="47.5643" lon="-2.28166">
        <ele>6</ele>
        <time>2025-01-16T10:12:12Z</time>
      </trkpt>
      <trkpt lat="47.56428" lon="-2.28167">
        <ele>6.2</ele>
        <time>2025-01-16T10:12:13Z</time>
      </trkpt>
      <trkpt lat="47.56427" lon="-2.28167">
        <ele>6.3</ele>
        <time>2025-01-16T10:12:14Z</time>
      </trkpt>
      <trkpt lat="47.56426" lon="-2.28167">
        <ele>6.4</ele>
        <time>2025-01-16T10:12:15Z</time>
      </trkpt>
      <trkpt lat="47.56425" lon="-2.28166">
        <ele>6.3</ele>
        <time>2025-01-16T10:12:16Z</time>
      </trkpt>
      <trkpt lat="47.56424" lon="-2.28166">
        <ele>6.4</ele>
        <time>2025-01-16T10:12:17Z</time>
      </trkpt>
      <trkpt lat="47.56422" lon="-2.28166">
        <ele>6.5</ele>
        <time>2025-01-16T10:12:18Z</time>
      </trkpt>
      <trkpt lat="47.5642" lon="-2.28165">
        <ele>6.5</ele>
        <time>2025-01-16T10:12:19Z</time>
      </trkpt>
      <trkpt lat="47.56418" lon="-2.28165">
        <ele>6.7</ele>
        <time>2025-01-16T10:12:20Z</time>
      </trkpt>
      <trkpt lat="47.56416" lon="-2.28164">
        <ele>6.6</ele>
        <time>2025-01-16T10:12:21Z</time>
      </trkpt>
      <trkpt lat="47.56415" lon="-2.28164">
        <ele>6.7</ele>
        <time>2025-01-16T10:12:22Z</time>
      </trkpt>
      <trkpt lat="47.56413" lon="-2.28164">
        <ele>6.7</ele>
        <time>2025-01-16T10:12:23Z</time>
      </trkpt>
      <trkpt lat="47.56412" lon="-2.28163">
        <ele>6.6</ele>
        <time>2025-01-16T10:12:24Z</time>
      </trkpt>
      <trkpt lat="47.5641" lon="-2.28163">
        <ele>6.7</ele>
        <time>2025-01-16T10:12:25Z</time>
      </trkpt>
      <trkpt lat="47.56409" lon="-2.28162">
        <ele>6.6</ele>
        <time>2025-01-16T10:12:26Z</time>
      </trkpt>
      <trkpt lat="47.56408" lon="-2.2816">
        <ele>6.3</ele>
        <time>2025-01-16T10:12:27Z</time>
      </trkpt>
      <trkpt lat="47.56407" lon="-2.28159">
        <ele>6.1</ele>
        <time>2025-01-16T10:12:28Z</time>
      </trkpt>
      <trkpt lat="47.56405" lon="-2.28158">
        <ele>6</ele>
        <time>2025-01-16T10:12:29Z</time>
      </trkpt>
      <trkpt lat="47.56404" lon="-2.28157">
        <ele>5.9</ele>
        <time>2025-01-16T10:12:30Z</time>
      </trkpt>
      <trkpt lat="47.56403" lon="-2.28157">
        <ele>5.9</ele>
        <time>2025-01-16T10:12:31Z</time>
      </trkpt>
      <trkpt lat="47.56402" lon="-2.28157">
        <ele>6</ele>
        <time>2025-01-16T10:12:32Z</time>
      </trkpt>
      <trkpt lat="47.56402" lon="-2.28156">
        <ele>5.8</ele>
        <time>2025-01-16T10:12:33Z</time>
      </trkpt>
      <trkpt lat="47.56401" lon="-2.28156">
        <ele>5.8</ele>
        <time>2025-01-16T10:12:34Z</time>
      </trkpt>
      <trkpt lat="47.564" lon="-2.28155">
        <ele>5.7</ele>
        <time>2025-01-16T10:12:35Z</time>
      </trkpt>
      <trkpt lat="47.56398" lon="-2.28155">
        <ele>5.7</ele>
        <time>2025-01-16T10:12:36Z</time>
      </trkpt>
      <trkpt lat="47.56397" lon="-2.28154">
        <ele>5.6</ele>
        <time>2025-01-16T10:12:37Z</time>
      </trkpt>
      <trkpt lat="47.56396" lon="-2.28154">
        <ele>5.6</ele>
        <time>2025-01-16T10:12:38Z</time>
      </trkpt>
      <trkpt lat="47.56395" lon="-2.28154">
        <ele>5.6</ele>
        <time>2025-01-16T10:12:39Z</time>
      </trkpt>
      <trkpt lat="47.56394" lon="-2.28154">
        <ele>5.6</ele>
        <time>2025-01-16T10:12:40Z</time>
      </trkpt>
      <trkpt lat="47.56393" lon="-2.28153">
        <ele>5.5</ele>
        <time>2025-01-16T10:12:41Z</time>
      </trkpt>
      <trkpt lat="47.56392" lon="-2.28153">
        <ele>5.5</ele>
        <time>2025-01-16T10:12:42Z</time>
      </trkpt>
      <trkpt lat="47.56391" lon="-2.28153">
        <ele>5.5</ele>
        <time>2025-01-16T10:12:43Z</time>
      </trkpt>
      <trkpt lat="47.56391" lon="-2.28152">
        <ele>5.3</ele>
        <time>2025-01-16T10:12:44Z</time>
      </trkpt>
      <trkpt lat="47.56389" lon="-2.28151">
        <ele>5.2</ele>
        <time>2025-01-16T10:12:45Z</time>
      </trkpt>
      <trkpt lat="47.56388" lon="-2.28151">
        <ele>5.2</ele>
        <time>2025-01-16T10:12:46Z</time>
      </trkpt>
      <trkpt lat="47.56387" lon="-2.2815">
        <ele>5</ele>
        <time>2025-01-16T10:12:47Z</time>
      </trkpt>
      <trkpt lat="47.56385" lon="-2.2815">
        <ele>5</ele>
        <time>2025-01-16T10:12:48Z</time>
      </trkpt>
      <trkpt lat="47.56384" lon="-2.28149">
        <ele>4.9</ele>
        <time>2025-01-16T10:12:49Z</time>
      </trkpt>
      <trkpt lat="47.56382" lon="-2.28148">
        <ele>4.7</ele>
        <time>2025-01-16T10:12:50Z</time>
      </trkpt>
      <trkpt lat="47.5638" lon="-2.28147">
        <ele>4.6</ele>
        <time>2025-01-16T10:12:51Z</time>
      </trkpt>
      <trkpt lat="47.56379" lon="-2.28147">
        <ele>4.6</ele>
        <time>2025-01-16T10:12:52Z</time>
      </trkpt>
      <trkpt lat="47.56378" lon="-2.28146">
        <ele>4.5</ele>
        <time>2025-01-16T10:12:53Z</time>
      </trkpt>
      <trkpt lat="47.56379" lon="-2.28147">
        <ele>4.6</ele>
        <time>2025-01-16T10:12:54Z</time>
      </trkpt>
      <trkpt lat="47.56379" lon="-2.28147">
        <ele>4.6</ele>
        <time>2025-01-16T10:12:55Z</time>
      </trkpt>
      <trkpt lat="47.56378" lon="-2.28147">
        <ele>4.6</ele>
        <time>2025-01-16T10:12:56Z</time>
      </trkpt>
      <trkpt lat="47.56376" lon="-2.28147">
        <ele>4.7</ele>
        <time>2025-01-16T10:12:57Z</time>
      </trkpt>
      <trkpt lat="47.56375" lon="-2.28148">
        <ele>4.8</ele>
        <time>2025-01-16T10:12:58Z</time>
      </trkpt>
      <trkpt lat="47.56373" lon="-2.28148">
        <ele>4.8</ele>
        <time>2025-01-16T10:12:59Z</time>
      </trkpt>
      <trkpt lat="47.56372" lon="-2.28148">
        <ele>4.8</ele>
        <time>2025-01-16T10:13:00Z</time>
      </trkpt>
      <trkpt lat="47.56371" lon="-2.28149">
        <ele>5</ele>
        <time>2025-01-16T10:13:01Z</time>
      </trkpt>
      <trkpt lat="47.5637" lon="-2.28149">
        <ele>5</ele>
        <time>2025-01-16T10:13:02Z</time>
      </trkpt>
      <trkpt lat="47.56368" lon="-2.28149">
        <ele>5</ele>
        <time>2025-01-16T10:13:03Z</time>
      </trkpt>
      <trkpt lat="47.56367" lon="-2.28148">
        <ele>4.9</ele>
        <time>2025-01-16T10:13:04Z</time>
      </trkpt>
      <trkpt lat="47.56365" lon="-2.28148">
        <ele>4.9</ele>
        <time>2025-01-16T10:13:05Z</time>
      </trkpt>
      <trkpt lat="47.56364" lon="-2.28148">
        <ele>4.9</ele>
        <time>2025-01-16T10:13:06Z</time>
      </trkpt>
      <trkpt lat="47.56363" lon="-2.28147">
        <ele>4.8</ele>
        <time>2025-01-16T10:13:07Z</time>
      </trkpt>
      <trkpt lat="47.56361" lon="-2.28148">
        <ele>5</ele>
        <time>2025-01-16T10:13:08Z</time>
      </trkpt>
      <trkpt lat="47.56361" lon="-2.28148">
        <ele>5</ele>
        <time>2025-01-16T10:13:09Z</time>
      </trkpt>
      <trkpt lat="47.5636" lon="-2.28148">
        <ele>4.9</ele>
        <time>2025-01-16T10:13:10Z</time>
      </trkpt>
      <trkpt lat="47.5636" lon="-2.28149">
        <ele>5</ele>
        <time>2025-01-16T10:13:11Z</time>
      </trkpt>
      <trkpt lat="47.5636" lon="-2.28149">
        <ele>5</ele>
        <time>2025-01-16T10:13:12Z</time>
      </trkpt>
      <trkpt lat="47.56359" lon="-2.28149">
        <ele>5</ele>
        <time>2025-01-16T10:13:13Z</time>
      </trkpt>
      <trkpt lat="47.56358" lon="-2.28149">
        <ele>4.9</ele>
        <time>2025-01-16T10:13:14Z</time>
      </trkpt>
      <trkpt lat="47.56356" lon="-2.2815">
        <ele>4.9</ele>
        <time>2025-01-16T10:13:15Z</time>
      </trkpt>
      <trkpt lat="47.56355" lon="-2.2815">
        <ele>4.8</ele>
        <time>2025-01-16T10:13:16Z</time>
      </trkpt>
      <trkpt lat="47.56354" lon="-2.28151">
        <ele>4.8</ele>
        <time>2025-01-16T10:13:17Z</time>
      </trkpt>
      <trkpt lat="47.56353" lon="-2.28153">
        <ele>4.9</ele>
        <time>2025-01-16T10:13:18Z</time>
      </trkpt>
      <trkpt lat="47.56351" lon="-2.28154">
        <ele>4.9</ele>
        <time>2025-01-16T10:13:19Z</time>
      </trkpt>
      <trkpt lat="47.5635" lon="-2.28155">
        <ele>4.9</ele>
        <time>2025-01-16T10:13:20Z</time>
      </trkpt>
      <trkpt lat="47.56349" lon="-2.28156">
        <ele>4.9</ele>
        <time>2025-01-16T10:13:21Z</time>
      </trkpt>
      <trkpt lat="47.56348" lon="-2.28157">
        <ele>4.9</ele>
        <time>2025-01-16T10:13:22Z</time>
      </trkpt>
      <trkpt lat="47.56347" lon="-2.28158">
        <ele>4.9</ele>
        <time>2025-01-16T10:13:23Z</time>
      </trkpt>
      <trkpt lat="47.56346" lon="-2.2816">
        <ele>4.9</ele>
        <time>2025-01-16T10:13:24Z</time>
      </trkpt>
      <trkpt lat="47.56345" lon="-2.28162">
        <ele>5</ele>
        <time>2025-01-16T10:13:25Z</time>
      </trkpt>
      <trkpt lat="47.56344" lon="-2.28164">
        <ele>5</ele>
        <time>2025-01-16T10:13:26Z</time>
      </trkpt>
      <trkpt lat="47.56343" lon="-2.28166">
        <ele>5</ele>
        <time>2025-01-16T10:13:27Z</time>
      </trkpt>
      <trkpt lat="47.56342" lon="-2.28167">
        <ele>5</ele>
        <time>2025-01-16T10:13:28Z</time>
      </trkpt>
      <trkpt lat="47.56341" lon="-2.28168">
        <ele>5</ele>
        <time>2025-01-16T10:13:29Z</time>
      </trkpt>
      <trkpt lat="47.5634" lon="-2.28169">
        <ele>5</ele>
        <time>2025-01-16T10:13:30Z</time>
      </trkpt>
      <trkpt lat="47.56339" lon="-2.2817">
        <ele>5</ele>
        <time>2025-01-16T10:13:31Z</time>
      </trkpt>
      <trkpt lat="47.56338" lon="-2.28171">
        <ele>5</ele>
        <time>2025-01-16T10:13:32Z</time>
      </trkpt>
      <trkpt lat="47.56337" lon="-2.28172">
        <ele>5</ele>
        <time>2025-01-16T10:13:33Z</time>
      </trkpt>
      <trkpt lat="47.56336" lon="-2.28172">
        <ele>4.9</ele>
        <time>2025-01-16T10:13:34Z</time>
      </trkpt>
      <trkpt lat="47.56336" lon="-2.28172">
        <ele>4.9</ele>
        <time>2025-01-16T10:13:35Z</time>
      </trkpt>
      <trkpt lat="47.56336" lon="-2.28172">
        <ele>4.9</ele>
        <time>2025-01-16T10:13:36Z</time>
      </trkpt>
      <trkpt lat="47.56334" lon="-2.28173">
        <ele>4.8</ele>
        <time>2025-01-16T10:13:37Z</time>
      </trkpt>
      <trkpt lat="47.56333" lon="-2.28175">
        <ele>4.9</ele>
        <time>2025-01-16T10:13:38Z</time>
      </trkpt>
      <trkpt lat="47.56332" lon="-2.28176">
        <ele>5</ele>
        <time>2025-01-16T10:13:39Z</time>
      </trkpt>
      <trkpt lat="47.56331" lon="-2.28176">
        <ele>5.1</ele>
        <time>2025-01-16T10:13:40Z</time>
      </trkpt>
      <trkpt lat="47.5633" lon="-2.28177">
        <ele>5.2</ele>
        <time>2025-01-16T10:13:41Z</time>
      </trkpt>
      <trkpt lat="47.56328" lon="-2.28178">
        <ele>5.4</ele>
        <time>2025-01-16T10:13:42Z</time>
      </trkpt>
      <trkpt lat="47.56326" lon="-2.28179">
        <ele>5.6</ele>
        <time>2025-01-16T10:13:43Z</time>
      </trkpt>
      <trkpt lat="47.56325" lon="-2.28179">
        <ele>5.6</ele>
        <time>2025-01-16T10:13:44Z</time>
      </trkpt>
      <trkpt lat="47.56324" lon="-2.28179">
        <ele>5.6</ele>
        <time>2025-01-16T10:13:45Z</time>
      </trkpt>
      <trkpt lat="47.56322" lon="-2.28179">
        <ele>5.7</ele>
        <time>2025-01-16T10:13:46Z</time>
      </trkpt>
      <trkpt lat="47.5632" lon="-2.28179">
        <ele>5.8</ele>
        <time>2025-01-16T10:13:47Z</time>
      </trkpt>
      <trkpt lat="47.56318" lon="-2.28179">
        <ele>5.8</ele>
        <time>2025-01-16T10:13:48Z</time>
      </trkpt>
      <trkpt lat="47.56317" lon="-2.28179">
        <ele>5.9</ele>
        <time>2025-01-16T10:13:49Z</time>
      </trkpt>
      <trkpt lat="47.56316" lon="-2.28178">
        <ele>5.7</ele>
        <time>2025-01-16T10:13:50Z</time>
      </trkpt>
      <trkpt lat="47.56316" lon="-2.28178">
        <ele>5.7</ele>
        <time>2025-01-16T10:13:51Z</time>
      </trkpt>
      <trkpt lat="47.56315" lon="-2.28177">
        <ele>5.6</ele>
        <time>2025-01-16T10:13:52Z</time>
      </trkpt>
      <trkpt lat="47.56314" lon="-2.28176">
        <ele>5.5</ele>
        <time>2025-01-16T10:13:53Z</time>
      </trkpt>
      <trkpt lat="47.56312" lon="-2.28175">
        <ele>5.4</ele>
        <time>2025-01-16T10:13:54Z</time>
      </trkpt>
      <trkpt lat="47.56311" lon="-2.28174">
        <ele>5.2</ele>
        <time>2025-01-16T10:13:55Z</time>
      </trkpt>
      <trkpt lat="47.5631" lon="-2.28173">
        <ele>5.1</ele>
        <time>2025-01-16T10:13:56Z</time>
      </trkpt>
      <trkpt lat="47.56309" lon="-2.28172">
        <ele>4.9</ele>
        <time>2025-01-16T10:13:57Z</time>
      </trkpt>
      <trkpt lat="47.56308" lon="-2.28171">
        <ele>4.8</ele>
        <time>2025-01-16T10:13:58Z</time>
      </trkpt>
      <trkpt lat="47.56307" lon="-2.2817">
        <ele>4.6</ele>
        <time>2025-01-16T10:13:59Z</time>
      </trkpt>
      <trkpt lat="47.56306" lon="-2.28169">
        <ele>4.4</ele>
        <time>2025-01-16T10:14:00Z</time>
      </trkpt>
      <trkpt lat="47.56305" lon="-2.28169">
        <ele>4.4</ele>
        <time>2025-01-16T10:14:01Z</time>
      </trkpt>
      <trkpt lat="47.56304" lon="-2.28168">
        <ele>4.3</ele>
        <time>2025-01-16T10:14:02Z</time>
      </trkpt>
      <trkpt lat="47.56303" lon="-2.28168">
        <ele>4.3</ele>
        <time>2025-01-16T10:14:03Z</time>
      </trkpt>
      <trkpt lat="47.56302" lon="-2.28168">
        <ele>4.4</ele>
        <time>2025-01-16T10:14:04Z</time>
      </trkpt>
      <trkpt lat="47.563" lon="-2.28167">
        <ele>4.3</ele>
        <time>2025-01-16T10:14:05Z</time>
      </trkpt>
      <trkpt lat="47.56298" lon="-2.28166">
        <ele>4.2</ele>
        <time>2025-01-16T10:14:06Z</time>
      </trkpt>
      <trkpt lat="47.56297" lon="-2.28166">
        <ele>4.3</ele>
        <time>2025-01-16T10:14:07Z</time>
      </trkpt>
      <trkpt lat="47.56295" lon="-2.28166">
        <ele>4.3</ele>
        <time>2025-01-16T10:14:08Z</time>
      </trkpt>
      <trkpt lat="47.56293" lon="-2.28166">
        <ele>4.4</ele>
        <time>2025-01-16T10:14:09Z</time>
      </trkpt>
      <trkpt lat="47.56291" lon="-2.28166">
        <ele>4.5</ele>
        <time>2025-01-16T10:14:10Z</time>
      </trkpt>
      <trkpt lat="47.5629" lon="-2.28167">
        <ele>4.6</ele>
        <time>2025-01-16T10:14:11Z</time>
      </trkpt>
      <trkpt lat="47.56289" lon="-2.28168">
        <ele>4.8</ele>
        <time>2025-01-16T10:14:12Z</time>
      </trkpt>
      <trkpt lat="47.56288" lon="-2.28169">
        <ele>5.1</ele>
        <time>2025-01-16T10:14:13Z</time>
      </trkpt>
      <trkpt lat="47.56286" lon="-2.2817">
        <ele>5.3</ele>
        <time>2025-01-16T10:14:14Z</time>
      </trkpt>
      <trkpt lat="47.56286" lon="-2.28172">
        <ele>5.7</ele>
        <time>2025-01-16T10:14:15Z</time>
      </trkpt>
      <trkpt lat="47.56286" lon="-2.28173">
        <ele>5.8</ele>
        <time>2025-01-16T10:14:16Z</time>
      </trkpt>
      <trkpt lat="47.56285" lon="-2.28174">
        <ele>6.1</ele>
        <time>2025-01-16T10:14:17Z</time>
      </trkpt>
      <trkpt lat="47.56283" lon="-2.28174">
        <ele>6.1</ele>
        <time>2025-01-16T10:14:18Z</time>
      </trkpt>
      <trkpt lat="47.56283" lon="-2.28174">
        <ele>6.1</ele>
        <time>2025-01-16T10:14:19Z</time>
      </trkpt>
      <trkpt lat="47.56281" lon="-2.28173">
        <ele>6</ele>
        <time>2025-01-16T10:14:20Z</time>
      </trkpt>
      <trkpt lat="47.56281" lon="-2.28172">
        <ele>5.8</ele>
        <time>2025-01-16T10:14:21Z</time>
      </trkpt>
      <trkpt lat="47.56281" lon="-2.28171">
        <ele>5.7</ele>
        <time>2025-01-16T10:14:22Z</time>
      </trkpt>
      <trkpt lat="47.5628" lon="-2.2817">
        <ele>5.5</ele>
        <time>2025-01-16T10:14:23Z</time>
      </trkpt>
      <trkpt lat="47.56278" lon="-2.28168">
        <ele>5.2</ele>
        <time>2025-01-16T10:14:24Z</time>
      </trkpt>
      <trkpt lat="47.56278" lon="-2.28167">
        <ele>5.1</ele>
        <time>2025-01-16T10:14:25Z</time>
      </trkpt>
      <trkpt lat="47.56278" lon="-2.28167">
        <ele>5.1</ele>
        <time>2025-01-16T10:14:26Z</time>
      </trkpt>
      <trkpt lat="47.56277" lon="-2.28168">
        <ele>5.2</ele>
        <time>2025-01-16T10:14:27Z</time>
      </trkpt>
      <trkpt lat="47.56275" lon="-2.28168">
        <ele>5.2</ele>
        <time>2025-01-16T10:14:28Z</time>
      </trkpt>
      <trkpt lat="47.56274" lon="-2.28168">
        <ele>5.2</ele>
        <time>2025-01-16T10:14:29Z</time>
      </trkpt>
      <trkpt lat="47.56272" lon="-2.28168">
        <ele>5.2</ele>
        <time>2025-01-16T10:14:30Z</time>
      </trkpt>
      <trkpt lat="47.56271" lon="-2.28168">
        <ele>5.2</ele>
        <time>2025-01-16T10:14:31Z</time>
      </trkpt>
      <trkpt lat="47.56269" lon="-2.28168">
        <ele>5.2</ele>
        <time>2025-01-16T10:14:32Z</time>
      </trkpt>
      <trkpt lat="47.56267" lon="-2.28168">
        <ele>5.2</ele>
        <time>2025-01-16T10:14:33Z</time>
      </trkpt>
      <trkpt lat="47.56265" lon="-2.28168">
        <ele>5.2</ele>
        <time>2025-01-16T10:14:34Z</time>
      </trkpt>
      <trkpt lat="47.56263" lon="-2.28168">
        <ele>5.2</ele>
        <time>2025-01-16T10:14:35Z</time>
      </trkpt>
      <trkpt lat="47.56261" lon="-2.28169">
        <ele>5.4</ele>
        <time>2025-01-16T10:14:36Z</time>
      </trkpt>
      <trkpt lat="47.5626" lon="-2.28169">
        <ele>5.4</ele>
        <time>2025-01-16T10:14:37Z</time>
      </trkpt>
      <trkpt lat="47.56258" lon="-2.28169">
        <ele>5.4</ele>
        <time>2025-01-16T10:14:38Z</time>
      </trkpt>
      <trkpt lat="47.56258" lon="-2.28169">
        <ele>5.4</ele>
        <time>2025-01-16T10:14:39Z</time>
      </trkpt>
      <trkpt lat="47.56257" lon="-2.2817">
        <ele>5.5</ele>
        <time>2025-01-16T10:14:40Z</time>
      </trkpt>
      <trkpt lat="47.56256" lon="-2.2817">
        <ele>5.5</ele>
        <time>2025-01-16T10:14:41Z</time>
      </trkpt>
      <trkpt lat="47.56256" lon="-2.28171">
        <ele>5.7</ele>
        <time>2025-01-16T10:14:42Z</time>
      </trkpt>
      <trkpt lat="47.56255" lon="-2.28171">
        <ele>5.7</ele>
        <time>2025-01-16T10:14:43Z</time>
      </trkpt>
      <trkpt lat="47.56254" lon="-2.28171">
        <ele>5.6</ele>
        <time>2025-01-16T10:14:44Z</time>
      </trkpt>
      <trkpt lat="47.56253" lon="-2.28171">
        <ele>5.6</ele>
        <time>2025-01-16T10:14:45Z</time>
      </trkpt>
      <trkpt lat="47.56252" lon="-2.28172">
        <ele>5.8</ele>
        <time>2025-01-16T10:14:46Z</time>
      </trkpt>
      <trkpt lat="47.56251" lon="-2.28173">
        <ele>5.9</ele>
        <time>2025-01-16T10:14:47Z</time>
      </trkpt>
      <trkpt lat="47.56249" lon="-2.28173">
        <ele>5.9</ele>
        <time>2025-01-16T10:14:48Z</time>
      </trkpt>
      <trkpt lat="47.56248" lon="-2.28174">
        <ele>6</ele>
        <time>2025-01-16T10:14:49Z</time>
      </trkpt>
      <trkpt lat="47.56247" lon="-2.28174">
        <ele>5.9</ele>
        <time>2025-01-16T10:14:50Z</time>
      </trkpt>
      <trkpt lat="47.56246" lon="-2.28175">
        <ele>6.1</ele>
        <time>2025-01-16T10:14:51Z</time>
      </trkpt>
      <trkpt lat="47.56244" lon="-2.28175">
        <ele>6</ele>
        <time>2025-01-16T10:14:52Z</time>
      </trkpt>
      <trkpt lat="47.56243" lon="-2.28174">
        <ele>5.8</ele>
        <time>2025-01-16T10:14:53Z</time>
      </trkpt>
      <trkpt lat="47.56241" lon="-2.28174">
        <ele>5.7</ele>
        <time>2025-01-16T10:14:54Z</time>
      </trkpt>
      <trkpt lat="47.5624" lon="-2.28174">
        <ele>5.7</ele>
        <time>2025-01-16T10:14:55Z</time>
      </trkpt>
      <trkpt lat="47.56238" lon="-2.28175">
        <ele>5.8</ele>
        <time>2025-01-16T10:14:56Z</time>
      </trkpt>
      <trkpt lat="47.56237" lon="-2.28175">
        <ele>5.7</ele>
        <time>2025-01-16T10:14:57Z</time>
      </trkpt>
      <trkpt lat="47.56237" lon="-2.28176">
        <ele>5.9</ele>
        <time>2025-01-16T10:14:58Z</time>
      </trkpt>
      <trkpt lat="47.56237" lon="-2.28176">
        <ele>5.9</ele>
        <time>2025-01-16T10:14:59Z</time>
      </trkpt>
      <trkpt lat="47.56236" lon="-2.28176">
        <ele>5.8</ele>
        <time>2025-01-16T10:15:00Z</time>
      </trkpt>
      <trkpt lat="47.56236" lon="-2.28176">
        <ele>5.8</ele>
        <time>2025-01-16T10:15:01Z</time>
      </trkpt>
      <trkpt lat="47.56235" lon="-2.28176">
        <ele>5.8</ele>
        <time>2025-01-16T10:15:02Z</time>
      </trkpt>
      <trkpt lat="47.56233" lon="-2.28176">
        <ele>5.7</ele>
        <time>2025-01-16T10:15:03Z</time>
      </trkpt>
      <trkpt lat="47.56232" lon="-2.28177">
        <ele>5.8</ele>
        <time>2025-01-16T10:15:04Z</time>
      </trkpt>
      <trkpt lat="47.56231" lon="-2.28177">
        <ele>5.8</ele>
        <time>2025-01-16T10:15:05Z</time>
      </trkpt>
      <trkpt lat="47.5623" lon="-2.28178">
        <ele>5.9</ele>
        <time>2025-01-16T10:15:06Z</time>
      </trkpt>
      <trkpt lat="47.56228" lon="-2.28178">
        <ele>5.8</ele>
        <time>2025-01-16T10:15:07Z</time>
      </trkpt>
      <trkpt lat="47.56227" lon="-2.28179">
        <ele>5.9</ele>
        <time>2025-01-16T10:15:08Z</time>
      </trkpt>
      <trkpt lat="47.56226" lon="-2.2818">
        <ele>6.1</ele>
        <time>2025-01-16T10:15:09Z</time>
      </trkpt>
      <trkpt lat="47.56225" lon="-2.28181">
        <ele>6.2</ele>
        <time>2025-01-16T10:15:10Z</time>
      </trkpt>
      <trkpt lat="47.56224" lon="-2.28182">
        <ele>6.3</ele>
        <time>2025-01-16T10:15:11Z</time>
      </trkpt>
      <trkpt lat="47.56223" lon="-2.28183">
        <ele>6.4</ele>
        <time>2025-01-16T10:15:12Z</time>
      </trkpt>
      <trkpt lat="47.56222" lon="-2.28183">
        <ele>6.3</ele>
        <time>2025-01-16T10:15:13Z</time>
      </trkpt>
      <trkpt lat="47.56221" lon="-2.28184">
        <ele>6.4</ele>
        <time>2025-01-16T10:15:14Z</time>
      </trkpt>
      <trkpt lat="47.56221" lon="-2.28185">
        <ele>6.6</ele>
        <time>2025-01-16T10:15:15Z</time>
      </trkpt>
      <trkpt lat="47.5622" lon="-2.28186">
        <ele>6.6</ele>
        <time>2025-01-16T10:15:16Z</time>
      </trkpt>
      <trkpt lat="47.56219" lon="-2.28187">
        <ele>6.7</ele>
        <time>2025-01-16T10:15:17Z</time>
      </trkpt>
      <trkpt lat="47.56218" lon="-2.28188">
        <ele>6.8</ele>
        <time>2025-01-16T10:15:18Z</time>
      </trkpt>
      <trkpt lat="47.56217" lon="-2.28189">
        <ele>6.9</ele>
        <time>2025-01-16T10:15:19Z</time>
      </trkpt>
      <trkpt lat="47.56216" lon="-2.2819">
        <ele>6.9</ele>
        <time>2025-01-16T10:15:20Z</time>
      </trkpt>
      <trkpt lat="47.56215" lon="-2.28191">
        <ele>7</ele>
        <time>2025-01-16T10:15:21Z</time>
      </trkpt>
      <trkpt lat="47.56214" lon="-2.28191">
        <ele>6.9</ele>
        <time>2025-01-16T10:15:22Z</time>
      </trkpt>
      <trkpt lat="47.56213" lon="-2.28192">
        <ele>7</ele>
        <time>2025-01-16T10:15:23Z</time>
      </trkpt>
      <trkpt lat="47.56212" lon="-2.28192">
        <ele>6.9</ele>
        <time>2025-01-16T10:15:24Z</time>
      </trkpt>
      <trkpt lat="47.56211" lon="-2.28192">
        <ele>6.9</ele>
        <time>2025-01-16T10:15:25Z</time>
      </trkpt>
      <trkpt lat="47.5621" lon="-2.28193">
        <ele>6.9</ele>
        <time>2025-01-16T10:15:26Z</time>
      </trkpt>
      <trkpt lat="47.56209" lon="-2.28194">
        <ele>7</ele>
        <time>2025-01-16T10:15:27Z</time>
      </trkpt>
      <trkpt lat="47.56208" lon="-2.28195">
        <ele>7</ele>
        <time>2025-01-16T10:15:28Z</time>
      </trkpt>
      <trkpt lat="47.56208" lon="-2.28197">
        <ele>7.3</ele>
        <time>2025-01-16T10:15:29Z</time>
      </trkpt>
      <trkpt lat="47.56207" lon="-2.28198">
        <ele>7.4</ele>
        <time>2025-01-16T10:15:30Z</time>
      </trkpt>
      <trkpt lat="47.56207" lon="-2.282">
        <ele>7.6</ele>
        <time>2025-01-16T10:15:31Z</time>
      </trkpt>
      <trkpt lat="47.56206" lon="-2.28201">
        <ele>7.7</ele>
        <time>2025-01-16T10:15:32Z</time>
      </trkpt>
      <trkpt lat="47.56205" lon="-2.28203">
        <ele>7.9</ele>
        <time>2025-01-16T10:15:33Z</time>
      </trkpt>
      <trkpt lat="47.56204" lon="-2.28205">
        <ele>8.1</ele>
        <time>2025-01-16T10:15:34Z</time>
      </trkpt>
      <trkpt lat="47.56203" lon="-2.28206">
        <ele>8.2</ele>
        <time>2025-01-16T10:15:35Z</time>
      </trkpt>
      <trkpt lat="47.56203" lon="-2.28207">
        <ele>8.3</ele>
        <time>2025-01-16T10:15:36Z</time>
      </trkpt>
      <trkpt lat="47.56202" lon="-2.28209">
        <ele>8.5</ele>
        <time>2025-01-16T10:15:37Z</time>
      </trkpt>
      <trkpt lat="47.56202" lon="-2.28211">
        <ele>8.8</ele>
        <time>2025-01-16T10:15:38Z</time>
      </trkpt>
      <trkpt lat="47.56201" lon="-2.28212">
        <ele>8.9</ele>
        <time>2025-01-16T10:15:39Z</time>
      </trkpt>
      <trkpt lat="47.56201" lon="-2.28213">
        <ele>9</ele>
        <time>2025-01-16T10:15:40Z</time>
      </trkpt>
      <trkpt lat="47.56201" lon="-2.28214">
        <ele>9.1</ele>
        <time>2025-01-16T10:15:41Z</time>
      </trkpt>
      <trkpt lat="47.56201" lon="-2.28215">
        <ele>9.3</ele>
        <time>2025-01-16T10:15:42Z</time>
      </trkpt>
      <trkpt lat="47.56201" lon="-2.28217">
        <ele>9.5</ele>
        <time>2025-01-16T10:15:43Z</time>
      </trkpt>
      <trkpt lat="47.56202" lon="-2.28218">
        <ele>9.7</ele>
        <time>2025-01-16T10:15:44Z</time>
      </trkpt>
      <trkpt lat="47.56202" lon="-2.2822">
        <ele>10</ele>
        <time>2025-01-16T10:15:45Z</time>
      </trkpt>
      <trkpt lat="47.56202" lon="-2.28221">
        <ele>10.1</ele>
        <time>2025-01-16T10:15:46Z</time>
      </trkpt>
      <trkpt lat="47.56203" lon="-2.28222">
        <ele>10.3</ele>
        <time>2025-01-16T10:15:47Z</time>
      </trkpt>
      <trkpt lat="47.56204" lon="-2.28223">
        <ele>10.4</ele>
        <time>2025-01-16T10:15:48Z</time>
      </trkpt>
      <trkpt lat="47.56204" lon="-2.28225">
        <ele>10.5</ele>
        <time>2025-01-16T10:15:49Z</time>
      </trkpt>
      <trkpt lat="47.56205" lon="-2.28226">
        <ele>10.6</ele>
        <time>2025-01-16T10:15:50Z</time>
      </trkpt>
      <trkpt lat="47.56205" lon="-2.28227">
        <ele>10.6</ele>
        <time>2025-01-16T10:15:51Z</time>
      </trkpt>
      <trkpt lat="47.56206" lon="-2.28228">
        <ele>10.7</ele>
        <time>2025-01-16T10:15:52Z</time>
      </trkpt>
      <trkpt lat="47.56206" lon="-2.2823">
        <ele>10.8</ele>
        <time>2025-01-16T10:15:53Z</time>
      </trkpt>
      <trkpt lat="47.56207" lon="-2.28231">
        <ele>10.9</ele>
        <time>2025-01-16T10:15:54Z</time>
      </trkpt>
      <trkpt lat="47.56207" lon="-2.28231">
        <ele>10.9</ele>
        <time>2025-01-16T10:15:55Z</time>
      </trkpt>
      <trkpt lat="47.56208" lon="-2.28232">
        <ele>11</ele>
        <time>2025-01-16T10:15:56Z</time>
      </trkpt>
      <trkpt lat="47.56209" lon="-2.28233">
        <ele>11.1</ele>
        <time>2025-01-16T10:15:57Z</time>
      </trkpt>
      <trkpt lat="47.5621" lon="-2.28234">
        <ele>11.2</ele>
        <time>2025-01-16T10:15:58Z</time>
      </trkpt>
      <trkpt lat="47.5621" lon="-2.28235">
        <ele>11.3</ele>
        <time>2025-01-16T10:15:59Z</time>
      </trkpt>
      <trkpt lat="47.56211" lon="-2.28236">
        <ele>11.4</ele>
        <time>2025-01-16T10:16:00Z</time>
      </trkpt>
      <trkpt lat="47.56212" lon="-2.28238">
        <ele>11.6</ele>
        <time>2025-01-16T10:16:01Z</time>
      </trkpt>
      <trkpt lat="47.56212" lon="-2.28239">
        <ele>11.6</ele>
        <time>2025-01-16T10:16:02Z</time>
      </trkpt>
      <trkpt lat="47.56213" lon="-2.2824">
        <ele>11.7</ele>
        <time>2025-01-16T10:16:03Z</time>
      </trkpt>
      <trkpt lat="47.56214" lon="-2.28241">
        <ele>11.9</ele>
        <time>2025-01-16T10:16:04Z</time>
      </trkpt>
      <trkpt lat="47.56214" lon="-2.28243">
        <ele>12</ele>
        <time>2025-01-16T10:16:05Z</time>
      </trkpt>
      <trkpt lat="47.56215" lon="-2.28244">
        <ele>12.1</ele>
        <time>2025-01-16T10:16:06Z</time>
      </trkpt>
      <trkpt lat="47.56216" lon="-2.28246">
        <ele>12.3</ele>
        <time>2025-01-16T10:16:07Z</time>
      </trkpt>
      <trkpt lat="47.56218" lon="-2.28247">
        <ele>12.5</ele>
        <time>2025-01-16T10:16:08Z</time>
      </trkpt>
      <trkpt lat="47.56219" lon="-2.28249">
        <ele>12.7</ele>
        <time>2025-01-16T10:16:09Z</time>
      </trkpt>
      <trkpt lat="47.56221" lon="-2.28252">
        <ele>13.1</ele>
        <time>2025-01-16T10:16:10Z</time>
      </trkpt>
      <trkpt lat="47.56222" lon="-2.28253">
        <ele>13.2</ele>
        <time>2025-01-16T10:16:11Z</time>
      </trkpt>
      <trkpt lat="47.56223" lon="-2.28254">
        <ele>13.3</ele>
        <time>2025-01-16T10:16:12Z</time>
      </trkpt>
      <trkpt lat="47.56224" lon="-2.28255">
        <ele>13.5</ele>
        <time>2025-01-16T10:16:13Z</time>
      </trkpt>
      <trkpt lat="47.56225" lon="-2.28256">
        <ele>13.6</ele>
        <time>2025-01-16T10:16:14Z</time>
      </trkpt>
      <trkpt lat="47.56225" lon="-2.28257">
        <ele>13.7</ele>
        <time>2025-01-16T10:16:15Z</time>
      </trkpt>
      <trkpt lat="47.56226" lon="-2.28259">
        <ele>13.9</ele>
        <time>2025-01-16T10:16:16Z</time>
      </trkpt>
      <trkpt lat="47.56226" lon="-2.2826">
        <ele>14</ele>
        <time>2025-01-16T10:16:17Z</time>
      </trkpt>
      <trkpt lat="47.56226" lon="-2.28261">
        <ele>14.1</ele>
        <time>2025-01-16T10:16:18Z</time>
      </trkpt>
      <trkpt lat="47.56226" lon="-2.28263">
        <ele>14.2</ele>
        <time>2025-01-16T10:16:19Z</time>
      </trkpt>
      <trkpt lat="47.56226" lon="-2.28265">
        <ele>14.4</ele>
        <time>2025-01-16T10:16:20Z</time>
      </trkpt>
      <trkpt lat="47.56225" lon="-2.28266">
        <ele>14.4</ele>
        <time>2025-01-16T10:16:21Z</time>
      </trkpt>
      <trkpt lat="47.56225" lon="-2.28268">
        <ele>14.5</ele>
        <time>2025-01-16T10:16:22Z</time>
      </trkpt>
      <trkpt lat="47.56225" lon="-2.28269">
        <ele>14.6</ele>
        <time>2025-01-16T10:16:23Z</time>
      </trkpt>
      <trkpt lat="47.56225" lon="-2.2827">
        <ele>14.6</ele>
        <time>2025-01-16T10:16:24Z</time>
      </trkpt>
      <trkpt lat="47.56225" lon="-2.28271">
        <ele>14.7</ele>
        <time>2025-01-16T10:16:25Z</time>
      </trkpt>
      <trkpt lat="47.56225" lon="-2.28271">
        <ele>14.7</ele>
        <time>2025-01-16T10:16:26Z</time>
      </trkpt>
      <trkpt lat="47.56225" lon="-2.28273">
        <ele>14.9</ele>
        <time>2025-01-16T10:16:27Z</time>
      </trkpt>
      <trkpt lat="47.56225" lon="-2.28274">
        <ele>14.9</ele>
        <time>2025-01-16T10:16:28Z</time>
      </trkpt>
      <trkpt lat="47.56225" lon="-2.28275">
        <ele>15</ele>
        <time>2025-01-16T10:16:29Z</time>
      </trkpt>
      <trkpt lat="47.56225" lon="-2.28277">
        <ele>15.1</ele>
        <time>2025-01-16T10:16:30Z</time>
      </trkpt>
      <trkpt lat="47.56226" lon="-2.28279">
        <ele>15.3</ele>
        <time>2025-01-16T10:16:31Z</time>
      </trkpt>
      <trkpt lat="47.56225" lon="-2.2828">
        <ele>15.3</ele>
        <time>2025-01-16T10:16:32Z</time>
      </trkpt>
      <trkpt lat="47.56225" lon="-2.28281">
        <ele>15.3</ele>
        <time>2025-01-16T10:16:33Z</time>
      </trkpt>
      <trkpt lat="47.56226" lon="-2.28282">
        <ele>15.4</ele>
        <time>2025-01-16T10:16:34Z</time>
      </trkpt>
      <trkpt lat="47.56226" lon="-2.28284">
        <ele>15.5</ele>
        <time>2025-01-16T10:16:35Z</time>
      </trkpt>
      <trkpt lat="47.56226" lon="-2.28285">
        <ele>15.6</ele>
        <time>2025-01-16T10:16:36Z</time>
      </trkpt>
      <trkpt lat="47.56227" lon="-2.28286">
        <ele>15.7</ele>
        <time>2025-01-16T10:16:37Z</time>
      </trkpt>
      <trkpt lat="47.56226" lon="-2.28288">
        <ele>15.7</ele>
        <time>2025-01-16T10:16:38Z</time>
      </trkpt>
      <trkpt lat="47.56226" lon="-2.2829">
        <ele>15.8</ele>
        <time>2025-01-16T10:16:39Z</time>
      </trkpt>
      <trkpt lat="47.56226" lon="-2.2829">
        <ele>15.8</ele>
        <time>2025-01-16T10:16:40Z</time>
      </trkpt>
      <trkpt lat="47.56226" lon="-2.28291">
        <ele>15.8</ele>
        <time>2025-01-16T10:16:41Z</time>
      </trkpt>
      <trkpt lat="47.56226" lon="-2.28293">
        <ele>15.9</ele>
        <time>2025-01-16T10:16:42Z</time>
      </trkpt>
      <trkpt lat="47.56226" lon="-2.28294">
        <ele>15.9</ele>
        <time>2025-01-16T10:16:43Z</time>
      </trkpt>
      <trkpt lat="47.56226" lon="-2.28295">
        <ele>16</ele>
        <time>2025-01-16T10:16:44Z</time>
      </trkpt>
      <trkpt lat="47.56227" lon="-2.28297">
        <ele>16.2</ele>
        <time>2025-01-16T10:16:45Z</time>
      </trkpt>
      <trkpt lat="47.56227" lon="-2.28299">
        <ele>16.2</ele>
        <time>2025-01-16T10:16:46Z</time>
      </trkpt>
      <trkpt lat="47.56228" lon="-2.28301">
        <ele>16.4</ele>
        <time>2025-01-16T10:16:47Z</time>
      </trkpt>
      <trkpt lat="47.56228" lon="-2.28303">
        <ele>16.5</ele>
        <time>2025-01-16T10:16:48Z</time>
      </trkpt>
      <trkpt lat="47.56228" lon="-2.28304">
        <ele>16.6</ele>
        <time>2025-01-16T10:16:49Z</time>
      </trkpt>
      <trkpt lat="47.56228" lon="-2.28306">
        <ele>16.6</ele>
        <time>2025-01-16T10:16:50Z</time>
      </trkpt>
      <trkpt lat="47.56228" lon="-2.28307">
        <ele>16.7</ele>
        <time>2025-01-16T10:16:51Z</time>
      </trkpt>
      <trkpt lat="47.56229" lon="-2.28309">
        <ele>16.9</ele>
        <time>2025-01-16T10:16:52Z</time>
      </trkpt>
      <trkpt lat="47.56229" lon="-2.28311">
        <ele>16.9</ele>
        <time>2025-01-16T10:16:53Z</time>
      </trkpt>
      <trkpt lat="47.5623" lon="-2.28313">
        <ele>17.1</ele>
        <time>2025-01-16T10:16:54Z</time>
      </trkpt>
      <trkpt lat="47.5623" lon="-2.28314">
        <ele>17.1</ele>
        <time>2025-01-16T10:16:55Z</time>
      </trkpt>
      <trkpt lat="47.56231" lon="-2.28316">
        <ele>17.3</ele>
        <time>2025-01-16T10:16:56Z</time>
      </trkpt>
      <trkpt lat="47.56231" lon="-2.28318">
        <ele>17.4</ele>
        <time>2025-01-16T10:16:57Z</time>
      </trkpt>
      <trkpt lat="47.56232" lon="-2.2832">
        <ele>17.6</ele>
        <time>2025-01-16T10:16:58Z</time>
      </trkpt>
      <trkpt lat="47.56232" lon="-2.28321">
        <ele>17.6</ele>
        <time>2025-01-16T10:16:59Z</time>
      </trkpt>
      <trkpt lat="47.56232" lon="-2.28323">
        <ele>17.7</ele>
        <time>2025-01-16T10:17:00Z</time>
      </trkpt>
      <trkpt lat="47.56233" lon="-2.28324">
        <ele>17.8</ele>
        <time>2025-01-16T10:17:01Z</time>
      </trkpt>
      <trkpt lat="47.56233" lon="-2.28326">
        <ele>17.9</ele>
        <time>2025-01-16T10:17:02Z</time>
      </trkpt>
      <trkpt lat="47.56234" lon="-2.28328">
        <ele>18.1</ele>
        <time>2025-01-16T10:17:03Z</time>
      </trkpt>
      <trkpt lat="47.56234" lon="-2.28329">
        <ele>18.1</ele>
        <time>2025-01-16T10:17:04Z</time>
      </trkpt>
      <trkpt lat="47.56235" lon="-2.28331">
        <ele>18.3</ele>
        <time>2025-01-16T10:17:05Z</time>
      </trkpt>
      <trkpt lat="47.56235" lon="-2.28332">
        <ele>18.3</ele>
        <time>2025-01-16T10:17:06Z</time>
      </trkpt>
      <trkpt lat="47.56235" lon="-2.28333">
        <ele>18.4</ele>
        <time>2025-01-16T10:17:07Z</time>
      </trkpt>
      <trkpt lat="47.56236" lon="-2.28334">
        <ele>18.5</ele>
        <time>2025-01-16T10:17:08Z</time>
      </trkpt>
      <trkpt lat="47.56236" lon="-2.28335">
        <ele>18.5</ele>
        <time>2025-01-16T10:17:09Z</time>
      </trkpt>
      <trkpt lat="47.56237" lon="-2.28336">
        <ele>18.6</ele>
        <time>2025-01-16T10:17:10Z</time>
      </trkpt>
      <trkpt lat="47.56237" lon="-2.28338">
        <ele>18.7</ele>
        <time>2025-01-16T10:17:11Z</time>
      </trkpt>
      <trkpt lat="47.56237" lon="-2.2834">
        <ele>18.7</ele>
        <time>2025-01-16T10:17:12Z</time>
      </trkpt>
      <trkpt lat="47.56237" lon="-2.28342">
        <ele>18.7</ele>
        <time>2025-01-16T10:17:13Z</time>
      </trkpt>
      <trkpt lat="47.56237" lon="-2.28345">
        <ele>18.8</ele>
        <time>2025-01-16T10:17:14Z</time>
      </trkpt>
      <trkpt lat="47.56236" lon="-2.28347">
        <ele>18.7</ele>
        <time>2025-01-16T10:17:15Z</time>
      </trkpt>
      <trkpt lat="47.56236" lon="-2.28348">
        <ele>18.8</ele>
        <time>2025-01-16T10:17:16Z</time>
      </trkpt>
      <trkpt lat="47.56237" lon="-2.2835">
        <ele>18.9</ele>
        <time>2025-01-16T10:17:17Z</time>
      </trkpt>
      <trkpt lat="47.56237" lon="-2.28351">
        <ele>18.9</ele>
        <time>2025-01-16T10:17:18Z</time>
      </trkpt>
      <trkpt lat="47.56237" lon="-2.28352">
        <ele>18.9</ele>
        <time>2025-01-16T10:17:19Z</time>
      </trkpt>
      <trkpt lat="47.56237" lon="-2.28353">
        <ele>18.9</ele>
        <time>2025-01-16T10:17:20Z</time>
      </trkpt>
      <trkpt lat="47.56237" lon="-2.28355">
        <ele>19</ele>
        <time>2025-01-16T10:17:21Z</time>
      </trkpt>
      <trkpt lat="47.56237" lon="-2.28356">
        <ele>19</ele>
        <time>2025-01-16T10:17:22Z</time>
      </trkpt>
      <trkpt lat="47.56237" lon="-2.28358">
        <ele>19</ele>
        <time>2025-01-16T10:17:23Z</time>
      </trkpt>
      <trkpt lat="47.56238" lon="-2.28361">
        <ele>19.1</ele>
        <time>2025-01-16T10:17:24Z</time>
      </trkpt>
      <trkpt lat="47.56238" lon="-2.28363">
        <ele>19.2</ele>
        <time>2025-01-16T10:17:25Z</time>
      </trkpt>
      <trkpt lat="47.56239" lon="-2.28365">
        <ele>19.3</ele>
        <time>2025-01-16T10:17:26Z</time>
      </trkpt>
      <trkpt lat="47.56239" lon="-2.28368">
        <ele>19.4</ele>
        <time>2025-01-16T10:17:27Z</time>
      </trkpt>
      <trkpt lat="47.56239" lon="-2.2837">
        <ele>19.4</ele>
        <time>2025-01-16T10:17:28Z</time>
      </trkpt>
      <trkpt lat="47.5624" lon="-2.28371">
        <ele>19.5</ele>
        <time>2025-01-16T10:17:29Z</time>
      </trkpt>
      <trkpt lat="47.5624" lon="-2.28373">
        <ele>19.6</ele>
        <time>2025-01-16T10:17:30Z</time>
      </trkpt>
      <trkpt lat="47.5624" lon="-2.28374">
        <ele>19.6</ele>
        <time>2025-01-16T10:17:31Z</time>
      </trkpt>
      <trkpt lat="47.5624" lon="-2.28376">
        <ele>19.6</ele>
        <time>2025-01-16T10:17:32Z</time>
      </trkpt>
      <trkpt lat="47.56241" lon="-2.28377">
        <ele>19.7</ele>
        <time>2025-01-16T10:17:33Z</time>
      </trkpt>
      <trkpt lat="47.56241" lon="-2.28379">
        <ele>19.8</ele>
        <time>2025-01-16T10:17:34Z</time>
      </trkpt>
      <trkpt lat="47.56241" lon="-2.2838">
        <ele>19.8</ele>
        <time>2025-01-16T10:17:35Z</time>
      </trkpt>
      <trkpt lat="47.56241" lon="-2.28381">
        <ele>19.8</ele>
        <time>2025-01-16T10:17:36Z</time>
      </trkpt>
      <trkpt lat="47.56242" lon="-2.28381">
        <ele>19.9</ele>
        <time>2025-01-16T10:17:37Z</time>
      </trkpt>
      <trkpt lat="47.56242" lon="-2.28382">
        <ele>20</ele>
        <time>2025-01-16T10:17:38Z</time>
      </trkpt>
      <trkpt lat="47.56242" lon="-2.28384">
        <ele>20</ele>
        <time>2025-01-16T10:17:39Z</time>
      </trkpt>
      <trkpt lat="47.56242" lon="-2.28386">
        <ele>20.1</ele>
        <time>2025-01-16T10:17:40Z</time>
      </trkpt>
      <trkpt lat="47.56242" lon="-2.28388">
        <ele>20.1</ele>
        <time>2025-01-16T10:17:41Z</time>
      </trkpt>
      <trkpt lat="47.56242" lon="-2.2839">
        <ele>20.2</ele>
        <time>2025-01-16T10:17:42Z</time>
      </trkpt>
      <trkpt lat="47.56241" lon="-2.28392">
        <ele>20.1</ele>
        <time>2025-01-16T10:17:43Z</time>
      </trkpt>
      <trkpt lat="47.5624" lon="-2.28394">
        <ele>20.1</ele>
        <time>2025-01-16T10:17:44Z</time>
      </trkpt>
      <trkpt lat="47.5624" lon="-2.28395">
        <ele>20.1</ele>
        <time>2025-01-16T10:17:45Z</time>
      </trkpt>
      <trkpt lat="47.56239" lon="-2.28397">
        <ele>20.1</ele>
        <time>2025-01-16T10:17:46Z</time>
      </trkpt>
      <trkpt lat="47.56238" lon="-2.28398">
        <ele>20</ele>
        <time>2025-01-16T10:17:47Z</time>
      </trkpt>
      <trkpt lat="47.56237" lon="-2.28399">
        <ele>20</ele>
        <time>2025-01-16T10:17:48Z</time>
      </trkpt>
      <trkpt lat="47.56235" lon="-2.284">
        <ele>19.8</ele>
        <time>2025-01-16T10:17:49Z</time>
      </trkpt>
      <trkpt lat="47.56234" lon="-2.284">
        <ele>19.7</ele>
        <time>2025-01-16T10:17:50Z</time>
      </trkpt>
      <trkpt lat="47.56233" lon="-2.284">
        <ele>19.6</ele>
        <time>2025-01-16T10:17:51Z</time>
      </trkpt>
      <trkpt lat="47.56232" lon="-2.28401">
        <ele>19.5</ele>
        <time>2025-01-16T10:17:52Z</time>
      </trkpt>
      <trkpt lat="47.56231" lon="-2.28401">
        <ele>19.4</ele>
        <time>2025-01-16T10:17:53Z</time>
      </trkpt>
      <trkpt lat="47.5623" lon="-2.28401">
        <ele>19.3</ele>
        <time>2025-01-16T10:17:54Z</time>
      </trkpt>
      <trkpt lat="47.56229" lon="-2.28402">
        <ele>19.2</ele>
        <time>2025-01-16T10:17:55Z</time>
      </trkpt>
      <trkpt lat="47.56228" lon="-2.28402">
        <ele>19.1</ele>
        <time>2025-01-16T10:17:56Z</time>
      </trkpt>
      <trkpt lat="47.56227" lon="-2.28402">
        <ele>19</ele>
        <time>2025-01-16T10:17:57Z</time>
      </trkpt>
      <trkpt lat="47.56226" lon="-2.28402">
        <ele>18.9</ele>
        <time>2025-01-16T10:17:58Z</time>
      </trkpt>
      <trkpt lat="47.56225" lon="-2.28403">
        <ele>18.8</ele>
        <time>2025-01-16T10:17:59Z</time>
      </trkpt>
      <trkpt lat="47.56224" lon="-2.28403">
        <ele>18.7</ele>
        <time>2025-01-16T10:18:00Z</time>
      </trkpt>
      <trkpt lat="47.56223" lon="-2.28404">
        <ele>18.6</ele>
        <time>2025-01-16T10:18:01Z</time>
      </trkpt>
      <trkpt lat="47.56221" lon="-2.28404">
        <ele>18.4</ele>
        <time>2025-01-16T10:18:02Z</time>
      </trkpt>
      <trkpt lat="47.5622" lon="-2.28405">
        <ele>18.3</ele>
        <time>2025-01-16T10:18:03Z</time>
      </trkpt>
      <trkpt lat="47.56219" lon="-2.28406">
        <ele>18.2</ele>
        <time>2025-01-16T10:18:04Z</time>
      </trkpt>
      <trkpt lat="47.56218" lon="-2.28406">
        <ele>18.1</ele>
        <time>2025-01-16T10:18:05Z</time>
      </trkpt>
      <trkpt lat="47.56217" lon="-2.28407">
        <ele>18</ele>
        <time>2025-01-16T10:18:06Z</time>
      </trkpt>
      <trkpt lat="47.56216" lon="-2.28407">
        <ele>17.9</ele>
        <time>2025-01-16T10:18:07Z</time>
      </trkpt>
      <trkpt lat="47.56215" lon="-2.28407">
        <ele>17.8</ele>
        <time>2025-01-16T10:18:08Z</time>
      </trkpt>
      <trkpt lat="47.56213" lon="-2.28407">
        <ele>17.6</ele>
        <time>2025-01-16T10:18:09Z</time>
      </trkpt>
      <trkpt lat="47.56212" lon="-2.28407">
        <ele>17.4</ele>
        <time>2025-01-16T10:18:10Z</time>
      </trkpt>
      <trkpt lat="47.56212" lon="-2.28407">
        <ele>17.4</ele>
        <time>2025-01-16T10:18:11Z</time>
      </trkpt>
      <trkpt lat="47.56212" lon="-2.28407">
        <ele>17.4</ele>
        <time>2025-01-16T10:18:12Z</time>
      </trkpt>
      <trkpt lat="47.56211" lon="-2.28407">
        <ele>17.3</ele>
        <time>2025-01-16T10:18:13Z</time>
      </trkpt>
      <trkpt lat="47.5621" lon="-2.28408">
        <ele>17.2</ele>
        <time>2025-01-16T10:18:14Z</time>
      </trkpt>
      <trkpt lat="47.56209" lon="-2.28408">
        <ele>17.1</ele>
        <time>2025-01-16T10:18:15Z</time>
      </trkpt>
      <trkpt lat="47.56207" lon="-2.28408">
        <ele>16.8</ele>
        <time>2025-01-16T10:18:16Z</time>
      </trkpt>
      <trkpt lat="47.56206" lon="-2.28408">
        <ele>16.7</ele>
        <time>2025-01-16T10:18:17Z</time>
      </trkpt>
      <trkpt lat="47.56205" lon="-2.28407">
        <ele>16.6</ele>
        <time>2025-01-16T10:18:18Z</time>
      </trkpt>
      <trkpt lat="47.56203" lon="-2.28407">
        <ele>16.4</ele>
        <time>2025-01-16T10:18:19Z</time>
      </trkpt>
      <trkpt lat="47.56203" lon="-2.28407">
        <ele>16.4</ele>
        <time>2025-01-16T10:18:20Z</time>
      </trkpt>
      <trkpt lat="47.56203" lon="-2.28408">
        <ele>16.4</ele>
        <time>2025-01-16T10:18:21Z</time>
      </trkpt>
      <trkpt lat="47.56201" lon="-2.28407">
        <ele>16.1</ele>
        <time>2025-01-16T10:18:22Z</time>
      </trkpt>
      <trkpt lat="47.56201" lon="-2.28407">
        <ele>16.1</ele>
        <time>2025-01-16T10:18:23Z</time>
      </trkpt>
      <trkpt lat="47.562" lon="-2.28407">
        <ele>16</ele>
        <time>2025-01-16T10:18:24Z</time>
      </trkpt>
      <trkpt lat="47.56199" lon="-2.28407">
        <ele>15.9</ele>
        <time>2025-01-16T10:18:25Z</time>
      </trkpt>
      <trkpt lat="47.56197" lon="-2.28406">
        <ele>15.7</ele>
        <time>2025-01-16T10:18:26Z</time>
      </trkpt>
      <trkpt lat="47.56196" lon="-2.28406">
        <ele>15.6</ele>
        <time>2025-01-16T10:18:27Z</time>
      </trkpt>
      <trkpt lat="47.56195" lon="-2.28406">
        <ele>15.4</ele>
        <time>2025-01-16T10:18:28Z</time>
      </trkpt>
      <trkpt lat="47.56193" lon="-2.28405">
        <ele>15.3</ele>
        <time>2025-01-16T10:18:29Z</time>
      </trkpt>
      <trkpt lat="47.56192" lon="-2.28405">
        <ele>15.2</ele>
        <time>2025-01-16T10:18:30Z</time>
      </trkpt>
      <trkpt lat="47.56191" lon="-2.28404">
        <ele>15.1</ele>
        <time>2025-01-16T10:18:31Z</time>
      </trkpt>
      <trkpt lat="47.5619" lon="-2.28404">
        <ele>15</ele>
        <time>2025-01-16T10:18:32Z</time>
      </trkpt>
      <trkpt lat="47.56189" lon="-2.28403">
        <ele>14.9</ele>
        <time>2025-01-16T10:18:33Z</time>
      </trkpt>
      <trkpt lat="47.56188" lon="-2.28403">
        <ele>14.8</ele>
        <time>2025-01-16T10:18:34Z</time>
      </trkpt>
      <trkpt lat="47.56187" lon="-2.28402">
        <ele>14.7</ele>
        <time>2025-01-16T10:18:35Z</time>
      </trkpt>
      <trkpt lat="47.56186" lon="-2.28402">
        <ele>14.6</ele>
        <time>2025-01-16T10:18:36Z</time>
      </trkpt>
      <trkpt lat="47.56185" lon="-2.28402">
        <ele>14.5</ele>
        <time>2025-01-16T10:18:37Z</time>
      </trkpt>
      <trkpt lat="47.56184" lon="-2.28401">
        <ele>14.4</ele>
        <time>2025-01-16T10:18:38Z</time>
      </trkpt>
      <trkpt lat="47.56182" lon="-2.28401">
        <ele>14.2</ele>
        <time>2025-01-16T10:18:39Z</time>
      </trkpt>
      <trkpt lat="47.5618" lon="-2.28401">
        <ele>14</ele>
        <time>2025-01-16T10:18:40Z</time>
      </trkpt>
      <trkpt lat="47.56179" lon="-2.284">
        <ele>13.9</ele>
        <time>2025-01-16T10:18:41Z</time>
      </trkpt>
      <trkpt lat="47.56178" lon="-2.284">
        <ele>13.8</ele>
        <time>2025-01-16T10:18:42Z</time>
      </trkpt>
      <trkpt lat="47.56176" lon="-2.28399">
        <ele>13.6</ele>
        <time>2025-01-16T10:18:43Z</time>
      </trkpt>
      <trkpt lat="47.56175" lon="-2.28399">
        <ele>13.5</ele>
        <time>2025-01-16T10:18:44Z</time>
      </trkpt>
      <trkpt lat="47.56174" lon="-2.28399">
        <ele>13.4</ele>
        <time>2025-01-16T10:18:45Z</time>
      </trkpt>
      <trkpt lat="47.56172" lon="-2.28398">
        <ele>13.2</ele>
        <time>2025-01-16T10:18:46Z</time>
      </trkpt>
      <trkpt lat="47.56171" lon="-2.28398">
        <ele>13.1</ele>
        <time>2025-01-16T10:18:47Z</time>
      </trkpt>
      <trkpt lat="47.5617" lon="-2.28398">
        <ele>13</ele>
        <time>2025-01-16T10:18:48Z</time>
      </trkpt>
      <trkpt lat="47.56168" lon="-2.28398">
        <ele>12.8</ele>
        <time>2025-01-16T10:18:49Z</time>
      </trkpt>
      <trkpt lat="47.56167" lon="-2.28397">
        <ele>12.7</ele>
        <time>2025-01-16T10:18:50Z</time>
      </trkpt>
      <trkpt lat="47.56165" lon="-2.28397">
        <ele>12.5</ele>
        <time>2025-01-16T10:18:51Z</time>
      </trkpt>
      <trkpt lat="47.56163" lon="-2.28397">
        <ele>12.2</ele>
        <time>2025-01-16T10:18:52Z</time>
      </trkpt>
      <trkpt lat="47.56162" lon="-2.28397">
        <ele>12.1</ele>
        <time>2025-01-16T10:18:53Z</time>
      </trkpt>
      <trkpt lat="47.56161" lon="-2.28396">
        <ele>12</ele>
        <time>2025-01-16T10:18:54Z</time>
      </trkpt>
      <trkpt lat="47.5616" lon="-2.28396">
        <ele>11.8</ele>
        <time>2025-01-16T10:18:55Z</time>
      </trkpt>
      <trkpt lat="47.56159" lon="-2.28396">
        <ele>11.7</ele>
        <time>2025-01-16T10:18:56Z</time>
      </trkpt>
      <trkpt lat="47.56158" lon="-2.28396">
        <ele>11.6</ele>
        <time>2025-01-16T10:18:57Z</time>
      </trkpt>
      <trkpt lat="47.56158" lon="-2.28396">
        <ele>11.6</ele>
        <time>2025-01-16T10:18:58Z</time>
      </trkpt>
      <trkpt lat="47.56157" lon="-2.28396">
        <ele>11.4</ele>
        <time>2025-01-16T10:18:59Z</time>
      </trkpt>
      <trkpt lat="47.56157" lon="-2.28395">
        <ele>11.5</ele>
        <time>2025-01-16T10:19:00Z</time>
      </trkpt>
      <trkpt lat="47.56156" lon="-2.28395">
        <ele>11.3</ele>
        <time>2025-01-16T10:19:01Z</time>
      </trkpt>
      <trkpt lat="47.56154" lon="-2.28395">
        <ele>11.1</ele>
        <time>2025-01-16T10:19:02Z</time>
      </trkpt>
      <trkpt lat="47.56152" lon="-2.28394">
        <ele>10.8</ele>
        <time>2025-01-16T10:19:03Z</time>
      </trkpt>
      <trkpt lat="47.5615" lon="-2.28394">
        <ele>10.5</ele>
        <time>2025-01-16T10:19:04Z</time>
      </trkpt>
      <trkpt lat="47.56149" lon="-2.28394">
        <ele>10.4</ele>
        <time>2025-01-16T10:19:05Z</time>
      </trkpt>
      <trkpt lat="47.56148" lon="-2.28393">
        <ele>10.3</ele>
        <time>2025-01-16T10:19:06Z</time>
      </trkpt>
      <trkpt lat="47.56147" lon="-2.28393">
        <ele>10.1</ele>
        <time>2025-01-16T10:19:07Z</time>
      </trkpt>
      <trkpt lat="47.56145" lon="-2.28393">
        <ele>9.8</ele>
        <time>2025-01-16T10:19:08Z</time>
      </trkpt>
      <trkpt lat="47.56143" lon="-2.28393">
        <ele>9.6</ele>
        <time>2025-01-16T10:19:09Z</time>
      </trkpt>
      <trkpt lat="47.56142" lon="-2.28392">
        <ele>9.4</ele>
        <time>2025-01-16T10:19:10Z</time>
      </trkpt>
      <trkpt lat="47.56142" lon="-2.28392">
        <ele>9.4</ele>
        <time>2025-01-16T10:19:11Z</time>
      </trkpt>
      <trkpt lat="47.56141" lon="-2.28392">
        <ele>9.3</ele>
        <time>2025-01-16T10:19:12Z</time>
      </trkpt>
      <trkpt lat="47.56139" lon="-2.28391">
        <ele>9</ele>
        <time>2025-01-16T10:19:13Z</time>
      </trkpt>
      <trkpt lat="47.56138" lon="-2.28391">
        <ele>8.9</ele>
        <time>2025-01-16T10:19:14Z</time>
      </trkpt>
      <trkpt lat="47.56137" lon="-2.2839">
        <ele>8.9</ele>
        <time>2025-01-16T10:19:15Z</time>
      </trkpt>
      <trkpt lat="47.56136" lon="-2.28389">
        <ele>8.8</ele>
        <time>2025-01-16T10:19:16Z</time>
      </trkpt>
      <trkpt lat="47.56135" lon="-2.28389">
        <ele>8.7</ele>
        <time>2025-01-16T10:19:17Z</time>
      </trkpt>
      <trkpt lat="47.56133" lon="-2.28389">
        <ele>8.6</ele>
        <time>2025-01-16T10:19:18Z</time>
      </trkpt>
      <trkpt lat="47.56132" lon="-2.28388">
        <ele>8.5</ele>
        <time>2025-01-16T10:19:19Z</time>
      </trkpt>
      <trkpt lat="47.56131" lon="-2.28388">
        <ele>8.4</ele>
        <time>2025-01-16T10:19:20Z</time>
      </trkpt>
      <trkpt lat="47.56129" lon="-2.28387">
        <ele>8.3</ele>
        <time>2025-01-16T10:19:21Z</time>
      </trkpt>
      <trkpt lat="47.56128" lon="-2.28387">
        <ele>8.2</ele>
        <time>2025-01-16T10:19:22Z</time>
      </trkpt>
      <trkpt lat="47.56127" lon="-2.28386">
        <ele>8.2</ele>
        <time>2025-01-16T10:19:23Z</time>
      </trkpt>
      <trkpt lat="47.56126" lon="-2.28386">
        <ele>8.1</ele>
        <time>2025-01-16T10:19:24Z</time>
      </trkpt>
      <trkpt lat="47.56125" lon="-2.28386">
        <ele>8</ele>
        <time>2025-01-16T10:19:25Z</time>
      </trkpt>
      <trkpt lat="47.56124" lon="-2.28385">
        <ele>7.9</ele>
        <time>2025-01-16T10:19:26Z</time>
      </trkpt>
      <trkpt lat="47.56123" lon="-2.28385">
        <ele>7.8</ele>
        <time>2025-01-16T10:19:27Z</time>
      </trkpt>
      <trkpt lat="47.56122" lon="-2.28385">
        <ele>7.8</ele>
        <time>2025-01-16T10:19:28Z</time>
      </trkpt>
      <trkpt lat="47.5612" lon="-2.28385">
        <ele>7.6</ele>
        <time>2025-01-16T10:19:29Z</time>
      </trkpt>
      <trkpt lat="47.56119" lon="-2.28385">
        <ele>7.5</ele>
        <time>2025-01-16T10:19:30Z</time>
      </trkpt>
      <trkpt lat="47.56118" lon="-2.28386">
        <ele>7.4</ele>
        <time>2025-01-16T10:19:31Z</time>
      </trkpt>
      <trkpt lat="47.56116" lon="-2.28386">
        <ele>7.3</ele>
        <time>2025-01-16T10:19:32Z</time>
      </trkpt>
      <trkpt lat="47.56115" lon="-2.28386">
        <ele>7.2</ele>
        <time>2025-01-16T10:19:33Z</time>
      </trkpt>
      <trkpt lat="47.56114" lon="-2.28386">
        <ele>7.1</ele>
        <time>2025-01-16T10:19:34Z</time>
      </trkpt>
      <trkpt lat="47.56113" lon="-2.28386">
        <ele>7</ele>
        <time>2025-01-16T10:19:35Z</time>
      </trkpt>
      <trkpt lat="47.56112" lon="-2.28386">
        <ele>7</ele>
        <time>2025-01-16T10:19:36Z</time>
      </trkpt>
      <trkpt lat="47.56111" lon="-2.28385">
        <ele>6.9</ele>
        <time>2025-01-16T10:19:37Z</time>
      </trkpt>
      <trkpt lat="47.5611" lon="-2.28385">
        <ele>6.9</ele>
        <time>2025-01-16T10:19:38Z</time>
      </trkpt>
      <trkpt lat="47.56109" lon="-2.28385">
        <ele>6.8</ele>
        <time>2025-01-16T10:19:39Z</time>
      </trkpt>
      <trkpt lat="47.56109" lon="-2.28384">
        <ele>6.8</ele>
        <time>2025-01-16T10:19:40Z</time>
      </trkpt>
      <trkpt lat="47.56108" lon="-2.28385">
        <ele>6.8</ele>
        <time>2025-01-16T10:19:41Z</time>
      </trkpt>
      <trkpt lat="47.56107" lon="-2.28384">
        <ele>6.8</ele>
        <time>2025-01-16T10:19:42Z</time>
      </trkpt>
      <trkpt lat="47.56105" lon="-2.28384">
        <ele>6.8</ele>
        <time>2025-01-16T10:19:43Z</time>
      </trkpt>
      <trkpt lat="47.56104" lon="-2.28384">
        <ele>6.8</ele>
        <time>2025-01-16T10:19:44Z</time>
      </trkpt>
      <trkpt lat="47.56103" lon="-2.28384">
        <ele>6.8</ele>
        <time>2025-01-16T10:19:45Z</time>
      </trkpt>
      <trkpt lat="47.56102" lon="-2.28383">
        <ele>6.7</ele>
        <time>2025-01-16T10:19:46Z</time>
      </trkpt>
      <trkpt lat="47.56101" lon="-2.28383">
        <ele>6.7</ele>
        <time>2025-01-16T10:19:47Z</time>
      </trkpt>
      <trkpt lat="47.561" lon="-2.28383">
        <ele>6.7</ele>
        <time>2025-01-16T10:19:48Z</time>
      </trkpt>
      <trkpt lat="47.56098" lon="-2.28382">
        <ele>6.6</ele>
        <time>2025-01-16T10:19:49Z</time>
      </trkpt>
      <trkpt lat="47.56097" lon="-2.28381">
        <ele>6.6</ele>
        <time>2025-01-16T10:19:50Z</time>
      </trkpt>
      <trkpt lat="47.56096" lon="-2.2838">
        <ele>6.5</ele>
        <time>2025-01-16T10:19:51Z</time>
      </trkpt>
      <trkpt lat="47.56095" lon="-2.28379">
        <ele>6.4</ele>
        <time>2025-01-16T10:19:52Z</time>
      </trkpt>
      <trkpt lat="47.56094" lon="-2.28378">
        <ele>6.4</ele>
        <time>2025-01-16T10:19:53Z</time>
      </trkpt>
      <trkpt lat="47.56093" lon="-2.28378">
        <ele>6.4</ele>
        <time>2025-01-16T10:19:54Z</time>
      </trkpt>
      <trkpt lat="47.56093" lon="-2.28377">
        <ele>6.3</ele>
        <time>2025-01-16T10:19:55Z</time>
      </trkpt>
      <trkpt lat="47.56092" lon="-2.28376">
        <ele>6.2</ele>
        <time>2025-01-16T10:19:56Z</time>
      </trkpt>
      <trkpt lat="47.56091" lon="-2.28376">
        <ele>6.2</ele>
        <time>2025-01-16T10:19:57Z</time>
      </trkpt>
      <trkpt lat="47.56089" lon="-2.28375">
        <ele>6.1</ele>
        <time>2025-01-16T10:19:58Z</time>
      </trkpt>
      <trkpt lat="47.56088" lon="-2.28374">
        <ele>6</ele>
        <time>2025-01-16T10:19:59Z</time>
      </trkpt>
      <trkpt lat="47.56087" lon="-2.28373">
        <ele>5.9</ele>
        <time>2025-01-16T10:20:00Z</time>
      </trkpt>
      <trkpt lat="47.56087" lon="-2.28372">
        <ele>5.9</ele>
        <time>2025-01-16T10:20:01Z</time>
      </trkpt>
      <trkpt lat="47.56086" lon="-2.28371">
        <ele>5.8</ele>
        <time>2025-01-16T10:20:02Z</time>
      </trkpt>
      <trkpt lat="47.56085" lon="-2.28371">
        <ele>5.8</ele>
        <time>2025-01-16T10:20:03Z</time>
      </trkpt>
      <trkpt lat="47.56083" lon="-2.28369">
        <ele>5.6</ele>
        <time>2025-01-16T10:20:04Z</time>
      </trkpt>
      <trkpt lat="47.56082" lon="-2.28367">
        <ele>5.4</ele>
        <time>2025-01-16T10:20:05Z</time>
      </trkpt>
      <trkpt lat="47.5608" lon="-2.28366">
        <ele>5.4</ele>
        <time>2025-01-16T10:20:06Z</time>
      </trkpt>
      <trkpt lat="47.56079" lon="-2.28365">
        <ele>5.3</ele>
        <time>2025-01-16T10:20:07Z</time>
      </trkpt>
      <trkpt lat="47.56078" lon="-2.28364">
        <ele>5.2</ele>
        <time>2025-01-16T10:20:08Z</time>
      </trkpt>
      <trkpt lat="47.56077" lon="-2.28362">
        <ele>5.1</ele>
        <time>2025-01-16T10:20:09Z</time>
      </trkpt>
      <trkpt lat="47.56076" lon="-2.28362">
        <ele>5.1</ele>
        <time>2025-01-16T10:20:10Z</time>
      </trkpt>
      <trkpt lat="47.56075" lon="-2.28361">
        <ele>5</ele>
        <time>2025-01-16T10:20:11Z</time>
      </trkpt>
      <trkpt lat="47.56074" lon="-2.2836">
        <ele>5</ele>
        <time>2025-01-16T10:20:12Z</time>
      </trkpt>
      <trkpt lat="47.56073" lon="-2.2836">
        <ele>5</ele>
        <time>2025-01-16T10:20:13Z</time>
      </trkpt>
      <trkpt lat="47.56072" lon="-2.28359">
        <ele>4.9</ele>
        <time>2025-01-16T10:20:14Z</time>
      </trkpt>
      <trkpt lat="47.56072" lon="-2.28359">
        <ele>4.9</ele>
        <time>2025-01-16T10:20:15Z</time>
      </trkpt>
      <trkpt lat="47.56071" lon="-2.28359">
        <ele>4.9</ele>
        <time>2025-01-16T10:20:16Z</time>
      </trkpt>
      <trkpt lat="47.5607" lon="-2.28359">
        <ele>4.9</ele>
        <time>2025-01-16T10:20:17Z</time>
      </trkpt>
      <trkpt lat="47.56069" lon="-2.28359">
        <ele>4.9</ele>
        <time>2025-01-16T10:20:18Z</time>
      </trkpt>
      <trkpt lat="47.56068" lon="-2.28358">
        <ele>4.9</ele>
        <time>2025-01-16T10:20:19Z</time>
      </trkpt>
      <trkpt lat="47.56068" lon="-2.28358">
        <ele>4.9</ele>
        <time>2025-01-16T10:20:20Z</time>
      </trkpt>
      <trkpt lat="47.56068" lon="-2.28357">
        <ele>4.9</ele>
        <time>2025-01-16T10:20:21Z</time>
      </trkpt>
      <trkpt lat="47.56066" lon="-2.28356">
        <ele>4.8</ele>
        <time>2025-01-16T10:20:22Z</time>
      </trkpt>
      <trkpt lat="47.56066" lon="-2.28356">
        <ele>4.8</ele>
        <time>2025-01-16T10:20:23Z</time>
      </trkpt>
      <trkpt lat="47.56065" lon="-2.28355">
        <ele>4.8</ele>
        <time>2025-01-16T10:20:24Z</time>
      </trkpt>
      <trkpt lat="47.56064" lon="-2.28354">
        <ele>4.7</ele>
        <time>2025-01-16T10:20:25Z</time>
      </trkpt>
      <trkpt lat="47.56063" lon="-2.28353">
        <ele>4.7</ele>
        <time>2025-01-16T10:20:26Z</time>
      </trkpt>
      <trkpt lat="47.56063" lon="-2.28351">
        <ele>4.6</ele>
        <time>2025-01-16T10:20:27Z</time>
      </trkpt>
      <trkpt lat="47.56062" lon="-2.28348">
        <ele>4.5</ele>
        <time>2025-01-16T10:20:28Z</time>
      </trkpt>
      <trkpt lat="47.56061" lon="-2.28346">
        <ele>4.5</ele>
        <time>2025-01-16T10:20:29Z</time>
      </trkpt>
      <trkpt lat="47.56061" lon="-2.28344">
        <ele>4.4</ele>
        <time>2025-01-16T10:20:30Z</time>
      </trkpt>
      <trkpt lat="47.5606" lon="-2.28343">
        <ele>4.3</ele>
        <time>2025-01-16T10:20:31Z</time>
      </trkpt>
      <trkpt lat="47.56059" lon="-2.28342">
        <ele>4.3</ele>
        <time>2025-01-16T10:20:32Z</time>
      </trkpt>
      <trkpt lat="47.56058" lon="-2.28341">
        <ele>4.3</ele>
        <time>2025-01-16T10:20:33Z</time>
      </trkpt>
      <trkpt lat="47.56057" lon="-2.2834">
        <ele>4.2</ele>
        <time>2025-01-16T10:20:34Z</time>
      </trkpt>
      <trkpt lat="47.56056" lon="-2.28339">
        <ele>4.2</ele>
        <time>2025-01-16T10:20:35Z</time>
      </trkpt>
      <trkpt lat="47.56054" lon="-2.28337">
        <ele>4.1</ele>
        <time>2025-01-16T10:20:36Z</time>
      </trkpt>
      <trkpt lat="47.56053" lon="-2.28336">
        <ele>4.1</ele>
        <time>2025-01-16T10:20:37Z</time>
      </trkpt>
      <trkpt lat="47.56052" lon="-2.28336">
        <ele>4.1</ele>
        <time>2025-01-16T10:20:38Z</time>
      </trkpt>
      <trkpt lat="47.56051" lon="-2.28336">
        <ele>4.1</ele>
        <time>2025-01-16T10:20:39Z</time>
      </trkpt>
      <trkpt lat="47.5605" lon="-2.28336">
        <ele>4.1</ele>
        <time>2025-01-16T10:20:40Z</time>
      </trkpt>
      <trkpt lat="47.56049" lon="-2.28336">
        <ele>4.1</ele>
        <time>2025-01-16T10:20:41Z</time>
      </trkpt>
      <trkpt lat="47.56049" lon="-2.28337">
        <ele>4.1</ele>
        <time>2025-01-16T10:20:42Z</time>
      </trkpt>
      <trkpt lat="47.56049" lon="-2.28337">
        <ele>4.1</ele>
        <time>2025-01-16T10:20:43Z</time>
      </trkpt>
      <trkpt lat="47.56048" lon="-2.28338">
        <ele>4.1</ele>
        <time>2025-01-16T10:20:44Z</time>
      </trkpt>
      <trkpt lat="47.56047" lon="-2.28338">
        <ele>4.1</ele>
        <time>2025-01-16T10:20:45Z</time>
      </trkpt>
      <trkpt lat="47.56045" lon="-2.28339">
        <ele>4.1</ele>
        <time>2025-01-16T10:20:46Z</time>
      </trkpt>
      <trkpt lat="47.56044" lon="-2.28339">
        <ele>4.1</ele>
        <time>2025-01-16T10:20:47Z</time>
      </trkpt>
      <trkpt lat="47.56043" lon="-2.2834">
        <ele>4.1</ele>
        <time>2025-01-16T10:20:48Z</time>
      </trkpt>
      <trkpt lat="47.56042" lon="-2.28341">
        <ele>4.1</ele>
        <time>2025-01-16T10:20:49Z</time>
      </trkpt>
      <trkpt lat="47.5604" lon="-2.28342">
        <ele>4.1</ele>
        <time>2025-01-16T10:20:50Z</time>
      </trkpt>
      <trkpt lat="47.56039" lon="-2.28343">
        <ele>4.1</ele>
        <time>2025-01-16T10:20:51Z</time>
      </trkpt>
      <trkpt lat="47.56038" lon="-2.28343">
        <ele>4.1</ele>
        <time>2025-01-16T10:20:52Z</time>
      </trkpt>
      <trkpt lat="47.56037" lon="-2.28343">
        <ele>4.1</ele>
        <time>2025-01-16T10:20:53Z</time>
      </trkpt>
      <trkpt lat="47.56036" lon="-2.28343">
        <ele>4.1</ele>
        <time>2025-01-16T10:20:54Z</time>
      </trkpt>
      <trkpt lat="47.56034" lon="-2.28344">
        <ele>4.1</ele>
        <time>2025-01-16T10:20:55Z</time>
      </trkpt>
      <trkpt lat="47.56032" lon="-2.28346">
        <ele>4.1</ele>
        <time>2025-01-16T10:20:56Z</time>
      </trkpt>
      <trkpt lat="47.5603" lon="-2.28347">
        <ele>4</ele>
        <time>2025-01-16T10:20:57Z</time>
      </trkpt>
      <trkpt lat="47.56029" lon="-2.28348">
        <ele>4</ele>
        <time>2025-01-16T10:20:58Z</time>
      </trkpt>
      <trkpt lat="47.56028" lon="-2.2835">
        <ele>4</ele>
        <time>2025-01-16T10:20:59Z</time>
      </trkpt>
      <trkpt lat="47.56026" lon="-2.28351">
        <ele>4</ele>
        <time>2025-01-16T10:21:00Z</time>
      </trkpt>
      <trkpt lat="47.56025" lon="-2.28352">
        <ele>4</ele>
        <time>2025-01-16T10:21:01Z</time>
      </trkpt>
      <trkpt lat="47.56024" lon="-2.28352">
        <ele>4</ele>
        <time>2025-01-16T10:21:02Z</time>
      </trkpt>
      <trkpt lat="47.56023" lon="-2.28353">
        <ele>3.9</ele>
        <time>2025-01-16T10:21:03Z</time>
      </trkpt>
      <trkpt lat="47.56022" lon="-2.28354">
        <ele>3.9</ele>
        <time>2025-01-16T10:21:04Z</time>
      </trkpt>
      <trkpt lat="47.56021" lon="-2.28356">
        <ele>4</ele>
        <time>2025-01-16T10:21:05Z</time>
      </trkpt>
      <trkpt lat="47.56019" lon="-2.28358">
        <ele>4</ele>
        <time>2025-01-16T10:21:06Z</time>
      </trkpt>
      <trkpt lat="47.56018" lon="-2.2836">
        <ele>4</ele>
        <time>2025-01-16T10:21:07Z</time>
      </trkpt>
      <trkpt lat="47.56017" lon="-2.28362">
        <ele>4.1</ele>
        <time>2025-01-16T10:21:08Z</time>
      </trkpt>
      <trkpt lat="47.56015" lon="-2.28363">
        <ele>4.1</ele>
        <time>2025-01-16T10:21:09Z</time>
      </trkpt>
      <trkpt lat="47.56014" lon="-2.28364">
        <ele>4.2</ele>
        <time>2025-01-16T10:21:10Z</time>
      </trkpt>
      <trkpt lat="47.56013" lon="-2.28365">
        <ele>4.2</ele>
        <time>2025-01-16T10:21:11Z</time>
      </trkpt>
      <trkpt lat="47.56012" lon="-2.28366">
        <ele>4.3</ele>
        <time>2025-01-16T10:21:12Z</time>
      </trkpt>
      <trkpt lat="47.56011" lon="-2.28367">
        <ele>4.3</ele>
        <time>2025-01-16T10:21:13Z</time>
      </trkpt>
      <trkpt lat="47.56009" lon="-2.28368">
        <ele>4.3</ele>
        <time>2025-01-16T10:21:14Z</time>
      </trkpt>
      <trkpt lat="47.56008" lon="-2.28369">
        <ele>4.4</ele>
        <time>2025-01-16T10:21:15Z</time>
      </trkpt>
      <trkpt lat="47.56007" lon="-2.2837">
        <ele>4.4</ele>
        <time>2025-01-16T10:21:16Z</time>
      </trkpt>
      <trkpt lat="47.56005" lon="-2.28371">
        <ele>4.4</ele>
        <time>2025-01-16T10:21:17Z</time>
      </trkpt>
      <trkpt lat="47.56004" lon="-2.28372">
        <ele>4.4</ele>
        <time>2025-01-16T10:21:18Z</time>
      </trkpt>
      <trkpt lat="47.56003" lon="-2.28374">
        <ele>4.5</ele>
        <time>2025-01-16T10:21:19Z</time>
      </trkpt>
      <trkpt lat="47.56002" lon="-2.28374">
        <ele>4.5</ele>
        <time>2025-01-16T10:21:20Z</time>
      </trkpt>
      <trkpt lat="47.56" lon="-2.28376">
        <ele>4.5</ele>
        <time>2025-01-16T10:21:21Z</time>
      </trkpt>
      <trkpt lat="47.55998" lon="-2.28377">
        <ele>4.5</ele>
        <time>2025-01-16T10:21:22Z</time>
      </trkpt>
      <trkpt lat="47.55998" lon="-2.28377">
        <ele>4.5</ele>
        <time>2025-01-16T10:21:23Z</time>
      </trkpt>
      <trkpt lat="47.55998" lon="-2.28377">
        <ele>4.5</ele>
        <time>2025-01-16T10:21:24Z</time>
      </trkpt>
      <trkpt lat="47.55998" lon="-2.28377">
        <ele>4.5</ele>
        <time>2025-01-16T10:21:25Z</time>
      </trkpt>
      <trkpt lat="47.55998" lon="-2.28376">
        <ele>4.5</ele>
        <time>2025-01-16T10:21:26Z</time>
      </trkpt>
      <trkpt lat="47.55997" lon="-2.28376">
        <ele>4.4</ele>
        <time>2025-01-16T10:21:27Z</time>
      </trkpt>
      <trkpt lat="47.55996" lon="-2.28377">
        <ele>4.4</ele>
        <time>2025-01-16T10:21:28Z</time>
      </trkpt>
      <trkpt lat="47.55994" lon="-2.28377">
        <ele>4.4</ele>
        <time>2025-01-16T10:21:29Z</time>
      </trkpt>
      <trkpt lat="47.55993" lon="-2.28378">
        <ele>4.4</ele>
        <time>2025-01-16T10:21:30Z</time>
      </trkpt>
      <trkpt lat="47.55992" lon="-2.28378">
        <ele>4.3</ele>
        <time>2025-01-16T10:21:31Z</time>
      </trkpt>
      <trkpt lat="47.5599" lon="-2.28379">
        <ele>4.3</ele>
        <time>2025-01-16T10:21:32Z</time>
      </trkpt>
      <trkpt lat="47.55989" lon="-2.28379">
        <ele>4.2</ele>
        <time>2025-01-16T10:21:33Z</time>
      </trkpt>
      <trkpt lat="47.55989" lon="-2.2838">
        <ele>4.3</ele>
        <time>2025-01-16T10:21:34Z</time>
      </trkpt>
      <trkpt lat="47.55988" lon="-2.2838">
        <ele>4.2</ele>
        <time>2025-01-16T10:21:35Z</time>
      </trkpt>
      <trkpt lat="47.55987" lon="-2.28381">
        <ele>4.2</ele>
        <time>2025-01-16T10:21:36Z</time>
      </trkpt>
      <trkpt lat="47.55986" lon="-2.28383">
        <ele>4.3</ele>
        <time>2025-01-16T10:21:37Z</time>
      </trkpt>
      <trkpt lat="47.55986" lon="-2.28384">
        <ele>4.3</ele>
        <time>2025-01-16T10:21:38Z</time>
      </trkpt>
      <trkpt lat="47.55985" lon="-2.28385">
        <ele>4.3</ele>
        <time>2025-01-16T10:21:39Z</time>
      </trkpt>
      <trkpt lat="47.55986" lon="-2.28386">
        <ele>4.4</ele>
        <time>2025-01-16T10:21:40Z</time>
      </trkpt>
      <trkpt lat="47.55986" lon="-2.28386">
        <ele>4.4</ele>
        <time>2025-01-16T10:21:41Z</time>
      </trkpt>
      <trkpt lat="47.55986" lon="-2.28387">
        <ele>4.4</ele>
        <time>2025-01-16T10:21:42Z</time>
      </trkpt>
      <trkpt lat="47.55986" lon="-2.28388">
        <ele>4.5</ele>
        <time>2025-01-16T10:21:43Z</time>
      </trkpt>
      <trkpt lat="47.55985" lon="-2.2839">
        <ele>4.5</ele>
        <time>2025-01-16T10:21:44Z</time>
      </trkpt>
      <trkpt lat="47.55985" lon="-2.28391">
        <ele>4.6</ele>
        <time>2025-01-16T10:21:45Z</time>
      </trkpt>
      <trkpt lat="47.55985" lon="-2.28393">
        <ele>4.8</ele>
        <time>2025-01-16T10:21:46Z</time>
      </trkpt>
      <trkpt lat="47.55985" lon="-2.28395">
        <ele>4.9</ele>
        <time>2025-01-16T10:21:47Z</time>
      </trkpt>
      <trkpt lat="47.55985" lon="-2.28397">
        <ele>5</ele>
        <time>2025-01-16T10:21:48Z</time>
      </trkpt>
      <trkpt lat="47.55985" lon="-2.28399">
        <ele>5.2</ele>
        <time>2025-01-16T10:21:49Z</time>
      </trkpt>
      <trkpt lat="47.55985" lon="-2.28401">
        <ele>5.3</ele>
        <time>2025-01-16T10:21:50Z</time>
      </trkpt>
      <trkpt lat="47.55986" lon="-2.28403">
        <ele>5.5</ele>
        <time>2025-01-16T10:21:51Z</time>
      </trkpt>
      <trkpt lat="47.55986" lon="-2.28404">
        <ele>5.6</ele>
        <time>2025-01-16T10:21:52Z</time>
      </trkpt>
      <trkpt lat="47.55987" lon="-2.28405">
        <ele>5.7</ele>
        <time>2025-01-16T10:21:53Z</time>
      </trkpt>
      <trkpt lat="47.55987" lon="-2.28406">
        <ele>5.8</ele>
        <time>2025-01-16T10:21:54Z</time>
      </trkpt>
      <trkpt lat="47.55988" lon="-2.28407">
        <ele>5.9</ele>
        <time>2025-01-16T10:21:55Z</time>
      </trkpt>
      <trkpt lat="47.55988" lon="-2.28408">
        <ele>5.9</ele>
        <time>2025-01-16T10:21:56Z</time>
      </trkpt>
      <trkpt lat="47.55989" lon="-2.2841">
        <ele>6.1</ele>
        <time>2025-01-16T10:21:57Z</time>
      </trkpt>
      <trkpt lat="47.5599" lon="-2.2841">
        <ele>6.2</ele>
        <time>2025-01-16T10:21:58Z</time>
      </trkpt>
      <trkpt lat="47.55991" lon="-2.2841">
        <ele>6.2</ele>
        <time>2025-01-16T10:21:59Z</time>
      </trkpt>
      <trkpt lat="47.55992" lon="-2.28411">
        <ele>6.3</ele>
        <time>2025-01-16T10:22:00Z</time>
      </trkpt>
      <trkpt lat="47.55993" lon="-2.28412">
        <ele>6.4</ele>
        <time>2025-01-16T10:22:01Z</time>
      </trkpt>
      <trkpt lat="47.55993" lon="-2.28412">
        <ele>6.4</ele>
        <time>2025-01-16T10:22:02Z</time>
      </trkpt>
      <trkpt lat="47.55994" lon="-2.28413">
        <ele>6.5</ele>
        <time>2025-01-16T10:22:03Z</time>
      </trkpt>
      <trkpt lat="47.55995" lon="-2.28414">
        <ele>6.6</ele>
        <time>2025-01-16T10:22:04Z</time>
      </trkpt>
      <trkpt lat="47.55996" lon="-2.28415">
        <ele>6.7</ele>
        <time>2025-01-16T10:22:05Z</time>
      </trkpt>
      <trkpt lat="47.55996" lon="-2.28417">
        <ele>6.9</ele>
        <time>2025-01-16T10:22:06Z</time>
      </trkpt>
      <trkpt lat="47.55997" lon="-2.28418">
        <ele>6.9</ele>
        <time>2025-01-16T10:22:07Z</time>
      </trkpt>
      <trkpt lat="47.55998" lon="-2.2842">
        <ele>7</ele>
        <time>2025-01-16T10:22:08Z</time>
      </trkpt>
      <trkpt lat="47.55998" lon="-2.28421">
        <ele>7.1</ele>
        <time>2025-01-16T10:22:09Z</time>
      </trkpt>
      <trkpt lat="47.55998" lon="-2.28421">
        <ele>7.1</ele>
        <time>2025-01-16T10:22:10Z</time>
      </trkpt>
      <trkpt lat="47.55998" lon="-2.28423">
        <ele>7.1</ele>
        <time>2025-01-16T10:22:11Z</time>
      </trkpt>
      <trkpt lat="47.55998" lon="-2.28425">
        <ele>7.2</ele>
        <time>2025-01-16T10:22:12Z</time>
      </trkpt>
      <trkpt lat="47.55998" lon="-2.28426">
        <ele>7.2</ele>
        <time>2025-01-16T10:22:13Z</time>
      </trkpt>
      <trkpt lat="47.55998" lon="-2.28427">
        <ele>7.3</ele>
        <time>2025-01-16T10:22:14Z</time>
      </trkpt>
      <trkpt lat="47.55998" lon="-2.28429">
        <ele>7.3</ele>
        <time>2025-01-16T10:22:15Z</time>
      </trkpt>
      <trkpt lat="47.55997" lon="-2.2843">
        <ele>7.3</ele>
        <time>2025-01-16T10:22:16Z</time>
      </trkpt>
      <trkpt lat="47.55997" lon="-2.28432">
        <ele>7.4</ele>
        <time>2025-01-16T10:22:17Z</time>
      </trkpt>
      <trkpt lat="47.55997" lon="-2.28433">
        <ele>7.4</ele>
        <time>2025-01-16T10:22:18Z</time>
      </trkpt>
      <trkpt lat="47.55997" lon="-2.28434">
        <ele>7.4</ele>
        <time>2025-01-16T10:22:19Z</time>
      </trkpt>
      <trkpt lat="47.55996" lon="-2.28436">
        <ele>7.5</ele>
        <time>2025-01-16T10:22:20Z</time>
      </trkpt>
      <trkpt lat="47.55996" lon="-2.28437">
        <ele>7.5</ele>
        <time>2025-01-16T10:22:21Z</time>
      </trkpt>
      <trkpt lat="47.55996" lon="-2.28438">
        <ele>7.5</ele>
        <time>2025-01-16T10:22:22Z</time>
      </trkpt>
      <trkpt lat="47.55995" lon="-2.28439">
        <ele>7.5</ele>
        <time>2025-01-16T10:22:23Z</time>
      </trkpt>
      <trkpt lat="47.55995" lon="-2.28441">
        <ele>7.5</ele>
        <time>2025-01-16T10:22:24Z</time>
      </trkpt>
      <trkpt lat="47.55994" lon="-2.28442">
        <ele>7.5</ele>
        <time>2025-01-16T10:22:25Z</time>
      </trkpt>
      <trkpt lat="47.55994" lon="-2.28443">
        <ele>7.5</ele>
        <time>2025-01-16T10:22:26Z</time>
      </trkpt>
      <trkpt lat="47.55994" lon="-2.28444">
        <ele>7.6</ele>
        <time>2025-01-16T10:22:27Z</time>
      </trkpt>
      <trkpt lat="47.55994" lon="-2.28446">
        <ele>7.6</ele>
        <time>2025-01-16T10:22:28Z</time>
      </trkpt>
      <trkpt lat="47.55994" lon="-2.28447">
        <ele>7.7</ele>
        <time>2025-01-16T10:22:29Z</time>
      </trkpt>
      <trkpt lat="47.55995" lon="-2.28449">
        <ele>7.8</ele>
        <time>2025-01-16T10:22:30Z</time>
      </trkpt>
      <trkpt lat="47.55995" lon="-2.28451">
        <ele>7.9</ele>
        <time>2025-01-16T10:22:31Z</time>
      </trkpt>
      <trkpt lat="47.55995" lon="-2.28453">
        <ele>8</ele>
        <time>2025-01-16T10:22:32Z</time>
      </trkpt>
      <trkpt lat="47.55994" lon="-2.28453">
        <ele>7.9</ele>
        <time>2025-01-16T10:22:33Z</time>
      </trkpt>
      <trkpt lat="47.55994" lon="-2.28454">
        <ele>8</ele>
        <time>2025-01-16T10:22:34Z</time>
      </trkpt>
      <trkpt lat="47.55994" lon="-2.28456">
        <ele>8.1</ele>
        <time>2025-01-16T10:22:35Z</time>
      </trkpt>
      <trkpt lat="47.55994" lon="-2.28457">
        <ele>8.1</ele>
        <time>2025-01-16T10:22:36Z</time>
      </trkpt>
      <trkpt lat="47.55994" lon="-2.28459">
        <ele>8.2</ele>
        <time>2025-01-16T10:22:37Z</time>
      </trkpt>
      <trkpt lat="47.55994" lon="-2.2846">
        <ele>8.2</ele>
        <time>2025-01-16T10:22:38Z</time>
      </trkpt>
      <trkpt lat="47.55994" lon="-2.28462">
        <ele>8.3</ele>
        <time>2025-01-16T10:22:39Z</time>
      </trkpt>
      <trkpt lat="47.55994" lon="-2.28463">
        <ele>8.4</ele>
        <time>2025-01-16T10:22:40Z</time>
      </trkpt>
      <trkpt lat="47.55994" lon="-2.28464">
        <ele>8.4</ele>
        <time>2025-01-16T10:22:41Z</time>
      </trkpt>
      <trkpt lat="47.55994" lon="-2.28466">
        <ele>8.5</ele>
        <time>2025-01-16T10:22:42Z</time>
      </trkpt>
      <trkpt lat="47.55993" lon="-2.28468">
        <ele>8.6</ele>
        <time>2025-01-16T10:22:43Z</time>
      </trkpt>
      <trkpt lat="47.55993" lon="-2.2847">
        <ele>8.6</ele>
        <time>2025-01-16T10:22:44Z</time>
      </trkpt>
      <trkpt lat="47.55993" lon="-2.28472">
        <ele>8.7</ele>
        <time>2025-01-16T10:22:45Z</time>
      </trkpt>
      <trkpt lat="47.55993" lon="-2.28473">
        <ele>8.8</ele>
        <time>2025-01-16T10:22:46Z</time>
      </trkpt>
      <trkpt lat="47.55993" lon="-2.28474">
        <ele>8.8</ele>
        <time>2025-01-16T10:22:47Z</time>
      </trkpt>
      <trkpt lat="47.55993" lon="-2.28475">
        <ele>8.8</ele>
        <time>2025-01-16T10:22:48Z</time>
      </trkpt>
      <trkpt lat="47.55993" lon="-2.28476">
        <ele>8.8</ele>
        <time>2025-01-16T10:22:49Z</time>
      </trkpt>
      <trkpt lat="47.55993" lon="-2.28478">
        <ele>8.9</ele>
        <time>2025-01-16T10:22:50Z</time>
      </trkpt>
      <trkpt lat="47.55993" lon="-2.2848">
        <ele>9</ele>
        <time>2025-01-16T10:22:51Z</time>
      </trkpt>
      <trkpt lat="47.55993" lon="-2.28482">
        <ele>9</ele>
        <time>2025-01-16T10:22:52Z</time>
      </trkpt>
      <trkpt lat="47.55993" lon="-2.28483">
        <ele>9</ele>
        <time>2025-01-16T10:22:53Z</time>
      </trkpt>
      <trkpt lat="47.55993" lon="-2.28485">
        <ele>9.1</ele>
        <time>2025-01-16T10:22:54Z</time>
      </trkpt>
      <trkpt lat="47.55993" lon="-2.28487">
        <ele>9.1</ele>
        <time>2025-01-16T10:22:55Z</time>
      </trkpt>
      <trkpt lat="47.55993" lon="-2.28488">
        <ele>9.2</ele>
        <time>2025-01-16T10:22:56Z</time>
      </trkpt>
      <trkpt lat="47.55993" lon="-2.2849">
        <ele>9.2</ele>
        <time>2025-01-16T10:22:57Z</time>
      </trkpt>
      <trkpt lat="47.55993" lon="-2.28492">
        <ele>9.3</ele>
        <time>2025-01-16T10:22:58Z</time>
      </trkpt>
      <trkpt lat="47.55993" lon="-2.28494">
        <ele>9.3</ele>
        <time>2025-01-16T10:22:59Z</time>
      </trkpt>
      <trkpt lat="47.55994" lon="-2.28497">
        <ele>9.5</ele>
        <time>2025-01-16T10:23:00Z</time>
      </trkpt>
      <trkpt lat="47.55994" lon="-2.28499">
        <ele>9.5</ele>
        <time>2025-01-16T10:23:01Z</time>
      </trkpt>
      <trkpt lat="47.55994" lon="-2.28502">
        <ele>9.6</ele>
        <time>2025-01-16T10:23:02Z</time>
      </trkpt>
      <trkpt lat="47.55995" lon="-2.28504">
        <ele>9.6</ele>
        <time>2025-01-16T10:23:03Z</time>
      </trkpt>
      <trkpt lat="47.55996" lon="-2.28507">
        <ele>9.7</ele>
        <time>2025-01-16T10:23:04Z</time>
      </trkpt>
      <trkpt lat="47.55996" lon="-2.28509">
        <ele>9.7</ele>
        <time>2025-01-16T10:23:05Z</time>
      </trkpt>
      <trkpt lat="47.55996" lon="-2.28511">
        <ele>9.7</ele>
        <time>2025-01-16T10:23:06Z</time>
      </trkpt>
      <trkpt lat="47.55997" lon="-2.28513">
        <ele>9.8</ele>
        <time>2025-01-16T10:23:07Z</time>
      </trkpt>
      <trkpt lat="47.55997" lon="-2.28516">
        <ele>9.8</ele>
        <time>2025-01-16T10:23:08Z</time>
      </trkpt>
      <trkpt lat="47.55997" lon="-2.28518">
        <ele>9.8</ele>
        <time>2025-01-16T10:23:09Z</time>
      </trkpt>
      <trkpt lat="47.55998" lon="-2.28519">
        <ele>9.9</ele>
        <time>2025-01-16T10:23:10Z</time>
      </trkpt>
      <trkpt lat="47.55998" lon="-2.28521">
        <ele>9.9</ele>
        <time>2025-01-16T10:23:11Z</time>
      </trkpt>
      <trkpt lat="47.55999" lon="-2.28523">
        <ele>9.9</ele>
        <time>2025-01-16T10:23:12Z</time>
      </trkpt>
      <trkpt lat="47.55999" lon="-2.28525">
        <ele>9.9</ele>
        <time>2025-01-16T10:23:13Z</time>
      </trkpt>
      <trkpt lat="47.56" lon="-2.28526">
        <ele>10</ele>
        <time>2025-01-16T10:23:14Z</time>
      </trkpt>
      <trkpt lat="47.56001" lon="-2.28528">
        <ele>10</ele>
        <time>2025-01-16T10:23:15Z</time>
      </trkpt>
      <trkpt lat="47.56001" lon="-2.28529">
        <ele>10</ele>
        <time>2025-01-16T10:23:16Z</time>
      </trkpt>
      <trkpt lat="47.56002" lon="-2.28531">
        <ele>10.1</ele>
        <time>2025-01-16T10:23:17Z</time>
      </trkpt>
      <trkpt lat="47.56002" lon="-2.28533">
        <ele>10.1</ele>
        <time>2025-01-16T10:23:18Z</time>
      </trkpt>
      <trkpt lat="47.56003" lon="-2.28534">
        <ele>10.1</ele>
        <time>2025-01-16T10:23:19Z</time>
      </trkpt>
      <trkpt lat="47.56004" lon="-2.28536">
        <ele>10.1</ele>
        <time>2025-01-16T10:23:20Z</time>
      </trkpt>
      <trkpt lat="47.56004" lon="-2.28538">
        <ele>10.1</ele>
        <time>2025-01-16T10:23:21Z</time>
      </trkpt>
      <trkpt lat="47.56005" lon="-2.28541">
        <ele>10.2</ele>
        <time>2025-01-16T10:23:22Z</time>
      </trkpt>
      <trkpt lat="47.56006" lon="-2.28543">
        <ele>10.2</ele>
        <time>2025-01-16T10:23:23Z</time>
      </trkpt>
      <trkpt lat="47.56007" lon="-2.28544">
        <ele>10.3</ele>
        <time>2025-01-16T10:23:24Z</time>
      </trkpt>
      <trkpt lat="47.56008" lon="-2.28546">
        <ele>10.3</ele>
        <time>2025-01-16T10:23:25Z</time>
      </trkpt>
      <trkpt lat="47.56008" lon="-2.28547">
        <ele>10.3</ele>
        <time>2025-01-16T10:23:26Z</time>
      </trkpt>
      <trkpt lat="47.56009" lon="-2.28549">
        <ele>10.3</ele>
        <time>2025-01-16T10:23:27Z</time>
      </trkpt>
      <trkpt lat="47.5601" lon="-2.2855">
        <ele>10.4</ele>
        <time>2025-01-16T10:23:28Z</time>
      </trkpt>
      <trkpt lat="47.56011" lon="-2.28552">
        <ele>10.4</ele>
        <time>2025-01-16T10:23:29Z</time>
      </trkpt>
      <trkpt lat="47.56012" lon="-2.28553">
        <ele>10.4</ele>
        <time>2025-01-16T10:23:30Z</time>
      </trkpt>
      <trkpt lat="47.56012" lon="-2.28555">
        <ele>10.4</ele>
        <time>2025-01-16T10:23:31Z</time>
      </trkpt>
      <trkpt lat="47.56013" lon="-2.28556">
        <ele>10.5</ele>
        <time>2025-01-16T10:23:32Z</time>
      </trkpt>
      <trkpt lat="47.56014" lon="-2.28558">
        <ele>10.5</ele>
        <time>2025-01-16T10:23:33Z</time>
      </trkpt>
      <trkpt lat="47.56014" lon="-2.2856">
        <ele>10.5</ele>
        <time>2025-01-16T10:23:34Z</time>
      </trkpt>
      <trkpt lat="47.56015" lon="-2.28561">
        <ele>10.5</ele>
        <time>2025-01-16T10:23:35Z</time>
      </trkpt>
      <trkpt lat="47.56015" lon="-2.28563">
        <ele>10.5</ele>
        <time>2025-01-16T10:23:36Z</time>
      </trkpt>
      <trkpt lat="47.56016" lon="-2.28564">
        <ele>10.6</ele>
        <time>2025-01-16T10:23:37Z</time>
      </trkpt>
      <trkpt lat="47.56016" lon="-2.28565">
        <ele>10.6</ele>
        <time>2025-01-16T10:23:38Z</time>
      </trkpt>
      <trkpt lat="47.56017" lon="-2.28567">
        <ele>10.6</ele>
        <time>2025-01-16T10:23:39Z</time>
      </trkpt>
      <trkpt lat="47.56017" lon="-2.28568">
        <ele>10.6</ele>
        <time>2025-01-16T10:23:40Z</time>
      </trkpt>
      <trkpt lat="47.56017" lon="-2.2857">
        <ele>10.6</ele>
        <time>2025-01-16T10:23:41Z</time>
      </trkpt>
      <trkpt lat="47.56018" lon="-2.28572">
        <ele>10.6</ele>
        <time>2025-01-16T10:23:42Z</time>
      </trkpt>
      <trkpt lat="47.56019" lon="-2.28574">
        <ele>10.7</ele>
        <time>2025-01-16T10:23:43Z</time>
      </trkpt>
      <trkpt lat="47.5602" lon="-2.28576">
        <ele>10.7</ele>
        <time>2025-01-16T10:23:44Z</time>
      </trkpt>
      <trkpt lat="47.56021" lon="-2.28577">
        <ele>10.8</ele>
        <time>2025-01-16T10:23:45Z</time>
      </trkpt>
      <trkpt lat="47.56022" lon="-2.28578">
        <ele>10.8</ele>
        <time>2025-01-16T10:23:46Z</time>
      </trkpt>
      <trkpt lat="47.56022" lon="-2.28579">
        <ele>10.8</ele>
        <time>2025-01-16T10:23:47Z</time>
      </trkpt>
      <trkpt lat="47.56023" lon="-2.28581">
        <ele>10.8</ele>
        <time>2025-01-16T10:23:48Z</time>
      </trkpt>
      <trkpt lat="47.56023" lon="-2.28583">
        <ele>10.8</ele>
        <time>2025-01-16T10:23:49Z</time>
      </trkpt>
      <trkpt lat="47.56024" lon="-2.28584">
        <ele>10.9</ele>
        <time>2025-01-16T10:23:50Z</time>
      </trkpt>
      <trkpt lat="47.56024" lon="-2.28586">
        <ele>10.9</ele>
        <time>2025-01-16T10:23:51Z</time>
      </trkpt>
      <trkpt lat="47.56024" lon="-2.28588">
        <ele>10.9</ele>
        <time>2025-01-16T10:23:52Z</time>
      </trkpt>
      <trkpt lat="47.56025" lon="-2.28589">
        <ele>10.9</ele>
        <time>2025-01-16T10:23:53Z</time>
      </trkpt>
      <trkpt lat="47.56025" lon="-2.2859">
        <ele>10.9</ele>
        <time>2025-01-16T10:23:54Z</time>
      </trkpt>
      <trkpt lat="47.56025" lon="-2.28591">
        <ele>10.9</ele>
        <time>2025-01-16T10:23:55Z</time>
      </trkpt>
      <trkpt lat="47.56025" lon="-2.28593">
        <ele>10.9</ele>
        <time>2025-01-16T10:23:56Z</time>
      </trkpt>
      <trkpt lat="47.56024" lon="-2.28594">
        <ele>10.9</ele>
        <time>2025-01-16T10:23:57Z</time>
      </trkpt>
      <trkpt lat="47.56024" lon="-2.28596">
        <ele>10.9</ele>
        <time>2025-01-16T10:23:58Z</time>
      </trkpt>
      <trkpt lat="47.56024" lon="-2.28598">
        <ele>10.9</ele>
        <time>2025-01-16T10:23:59Z</time>
      </trkpt>
      <trkpt lat="47.56025" lon="-2.286">
        <ele>10.9</ele>
        <time>2025-01-16T10:24:00Z</time>
      </trkpt>
      <trkpt lat="47.56025" lon="-2.28602">
        <ele>10.9</ele>
        <time>2025-01-16T10:24:01Z</time>
      </trkpt>
      <trkpt lat="47.56025" lon="-2.28603">
        <ele>10.9</ele>
        <time>2025-01-16T10:24:02Z</time>
      </trkpt>
      <trkpt lat="47.56025" lon="-2.28604">
        <ele>10.9</ele>
        <time>2025-01-16T10:24:03Z</time>
      </trkpt>
      <trkpt lat="47.56025" lon="-2.28605">
        <ele>10.9</ele>
        <time>2025-01-16T10:24:04Z</time>
      </trkpt>
      <trkpt lat="47.56025" lon="-2.28606">
        <ele>10.9</ele>
        <time>2025-01-16T10:24:05Z</time>
      </trkpt>
      <trkpt lat="47.56025" lon="-2.28608">
        <ele>10.9</ele>
        <time>2025-01-16T10:24:06Z</time>
      </trkpt>
      <trkpt lat="47.56025" lon="-2.2861">
        <ele>10.9</ele>
        <time>2025-01-16T10:24:07Z</time>
      </trkpt>
      <trkpt lat="47.56025" lon="-2.28611">
        <ele>10.9</ele>
        <time>2025-01-16T10:24:08Z</time>
      </trkpt>
      <trkpt lat="47.56025" lon="-2.28613">
        <ele>10.8</ele>
        <time>2025-01-16T10:24:09Z</time>
      </trkpt>
      <trkpt lat="47.56025" lon="-2.28614">
        <ele>10.8</ele>
        <time>2025-01-16T10:24:10Z</time>
      </trkpt>
      <trkpt lat="47.56025" lon="-2.28616">
        <ele>10.7</ele>
        <time>2025-01-16T10:24:11Z</time>
      </trkpt>
      <trkpt lat="47.56026" lon="-2.28618">
        <ele>10.7</ele>
        <time>2025-01-16T10:24:12Z</time>
      </trkpt>
      <trkpt lat="47.56026" lon="-2.2862">
        <ele>10.6</ele>
        <time>2025-01-16T10:24:13Z</time>
      </trkpt>
      <trkpt lat="47.56026" lon="-2.28622">
        <ele>10.5</ele>
        <time>2025-01-16T10:24:14Z</time>
      </trkpt>
      <trkpt lat="47.56027" lon="-2.28624">
        <ele>10.5</ele>
        <time>2025-01-16T10:24:15Z</time>
      </trkpt>
      <trkpt lat="47.56027" lon="-2.28626">
        <ele>10.4</ele>
        <time>2025-01-16T10:24:16Z</time>
      </trkpt>
      <trkpt lat="47.56027" lon="-2.28627">
        <ele>10.4</ele>
        <time>2025-01-16T10:24:17Z</time>
      </trkpt>
      <trkpt lat="47.56027" lon="-2.28629">
        <ele>10.3</ele>
        <time>2025-01-16T10:24:18Z</time>
      </trkpt>
      <trkpt lat="47.56028" lon="-2.28631">
        <ele>10.3</ele>
        <time>2025-01-16T10:24:19Z</time>
      </trkpt>
      <trkpt lat="47.56028" lon="-2.28633">
        <ele>10.2</ele>
        <time>2025-01-16T10:24:20Z</time>
      </trkpt>
      <trkpt lat="47.56028" lon="-2.28635">
        <ele>10.1</ele>
        <time>2025-01-16T10:24:21Z</time>
      </trkpt>
      <trkpt lat="47.56029" lon="-2.28636">
        <ele>10.1</ele>
        <time>2025-01-16T10:24:22Z</time>
      </trkpt>
      <trkpt lat="47.56029" lon="-2.28638">
        <ele>10.1</ele>
        <time>2025-01-16T10:24:23Z</time>
      </trkpt>
      <trkpt lat="47.56029" lon="-2.2864">
        <ele>10</ele>
        <time>2025-01-16T10:24:24Z</time>
      </trkpt>
      <trkpt lat="47.56029" lon="-2.28642">
        <ele>10</ele>
        <time>2025-01-16T10:24:25Z</time>
      </trkpt>
      <trkpt lat="47.56029" lon="-2.28644">
        <ele>10</ele>
        <time>2025-01-16T10:24:26Z</time>
      </trkpt>
      <trkpt lat="47.56029" lon="-2.28646">
        <ele>10</ele>
        <time>2025-01-16T10:24:27Z</time>
      </trkpt>
      <trkpt lat="47.56029" lon="-2.28648">
        <ele>10</ele>
        <time>2025-01-16T10:24:28Z</time>
      </trkpt>
      <trkpt lat="47.56029" lon="-2.28649">
        <ele>10</ele>
        <time>2025-01-16T10:24:29Z</time>
      </trkpt>
      <trkpt lat="47.5603" lon="-2.2865">
        <ele>10.1</ele>
        <time>2025-01-16T10:24:30Z</time>
      </trkpt>
      <trkpt lat="47.5603" lon="-2.28652">
        <ele>10.1</ele>
        <time>2025-01-16T10:24:31Z</time>
      </trkpt>
      <trkpt lat="47.56031" lon="-2.28653">
        <ele>10.1</ele>
        <time>2025-01-16T10:24:32Z</time>
      </trkpt>
      <trkpt lat="47.56031" lon="-2.28655">
        <ele>10.1</ele>
        <time>2025-01-16T10:24:33Z</time>
      </trkpt>
      <trkpt lat="47.56031" lon="-2.28656">
        <ele>10.1</ele>
        <time>2025-01-16T10:24:34Z</time>
      </trkpt>
      <trkpt lat="47.56032" lon="-2.28658">
        <ele>10.2</ele>
        <time>2025-01-16T10:24:35Z</time>
      </trkpt>
      <trkpt lat="47.56032" lon="-2.28659">
        <ele>10.2</ele>
        <time>2025-01-16T10:24:36Z</time>
      </trkpt>
      <trkpt lat="47.56032" lon="-2.28661">
        <ele>10.2</ele>
        <time>2025-01-16T10:24:37Z</time>
      </trkpt>
      <trkpt lat="47.56033" lon="-2.28662">
        <ele>10.2</ele>
        <time>2025-01-16T10:24:38Z</time>
      </trkpt>
      <trkpt lat="47.56033" lon="-2.28664">
        <ele>10.2</ele>
        <time>2025-01-16T10:24:39Z</time>
      </trkpt>
      <trkpt lat="47.56033" lon="-2.28666">
        <ele>10.2</ele>
        <time>2025-01-16T10:24:40Z</time>
      </trkpt>
      <trkpt lat="47.56033" lon="-2.28668">
        <ele>10.1</ele>
        <time>2025-01-16T10:24:41Z</time>
      </trkpt>
      <trkpt lat="47.56033" lon="-2.2867">
        <ele>10.1</ele>
        <time>2025-01-16T10:24:42Z</time>
      </trkpt>
      <trkpt lat="47.56033" lon="-2.28672">
        <ele>10</ele>
        <time>2025-01-16T10:24:43Z</time>
      </trkpt>
      <trkpt lat="47.56034" lon="-2.28674">
        <ele>10</ele>
        <time>2025-01-16T10:24:44Z</time>
      </trkpt>
      <trkpt lat="47.56034" lon="-2.28675">
        <ele>10</ele>
        <time>2025-01-16T10:24:45Z</time>
      </trkpt>
      <trkpt lat="47.56034" lon="-2.28677">
        <ele>9.9</ele>
        <time>2025-01-16T10:24:46Z</time>
      </trkpt>
      <trkpt lat="47.56035" lon="-2.28678">
        <ele>10</ele>
        <time>2025-01-16T10:24:47Z</time>
      </trkpt>
      <trkpt lat="47.56035" lon="-2.2868">
        <ele>9.9</ele>
        <time>2025-01-16T10:24:48Z</time>
      </trkpt>
      <trkpt lat="47.56036" lon="-2.28682">
        <ele>9.9</ele>
        <time>2025-01-16T10:24:49Z</time>
      </trkpt>
      <trkpt lat="47.56037" lon="-2.28683">
        <ele>9.9</ele>
        <time>2025-01-16T10:24:50Z</time>
      </trkpt>
      <trkpt lat="47.56038" lon="-2.28684">
        <ele>10</ele>
        <time>2025-01-16T10:24:51Z</time>
      </trkpt>
      <trkpt lat="47.56039" lon="-2.28686">
        <ele>10</ele>
        <time>2025-01-16T10:24:52Z</time>
      </trkpt>
      <trkpt lat="47.5604" lon="-2.28687">
        <ele>10</ele>
        <time>2025-01-16T10:24:53Z</time>
      </trkpt>
      <trkpt lat="47.5604" lon="-2.28688">
        <ele>10</ele>
        <time>2025-01-16T10:24:54Z</time>
      </trkpt>
      <trkpt lat="47.56041" lon="-2.28689">
        <ele>10.1</ele>
        <time>2025-01-16T10:24:55Z</time>
      </trkpt>
      <trkpt lat="47.56041" lon="-2.2869">
        <ele>10</ele>
        <time>2025-01-16T10:24:56Z</time>
      </trkpt>
      <trkpt lat="47.56042" lon="-2.28691">
        <ele>10.1</ele>
        <time>2025-01-16T10:24:57Z</time>
      </trkpt>
      <trkpt lat="47.56042" lon="-2.28692">
        <ele>10.1</ele>
        <time>2025-01-16T10:24:58Z</time>
      </trkpt>
      <trkpt lat="47.56043" lon="-2.28693">
        <ele>10.1</ele>
        <time>2025-01-16T10:24:59Z</time>
      </trkpt>
      <trkpt lat="47.56044" lon="-2.28694">
        <ele>10.2</ele>
        <time>2025-01-16T10:25:00Z</time>
      </trkpt>
      <trkpt lat="47.56045" lon="-2.28695">
        <ele>10.2</ele>
        <time>2025-01-16T10:25:01Z</time>
      </trkpt>
      <trkpt lat="47.56045" lon="-2.28696">
        <ele>10.2</ele>
        <time>2025-01-16T10:25:02Z</time>
      </trkpt>
      <trkpt lat="47.56046" lon="-2.28697">
        <ele>10.3</ele>
        <time>2025-01-16T10:25:03Z</time>
      </trkpt>
      <trkpt lat="47.56047" lon="-2.28698">
        <ele>10.4</ele>
        <time>2025-01-16T10:25:04Z</time>
      </trkpt>
      <trkpt lat="47.56048" lon="-2.28699">
        <ele>10.5</ele>
        <time>2025-01-16T10:25:05Z</time>
      </trkpt>
      <trkpt lat="47.5605" lon="-2.287">
        <ele>10.6</ele>
        <time>2025-01-16T10:25:06Z</time>
      </trkpt>
      <trkpt lat="47.56051" lon="-2.28701">
        <ele>10.7</ele>
        <time>2025-01-16T10:25:07Z</time>
      </trkpt>
      <trkpt lat="47.56052" lon="-2.28702">
        <ele>10.7</ele>
        <time>2025-01-16T10:25:08Z</time>
      </trkpt>
      <trkpt lat="47.56053" lon="-2.28702">
        <ele>10.8</ele>
        <time>2025-01-16T10:25:09Z</time>
      </trkpt>
      <trkpt lat="47.56054" lon="-2.28703">
        <ele>10.9</ele>
        <time>2025-01-16T10:25:10Z</time>
      </trkpt>
      <trkpt lat="47.56055" lon="-2.28704">
        <ele>11</ele>
        <time>2025-01-16T10:25:11Z</time>
      </trkpt>
      <trkpt lat="47.56057" lon="-2.28704">
        <ele>11.1</ele>
        <time>2025-01-16T10:25:12Z</time>
      </trkpt>
      <trkpt lat="47.56058" lon="-2.28705">
        <ele>11.2</ele>
        <time>2025-01-16T10:25:13Z</time>
      </trkpt>
      <trkpt lat="47.56059" lon="-2.28706">
        <ele>11.3</ele>
        <time>2025-01-16T10:25:14Z</time>
      </trkpt>
      <trkpt lat="47.56061" lon="-2.28706">
        <ele>11.5</ele>
        <time>2025-01-16T10:25:15Z</time>
      </trkpt>
      <trkpt lat="47.56062" lon="-2.28707">
        <ele>11.6</ele>
        <time>2025-01-16T10:25:16Z</time>
      </trkpt>
      <trkpt lat="47.56064" lon="-2.28708">
        <ele>11.8</ele>
        <time>2025-01-16T10:25:17Z</time>
      </trkpt>
      <trkpt lat="47.56065" lon="-2.28708">
        <ele>11.8</ele>
        <time>2025-01-16T10:25:18Z</time>
      </trkpt>
      <trkpt lat="47.56066" lon="-2.28709">
        <ele>11.9</ele>
        <time>2025-01-16T10:25:19Z</time>
      </trkpt>
      <trkpt lat="47.56067" lon="-2.28709">
        <ele>12</ele>
        <time>2025-01-16T10:25:20Z</time>
      </trkpt>
      <trkpt lat="47.56068" lon="-2.2871">
        <ele>12.1</ele>
        <time>2025-01-16T10:25:21Z</time>
      </trkpt>
      <trkpt lat="47.56069" lon="-2.2871">
        <ele>12.2</ele>
        <time>2025-01-16T10:25:22Z</time>
      </trkpt>
      <trkpt lat="47.5607" lon="-2.28711">
        <ele>12.3</ele>
        <time>2025-01-16T10:25:23Z</time>
      </trkpt>
      <trkpt lat="47.56071" lon="-2.28712">
        <ele>12.5</ele>
        <time>2025-01-16T10:25:24Z</time>
      </trkpt>
      <trkpt lat="47.56072" lon="-2.28712">
        <ele>12.6</ele>
        <time>2025-01-16T10:25:25Z</time>
      </trkpt>
      <trkpt lat="47.56073" lon="-2.28713">
        <ele>12.7</ele>
        <time>2025-01-16T10:25:26Z</time>
      </trkpt>
      <trkpt lat="47.56073" lon="-2.28714">
        <ele>12.7</ele>
        <time>2025-01-16T10:25:27Z</time>
      </trkpt>
      <trkpt lat="47.56074" lon="-2.28714">
        <ele>12.8</ele>
        <time>2025-01-16T10:25:28Z</time>
      </trkpt>
      <trkpt lat="47.56075" lon="-2.28715">
        <ele>12.9</ele>
        <time>2025-01-16T10:25:29Z</time>
      </trkpt>
      <trkpt lat="47.56076" lon="-2.28716">
        <ele>13</ele>
        <time>2025-01-16T10:25:30Z</time>
      </trkpt>
      <trkpt lat="47.56077" lon="-2.28717">
        <ele>13.2</ele>
        <time>2025-01-16T10:25:31Z</time>
      </trkpt>
      <trkpt lat="47.56078" lon="-2.28718">
        <ele>13.3</ele>
        <time>2025-01-16T10:25:32Z</time>
      </trkpt>
      <trkpt lat="47.56078" lon="-2.28718">
        <ele>13.3</ele>
        <time>2025-01-16T10:25:33Z</time>
      </trkpt>
      <trkpt lat="47.56079" lon="-2.28719">
        <ele>13.4</ele>
        <time>2025-01-16T10:25:34Z</time>
      </trkpt>
      <trkpt lat="47.5608" lon="-2.28719">
        <ele>13.5</ele>
        <time>2025-01-16T10:25:35Z</time>
      </trkpt>
      <trkpt lat="47.56081" lon="-2.28719">
        <ele>13.6</ele>
        <time>2025-01-16T10:25:36Z</time>
      </trkpt>
      <trkpt lat="47.56082" lon="-2.2872">
        <ele>13.8</ele>
        <time>2025-01-16T10:25:37Z</time>
      </trkpt>
      <trkpt lat="47.56082" lon="-2.28721">
        <ele>13.8</ele>
        <time>2025-01-16T10:25:38Z</time>
      </trkpt>
      <trkpt lat="47.56083" lon="-2.28721">
        <ele>13.9</ele>
        <time>2025-01-16T10:25:39Z</time>
      </trkpt>
      <trkpt lat="47.56085" lon="-2.28722">
        <ele>14.1</ele>
        <time>2025-01-16T10:25:40Z</time>
      </trkpt>
      <trkpt lat="47.56086" lon="-2.28723">
        <ele>14.2</ele>
        <time>2025-01-16T10:25:41Z</time>
      </trkpt>
      <trkpt lat="47.56087" lon="-2.28723">
        <ele>14.3</ele>
        <time>2025-01-16T10:25:42Z</time>
      </trkpt>
      <trkpt lat="47.56088" lon="-2.28724">
        <ele>14.3</ele>
        <time>2025-01-16T10:25:43Z</time>
      </trkpt>
      <trkpt lat="47.56088" lon="-2.28724">
        <ele>14.3</ele>
        <time>2025-01-16T10:25:44Z</time>
      </trkpt>
      <trkpt lat="47.56089" lon="-2.28724">
        <ele>14.4</ele>
        <time>2025-01-16T10:25:45Z</time>
      </trkpt>
      <trkpt lat="47.56089" lon="-2.28725">
        <ele>14.4</ele>
        <time>2025-01-16T10:25:46Z</time>
      </trkpt>
      <trkpt lat="47.5609" lon="-2.28725">
        <ele>14.5</ele>
        <time>2025-01-16T10:25:47Z</time>
      </trkpt>
      <trkpt lat="47.56091" lon="-2.28726">
        <ele>14.6</ele>
        <time>2025-01-16T10:25:48Z</time>
      </trkpt>
      <trkpt lat="47.56092" lon="-2.28728">
        <ele>14.7</ele>
        <time>2025-01-16T10:25:49Z</time>
      </trkpt>
      <trkpt lat="47.56093" lon="-2.28729">
        <ele>14.8</ele>
        <time>2025-01-16T10:25:50Z</time>
      </trkpt>
      <trkpt lat="47.56093" lon="-2.28729">
        <ele>14.8</ele>
        <time>2025-01-16T10:25:51Z</time>
      </trkpt>
      <trkpt lat="47.56094" lon="-2.2873">
        <ele>14.9</ele>
        <time>2025-01-16T10:25:52Z</time>
      </trkpt>
      <trkpt lat="47.56094" lon="-2.2873">
        <ele>14.9</ele>
        <time>2025-01-16T10:25:53Z</time>
      </trkpt>
      <trkpt lat="47.56095" lon="-2.28731">
        <ele>15</ele>
        <time>2025-01-16T10:25:54Z</time>
      </trkpt>
      <trkpt lat="47.56096" lon="-2.28732">
        <ele>15.1</ele>
        <time>2025-01-16T10:25:55Z</time>
      </trkpt>
      <trkpt lat="47.56097" lon="-2.28732">
        <ele>15.2</ele>
        <time>2025-01-16T10:25:56Z</time>
      </trkpt>
      <trkpt lat="47.56099" lon="-2.28733">
        <ele>15.3</ele>
        <time>2025-01-16T10:25:57Z</time>
      </trkpt>
      <trkpt lat="47.561" lon="-2.28733">
        <ele>15.4</ele>
        <time>2025-01-16T10:25:58Z</time>
      </trkpt>
      <trkpt lat="47.56101" lon="-2.28733">
        <ele>15.5</ele>
        <time>2025-01-16T10:25:59Z</time>
      </trkpt>
      <trkpt lat="47.56103" lon="-2.28734">
        <ele>15.7</ele>
        <time>2025-01-16T10:26:00Z</time>
      </trkpt>
      <trkpt lat="47.56104" lon="-2.28734">
        <ele>15.8</ele>
        <time>2025-01-16T10:26:01Z</time>
      </trkpt>
      <trkpt lat="47.56105" lon="-2.28735">
        <ele>15.9</ele>
        <time>2025-01-16T10:26:02Z</time>
      </trkpt>
      <trkpt lat="47.56106" lon="-2.28736">
        <ele>16</ele>
        <time>2025-01-16T10:26:03Z</time>
      </trkpt>
      <trkpt lat="47.56107" lon="-2.28736">
        <ele>16.1</ele>
        <time>2025-01-16T10:26:04Z</time>
      </trkpt>
      <trkpt lat="47.56108" lon="-2.28737">
        <ele>16.2</ele>
        <time>2025-01-16T10:26:05Z</time>
      </trkpt>
      <trkpt lat="47.56109" lon="-2.28738">
        <ele>16.4</ele>
        <time>2025-01-16T10:26:06Z</time>
      </trkpt>
      <trkpt lat="47.5611" lon="-2.28739">
        <ele>16.5</ele>
        <time>2025-01-16T10:26:07Z</time>
      </trkpt>
      <trkpt lat="47.56111" lon="-2.28739">
        <ele>16.6</ele>
        <time>2025-01-16T10:26:08Z</time>
      </trkpt>
      <trkpt lat="47.56112" lon="-2.2874">
        <ele>16.8</ele>
        <time>2025-01-16T10:26:09Z</time>
      </trkpt>
      <trkpt lat="47.56113" lon="-2.2874">
        <ele>16.9</ele>
        <time>2025-01-16T10:26:10Z</time>
      </trkpt>
      <trkpt lat="47.56114" lon="-2.2874">
        <ele>17</ele>
        <time>2025-01-16T10:26:11Z</time>
      </trkpt>
      <trkpt lat="47.56114" lon="-2.2874">
        <ele>17</ele>
        <time>2025-01-16T10:26:12Z</time>
      </trkpt>
      <trkpt lat="47.56115" lon="-2.2874">
        <ele>17.1</ele>
        <time>2025-01-16T10:26:13Z</time>
      </trkpt>
      <trkpt lat="47.56116" lon="-2.2874">
        <ele>17.3</ele>
        <time>2025-01-16T10:26:14Z</time>
      </trkpt>
      <trkpt lat="47.56117" lon="-2.28741">
        <ele>17.5</ele>
        <time>2025-01-16T10:26:15Z</time>
      </trkpt>
      <trkpt lat="47.56118" lon="-2.28741">
        <ele>17.6</ele>
        <time>2025-01-16T10:26:16Z</time>
      </trkpt>
      <trkpt lat="47.56119" lon="-2.28742">
        <ele>17.8</ele>
        <time>2025-01-16T10:26:17Z</time>
      </trkpt>
      <trkpt lat="47.5612" lon="-2.28743">
        <ele>17.9</ele>
        <time>2025-01-16T10:26:18Z</time>
      </trkpt>
      <trkpt lat="47.56121" lon="-2.28744">
        <ele>18.1</ele>
        <time>2025-01-16T10:26:19Z</time>
      </trkpt>
      <trkpt lat="47.56122" lon="-2.28745">
        <ele>18.3</ele>
        <time>2025-01-16T10:26:20Z</time>
      </trkpt>
      <trkpt lat="47.56122" lon="-2.28746">
        <ele>18.4</ele>
        <time>2025-01-16T10:26:21Z</time>
      </trkpt>
      <trkpt lat="47.56122" lon="-2.28748">
        <ele>18.5</ele>
        <time>2025-01-16T10:26:22Z</time>
      </trkpt>
      <trkpt lat="47.56123" lon="-2.28749">
        <ele>18.7</ele>
        <time>2025-01-16T10:26:23Z</time>
      </trkpt>
      <trkpt lat="47.56123" lon="-2.2875">
        <ele>18.7</ele>
        <time>2025-01-16T10:26:24Z</time>
      </trkpt>
      <trkpt lat="47.56123" lon="-2.28752">
        <ele>18.8</ele>
        <time>2025-01-16T10:26:25Z</time>
      </trkpt>
      <trkpt lat="47.56124" lon="-2.28752">
        <ele>19</ele>
        <time>2025-01-16T10:26:26Z</time>
      </trkpt>
      <trkpt lat="47.56124" lon="-2.28753">
        <ele>19</ele>
        <time>2025-01-16T10:26:27Z</time>
      </trkpt>
      <trkpt lat="47.56125" lon="-2.28754">
        <ele>19.2</ele>
        <time>2025-01-16T10:26:28Z</time>
      </trkpt>
      <trkpt lat="47.56125" lon="-2.28755">
        <ele>19.3</ele>
        <time>2025-01-16T10:26:29Z</time>
      </trkpt>
      <trkpt lat="47.56125" lon="-2.28756">
        <ele>19.3</ele>
        <time>2025-01-16T10:26:30Z</time>
      </trkpt>
      <trkpt lat="47.56125" lon="-2.28758">
        <ele>19.4</ele>
        <time>2025-01-16T10:26:31Z</time>
      </trkpt>
      <trkpt lat="47.56125" lon="-2.2876">
        <ele>19.5</ele>
        <time>2025-01-16T10:26:32Z</time>
      </trkpt>
      <trkpt lat="47.56125" lon="-2.28762">
        <ele>19.6</ele>
        <time>2025-01-16T10:26:33Z</time>
      </trkpt>
      <trkpt lat="47.56125" lon="-2.28763">
        <ele>19.7</ele>
        <time>2025-01-16T10:26:34Z</time>
      </trkpt>
      <trkpt lat="47.56124" lon="-2.28762">
        <ele>19.5</ele>
        <time>2025-01-16T10:26:35Z</time>
      </trkpt>
      <trkpt lat="47.56124" lon="-2.28762">
        <ele>19.5</ele>
        <time>2025-01-16T10:26:36Z</time>
      </trkpt>
      <trkpt lat="47.56124" lon="-2.28763">
        <ele>19.6</ele>
        <time>2025-01-16T10:26:37Z</time>
      </trkpt>
      <trkpt lat="47.56123" lon="-2.28764">
        <ele>19.5</ele>
        <time>2025-01-16T10:26:38Z</time>
      </trkpt>
      <trkpt lat="47.56123" lon="-2.28764">
        <ele>19.5</ele>
        <time>2025-01-16T10:26:39Z</time>
      </trkpt>
      <trkpt lat="47.56123" lon="-2.28764">
        <ele>19.5</ele>
        <time>2025-01-16T10:26:40Z</time>
      </trkpt>
      <trkpt lat="47.56123" lon="-2.28765">
        <ele>19.6</ele>
        <time>2025-01-16T10:26:41Z</time>
      </trkpt>
      <trkpt lat="47.56123" lon="-2.28765">
        <ele>19.6</ele>
        <time>2025-01-16T10:26:42Z</time>
      </trkpt>
      <trkpt lat="47.56122" lon="-2.28766">
        <ele>19.5</ele>
        <time>2025-01-16T10:26:43Z</time>
      </trkpt>
      <trkpt lat="47.56121" lon="-2.28767">
        <ele>19.4</ele>
        <time>2025-01-16T10:26:44Z</time>
      </trkpt>
      <trkpt lat="47.5612" lon="-2.28768">
        <ele>19.4</ele>
        <time>2025-01-16T10:26:45Z</time>
      </trkpt>
      <trkpt lat="47.5612" lon="-2.28768">
        <ele>19.4</ele>
        <time>2025-01-16T10:26:46Z</time>
      </trkpt>
      <trkpt lat="47.56119" lon="-2.28769">
        <ele>19.3</ele>
        <time>2025-01-16T10:26:47Z</time>
      </trkpt>
      <trkpt lat="47.56118" lon="-2.28769">
        <ele>19.2</ele>
        <time>2025-01-16T10:26:48Z</time>
      </trkpt>
      <trkpt lat="47.56117" lon="-2.28769">
        <ele>19.1</ele>
        <time>2025-01-16T10:26:49Z</time>
      </trkpt>
      <trkpt lat="47.56116" lon="-2.28769">
        <ele>19</ele>
        <time>2025-01-16T10:26:50Z</time>
      </trkpt>
      <trkpt lat="47.56115" lon="-2.2877">
        <ele>18.9</ele>
        <time>2025-01-16T10:26:51Z</time>
      </trkpt>
      <trkpt lat="47.56114" lon="-2.2877">
        <ele>18.8</ele>
        <time>2025-01-16T10:26:52Z</time>
      </trkpt>
      <trkpt lat="47.56113" lon="-2.28771">
        <ele>18.7</ele>
        <time>2025-01-16T10:26:53Z</time>
      </trkpt>
      <trkpt lat="47.56112" lon="-2.28771">
        <ele>18.6</ele>
        <time>2025-01-16T10:26:54Z</time>
      </trkpt>
      <trkpt lat="47.56111" lon="-2.28772">
        <ele>18.6</ele>
        <time>2025-01-16T10:26:55Z</time>
      </trkpt>
      <trkpt lat="47.5611" lon="-2.28772">
        <ele>18.5</ele>
        <time>2025-01-16T10:26:56Z</time>
      </trkpt>
      <trkpt lat="47.56109" lon="-2.28773">
        <ele>18.4</ele>
        <time>2025-01-16T10:26:57Z</time>
      </trkpt>
      <trkpt lat="47.56107" lon="-2.28774">
        <ele>18.3</ele>
        <time>2025-01-16T10:26:58Z</time>
      </trkpt>
      <trkpt lat="47.56106" lon="-2.28775">
        <ele>18.2</ele>
        <time>2025-01-16T10:26:59Z</time>
      </trkpt>
      <trkpt lat="47.56105" lon="-2.28776">
        <ele>18.2</ele>
        <time>2025-01-16T10:27:00Z</time>
      </trkpt>
      <trkpt lat="47.56104" lon="-2.28777">
        <ele>18.2</ele>
        <time>2025-01-16T10:27:01Z</time>
      </trkpt>
      <trkpt lat="47.56102" lon="-2.28778">
        <ele>18</ele>
        <time>2025-01-16T10:27:02Z</time>
      </trkpt>
      <trkpt lat="47.56101" lon="-2.28779">
        <ele>18.1</ele>
        <time>2025-01-16T10:27:03Z</time>
      </trkpt>
      <trkpt lat="47.561" lon="-2.2878">
        <ele>18.1</ele>
        <time>2025-01-16T10:27:04Z</time>
      </trkpt>
      <trkpt lat="47.56098" lon="-2.28781">
        <ele>18</ele>
        <time>2025-01-16T10:27:05Z</time>
      </trkpt>
      <trkpt lat="47.56097" lon="-2.28782">
        <ele>18</ele>
        <time>2025-01-16T10:27:06Z</time>
      </trkpt>
      <trkpt lat="47.56096" lon="-2.28783">
        <ele>18</ele>
        <time>2025-01-16T10:27:07Z</time>
      </trkpt>
      <trkpt lat="47.56096" lon="-2.28784">
        <ele>18.1</ele>
        <time>2025-01-16T10:27:08Z</time>
      </trkpt>
      <trkpt lat="47.56095" lon="-2.28784">
        <ele>18</ele>
        <time>2025-01-16T10:27:09Z</time>
      </trkpt>
      <trkpt lat="47.56094" lon="-2.28786">
        <ele>18.1</ele>
        <time>2025-01-16T10:27:10Z</time>
      </trkpt>
      <trkpt lat="47.56093" lon="-2.28787">
        <ele>18.1</ele>
        <time>2025-01-16T10:27:11Z</time>
      </trkpt>
      <trkpt lat="47.56092" lon="-2.28787">
        <ele>17.9</ele>
        <time>2025-01-16T10:27:12Z</time>
      </trkpt>
      <trkpt lat="47.56092" lon="-2.28788">
        <ele>18</ele>
        <time>2025-01-16T10:27:13Z</time>
      </trkpt>
      <trkpt lat="47.56091" lon="-2.28789">
        <ele>18</ele>
        <time>2025-01-16T10:27:14Z</time>
      </trkpt>
      <trkpt lat="47.5609" lon="-2.2879">
        <ele>17.9</ele>
        <time>2025-01-16T10:27:15Z</time>
      </trkpt>
      <trkpt lat="47.56089" lon="-2.28792">
        <ele>17.9</ele>
        <time>2025-01-16T10:27:16Z</time>
      </trkpt>
      <trkpt lat="47.56088" lon="-2.28793">
        <ele>17.9</ele>
        <time>2025-01-16T10:27:17Z</time>
      </trkpt>
      <trkpt lat="47.56088" lon="-2.28794">
        <ele>18</ele>
        <time>2025-01-16T10:27:18Z</time>
      </trkpt>
      <trkpt lat="47.56087" lon="-2.28795">
        <ele>17.9</ele>
        <time>2025-01-16T10:27:19Z</time>
      </trkpt>
      <trkpt lat="47.56086" lon="-2.28797">
        <ele>17.9</ele>
        <time>2025-01-16T10:27:20Z</time>
      </trkpt>
      <trkpt lat="47.56085" lon="-2.28798">
        <ele>17.8</ele>
        <time>2025-01-16T10:27:21Z</time>
      </trkpt>
      <trkpt lat="47.56085" lon="-2.288">
        <ele>17.9</ele>
        <time>2025-01-16T10:27:22Z</time>
      </trkpt>
      <trkpt lat="47.56084" lon="-2.28801">
        <ele>17.8</ele>
        <time>2025-01-16T10:27:23Z</time>
      </trkpt>
      <trkpt lat="47.56083" lon="-2.28803">
        <ele>17.8</ele>
        <time>2025-01-16T10:27:24Z</time>
      </trkpt>
      <trkpt lat="47.56082" lon="-2.28804">
        <ele>17.7</ele>
        <time>2025-01-16T10:27:25Z</time>
      </trkpt>
      <trkpt lat="47.56081" lon="-2.28805">
        <ele>17.6</ele>
        <time>2025-01-16T10:27:26Z</time>
      </trkpt>
      <trkpt lat="47.56081" lon="-2.28807">
        <ele>17.8</ele>
        <time>2025-01-16T10:27:27Z</time>
      </trkpt>
      <trkpt lat="47.56081" lon="-2.28808">
        <ele>17.8</ele>
        <time>2025-01-16T10:27:28Z</time>
      </trkpt>
      <trkpt lat="47.5608" lon="-2.28809">
        <ele>17.7</ele>
        <time>2025-01-16T10:27:29Z</time>
      </trkpt>
      <trkpt lat="47.5608" lon="-2.28811">
        <ele>17.9</ele>
        <time>2025-01-16T10:27:30Z</time>
      </trkpt>
      <trkpt lat="47.56079" lon="-2.28812">
        <ele>17.8</ele>
        <time>2025-01-16T10:27:31Z</time>
      </trkpt>
      <trkpt lat="47.56079" lon="-2.28815">
        <ele>17.9</ele>
        <time>2025-01-16T10:27:32Z</time>
      </trkpt>
      <trkpt lat="47.56079" lon="-2.28817">
        <ele>18.1</ele>
        <time>2025-01-16T10:27:33Z</time>
      </trkpt>
      <trkpt lat="47.56078" lon="-2.28818">
        <ele>18</ele>
        <time>2025-01-16T10:27:34Z</time>
      </trkpt>
      <trkpt lat="47.56079" lon="-2.2882">
        <ele>18.3</ele>
        <time>2025-01-16T10:27:35Z</time>
      </trkpt>
      <trkpt lat="47.56079" lon="-2.28821">
        <ele>18.3</ele>
        <time>2025-01-16T10:27:36Z</time>
      </trkpt>
      <trkpt lat="47.56079" lon="-2.28823">
        <ele>18.4</ele>
        <time>2025-01-16T10:27:37Z</time>
      </trkpt>
      <trkpt lat="47.56079" lon="-2.28825">
        <ele>18.6</ele>
        <time>2025-01-16T10:27:38Z</time>
      </trkpt>
      <trkpt lat="47.56079" lon="-2.28828">
        <ele>18.7</ele>
        <time>2025-01-16T10:27:39Z</time>
      </trkpt>
      <trkpt lat="47.56079" lon="-2.28831">
        <ele>18.9</ele>
        <time>2025-01-16T10:27:40Z</time>
      </trkpt>
      <trkpt lat="47.56078" lon="-2.28833">
        <ele>18.8</ele>
        <time>2025-01-16T10:27:41Z</time>
      </trkpt>
      <trkpt lat="47.56079" lon="-2.28835">
        <ele>19.1</ele>
        <time>2025-01-16T10:27:42Z</time>
      </trkpt>
      <trkpt lat="47.56079" lon="-2.28837">
        <ele>19.2</ele>
        <time>2025-01-16T10:27:43Z</time>
      </trkpt>
      <trkpt lat="47.56079" lon="-2.28839">
        <ele>19.3</ele>
        <time>2025-01-16T10:27:44Z</time>
      </trkpt>
      <trkpt lat="47.5608" lon="-2.28841">
        <ele>19.6</ele>
        <time>2025-01-16T10:27:45Z</time>
      </trkpt>
      <trkpt lat="47.5608" lon="-2.28842">
        <ele>19.6</ele>
        <time>2025-01-16T10:27:46Z</time>
      </trkpt>
      <trkpt lat="47.5608" lon="-2.28844">
        <ele>19.7</ele>
        <time>2025-01-16T10:27:47Z</time>
      </trkpt>
      <trkpt lat="47.56081" lon="-2.28845">
        <ele>19.9</ele>
        <time>2025-01-16T10:27:48Z</time>
      </trkpt>
      <trkpt lat="47.56081" lon="-2.28845">
        <ele>19.9</ele>
        <time>2025-01-16T10:27:49Z</time>
      </trkpt>
      <trkpt lat="47.56081" lon="-2.28846">
        <ele>20</ele>
        <time>2025-01-16T10:27:50Z</time>
      </trkpt>
      <trkpt lat="47.56082" lon="-2.28847">
        <ele>20.2</ele>
        <time>2025-01-16T10:27:51Z</time>
      </trkpt>
      <trkpt lat="47.56082" lon="-2.28848">
        <ele>20.2</ele>
        <time>2025-01-16T10:27:52Z</time>
      </trkpt>
      <trkpt lat="47.56083" lon="-2.2885">
        <ele>20.5</ele>
        <time>2025-01-16T10:27:53Z</time>
      </trkpt>
      <trkpt lat="47.56083" lon="-2.28852">
        <ele>20.6</ele>
        <time>2025-01-16T10:27:54Z</time>
      </trkpt>
      <trkpt lat="47.56083" lon="-2.28853">
        <ele>20.6</ele>
        <time>2025-01-16T10:27:55Z</time>
      </trkpt>
      <trkpt lat="47.56083" lon="-2.28855">
        <ele>20.7</ele>
        <time>2025-01-16T10:27:56Z</time>
      </trkpt>
      <trkpt lat="47.56084" lon="-2.28856">
        <ele>21</ele>
        <time>2025-01-16T10:27:57Z</time>
      </trkpt>
      <trkpt lat="47.56085" lon="-2.28857">
        <ele>21.3</ele>
        <time>2025-01-16T10:27:58Z</time>
      </trkpt>
      <trkpt lat="47.56086" lon="-2.28859">
        <ele>21.6</ele>
        <time>2025-01-16T10:27:59Z</time>
      </trkpt>
      <trkpt lat="47.56085" lon="-2.28861">
        <ele>21.4</ele>
        <time>2025-01-16T10:28:00Z</time>
      </trkpt>
      <trkpt lat="47.56085" lon="-2.28862">
        <ele>21.4</ele>
        <time>2025-01-16T10:28:01Z</time>
      </trkpt>
      <trkpt lat="47.56085" lon="-2.28862">
        <ele>21.4</ele>
        <time>2025-01-16T10:28:02Z</time>
      </trkpt>
      <trkpt lat="47.56084" lon="-2.28864">
        <ele>21.3</ele>
        <time>2025-01-16T10:28:03Z</time>
      </trkpt>
      <trkpt lat="47.56084" lon="-2.28865">
        <ele>21.3</ele>
        <time>2025-01-16T10:28:04Z</time>
      </trkpt>
      <trkpt lat="47.56083" lon="-2.28866">
        <ele>21.1</ele>
        <time>2025-01-16T10:28:05Z</time>
      </trkpt>
      <trkpt lat="47.56083" lon="-2.28867">
        <ele>21.1</ele>
        <time>2025-01-16T10:28:06Z</time>
      </trkpt>
      <trkpt lat="47.56082" lon="-2.28869">
        <ele>21</ele>
        <time>2025-01-16T10:28:07Z</time>
      </trkpt>
      <trkpt lat="47.56082" lon="-2.2887">
        <ele>21</ele>
        <time>2025-01-16T10:28:08Z</time>
      </trkpt>
      <trkpt lat="47.56081" lon="-2.28871">
        <ele>20.9</ele>
        <time>2025-01-16T10:28:09Z</time>
      </trkpt>
      <trkpt lat="47.5608" lon="-2.28872">
        <ele>20.7</ele>
        <time>2025-01-16T10:28:10Z</time>
      </trkpt>
      <trkpt lat="47.5608" lon="-2.28873">
        <ele>20.8</ele>
        <time>2025-01-16T10:28:11Z</time>
      </trkpt>
      <trkpt lat="47.56078" lon="-2.28874">
        <ele>20.4</ele>
        <time>2025-01-16T10:28:12Z</time>
      </trkpt>
      <trkpt lat="47.56077" lon="-2.28876">
        <ele>20.3</ele>
        <time>2025-01-16T10:28:13Z</time>
      </trkpt>
      <trkpt lat="47.56076" lon="-2.28877">
        <ele>20.1</ele>
        <time>2025-01-16T10:28:14Z</time>
      </trkpt>
      <trkpt lat="47.56075" lon="-2.28878">
        <ele>20</ele>
        <time>2025-01-16T10:28:15Z</time>
      </trkpt>
      <trkpt lat="47.56074" lon="-2.28879">
        <ele>19.8</ele>
        <time>2025-01-16T10:28:16Z</time>
      </trkpt>
      <trkpt lat="47.56073" lon="-2.2888">
        <ele>19.7</ele>
        <time>2025-01-16T10:28:17Z</time>
      </trkpt>
      <trkpt lat="47.56072" lon="-2.28881">
        <ele>19.6</ele>
        <time>2025-01-16T10:28:18Z</time>
      </trkpt>
      <trkpt lat="47.56071" lon="-2.28882">
        <ele>19.4</ele>
        <time>2025-01-16T10:28:19Z</time>
      </trkpt>
      <trkpt lat="47.5607" lon="-2.28883">
        <ele>19.3</ele>
        <time>2025-01-16T10:28:20Z</time>
      </trkpt>
      <trkpt lat="47.56069" lon="-2.28883">
        <ele>19.1</ele>
        <time>2025-01-16T10:28:21Z</time>
      </trkpt>
      <trkpt lat="47.56068" lon="-2.28884">
        <ele>19</ele>
        <time>2025-01-16T10:28:22Z</time>
      </trkpt>
      <trkpt lat="47.56067" lon="-2.28884">
        <ele>18.8</ele>
        <time>2025-01-16T10:28:23Z</time>
      </trkpt>
      <trkpt lat="47.56066" lon="-2.28884">
        <ele>18.6</ele>
        <time>2025-01-16T10:28:24Z</time>
      </trkpt>
      <trkpt lat="47.56065" lon="-2.28885">
        <ele>18.5</ele>
        <time>2025-01-16T10:28:25Z</time>
      </trkpt>
      <trkpt lat="47.56064" lon="-2.28885">
        <ele>18.3</ele>
        <time>2025-01-16T10:28:26Z</time>
      </trkpt>
      <trkpt lat="47.56063" lon="-2.28886">
        <ele>18.2</ele>
        <time>2025-01-16T10:28:27Z</time>
      </trkpt>
      <trkpt lat="47.56062" lon="-2.28886">
        <ele>18</ele>
        <time>2025-01-16T10:28:28Z</time>
      </trkpt>
      <trkpt lat="47.5606" lon="-2.28887">
        <ele>17.7</ele>
        <time>2025-01-16T10:28:29Z</time>
      </trkpt>
      <trkpt lat="47.56059" lon="-2.28888">
        <ele>17.6</ele>
        <time>2025-01-16T10:28:30Z</time>
      </trkpt>
      <trkpt lat="47.56059" lon="-2.28889">
        <ele>17.6</ele>
        <time>2025-01-16T10:28:31Z</time>
      </trkpt>
      <trkpt lat="47.56059" lon="-2.2889">
        <ele>17.7</ele>
        <time>2025-01-16T10:28:32Z</time>
      </trkpt>
      <trkpt lat="47.56058" lon="-2.28891">
        <ele>17.5</ele>
        <time>2025-01-16T10:28:33Z</time>
      </trkpt>
      <trkpt lat="47.56057" lon="-2.28893">
        <ele>17.4</ele>
        <time>2025-01-16T10:28:34Z</time>
      </trkpt>
      <trkpt lat="47.56056" lon="-2.28896">
        <ele>17.3</ele>
        <time>2025-01-16T10:28:35Z</time>
      </trkpt>
      <trkpt lat="47.56056" lon="-2.28898">
        <ele>17.4</ele>
        <time>2025-01-16T10:28:36Z</time>
      </trkpt>
      <trkpt lat="47.56056" lon="-2.28899">
        <ele>17.4</ele>
        <time>2025-01-16T10:28:37Z</time>
      </trkpt>
      <trkpt lat="47.56055" lon="-2.28902">
        <ele>17.3</ele>
        <time>2025-01-16T10:28:38Z</time>
      </trkpt>
      <trkpt lat="47.56055" lon="-2.28904">
        <ele>17.4</ele>
        <time>2025-01-16T10:28:39Z</time>
      </trkpt>
      <trkpt lat="47.56054" lon="-2.28906">
        <ele>17.2</ele>
        <time>2025-01-16T10:28:40Z</time>
      </trkpt>
      <trkpt lat="47.56054" lon="-2.28908">
        <ele>17.3</ele>
        <time>2025-01-16T10:28:41Z</time>
      </trkpt>
      <trkpt lat="47.56055" lon="-2.2891">
        <ele>17.6</ele>
        <time>2025-01-16T10:28:42Z</time>
      </trkpt>
      <trkpt lat="47.56055" lon="-2.28911">
        <ele>17.6</ele>
        <time>2025-01-16T10:28:43Z</time>
      </trkpt>
      <trkpt lat="47.56055" lon="-2.28912">
        <ele>17.7</ele>
        <time>2025-01-16T10:28:44Z</time>
      </trkpt>
      <trkpt lat="47.56056" lon="-2.28913">
        <ele>17.9</ele>
        <time>2025-01-16T10:28:45Z</time>
      </trkpt>
      <trkpt lat="47.56056" lon="-2.28914">
        <ele>18</ele>
        <time>2025-01-16T10:28:46Z</time>
      </trkpt>
      <trkpt lat="47.56057" lon="-2.28915">
        <ele>18.2</ele>
        <time>2025-01-16T10:28:47Z</time>
      </trkpt>
      <trkpt lat="47.56057" lon="-2.28917">
        <ele>18.3</ele>
        <time>2025-01-16T10:28:48Z</time>
      </trkpt>
      <trkpt lat="47.56057" lon="-2.28917">
        <ele>18.3</ele>
        <time>2025-01-16T10:28:49Z</time>
      </trkpt>
      <trkpt lat="47.56057" lon="-2.28918">
        <ele>18.3</ele>
        <time>2025-01-16T10:28:50Z</time>
      </trkpt>
      <trkpt lat="47.56057" lon="-2.28919">
        <ele>18.3</ele>
        <time>2025-01-16T10:28:51Z</time>
      </trkpt>
      <trkpt lat="47.56058" lon="-2.2892">
        <ele>18.5</ele>
        <time>2025-01-16T10:28:52Z</time>
      </trkpt>
      <trkpt lat="47.56058" lon="-2.28922">
        <ele>18.6</ele>
        <time>2025-01-16T10:28:53Z</time>
      </trkpt>
      <trkpt lat="47.56058" lon="-2.28923">
        <ele>18.6</ele>
        <time>2025-01-16T10:28:54Z</time>
      </trkpt>
      <trkpt lat="47.56058" lon="-2.28924">
        <ele>18.7</ele>
        <time>2025-01-16T10:28:55Z</time>
      </trkpt>
      <trkpt lat="47.56058" lon="-2.28926">
        <ele>18.7</ele>
        <time>2025-01-16T10:28:56Z</time>
      </trkpt>
      <trkpt lat="47.56058" lon="-2.28927">
        <ele>18.8</ele>
        <time>2025-01-16T10:28:57Z</time>
      </trkpt>
      <trkpt lat="47.56058" lon="-2.28928">
        <ele>18.8</ele>
        <time>2025-01-16T10:28:58Z</time>
      </trkpt>
      <trkpt lat="47.56058" lon="-2.2893">
        <ele>18.9</ele>
        <time>2025-01-16T10:28:59Z</time>
      </trkpt>
      <trkpt lat="47.56059" lon="-2.28931">
        <ele>19.1</ele>
        <time>2025-01-16T10:29:00Z</time>
      </trkpt>
      <trkpt lat="47.56059" lon="-2.28932">
        <ele>19.1</ele>
        <time>2025-01-16T10:29:01Z</time>
      </trkpt>
      <trkpt lat="47.56059" lon="-2.28933">
        <ele>19.1</ele>
        <time>2025-01-16T10:29:02Z</time>
      </trkpt>
      <trkpt lat="47.56059" lon="-2.28935">
        <ele>19.2</ele>
        <time>2025-01-16T10:29:03Z</time>
      </trkpt>
      <trkpt lat="47.56059" lon="-2.28937">
        <ele>19.3</ele>
        <time>2025-01-16T10:29:04Z</time>
      </trkpt>
      <trkpt lat="47.56058" lon="-2.28939">
        <ele>19.2</ele>
        <time>2025-01-16T10:29:05Z</time>
      </trkpt>
      <trkpt lat="47.56058" lon="-2.2894">
        <ele>19.2</ele>
        <time>2025-01-16T10:29:06Z</time>
      </trkpt>
      <trkpt lat="47.56058" lon="-2.28942">
        <ele>19.3</ele>
        <time>2025-01-16T10:29:07Z</time>
      </trkpt>
      <trkpt lat="47.56058" lon="-2.28943">
        <ele>19.3</ele>
        <time>2025-01-16T10:29:08Z</time>
      </trkpt>
      <trkpt lat="47.56059" lon="-2.28945">
        <ele>19.5</ele>
        <time>2025-01-16T10:29:09Z</time>
      </trkpt>
      <trkpt lat="47.56059" lon="-2.28946">
        <ele>19.5</ele>
        <time>2025-01-16T10:29:10Z</time>
      </trkpt>
      <trkpt lat="47.5606" lon="-2.28948">
        <ele>19.7</ele>
        <time>2025-01-16T10:29:11Z</time>
      </trkpt>
      <trkpt lat="47.56061" lon="-2.28949">
        <ele>19.8</ele>
        <time>2025-01-16T10:29:12Z</time>
      </trkpt>
      <trkpt lat="47.56061" lon="-2.2895">
        <ele>19.8</ele>
        <time>2025-01-16T10:29:13Z</time>
      </trkpt>
      <trkpt lat="47.56062" lon="-2.28952">
        <ele>20</ele>
        <time>2025-01-16T10:29:14Z</time>
      </trkpt>
      <trkpt lat="47.56062" lon="-2.28953">
        <ele>20</ele>
        <time>2025-01-16T10:29:15Z</time>
      </trkpt>
      <trkpt lat="47.56062" lon="-2.28955">
        <ele>20</ele>
        <time>2025-01-16T10:29:16Z</time>
      </trkpt>
      <trkpt lat="47.56062" lon="-2.28957">
        <ele>20</ele>
        <time>2025-01-16T10:29:17Z</time>
      </trkpt>
      <trkpt lat="47.56062" lon="-2.28958">
        <ele>20</ele>
        <time>2025-01-16T10:29:18Z</time>
      </trkpt>
      <trkpt lat="47.56062" lon="-2.2896">
        <ele>20.1</ele>
        <time>2025-01-16T10:29:19Z</time>
      </trkpt>
      <trkpt lat="47.56062" lon="-2.28962">
        <ele>20.1</ele>
        <time>2025-01-16T10:29:20Z</time>
      </trkpt>
      <trkpt lat="47.56062" lon="-2.28964">
        <ele>20.1</ele>
        <time>2025-01-16T10:29:21Z</time>
      </trkpt>
      <trkpt lat="47.56062" lon="-2.28966">
        <ele>20.1</ele>
        <time>2025-01-16T10:29:22Z</time>
      </trkpt>
      <trkpt lat="47.56063" lon="-2.28967">
        <ele>20.3</ele>
        <time>2025-01-16T10:29:23Z</time>
      </trkpt>
      <trkpt lat="47.56063" lon="-2.28969">
        <ele>20.3</ele>
        <time>2025-01-16T10:29:24Z</time>
      </trkpt>
      <trkpt lat="47.56064" lon="-2.28971">
        <ele>20.5</ele>
        <time>2025-01-16T10:29:25Z</time>
      </trkpt>
      <trkpt lat="47.56065" lon="-2.28972">
        <ele>20.7</ele>
        <time>2025-01-16T10:29:26Z</time>
      </trkpt>
      <trkpt lat="47.56065" lon="-2.28974">
        <ele>20.7</ele>
        <time>2025-01-16T10:29:27Z</time>
      </trkpt>
      <trkpt lat="47.56065" lon="-2.28975">
        <ele>20.7</ele>
        <time>2025-01-16T10:29:28Z</time>
      </trkpt>
      <trkpt lat="47.56066" lon="-2.28976">
        <ele>20.9</ele>
        <time>2025-01-16T10:29:29Z</time>
      </trkpt>
      <trkpt lat="47.56066" lon="-2.28978">
        <ele>20.9</ele>
        <time>2025-01-16T10:29:30Z</time>
      </trkpt>
      <trkpt lat="47.56066" lon="-2.28979">
        <ele>20.9</ele>
        <time>2025-01-16T10:29:31Z</time>
      </trkpt>
      <trkpt lat="47.56066" lon="-2.28981">
        <ele>20.9</ele>
        <time>2025-01-16T10:29:32Z</time>
      </trkpt>
      <trkpt lat="47.56066" lon="-2.28982">
        <ele>20.9</ele>
        <time>2025-01-16T10:29:33Z</time>
      </trkpt>
      <trkpt lat="47.56066" lon="-2.28984">
        <ele>20.9</ele>
        <time>2025-01-16T10:29:34Z</time>
      </trkpt>
      <trkpt lat="47.56066" lon="-2.28985">
        <ele>20.9</ele>
        <time>2025-01-16T10:29:35Z</time>
      </trkpt>
      <trkpt lat="47.56066" lon="-2.28986">
        <ele>20.9</ele>
        <time>2025-01-16T10:29:36Z</time>
      </trkpt>
      <trkpt lat="47.56066" lon="-2.28988">
        <ele>20.9</ele>
        <time>2025-01-16T10:29:37Z</time>
      </trkpt>
      <trkpt lat="47.56067" lon="-2.28989">
        <ele>21.1</ele>
        <time>2025-01-16T10:29:38Z</time>
      </trkpt>
      <trkpt lat="47.56068" lon="-2.28991">
        <ele>21.2</ele>
        <time>2025-01-16T10:29:39Z</time>
      </trkpt>
      <trkpt lat="47.56069" lon="-2.28992">
        <ele>21.4</ele>
        <time>2025-01-16T10:29:40Z</time>
      </trkpt>
      <trkpt lat="47.5607" lon="-2.28993">
        <ele>21.6</ele>
        <time>2025-01-16T10:29:41Z</time>
      </trkpt>
      <trkpt lat="47.56072" lon="-2.28995">
        <ele>22</ele>
        <time>2025-01-16T10:29:42Z</time>
      </trkpt>
      <trkpt lat="47.56073" lon="-2.28997">
        <ele>22.1</ele>
        <time>2025-01-16T10:29:43Z</time>
      </trkpt>
      <trkpt lat="47.56074" lon="-2.28998">
        <ele>22.3</ele>
        <time>2025-01-16T10:29:44Z</time>
      </trkpt>
      <trkpt lat="47.56075" lon="-2.29">
        <ele>22.5</ele>
        <time>2025-01-16T10:29:45Z</time>
      </trkpt>
      <trkpt lat="47.56075" lon="-2.29002">
        <ele>22.4</ele>
        <time>2025-01-16T10:29:46Z</time>
      </trkpt>
      <trkpt lat="47.56076" lon="-2.29004">
        <ele>22.5</ele>
        <time>2025-01-16T10:29:47Z</time>
      </trkpt>
      <trkpt lat="47.56076" lon="-2.29006">
        <ele>22.4</ele>
        <time>2025-01-16T10:29:48Z</time>
      </trkpt>
      <trkpt lat="47.56077" lon="-2.29008">
        <ele>22.5</ele>
        <time>2025-01-16T10:29:49Z</time>
      </trkpt>
      <trkpt lat="47.56078" lon="-2.2901">
        <ele>22.6</ele>
        <time>2025-01-16T10:29:50Z</time>
      </trkpt>
      <trkpt lat="47.56078" lon="-2.29011">
        <ele>22.6</ele>
        <time>2025-01-16T10:29:51Z</time>
      </trkpt>
      <trkpt lat="47.56079" lon="-2.29013">
        <ele>22.7</ele>
        <time>2025-01-16T10:29:52Z</time>
      </trkpt>
      <trkpt lat="47.56079" lon="-2.29014">
        <ele>22.6</ele>
        <time>2025-01-16T10:29:53Z</time>
      </trkpt>
      <trkpt lat="47.5608" lon="-2.29015">
        <ele>22.8</ele>
        <time>2025-01-16T10:29:54Z</time>
      </trkpt>
      <trkpt lat="47.5608" lon="-2.29017">
        <ele>22.7</ele>
        <time>2025-01-16T10:29:55Z</time>
      </trkpt>
      <trkpt lat="47.5608" lon="-2.29018">
        <ele>22.7</ele>
        <time>2025-01-16T10:29:56Z</time>
      </trkpt>
      <trkpt lat="47.5608" lon="-2.29019">
        <ele>22.6</ele>
        <time>2025-01-16T10:29:57Z</time>
      </trkpt>
      <trkpt lat="47.56081" lon="-2.29019">
        <ele>22.8</ele>
        <time>2025-01-16T10:29:58Z</time>
      </trkpt>
      <trkpt lat="47.56081" lon="-2.29019">
        <ele>22.8</ele>
        <time>2025-01-16T10:29:59Z</time>
      </trkpt>
      <trkpt lat="47.56081" lon="-2.2902">
        <ele>22.8</ele>
        <time>2025-01-16T10:30:00Z</time>
      </trkpt>
      <trkpt lat="47.56082" lon="-2.29021">
        <ele>23</ele>
        <time>2025-01-16T10:30:01Z</time>
      </trkpt>
      <trkpt lat="47.56083" lon="-2.29022">
        <ele>23.1</ele>
        <time>2025-01-16T10:30:02Z</time>
      </trkpt>
      <trkpt lat="47.56084" lon="-2.29023">
        <ele>23.3</ele>
        <time>2025-01-16T10:30:03Z</time>
      </trkpt>
      <trkpt lat="47.56085" lon="-2.29024">
        <ele>23.4</ele>
        <time>2025-01-16T10:30:04Z</time>
      </trkpt>
      <trkpt lat="47.56086" lon="-2.29025">
        <ele>23.5</ele>
        <time>2025-01-16T10:30:05Z</time>
      </trkpt>
      <trkpt lat="47.56086" lon="-2.29026">
        <ele>23.4</ele>
        <time>2025-01-16T10:30:06Z</time>
      </trkpt>
      <trkpt lat="47.56087" lon="-2.29026">
        <ele>23.6</ele>
        <time>2025-01-16T10:30:07Z</time>
      </trkpt>
      <trkpt lat="47.56089" lon="-2.29027">
        <ele>23.8</ele>
        <time>2025-01-16T10:30:08Z</time>
      </trkpt>
      <trkpt lat="47.5609" lon="-2.29028">
        <ele>23.9</ele>
        <time>2025-01-16T10:30:09Z</time>
      </trkpt>
      <trkpt lat="47.56091" lon="-2.29029">
        <ele>23.9</ele>
        <time>2025-01-16T10:30:10Z</time>
      </trkpt>
      <trkpt lat="47.56092" lon="-2.2903">
        <ele>23.9</ele>
        <time>2025-01-16T10:30:11Z</time>
      </trkpt>
      <trkpt lat="47.56093" lon="-2.29032">
        <ele>23.7</ele>
        <time>2025-01-16T10:30:12Z</time>
      </trkpt>
      <trkpt lat="47.56094" lon="-2.29032">
        <ele>23.9</ele>
        <time>2025-01-16T10:30:13Z</time>
      </trkpt>
      <trkpt lat="47.56095" lon="-2.29033">
        <ele>23.9</ele>
        <time>2025-01-16T10:30:14Z</time>
      </trkpt>
      <trkpt lat="47.56096" lon="-2.29033">
        <ele>24</ele>
        <time>2025-01-16T10:30:15Z</time>
      </trkpt>
      <trkpt lat="47.56097" lon="-2.29034">
        <ele>24.1</ele>
        <time>2025-01-16T10:30:16Z</time>
      </trkpt>
      <trkpt lat="47.56097" lon="-2.29034">
        <ele>24.1</ele>
        <time>2025-01-16T10:30:17Z</time>
      </trkpt>
      <trkpt lat="47.56098" lon="-2.29035">
        <ele>24.1</ele>
        <time>2025-01-16T10:30:18Z</time>
      </trkpt>
      <trkpt lat="47.56099" lon="-2.29035">
        <ele>24.3</ele>
        <time>2025-01-16T10:30:19Z</time>
      </trkpt>
      <trkpt lat="47.561" lon="-2.29036">
        <ele>24.3</ele>
        <time>2025-01-16T10:30:20Z</time>
      </trkpt>
      <trkpt lat="47.56101" lon="-2.29036">
        <ele>24.5</ele>
        <time>2025-01-16T10:30:21Z</time>
      </trkpt>
      <trkpt lat="47.56102" lon="-2.29037">
        <ele>24.6</ele>
        <time>2025-01-16T10:30:22Z</time>
      </trkpt>
      <trkpt lat="47.56103" lon="-2.29037">
        <ele>24.8</ele>
        <time>2025-01-16T10:30:23Z</time>
      </trkpt>
      <trkpt lat="47.56104" lon="-2.29038">
        <ele>24.9</ele>
        <time>2025-01-16T10:30:24Z</time>
      </trkpt>
      <trkpt lat="47.56104" lon="-2.29039">
        <ele>24.8</ele>
        <time>2025-01-16T10:30:25Z</time>
      </trkpt>
      <trkpt lat="47.56105" lon="-2.2904">
        <ele>24.9</ele>
        <time>2025-01-16T10:30:26Z</time>
      </trkpt>
      <trkpt lat="47.56105" lon="-2.2904">
        <ele>24.9</ele>
        <time>2025-01-16T10:30:27Z</time>
      </trkpt>
      <trkpt lat="47.56107" lon="-2.2904">
        <ele>25.3</ele>
        <time>2025-01-16T10:30:28Z</time>
      </trkpt>
      <trkpt lat="47.56107" lon="-2.29041">
        <ele>25.2</ele>
        <time>2025-01-16T10:30:29Z</time>
      </trkpt>
      <trkpt lat="47.56108" lon="-2.29041">
        <ele>25.4</ele>
        <time>2025-01-16T10:30:30Z</time>
      </trkpt>
      <trkpt lat="47.56109" lon="-2.29042">
        <ele>25.5</ele>
        <time>2025-01-16T10:30:31Z</time>
      </trkpt>
      <trkpt lat="47.56109" lon="-2.29043">
        <ele>25.4</ele>
        <time>2025-01-16T10:30:32Z</time>
      </trkpt>
      <trkpt lat="47.56109" lon="-2.29043">
        <ele>25.4</ele>
        <time>2025-01-16T10:30:33Z</time>
      </trkpt>
      <trkpt lat="47.5611" lon="-2.29044">
        <ele>25.6</ele>
        <time>2025-01-16T10:30:34Z</time>
      </trkpt>
      <trkpt lat="47.5611" lon="-2.29045">
        <ele>25.5</ele>
        <time>2025-01-16T10:30:35Z</time>
      </trkpt>
      <trkpt lat="47.56111" lon="-2.29045">
        <ele>25.7</ele>
        <time>2025-01-16T10:30:36Z</time>
      </trkpt>
      <trkpt lat="47.56111" lon="-2.29045">
        <ele>25.7</ele>
        <time>2025-01-16T10:30:37Z</time>
      </trkpt>
      <trkpt lat="47.56112" lon="-2.29047">
        <ele>25.8</ele>
        <time>2025-01-16T10:30:38Z</time>
      </trkpt>
      <trkpt lat="47.56112" lon="-2.29049">
        <ele>25.7</ele>
        <time>2025-01-16T10:30:39Z</time>
      </trkpt>
      <trkpt lat="47.56113" lon="-2.29051">
        <ele>25.7</ele>
        <time>2025-01-16T10:30:40Z</time>
      </trkpt>
      <trkpt lat="47.56114" lon="-2.29053">
        <ele>25.8</ele>
        <time>2025-01-16T10:30:41Z</time>
      </trkpt>
      <trkpt lat="47.56115" lon="-2.29056">
        <ele>25.8</ele>
        <time>2025-01-16T10:30:42Z</time>
      </trkpt>
      <trkpt lat="47.56115" lon="-2.29058">
        <ele>25.5</ele>
        <time>2025-01-16T10:30:43Z</time>
      </trkpt>
      <trkpt lat="47.56116" lon="-2.2906">
        <ele>25.5</ele>
        <time>2025-01-16T10:30:44Z</time>
      </trkpt>
      <trkpt lat="47.56117" lon="-2.29061">
        <ele>25.6</ele>
        <time>2025-01-16T10:30:45Z</time>
      </trkpt>
      <trkpt lat="47.56118" lon="-2.29063">
        <ele>25.5</ele>
        <time>2025-01-16T10:30:46Z</time>
      </trkpt>
      <trkpt lat="47.56119" lon="-2.29064">
        <ele>25.7</ele>
        <time>2025-01-16T10:30:47Z</time>
      </trkpt>
      <trkpt lat="47.5612" lon="-2.29066">
        <ele>25.7</ele>
        <time>2025-01-16T10:30:48Z</time>
      </trkpt>
      <trkpt lat="47.56121" lon="-2.29068">
        <ele>25.7</ele>
        <time>2025-01-16T10:30:49Z</time>
      </trkpt>
      <trkpt lat="47.56121" lon="-2.29069">
        <ele>25.5</ele>
        <time>2025-01-16T10:30:50Z</time>
      </trkpt>
      <trkpt lat="47.56122" lon="-2.29071">
        <ele>25.6</ele>
        <time>2025-01-16T10:30:51Z</time>
      </trkpt>
      <trkpt lat="47.56123" lon="-2.29072">
        <ele>25.7</ele>
        <time>2025-01-16T10:30:52Z</time>
      </trkpt>
      <trkpt lat="47.56123" lon="-2.29073">
        <ele>25.6</ele>
        <time>2025-01-16T10:30:53Z</time>
      </trkpt>
      <trkpt lat="47.56124" lon="-2.29075">
        <ele>25.6</ele>
        <time>2025-01-16T10:30:54Z</time>
      </trkpt>
      <trkpt lat="47.56124" lon="-2.29077">
        <ele>25.4</ele>
        <time>2025-01-16T10:30:55Z</time>
      </trkpt>
      <trkpt lat="47.56125" lon="-2.29079">
        <ele>25.5</ele>
        <time>2025-01-16T10:30:56Z</time>
      </trkpt>
      <trkpt lat="47.56125" lon="-2.29081">
        <ele>25.3</ele>
        <time>2025-01-16T10:30:57Z</time>
      </trkpt>
      <trkpt lat="47.56126" lon="-2.29083">
        <ele>25.3</ele>
        <time>2025-01-16T10:30:58Z</time>
      </trkpt>
      <trkpt lat="47.56127" lon="-2.29085">
        <ele>25.4</ele>
        <time>2025-01-16T10:30:59Z</time>
      </trkpt>
      <trkpt lat="47.56127" lon="-2.29087">
        <ele>25.1</ele>
        <time>2025-01-16T10:31:00Z</time>
      </trkpt>
      <trkpt lat="47.56127" lon="-2.29089">
        <ele>24.9</ele>
        <time>2025-01-16T10:31:01Z</time>
      </trkpt>
      <trkpt lat="47.56127" lon="-2.29091">
        <ele>24.6</ele>
        <time>2025-01-16T10:31:02Z</time>
      </trkpt>
      <trkpt lat="47.56128" lon="-2.29093">
        <ele>24.7</ele>
        <time>2025-01-16T10:31:03Z</time>
      </trkpt>
      <trkpt lat="47.56128" lon="-2.29095">
        <ele>24.4</ele>
        <time>2025-01-16T10:31:04Z</time>
      </trkpt>
      <trkpt lat="47.56129" lon="-2.29097">
        <ele>24.5</ele>
        <time>2025-01-16T10:31:05Z</time>
      </trkpt>
      <trkpt lat="47.56129" lon="-2.29098">
        <ele>24.4</ele>
        <time>2025-01-16T10:31:06Z</time>
      </trkpt>
      <trkpt lat="47.56129" lon="-2.291">
        <ele>24.1</ele>
        <time>2025-01-16T10:31:07Z</time>
      </trkpt>
      <trkpt lat="47.5613" lon="-2.29101">
        <ele>24.3</ele>
        <time>2025-01-16T10:31:08Z</time>
      </trkpt>
      <trkpt lat="47.5613" lon="-2.29102">
        <ele>24.2</ele>
        <time>2025-01-16T10:31:09Z</time>
      </trkpt>
      <trkpt lat="47.5613" lon="-2.29104">
        <ele>24</ele>
        <time>2025-01-16T10:31:10Z</time>
      </trkpt>
      <trkpt lat="47.56131" lon="-2.29106">
        <ele>24</ele>
        <time>2025-01-16T10:31:11Z</time>
      </trkpt>
      <trkpt lat="47.56131" lon="-2.29106">
        <ele>24</ele>
        <time>2025-01-16T10:31:12Z</time>
      </trkpt>
      <trkpt lat="47.56131" lon="-2.29106">
        <ele>24</ele>
        <time>2025-01-16T10:31:13Z</time>
      </trkpt>
      <trkpt lat="47.56132" lon="-2.29107">
        <ele>24.2</ele>
        <time>2025-01-16T10:31:14Z</time>
      </trkpt>
      <trkpt lat="47.56132" lon="-2.29108">
        <ele>24.1</ele>
        <time>2025-01-16T10:31:15Z</time>
      </trkpt>
      <trkpt lat="47.56133" lon="-2.2911">
        <ele>24.2</ele>
        <time>2025-01-16T10:31:16Z</time>
      </trkpt>
      <trkpt lat="47.56134" lon="-2.29111">
        <ele>24.4</ele>
        <time>2025-01-16T10:31:17Z</time>
      </trkpt>
      <trkpt lat="47.56134" lon="-2.29112">
        <ele>24.3</ele>
        <time>2025-01-16T10:31:18Z</time>
      </trkpt>
      <trkpt lat="47.56136" lon="-2.29113">
        <ele>24.8</ele>
        <time>2025-01-16T10:31:19Z</time>
      </trkpt>
      <trkpt lat="47.56136" lon="-2.29114">
        <ele>24.7</ele>
        <time>2025-01-16T10:31:20Z</time>
      </trkpt>
      <trkpt lat="47.56137" lon="-2.29115">
        <ele>24.8</ele>
        <time>2025-01-16T10:31:21Z</time>
      </trkpt>
      <trkpt lat="47.56138" lon="-2.29117">
        <ele>24.9</ele>
        <time>2025-01-16T10:31:22Z</time>
      </trkpt>
      <trkpt lat="47.56138" lon="-2.29119">
        <ele>24.6</ele>
        <time>2025-01-16T10:31:23Z</time>
      </trkpt>
      <trkpt lat="47.56138" lon="-2.29121">
        <ele>24.3</ele>
        <time>2025-01-16T10:31:24Z</time>
      </trkpt>
      <trkpt lat="47.56139" lon="-2.29123">
        <ele>24.3</ele>
        <time>2025-01-16T10:31:25Z</time>
      </trkpt>
      <trkpt lat="47.56139" lon="-2.29125">
        <ele>24</ele>
        <time>2025-01-16T10:31:26Z</time>
      </trkpt>
      <trkpt lat="47.5614" lon="-2.29127">
        <ele>23.8</ele>
        <time>2025-01-16T10:31:27Z</time>
      </trkpt>
      <trkpt lat="47.5614" lon="-2.29128">
        <ele>23.7</ele>
        <time>2025-01-16T10:31:28Z</time>
      </trkpt>
      <trkpt lat="47.56141" lon="-2.2913">
        <ele>23.5</ele>
        <time>2025-01-16T10:31:29Z</time>
      </trkpt>
      <trkpt lat="47.56141" lon="-2.29131">
        <ele>23.4</ele>
        <time>2025-01-16T10:31:30Z</time>
      </trkpt>
      <trkpt lat="47.56141" lon="-2.29133">
        <ele>23.1</ele>
        <time>2025-01-16T10:31:31Z</time>
      </trkpt>
      <trkpt lat="47.56141" lon="-2.29134">
        <ele>22.9</ele>
        <time>2025-01-16T10:31:32Z</time>
      </trkpt>
      <trkpt lat="47.56141" lon="-2.29135">
        <ele>22.8</ele>
        <time>2025-01-16T10:31:33Z</time>
      </trkpt>
      <trkpt lat="47.56141" lon="-2.29136">
        <ele>22.7</ele>
        <time>2025-01-16T10:31:34Z</time>
      </trkpt>
      <trkpt lat="47.56142" lon="-2.29138">
        <ele>22.5</ele>
        <time>2025-01-16T10:31:35Z</time>
      </trkpt>
      <trkpt lat="47.56143" lon="-2.2914">
        <ele>22.3</ele>
        <time>2025-01-16T10:31:36Z</time>
      </trkpt>
      <trkpt lat="47.56144" lon="-2.29141">
        <ele>22.3</ele>
        <time>2025-01-16T10:31:37Z</time>
      </trkpt>
      <trkpt lat="47.56145" lon="-2.29142">
        <ele>22.2</ele>
        <time>2025-01-16T10:31:38Z</time>
      </trkpt>
      <trkpt lat="47.56146" lon="-2.29143">
        <ele>22.2</ele>
        <time>2025-01-16T10:31:39Z</time>
      </trkpt>
      <trkpt lat="47.56147" lon="-2.29145">
        <ele>22.1</ele>
        <time>2025-01-16T10:31:40Z</time>
      </trkpt>
      <trkpt lat="47.56148" lon="-2.29147">
        <ele>21.9</ele>
        <time>2025-01-16T10:31:41Z</time>
      </trkpt>
      <trkpt lat="47.56148" lon="-2.29148">
        <ele>21.8</ele>
        <time>2025-01-16T10:31:42Z</time>
      </trkpt>
      <trkpt lat="47.56148" lon="-2.29149">
        <ele>21.6</ele>
        <time>2025-01-16T10:31:43Z</time>
      </trkpt>
      <trkpt lat="47.56149" lon="-2.29149">
        <ele>21.8</ele>
        <time>2025-01-16T10:31:44Z</time>
      </trkpt>
      <trkpt lat="47.56149" lon="-2.2915">
        <ele>21.6</ele>
        <time>2025-01-16T10:31:45Z</time>
      </trkpt>
      <trkpt lat="47.56149" lon="-2.2915">
        <ele>21.6</ele>
        <time>2025-01-16T10:31:46Z</time>
      </trkpt>
      <trkpt lat="47.5615" lon="-2.2915">
        <ele>21.8</ele>
        <time>2025-01-16T10:31:47Z</time>
      </trkpt>
      <trkpt lat="47.5615" lon="-2.29151">
        <ele>21.6</ele>
        <time>2025-01-16T10:31:48Z</time>
      </trkpt>
      <trkpt lat="47.56151" lon="-2.29151">
        <ele>21.8</ele>
        <time>2025-01-16T10:31:49Z</time>
      </trkpt>
      <trkpt lat="47.56152" lon="-2.29151">
        <ele>21.9</ele>
        <time>2025-01-16T10:31:50Z</time>
      </trkpt>
      <trkpt lat="47.56153" lon="-2.29151">
        <ele>22</ele>
        <time>2025-01-16T10:31:51Z</time>
      </trkpt>
      <trkpt lat="47.56154" lon="-2.29151">
        <ele>22.1</ele>
        <time>2025-01-16T10:31:52Z</time>
      </trkpt>
      <trkpt lat="47.56155" lon="-2.29151">
        <ele>22.2</ele>
        <time>2025-01-16T10:31:53Z</time>
      </trkpt>
      <trkpt lat="47.56156" lon="-2.2915">
        <ele>22.5</ele>
        <time>2025-01-16T10:31:54Z</time>
      </trkpt>
      <trkpt lat="47.56158" lon="-2.29149">
        <ele>22.9</ele>
        <time>2025-01-16T10:31:55Z</time>
      </trkpt>
      <trkpt lat="47.56159" lon="-2.29149">
        <ele>23</ele>
        <time>2025-01-16T10:31:56Z</time>
      </trkpt>
      <trkpt lat="47.56161" lon="-2.29149">
        <ele>23.2</ele>
        <time>2025-01-16T10:31:57Z</time>
      </trkpt>
      <trkpt lat="47.56162" lon="-2.29148">
        <ele>23.5</ele>
        <time>2025-01-16T10:31:58Z</time>
      </trkpt>
      <trkpt lat="47.56163" lon="-2.29148">
        <ele>23.6</ele>
        <time>2025-01-16T10:31:59Z</time>
      </trkpt>
      <trkpt lat="47.56165" lon="-2.29147">
        <ele>23.9</ele>
        <time>2025-01-16T10:32:00Z</time>
      </trkpt>
      <trkpt lat="47.56166" lon="-2.29146">
        <ele>24.2</ele>
        <time>2025-01-16T10:32:01Z</time>
      </trkpt>
      <trkpt lat="47.56168" lon="-2.29146">
        <ele>24.3</ele>
        <time>2025-01-16T10:32:02Z</time>
      </trkpt>
      <trkpt lat="47.5617" lon="-2.29146">
        <ele>24.5</ele>
        <time>2025-01-16T10:32:03Z</time>
      </trkpt>
      <trkpt lat="47.56172" lon="-2.29146">
        <ele>24.7</ele>
        <time>2025-01-16T10:32:04Z</time>
      </trkpt>
      <trkpt lat="47.56175" lon="-2.29146">
        <ele>24.9</ele>
        <time>2025-01-16T10:32:05Z</time>
      </trkpt>
      <trkpt lat="47.56177" lon="-2.29147">
        <ele>25</ele>
        <time>2025-01-16T10:32:06Z</time>
      </trkpt>
      <trkpt lat="47.56179" lon="-2.29147">
        <ele>25.1</ele>
        <time>2025-01-16T10:32:07Z</time>
      </trkpt>
      <trkpt lat="47.5618" lon="-2.29147">
        <ele>25.2</ele>
        <time>2025-01-16T10:32:08Z</time>
      </trkpt>
      <trkpt lat="47.56181" lon="-2.29147">
        <ele>25.3</ele>
        <time>2025-01-16T10:32:09Z</time>
      </trkpt>
      <trkpt lat="47.56183" lon="-2.29147">
        <ele>25.5</ele>
        <time>2025-01-16T10:32:10Z</time>
      </trkpt>
      <trkpt lat="47.56184" lon="-2.29146">
        <ele>25.6</ele>
        <time>2025-01-16T10:32:11Z</time>
      </trkpt>
      <trkpt lat="47.56185" lon="-2.29146">
        <ele>25.7</ele>
        <time>2025-01-16T10:32:12Z</time>
      </trkpt>
      <trkpt lat="47.56187" lon="-2.29146">
        <ele>25.9</ele>
        <time>2025-01-16T10:32:13Z</time>
      </trkpt>
      <trkpt lat="47.56188" lon="-2.29146">
        <ele>26</ele>
        <time>2025-01-16T10:32:14Z</time>
      </trkpt>
      <trkpt lat="47.56189" lon="-2.29145">
        <ele>26.1</ele>
        <time>2025-01-16T10:32:15Z</time>
      </trkpt>
      <trkpt lat="47.56189" lon="-2.29146">
        <ele>26</ele>
        <time>2025-01-16T10:32:16Z</time>
      </trkpt>
      <trkpt lat="47.5619" lon="-2.29147">
        <ele>26</ele>
        <time>2025-01-16T10:32:17Z</time>
      </trkpt>
      <trkpt lat="47.56191" lon="-2.29147">
        <ele>26.1</ele>
        <time>2025-01-16T10:32:18Z</time>
      </trkpt>
      <trkpt lat="47.56191" lon="-2.29147">
        <ele>26.1</ele>
        <time>2025-01-16T10:32:19Z</time>
      </trkpt>
      <trkpt lat="47.56192" lon="-2.29147">
        <ele>26.2</ele>
        <time>2025-01-16T10:32:20Z</time>
      </trkpt>
      <trkpt lat="47.56193" lon="-2.29147">
        <ele>26.3</ele>
        <time>2025-01-16T10:32:21Z</time>
      </trkpt>
      <trkpt lat="47.56194" lon="-2.29147">
        <ele>26.4</ele>
        <time>2025-01-16T10:32:22Z</time>
      </trkpt>
      <trkpt lat="47.56195" lon="-2.29148">
        <ele>26.4</ele>
        <time>2025-01-16T10:32:23Z</time>
      </trkpt>
      <trkpt lat="47.56195" lon="-2.29148">
        <ele>26.4</ele>
        <time>2025-01-16T10:32:24Z</time>
      </trkpt>
      <trkpt lat="47.56196" lon="-2.29148">
        <ele>26.5</ele>
        <time>2025-01-16T10:32:25Z</time>
      </trkpt>
      <trkpt lat="47.56196" lon="-2.29148">
        <ele>26.5</ele>
        <time>2025-01-16T10:32:26Z</time>
      </trkpt>
      <trkpt lat="47.56196" lon="-2.29148">
        <ele>26.5</ele>
        <time>2025-01-16T10:32:27Z</time>
      </trkpt>
      <trkpt lat="47.56196" lon="-2.29148">
        <ele>26.5</ele>
        <time>2025-01-16T10:32:28Z</time>
      </trkpt>
      <trkpt lat="47.56197" lon="-2.29147">
        <ele>26.7</ele>
        <time>2025-01-16T10:32:29Z</time>
      </trkpt>
      <trkpt lat="47.56199" lon="-2.29147">
        <ele>26.9</ele>
        <time>2025-01-16T10:32:30Z</time>
      </trkpt>
      <trkpt lat="47.562" lon="-2.29146">
        <ele>27.1</ele>
        <time>2025-01-16T10:32:31Z</time>
      </trkpt>
      <trkpt lat="47.56201" lon="-2.29146">
        <ele>27.2</ele>
        <time>2025-01-16T10:32:32Z</time>
      </trkpt>
      <trkpt lat="47.56201" lon="-2.29145">
        <ele>27.3</ele>
        <time>2025-01-16T10:32:33Z</time>
      </trkpt>
      <trkpt lat="47.56202" lon="-2.29144">
        <ele>27.4</ele>
        <time>2025-01-16T10:32:34Z</time>
      </trkpt>
      <trkpt lat="47.56204" lon="-2.29144">
        <ele>27.7</ele>
        <time>2025-01-16T10:32:35Z</time>
      </trkpt>
      <trkpt lat="47.56205" lon="-2.29143">
        <ele>27.8</ele>
        <time>2025-01-16T10:32:36Z</time>
      </trkpt>
      <trkpt lat="47.56205" lon="-2.29144">
        <ele>27.8</ele>
        <time>2025-01-16T10:32:37Z</time>
      </trkpt>
      <trkpt lat="47.56206" lon="-2.29144">
        <ele>27.9</ele>
        <time>2025-01-16T10:32:38Z</time>
      </trkpt>
      <trkpt lat="47.56208" lon="-2.29144">
        <ele>28.1</ele>
        <time>2025-01-16T10:32:39Z</time>
      </trkpt>
      <trkpt lat="47.56209" lon="-2.29144">
        <ele>28.2</ele>
        <time>2025-01-16T10:32:40Z</time>
      </trkpt>
      <trkpt lat="47.5621" lon="-2.29144">
        <ele>28.3</ele>
        <time>2025-01-16T10:32:41Z</time>
      </trkpt>
      <trkpt lat="47.56212" lon="-2.29144">
        <ele>28.5</ele>
        <time>2025-01-16T10:32:42Z</time>
      </trkpt>
      <trkpt lat="47.56214" lon="-2.29144">
        <ele>28.7</ele>
        <time>2025-01-16T10:32:43Z</time>
      </trkpt>
      <trkpt lat="47.56215" lon="-2.29143">
        <ele>28.9</ele>
        <time>2025-01-16T10:32:44Z</time>
      </trkpt>
      <trkpt lat="47.56216" lon="-2.29143">
        <ele>29</ele>
        <time>2025-01-16T10:32:45Z</time>
      </trkpt>
      <trkpt lat="47.56216" lon="-2.29143">
        <ele>29</ele>
        <time>2025-01-16T10:32:46Z</time>
      </trkpt>
      <trkpt lat="47.56216" lon="-2.29143">
        <ele>29</ele>
        <time>2025-01-16T10:32:47Z</time>
      </trkpt>
      <trkpt lat="47.56217" lon="-2.29143">
        <ele>29.1</ele>
        <time>2025-01-16T10:32:48Z</time>
      </trkpt>
      <trkpt lat="47.56217" lon="-2.29143">
        <ele>29.1</ele>
        <time>2025-01-16T10:32:49Z</time>
      </trkpt>
      <trkpt lat="47.56217" lon="-2.29143">
        <ele>29.1</ele>
        <time>2025-01-16T10:32:50Z</time>
      </trkpt>
      <trkpt lat="47.56217" lon="-2.29143">
        <ele>29.1</ele>
        <time>2025-01-16T10:32:51Z</time>
      </trkpt>
      <trkpt lat="47.56218" lon="-2.29143">
        <ele>29.2</ele>
        <time>2025-01-16T10:32:52Z</time>
      </trkpt>
      <trkpt lat="47.56218" lon="-2.29143">
        <ele>29.2</ele>
        <time>2025-01-16T10:32:53Z</time>
      </trkpt>
      <trkpt lat="47.56218" lon="-2.29143">
        <ele>29.2</ele>
        <time>2025-01-16T10:32:54Z</time>
      </trkpt>
      <trkpt lat="47.56218" lon="-2.29143">
        <ele>29.2</ele>
        <time>2025-01-16T10:32:55Z</time>
      </trkpt>
      <trkpt lat="47.56219" lon="-2.29142">
        <ele>29.4</ele>
        <time>2025-01-16T10:32:56Z</time>
      </trkpt>
      <trkpt lat="47.5622" lon="-2.29141">
        <ele>29.6</ele>
        <time>2025-01-16T10:32:57Z</time>
      </trkpt>
      <trkpt lat="47.56221" lon="-2.2914">
        <ele>29.8</ele>
        <time>2025-01-16T10:32:58Z</time>
      </trkpt>
      <trkpt lat="47.56223" lon="-2.29139">
        <ele>30</ele>
        <time>2025-01-16T10:32:59Z</time>
      </trkpt>
      <trkpt lat="47.56224" lon="-2.29138">
        <ele>30.2</ele>
        <time>2025-01-16T10:33:00Z</time>
      </trkpt>
      <trkpt lat="47.56227" lon="-2.29137">
        <ele>30.6</ele>
        <time>2025-01-16T10:33:01Z</time>
      </trkpt>
      <trkpt lat="47.56228" lon="-2.29136">
        <ele>30.8</ele>
        <time>2025-01-16T10:33:02Z</time>
      </trkpt>
      <trkpt lat="47.5623" lon="-2.29135">
        <ele>31</ele>
        <time>2025-01-16T10:33:03Z</time>
      </trkpt>
      <trkpt lat="47.56231" lon="-2.29135">
        <ele>31.1</ele>
        <time>2025-01-16T10:33:04Z</time>
      </trkpt>
      <trkpt lat="47.56232" lon="-2.29134">
        <ele>31.2</ele>
        <time>2025-01-16T10:33:05Z</time>
      </trkpt>
      <trkpt lat="47.56233" lon="-2.29133">
        <ele>31.4</ele>
        <time>2025-01-16T10:33:06Z</time>
      </trkpt>
      <trkpt lat="47.56234" lon="-2.29132">
        <ele>31.5</ele>
        <time>2025-01-16T10:33:07Z</time>
      </trkpt>
      <trkpt lat="47.56235" lon="-2.29131">
        <ele>31.7</ele>
        <time>2025-01-16T10:33:08Z</time>
      </trkpt>
      <trkpt lat="47.56236" lon="-2.2913">
        <ele>31.8</ele>
        <time>2025-01-16T10:33:09Z</time>
      </trkpt>
      <trkpt lat="47.56237" lon="-2.29129">
        <ele>31.9</ele>
        <time>2025-01-16T10:33:10Z</time>
      </trkpt>
      <trkpt lat="47.56238" lon="-2.29129">
        <ele>32</ele>
        <time>2025-01-16T10:33:11Z</time>
      </trkpt>
      <trkpt lat="47.5624" lon="-2.29128">
        <ele>32.1</ele>
        <time>2025-01-16T10:33:12Z</time>
      </trkpt>
      <trkpt lat="47.56241" lon="-2.29127">
        <ele>32.2</ele>
        <time>2025-01-16T10:33:13Z</time>
      </trkpt>
      <trkpt lat="47.56242" lon="-2.29126">
        <ele>32.3</ele>
        <time>2025-01-16T10:33:14Z</time>
      </trkpt>
      <trkpt lat="47.56243" lon="-2.29126">
        <ele>32.3</ele>
        <time>2025-01-16T10:33:15Z</time>
      </trkpt>
      <trkpt lat="47.56244" lon="-2.29125">
        <ele>32.4</ele>
        <time>2025-01-16T10:33:16Z</time>
      </trkpt>
      <trkpt lat="47.56245" lon="-2.29125">
        <ele>32.4</ele>
        <time>2025-01-16T10:33:17Z</time>
      </trkpt>
      <trkpt lat="47.56246" lon="-2.29125">
        <ele>32.4</ele>
        <time>2025-01-16T10:33:18Z</time>
      </trkpt>
      <trkpt lat="47.56247" lon="-2.29125">
        <ele>32.4</ele>
        <time>2025-01-16T10:33:19Z</time>
      </trkpt>
      <trkpt lat="47.56248" lon="-2.29125">
        <ele>32.5</ele>
        <time>2025-01-16T10:33:20Z</time>
      </trkpt>
      <trkpt lat="47.56249" lon="-2.29124">
        <ele>32.5</ele>
        <time>2025-01-16T10:33:21Z</time>
      </trkpt>
      <trkpt lat="47.5625" lon="-2.29124">
        <ele>32.5</ele>
        <time>2025-01-16T10:33:22Z</time>
      </trkpt>
      <trkpt lat="47.56251" lon="-2.29123">
        <ele>32.7</ele>
        <time>2025-01-16T10:33:23Z</time>
      </trkpt>
      <trkpt lat="47.56251" lon="-2.29123">
        <ele>32.7</ele>
        <time>2025-01-16T10:33:24Z</time>
      </trkpt>
      <trkpt lat="47.56251" lon="-2.29123">
        <ele>32.7</ele>
        <time>2025-01-16T10:33:25Z</time>
      </trkpt>
      <trkpt lat="47.56252" lon="-2.29123">
        <ele>32.8</ele>
        <time>2025-01-16T10:33:26Z</time>
      </trkpt>
      <trkpt lat="47.56252" lon="-2.29124">
        <ele>32.7</ele>
        <time>2025-01-16T10:33:27Z</time>
      </trkpt>
      <trkpt lat="47.56252" lon="-2.29126">
        <ele>32.7</ele>
        <time>2025-01-16T10:33:28Z</time>
      </trkpt>
      <trkpt lat="47.56253" lon="-2.29127">
        <ele>32.8</ele>
        <time>2025-01-16T10:33:29Z</time>
      </trkpt>
      <trkpt lat="47.56253" lon="-2.29128">
        <ele>32.8</ele>
        <time>2025-01-16T10:33:30Z</time>
      </trkpt>
      <trkpt lat="47.56253" lon="-2.29129">
        <ele>32.7</ele>
        <time>2025-01-16T10:33:31Z</time>
      </trkpt>
      <trkpt lat="47.56253" lon="-2.29131">
        <ele>32.7</ele>
        <time>2025-01-16T10:33:32Z</time>
      </trkpt>
      <trkpt lat="47.56253" lon="-2.29132">
        <ele>32.7</ele>
        <time>2025-01-16T10:33:33Z</time>
      </trkpt>
      <trkpt lat="47.56253" lon="-2.29134">
        <ele>32.6</ele>
        <time>2025-01-16T10:33:34Z</time>
      </trkpt>
      <trkpt lat="47.56253" lon="-2.29135">
        <ele>32.6</ele>
        <time>2025-01-16T10:33:35Z</time>
      </trkpt>
      <trkpt lat="47.56253" lon="-2.29136">
        <ele>32.6</ele>
        <time>2025-01-16T10:33:36Z</time>
      </trkpt>
      <trkpt lat="47.56253" lon="-2.29137">
        <ele>32.6</ele>
        <time>2025-01-16T10:33:37Z</time>
      </trkpt>
      <trkpt lat="47.56253" lon="-2.29138">
        <ele>32.6</ele>
        <time>2025-01-16T10:33:38Z</time>
      </trkpt>
      <trkpt lat="47.56252" lon="-2.2914">
        <ele>32.4</ele>
        <time>2025-01-16T10:33:39Z</time>
      </trkpt>
      <trkpt lat="47.56252" lon="-2.29141">
        <ele>32.4</ele>
        <time>2025-01-16T10:33:40Z</time>
      </trkpt>
      <trkpt lat="47.56252" lon="-2.29143">
        <ele>32.5</ele>
        <time>2025-01-16T10:33:41Z</time>
      </trkpt>
      <trkpt lat="47.56251" lon="-2.29144">
        <ele>32.4</ele>
        <time>2025-01-16T10:33:42Z</time>
      </trkpt>
      <trkpt lat="47.56251" lon="-2.29146">
        <ele>32.4</ele>
        <time>2025-01-16T10:33:43Z</time>
      </trkpt>
      <trkpt lat="47.56251" lon="-2.29147">
        <ele>32.5</ele>
        <time>2025-01-16T10:33:44Z</time>
      </trkpt>
      <trkpt lat="47.5625" lon="-2.29149">
        <ele>32.4</ele>
        <time>2025-01-16T10:33:45Z</time>
      </trkpt>
      <trkpt lat="47.56251" lon="-2.29152">
        <ele>32.7</ele>
        <time>2025-01-16T10:33:46Z</time>
      </trkpt>
      <trkpt lat="47.56251" lon="-2.29154">
        <ele>32.7</ele>
        <time>2025-01-16T10:33:47Z</time>
      </trkpt>
      <trkpt lat="47.5625" lon="-2.29156">
        <ele>32.6</ele>
        <time>2025-01-16T10:33:48Z</time>
      </trkpt>
      <trkpt lat="47.5625" lon="-2.29158">
        <ele>32.7</ele>
        <time>2025-01-16T10:33:49Z</time>
      </trkpt>
      <trkpt lat="47.5625" lon="-2.29159">
        <ele>32.7</ele>
        <time>2025-01-16T10:33:50Z</time>
      </trkpt>
      <trkpt lat="47.56249" lon="-2.29161">
        <ele>32.6</ele>
        <time>2025-01-16T10:33:51Z</time>
      </trkpt>
      <trkpt lat="47.56249" lon="-2.29163">
        <ele>32.7</ele>
        <time>2025-01-16T10:33:52Z</time>
      </trkpt>
      <trkpt lat="47.56249" lon="-2.29165">
        <ele>32.8</ele>
        <time>2025-01-16T10:33:53Z</time>
      </trkpt>
      <trkpt lat="47.56249" lon="-2.29166">
        <ele>32.8</ele>
        <time>2025-01-16T10:33:54Z</time>
      </trkpt>
      <trkpt lat="47.56249" lon="-2.29168">
        <ele>32.8</ele>
        <time>2025-01-16T10:33:55Z</time>
      </trkpt>
      <trkpt lat="47.56248" lon="-2.2917">
        <ele>32.5</ele>
        <time>2025-01-16T10:33:56Z</time>
      </trkpt>
      <trkpt lat="47.56248" lon="-2.29172">
        <ele>32.4</ele>
        <time>2025-01-16T10:33:57Z</time>
      </trkpt>
      <trkpt lat="47.56248" lon="-2.29173">
        <ele>32.4</ele>
        <time>2025-01-16T10:33:58Z</time>
      </trkpt>
      <trkpt lat="47.56247" lon="-2.29174">
        <ele>32.2</ele>
        <time>2025-01-16T10:33:59Z</time>
      </trkpt>
      <trkpt lat="47.56247" lon="-2.29176">
        <ele>32.1</ele>
        <time>2025-01-16T10:34:00Z</time>
      </trkpt>
      <trkpt lat="47.56247" lon="-2.29177">
        <ele>32.1</ele>
        <time>2025-01-16T10:34:01Z</time>
      </trkpt>
      <trkpt lat="47.56248" lon="-2.29179">
        <ele>32.2</ele>
        <time>2025-01-16T10:34:02Z</time>
      </trkpt>
      <trkpt lat="47.56248" lon="-2.29181">
        <ele>32.1</ele>
        <time>2025-01-16T10:34:03Z</time>
      </trkpt>
      <trkpt lat="47.56248" lon="-2.29183">
        <ele>32.1</ele>
        <time>2025-01-16T10:34:04Z</time>
      </trkpt>
      <trkpt lat="47.56248" lon="-2.29185">
        <ele>32</ele>
        <time>2025-01-16T10:34:05Z</time>
      </trkpt>
      <trkpt lat="47.56248" lon="-2.29186">
        <ele>31.9</ele>
        <time>2025-01-16T10:34:06Z</time>
      </trkpt>
      <trkpt lat="47.56249" lon="-2.29188">
        <ele>32.1</ele>
        <time>2025-01-16T10:34:07Z</time>
      </trkpt>
      <trkpt lat="47.56249" lon="-2.29189">
        <ele>32</ele>
        <time>2025-01-16T10:34:08Z</time>
      </trkpt>
      <trkpt lat="47.56249" lon="-2.2919">
        <ele>32</ele>
        <time>2025-01-16T10:34:09Z</time>
      </trkpt>
      <trkpt lat="47.5625" lon="-2.2919">
        <ele>32.2</ele>
        <time>2025-01-16T10:34:10Z</time>
      </trkpt>
      <trkpt lat="47.56251" lon="-2.29191">
        <ele>32.3</ele>
        <time>2025-01-16T10:34:11Z</time>
      </trkpt>
      <trkpt lat="47.56252" lon="-2.29192">
        <ele>32.5</ele>
        <time>2025-01-16T10:34:12Z</time>
      </trkpt>
      <trkpt lat="47.56252" lon="-2.29193">
        <ele>32.5</ele>
        <time>2025-01-16T10:34:13Z</time>
      </trkpt>
      <trkpt lat="47.56252" lon="-2.29194">
        <ele>32.4</ele>
        <time>2025-01-16T10:34:14Z</time>
      </trkpt>
      <trkpt lat="47.56253" lon="-2.29194">
        <ele>32.7</ele>
        <time>2025-01-16T10:34:15Z</time>
      </trkpt>
      <trkpt lat="47.56253" lon="-2.29196">
        <ele>32.5</ele>
        <time>2025-01-16T10:34:16Z</time>
      </trkpt>
      <trkpt lat="47.56254" lon="-2.29197">
        <ele>32.7</ele>
        <time>2025-01-16T10:34:17Z</time>
      </trkpt>
      <trkpt lat="47.56254" lon="-2.29199">
        <ele>32.5</ele>
        <time>2025-01-16T10:34:18Z</time>
      </trkpt>
      <trkpt lat="47.56255" lon="-2.29201">
        <ele>32.6</ele>
        <time>2025-01-16T10:34:19Z</time>
      </trkpt>
      <trkpt lat="47.56255" lon="-2.29203">
        <ele>32.5</ele>
        <time>2025-01-16T10:34:20Z</time>
      </trkpt>
      <trkpt lat="47.56255" lon="-2.29206">
        <ele>32.2</ele>
        <time>2025-01-16T10:34:21Z</time>
      </trkpt>
      <trkpt lat="47.56256" lon="-2.29208">
        <ele>32.3</ele>
        <time>2025-01-16T10:34:22Z</time>
      </trkpt>
      <trkpt lat="47.56257" lon="-2.29211">
        <ele>32.3</ele>
        <time>2025-01-16T10:34:23Z</time>
      </trkpt>
      <trkpt lat="47.56258" lon="-2.29213">
        <ele>32.4</ele>
        <time>2025-01-16T10:34:24Z</time>
      </trkpt>
      <trkpt lat="47.56258" lon="-2.29215">
        <ele>32.2</ele>
        <time>2025-01-16T10:34:25Z</time>
      </trkpt>
      <trkpt lat="47.56258" lon="-2.29218">
        <ele>32</ele>
        <time>2025-01-16T10:34:26Z</time>
      </trkpt>
      <trkpt lat="47.56259" lon="-2.2922">
        <ele>32.1</ele>
        <time>2025-01-16T10:34:27Z</time>
      </trkpt>
      <trkpt lat="47.56259" lon="-2.29222">
        <ele>32</ele>
        <time>2025-01-16T10:34:28Z</time>
      </trkpt>
      <trkpt lat="47.56259" lon="-2.29223">
        <ele>31.9</ele>
        <time>2025-01-16T10:34:29Z</time>
      </trkpt>
      <trkpt lat="47.56259" lon="-2.29226">
        <ele>31.8</ele>
        <time>2025-01-16T10:34:30Z</time>
      </trkpt>
      <trkpt lat="47.56259" lon="-2.29228">
        <ele>31.7</ele>
        <time>2025-01-16T10:34:31Z</time>
      </trkpt>
      <trkpt lat="47.56259" lon="-2.29231">
        <ele>31.6</ele>
        <time>2025-01-16T10:34:32Z</time>
      </trkpt>
      <trkpt lat="47.56259" lon="-2.29234">
        <ele>31.5</ele>
        <time>2025-01-16T10:34:33Z</time>
      </trkpt>
      <trkpt lat="47.56259" lon="-2.29236">
        <ele>31.5</ele>
        <time>2025-01-16T10:34:34Z</time>
      </trkpt>
      <trkpt lat="47.56259" lon="-2.29238">
        <ele>31.4</ele>
        <time>2025-01-16T10:34:35Z</time>
      </trkpt>
      <trkpt lat="47.56258" lon="-2.2924">
        <ele>31.2</ele>
        <time>2025-01-16T10:34:36Z</time>
      </trkpt>
      <trkpt lat="47.56258" lon="-2.29241">
        <ele>31.1</ele>
        <time>2025-01-16T10:34:37Z</time>
      </trkpt>
      <trkpt lat="47.56258" lon="-2.29243">
        <ele>31.1</ele>
        <time>2025-01-16T10:34:38Z</time>
      </trkpt>
      <trkpt lat="47.56258" lon="-2.29245">
        <ele>31</ele>
        <time>2025-01-16T10:34:39Z</time>
      </trkpt>
      <trkpt lat="47.56257" lon="-2.29246">
        <ele>30.9</ele>
        <time>2025-01-16T10:34:40Z</time>
      </trkpt>
      <trkpt lat="47.56256" lon="-2.29248">
        <ele>30.7</ele>
        <time>2025-01-16T10:34:41Z</time>
      </trkpt>
      <trkpt lat="47.56256" lon="-2.29249">
        <ele>30.7</ele>
        <time>2025-01-16T10:34:42Z</time>
      </trkpt>
      <trkpt lat="47.56255" lon="-2.2925">
        <ele>30.5</ele>
        <time>2025-01-16T10:34:43Z</time>
      </trkpt>
      <trkpt lat="47.56255" lon="-2.2925">
        <ele>30.5</ele>
        <time>2025-01-16T10:34:44Z</time>
      </trkpt>
      <trkpt lat="47.56255" lon="-2.29251">
        <ele>30.7</ele>
        <time>2025-01-16T10:34:45Z</time>
      </trkpt>
      <trkpt lat="47.56254" lon="-2.29253">
        <ele>30.8</ele>
        <time>2025-01-16T10:34:46Z</time>
      </trkpt>
      <trkpt lat="47.56254" lon="-2.29254">
        <ele>30.9</ele>
        <time>2025-01-16T10:34:47Z</time>
      </trkpt>
      <trkpt lat="47.56253" lon="-2.29257">
        <ele>31.2</ele>
        <time>2025-01-16T10:34:48Z</time>
      </trkpt>
      <trkpt lat="47.56253" lon="-2.29258">
        <ele>31.4</ele>
        <time>2025-01-16T10:34:49Z</time>
      </trkpt>
      <trkpt lat="47.56252" lon="-2.2926">
        <ele>31.6</ele>
        <time>2025-01-16T10:34:50Z</time>
      </trkpt>
      <trkpt lat="47.56252" lon="-2.29261">
        <ele>31.7</ele>
        <time>2025-01-16T10:34:51Z</time>
      </trkpt>
      <trkpt lat="47.56251" lon="-2.29263">
        <ele>31.9</ele>
        <time>2025-01-16T10:34:52Z</time>
      </trkpt>
      <trkpt lat="47.5625" lon="-2.29264">
        <ele>32</ele>
        <time>2025-01-16T10:34:53Z</time>
      </trkpt>
      <trkpt lat="47.56249" lon="-2.29265">
        <ele>32.2</ele>
        <time>2025-01-16T10:34:54Z</time>
      </trkpt>
      <trkpt lat="47.56249" lon="-2.29266">
        <ele>32.4</ele>
        <time>2025-01-16T10:34:55Z</time>
      </trkpt>
      <trkpt lat="47.56249" lon="-2.29267">
        <ele>32.5</ele>
        <time>2025-01-16T10:34:56Z</time>
      </trkpt>
      <trkpt lat="47.56249" lon="-2.29267">
        <ele>32.5</ele>
        <time>2025-01-16T10:34:57Z</time>
      </trkpt>
      <trkpt lat="47.56249" lon="-2.29267">
        <ele>32.5</ele>
        <time>2025-01-16T10:34:58Z</time>
      </trkpt>
      <trkpt lat="47.56249" lon="-2.29268">
        <ele>32.6</ele>
        <time>2025-01-16T10:34:59Z</time>
      </trkpt>
      <trkpt lat="47.56248" lon="-2.29268">
        <ele>32.7</ele>
        <time>2025-01-16T10:35:00Z</time>
      </trkpt>
      <trkpt lat="47.56248" lon="-2.29269">
        <ele>32.8</ele>
        <time>2025-01-16T10:35:01Z</time>
      </trkpt>
      <trkpt lat="47.56247" lon="-2.2927">
        <ele>33</ele>
        <time>2025-01-16T10:35:02Z</time>
      </trkpt>
      <trkpt lat="47.56247" lon="-2.2927">
        <ele>33</ele>
        <time>2025-01-16T10:35:03Z</time>
      </trkpt>
      <trkpt lat="47.56247" lon="-2.29271">
        <ele>33.2</ele>
        <time>2025-01-16T10:35:04Z</time>
      </trkpt>
      <trkpt lat="47.56246" lon="-2.29272">
        <ele>33.3</ele>
        <time>2025-01-16T10:35:05Z</time>
      </trkpt>
      <trkpt lat="47.56245" lon="-2.29273">
        <ele>33.5</ele>
        <time>2025-01-16T10:35:06Z</time>
      </trkpt>
      <trkpt lat="47.56244" lon="-2.29274">
        <ele>33.7</ele>
        <time>2025-01-16T10:35:07Z</time>
      </trkpt>
      <trkpt lat="47.56244" lon="-2.29276">
        <ele>34</ele>
        <time>2025-01-16T10:35:08Z</time>
      </trkpt>
      <trkpt lat="47.56243" lon="-2.29277">
        <ele>34.1</ele>
        <time>2025-01-16T10:35:09Z</time>
      </trkpt>
      <trkpt lat="47.56242" lon="-2.29278">
        <ele>34.3</ele>
        <time>2025-01-16T10:35:10Z</time>
      </trkpt>
      <trkpt lat="47.56242" lon="-2.29279">
        <ele>34.5</ele>
        <time>2025-01-16T10:35:11Z</time>
      </trkpt>
      <trkpt lat="47.56241" lon="-2.2928">
        <ele>34.6</ele>
        <time>2025-01-16T10:35:12Z</time>
      </trkpt>
      <trkpt lat="47.5624" lon="-2.29281">
        <ele>34.8</ele>
        <time>2025-01-16T10:35:13Z</time>
      </trkpt>
      <trkpt lat="47.5624" lon="-2.29282">
        <ele>34.9</ele>
        <time>2025-01-16T10:35:14Z</time>
      </trkpt>
      <trkpt lat="47.56239" lon="-2.29284">
        <ele>35.2</ele>
        <time>2025-01-16T10:35:15Z</time>
      </trkpt>
      <trkpt lat="47.56238" lon="-2.29285">
        <ele>35.4</ele>
        <time>2025-01-16T10:35:16Z</time>
      </trkpt>
      <trkpt lat="47.56237" lon="-2.29286">
        <ele>35.5</ele>
        <time>2025-01-16T10:35:17Z</time>
      </trkpt>
      <trkpt lat="47.56236" lon="-2.29287">
        <ele>35.7</ele>
        <time>2025-01-16T10:35:18Z</time>
      </trkpt>
      <trkpt lat="47.56234" lon="-2.29288">
        <ele>35.8</ele>
        <time>2025-01-16T10:35:19Z</time>
      </trkpt>
      <trkpt lat="47.56234" lon="-2.2929">
        <ele>36.1</ele>
        <time>2025-01-16T10:35:20Z</time>
      </trkpt>
      <trkpt lat="47.56233" lon="-2.2929">
        <ele>36.1</ele>
        <time>2025-01-16T10:35:21Z</time>
      </trkpt>
      <trkpt lat="47.56232" lon="-2.29291">
        <ele>36.2</ele>
        <time>2025-01-16T10:35:22Z</time>
      </trkpt>
      <trkpt lat="47.56232" lon="-2.29293">
        <ele>36.5</ele>
        <time>2025-01-16T10:35:23Z</time>
      </trkpt>
      <trkpt lat="47.56231" lon="-2.29294">
        <ele>36.6</ele>
        <time>2025-01-16T10:35:24Z</time>
      </trkpt>
      <trkpt lat="47.56231" lon="-2.29296">
        <ele>36.9</ele>
        <time>2025-01-16T10:35:25Z</time>
      </trkpt>
      <trkpt lat="47.5623" lon="-2.29298">
        <ele>37.1</ele>
        <time>2025-01-16T10:35:26Z</time>
      </trkpt>
      <trkpt lat="47.5623" lon="-2.293">
        <ele>37.3</ele>
        <time>2025-01-16T10:35:27Z</time>
      </trkpt>
      <trkpt lat="47.5623" lon="-2.29301">
        <ele>37.5</ele>
        <time>2025-01-16T10:35:28Z</time>
      </trkpt>
      <trkpt lat="47.56229" lon="-2.29303">
        <ele>37.7</ele>
        <time>2025-01-16T10:35:29Z</time>
      </trkpt>
      <trkpt lat="47.56229" lon="-2.29304">
        <ele>37.8</ele>
        <time>2025-01-16T10:35:30Z</time>
      </trkpt>
      <trkpt lat="47.56228" lon="-2.29306">
        <ele>38</ele>
        <time>2025-01-16T10:35:31Z</time>
      </trkpt>
      <trkpt lat="47.56227" lon="-2.29307">
        <ele>38.1</ele>
        <time>2025-01-16T10:35:32Z</time>
      </trkpt>
      <trkpt lat="47.56227" lon="-2.29309">
        <ele>38.1</ele>
        <time>2025-01-16T10:35:33Z</time>
      </trkpt>
      <trkpt lat="47.56226" lon="-2.2931">
        <ele>38.2</ele>
        <time>2025-01-16T10:35:34Z</time>
      </trkpt>
      <trkpt lat="47.56226" lon="-2.29312">
        <ele>38.3</ele>
        <time>2025-01-16T10:35:35Z</time>
      </trkpt>
      <trkpt lat="47.56226" lon="-2.29312">
        <ele>38.3</ele>
        <time>2025-01-16T10:35:36Z</time>
      </trkpt>
      <trkpt lat="47.56226" lon="-2.29312">
        <ele>38.3</ele>
        <time>2025-01-16T10:35:37Z</time>
      </trkpt>
      <trkpt lat="47.56226" lon="-2.29312">
        <ele>38.3</ele>
        <time>2025-01-16T10:35:38Z</time>
      </trkpt>
      <trkpt lat="47.56225" lon="-2.29313">
        <ele>38.3</ele>
        <time>2025-01-16T10:35:39Z</time>
      </trkpt>
      <trkpt lat="47.56225" lon="-2.29313">
        <ele>38.3</ele>
        <time>2025-01-16T10:35:40Z</time>
      </trkpt>
      <trkpt lat="47.56224" lon="-2.29314">
        <ele>38.3</ele>
        <time>2025-01-16T10:35:41Z</time>
      </trkpt>
      <trkpt lat="47.56224" lon="-2.29314">
        <ele>38.3</ele>
        <time>2025-01-16T10:35:42Z</time>
      </trkpt>
      <trkpt lat="47.56223" lon="-2.29315">
        <ele>38.3</ele>
        <time>2025-01-16T10:35:43Z</time>
      </trkpt>
      <trkpt lat="47.56222" lon="-2.29317">
        <ele>38.4</ele>
        <time>2025-01-16T10:35:44Z</time>
      </trkpt>
      <trkpt lat="47.56222" lon="-2.29318">
        <ele>38.5</ele>
        <time>2025-01-16T10:35:45Z</time>
      </trkpt>
      <trkpt lat="47.56221" lon="-2.29321">
        <ele>38.6</ele>
        <time>2025-01-16T10:35:46Z</time>
      </trkpt>
      <trkpt lat="47.56221" lon="-2.29323">
        <ele>38.7</ele>
        <time>2025-01-16T10:35:47Z</time>
      </trkpt>
      <trkpt lat="47.56221" lon="-2.29325">
        <ele>38.7</ele>
        <time>2025-01-16T10:35:48Z</time>
      </trkpt>
      <trkpt lat="47.56221" lon="-2.29327">
        <ele>38.8</ele>
        <time>2025-01-16T10:35:49Z</time>
      </trkpt>
      <trkpt lat="47.56221" lon="-2.29328">
        <ele>38.8</ele>
        <time>2025-01-16T10:35:50Z</time>
      </trkpt>
      <trkpt lat="47.56221" lon="-2.29329">
        <ele>38.9</ele>
        <time>2025-01-16T10:35:51Z</time>
      </trkpt>
      <trkpt lat="47.56221" lon="-2.29331">
        <ele>39</ele>
        <time>2025-01-16T10:35:52Z</time>
      </trkpt>
      <trkpt lat="47.56221" lon="-2.29332">
        <ele>39</ele>
        <time>2025-01-16T10:35:53Z</time>
      </trkpt>
      <trkpt lat="47.56221" lon="-2.29333">
        <ele>39</ele>
        <time>2025-01-16T10:35:54Z</time>
      </trkpt>
      <trkpt lat="47.56222" lon="-2.29334">
        <ele>39.1</ele>
        <time>2025-01-16T10:35:55Z</time>
      </trkpt>
      <trkpt lat="47.56223" lon="-2.29335">
        <ele>39.1</ele>
        <time>2025-01-16T10:35:56Z</time>
      </trkpt>
      <trkpt lat="47.56224" lon="-2.29336">
        <ele>39.3</ele>
        <time>2025-01-16T10:35:57Z</time>
      </trkpt>
      <trkpt lat="47.56224" lon="-2.29336">
        <ele>39.3</ele>
        <time>2025-01-16T10:35:58Z</time>
      </trkpt>
      <trkpt lat="47.56224" lon="-2.29337">
        <ele>39.3</ele>
        <time>2025-01-16T10:35:59Z</time>
      </trkpt>
      <trkpt lat="47.56225" lon="-2.29339">
        <ele>39.5</ele>
        <time>2025-01-16T10:36:00Z</time>
      </trkpt>
      <trkpt lat="47.56225" lon="-2.2934">
        <ele>39.6</ele>
        <time>2025-01-16T10:36:01Z</time>
      </trkpt>
      <trkpt lat="47.56226" lon="-2.2934">
        <ele>39.6</ele>
        <time>2025-01-16T10:36:02Z</time>
      </trkpt>
      <trkpt lat="47.56226" lon="-2.29341">
        <ele>39.7</ele>
        <time>2025-01-16T10:36:03Z</time>
      </trkpt>
      <trkpt lat="47.56227" lon="-2.29341">
        <ele>39.7</ele>
        <time>2025-01-16T10:36:04Z</time>
      </trkpt>
      <trkpt lat="47.56227" lon="-2.29342">
        <ele>39.8</ele>
        <time>2025-01-16T10:36:05Z</time>
      </trkpt>
      <trkpt lat="47.56228" lon="-2.29343">
        <ele>39.9</ele>
        <time>2025-01-16T10:36:06Z</time>
      </trkpt>
      <trkpt lat="47.56228" lon="-2.29342">
        <ele>39.8</ele>
        <time>2025-01-16T10:36:07Z</time>
      </trkpt>
      <trkpt lat="47.56228" lon="-2.29342">
        <ele>39.8</ele>
        <time>2025-01-16T10:36:08Z</time>
      </trkpt>
      <trkpt lat="47.56229" lon="-2.29342">
        <ele>39.9</ele>
        <time>2025-01-16T10:36:09Z</time>
      </trkpt>
      <trkpt lat="47.56229" lon="-2.29342">
        <ele>39.9</ele>
        <time>2025-01-16T10:36:10Z</time>
      </trkpt>
      <trkpt lat="47.56229" lon="-2.29342">
        <ele>39.9</ele>
        <time>2025-01-16T10:36:11Z</time>
      </trkpt>
      <trkpt lat="47.56229" lon="-2.29343">
        <ele>39.9</ele>
        <time>2025-01-16T10:36:12Z</time>
      </trkpt>
      <trkpt lat="47.56229" lon="-2.29342">
        <ele>39.9</ele>
        <time>2025-01-16T10:36:13Z</time>
      </trkpt>
      <trkpt lat="47.56229" lon="-2.29342">
        <ele>39.9</ele>
        <time>2025-01-16T10:36:14Z</time>
      </trkpt>
      <trkpt lat="47.56229" lon="-2.29342">
        <ele>39.9</ele>
        <time>2025-01-16T10:36:15Z</time>
      </trkpt>
      <trkpt lat="47.56229" lon="-2.29342">
        <ele>39.9</ele>
        <time>2025-01-16T10:36:16Z</time>
      </trkpt>
      <trkpt lat="47.5623" lon="-2.29342">
        <ele>39.9</ele>
        <time>2025-01-16T10:36:17Z</time>
      </trkpt>
      <trkpt lat="47.5623" lon="-2.29342">
        <ele>39.9</ele>
        <time>2025-01-16T10:36:18Z</time>
      </trkpt>
      <trkpt lat="47.5623" lon="-2.29342">
        <ele>39.9</ele>
        <time>2025-01-16T10:36:19Z</time>
      </trkpt>
      <trkpt lat="47.5623" lon="-2.29342">
        <ele>39.9</ele>
        <time>2025-01-16T10:36:20Z</time>
      </trkpt>
      <trkpt lat="47.5623" lon="-2.29342">
        <ele>39.9</ele>
        <time>2025-01-16T10:36:21Z</time>
      </trkpt>
      <trkpt lat="47.5623" lon="-2.29343">
        <ele>40</ele>
        <time>2025-01-16T10:36:22Z</time>
      </trkpt>
      <trkpt lat="47.5623" lon="-2.29343">
        <ele>40</ele>
        <time>2025-01-16T10:36:23Z</time>
      </trkpt>
      <trkpt lat="47.56229" lon="-2.29343">
        <ele>39.9</ele>
        <time>2025-01-16T10:36:27Z</time>
      </trkpt>
      <trkpt lat="47.56229" lon="-2.29343">
        <ele>39.9</ele>
        <time>2025-01-16T10:36:28Z</time>
      </trkpt>
      <trkpt lat="47.56229" lon="-2.29343">
        <ele>39.9</ele>
        <time>2025-01-16T10:36:29Z</time>
      </trkpt>
      <trkpt lat="47.56229" lon="-2.29343">
        <ele>39.9</ele>
        <time>2025-01-16T10:36:30Z</time>
      </trkpt>
      <trkpt lat="47.56228" lon="-2.29343">
        <ele>39.9</ele>
        <time>2025-01-16T10:36:31Z</time>
      </trkpt>
      <trkpt lat="47.56228" lon="-2.29342">
        <ele>39.8</ele>
        <time>2025-01-16T10:36:32Z</time>
      </trkpt>
      <trkpt lat="47.56228" lon="-2.29343">
        <ele>39.9</ele>
        <time>2025-01-16T10:36:33Z</time>
      </trkpt>
      <trkpt lat="47.56228" lon="-2.29343">
        <ele>39.9</ele>
        <time>2025-01-16T10:36:34Z</time>
      </trkpt>
      <trkpt lat="47.56228" lon="-2.29344">
        <ele>40</ele>
        <time>2025-01-16T10:36:35Z</time>
      </trkpt>
      <trkpt lat="47.56228" lon="-2.29344">
        <ele>40</ele>
        <time>2025-01-16T10:36:36Z</time>
      </trkpt>
      <trkpt lat="47.56228" lon="-2.29344">
        <ele>40</ele>
        <time>2025-01-16T10:36:37Z</time>
      </trkpt>
      <trkpt lat="47.56228" lon="-2.29344">
        <ele>40</ele>
        <time>2025-01-16T10:36:38Z</time>
      </trkpt>
      <trkpt lat="47.56228" lon="-2.29344">
        <ele>40</ele>
        <time>2025-01-16T10:36:39Z</time>
      </trkpt>
      <trkpt lat="47.56228" lon="-2.29344">
        <ele>40</ele>
        <time>2025-01-16T10:36:40Z</time>
      </trkpt>
      <trkpt lat="47.56228" lon="-2.29344">
        <ele>40</ele>
        <time>2025-01-16T10:36:41Z</time>
      </trkpt>
      <trkpt lat="47.56229" lon="-2.29344">
        <ele>40</ele>
        <time>2025-01-16T10:36:42Z</time>
      </trkpt>
      <trkpt lat="47.56228" lon="-2.29344">
        <ele>40</ele>
        <time>2025-01-16T10:36:43Z</time>
      </trkpt>
      <trkpt lat="47.56228" lon="-2.29344">
        <ele>40</ele>
        <time>2025-01-16T10:36:44Z</time>
      </trkpt>
      <trkpt lat="47.56227" lon="-2.29343">
        <ele>39.9</ele>
        <time>2025-01-16T10:36:45Z</time>
      </trkpt>
      <trkpt lat="47.56227" lon="-2.29343">
        <ele>39.9</ele>
        <time>2025-01-16T10:36:46Z</time>
      </trkpt>
      <trkpt lat="47.56226" lon="-2.29342">
        <ele>39.8</ele>
        <time>2025-01-16T10:36:47Z</time>
      </trkpt>
      <trkpt lat="47.56226" lon="-2.2934">
        <ele>39.6</ele>
        <time>2025-01-16T10:36:48Z</time>
      </trkpt>
      <trkpt lat="47.56225" lon="-2.29339">
        <ele>39.5</ele>
        <time>2025-01-16T10:36:49Z</time>
      </trkpt>
      <trkpt lat="47.56224" lon="-2.29338">
        <ele>39.4</ele>
        <time>2025-01-16T10:36:50Z</time>
      </trkpt>
      <trkpt lat="47.56223" lon="-2.29337">
        <ele>39.3</ele>
        <time>2025-01-16T10:36:51Z</time>
      </trkpt>
      <trkpt lat="47.56223" lon="-2.29336">
        <ele>39.2</ele>
        <time>2025-01-16T10:36:52Z</time>
      </trkpt>
      <trkpt lat="47.56222" lon="-2.29334">
        <ele>39.1</ele>
        <time>2025-01-16T10:36:53Z</time>
      </trkpt>
      <trkpt lat="47.56222" lon="-2.29333">
        <ele>39</ele>
        <time>2025-01-16T10:36:54Z</time>
      </trkpt>
      <trkpt lat="47.56221" lon="-2.29332">
        <ele>39</ele>
        <time>2025-01-16T10:36:55Z</time>
      </trkpt>
      <trkpt lat="47.5622" lon="-2.29331">
        <ele>39</ele>
        <time>2025-01-16T10:36:56Z</time>
      </trkpt>
      <trkpt lat="47.5622" lon="-2.2933">
        <ele>39</ele>
        <time>2025-01-16T10:36:57Z</time>
      </trkpt>
      <trkpt lat="47.56219" lon="-2.29329">
        <ele>38.9</ele>
        <time>2025-01-16T10:36:58Z</time>
      </trkpt>
      <trkpt lat="47.56219" lon="-2.29328">
        <ele>38.9</ele>
        <time>2025-01-16T10:36:59Z</time>
      </trkpt>
      <trkpt lat="47.56219" lon="-2.29327">
        <ele>38.9</ele>
        <time>2025-01-16T10:37:00Z</time>
      </trkpt>
      <trkpt lat="47.56219" lon="-2.29327">
        <ele>38.9</ele>
        <time>2025-01-16T10:37:01Z</time>
      </trkpt>
      <trkpt lat="47.56218" lon="-2.29326">
        <ele>38.8</ele>
        <time>2025-01-16T10:37:02Z</time>
      </trkpt>
      <trkpt lat="47.56218" lon="-2.29325">
        <ele>38.8</ele>
        <time>2025-01-16T10:37:03Z</time>
      </trkpt>
      <trkpt lat="47.56217" lon="-2.29324">
        <ele>38.8</ele>
        <time>2025-01-16T10:37:04Z</time>
      </trkpt>
      <trkpt lat="47.56216" lon="-2.29322">
        <ele>38.7</ele>
        <time>2025-01-16T10:37:05Z</time>
      </trkpt>
      <trkpt lat="47.56215" lon="-2.29321">
        <ele>38.7</ele>
        <time>2025-01-16T10:37:06Z</time>
      </trkpt>
      <trkpt lat="47.56215" lon="-2.2932">
        <ele>38.7</ele>
        <time>2025-01-16T10:37:07Z</time>
      </trkpt>
      <trkpt lat="47.56214" lon="-2.29318">
        <ele>38.6</ele>
        <time>2025-01-16T10:37:08Z</time>
      </trkpt>
      <trkpt lat="47.56213" lon="-2.29317">
        <ele>38.5</ele>
        <time>2025-01-16T10:37:09Z</time>
      </trkpt>
      <trkpt lat="47.56212" lon="-2.29316">
        <ele>38.5</ele>
        <time>2025-01-16T10:37:10Z</time>
      </trkpt>
      <trkpt lat="47.56211" lon="-2.29315">
        <ele>38.5</ele>
        <time>2025-01-16T10:37:11Z</time>
      </trkpt>
      <trkpt lat="47.56209" lon="-2.29314">
        <ele>38.4</ele>
        <time>2025-01-16T10:37:12Z</time>
      </trkpt>
      <trkpt lat="47.56208" lon="-2.29313">
        <ele>38.4</ele>
        <time>2025-01-16T10:37:13Z</time>
      </trkpt>
      <trkpt lat="47.56207" lon="-2.29312">
        <ele>38.4</ele>
        <time>2025-01-16T10:37:14Z</time>
      </trkpt>
      <trkpt lat="47.56206" lon="-2.29312">
        <ele>38.4</ele>
        <time>2025-01-16T10:37:15Z</time>
      </trkpt>
      <trkpt lat="47.56205" lon="-2.2931">
        <ele>38.3</ele>
        <time>2025-01-16T10:37:16Z</time>
      </trkpt>
      <trkpt lat="47.56204" lon="-2.29309">
        <ele>38.2</ele>
        <time>2025-01-16T10:37:17Z</time>
      </trkpt>
      <trkpt lat="47.56204" lon="-2.29308">
        <ele>38.1</ele>
        <time>2025-01-16T10:37:18Z</time>
      </trkpt>
      <trkpt lat="47.56203" lon="-2.29307">
        <ele>38.1</ele>
        <time>2025-01-16T10:37:19Z</time>
      </trkpt>
      <trkpt lat="47.56202" lon="-2.29306">
        <ele>38</ele>
        <time>2025-01-16T10:37:20Z</time>
      </trkpt>
      <trkpt lat="47.56201" lon="-2.29305">
        <ele>38</ele>
        <time>2025-01-16T10:37:21Z</time>
      </trkpt>
      <trkpt lat="47.56201" lon="-2.29305">
        <ele>38</ele>
        <time>2025-01-16T10:37:22Z</time>
      </trkpt>
      <trkpt lat="47.562" lon="-2.29304">
        <ele>37.9</ele>
        <time>2025-01-16T10:37:23Z</time>
      </trkpt>
      <trkpt lat="47.56199" lon="-2.29303">
        <ele>37.9</ele>
        <time>2025-01-16T10:37:24Z</time>
      </trkpt>
      <trkpt lat="47.56198" lon="-2.29302">
        <ele>37.8</ele>
        <time>2025-01-16T10:37:25Z</time>
      </trkpt>
      <trkpt lat="47.56198" lon="-2.293">
        <ele>37.7</ele>
        <time>2025-01-16T10:37:26Z</time>
      </trkpt>
      <trkpt lat="47.56197" lon="-2.29299">
        <ele>37.7</ele>
        <time>2025-01-16T10:37:27Z</time>
      </trkpt>
      <trkpt lat="47.56197" lon="-2.29297">
        <ele>37.6</ele>
        <time>2025-01-16T10:37:28Z</time>
      </trkpt>
      <trkpt lat="47.56196" lon="-2.29296">
        <ele>37.6</ele>
        <time>2025-01-16T10:37:29Z</time>
      </trkpt>
      <trkpt lat="47.56195" lon="-2.29294">
        <ele>37.6</ele>
        <time>2025-01-16T10:37:30Z</time>
      </trkpt>
      <trkpt lat="47.56194" lon="-2.29293">
        <ele>37.5</ele>
        <time>2025-01-16T10:37:31Z</time>
      </trkpt>
      <trkpt lat="47.56193" lon="-2.29292">
        <ele>37.5</ele>
        <time>2025-01-16T10:37:32Z</time>
      </trkpt>
      <trkpt lat="47.56192" lon="-2.2929">
        <ele>37.4</ele>
        <time>2025-01-16T10:37:33Z</time>
      </trkpt>
      <trkpt lat="47.56191" lon="-2.29289">
        <ele>37.3</ele>
        <time>2025-01-16T10:37:34Z</time>
      </trkpt>
      <trkpt lat="47.5619" lon="-2.29287">
        <ele>37.2</ele>
        <time>2025-01-16T10:37:35Z</time>
      </trkpt>
      <trkpt lat="47.56189" lon="-2.29286">
        <ele>37.2</ele>
        <time>2025-01-16T10:37:36Z</time>
      </trkpt>
      <trkpt lat="47.56188" lon="-2.29284">
        <ele>37</ele>
        <time>2025-01-16T10:37:37Z</time>
      </trkpt>
      <trkpt lat="47.56188" lon="-2.29283">
        <ele>37</ele>
        <time>2025-01-16T10:37:38Z</time>
      </trkpt>
      <trkpt lat="47.56187" lon="-2.29283">
        <ele>37</ele>
        <time>2025-01-16T10:37:39Z</time>
      </trkpt>
      <trkpt lat="47.56187" lon="-2.29283">
        <ele>37</ele>
        <time>2025-01-16T10:37:40Z</time>
      </trkpt>
      <trkpt lat="47.56187" lon="-2.29283">
        <ele>37</ele>
        <time>2025-01-16T10:37:41Z</time>
      </trkpt>
      <trkpt lat="47.56187" lon="-2.29283">
        <ele>37</ele>
        <time>2025-01-16T10:37:42Z</time>
      </trkpt>
      <trkpt lat="47.56186" lon="-2.29282">
        <ele>36.9</ele>
        <time>2025-01-16T10:37:43Z</time>
      </trkpt>
      <trkpt lat="47.56185" lon="-2.2928">
        <ele>36.8</ele>
        <time>2025-01-16T10:37:44Z</time>
      </trkpt>
      <trkpt lat="47.56185" lon="-2.29278">
        <ele>36.7</ele>
        <time>2025-01-16T10:37:45Z</time>
      </trkpt>
      <trkpt lat="47.56184" lon="-2.29277">
        <ele>36.6</ele>
        <time>2025-01-16T10:37:46Z</time>
      </trkpt>
      <trkpt lat="47.56183" lon="-2.29275">
        <ele>36.4</ele>
        <time>2025-01-16T10:37:47Z</time>
      </trkpt>
      <trkpt lat="47.56183" lon="-2.29274">
        <ele>36.3</ele>
        <time>2025-01-16T10:37:48Z</time>
      </trkpt>
      <trkpt lat="47.56182" lon="-2.29272">
        <ele>36.1</ele>
        <time>2025-01-16T10:37:49Z</time>
      </trkpt>
      <trkpt lat="47.56181" lon="-2.29271">
        <ele>36</ele>
        <time>2025-01-16T10:37:50Z</time>
      </trkpt>
      <trkpt lat="47.5618" lon="-2.29269">
        <ele>35.8</ele>
        <time>2025-01-16T10:37:51Z</time>
      </trkpt>
      <trkpt lat="47.5618" lon="-2.29268">
        <ele>35.8</ele>
        <time>2025-01-16T10:37:52Z</time>
      </trkpt>
      <trkpt lat="47.56179" lon="-2.29266">
        <ele>35.6</ele>
        <time>2025-01-16T10:37:53Z</time>
      </trkpt>
      <trkpt lat="47.56178" lon="-2.29265">
        <ele>35.5</ele>
        <time>2025-01-16T10:37:54Z</time>
      </trkpt>
      <trkpt lat="47.56178" lon="-2.29264">
        <ele>35.4</ele>
        <time>2025-01-16T10:37:55Z</time>
      </trkpt>
      <trkpt lat="47.56177" lon="-2.29263">
        <ele>35.3</ele>
        <time>2025-01-16T10:37:56Z</time>
      </trkpt>
      <trkpt lat="47.56176" lon="-2.29262">
        <ele>35.2</ele>
        <time>2025-01-16T10:37:57Z</time>
      </trkpt>
      <trkpt lat="47.56175" lon="-2.29261">
        <ele>35.1</ele>
        <time>2025-01-16T10:37:58Z</time>
      </trkpt>
      <trkpt lat="47.56173" lon="-2.2926">
        <ele>34.9</ele>
        <time>2025-01-16T10:37:59Z</time>
      </trkpt>
      <trkpt lat="47.56172" lon="-2.29259">
        <ele>34.8</ele>
        <time>2025-01-16T10:38:00Z</time>
      </trkpt>
      <trkpt lat="47.56172" lon="-2.29259">
        <ele>34.8</ele>
        <time>2025-01-16T10:38:01Z</time>
      </trkpt>
      <trkpt lat="47.56171" lon="-2.29258">
        <ele>34.7</ele>
        <time>2025-01-16T10:38:02Z</time>
      </trkpt>
      <trkpt lat="47.5617" lon="-2.29258">
        <ele>34.7</ele>
        <time>2025-01-16T10:38:03Z</time>
      </trkpt>
      <trkpt lat="47.56169" lon="-2.29257">
        <ele>34.6</ele>
        <time>2025-01-16T10:38:04Z</time>
      </trkpt>
      <trkpt lat="47.56168" lon="-2.29257">
        <ele>34.6</ele>
        <time>2025-01-16T10:38:05Z</time>
      </trkpt>
      <trkpt lat="47.56167" lon="-2.29257">
        <ele>34.5</ele>
        <time>2025-01-16T10:38:06Z</time>
      </trkpt>
      <trkpt lat="47.56166" lon="-2.29257">
        <ele>34.5</ele>
        <time>2025-01-16T10:38:07Z</time>
      </trkpt>
      <trkpt lat="47.56165" lon="-2.29256">
        <ele>34.4</ele>
        <time>2025-01-16T10:38:08Z</time>
      </trkpt>
      <trkpt lat="47.56164" lon="-2.29256">
        <ele>34.4</ele>
        <time>2025-01-16T10:38:09Z</time>
      </trkpt>
      <trkpt lat="47.56162" lon="-2.29256">
        <ele>34.3</ele>
        <time>2025-01-16T10:38:10Z</time>
      </trkpt>
      <trkpt lat="47.56161" lon="-2.29255">
        <ele>34.2</ele>
        <time>2025-01-16T10:38:11Z</time>
      </trkpt>
      <trkpt lat="47.56159" lon="-2.29255">
        <ele>34.1</ele>
        <time>2025-01-16T10:38:12Z</time>
      </trkpt>
      <trkpt lat="47.56158" lon="-2.29255">
        <ele>34.1</ele>
        <time>2025-01-16T10:38:13Z</time>
      </trkpt>
      <trkpt lat="47.56157" lon="-2.29255">
        <ele>34.1</ele>
        <time>2025-01-16T10:38:14Z</time>
      </trkpt>
      <trkpt lat="47.56157" lon="-2.29254">
        <ele>34</ele>
        <time>2025-01-16T10:38:15Z</time>
      </trkpt>
      <trkpt lat="47.56156" lon="-2.29253">
        <ele>33.9</ele>
        <time>2025-01-16T10:38:16Z</time>
      </trkpt>
      <trkpt lat="47.56155" lon="-2.29252">
        <ele>33.8</ele>
        <time>2025-01-16T10:38:17Z</time>
      </trkpt>
      <trkpt lat="47.56154" lon="-2.29251">
        <ele>33.6</ele>
        <time>2025-01-16T10:38:18Z</time>
      </trkpt>
      <trkpt lat="47.56152" lon="-2.2925">
        <ele>33.5</ele>
        <time>2025-01-16T10:38:19Z</time>
      </trkpt>
      <trkpt lat="47.56151" lon="-2.29249">
        <ele>33.3</ele>
        <time>2025-01-16T10:38:20Z</time>
      </trkpt>
      <trkpt lat="47.5615" lon="-2.29249">
        <ele>33.3</ele>
        <time>2025-01-16T10:38:21Z</time>
      </trkpt>
      <trkpt lat="47.56149" lon="-2.29248">
        <ele>33.1</ele>
        <time>2025-01-16T10:38:22Z</time>
      </trkpt>
      <trkpt lat="47.56148" lon="-2.29247">
        <ele>32.9</ele>
        <time>2025-01-16T10:38:23Z</time>
      </trkpt>
      <trkpt lat="47.56147" lon="-2.29246">
        <ele>32.7</ele>
        <time>2025-01-16T10:38:24Z</time>
      </trkpt>
      <trkpt lat="47.56145" lon="-2.29245">
        <ele>32.5</ele>
        <time>2025-01-16T10:38:25Z</time>
      </trkpt>
      <trkpt lat="47.56144" lon="-2.29244">
        <ele>32.3</ele>
        <time>2025-01-16T10:38:26Z</time>
      </trkpt>
      <trkpt lat="47.56143" lon="-2.29244">
        <ele>32.3</ele>
        <time>2025-01-16T10:38:27Z</time>
      </trkpt>
      <trkpt lat="47.56142" lon="-2.29243">
        <ele>32.1</ele>
        <time>2025-01-16T10:38:28Z</time>
      </trkpt>
      <trkpt lat="47.5614" lon="-2.29242">
        <ele>31.9</ele>
        <time>2025-01-16T10:38:29Z</time>
      </trkpt>
      <trkpt lat="47.56139" lon="-2.29242">
        <ele>31.9</ele>
        <time>2025-01-16T10:38:30Z</time>
      </trkpt>
      <trkpt lat="47.56137" lon="-2.29241">
        <ele>31.7</ele>
        <time>2025-01-16T10:38:31Z</time>
      </trkpt>
      <trkpt lat="47.56136" lon="-2.2924">
        <ele>31.5</ele>
        <time>2025-01-16T10:38:32Z</time>
      </trkpt>
      <trkpt lat="47.56135" lon="-2.29239">
        <ele>31.4</ele>
        <time>2025-01-16T10:38:33Z</time>
      </trkpt>
      <trkpt lat="47.56134" lon="-2.29239">
        <ele>31.4</ele>
        <time>2025-01-16T10:38:34Z</time>
      </trkpt>
      <trkpt lat="47.56134" lon="-2.29239">
        <ele>31.4</ele>
        <time>2025-01-16T10:38:35Z</time>
      </trkpt>
      <trkpt lat="47.56134" lon="-2.29239">
        <ele>31.4</ele>
        <time>2025-01-16T10:38:36Z</time>
      </trkpt>
      <trkpt lat="47.56133" lon="-2.29239">
        <ele>31.4</ele>
        <time>2025-01-16T10:38:37Z</time>
      </trkpt>
      <trkpt lat="47.56131" lon="-2.29238">
        <ele>31.2</ele>
        <time>2025-01-16T10:38:38Z</time>
      </trkpt>
      <trkpt lat="47.5613" lon="-2.29238">
        <ele>31.2</ele>
        <time>2025-01-16T10:38:39Z</time>
      </trkpt>
      <trkpt lat="47.56128" lon="-2.29238">
        <ele>31.2</ele>
        <time>2025-01-16T10:38:40Z</time>
      </trkpt>
      <trkpt lat="47.56127" lon="-2.29238">
        <ele>31.2</ele>
        <time>2025-01-16T10:38:41Z</time>
      </trkpt>
      <trkpt lat="47.56126" lon="-2.29238">
        <ele>31.2</ele>
        <time>2025-01-16T10:38:42Z</time>
      </trkpt>
      <trkpt lat="47.56125" lon="-2.29237">
        <ele>31.1</ele>
        <time>2025-01-16T10:38:43Z</time>
      </trkpt>
      <trkpt lat="47.56124" lon="-2.29236">
        <ele>31</ele>
        <time>2025-01-16T10:38:44Z</time>
      </trkpt>
      <trkpt lat="47.56123" lon="-2.29236">
        <ele>31</ele>
        <time>2025-01-16T10:38:45Z</time>
      </trkpt>
      <trkpt lat="47.56122" lon="-2.29236">
        <ele>31</ele>
        <time>2025-01-16T10:38:46Z</time>
      </trkpt>
      <trkpt lat="47.56121" lon="-2.29235">
        <ele>30.9</ele>
        <time>2025-01-16T10:38:47Z</time>
      </trkpt>
      <trkpt lat="47.56119" lon="-2.29234">
        <ele>30.8</ele>
        <time>2025-01-16T10:38:48Z</time>
      </trkpt>
      <trkpt lat="47.56118" lon="-2.29234">
        <ele>30.8</ele>
        <time>2025-01-16T10:38:49Z</time>
      </trkpt>
      <trkpt lat="47.56117" lon="-2.29234">
        <ele>30.8</ele>
        <time>2025-01-16T10:38:50Z</time>
      </trkpt>
      <trkpt lat="47.56116" lon="-2.29233">
        <ele>30.7</ele>
        <time>2025-01-16T10:38:51Z</time>
      </trkpt>
      <trkpt lat="47.56115" lon="-2.29233">
        <ele>30.7</ele>
        <time>2025-01-16T10:38:52Z</time>
      </trkpt>
      <trkpt lat="47.56114" lon="-2.29232">
        <ele>30.7</ele>
        <time>2025-01-16T10:38:53Z</time>
      </trkpt>
      <trkpt lat="47.56113" lon="-2.29231">
        <ele>30.6</ele>
        <time>2025-01-16T10:38:54Z</time>
      </trkpt>
      <trkpt lat="47.56111" lon="-2.2923">
        <ele>30.6</ele>
        <time>2025-01-16T10:38:55Z</time>
      </trkpt>
      <trkpt lat="47.5611" lon="-2.2923">
        <ele>30.5</ele>
        <time>2025-01-16T10:38:56Z</time>
      </trkpt>
      <trkpt lat="47.56108" lon="-2.2923">
        <ele>30.4</ele>
        <time>2025-01-16T10:38:57Z</time>
      </trkpt>
      <trkpt lat="47.56107" lon="-2.29231">
        <ele>30.4</ele>
        <time>2025-01-16T10:38:58Z</time>
      </trkpt>
      <trkpt lat="47.56106" lon="-2.29231">
        <ele>30.4</ele>
        <time>2025-01-16T10:38:59Z</time>
      </trkpt>
      <trkpt lat="47.56105" lon="-2.29231">
        <ele>30.3</ele>
        <time>2025-01-16T10:39:00Z</time>
      </trkpt>
      <trkpt lat="47.56104" lon="-2.29232">
        <ele>30.4</ele>
        <time>2025-01-16T10:39:01Z</time>
      </trkpt>
      <trkpt lat="47.56102" lon="-2.29233">
        <ele>30.3</ele>
        <time>2025-01-16T10:39:02Z</time>
      </trkpt>
      <trkpt lat="47.56102" lon="-2.29233">
        <ele>30.3</ele>
        <time>2025-01-16T10:39:03Z</time>
      </trkpt>
      <trkpt lat="47.56101" lon="-2.29234">
        <ele>30.3</ele>
        <time>2025-01-16T10:39:04Z</time>
      </trkpt>
      <trkpt lat="47.561" lon="-2.29235">
        <ele>30.3</ele>
        <time>2025-01-16T10:39:05Z</time>
      </trkpt>
      <trkpt lat="47.56098" lon="-2.29237">
        <ele>30.3</ele>
        <time>2025-01-16T10:39:06Z</time>
      </trkpt>
      <trkpt lat="47.56098" lon="-2.29238">
        <ele>30.4</ele>
        <time>2025-01-16T10:39:07Z</time>
      </trkpt>
      <trkpt lat="47.56097" lon="-2.2924">
        <ele>30.4</ele>
        <time>2025-01-16T10:39:08Z</time>
      </trkpt>
      <trkpt lat="47.56097" lon="-2.29241">
        <ele>30.5</ele>
        <time>2025-01-16T10:39:09Z</time>
      </trkpt>
      <trkpt lat="47.56097" lon="-2.29242">
        <ele>30.6</ele>
        <time>2025-01-16T10:39:10Z</time>
      </trkpt>
      <trkpt lat="47.56097" lon="-2.29244">
        <ele>30.7</ele>
        <time>2025-01-16T10:39:11Z</time>
      </trkpt>
      <trkpt lat="47.56096" lon="-2.29245">
        <ele>30.6</ele>
        <time>2025-01-16T10:39:12Z</time>
      </trkpt>
      <trkpt lat="47.56096" lon="-2.29246">
        <ele>30.7</ele>
        <time>2025-01-16T10:39:13Z</time>
      </trkpt>
      <trkpt lat="47.56095" lon="-2.29247">
        <ele>30.7</ele>
        <time>2025-01-16T10:39:14Z</time>
      </trkpt>
      <trkpt lat="47.56094" lon="-2.29247">
        <ele>30.6</ele>
        <time>2025-01-16T10:39:15Z</time>
      </trkpt>
      <trkpt lat="47.56094" lon="-2.29246">
        <ele>30.6</ele>
        <time>2025-01-16T10:39:16Z</time>
      </trkpt>
      <trkpt lat="47.56094" lon="-2.29246">
        <ele>30.6</ele>
        <time>2025-01-16T10:39:17Z</time>
      </trkpt>
      <trkpt lat="47.56094" lon="-2.29246">
        <ele>30.6</ele>
        <time>2025-01-16T10:39:18Z</time>
      </trkpt>
      <trkpt lat="47.56094" lon="-2.29246">
        <ele>30.6</ele>
        <time>2025-01-16T10:39:19Z</time>
      </trkpt>
      <trkpt lat="47.56094" lon="-2.29246">
        <ele>30.6</ele>
        <time>2025-01-16T10:39:20Z</time>
      </trkpt>
      <trkpt lat="47.56094" lon="-2.29248">
        <ele>30.7</ele>
        <time>2025-01-16T10:39:21Z</time>
      </trkpt>
      <trkpt lat="47.56093" lon="-2.2925">
        <ele>30.7</ele>
        <time>2025-01-16T10:39:22Z</time>
      </trkpt>
      <trkpt lat="47.56093" lon="-2.29252">
        <ele>30.8</ele>
        <time>2025-01-16T10:39:23Z</time>
      </trkpt>
      <trkpt lat="47.56092" lon="-2.29253">
        <ele>30.8</ele>
        <time>2025-01-16T10:39:24Z</time>
      </trkpt>
      <trkpt lat="47.56092" lon="-2.29255">
        <ele>30.9</ele>
        <time>2025-01-16T10:39:25Z</time>
      </trkpt>
      <trkpt lat="47.56091" lon="-2.29257">
        <ele>30.9</ele>
        <time>2025-01-16T10:39:26Z</time>
      </trkpt>
      <trkpt lat="47.56091" lon="-2.29258">
        <ele>31</ele>
        <time>2025-01-16T10:39:27Z</time>
      </trkpt>
      <trkpt lat="47.5609" lon="-2.29259">
        <ele>31</ele>
        <time>2025-01-16T10:39:28Z</time>
      </trkpt>
      <trkpt lat="47.5609" lon="-2.29261">
        <ele>31.1</ele>
        <time>2025-01-16T10:39:29Z</time>
      </trkpt>
      <trkpt lat="47.56089" lon="-2.29263">
        <ele>31.1</ele>
        <time>2025-01-16T10:39:30Z</time>
      </trkpt>
      <trkpt lat="47.56089" lon="-2.29264">
        <ele>31.1</ele>
        <time>2025-01-16T10:39:31Z</time>
      </trkpt>
      <trkpt lat="47.56088" lon="-2.29265">
        <ele>31.1</ele>
        <time>2025-01-16T10:39:32Z</time>
      </trkpt>
      <trkpt lat="47.56088" lon="-2.29267">
        <ele>31.2</ele>
        <time>2025-01-16T10:39:33Z</time>
      </trkpt>
      <trkpt lat="47.56087" lon="-2.29268">
        <ele>31.1</ele>
        <time>2025-01-16T10:39:34Z</time>
      </trkpt>
      <trkpt lat="47.56087" lon="-2.29269">
        <ele>31.1</ele>
        <time>2025-01-16T10:39:35Z</time>
      </trkpt>
      <trkpt lat="47.56086" lon="-2.2927">
        <ele>31.1</ele>
        <time>2025-01-16T10:39:36Z</time>
      </trkpt>
      <trkpt lat="47.56085" lon="-2.29271">
        <ele>31</ele>
        <time>2025-01-16T10:39:37Z</time>
      </trkpt>
      <trkpt lat="47.56085" lon="-2.29273">
        <ele>31</ele>
        <time>2025-01-16T10:39:38Z</time>
      </trkpt>
      <trkpt lat="47.56084" lon="-2.29274">
        <ele>31</ele>
        <time>2025-01-16T10:39:39Z</time>
      </trkpt>
      <trkpt lat="47.56084" lon="-2.29276">
        <ele>31</ele>
        <time>2025-01-16T10:39:40Z</time>
      </trkpt>
      <trkpt lat="47.56084" lon="-2.29279">
        <ele>31.3</ele>
        <time>2025-01-16T10:39:41Z</time>
      </trkpt>
      <trkpt lat="47.56083" lon="-2.2928">
        <ele>31.2</ele>
        <time>2025-01-16T10:39:42Z</time>
      </trkpt>
      <trkpt lat="47.56083" lon="-2.29282">
        <ele>31.5</ele>
        <time>2025-01-16T10:39:43Z</time>
      </trkpt>
      <trkpt lat="47.56083" lon="-2.29284">
        <ele>31.8</ele>
        <time>2025-01-16T10:39:44Z</time>
      </trkpt>
      <trkpt lat="47.56082" lon="-2.29285">
        <ele>31.6</ele>
        <time>2025-01-16T10:39:45Z</time>
      </trkpt>
      <trkpt lat="47.56082" lon="-2.29287">
        <ele>31.9</ele>
        <time>2025-01-16T10:39:46Z</time>
      </trkpt>
      <trkpt lat="47.56081" lon="-2.29288">
        <ele>31.8</ele>
        <time>2025-01-16T10:39:47Z</time>
      </trkpt>
      <trkpt lat="47.56081" lon="-2.29288">
        <ele>31.8</ele>
        <time>2025-01-16T10:39:48Z</time>
      </trkpt>
      <trkpt lat="47.5608" lon="-2.29289">
        <ele>31.6</ele>
        <time>2025-01-16T10:39:49Z</time>
      </trkpt>
      <trkpt lat="47.5608" lon="-2.29289">
        <ele>31.6</ele>
        <time>2025-01-16T10:39:50Z</time>
      </trkpt>
      <trkpt lat="47.56079" lon="-2.2929">
        <ele>31.5</ele>
        <time>2025-01-16T10:39:51Z</time>
      </trkpt>
      <trkpt lat="47.56079" lon="-2.2929">
        <ele>31.5</ele>
        <time>2025-01-16T10:39:52Z</time>
      </trkpt>
      <trkpt lat="47.56079" lon="-2.2929">
        <ele>31.5</ele>
        <time>2025-01-16T10:39:53Z</time>
      </trkpt>
      <trkpt lat="47.56078" lon="-2.29292">
        <ele>31.5</ele>
        <time>2025-01-16T10:39:54Z</time>
      </trkpt>
      <trkpt lat="47.56078" lon="-2.29294">
        <ele>31.8</ele>
        <time>2025-01-16T10:39:55Z</time>
      </trkpt>
      <trkpt lat="47.56078" lon="-2.29296">
        <ele>32.1</ele>
        <time>2025-01-16T10:39:56Z</time>
      </trkpt>
      <trkpt lat="47.56078" lon="-2.29297">
        <ele>32.3</ele>
        <time>2025-01-16T10:39:57Z</time>
      </trkpt>
      <trkpt lat="47.56077" lon="-2.29299">
        <ele>32.4</ele>
        <time>2025-01-16T10:39:58Z</time>
      </trkpt>
      <trkpt lat="47.56077" lon="-2.293">
        <ele>32.5</ele>
        <time>2025-01-16T10:39:59Z</time>
      </trkpt>
      <trkpt lat="47.56077" lon="-2.29303">
        <ele>33</ele>
        <time>2025-01-16T10:40:00Z</time>
      </trkpt>
      <trkpt lat="47.56077" lon="-2.29305">
        <ele>33.3</ele>
        <time>2025-01-16T10:40:01Z</time>
      </trkpt>
      <trkpt lat="47.56077" lon="-2.29307">
        <ele>33.6</ele>
        <time>2025-01-16T10:40:02Z</time>
      </trkpt>
      <trkpt lat="47.56076" lon="-2.29309">
        <ele>33.5</ele>
        <time>2025-01-16T10:40:03Z</time>
      </trkpt>
      <trkpt lat="47.56076" lon="-2.29311">
        <ele>33.8</ele>
        <time>2025-01-16T10:40:04Z</time>
      </trkpt>
      <trkpt lat="47.56076" lon="-2.29313">
        <ele>34</ele>
        <time>2025-01-16T10:40:05Z</time>
      </trkpt>
      <trkpt lat="47.56075" lon="-2.29314">
        <ele>33.8</ele>
        <time>2025-01-16T10:40:06Z</time>
      </trkpt>
      <trkpt lat="47.56075" lon="-2.29315">
        <ele>34</ele>
        <time>2025-01-16T10:40:07Z</time>
      </trkpt>
      <trkpt lat="47.56074" lon="-2.29316">
        <ele>33.8</ele>
        <time>2025-01-16T10:40:08Z</time>
      </trkpt>
      <trkpt lat="47.56074" lon="-2.29316">
        <ele>33.8</ele>
        <time>2025-01-16T10:40:09Z</time>
      </trkpt>
      <trkpt lat="47.56074" lon="-2.29316">
        <ele>33.8</ele>
        <time>2025-01-16T10:40:10Z</time>
      </trkpt>
      <trkpt lat="47.56073" lon="-2.29317">
        <ele>33.6</ele>
        <time>2025-01-16T10:40:11Z</time>
      </trkpt>
      <trkpt lat="47.56072" lon="-2.29319">
        <ele>33.5</ele>
        <time>2025-01-16T10:40:12Z</time>
      </trkpt>
      <trkpt lat="47.56072" lon="-2.29321">
        <ele>33.7</ele>
        <time>2025-01-16T10:40:13Z</time>
      </trkpt>
      <trkpt lat="47.56072" lon="-2.29323">
        <ele>33.9</ele>
        <time>2025-01-16T10:40:14Z</time>
      </trkpt>
      <trkpt lat="47.56071" lon="-2.29325">
        <ele>33.8</ele>
        <time>2025-01-16T10:40:15Z</time>
      </trkpt>
      <trkpt lat="47.56071" lon="-2.29327">
        <ele>34</ele>
        <time>2025-01-16T10:40:16Z</time>
      </trkpt>
      <trkpt lat="47.56071" lon="-2.29329">
        <ele>34.1</ele>
        <time>2025-01-16T10:40:17Z</time>
      </trkpt>
      <trkpt lat="47.5607" lon="-2.29331">
        <ele>34</ele>
        <time>2025-01-16T10:40:18Z</time>
      </trkpt>
      <trkpt lat="47.5607" lon="-2.29333">
        <ele>34.2</ele>
        <time>2025-01-16T10:40:19Z</time>
      </trkpt>
      <trkpt lat="47.5607" lon="-2.29335">
        <ele>34.3</ele>
        <time>2025-01-16T10:40:20Z</time>
      </trkpt>
      <trkpt lat="47.56069" lon="-2.29336">
        <ele>34</ele>
        <time>2025-01-16T10:40:21Z</time>
      </trkpt>
      <trkpt lat="47.56068" lon="-2.29338">
        <ele>33.7</ele>
        <time>2025-01-16T10:40:22Z</time>
      </trkpt>
      <trkpt lat="47.56068" lon="-2.2934">
        <ele>33.8</ele>
        <time>2025-01-16T10:40:23Z</time>
      </trkpt>
      <trkpt lat="47.56068" lon="-2.29342">
        <ele>33.9</ele>
        <time>2025-01-16T10:40:24Z</time>
      </trkpt>
      <trkpt lat="47.56068" lon="-2.29343">
        <ele>34</ele>
        <time>2025-01-16T10:40:25Z</time>
      </trkpt>
      <trkpt lat="47.56067" lon="-2.29345">
        <ele>33.7</ele>
        <time>2025-01-16T10:40:26Z</time>
      </trkpt>
      <trkpt lat="47.56067" lon="-2.29346">
        <ele>33.8</ele>
        <time>2025-01-16T10:40:27Z</time>
      </trkpt>
      <trkpt lat="47.56066" lon="-2.29348">
        <ele>33.5</ele>
        <time>2025-01-16T10:40:28Z</time>
      </trkpt>
      <trkpt lat="47.56065" lon="-2.2935">
        <ele>33.2</ele>
        <time>2025-01-16T10:40:29Z</time>
      </trkpt>
      <trkpt lat="47.56065" lon="-2.29352">
        <ele>33.3</ele>
        <time>2025-01-16T10:40:30Z</time>
      </trkpt>
      <trkpt lat="47.56065" lon="-2.29354">
        <ele>33.4</ele>
        <time>2025-01-16T10:40:31Z</time>
      </trkpt>
      <trkpt lat="47.56065" lon="-2.29355">
        <ele>33.4</ele>
        <time>2025-01-16T10:40:32Z</time>
      </trkpt>
      <trkpt lat="47.56065" lon="-2.29357">
        <ele>33.5</ele>
        <time>2025-01-16T10:40:33Z</time>
      </trkpt>
      <trkpt lat="47.56065" lon="-2.2936">
        <ele>33.7</ele>
        <time>2025-01-16T10:40:34Z</time>
      </trkpt>
      <trkpt lat="47.56065" lon="-2.29362">
        <ele>33.8</ele>
        <time>2025-01-16T10:40:35Z</time>
      </trkpt>
      <trkpt lat="47.56065" lon="-2.29364">
        <ele>33.9</ele>
        <time>2025-01-16T10:40:36Z</time>
      </trkpt>
      <trkpt lat="47.56064" lon="-2.29366">
        <ele>33.6</ele>
        <time>2025-01-16T10:40:37Z</time>
      </trkpt>
      <trkpt lat="47.56064" lon="-2.29368">
        <ele>33.8</ele>
        <time>2025-01-16T10:40:38Z</time>
      </trkpt>
      <trkpt lat="47.56064" lon="-2.29371">
        <ele>33.9</ele>
        <time>2025-01-16T10:40:39Z</time>
      </trkpt>
      <trkpt lat="47.56064" lon="-2.29373">
        <ele>34.1</ele>
        <time>2025-01-16T10:40:40Z</time>
      </trkpt>
      <trkpt lat="47.56063" lon="-2.29375">
        <ele>33.8</ele>
        <time>2025-01-16T10:40:41Z</time>
      </trkpt>
      <trkpt lat="47.56063" lon="-2.29376">
        <ele>33.9</ele>
        <time>2025-01-16T10:40:42Z</time>
      </trkpt>
      <trkpt lat="47.56062" lon="-2.29377">
        <ele>33.6</ele>
        <time>2025-01-16T10:40:43Z</time>
      </trkpt>
      <trkpt lat="47.56062" lon="-2.29379">
        <ele>33.7</ele>
        <time>2025-01-16T10:40:44Z</time>
      </trkpt>
      <trkpt lat="47.56061" lon="-2.2938">
        <ele>33.4</ele>
        <time>2025-01-16T10:40:45Z</time>
      </trkpt>
      <trkpt lat="47.56061" lon="-2.29382">
        <ele>33.5</ele>
        <time>2025-01-16T10:40:46Z</time>
      </trkpt>
      <trkpt lat="47.5606" lon="-2.29383">
        <ele>33.2</ele>
        <time>2025-01-16T10:40:47Z</time>
      </trkpt>
      <trkpt lat="47.5606" lon="-2.29384">
        <ele>33.3</ele>
        <time>2025-01-16T10:40:48Z</time>
      </trkpt>
      <trkpt lat="47.5606" lon="-2.29385">
        <ele>33.3</ele>
        <time>2025-01-16T10:40:49Z</time>
      </trkpt>
      <trkpt lat="47.56059" lon="-2.29386">
        <ele>33</ele>
        <time>2025-01-16T10:40:50Z</time>
      </trkpt>
      <trkpt lat="47.56059" lon="-2.29388">
        <ele>33.2</ele>
        <time>2025-01-16T10:40:51Z</time>
      </trkpt>
      <trkpt lat="47.56059" lon="-2.29389">
        <ele>33.2</ele>
        <time>2025-01-16T10:40:52Z</time>
      </trkpt>
      <trkpt lat="47.56059" lon="-2.2939">
        <ele>33.3</ele>
        <time>2025-01-16T10:40:53Z</time>
      </trkpt>
      <trkpt lat="47.56058" lon="-2.29391">
        <ele>33</ele>
        <time>2025-01-16T10:40:54Z</time>
      </trkpt>
      <trkpt lat="47.56058" lon="-2.29392">
        <ele>33.1</ele>
        <time>2025-01-16T10:40:55Z</time>
      </trkpt>
      <trkpt lat="47.56058" lon="-2.29393">
        <ele>33.2</ele>
        <time>2025-01-16T10:40:56Z</time>
      </trkpt>
      <trkpt lat="47.56058" lon="-2.29394">
        <ele>33.2</ele>
        <time>2025-01-16T10:40:57Z</time>
      </trkpt>
      <trkpt lat="47.56057" lon="-2.29394">
        <ele>32.9</ele>
        <time>2025-01-16T10:40:58Z</time>
      </trkpt>
      <trkpt lat="47.56057" lon="-2.29395">
        <ele>33</ele>
        <time>2025-01-16T10:40:59Z</time>
      </trkpt>
      <trkpt lat="47.56057" lon="-2.29395">
        <ele>33</ele>
        <time>2025-01-16T10:41:00Z</time>
      </trkpt>
      <trkpt lat="47.56057" lon="-2.29397">
        <ele>33.1</ele>
        <time>2025-01-16T10:41:01Z</time>
      </trkpt>
      <trkpt lat="47.56057" lon="-2.29399">
        <ele>33.2</ele>
        <time>2025-01-16T10:41:02Z</time>
      </trkpt>
      <trkpt lat="47.56056" lon="-2.294">
        <ele>33</ele>
        <time>2025-01-16T10:41:03Z</time>
      </trkpt>
      <trkpt lat="47.56056" lon="-2.29402">
        <ele>33.1</ele>
        <time>2025-01-16T10:41:04Z</time>
      </trkpt>
      <trkpt lat="47.56056" lon="-2.29403">
        <ele>33.2</ele>
        <time>2025-01-16T10:41:05Z</time>
      </trkpt>
      <trkpt lat="47.56056" lon="-2.29405">
        <ele>33.3</ele>
        <time>2025-01-16T10:41:06Z</time>
      </trkpt>
      <trkpt lat="47.56056" lon="-2.29406">
        <ele>33.4</ele>
        <time>2025-01-16T10:41:07Z</time>
      </trkpt>
      <trkpt lat="47.56056" lon="-2.29408">
        <ele>33.5</ele>
        <time>2025-01-16T10:41:08Z</time>
      </trkpt>
      <trkpt lat="47.56056" lon="-2.29409">
        <ele>33.6</ele>
        <time>2025-01-16T10:41:09Z</time>
      </trkpt>
      <trkpt lat="47.56056" lon="-2.29411">
        <ele>33.8</ele>
        <time>2025-01-16T10:41:10Z</time>
      </trkpt>
      <trkpt lat="47.56055" lon="-2.29412">
        <ele>33.4</ele>
        <time>2025-01-16T10:41:11Z</time>
      </trkpt>
      <trkpt lat="47.56055" lon="-2.29414">
        <ele>33.6</ele>
        <time>2025-01-16T10:41:12Z</time>
      </trkpt>
      <trkpt lat="47.56054" lon="-2.29415">
        <ele>33.2</ele>
        <time>2025-01-16T10:41:13Z</time>
      </trkpt>
      <trkpt lat="47.56054" lon="-2.29416">
        <ele>33.3</ele>
        <time>2025-01-16T10:41:14Z</time>
      </trkpt>
      <trkpt lat="47.56054" lon="-2.29418">
        <ele>33.5</ele>
        <time>2025-01-16T10:41:15Z</time>
      </trkpt>
      <trkpt lat="47.56053" lon="-2.29419">
        <ele>33.2</ele>
        <time>2025-01-16T10:41:16Z</time>
      </trkpt>
      <trkpt lat="47.56053" lon="-2.29421">
        <ele>33.5</ele>
        <time>2025-01-16T10:41:17Z</time>
      </trkpt>
      <trkpt lat="47.56054" lon="-2.29423">
        <ele>34.3</ele>
        <time>2025-01-16T10:41:18Z</time>
      </trkpt>
      <trkpt lat="47.56054" lon="-2.29424">
        <ele>34.4</ele>
        <time>2025-01-16T10:41:19Z</time>
      </trkpt>
      <trkpt lat="47.56053" lon="-2.29426">
        <ele>34.3</ele>
        <time>2025-01-16T10:41:20Z</time>
      </trkpt>
      <trkpt lat="47.56053" lon="-2.29428">
        <ele>34.6</ele>
        <time>2025-01-16T10:41:21Z</time>
      </trkpt>
      <trkpt lat="47.56054" lon="-2.2943">
        <ele>35.3</ele>
        <time>2025-01-16T10:41:22Z</time>
      </trkpt>
      <trkpt lat="47.56054" lon="-2.29432">
        <ele>35.6</ele>
        <time>2025-01-16T10:41:23Z</time>
      </trkpt>
      <trkpt lat="47.56054" lon="-2.29433">
        <ele>35.7</ele>
        <time>2025-01-16T10:41:24Z</time>
      </trkpt>
      <trkpt lat="47.56055" lon="-2.29434">
        <ele>36.3</ele>
        <time>2025-01-16T10:41:25Z</time>
      </trkpt>
      <trkpt lat="47.56054" lon="-2.29435">
        <ele>36</ele>
        <time>2025-01-16T10:41:26Z</time>
      </trkpt>
      <trkpt lat="47.56054" lon="-2.29437">
        <ele>36.3</ele>
        <time>2025-01-16T10:41:27Z</time>
      </trkpt>
      <trkpt lat="47.56053" lon="-2.29439">
        <ele>36.3</ele>
        <time>2025-01-16T10:41:28Z</time>
      </trkpt>
      <trkpt lat="47.56053" lon="-2.2944">
        <ele>36.4</ele>
        <time>2025-01-16T10:41:29Z</time>
      </trkpt>
      <trkpt lat="47.56054" lon="-2.29441">
        <ele>36.9</ele>
        <time>2025-01-16T10:41:30Z</time>
      </trkpt>
      <trkpt lat="47.56054" lon="-2.29442">
        <ele>37.1</ele>
        <time>2025-01-16T10:41:31Z</time>
      </trkpt>
      <trkpt lat="47.56054" lon="-2.29444">
        <ele>37.4</ele>
        <time>2025-01-16T10:41:32Z</time>
      </trkpt>
      <trkpt lat="47.56054" lon="-2.29445">
        <ele>37.6</ele>
        <time>2025-01-16T10:41:33Z</time>
      </trkpt>
      <trkpt lat="47.56054" lon="-2.29447">
        <ele>38</ele>
        <time>2025-01-16T10:41:34Z</time>
      </trkpt>
      <trkpt lat="47.56053" lon="-2.29448">
        <ele>37.8</ele>
        <time>2025-01-16T10:41:35Z</time>
      </trkpt>
      <trkpt lat="47.56053" lon="-2.29449">
        <ele>38</ele>
        <time>2025-01-16T10:41:36Z</time>
      </trkpt>
      <trkpt lat="47.56053" lon="-2.2945">
        <ele>38.3</ele>
        <time>2025-01-16T10:41:37Z</time>
      </trkpt>
      <trkpt lat="47.56052" lon="-2.29451">
        <ele>38.1</ele>
        <time>2025-01-16T10:41:38Z</time>
      </trkpt>
      <trkpt lat="47.56052" lon="-2.29451">
        <ele>38.1</ele>
        <time>2025-01-16T10:41:39Z</time>
      </trkpt>
      <trkpt lat="47.56052" lon="-2.29452">
        <ele>38.3</ele>
        <time>2025-01-16T10:41:40Z</time>
      </trkpt>
      <trkpt lat="47.56052" lon="-2.29452">
        <ele>38.3</ele>
        <time>2025-01-16T10:41:41Z</time>
      </trkpt>
      <trkpt lat="47.56052" lon="-2.29453">
        <ele>38.5</ele>
        <time>2025-01-16T10:41:42Z</time>
      </trkpt>
      <trkpt lat="47.56052" lon="-2.29455">
        <ele>39</ele>
        <time>2025-01-16T10:41:43Z</time>
      </trkpt>
      <trkpt lat="47.56052" lon="-2.29456">
        <ele>39.2</ele>
        <time>2025-01-16T10:41:44Z</time>
      </trkpt>
      <trkpt lat="47.56052" lon="-2.29457">
        <ele>39.4</ele>
        <time>2025-01-16T10:41:45Z</time>
      </trkpt>
      <trkpt lat="47.56052" lon="-2.29458">
        <ele>39.6</ele>
        <time>2025-01-16T10:41:46Z</time>
      </trkpt>
      <trkpt lat="47.56052" lon="-2.2946">
        <ele>40</ele>
        <time>2025-01-16T10:41:47Z</time>
      </trkpt>
      <trkpt lat="47.56052" lon="-2.29462">
        <ele>40.4</ele>
        <time>2025-01-16T10:41:48Z</time>
      </trkpt>
      <trkpt lat="47.56053" lon="-2.29462">
        <ele>40.8</ele>
        <time>2025-01-16T10:41:49Z</time>
      </trkpt>
      <trkpt lat="47.56053" lon="-2.29463">
        <ele>41</ele>
        <time>2025-01-16T10:41:50Z</time>
      </trkpt>
      <trkpt lat="47.56054" lon="-2.29464">
        <ele>41.6</ele>
        <time>2025-01-16T10:41:51Z</time>
      </trkpt>
      <trkpt lat="47.56055" lon="-2.29466">
        <ele>42.4</ele>
        <time>2025-01-16T10:41:52Z</time>
      </trkpt>
      <trkpt lat="47.56055" lon="-2.29467">
        <ele>42.7</ele>
        <time>2025-01-16T10:41:53Z</time>
      </trkpt>
      <trkpt lat="47.56056" lon="-2.29467">
        <ele>42.9</ele>
        <time>2025-01-16T10:41:54Z</time>
      </trkpt>
      <trkpt lat="47.56056" lon="-2.29468">
        <ele>43.2</ele>
        <time>2025-01-16T10:41:55Z</time>
      </trkpt>
      <trkpt lat="47.56056" lon="-2.29469">
        <ele>43.4</ele>
        <time>2025-01-16T10:41:56Z</time>
      </trkpt>
      <trkpt lat="47.56056" lon="-2.2947">
        <ele>43.6</ele>
        <time>2025-01-16T10:41:57Z</time>
      </trkpt>
      <trkpt lat="47.56057" lon="-2.2947">
        <ele>43.7</ele>
        <time>2025-01-16T10:41:58Z</time>
      </trkpt>
      <trkpt lat="47.56057" lon="-2.2947">
        <ele>43.7</ele>
        <time>2025-01-16T10:41:59Z</time>
      </trkpt>
      <trkpt lat="47.56057" lon="-2.2947">
        <ele>43.7</ele>
        <time>2025-01-16T10:42:00Z</time>
      </trkpt>
      <trkpt lat="47.56057" lon="-2.29471">
        <ele>44</ele>
        <time>2025-01-16T10:42:01Z</time>
      </trkpt>
      <trkpt lat="47.56057" lon="-2.29471">
        <ele>44</ele>
        <time>2025-01-16T10:42:02Z</time>
      </trkpt>
      <trkpt lat="47.56057" lon="-2.29471">
        <ele>44</ele>
        <time>2025-01-16T10:42:03Z</time>
      </trkpt>
      <trkpt lat="47.56057" lon="-2.29472">
        <ele>44.2</ele>
        <time>2025-01-16T10:42:04Z</time>
      </trkpt>
      <trkpt lat="47.56058" lon="-2.29473">
        <ele>44.4</ele>
        <time>2025-01-16T10:42:05Z</time>
      </trkpt>
      <trkpt lat="47.56058" lon="-2.29473">
        <ele>44.4</ele>
        <time>2025-01-16T10:42:06Z</time>
      </trkpt>
      <trkpt lat="47.56057" lon="-2.29473">
        <ele>44.3</ele>
        <time>2025-01-16T10:42:07Z</time>
      </trkpt>
      <trkpt lat="47.56057" lon="-2.29473">
        <ele>44.3</ele>
        <time>2025-01-16T10:42:08Z</time>
      </trkpt>
      <trkpt lat="47.56057" lon="-2.29474">
        <ele>44.4</ele>
        <time>2025-01-16T10:42:09Z</time>
      </trkpt>
      <trkpt lat="47.56057" lon="-2.29474">
        <ele>44.4</ele>
        <time>2025-01-16T10:42:10Z</time>
      </trkpt>
      <trkpt lat="47.56057" lon="-2.29474">
        <ele>44.4</ele>
        <time>2025-01-16T10:42:11Z</time>
      </trkpt>
      <trkpt lat="47.56057" lon="-2.29475">
        <ele>44.5</ele>
        <time>2025-01-16T10:42:12Z</time>
      </trkpt>
      <trkpt lat="47.56057" lon="-2.29476">
        <ele>44.6</ele>
        <time>2025-01-16T10:42:13Z</time>
      </trkpt>
      <trkpt lat="47.56057" lon="-2.29476">
        <ele>44.6</ele>
        <time>2025-01-16T10:42:14Z</time>
      </trkpt>
      <trkpt lat="47.56057" lon="-2.29478">
        <ele>44.8</ele>
        <time>2025-01-16T10:42:15Z</time>
      </trkpt>
      <trkpt lat="47.56056" lon="-2.29479">
        <ele>44.8</ele>
        <time>2025-01-16T10:42:16Z</time>
      </trkpt>
      <trkpt lat="47.56056" lon="-2.29481">
        <ele>45</ele>
        <time>2025-01-16T10:42:17Z</time>
      </trkpt>
      <trkpt lat="47.56056" lon="-2.29483">
        <ele>45.2</ele>
        <time>2025-01-16T10:42:18Z</time>
      </trkpt>
      <trkpt lat="47.56056" lon="-2.29484">
        <ele>45.3</ele>
        <time>2025-01-16T10:42:19Z</time>
      </trkpt>
      <trkpt lat="47.56056" lon="-2.29486">
        <ele>45.5</ele>
        <time>2025-01-16T10:42:20Z</time>
      </trkpt>
      <trkpt lat="47.56055" lon="-2.29488">
        <ele>45.5</ele>
        <time>2025-01-16T10:42:21Z</time>
      </trkpt>
      <trkpt lat="47.56054" lon="-2.29489">
        <ele>45.3</ele>
        <time>2025-01-16T10:42:22Z</time>
      </trkpt>
      <trkpt lat="47.56054" lon="-2.29489">
        <ele>45.3</ele>
        <time>2025-01-16T10:42:23Z</time>
      </trkpt>
      <trkpt lat="47.56054" lon="-2.2949">
        <ele>45.4</ele>
        <time>2025-01-16T10:42:24Z</time>
      </trkpt>
      <trkpt lat="47.56054" lon="-2.2949">
        <ele>45.4</ele>
        <time>2025-01-16T10:42:25Z</time>
      </trkpt>
      <trkpt lat="47.56054" lon="-2.2949">
        <ele>45.4</ele>
        <time>2025-01-16T10:42:26Z</time>
      </trkpt>
      <trkpt lat="47.56054" lon="-2.29492">
        <ele>45.6</ele>
        <time>2025-01-16T10:42:27Z</time>
      </trkpt>
      <trkpt lat="47.56054" lon="-2.29494">
        <ele>45.8</ele>
        <time>2025-01-16T10:42:28Z</time>
      </trkpt>
      <trkpt lat="47.56054" lon="-2.29496">
        <ele>46</ele>
        <time>2025-01-16T10:42:29Z</time>
      </trkpt>
      <trkpt lat="47.56054" lon="-2.29498">
        <ele>46.3</ele>
        <time>2025-01-16T10:42:30Z</time>
      </trkpt>
      <trkpt lat="47.56054" lon="-2.295">
        <ele>46.5</ele>
        <time>2025-01-16T10:42:31Z</time>
      </trkpt>
      <trkpt lat="47.56054" lon="-2.29502">
        <ele>46.7</ele>
        <time>2025-01-16T10:42:32Z</time>
      </trkpt>
      <trkpt lat="47.56054" lon="-2.29503">
        <ele>46.7</ele>
        <time>2025-01-16T10:42:33Z</time>
      </trkpt>
      <trkpt lat="47.56054" lon="-2.29504">
        <ele>46.8</ele>
        <time>2025-01-16T10:42:34Z</time>
      </trkpt>
      <trkpt lat="47.56054" lon="-2.29505">
        <ele>46.9</ele>
        <time>2025-01-16T10:42:35Z</time>
      </trkpt>
      <trkpt lat="47.56054" lon="-2.29506">
        <ele>47</ele>
        <time>2025-01-16T10:42:36Z</time>
      </trkpt>
      <trkpt lat="47.56054" lon="-2.29508">
        <ele>47.1</ele>
        <time>2025-01-16T10:42:37Z</time>
      </trkpt>
      <trkpt lat="47.56053" lon="-2.29509">
        <ele>46.9</ele>
        <time>2025-01-16T10:42:38Z</time>
      </trkpt>
      <trkpt lat="47.56054" lon="-2.29511">
        <ele>47.4</ele>
        <time>2025-01-16T10:42:39Z</time>
      </trkpt>
      <trkpt lat="47.56054" lon="-2.29512">
        <ele>47.5</ele>
        <time>2025-01-16T10:42:40Z</time>
      </trkpt>
      <trkpt lat="47.56054" lon="-2.29513">
        <ele>47.5</ele>
        <time>2025-01-16T10:42:41Z</time>
      </trkpt>
      <trkpt lat="47.56054" lon="-2.29514">
        <ele>47.6</ele>
        <time>2025-01-16T10:42:42Z</time>
      </trkpt>
      <trkpt lat="47.56054" lon="-2.29515">
        <ele>47.7</ele>
        <time>2025-01-16T10:42:43Z</time>
      </trkpt>
      <trkpt lat="47.56053" lon="-2.29517">
        <ele>47.6</ele>
        <time>2025-01-16T10:42:44Z</time>
      </trkpt>
      <trkpt lat="47.56053" lon="-2.29518">
        <ele>47.7</ele>
        <time>2025-01-16T10:42:45Z</time>
      </trkpt>
      <trkpt lat="47.56053" lon="-2.29518">
        <ele>47.7</ele>
        <time>2025-01-16T10:42:46Z</time>
      </trkpt>
      <trkpt lat="47.56053" lon="-2.2952">
        <ele>47.9</ele>
        <time>2025-01-16T10:42:47Z</time>
      </trkpt>
      <trkpt lat="47.56052" lon="-2.29521">
        <ele>47.7</ele>
        <time>2025-01-16T10:42:48Z</time>
      </trkpt>
      <trkpt lat="47.56052" lon="-2.29522">
        <ele>47.8</ele>
        <time>2025-01-16T10:42:49Z</time>
      </trkpt>
      <trkpt lat="47.56051" lon="-2.29523">
        <ele>47.7</ele>
        <time>2025-01-16T10:42:50Z</time>
      </trkpt>
      <trkpt lat="47.5605" lon="-2.29524">
        <ele>47.6</ele>
        <time>2025-01-16T10:42:51Z</time>
      </trkpt>
      <trkpt lat="47.5605" lon="-2.29525">
        <ele>47.7</ele>
        <time>2025-01-16T10:42:52Z</time>
      </trkpt>
      <trkpt lat="47.56049" lon="-2.29527">
        <ele>47.7</ele>
        <time>2025-01-16T10:42:53Z</time>
      </trkpt>
      <trkpt lat="47.56048" lon="-2.29529">
        <ele>47.7</ele>
        <time>2025-01-16T10:42:54Z</time>
      </trkpt>
      <trkpt lat="47.56047" lon="-2.29532">
        <ele>47.7</ele>
        <time>2025-01-16T10:42:55Z</time>
      </trkpt>
      <trkpt lat="47.56047" lon="-2.29534">
        <ele>47.8</ele>
        <time>2025-01-16T10:42:56Z</time>
      </trkpt>
      <trkpt lat="47.56046" lon="-2.29536">
        <ele>47.7</ele>
        <time>2025-01-16T10:42:57Z</time>
      </trkpt>
      <trkpt lat="47.56045" lon="-2.29538">
        <ele>47.6</ele>
        <time>2025-01-16T10:42:58Z</time>
      </trkpt>
      <trkpt lat="47.56045" lon="-2.2954">
        <ele>47.7</ele>
        <time>2025-01-16T10:42:59Z</time>
      </trkpt>
      <trkpt lat="47.56044" lon="-2.29542">
        <ele>47.6</ele>
        <time>2025-01-16T10:43:00Z</time>
      </trkpt>
      <trkpt lat="47.56044" lon="-2.29544">
        <ele>47.7</ele>
        <time>2025-01-16T10:43:01Z</time>
      </trkpt>
      <trkpt lat="47.56044" lon="-2.29547">
        <ele>47.9</ele>
        <time>2025-01-16T10:43:02Z</time>
      </trkpt>
      <trkpt lat="47.56044" lon="-2.29549">
        <ele>48</ele>
        <time>2025-01-16T10:43:03Z</time>
      </trkpt>
      <trkpt lat="47.56045" lon="-2.29551">
        <ele>48.3</ele>
        <time>2025-01-16T10:43:04Z</time>
      </trkpt>
      <trkpt lat="47.56045" lon="-2.29553">
        <ele>48.4</ele>
        <time>2025-01-16T10:43:05Z</time>
      </trkpt>
      <trkpt lat="47.56045" lon="-2.29555">
        <ele>48.5</ele>
        <time>2025-01-16T10:43:06Z</time>
      </trkpt>
      <trkpt lat="47.56046" lon="-2.29557">
        <ele>48.7</ele>
        <time>2025-01-16T10:43:07Z</time>
      </trkpt>
      <trkpt lat="47.56046" lon="-2.29558">
        <ele>48.8</ele>
        <time>2025-01-16T10:43:08Z</time>
      </trkpt>
      <trkpt lat="47.56047" lon="-2.2956">
        <ele>49</ele>
        <time>2025-01-16T10:43:09Z</time>
      </trkpt>
      <trkpt lat="47.56047" lon="-2.29561">
        <ele>49.1</ele>
        <time>2025-01-16T10:43:10Z</time>
      </trkpt>
      <trkpt lat="47.56048" lon="-2.29563">
        <ele>49.3</ele>
        <time>2025-01-16T10:43:11Z</time>
      </trkpt>
      <trkpt lat="47.56048" lon="-2.29564">
        <ele>49.4</ele>
        <time>2025-01-16T10:43:12Z</time>
      </trkpt>
      <trkpt lat="47.56049" lon="-2.29565">
        <ele>49.6</ele>
        <time>2025-01-16T10:43:13Z</time>
      </trkpt>
      <trkpt lat="47.5605" lon="-2.29567">
        <ele>49.8</ele>
        <time>2025-01-16T10:43:14Z</time>
      </trkpt>
      <trkpt lat="47.56051" lon="-2.29568">
        <ele>49.9</ele>
        <time>2025-01-16T10:43:15Z</time>
      </trkpt>
      <trkpt lat="47.56052" lon="-2.29569">
        <ele>50.1</ele>
        <time>2025-01-16T10:43:16Z</time>
      </trkpt>
      <trkpt lat="47.56053" lon="-2.29571">
        <ele>50.3</ele>
        <time>2025-01-16T10:43:17Z</time>
      </trkpt>
      <trkpt lat="47.56054" lon="-2.29572">
        <ele>50.4</ele>
        <time>2025-01-16T10:43:18Z</time>
      </trkpt>
      <trkpt lat="47.56055" lon="-2.29573">
        <ele>50.6</ele>
        <time>2025-01-16T10:43:19Z</time>
      </trkpt>
      <trkpt lat="47.56056" lon="-2.29574">
        <ele>50.7</ele>
        <time>2025-01-16T10:43:20Z</time>
      </trkpt>
      <trkpt lat="47.56057" lon="-2.29575">
        <ele>50.7</ele>
        <time>2025-01-16T10:43:21Z</time>
      </trkpt>
      <trkpt lat="47.56058" lon="-2.29576">
        <ele>50.8</ele>
        <time>2025-01-16T10:43:22Z</time>
      </trkpt>
      <trkpt lat="47.5606" lon="-2.29576">
        <ele>50.8</ele>
        <time>2025-01-16T10:43:23Z</time>
      </trkpt>
      <trkpt lat="47.5606" lon="-2.29576">
        <ele>50.8</ele>
        <time>2025-01-16T10:43:24Z</time>
      </trkpt>
      <trkpt lat="47.56061" lon="-2.29577">
        <ele>50.8</ele>
        <time>2025-01-16T10:43:25Z</time>
      </trkpt>
      <trkpt lat="47.56062" lon="-2.29578">
        <ele>50.9</ele>
        <time>2025-01-16T10:43:26Z</time>
      </trkpt>
      <trkpt lat="47.56062" lon="-2.29579">
        <ele>50.9</ele>
        <time>2025-01-16T10:43:27Z</time>
      </trkpt>
      <trkpt lat="47.56063" lon="-2.29579">
        <ele>50.9</ele>
        <time>2025-01-16T10:43:28Z</time>
      </trkpt>
      <trkpt lat="47.56063" lon="-2.2958">
        <ele>50.9</ele>
        <time>2025-01-16T10:43:29Z</time>
      </trkpt>
      <trkpt lat="47.56064" lon="-2.2958">
        <ele>50.9</ele>
        <time>2025-01-16T10:43:30Z</time>
      </trkpt>
      <trkpt lat="47.56065" lon="-2.29581">
        <ele>50.9</ele>
        <time>2025-01-16T10:43:31Z</time>
      </trkpt>
      <trkpt lat="47.56066" lon="-2.29581">
        <ele>50.9</ele>
        <time>2025-01-16T10:43:32Z</time>
      </trkpt>
      <trkpt lat="47.56068" lon="-2.29581">
        <ele>51</ele>
        <time>2025-01-16T10:43:33Z</time>
      </trkpt>
      <trkpt lat="47.56069" lon="-2.29581">
        <ele>51</ele>
        <time>2025-01-16T10:43:34Z</time>
      </trkpt>
      <trkpt lat="47.5607" lon="-2.29581">
        <ele>51</ele>
        <time>2025-01-16T10:43:35Z</time>
      </trkpt>
      <trkpt lat="47.56071" lon="-2.29581">
        <ele>51</ele>
        <time>2025-01-16T10:43:36Z</time>
      </trkpt>
      <trkpt lat="47.56071" lon="-2.29582">
        <ele>51</ele>
        <time>2025-01-16T10:43:37Z</time>
      </trkpt>
      <trkpt lat="47.56072" lon="-2.29585">
        <ele>51</ele>
        <time>2025-01-16T10:43:38Z</time>
      </trkpt>
      <trkpt lat="47.56072" lon="-2.29588">
        <ele>51.1</ele>
        <time>2025-01-16T10:43:39Z</time>
      </trkpt>
      <trkpt lat="47.56073" lon="-2.29591">
        <ele>51.2</ele>
        <time>2025-01-16T10:43:40Z</time>
      </trkpt>
      <trkpt lat="47.56073" lon="-2.29594">
        <ele>51.2</ele>
        <time>2025-01-16T10:43:41Z</time>
      </trkpt>
      <trkpt lat="47.56074" lon="-2.29597">
        <ele>51.3</ele>
        <time>2025-01-16T10:43:42Z</time>
      </trkpt>
      <trkpt lat="47.56074" lon="-2.29599">
        <ele>51.4</ele>
        <time>2025-01-16T10:43:43Z</time>
      </trkpt>
      <trkpt lat="47.56074" lon="-2.29602">
        <ele>51.4</ele>
        <time>2025-01-16T10:43:44Z</time>
      </trkpt>
      <trkpt lat="47.56075" lon="-2.29604">
        <ele>51.5</ele>
        <time>2025-01-16T10:43:45Z</time>
      </trkpt>
      <trkpt lat="47.56075" lon="-2.29607">
        <ele>51.6</ele>
        <time>2025-01-16T10:43:46Z</time>
      </trkpt>
      <trkpt lat="47.56076" lon="-2.29609">
        <ele>51.7</ele>
        <time>2025-01-16T10:43:47Z</time>
      </trkpt>
      <trkpt lat="47.56077" lon="-2.29611">
        <ele>51.8</ele>
        <time>2025-01-16T10:43:48Z</time>
      </trkpt>
      <trkpt lat="47.56077" lon="-2.29612">
        <ele>51.8</ele>
        <time>2025-01-16T10:43:49Z</time>
      </trkpt>
      <trkpt lat="47.56078" lon="-2.29613">
        <ele>51.8</ele>
        <time>2025-01-16T10:43:50Z</time>
      </trkpt>
      <trkpt lat="47.56079" lon="-2.29614">
        <ele>51.9</ele>
        <time>2025-01-16T10:43:51Z</time>
      </trkpt>
      <trkpt lat="47.5608" lon="-2.29616">
        <ele>51.9</ele>
        <time>2025-01-16T10:43:52Z</time>
      </trkpt>
      <trkpt lat="47.5608" lon="-2.29617">
        <ele>51.9</ele>
        <time>2025-01-16T10:43:53Z</time>
      </trkpt>
      <trkpt lat="47.56081" lon="-2.29619">
        <ele>51.9</ele>
        <time>2025-01-16T10:43:54Z</time>
      </trkpt>
      <trkpt lat="47.56081" lon="-2.2962">
        <ele>51.9</ele>
        <time>2025-01-16T10:43:55Z</time>
      </trkpt>
      <trkpt lat="47.56081" lon="-2.29621">
        <ele>51.9</ele>
        <time>2025-01-16T10:43:56Z</time>
      </trkpt>
      <trkpt lat="47.56082" lon="-2.29622">
        <ele>52</ele>
        <time>2025-01-16T10:43:57Z</time>
      </trkpt>
      <trkpt lat="47.56082" lon="-2.29624">
        <ele>52</ele>
        <time>2025-01-16T10:43:58Z</time>
      </trkpt>
      <trkpt lat="47.56082" lon="-2.29625">
        <ele>52</ele>
        <time>2025-01-16T10:43:59Z</time>
      </trkpt>
      <trkpt lat="47.56083" lon="-2.29627">
        <ele>52</ele>
        <time>2025-01-16T10:44:00Z</time>
      </trkpt>
      <trkpt lat="47.56084" lon="-2.29629">
        <ele>52</ele>
        <time>2025-01-16T10:44:01Z</time>
      </trkpt>
      <trkpt lat="47.56085" lon="-2.29631">
        <ele>52</ele>
        <time>2025-01-16T10:44:02Z</time>
      </trkpt>
      <trkpt lat="47.56085" lon="-2.29632">
        <ele>52</ele>
        <time>2025-01-16T10:44:03Z</time>
      </trkpt>
      <trkpt lat="47.56085" lon="-2.29634">
        <ele>52</ele>
        <time>2025-01-16T10:44:04Z</time>
      </trkpt>
      <trkpt lat="47.56085" lon="-2.29635">
        <ele>52.1</ele>
        <time>2025-01-16T10:44:05Z</time>
      </trkpt>
      <trkpt lat="47.56085" lon="-2.29637">
        <ele>52.1</ele>
        <time>2025-01-16T10:44:06Z</time>
      </trkpt>
      <trkpt lat="47.56086" lon="-2.29639">
        <ele>52.1</ele>
        <time>2025-01-16T10:44:07Z</time>
      </trkpt>
      <trkpt lat="47.56086" lon="-2.29641">
        <ele>52.2</ele>
        <time>2025-01-16T10:44:08Z</time>
      </trkpt>
      <trkpt lat="47.56087" lon="-2.29642">
        <ele>52.2</ele>
        <time>2025-01-16T10:44:09Z</time>
      </trkpt>
      <trkpt lat="47.56088" lon="-2.29643">
        <ele>52.3</ele>
        <time>2025-01-16T10:44:10Z</time>
      </trkpt>
      <trkpt lat="47.56089" lon="-2.29645">
        <ele>52.4</ele>
        <time>2025-01-16T10:44:11Z</time>
      </trkpt>
      <trkpt lat="47.5609" lon="-2.29646">
        <ele>52.4</ele>
        <time>2025-01-16T10:44:12Z</time>
      </trkpt>
      <trkpt lat="47.5609" lon="-2.29647">
        <ele>52.5</ele>
        <time>2025-01-16T10:44:13Z</time>
      </trkpt>
      <trkpt lat="47.5609" lon="-2.29649">
        <ele>52.5</ele>
        <time>2025-01-16T10:44:14Z</time>
      </trkpt>
      <trkpt lat="47.5609" lon="-2.2965">
        <ele>52.5</ele>
        <time>2025-01-16T10:44:15Z</time>
      </trkpt>
      <trkpt lat="47.5609" lon="-2.29652">
        <ele>52.6</ele>
        <time>2025-01-16T10:44:16Z</time>
      </trkpt>
      <trkpt lat="47.5609" lon="-2.29653">
        <ele>52.6</ele>
        <time>2025-01-16T10:44:17Z</time>
      </trkpt>
      <trkpt lat="47.5609" lon="-2.29654">
        <ele>52.7</ele>
        <time>2025-01-16T10:44:18Z</time>
      </trkpt>
      <trkpt lat="47.5609" lon="-2.29655">
        <ele>52.7</ele>
        <time>2025-01-16T10:44:19Z</time>
      </trkpt>
      <trkpt lat="47.56089" lon="-2.29657">
        <ele>52.7</ele>
        <time>2025-01-16T10:44:20Z</time>
      </trkpt>
      <trkpt lat="47.56089" lon="-2.29658">
        <ele>52.8</ele>
        <time>2025-01-16T10:44:21Z</time>
      </trkpt>
      <trkpt lat="47.56088" lon="-2.29659">
        <ele>52.8</ele>
        <time>2025-01-16T10:44:22Z</time>
      </trkpt>
      <trkpt lat="47.56088" lon="-2.29661">
        <ele>52.8</ele>
        <time>2025-01-16T10:44:23Z</time>
      </trkpt>
      <trkpt lat="47.56088" lon="-2.29662">
        <ele>52.9</ele>
        <time>2025-01-16T10:44:24Z</time>
      </trkpt>
      <trkpt lat="47.56089" lon="-2.29664">
        <ele>52.9</ele>
        <time>2025-01-16T10:44:25Z</time>
      </trkpt>
      <trkpt lat="47.56089" lon="-2.29665">
        <ele>53</ele>
        <time>2025-01-16T10:44:26Z</time>
      </trkpt>
      <trkpt lat="47.56089" lon="-2.29667">
        <ele>53</ele>
        <time>2025-01-16T10:44:27Z</time>
      </trkpt>
      <trkpt lat="47.5609" lon="-2.29669">
        <ele>53</ele>
        <time>2025-01-16T10:44:28Z</time>
      </trkpt>
      <trkpt lat="47.5609" lon="-2.2967">
        <ele>53</ele>
        <time>2025-01-16T10:44:29Z</time>
      </trkpt>
      <trkpt lat="47.56091" lon="-2.29673">
        <ele>53.1</ele>
        <time>2025-01-16T10:44:30Z</time>
      </trkpt>
      <trkpt lat="47.56091" lon="-2.29675">
        <ele>53.1</ele>
        <time>2025-01-16T10:44:31Z</time>
      </trkpt>
      <trkpt lat="47.56091" lon="-2.29676">
        <ele>53.1</ele>
        <time>2025-01-16T10:44:32Z</time>
      </trkpt>
      <trkpt lat="47.56091" lon="-2.29678">
        <ele>53.1</ele>
        <time>2025-01-16T10:44:33Z</time>
      </trkpt>
      <trkpt lat="47.56091" lon="-2.2968">
        <ele>53.1</ele>
        <time>2025-01-16T10:44:34Z</time>
      </trkpt>
      <trkpt lat="47.5609" lon="-2.29681">
        <ele>53.1</ele>
        <time>2025-01-16T10:44:35Z</time>
      </trkpt>
      <trkpt lat="47.56089" lon="-2.29683">
        <ele>53.1</ele>
        <time>2025-01-16T10:44:36Z</time>
      </trkpt>
      <trkpt lat="47.56088" lon="-2.29685">
        <ele>53.1</ele>
        <time>2025-01-16T10:44:37Z</time>
      </trkpt>
      <trkpt lat="47.56088" lon="-2.29687">
        <ele>53.1</ele>
        <time>2025-01-16T10:44:38Z</time>
      </trkpt>
      <trkpt lat="47.56087" lon="-2.29689">
        <ele>53.1</ele>
        <time>2025-01-16T10:44:39Z</time>
      </trkpt>
      <trkpt lat="47.56086" lon="-2.29691">
        <ele>53.1</ele>
        <time>2025-01-16T10:44:40Z</time>
      </trkpt>
      <trkpt lat="47.56085" lon="-2.29692">
        <ele>53.1</ele>
        <time>2025-01-16T10:44:41Z</time>
      </trkpt>
      <trkpt lat="47.56085" lon="-2.29693">
        <ele>53.1</ele>
        <time>2025-01-16T10:44:42Z</time>
      </trkpt>
      <trkpt lat="47.56084" lon="-2.29694">
        <ele>53</ele>
        <time>2025-01-16T10:44:43Z</time>
      </trkpt>
      <trkpt lat="47.56083" lon="-2.29695">
        <ele>53</ele>
        <time>2025-01-16T10:44:44Z</time>
      </trkpt>
      <trkpt lat="47.56082" lon="-2.29696">
        <ele>52.9</ele>
        <time>2025-01-16T10:44:45Z</time>
      </trkpt>
      <trkpt lat="47.56081" lon="-2.29697">
        <ele>52.7</ele>
        <time>2025-01-16T10:44:46Z</time>
      </trkpt>
      <trkpt lat="47.56081" lon="-2.29698">
        <ele>52.7</ele>
        <time>2025-01-16T10:44:47Z</time>
      </trkpt>
      <trkpt lat="47.56081" lon="-2.29699">
        <ele>52.7</ele>
        <time>2025-01-16T10:44:48Z</time>
      </trkpt>
      <trkpt lat="47.5608" lon="-2.29699">
        <ele>52.6</ele>
        <time>2025-01-16T10:44:49Z</time>
      </trkpt>
      <trkpt lat="47.5608" lon="-2.29701">
        <ele>52.6</ele>
        <time>2025-01-16T10:44:50Z</time>
      </trkpt>
      <trkpt lat="47.56079" lon="-2.29702">
        <ele>52.5</ele>
        <time>2025-01-16T10:44:51Z</time>
      </trkpt>
      <trkpt lat="47.56078" lon="-2.29703">
        <ele>52.4</ele>
        <time>2025-01-16T10:44:52Z</time>
      </trkpt>
      <trkpt lat="47.56077" lon="-2.29705">
        <ele>52.3</ele>
        <time>2025-01-16T10:44:53Z</time>
      </trkpt>
      <trkpt lat="47.56077" lon="-2.29706">
        <ele>52.2</ele>
        <time>2025-01-16T10:44:54Z</time>
      </trkpt>
      <trkpt lat="47.56076" lon="-2.29707">
        <ele>52.1</ele>
        <time>2025-01-16T10:44:55Z</time>
      </trkpt>
      <trkpt lat="47.56075" lon="-2.29709">
        <ele>52</ele>
        <time>2025-01-16T10:44:56Z</time>
      </trkpt>
      <trkpt lat="47.56073" lon="-2.29711">
        <ele>51.9</ele>
        <time>2025-01-16T10:44:57Z</time>
      </trkpt>
      <trkpt lat="47.56072" lon="-2.29713">
        <ele>51.8</ele>
        <time>2025-01-16T10:44:58Z</time>
      </trkpt>
      <trkpt lat="47.56071" lon="-2.29715">
        <ele>51.7</ele>
        <time>2025-01-16T10:44:59Z</time>
      </trkpt>
      <trkpt lat="47.56069" lon="-2.29716">
        <ele>51.6</ele>
        <time>2025-01-16T10:45:00Z</time>
      </trkpt>
      <trkpt lat="47.56069" lon="-2.29717">
        <ele>51.6</ele>
        <time>2025-01-16T10:45:01Z</time>
      </trkpt>
      <trkpt lat="47.56068" lon="-2.29719">
        <ele>51.5</ele>
        <time>2025-01-16T10:45:02Z</time>
      </trkpt>
      <trkpt lat="47.56067" lon="-2.2972">
        <ele>51.4</ele>
        <time>2025-01-16T10:45:03Z</time>
      </trkpt>
      <trkpt lat="47.56066" lon="-2.29721">
        <ele>51.4</ele>
        <time>2025-01-16T10:45:04Z</time>
      </trkpt>
      <trkpt lat="47.56065" lon="-2.29722">
        <ele>51.3</ele>
        <time>2025-01-16T10:45:05Z</time>
      </trkpt>
      <trkpt lat="47.56064" lon="-2.29724">
        <ele>51.3</ele>
        <time>2025-01-16T10:45:06Z</time>
      </trkpt>
      <trkpt lat="47.56062" lon="-2.29725">
        <ele>51.2</ele>
        <time>2025-01-16T10:45:07Z</time>
      </trkpt>
      <trkpt lat="47.56061" lon="-2.29726">
        <ele>51.1</ele>
        <time>2025-01-16T10:45:08Z</time>
      </trkpt>
      <trkpt lat="47.5606" lon="-2.29728">
        <ele>51</ele>
        <time>2025-01-16T10:45:09Z</time>
      </trkpt>
      <trkpt lat="47.56059" lon="-2.29728">
        <ele>50.9</ele>
        <time>2025-01-16T10:45:10Z</time>
      </trkpt>
      <trkpt lat="47.56057" lon="-2.29729">
        <ele>50.8</ele>
        <time>2025-01-16T10:45:11Z</time>
      </trkpt>
      <trkpt lat="47.56056" lon="-2.2973">
        <ele>50.7</ele>
        <time>2025-01-16T10:45:12Z</time>
      </trkpt>
      <trkpt lat="47.56056" lon="-2.29731">
        <ele>50.7</ele>
        <time>2025-01-16T10:45:13Z</time>
      </trkpt>
      <trkpt lat="47.56055" lon="-2.29731">
        <ele>50.6</ele>
        <time>2025-01-16T10:45:14Z</time>
      </trkpt>
      <trkpt lat="47.56055" lon="-2.29732">
        <ele>50.6</ele>
        <time>2025-01-16T10:45:15Z</time>
      </trkpt>
      <trkpt lat="47.56055" lon="-2.29732">
        <ele>50.6</ele>
        <time>2025-01-16T10:45:16Z</time>
      </trkpt>
      <trkpt lat="47.56055" lon="-2.29733">
        <ele>50.6</ele>
        <time>2025-01-16T10:45:17Z</time>
      </trkpt>
      <trkpt lat="47.56054" lon="-2.29733">
        <ele>50.5</ele>
        <time>2025-01-16T10:45:18Z</time>
      </trkpt>
      <trkpt lat="47.56053" lon="-2.29735">
        <ele>50.4</ele>
        <time>2025-01-16T10:45:19Z</time>
      </trkpt>
      <trkpt lat="47.56053" lon="-2.29736">
        <ele>50.3</ele>
        <time>2025-01-16T10:45:20Z</time>
      </trkpt>
      <trkpt lat="47.56054" lon="-2.29736">
        <ele>50.4</ele>
        <time>2025-01-16T10:45:21Z</time>
      </trkpt>
      <trkpt lat="47.56053" lon="-2.29737">
        <ele>50.3</ele>
        <time>2025-01-16T10:45:22Z</time>
      </trkpt>
      <trkpt lat="47.56052" lon="-2.29738">
        <ele>50.2</ele>
        <time>2025-01-16T10:45:23Z</time>
      </trkpt>
      <trkpt lat="47.56052" lon="-2.29738">
        <ele>50.2</ele>
        <time>2025-01-16T10:45:24Z</time>
      </trkpt>
      <trkpt lat="47.56051" lon="-2.29739">
        <ele>50.1</ele>
        <time>2025-01-16T10:45:25Z</time>
      </trkpt>
      <trkpt lat="47.5605" lon="-2.2974">
        <ele>50</ele>
        <time>2025-01-16T10:45:26Z</time>
      </trkpt>
      <trkpt lat="47.5605" lon="-2.29741">
        <ele>49.9</ele>
        <time>2025-01-16T10:45:27Z</time>
      </trkpt>
      <trkpt lat="47.56049" lon="-2.29742">
        <ele>49.8</ele>
        <time>2025-01-16T10:45:28Z</time>
      </trkpt>
      <trkpt lat="47.56048" lon="-2.29743">
        <ele>49.7</ele>
        <time>2025-01-16T10:45:29Z</time>
      </trkpt>
      <trkpt lat="47.56046" lon="-2.29745">
        <ele>49.5</ele>
        <time>2025-01-16T10:45:30Z</time>
      </trkpt>
      <trkpt lat="47.56045" lon="-2.29746">
        <ele>49.4</ele>
        <time>2025-01-16T10:45:31Z</time>
      </trkpt>
      <trkpt lat="47.56044" lon="-2.29746">
        <ele>49.3</ele>
        <time>2025-01-16T10:45:32Z</time>
      </trkpt>
      <trkpt lat="47.56043" lon="-2.29746">
        <ele>49.2</ele>
        <time>2025-01-16T10:45:33Z</time>
      </trkpt>
      <trkpt lat="47.56042" lon="-2.29746">
        <ele>49.2</ele>
        <time>2025-01-16T10:45:34Z</time>
      </trkpt>
      <trkpt lat="47.5604" lon="-2.29746">
        <ele>49</ele>
        <time>2025-01-16T10:45:35Z</time>
      </trkpt>
      <trkpt lat="47.56038" lon="-2.29747">
        <ele>48.8</ele>
        <time>2025-01-16T10:45:36Z</time>
      </trkpt>
      <trkpt lat="47.56037" lon="-2.29748">
        <ele>48.7</ele>
        <time>2025-01-16T10:45:37Z</time>
      </trkpt>
      <trkpt lat="47.56035" lon="-2.29747">
        <ele>48.6</ele>
        <time>2025-01-16T10:45:38Z</time>
      </trkpt>
      <trkpt lat="47.56034" lon="-2.29748">
        <ele>48.5</ele>
        <time>2025-01-16T10:45:39Z</time>
      </trkpt>
      <trkpt lat="47.56032" lon="-2.29748">
        <ele>48.4</ele>
        <time>2025-01-16T10:45:40Z</time>
      </trkpt>
      <trkpt lat="47.56031" lon="-2.29749">
        <ele>48.3</ele>
        <time>2025-01-16T10:45:41Z</time>
      </trkpt>
      <trkpt lat="47.56031" lon="-2.29751">
        <ele>48.2</ele>
        <time>2025-01-16T10:45:42Z</time>
      </trkpt>
      <trkpt lat="47.5603" lon="-2.29751">
        <ele>48.1</ele>
        <time>2025-01-16T10:45:43Z</time>
      </trkpt>
      <trkpt lat="47.5603" lon="-2.29752">
        <ele>48.1</ele>
        <time>2025-01-16T10:45:44Z</time>
      </trkpt>
      <trkpt lat="47.5603" lon="-2.29753">
        <ele>48.1</ele>
        <time>2025-01-16T10:45:45Z</time>
      </trkpt>
      <trkpt lat="47.56029" lon="-2.29754">
        <ele>48</ele>
        <time>2025-01-16T10:45:46Z</time>
      </trkpt>
      <trkpt lat="47.56028" lon="-2.29755">
        <ele>47.8</ele>
        <time>2025-01-16T10:45:47Z</time>
      </trkpt>
      <trkpt lat="47.56028" lon="-2.29757">
        <ele>47.8</ele>
        <time>2025-01-16T10:45:48Z</time>
      </trkpt>
      <trkpt lat="47.56027" lon="-2.29758">
        <ele>47.6</ele>
        <time>2025-01-16T10:45:49Z</time>
      </trkpt>
      <trkpt lat="47.56026" lon="-2.29759">
        <ele>47.4</ele>
        <time>2025-01-16T10:45:50Z</time>
      </trkpt>
      <trkpt lat="47.56026" lon="-2.2976">
        <ele>47.4</ele>
        <time>2025-01-16T10:45:51Z</time>
      </trkpt>
      <trkpt lat="47.56025" lon="-2.2976">
        <ele>47.2</ele>
        <time>2025-01-16T10:45:52Z</time>
      </trkpt>
      <trkpt lat="47.56025" lon="-2.29761">
        <ele>47.2</ele>
        <time>2025-01-16T10:45:53Z</time>
      </trkpt>
      <trkpt lat="47.56025" lon="-2.29762">
        <ele>47.2</ele>
        <time>2025-01-16T10:45:54Z</time>
      </trkpt>
      <trkpt lat="47.56024" lon="-2.29763">
        <ele>47</ele>
        <time>2025-01-16T10:45:55Z</time>
      </trkpt>
      <trkpt lat="47.56024" lon="-2.29764">
        <ele>47</ele>
        <time>2025-01-16T10:45:56Z</time>
      </trkpt>
      <trkpt lat="47.56023" lon="-2.29765">
        <ele>46.8</ele>
        <time>2025-01-16T10:45:57Z</time>
      </trkpt>
      <trkpt lat="47.56022" lon="-2.29767">
        <ele>46.6</ele>
        <time>2025-01-16T10:45:58Z</time>
      </trkpt>
      <trkpt lat="47.56021" lon="-2.29767">
        <ele>46.4</ele>
        <time>2025-01-16T10:45:59Z</time>
      </trkpt>
      <trkpt lat="47.5602" lon="-2.29769">
        <ele>46.2</ele>
        <time>2025-01-16T10:46:00Z</time>
      </trkpt>
      <trkpt lat="47.5602" lon="-2.2977">
        <ele>46.2</ele>
        <time>2025-01-16T10:46:01Z</time>
      </trkpt>
      <trkpt lat="47.56019" lon="-2.29771">
        <ele>46</ele>
        <time>2025-01-16T10:46:02Z</time>
      </trkpt>
      <trkpt lat="47.56018" lon="-2.29773">
        <ele>45.8</ele>
        <time>2025-01-16T10:46:03Z</time>
      </trkpt>
      <trkpt lat="47.56017" lon="-2.29775">
        <ele>45.5</ele>
        <time>2025-01-16T10:46:04Z</time>
      </trkpt>
      <trkpt lat="47.56016" lon="-2.29777">
        <ele>45.3</ele>
        <time>2025-01-16T10:46:05Z</time>
      </trkpt>
      <trkpt lat="47.56015" lon="-2.29778">
        <ele>45.1</ele>
        <time>2025-01-16T10:46:06Z</time>
      </trkpt>
      <trkpt lat="47.56014" lon="-2.2978">
        <ele>44.9</ele>
        <time>2025-01-16T10:46:07Z</time>
      </trkpt>
      <trkpt lat="47.56013" lon="-2.29782">
        <ele>44.6</ele>
        <time>2025-01-16T10:46:08Z</time>
      </trkpt>
      <trkpt lat="47.56012" lon="-2.29784">
        <ele>44.4</ele>
        <time>2025-01-16T10:46:09Z</time>
      </trkpt>
      <trkpt lat="47.56011" lon="-2.29784">
        <ele>44.2</ele>
        <time>2025-01-16T10:46:10Z</time>
      </trkpt>
      <trkpt lat="47.5601" lon="-2.29786">
        <ele>44</ele>
        <time>2025-01-16T10:46:11Z</time>
      </trkpt>
      <trkpt lat="47.56009" lon="-2.29787">
        <ele>43.7</ele>
        <time>2025-01-16T10:46:12Z</time>
      </trkpt>
      <trkpt lat="47.56008" lon="-2.29788">
        <ele>43.5</ele>
        <time>2025-01-16T10:46:13Z</time>
      </trkpt>
      <trkpt lat="47.56007" lon="-2.29789">
        <ele>43.3</ele>
        <time>2025-01-16T10:46:14Z</time>
      </trkpt>
      <trkpt lat="47.56006" lon="-2.29791">
        <ele>43</ele>
        <time>2025-01-16T10:46:15Z</time>
      </trkpt>
      <trkpt lat="47.56005" lon="-2.29792">
        <ele>42.8</ele>
        <time>2025-01-16T10:46:16Z</time>
      </trkpt>
      <trkpt lat="47.56004" lon="-2.29794">
        <ele>42.5</ele>
        <time>2025-01-16T10:46:17Z</time>
      </trkpt>
      <trkpt lat="47.56003" lon="-2.29795">
        <ele>42.3</ele>
        <time>2025-01-16T10:46:18Z</time>
      </trkpt>
      <trkpt lat="47.56002" lon="-2.29795">
        <ele>42.1</ele>
        <time>2025-01-16T10:46:19Z</time>
      </trkpt>
      <trkpt lat="47.56001" lon="-2.29797">
        <ele>41.8</ele>
        <time>2025-01-16T10:46:20Z</time>
      </trkpt>
      <trkpt lat="47.56" lon="-2.29798">
        <ele>41.5</ele>
        <time>2025-01-16T10:46:21Z</time>
      </trkpt>
      <trkpt lat="47.55998" lon="-2.298">
        <ele>41.1</ele>
        <time>2025-01-16T10:46:22Z</time>
      </trkpt>
      <trkpt lat="47.55997" lon="-2.29802">
        <ele>40.8</ele>
        <time>2025-01-16T10:46:23Z</time>
      </trkpt>
      <trkpt lat="47.55996" lon="-2.29804">
        <ele>40.5</ele>
        <time>2025-01-16T10:46:24Z</time>
      </trkpt>
      <trkpt lat="47.55995" lon="-2.29805">
        <ele>40.3</ele>
        <time>2025-01-16T10:46:25Z</time>
      </trkpt>
      <trkpt lat="47.55994" lon="-2.29807">
        <ele>40.1</ele>
        <time>2025-01-16T10:46:26Z</time>
      </trkpt>
      <trkpt lat="47.55993" lon="-2.29808">
        <ele>39.9</ele>
        <time>2025-01-16T10:46:27Z</time>
      </trkpt>
      <trkpt lat="47.55992" lon="-2.2981">
        <ele>39.6</ele>
        <time>2025-01-16T10:46:28Z</time>
      </trkpt>
      <trkpt lat="47.55991" lon="-2.29811">
        <ele>39.4</ele>
        <time>2025-01-16T10:46:29Z</time>
      </trkpt>
      <trkpt lat="47.5599" lon="-2.29812">
        <ele>39.2</ele>
        <time>2025-01-16T10:46:30Z</time>
      </trkpt>
      <trkpt lat="47.5599" lon="-2.29812">
        <ele>39.2</ele>
        <time>2025-01-16T10:46:31Z</time>
      </trkpt>
      <trkpt lat="47.55989" lon="-2.29812">
        <ele>39.1</ele>
        <time>2025-01-16T10:46:32Z</time>
      </trkpt>
      <trkpt lat="47.55988" lon="-2.29813">
        <ele>38.9</ele>
        <time>2025-01-16T10:46:33Z</time>
      </trkpt>
      <trkpt lat="47.55987" lon="-2.29814">
        <ele>38.7</ele>
        <time>2025-01-16T10:46:34Z</time>
      </trkpt>
      <trkpt lat="47.55986" lon="-2.29815">
        <ele>38.5</ele>
        <time>2025-01-16T10:46:35Z</time>
      </trkpt>
      <trkpt lat="47.55985" lon="-2.29816">
        <ele>38.3</ele>
        <time>2025-01-16T10:46:36Z</time>
      </trkpt>
      <trkpt lat="47.55985" lon="-2.29818">
        <ele>38.2</ele>
        <time>2025-01-16T10:46:37Z</time>
      </trkpt>
      <trkpt lat="47.55984" lon="-2.2982">
        <ele>37.9</ele>
        <time>2025-01-16T10:46:38Z</time>
      </trkpt>
      <trkpt lat="47.55983" lon="-2.29822">
        <ele>37.6</ele>
        <time>2025-01-16T10:46:39Z</time>
      </trkpt>
      <trkpt lat="47.55982" lon="-2.29823">
        <ele>37.4</ele>
        <time>2025-01-16T10:46:40Z</time>
      </trkpt>
      <trkpt lat="47.55981" lon="-2.29825">
        <ele>37.1</ele>
        <time>2025-01-16T10:46:41Z</time>
      </trkpt>
      <trkpt lat="47.5598" lon="-2.29827">
        <ele>36.8</ele>
        <time>2025-01-16T10:46:42Z</time>
      </trkpt>
      <trkpt lat="47.5598" lon="-2.29828">
        <ele>36.7</ele>
        <time>2025-01-16T10:46:43Z</time>
      </trkpt>
      <trkpt lat="47.55979" lon="-2.2983">
        <ele>36.4</ele>
        <time>2025-01-16T10:46:44Z</time>
      </trkpt>
      <trkpt lat="47.55977" lon="-2.29833">
        <ele>35.9</ele>
        <time>2025-01-16T10:46:45Z</time>
      </trkpt>
      <trkpt lat="47.55976" lon="-2.29835">
        <ele>35.7</ele>
        <time>2025-01-16T10:46:46Z</time>
      </trkpt>
      <trkpt lat="47.55975" lon="-2.29836">
        <ele>35.5</ele>
        <time>2025-01-16T10:46:47Z</time>
      </trkpt>
      <trkpt lat="47.55975" lon="-2.29838">
        <ele>35.5</ele>
        <time>2025-01-16T10:46:48Z</time>
      </trkpt>
      <trkpt lat="47.55974" lon="-2.29839">
        <ele>35.3</ele>
        <time>2025-01-16T10:46:49Z</time>
      </trkpt>
      <trkpt lat="47.55973" lon="-2.2984">
        <ele>35.1</ele>
        <time>2025-01-16T10:46:50Z</time>
      </trkpt>
      <trkpt lat="47.55972" lon="-2.29841">
        <ele>35</ele>
        <time>2025-01-16T10:46:51Z</time>
      </trkpt>
      <trkpt lat="47.55972" lon="-2.29843">
        <ele>35</ele>
        <time>2025-01-16T10:46:52Z</time>
      </trkpt>
      <trkpt lat="47.5597" lon="-2.29845">
        <ele>34.6</ele>
        <time>2025-01-16T10:46:53Z</time>
      </trkpt>
      <trkpt lat="47.5597" lon="-2.29846">
        <ele>34.6</ele>
        <time>2025-01-16T10:46:54Z</time>
      </trkpt>
      <trkpt lat="47.55969" lon="-2.29847">
        <ele>34.4</ele>
        <time>2025-01-16T10:46:55Z</time>
      </trkpt>
      <trkpt lat="47.55969" lon="-2.29848">
        <ele>34.4</ele>
        <time>2025-01-16T10:46:56Z</time>
      </trkpt>
      <trkpt lat="47.55968" lon="-2.29849">
        <ele>34.2</ele>
        <time>2025-01-16T10:46:57Z</time>
      </trkpt>
      <trkpt lat="47.55968" lon="-2.29849">
        <ele>34.2</ele>
        <time>2025-01-16T10:46:58Z</time>
      </trkpt>
      <trkpt lat="47.55967" lon="-2.2985">
        <ele>33.9</ele>
        <time>2025-01-16T10:46:59Z</time>
      </trkpt>
      <trkpt lat="47.55966" lon="-2.29851">
        <ele>33.7</ele>
        <time>2025-01-16T10:47:00Z</time>
      </trkpt>
      <trkpt lat="47.55966" lon="-2.29851">
        <ele>33.7</ele>
        <time>2025-01-16T10:47:01Z</time>
      </trkpt>
      <trkpt lat="47.55965" lon="-2.29852">
        <ele>33.5</ele>
        <time>2025-01-16T10:47:02Z</time>
      </trkpt>
      <trkpt lat="47.55965" lon="-2.29852">
        <ele>33.5</ele>
        <time>2025-01-16T10:47:03Z</time>
      </trkpt>
      <trkpt lat="47.55966" lon="-2.29852">
        <ele>33.7</ele>
        <time>2025-01-16T10:47:04Z</time>
      </trkpt>
      <trkpt lat="47.55966" lon="-2.29852">
        <ele>33.7</ele>
        <time>2025-01-16T10:47:05Z</time>
      </trkpt>
      <trkpt lat="47.55966" lon="-2.29852">
        <ele>33.7</ele>
        <time>2025-01-16T10:47:06Z</time>
      </trkpt>
      <trkpt lat="47.55966" lon="-2.29852">
        <ele>33.7</ele>
        <time>2025-01-16T10:47:07Z</time>
      </trkpt>
      <trkpt lat="47.55966" lon="-2.29852">
        <ele>33.7</ele>
        <time>2025-01-16T10:47:08Z</time>
      </trkpt>
      <trkpt lat="47.55966" lon="-2.29852">
        <ele>33.7</ele>
        <time>2025-01-16T10:47:09Z</time>
      </trkpt>
      <trkpt lat="47.55965" lon="-2.29854">
        <ele>33.5</ele>
        <time>2025-01-16T10:47:10Z</time>
      </trkpt>
      <trkpt lat="47.55964" lon="-2.29856">
        <ele>33.3</ele>
        <time>2025-01-16T10:47:11Z</time>
      </trkpt>
      <trkpt lat="47.55964" lon="-2.29858">
        <ele>33.3</ele>
        <time>2025-01-16T10:47:12Z</time>
      </trkpt>
      <trkpt lat="47.55964" lon="-2.29861">
        <ele>33.2</ele>
        <time>2025-01-16T10:47:13Z</time>
      </trkpt>
      <trkpt lat="47.55964" lon="-2.29862">
        <ele>33.2</ele>
        <time>2025-01-16T10:47:14Z</time>
      </trkpt>
      <trkpt lat="47.55963" lon="-2.29862">
        <ele>33</ele>
        <time>2025-01-16T10:47:15Z</time>
      </trkpt>
      <trkpt lat="47.55963" lon="-2.29863">
        <ele>33</ele>
        <time>2025-01-16T10:47:16Z</time>
      </trkpt>
      <trkpt lat="47.55963" lon="-2.29865">
        <ele>32.9</ele>
        <time>2025-01-16T10:47:17Z</time>
      </trkpt>
      <trkpt lat="47.55962" lon="-2.29866">
        <ele>32.7</ele>
        <time>2025-01-16T10:47:18Z</time>
      </trkpt>
      <trkpt lat="47.55962" lon="-2.29868">
        <ele>32.6</ele>
        <time>2025-01-16T10:47:19Z</time>
      </trkpt>
      <trkpt lat="47.55962" lon="-2.2987">
        <ele>32.6</ele>
        <time>2025-01-16T10:47:20Z</time>
      </trkpt>
      <trkpt lat="47.55961" lon="-2.29872">
        <ele>32.3</ele>
        <time>2025-01-16T10:47:21Z</time>
      </trkpt>
      <trkpt lat="47.55961" lon="-2.29873">
        <ele>32.3</ele>
        <time>2025-01-16T10:47:22Z</time>
      </trkpt>
      <trkpt lat="47.5596" lon="-2.29874">
        <ele>32.1</ele>
        <time>2025-01-16T10:47:23Z</time>
      </trkpt>
      <trkpt lat="47.5596" lon="-2.29876">
        <ele>32.1</ele>
        <time>2025-01-16T10:47:24Z</time>
      </trkpt>
      <trkpt lat="47.5596" lon="-2.29878">
        <ele>32</ele>
        <time>2025-01-16T10:47:25Z</time>
      </trkpt>
      <trkpt lat="47.5596" lon="-2.29879">
        <ele>32</ele>
        <time>2025-01-16T10:47:26Z</time>
      </trkpt>
      <trkpt lat="47.55959" lon="-2.2988">
        <ele>31.8</ele>
        <time>2025-01-16T10:47:27Z</time>
      </trkpt>
      <trkpt lat="47.55959" lon="-2.29882">
        <ele>31.7</ele>
        <time>2025-01-16T10:47:28Z</time>
      </trkpt>
      <trkpt lat="47.55958" lon="-2.29883">
        <ele>31.5</ele>
        <time>2025-01-16T10:47:29Z</time>
      </trkpt>
      <trkpt lat="47.55958" lon="-2.29884">
        <ele>31.5</ele>
        <time>2025-01-16T10:47:30Z</time>
      </trkpt>
      <trkpt lat="47.55957" lon="-2.29886">
        <ele>31.3</ele>
        <time>2025-01-16T10:47:31Z</time>
      </trkpt>
      <trkpt lat="47.55957" lon="-2.29888">
        <ele>31.3</ele>
        <time>2025-01-16T10:47:32Z</time>
      </trkpt>
      <trkpt lat="47.55956" lon="-2.2989">
        <ele>31</ele>
        <time>2025-01-16T10:47:33Z</time>
      </trkpt>
      <trkpt lat="47.55956" lon="-2.29893">
        <ele>30.9</ele>
        <time>2025-01-16T10:47:34Z</time>
      </trkpt>
      <trkpt lat="47.55956" lon="-2.29895">
        <ele>30.8</ele>
        <time>2025-01-16T10:47:35Z</time>
      </trkpt>
      <trkpt lat="47.55955" lon="-2.29897">
        <ele>30.5</ele>
        <time>2025-01-16T10:47:36Z</time>
      </trkpt>
      <trkpt lat="47.55955" lon="-2.299">
        <ele>30.4</ele>
        <time>2025-01-16T10:47:37Z</time>
      </trkpt>
      <trkpt lat="47.55955" lon="-2.29902">
        <ele>30.3</ele>
        <time>2025-01-16T10:47:38Z</time>
      </trkpt>
      <trkpt lat="47.55955" lon="-2.29905">
        <ele>30.2</ele>
        <time>2025-01-16T10:47:39Z</time>
      </trkpt>
      <trkpt lat="47.55955" lon="-2.29908">
        <ele>30</ele>
        <time>2025-01-16T10:47:40Z</time>
      </trkpt>
      <trkpt lat="47.55954" lon="-2.2991">
        <ele>29.7</ele>
        <time>2025-01-16T10:47:41Z</time>
      </trkpt>
      <trkpt lat="47.55954" lon="-2.29912">
        <ele>29.6</ele>
        <time>2025-01-16T10:47:42Z</time>
      </trkpt>
      <trkpt lat="47.55953" lon="-2.29913">
        <ele>29.3</ele>
        <time>2025-01-16T10:47:43Z</time>
      </trkpt>
      <trkpt lat="47.55952" lon="-2.29914">
        <ele>29</ele>
        <time>2025-01-16T10:47:44Z</time>
      </trkpt>
      <trkpt lat="47.55952" lon="-2.29915">
        <ele>29</ele>
        <time>2025-01-16T10:47:45Z</time>
      </trkpt>
      <trkpt lat="47.55951" lon="-2.29917">
        <ele>28.7</ele>
        <time>2025-01-16T10:47:46Z</time>
      </trkpt>
      <trkpt lat="47.55951" lon="-2.29918">
        <ele>28.7</ele>
        <time>2025-01-16T10:47:47Z</time>
      </trkpt>
      <trkpt lat="47.55951" lon="-2.2992">
        <ele>28.8</ele>
        <time>2025-01-16T10:47:48Z</time>
      </trkpt>
      <trkpt lat="47.5595" lon="-2.29921">
        <ele>28.6</ele>
        <time>2025-01-16T10:47:49Z</time>
      </trkpt>
      <trkpt lat="47.55948" lon="-2.29922">
        <ele>28.1</ele>
        <time>2025-01-16T10:47:50Z</time>
      </trkpt>
      <trkpt lat="47.55947" lon="-2.29923">
        <ele>27.9</ele>
        <time>2025-01-16T10:47:51Z</time>
      </trkpt>
      <trkpt lat="47.55945" lon="-2.29924">
        <ele>27.4</ele>
        <time>2025-01-16T10:47:52Z</time>
      </trkpt>
      <trkpt lat="47.55944" lon="-2.29924">
        <ele>27.1</ele>
        <time>2025-01-16T10:47:53Z</time>
      </trkpt>
      <trkpt lat="47.55943" lon="-2.29925">
        <ele>26.9</ele>
        <time>2025-01-16T10:47:54Z</time>
      </trkpt>
      <trkpt lat="47.55942" lon="-2.29926">
        <ele>26.7</ele>
        <time>2025-01-16T10:47:55Z</time>
      </trkpt>
      <trkpt lat="47.55941" lon="-2.29927">
        <ele>26.5</ele>
        <time>2025-01-16T10:47:56Z</time>
      </trkpt>
      <trkpt lat="47.5594" lon="-2.29929">
        <ele>26.3</ele>
        <time>2025-01-16T10:47:57Z</time>
      </trkpt>
      <trkpt lat="47.5594" lon="-2.2993">
        <ele>26.4</ele>
        <time>2025-01-16T10:47:58Z</time>
      </trkpt>
      <trkpt lat="47.55939" lon="-2.29932">
        <ele>26.2</ele>
        <time>2025-01-16T10:47:59Z</time>
      </trkpt>
      <trkpt lat="47.55939" lon="-2.29932">
        <ele>26.2</ele>
        <time>2025-01-16T10:48:00Z</time>
      </trkpt>
      <trkpt lat="47.55939" lon="-2.29933">
        <ele>26.3</ele>
        <time>2025-01-16T10:48:01Z</time>
      </trkpt>
      <trkpt lat="47.55939" lon="-2.29935">
        <ele>26.4</ele>
        <time>2025-01-16T10:48:02Z</time>
      </trkpt>
      <trkpt lat="47.55938" lon="-2.29937">
        <ele>26.2</ele>
        <time>2025-01-16T10:48:03Z</time>
      </trkpt>
      <trkpt lat="47.55937" lon="-2.29938">
        <ele>26</ele>
        <time>2025-01-16T10:48:04Z</time>
      </trkpt>
      <trkpt lat="47.55937" lon="-2.2994">
        <ele>26.1</ele>
        <time>2025-01-16T10:48:05Z</time>
      </trkpt>
      <trkpt lat="47.55937" lon="-2.29941">
        <ele>26.2</ele>
        <time>2025-01-16T10:48:06Z</time>
      </trkpt>
      <trkpt lat="47.55936" lon="-2.29942">
        <ele>26</ele>
        <time>2025-01-16T10:48:07Z</time>
      </trkpt>
      <trkpt lat="47.55935" lon="-2.29944">
        <ele>25.9</ele>
        <time>2025-01-16T10:48:08Z</time>
      </trkpt>
      <trkpt lat="47.55935" lon="-2.29945">
        <ele>26</ele>
        <time>2025-01-16T10:48:09Z</time>
      </trkpt>
      <trkpt lat="47.55934" lon="-2.29946">
        <ele>25.8</ele>
        <time>2025-01-16T10:48:10Z</time>
      </trkpt>
      <trkpt lat="47.55933" lon="-2.29947">
        <ele>25.6</ele>
        <time>2025-01-16T10:48:11Z</time>
      </trkpt>
      <trkpt lat="47.55932" lon="-2.29948">
        <ele>25.4</ele>
        <time>2025-01-16T10:48:12Z</time>
      </trkpt>
      <trkpt lat="47.55931" lon="-2.29949">
        <ele>25.2</ele>
        <time>2025-01-16T10:48:13Z</time>
      </trkpt>
      <trkpt lat="47.5593" lon="-2.2995">
        <ele>25</ele>
        <time>2025-01-16T10:48:14Z</time>
      </trkpt>
      <trkpt lat="47.55929" lon="-2.29952">
        <ele>24.8</ele>
        <time>2025-01-16T10:48:15Z</time>
      </trkpt>
      <trkpt lat="47.55929" lon="-2.29953">
        <ele>24.8</ele>
        <time>2025-01-16T10:48:16Z</time>
      </trkpt>
      <trkpt lat="47.55929" lon="-2.29953">
        <ele>24.8</ele>
        <time>2025-01-16T10:48:17Z</time>
      </trkpt>
      <trkpt lat="47.55928" lon="-2.29954">
        <ele>24.7</ele>
        <time>2025-01-16T10:48:18Z</time>
      </trkpt>
      <trkpt lat="47.55928" lon="-2.29955">
        <ele>24.7</ele>
        <time>2025-01-16T10:48:19Z</time>
      </trkpt>
      <trkpt lat="47.55927" lon="-2.29957">
        <ele>24.5</ele>
        <time>2025-01-16T10:48:20Z</time>
      </trkpt>
      <trkpt lat="47.55927" lon="-2.29958">
        <ele>24.5</ele>
        <time>2025-01-16T10:48:21Z</time>
      </trkpt>
      <trkpt lat="47.55926" lon="-2.29959">
        <ele>24.4</ele>
        <time>2025-01-16T10:48:22Z</time>
      </trkpt>
      <trkpt lat="47.55925" lon="-2.2996">
        <ele>24.2</ele>
        <time>2025-01-16T10:48:23Z</time>
      </trkpt>
      <trkpt lat="47.55924" lon="-2.2996">
        <ele>24</ele>
        <time>2025-01-16T10:48:24Z</time>
      </trkpt>
      <trkpt lat="47.55923" lon="-2.29961">
        <ele>23.8</ele>
        <time>2025-01-16T10:48:25Z</time>
      </trkpt>
      <trkpt lat="47.55922" lon="-2.29962">
        <ele>23.7</ele>
        <time>2025-01-16T10:48:26Z</time>
      </trkpt>
      <trkpt lat="47.55922" lon="-2.29963">
        <ele>23.7</ele>
        <time>2025-01-16T10:48:27Z</time>
      </trkpt>
      <trkpt lat="47.55922" lon="-2.29964">
        <ele>23.7</ele>
        <time>2025-01-16T10:48:28Z</time>
      </trkpt>
      <trkpt lat="47.55921" lon="-2.29966">
        <ele>23.6</ele>
        <time>2025-01-16T10:48:29Z</time>
      </trkpt>
      <trkpt lat="47.55921" lon="-2.29968">
        <ele>23.7</ele>
        <time>2025-01-16T10:48:30Z</time>
      </trkpt>
      <trkpt lat="47.5592" lon="-2.2997">
        <ele>23.5</ele>
        <time>2025-01-16T10:48:31Z</time>
      </trkpt>
      <trkpt lat="47.5592" lon="-2.29971">
        <ele>23.6</ele>
        <time>2025-01-16T10:48:32Z</time>
      </trkpt>
      <trkpt lat="47.55919" lon="-2.29972">
        <ele>23.4</ele>
        <time>2025-01-16T10:48:33Z</time>
      </trkpt>
      <trkpt lat="47.55919" lon="-2.29972">
        <ele>23.4</ele>
        <time>2025-01-16T10:48:34Z</time>
      </trkpt>
      <trkpt lat="47.55919" lon="-2.29973">
        <ele>23.3</ele>
        <time>2025-01-16T10:48:35Z</time>
      </trkpt>
      <trkpt lat="47.55919" lon="-2.29974">
        <ele>23.2</ele>
        <time>2025-01-16T10:48:36Z</time>
      </trkpt>
      <trkpt lat="47.55919" lon="-2.29974">
        <ele>23.2</ele>
        <time>2025-01-16T10:48:37Z</time>
      </trkpt>
      <trkpt lat="47.55919" lon="-2.29974">
        <ele>23.2</ele>
        <time>2025-01-16T10:48:38Z</time>
      </trkpt>
      <trkpt lat="47.55919" lon="-2.29974">
        <ele>23.2</ele>
        <time>2025-01-16T10:48:39Z</time>
      </trkpt>
      <trkpt lat="47.55919" lon="-2.29975">
        <ele>23</ele>
        <time>2025-01-16T10:48:40Z</time>
      </trkpt>
      <trkpt lat="47.55918" lon="-2.29975">
        <ele>22.9</ele>
        <time>2025-01-16T10:48:41Z</time>
      </trkpt>
      <trkpt lat="47.55918" lon="-2.29975">
        <ele>22.9</ele>
        <time>2025-01-16T10:48:42Z</time>
      </trkpt>
      <trkpt lat="47.55918" lon="-2.29976">
        <ele>22.7</ele>
        <time>2025-01-16T10:48:43Z</time>
      </trkpt>
      <trkpt lat="47.55918" lon="-2.29976">
        <ele>22.7</ele>
        <time>2025-01-16T10:48:44Z</time>
      </trkpt>
      <trkpt lat="47.55917" lon="-2.29976">
        <ele>22.5</ele>
        <time>2025-01-16T10:48:45Z</time>
      </trkpt>
      <trkpt lat="47.55916" lon="-2.29976">
        <ele>22.3</ele>
        <time>2025-01-16T10:48:46Z</time>
      </trkpt>
      <trkpt lat="47.55916" lon="-2.29976">
        <ele>22.3</ele>
        <time>2025-01-16T10:48:47Z</time>
      </trkpt>
      <trkpt lat="47.55917" lon="-2.29976">
        <ele>22.5</ele>
        <time>2025-01-16T10:48:48Z</time>
      </trkpt>
      <trkpt lat="47.55917" lon="-2.29976">
        <ele>22.5</ele>
        <time>2025-01-16T10:48:49Z</time>
      </trkpt>
      <trkpt lat="47.55917" lon="-2.29976">
        <ele>22.5</ele>
        <time>2025-01-16T10:48:50Z</time>
      </trkpt>
      <trkpt lat="47.55917" lon="-2.29976">
        <ele>22.5</ele>
        <time>2025-01-16T10:48:51Z</time>
      </trkpt>
      <trkpt lat="47.55917" lon="-2.29976">
        <ele>22.5</ele>
        <time>2025-01-16T10:48:52Z</time>
      </trkpt>
      <trkpt lat="47.55917" lon="-2.29976">
        <ele>22.5</ele>
        <time>2025-01-16T10:48:53Z</time>
      </trkpt>
      <trkpt lat="47.55917" lon="-2.29976">
        <ele>22.5</ele>
        <time>2025-01-16T10:48:54Z</time>
      </trkpt>
      <trkpt lat="47.55917" lon="-2.29976">
        <ele>22.5</ele>
        <time>2025-01-16T10:48:55Z</time>
      </trkpt>
      <trkpt lat="47.55917" lon="-2.29976">
        <ele>22.5</ele>
        <time>2025-01-16T10:48:56Z</time>
      </trkpt>
      <trkpt lat="47.55917" lon="-2.29976">
        <ele>22.5</ele>
        <time>2025-01-16T10:48:57Z</time>
      </trkpt>
      <trkpt lat="47.55917" lon="-2.29976">
        <ele>22.5</ele>
        <time>2025-01-16T10:48:58Z</time>
      </trkpt>
      <trkpt lat="47.55917" lon="-2.29976">
        <ele>22.5</ele>
        <time>2025-01-16T10:48:59Z</time>
      </trkpt>
      <trkpt lat="47.55917" lon="-2.29976">
        <ele>22.5</ele>
        <time>2025-01-16T10:49:00Z</time>
      </trkpt>
      <trkpt lat="47.55917" lon="-2.29976">
        <ele>22.5</ele>
        <time>2025-01-16T10:49:01Z</time>
      </trkpt>
      <trkpt lat="47.55917" lon="-2.29976">
        <ele>22.5</ele>
        <time>2025-01-16T10:49:02Z</time>
      </trkpt>
      <trkpt lat="47.55917" lon="-2.29976">
        <ele>22.5</ele>
        <time>2025-01-16T10:49:03Z</time>
      </trkpt>
      <trkpt lat="47.55917" lon="-2.29976">
        <ele>22.5</ele>
        <time>2025-01-16T10:49:04Z</time>
      </trkpt>
      <trkpt lat="47.55917" lon="-2.29976">
        <ele>22.5</ele>
        <time>2025-01-16T10:49:05Z</time>
      </trkpt>
      <trkpt lat="47.55917" lon="-2.29976">
        <ele>22.5</ele>
        <time>2025-01-16T10:49:06Z</time>
      </trkpt>
      <trkpt lat="47.55917" lon="-2.29976">
        <ele>22.5</ele>
        <time>2025-01-16T10:49:07Z</time>
      </trkpt>
      <trkpt lat="47.55917" lon="-2.29976">
        <ele>22.5</ele>
        <time>2025-01-16T10:49:08Z</time>
      </trkpt>
      <trkpt lat="47.55917" lon="-2.29975">
        <ele>22.7</ele>
        <time>2025-01-16T10:49:09Z</time>
      </trkpt>
      <trkpt lat="47.55917" lon="-2.29975">
        <ele>22.7</ele>
        <time>2025-01-16T10:49:10Z</time>
      </trkpt>
      <trkpt lat="47.55917" lon="-2.29975">
        <ele>22.7</ele>
        <time>2025-01-16T10:49:11Z</time>
      </trkpt>
      <trkpt lat="47.55917" lon="-2.29975">
        <ele>22.7</ele>
        <time>2025-01-16T10:49:12Z</time>
      </trkpt>
      <trkpt lat="47.55917" lon="-2.29975">
        <ele>22.7</ele>
        <time>2025-01-16T10:49:13Z</time>
      </trkpt>
      <trkpt lat="47.55917" lon="-2.29975">
        <ele>22.7</ele>
        <time>2025-01-16T10:49:14Z</time>
      </trkpt>
      <trkpt lat="47.55917" lon="-2.29975">
        <ele>22.7</ele>
        <time>2025-01-16T10:49:15Z</time>
      </trkpt>
      <trkpt lat="47.55917" lon="-2.29975">
        <ele>22.7</ele>
        <time>2025-01-16T10:49:16Z</time>
      </trkpt>
      <trkpt lat="47.55917" lon="-2.29975">
        <ele>22.7</ele>
        <time>2025-01-16T10:49:17Z</time>
      </trkpt>
      <trkpt lat="47.55917" lon="-2.29975">
        <ele>22.7</ele>
        <time>2025-01-16T10:49:21Z</time>
      </trkpt>
      <trkpt lat="47.55917" lon="-2.29975">
        <ele>22.7</ele>
        <time>2025-01-16T10:49:22Z</time>
      </trkpt>
      <trkpt lat="47.55917" lon="-2.29975">
        <ele>22.7</ele>
        <time>2025-01-16T10:49:23Z</time>
      </trkpt>
      <trkpt lat="47.55917" lon="-2.29975">
        <ele>22.7</ele>
        <time>2025-01-16T10:49:24Z</time>
      </trkpt>
      <trkpt lat="47.55917" lon="-2.29975">
        <ele>22.7</ele>
        <time>2025-01-16T10:49:25Z</time>
      </trkpt>
      <trkpt lat="47.55917" lon="-2.29975">
        <ele>22.7</ele>
        <time>2025-01-16T10:49:26Z</time>
      </trkpt>
      <trkpt lat="47.55917" lon="-2.29975">
        <ele>22.7</ele>
        <time>2025-01-16T10:49:27Z</time>
      </trkpt>
      <trkpt lat="47.55917" lon="-2.29976">
        <ele>22.5</ele>
        <time>2025-01-16T10:49:28Z</time>
      </trkpt>
      <trkpt lat="47.55918" lon="-2.29975">
        <ele>22.9</ele>
        <time>2025-01-16T10:49:29Z</time>
      </trkpt>
      <trkpt lat="47.55918" lon="-2.29975">
        <ele>22.9</ele>
        <time>2025-01-16T10:49:30Z</time>
      </trkpt>
      <trkpt lat="47.55918" lon="-2.29975">
        <ele>22.9</ele>
        <time>2025-01-16T10:49:31Z</time>
      </trkpt>
      <trkpt lat="47.55918" lon="-2.29975">
        <ele>22.9</ele>
        <time>2025-01-16T10:49:32Z</time>
      </trkpt>
      <trkpt lat="47.55918" lon="-2.29975">
        <ele>22.9</ele>
        <time>2025-01-16T10:49:33Z</time>
      </trkpt>
      <trkpt lat="47.55918" lon="-2.29975">
        <ele>22.9</ele>
        <time>2025-01-16T10:49:34Z</time>
      </trkpt>
      <trkpt lat="47.55918" lon="-2.29975">
        <ele>22.9</ele>
        <time>2025-01-16T10:49:35Z</time>
      </trkpt>
      <trkpt lat="47.55918" lon="-2.29975">
        <ele>22.9</ele>
        <time>2025-01-16T10:49:36Z</time>
      </trkpt>
      <trkpt lat="47.55918" lon="-2.29975">
        <ele>22.9</ele>
        <time>2025-01-16T10:49:37Z</time>
      </trkpt>
      <trkpt lat="47.55918" lon="-2.29975">
        <ele>22.9</ele>
        <time>2025-01-16T10:49:38Z</time>
      </trkpt>
      <trkpt lat="47.55918" lon="-2.29975">
        <ele>22.9</ele>
        <time>2025-01-16T10:49:39Z</time>
      </trkpt>
      <trkpt lat="47.55918" lon="-2.29975">
        <ele>22.9</ele>
        <time>2025-01-16T10:49:40Z</time>
      </trkpt>
      <trkpt lat="47.55918" lon="-2.29975">
        <ele>22.9</ele>
        <time>2025-01-16T10:49:41Z</time>
      </trkpt>
      <trkpt lat="47.55918" lon="-2.29975">
        <ele>22.9</ele>
        <time>2025-01-16T10:49:42Z</time>
      </trkpt>
      <trkpt lat="47.55918" lon="-2.29975">
        <ele>22.9</ele>
        <time>2025-01-16T10:49:43Z</time>
      </trkpt>
      <trkpt lat="47.55918" lon="-2.29975">
        <ele>22.9</ele>
        <time>2025-01-16T10:49:44Z</time>
      </trkpt>
      <trkpt lat="47.55918" lon="-2.29974">
        <ele>23</ele>
        <time>2025-01-16T10:49:45Z</time>
      </trkpt>
      <trkpt lat="47.55918" lon="-2.29974">
        <ele>23</ele>
        <time>2025-01-16T10:49:46Z</time>
      </trkpt>
      <trkpt lat="47.55918" lon="-2.29974">
        <ele>23</ele>
        <time>2025-01-16T10:49:47Z</time>
      </trkpt>
      <trkpt lat="47.55918" lon="-2.29974">
        <ele>23</ele>
        <time>2025-01-16T10:49:48Z</time>
      </trkpt>
      <trkpt lat="47.55918" lon="-2.29974">
        <ele>23</ele>
        <time>2025-01-16T10:49:49Z</time>
      </trkpt>
      <trkpt lat="47.55918" lon="-2.29974">
        <ele>23</ele>
        <time>2025-01-16T10:49:50Z</time>
      </trkpt>
      <trkpt lat="47.55918" lon="-2.29974">
        <ele>23</ele>
        <time>2025-01-16T10:49:51Z</time>
      </trkpt>
      <trkpt lat="47.55919" lon="-2.29974">
        <ele>23.2</ele>
        <time>2025-01-16T10:49:52Z</time>
      </trkpt>
      <trkpt lat="47.55919" lon="-2.29974">
        <ele>23.2</ele>
        <time>2025-01-16T10:49:53Z</time>
      </trkpt>
      <trkpt lat="47.55919" lon="-2.29974">
        <ele>23.2</ele>
        <time>2025-01-16T10:49:54Z</time>
      </trkpt>
      <trkpt lat="47.55919" lon="-2.29974">
        <ele>23.2</ele>
        <time>2025-01-16T10:49:55Z</time>
      </trkpt>
      <trkpt lat="47.55919" lon="-2.29974">
        <ele>23.2</ele>
        <time>2025-01-16T10:49:56Z</time>
      </trkpt>
      <trkpt lat="47.55919" lon="-2.29974">
        <ele>23.2</ele>
        <time>2025-01-16T10:49:57Z</time>
      </trkpt>
      <trkpt lat="47.55919" lon="-2.29974">
        <ele>23.2</ele>
        <time>2025-01-16T10:49:58Z</time>
      </trkpt>
      <trkpt lat="47.5592" lon="-2.29973">
        <ele>23.5</ele>
        <time>2025-01-16T10:49:59Z</time>
      </trkpt>
      <trkpt lat="47.5592" lon="-2.29973">
        <ele>23.5</ele>
        <time>2025-01-16T10:50:00Z</time>
      </trkpt>
      <trkpt lat="47.5592" lon="-2.29972">
        <ele>23.6</ele>
        <time>2025-01-16T10:50:01Z</time>
      </trkpt>
      <trkpt lat="47.55921" lon="-2.29972">
        <ele>23.8</ele>
        <time>2025-01-16T10:50:02Z</time>
      </trkpt>
      <trkpt lat="47.55921" lon="-2.29971">
        <ele>23.7</ele>
        <time>2025-01-16T10:50:03Z</time>
      </trkpt>
      <trkpt lat="47.55921" lon="-2.2997">
        <ele>23.7</ele>
        <time>2025-01-16T10:50:04Z</time>
      </trkpt>
      <trkpt lat="47.55921" lon="-2.2997">
        <ele>23.7</ele>
        <time>2025-01-16T10:50:05Z</time>
      </trkpt>
      <trkpt lat="47.55921" lon="-2.29969">
        <ele>23.7</ele>
        <time>2025-01-16T10:50:06Z</time>
      </trkpt>
      <trkpt lat="47.55921" lon="-2.29969">
        <ele>23.7</ele>
        <time>2025-01-16T10:50:07Z</time>
      </trkpt>
      <trkpt lat="47.55921" lon="-2.29969">
        <ele>23.7</ele>
        <time>2025-01-16T10:50:08Z</time>
      </trkpt>
      <trkpt lat="47.55921" lon="-2.29968">
        <ele>23.7</ele>
        <time>2025-01-16T10:50:09Z</time>
      </trkpt>
      <trkpt lat="47.55921" lon="-2.29968">
        <ele>23.7</ele>
        <time>2025-01-16T10:50:10Z</time>
      </trkpt>
      <trkpt lat="47.55921" lon="-2.29968">
        <ele>23.7</ele>
        <time>2025-01-16T10:50:11Z</time>
      </trkpt>
      <trkpt lat="47.55921" lon="-2.29967">
        <ele>23.6</ele>
        <time>2025-01-16T10:50:12Z</time>
      </trkpt>
      <trkpt lat="47.55921" lon="-2.29967">
        <ele>23.6</ele>
        <time>2025-01-16T10:50:13Z</time>
      </trkpt>
      <trkpt lat="47.55921" lon="-2.29967">
        <ele>23.6</ele>
        <time>2025-01-16T10:50:14Z</time>
      </trkpt>
      <trkpt lat="47.55922" lon="-2.29967">
        <ele>23.8</ele>
        <time>2025-01-16T10:50:15Z</time>
      </trkpt>
      <trkpt lat="47.55922" lon="-2.29967">
        <ele>23.8</ele>
        <time>2025-01-16T10:50:16Z</time>
      </trkpt>
      <trkpt lat="47.55922" lon="-2.29967">
        <ele>23.8</ele>
        <time>2025-01-16T10:50:17Z</time>
      </trkpt>
      <trkpt lat="47.55922" lon="-2.29967">
        <ele>23.8</ele>
        <time>2025-01-16T10:50:18Z</time>
      </trkpt>
      <trkpt lat="47.55922" lon="-2.29967">
        <ele>23.8</ele>
        <time>2025-01-16T10:50:19Z</time>
      </trkpt>
      <trkpt lat="47.55922" lon="-2.29968">
        <ele>23.8</ele>
        <time>2025-01-16T10:50:20Z</time>
      </trkpt>
      <trkpt lat="47.55922" lon="-2.29968">
        <ele>23.8</ele>
        <time>2025-01-16T10:50:21Z</time>
      </trkpt>
      <trkpt lat="47.55922" lon="-2.29967">
        <ele>23.8</ele>
        <time>2025-01-16T10:50:22Z</time>
      </trkpt>
      <trkpt lat="47.55922" lon="-2.29968">
        <ele>23.8</ele>
        <time>2025-01-16T10:50:23Z</time>
      </trkpt>
      <trkpt lat="47.55921" lon="-2.29968">
        <ele>23.7</ele>
        <time>2025-01-16T10:50:24Z</time>
      </trkpt>
      <trkpt lat="47.55921" lon="-2.29969">
        <ele>23.7</ele>
        <time>2025-01-16T10:50:25Z</time>
      </trkpt>
      <trkpt lat="47.55921" lon="-2.2997">
        <ele>23.7</ele>
        <time>2025-01-16T10:50:26Z</time>
      </trkpt>
      <trkpt lat="47.55921" lon="-2.29971">
        <ele>23.7</ele>
        <time>2025-01-16T10:50:27Z</time>
      </trkpt>
      <trkpt lat="47.5592" lon="-2.29972">
        <ele>23.6</ele>
        <time>2025-01-16T10:50:28Z</time>
      </trkpt>
      <trkpt lat="47.5592" lon="-2.29973">
        <ele>23.5</ele>
        <time>2025-01-16T10:50:29Z</time>
      </trkpt>
      <trkpt lat="47.5592" lon="-2.29974">
        <ele>23.4</ele>
        <time>2025-01-16T10:50:30Z</time>
      </trkpt>
      <trkpt lat="47.5592" lon="-2.29974">
        <ele>23.4</ele>
        <time>2025-01-16T10:50:31Z</time>
      </trkpt>
      <trkpt lat="47.5592" lon="-2.29975">
        <ele>23.2</ele>
        <time>2025-01-16T10:50:32Z</time>
      </trkpt>
      <trkpt lat="47.5592" lon="-2.29976">
        <ele>23.1</ele>
        <time>2025-01-16T10:50:33Z</time>
      </trkpt>
      <trkpt lat="47.5592" lon="-2.29976">
        <ele>23.1</ele>
        <time>2025-01-16T10:50:34Z</time>
      </trkpt>
      <trkpt lat="47.5592" lon="-2.29976">
        <ele>23.1</ele>
        <time>2025-01-16T10:50:35Z</time>
      </trkpt>
      <trkpt lat="47.5592" lon="-2.29976">
        <ele>23.1</ele>
        <time>2025-01-16T10:50:36Z</time>
      </trkpt>
      <trkpt lat="47.55919" lon="-2.29976">
        <ele>22.9</ele>
        <time>2025-01-16T10:50:37Z</time>
      </trkpt>
      <trkpt lat="47.55919" lon="-2.29976">
        <ele>22.9</ele>
        <time>2025-01-16T10:50:38Z</time>
      </trkpt>
      <trkpt lat="47.55919" lon="-2.29975">
        <ele>23</ele>
        <time>2025-01-16T10:50:39Z</time>
      </trkpt>
      <trkpt lat="47.55919" lon="-2.29975">
        <ele>23</ele>
        <time>2025-01-16T10:50:40Z</time>
      </trkpt>
      <trkpt lat="47.55919" lon="-2.29976">
        <ele>22.9</ele>
        <time>2025-01-16T10:50:41Z</time>
      </trkpt>
      <trkpt lat="47.55919" lon="-2.29976">
        <ele>22.9</ele>
        <time>2025-01-16T10:50:42Z</time>
      </trkpt>
      <trkpt lat="47.55919" lon="-2.29976">
        <ele>22.9</ele>
        <time>2025-01-16T10:50:43Z</time>
      </trkpt>
      <trkpt lat="47.55919" lon="-2.29976">
        <ele>22.9</ele>
        <time>2025-01-16T10:50:44Z</time>
      </trkpt>
      <trkpt lat="47.55919" lon="-2.29976">
        <ele>22.9</ele>
        <time>2025-01-16T10:50:45Z</time>
      </trkpt>
      <trkpt lat="47.55919" lon="-2.29976">
        <ele>22.9</ele>
        <time>2025-01-16T10:50:46Z</time>
      </trkpt>
      <trkpt lat="47.55919" lon="-2.29976">
        <ele>22.9</ele>
        <time>2025-01-16T10:50:47Z</time>
      </trkpt>
      <trkpt lat="47.55919" lon="-2.29977">
        <ele>22.8</ele>
        <time>2025-01-16T10:50:48Z</time>
      </trkpt>
      <trkpt lat="47.5592" lon="-2.29978">
        <ele>22.8</ele>
        <time>2025-01-16T10:50:49Z</time>
      </trkpt>
      <trkpt lat="47.55921" lon="-2.29979">
        <ele>22.9</ele>
        <time>2025-01-16T10:50:50Z</time>
      </trkpt>
      <trkpt lat="47.55922" lon="-2.29979">
        <ele>23.1</ele>
        <time>2025-01-16T10:50:51Z</time>
      </trkpt>
      <trkpt lat="47.55923" lon="-2.2998">
        <ele>23.2</ele>
        <time>2025-01-16T10:50:52Z</time>
      </trkpt>
      <trkpt lat="47.55924" lon="-2.29981">
        <ele>23.3</ele>
        <time>2025-01-16T10:50:53Z</time>
      </trkpt>
      <trkpt lat="47.55925" lon="-2.29982">
        <ele>23.4</ele>
        <time>2025-01-16T10:50:54Z</time>
      </trkpt>
      <trkpt lat="47.55925" lon="-2.29982">
        <ele>23.4</ele>
        <time>2025-01-16T10:50:55Z</time>
      </trkpt>
      <trkpt lat="47.55925" lon="-2.29984">
        <ele>23.2</ele>
        <time>2025-01-16T10:50:56Z</time>
      </trkpt>
      <trkpt lat="47.55925" lon="-2.29985">
        <ele>23.1</ele>
        <time>2025-01-16T10:50:57Z</time>
      </trkpt>
      <trkpt lat="47.55925" lon="-2.29987">
        <ele>22.9</ele>
        <time>2025-01-16T10:50:58Z</time>
      </trkpt>
      <trkpt lat="47.55925" lon="-2.29988">
        <ele>22.7</ele>
        <time>2025-01-16T10:50:59Z</time>
      </trkpt>
      <trkpt lat="47.55925" lon="-2.29989">
        <ele>22.6</ele>
        <time>2025-01-16T10:51:00Z</time>
      </trkpt>
      <trkpt lat="47.55926" lon="-2.2999">
        <ele>22.8</ele>
        <time>2025-01-16T10:51:01Z</time>
      </trkpt>
      <trkpt lat="47.55927" lon="-2.29991">
        <ele>22.9</ele>
        <time>2025-01-16T10:51:02Z</time>
      </trkpt>
      <trkpt lat="47.55928" lon="-2.29992">
        <ele>23.1</ele>
        <time>2025-01-16T10:51:03Z</time>
      </trkpt>
      <trkpt lat="47.55929" lon="-2.29993">
        <ele>23.2</ele>
        <time>2025-01-16T10:51:04Z</time>
      </trkpt>
      <trkpt lat="47.55929" lon="-2.29995">
        <ele>23</ele>
        <time>2025-01-16T10:51:05Z</time>
      </trkpt>
      <trkpt lat="47.5593" lon="-2.29997">
        <ele>23.1</ele>
        <time>2025-01-16T10:51:06Z</time>
      </trkpt>
      <trkpt lat="47.5593" lon="-2.29998">
        <ele>23</ele>
        <time>2025-01-16T10:51:07Z</time>
      </trkpt>
      <trkpt lat="47.5593" lon="-2.3">
        <ele>22.8</ele>
        <time>2025-01-16T10:51:08Z</time>
      </trkpt>
      <trkpt lat="47.5593" lon="-2.30001">
        <ele>22.7</ele>
        <time>2025-01-16T10:51:09Z</time>
      </trkpt>
      <trkpt lat="47.55931" lon="-2.30002">
        <ele>22.8</ele>
        <time>2025-01-16T10:51:10Z</time>
      </trkpt>
      <trkpt lat="47.55931" lon="-2.30002">
        <ele>22.8</ele>
        <time>2025-01-16T10:51:11Z</time>
      </trkpt>
      <trkpt lat="47.55931" lon="-2.30003">
        <ele>22.6</ele>
        <time>2025-01-16T10:51:12Z</time>
      </trkpt>
      <trkpt lat="47.55932" lon="-2.30003">
        <ele>22.9</ele>
        <time>2025-01-16T10:51:13Z</time>
      </trkpt>
      <trkpt lat="47.55932" lon="-2.30005">
        <ele>22.5</ele>
        <time>2025-01-16T10:51:14Z</time>
      </trkpt>
      <trkpt lat="47.55933" lon="-2.30006">
        <ele>22.7</ele>
        <time>2025-01-16T10:51:15Z</time>
      </trkpt>
      <trkpt lat="47.55933" lon="-2.30007">
        <ele>22.5</ele>
        <time>2025-01-16T10:51:16Z</time>
      </trkpt>
      <trkpt lat="47.55933" lon="-2.30007">
        <ele>22.5</ele>
        <time>2025-01-16T10:51:17Z</time>
      </trkpt>
      <trkpt lat="47.55934" lon="-2.30008">
        <ele>22.6</ele>
        <time>2025-01-16T10:51:18Z</time>
      </trkpt>
      <trkpt lat="47.55934" lon="-2.30008">
        <ele>22.6</ele>
        <time>2025-01-16T10:51:19Z</time>
      </trkpt>
      <trkpt lat="47.55934" lon="-2.30008">
        <ele>22.6</ele>
        <time>2025-01-16T10:51:20Z</time>
      </trkpt>
      <trkpt lat="47.55935" lon="-2.30009">
        <ele>22.8</ele>
        <time>2025-01-16T10:51:21Z</time>
      </trkpt>
      <trkpt lat="47.55935" lon="-2.30011">
        <ele>22.4</ele>
        <time>2025-01-16T10:51:22Z</time>
      </trkpt>
      <trkpt lat="47.55935" lon="-2.30012">
        <ele>22.3</ele>
        <time>2025-01-16T10:51:23Z</time>
      </trkpt>
      <trkpt lat="47.55935" lon="-2.30013">
        <ele>22.1</ele>
        <time>2025-01-16T10:51:24Z</time>
      </trkpt>
      <trkpt lat="47.55936" lon="-2.30014">
        <ele>22.2</ele>
        <time>2025-01-16T10:51:25Z</time>
      </trkpt>
      <trkpt lat="47.55936" lon="-2.30015">
        <ele>22.1</ele>
        <time>2025-01-16T10:51:26Z</time>
      </trkpt>
      <trkpt lat="47.55937" lon="-2.30016">
        <ele>22.2</ele>
        <time>2025-01-16T10:51:27Z</time>
      </trkpt>
      <trkpt lat="47.55937" lon="-2.30016">
        <ele>22.2</ele>
        <time>2025-01-16T10:51:28Z</time>
      </trkpt>
      <trkpt lat="47.55937" lon="-2.30017">
        <ele>22.1</ele>
        <time>2025-01-16T10:51:29Z</time>
      </trkpt>
      <trkpt lat="47.55937" lon="-2.30018">
        <ele>21.9</ele>
        <time>2025-01-16T10:51:30Z</time>
      </trkpt>
      <trkpt lat="47.55937" lon="-2.30019">
        <ele>21.8</ele>
        <time>2025-01-16T10:51:31Z</time>
      </trkpt>
      <trkpt lat="47.55937" lon="-2.3002">
        <ele>21.6</ele>
        <time>2025-01-16T10:51:32Z</time>
      </trkpt>
      <trkpt lat="47.55938" lon="-2.30021">
        <ele>21.8</ele>
        <time>2025-01-16T10:51:33Z</time>
      </trkpt>
      <trkpt lat="47.55938" lon="-2.30023">
        <ele>21.4</ele>
        <time>2025-01-16T10:51:34Z</time>
      </trkpt>
      <trkpt lat="47.55939" lon="-2.30024">
        <ele>21.6</ele>
        <time>2025-01-16T10:51:35Z</time>
      </trkpt>
      <trkpt lat="47.5594" lon="-2.30026">
        <ele>21.7</ele>
        <time>2025-01-16T10:51:36Z</time>
      </trkpt>
      <trkpt lat="47.5594" lon="-2.30027">
        <ele>21.5</ele>
        <time>2025-01-16T10:51:37Z</time>
      </trkpt>
      <trkpt lat="47.55941" lon="-2.30029">
        <ele>21.6</ele>
        <time>2025-01-16T10:51:38Z</time>
      </trkpt>
      <trkpt lat="47.55943" lon="-2.30029">
        <ele>22.3</ele>
        <time>2025-01-16T10:51:39Z</time>
      </trkpt>
      <trkpt lat="47.55945" lon="-2.3003">
        <ele>22.8</ele>
        <time>2025-01-16T10:51:40Z</time>
      </trkpt>
      <trkpt lat="47.55946" lon="-2.3003">
        <ele>23.2</ele>
        <time>2025-01-16T10:51:41Z</time>
      </trkpt>
      <trkpt lat="47.55947" lon="-2.30031">
        <ele>23.4</ele>
        <time>2025-01-16T10:51:42Z</time>
      </trkpt>
      <trkpt lat="47.55947" lon="-2.30032">
        <ele>23.2</ele>
        <time>2025-01-16T10:51:43Z</time>
      </trkpt>
      <trkpt lat="47.55948" lon="-2.30033">
        <ele>23.4</ele>
        <time>2025-01-16T10:51:44Z</time>
      </trkpt>
      <trkpt lat="47.55948" lon="-2.30035">
        <ele>23</ele>
        <time>2025-01-16T10:51:45Z</time>
      </trkpt>
      <trkpt lat="47.55948" lon="-2.30036">
        <ele>22.8</ele>
        <time>2025-01-16T10:51:46Z</time>
      </trkpt>
      <trkpt lat="47.55949" lon="-2.30037">
        <ele>23</ele>
        <time>2025-01-16T10:51:47Z</time>
      </trkpt>
      <trkpt lat="47.5595" lon="-2.30039">
        <ele>23.1</ele>
        <time>2025-01-16T10:51:48Z</time>
      </trkpt>
      <trkpt lat="47.5595" lon="-2.3004">
        <ele>22.9</ele>
        <time>2025-01-16T10:51:49Z</time>
      </trkpt>
      <trkpt lat="47.55951" lon="-2.30042">
        <ele>22.9</ele>
        <time>2025-01-16T10:51:50Z</time>
      </trkpt>
      <trkpt lat="47.55951" lon="-2.30043">
        <ele>22.7</ele>
        <time>2025-01-16T10:51:51Z</time>
      </trkpt>
      <trkpt lat="47.55951" lon="-2.30045">
        <ele>22.4</ele>
        <time>2025-01-16T10:51:52Z</time>
      </trkpt>
      <trkpt lat="47.55952" lon="-2.30046">
        <ele>22.6</ele>
        <time>2025-01-16T10:51:53Z</time>
      </trkpt>
      <trkpt lat="47.55953" lon="-2.30047">
        <ele>22.8</ele>
        <time>2025-01-16T10:51:54Z</time>
      </trkpt>
      <trkpt lat="47.55954" lon="-2.30049">
        <ele>22.9</ele>
        <time>2025-01-16T10:51:55Z</time>
      </trkpt>
      <trkpt lat="47.55954" lon="-2.3005">
        <ele>22.7</ele>
        <time>2025-01-16T10:51:56Z</time>
      </trkpt>
      <trkpt lat="47.55954" lon="-2.30052">
        <ele>22.4</ele>
        <time>2025-01-16T10:51:57Z</time>
      </trkpt>
      <trkpt lat="47.55954" lon="-2.30054">
        <ele>22</ele>
        <time>2025-01-16T10:51:58Z</time>
      </trkpt>
      <trkpt lat="47.55954" lon="-2.30056">
        <ele>21.7</ele>
        <time>2025-01-16T10:51:59Z</time>
      </trkpt>
      <trkpt lat="47.55955" lon="-2.30057">
        <ele>22</ele>
        <time>2025-01-16T10:52:00Z</time>
      </trkpt>
      <trkpt lat="47.55955" lon="-2.30059">
        <ele>21.7</ele>
        <time>2025-01-16T10:52:01Z</time>
      </trkpt>
      <trkpt lat="47.55955" lon="-2.30061">
        <ele>21.4</ele>
        <time>2025-01-16T10:52:02Z</time>
      </trkpt>
      <trkpt lat="47.55955" lon="-2.30062">
        <ele>21.3</ele>
        <time>2025-01-16T10:52:03Z</time>
      </trkpt>
      <trkpt lat="47.55955" lon="-2.30064">
        <ele>21</ele>
        <time>2025-01-16T10:52:04Z</time>
      </trkpt>
      <trkpt lat="47.55956" lon="-2.30065">
        <ele>21.3</ele>
        <time>2025-01-16T10:52:05Z</time>
      </trkpt>
      <trkpt lat="47.55956" lon="-2.30066">
        <ele>21.1</ele>
        <time>2025-01-16T10:52:06Z</time>
      </trkpt>
      <trkpt lat="47.55956" lon="-2.30068">
        <ele>20.9</ele>
        <time>2025-01-16T10:52:07Z</time>
      </trkpt>
      <trkpt lat="47.55957" lon="-2.3007">
        <ele>20.9</ele>
        <time>2025-01-16T10:52:08Z</time>
      </trkpt>
      <trkpt lat="47.55958" lon="-2.30072">
        <ele>21</ele>
        <time>2025-01-16T10:52:09Z</time>
      </trkpt>
      <trkpt lat="47.55958" lon="-2.30075">
        <ele>20.6</ele>
        <time>2025-01-16T10:52:10Z</time>
      </trkpt>
      <trkpt lat="47.55958" lon="-2.30077">
        <ele>20.3</ele>
        <time>2025-01-16T10:52:11Z</time>
      </trkpt>
      <trkpt lat="47.55959" lon="-2.30078">
        <ele>20.5</ele>
        <time>2025-01-16T10:52:12Z</time>
      </trkpt>
      <trkpt lat="47.55959" lon="-2.3008">
        <ele>20.2</ele>
        <time>2025-01-16T10:52:13Z</time>
      </trkpt>
      <trkpt lat="47.5596" lon="-2.30081">
        <ele>20.4</ele>
        <time>2025-01-16T10:52:14Z</time>
      </trkpt>
      <trkpt lat="47.5596" lon="-2.30083">
        <ele>20.1</ele>
        <time>2025-01-16T10:52:15Z</time>
      </trkpt>
      <trkpt lat="47.55961" lon="-2.30085">
        <ele>20.2</ele>
        <time>2025-01-16T10:52:16Z</time>
      </trkpt>
      <trkpt lat="47.55961" lon="-2.30087">
        <ele>20</ele>
        <time>2025-01-16T10:52:17Z</time>
      </trkpt>
      <trkpt lat="47.55962" lon="-2.30089">
        <ele>20.2</ele>
        <time>2025-01-16T10:52:18Z</time>
      </trkpt>
      <trkpt lat="47.55963" lon="-2.30091">
        <ele>20.3</ele>
        <time>2025-01-16T10:52:19Z</time>
      </trkpt>
      <trkpt lat="47.55964" lon="-2.30093">
        <ele>20.4</ele>
        <time>2025-01-16T10:52:20Z</time>
      </trkpt>
      <trkpt lat="47.55964" lon="-2.30095">
        <ele>20.2</ele>
        <time>2025-01-16T10:52:21Z</time>
      </trkpt>
      <trkpt lat="47.55965" lon="-2.30096">
        <ele>20.3</ele>
        <time>2025-01-16T10:52:22Z</time>
      </trkpt>
      <trkpt lat="47.55966" lon="-2.30098">
        <ele>20.3</ele>
        <time>2025-01-16T10:52:23Z</time>
      </trkpt>
      <trkpt lat="47.55966" lon="-2.30101">
        <ele>20</ele>
        <time>2025-01-16T10:52:24Z</time>
      </trkpt>
      <trkpt lat="47.55967" lon="-2.30103">
        <ele>20</ele>
        <time>2025-01-16T10:52:25Z</time>
      </trkpt>
      <trkpt lat="47.55967" lon="-2.30105">
        <ele>19.8</ele>
        <time>2025-01-16T10:52:26Z</time>
      </trkpt>
      <trkpt lat="47.55967" lon="-2.30107">
        <ele>19.5</ele>
        <time>2025-01-16T10:52:27Z</time>
      </trkpt>
      <trkpt lat="47.55967" lon="-2.30109">
        <ele>19.3</ele>
        <time>2025-01-16T10:52:28Z</time>
      </trkpt>
      <trkpt lat="47.55968" lon="-2.30111">
        <ele>19.3</ele>
        <time>2025-01-16T10:52:29Z</time>
      </trkpt>
      <trkpt lat="47.55968" lon="-2.30112">
        <ele>19.2</ele>
        <time>2025-01-16T10:52:30Z</time>
      </trkpt>
      <trkpt lat="47.55969" lon="-2.30115">
        <ele>19.2</ele>
        <time>2025-01-16T10:52:31Z</time>
      </trkpt>
      <trkpt lat="47.55969" lon="-2.30116">
        <ele>19.2</ele>
        <time>2025-01-16T10:52:32Z</time>
      </trkpt>
      <trkpt lat="47.55969" lon="-2.30118">
        <ele>19.1</ele>
        <time>2025-01-16T10:52:33Z</time>
      </trkpt>
      <trkpt lat="47.55969" lon="-2.30119">
        <ele>19</ele>
        <time>2025-01-16T10:52:34Z</time>
      </trkpt>
      <trkpt lat="47.5597" lon="-2.3012">
        <ele>19.1</ele>
        <time>2025-01-16T10:52:35Z</time>
      </trkpt>
      <trkpt lat="47.5597" lon="-2.30121">
        <ele>19</ele>
        <time>2025-01-16T10:52:36Z</time>
      </trkpt>
      <trkpt lat="47.55971" lon="-2.30123">
        <ele>19</ele>
        <time>2025-01-16T10:52:37Z</time>
      </trkpt>
      <trkpt lat="47.55972" lon="-2.30124">
        <ele>19.1</ele>
        <time>2025-01-16T10:52:38Z</time>
      </trkpt>
      <trkpt lat="47.55972" lon="-2.30125">
        <ele>19</ele>
        <time>2025-01-16T10:52:39Z</time>
      </trkpt>
      <trkpt lat="47.55973" lon="-2.30126">
        <ele>19.2</ele>
        <time>2025-01-16T10:52:40Z</time>
      </trkpt>
      <trkpt lat="47.55973" lon="-2.30127">
        <ele>19.1</ele>
        <time>2025-01-16T10:52:41Z</time>
      </trkpt>
      <trkpt lat="47.55973" lon="-2.30129">
        <ele>19</ele>
        <time>2025-01-16T10:52:42Z</time>
      </trkpt>
      <trkpt lat="47.55974" lon="-2.30132">
        <ele>19</ele>
        <time>2025-01-16T10:52:43Z</time>
      </trkpt>
      <trkpt lat="47.55975" lon="-2.30134">
        <ele>19.2</ele>
        <time>2025-01-16T10:52:44Z</time>
      </trkpt>
      <trkpt lat="47.55975" lon="-2.30136">
        <ele>19</ele>
        <time>2025-01-16T10:52:45Z</time>
      </trkpt>
      <trkpt lat="47.55975" lon="-2.30137">
        <ele>18.9</ele>
        <time>2025-01-16T10:52:46Z</time>
      </trkpt>
      <trkpt lat="47.55976" lon="-2.30139">
        <ele>19.1</ele>
        <time>2025-01-16T10:52:47Z</time>
      </trkpt>
      <trkpt lat="47.55976" lon="-2.30141">
        <ele>19.1</ele>
        <time>2025-01-16T10:52:48Z</time>
      </trkpt>
      <trkpt lat="47.55977" lon="-2.30143">
        <ele>19.4</ele>
        <time>2025-01-16T10:52:49Z</time>
      </trkpt>
      <trkpt lat="47.55978" lon="-2.30145">
        <ele>19.7</ele>
        <time>2025-01-16T10:52:50Z</time>
      </trkpt>
      <trkpt lat="47.55979" lon="-2.30146">
        <ele>20</ele>
        <time>2025-01-16T10:52:51Z</time>
      </trkpt>
      <trkpt lat="47.5598" lon="-2.30148">
        <ele>20.2</ele>
        <time>2025-01-16T10:52:52Z</time>
      </trkpt>
      <trkpt lat="47.55981" lon="-2.3015">
        <ele>20.4</ele>
        <time>2025-01-16T10:52:53Z</time>
      </trkpt>
      <trkpt lat="47.55981" lon="-2.30152">
        <ele>20.4</ele>
        <time>2025-01-16T10:52:54Z</time>
      </trkpt>
      <trkpt lat="47.55982" lon="-2.30154">
        <ele>20.6</ele>
        <time>2025-01-16T10:52:55Z</time>
      </trkpt>
      <trkpt lat="47.55983" lon="-2.30155">
        <ele>20.8</ele>
        <time>2025-01-16T10:52:56Z</time>
      </trkpt>
      <trkpt lat="47.55983" lon="-2.30156">
        <ele>20.8</ele>
        <time>2025-01-16T10:52:57Z</time>
      </trkpt>
      <trkpt lat="47.55984" lon="-2.30156">
        <ele>21</ele>
        <time>2025-01-16T10:52:58Z</time>
      </trkpt>
      <trkpt lat="47.55985" lon="-2.30157">
        <ele>21.1</ele>
        <time>2025-01-16T10:52:59Z</time>
      </trkpt>
      <trkpt lat="47.55986" lon="-2.30158">
        <ele>21.3</ele>
        <time>2025-01-16T10:53:00Z</time>
      </trkpt>
      <trkpt lat="47.55987" lon="-2.30158">
        <ele>21.5</ele>
        <time>2025-01-16T10:53:01Z</time>
      </trkpt>
      <trkpt lat="47.55987" lon="-2.30159">
        <ele>21.4</ele>
        <time>2025-01-16T10:53:02Z</time>
      </trkpt>
      <trkpt lat="47.55988" lon="-2.3016">
        <ele>21.6</ele>
        <time>2025-01-16T10:53:03Z</time>
      </trkpt>
      <trkpt lat="47.55988" lon="-2.30161">
        <ele>21.5</ele>
        <time>2025-01-16T10:53:04Z</time>
      </trkpt>
      <trkpt lat="47.55988" lon="-2.30162">
        <ele>21.5</ele>
        <time>2025-01-16T10:53:05Z</time>
      </trkpt>
      <trkpt lat="47.55989" lon="-2.30164">
        <ele>21.6</ele>
        <time>2025-01-16T10:53:06Z</time>
      </trkpt>
      <trkpt lat="47.55989" lon="-2.30164">
        <ele>21.6</ele>
        <time>2025-01-16T10:53:07Z</time>
      </trkpt>
      <trkpt lat="47.5599" lon="-2.30165">
        <ele>21.7</ele>
        <time>2025-01-16T10:53:08Z</time>
      </trkpt>
      <trkpt lat="47.5599" lon="-2.30166">
        <ele>21.6</ele>
        <time>2025-01-16T10:53:09Z</time>
      </trkpt>
      <trkpt lat="47.55991" lon="-2.30167">
        <ele>21.7</ele>
        <time>2025-01-16T10:53:10Z</time>
      </trkpt>
      <trkpt lat="47.55991" lon="-2.30169">
        <ele>21.7</ele>
        <time>2025-01-16T10:53:11Z</time>
      </trkpt>
      <trkpt lat="47.55992" lon="-2.30171">
        <ele>21.8</ele>
        <time>2025-01-16T10:53:12Z</time>
      </trkpt>
      <trkpt lat="47.55992" lon="-2.30172">
        <ele>21.7</ele>
        <time>2025-01-16T10:53:13Z</time>
      </trkpt>
      <trkpt lat="47.55993" lon="-2.30172">
        <ele>21.8</ele>
        <time>2025-01-16T10:53:14Z</time>
      </trkpt>
      <trkpt lat="47.55993" lon="-2.30173">
        <ele>21.8</ele>
        <time>2025-01-16T10:53:15Z</time>
      </trkpt>
      <trkpt lat="47.55994" lon="-2.30173">
        <ele>21.9</ele>
        <time>2025-01-16T10:53:16Z</time>
      </trkpt>
      <trkpt lat="47.55994" lon="-2.30174">
        <ele>21.9</ele>
        <time>2025-01-16T10:53:17Z</time>
      </trkpt>
      <trkpt lat="47.55995" lon="-2.30174">
        <ele>22</ele>
        <time>2025-01-16T10:53:18Z</time>
      </trkpt>
      <trkpt lat="47.55996" lon="-2.30175">
        <ele>22</ele>
        <time>2025-01-16T10:53:19Z</time>
      </trkpt>
      <trkpt lat="47.55997" lon="-2.30175">
        <ele>22.1</ele>
        <time>2025-01-16T10:53:20Z</time>
      </trkpt>
      <trkpt lat="47.55998" lon="-2.30176">
        <ele>22.2</ele>
        <time>2025-01-16T10:53:21Z</time>
      </trkpt>
      <trkpt lat="47.55999" lon="-2.30176">
        <ele>22.2</ele>
        <time>2025-01-16T10:53:22Z</time>
      </trkpt>
      <trkpt lat="47.55999" lon="-2.30176">
        <ele>22.2</ele>
        <time>2025-01-16T10:53:23Z</time>
      </trkpt>
      <trkpt lat="47.56" lon="-2.30178">
        <ele>22.2</ele>
        <time>2025-01-16T10:53:24Z</time>
      </trkpt>
      <trkpt lat="47.56001" lon="-2.30179">
        <ele>22.4</ele>
        <time>2025-01-16T10:53:25Z</time>
      </trkpt>
      <trkpt lat="47.56001" lon="-2.30181">
        <ele>22.3</ele>
        <time>2025-01-16T10:53:26Z</time>
      </trkpt>
      <trkpt lat="47.56002" lon="-2.30182">
        <ele>22.5</ele>
        <time>2025-01-16T10:53:27Z</time>
      </trkpt>
      <trkpt lat="47.56002" lon="-2.30183">
        <ele>22.4</ele>
        <time>2025-01-16T10:53:28Z</time>
      </trkpt>
      <trkpt lat="47.56002" lon="-2.30183">
        <ele>22.4</ele>
        <time>2025-01-16T10:53:29Z</time>
      </trkpt>
      <trkpt lat="47.56003" lon="-2.30184">
        <ele>22.6</ele>
        <time>2025-01-16T10:53:30Z</time>
      </trkpt>
      <trkpt lat="47.56004" lon="-2.30185">
        <ele>22.8</ele>
        <time>2025-01-16T10:53:31Z</time>
      </trkpt>
      <trkpt lat="47.56005" lon="-2.30186">
        <ele>23</ele>
        <time>2025-01-16T10:53:32Z</time>
      </trkpt>
      <trkpt lat="47.56005" lon="-2.30187">
        <ele>22.9</ele>
        <time>2025-01-16T10:53:33Z</time>
      </trkpt>
      <trkpt lat="47.56006" lon="-2.30189">
        <ele>23</ele>
        <time>2025-01-16T10:53:34Z</time>
      </trkpt>
      <trkpt lat="47.56006" lon="-2.30189">
        <ele>23</ele>
        <time>2025-01-16T10:53:35Z</time>
      </trkpt>
      <trkpt lat="47.56006" lon="-2.30188">
        <ele>23.1</ele>
        <time>2025-01-16T10:53:36Z</time>
      </trkpt>
      <trkpt lat="47.56006" lon="-2.30188">
        <ele>23.1</ele>
        <time>2025-01-16T10:53:37Z</time>
      </trkpt>
      <trkpt lat="47.56006" lon="-2.30188">
        <ele>23.1</ele>
        <time>2025-01-16T10:53:38Z</time>
      </trkpt>
      <trkpt lat="47.56006" lon="-2.30188">
        <ele>23.1</ele>
        <time>2025-01-16T10:53:39Z</time>
      </trkpt>
      <trkpt lat="47.56006" lon="-2.30189">
        <ele>23</ele>
        <time>2025-01-16T10:53:40Z</time>
      </trkpt>
      <trkpt lat="47.56007" lon="-2.3019">
        <ele>23.2</ele>
        <time>2025-01-16T10:53:41Z</time>
      </trkpt>
      <trkpt lat="47.56008" lon="-2.30192">
        <ele>23.2</ele>
        <time>2025-01-16T10:53:42Z</time>
      </trkpt>
      <trkpt lat="47.56009" lon="-2.30193">
        <ele>23.4</ele>
        <time>2025-01-16T10:53:43Z</time>
      </trkpt>
      <trkpt lat="47.56009" lon="-2.30195">
        <ele>23.3</ele>
        <time>2025-01-16T10:53:44Z</time>
      </trkpt>
      <trkpt lat="47.56011" lon="-2.30195">
        <ele>23.8</ele>
        <time>2025-01-16T10:53:45Z</time>
      </trkpt>
      <trkpt lat="47.56011" lon="-2.30196">
        <ele>23.7</ele>
        <time>2025-01-16T10:53:46Z</time>
      </trkpt>
      <trkpt lat="47.56012" lon="-2.30197">
        <ele>24</ele>
        <time>2025-01-16T10:53:47Z</time>
      </trkpt>
      <trkpt lat="47.56013" lon="-2.30199">
        <ele>24.1</ele>
        <time>2025-01-16T10:53:48Z</time>
      </trkpt>
      <trkpt lat="47.56014" lon="-2.30201">
        <ele>24.3</ele>
        <time>2025-01-16T10:53:49Z</time>
      </trkpt>
      <trkpt lat="47.56015" lon="-2.30202">
        <ele>24.5</ele>
        <time>2025-01-16T10:53:50Z</time>
      </trkpt>
      <trkpt lat="47.56016" lon="-2.30203">
        <ele>24.6</ele>
        <time>2025-01-16T10:53:51Z</time>
      </trkpt>
      <trkpt lat="47.56017" lon="-2.30205">
        <ele>24.7</ele>
        <time>2025-01-16T10:53:52Z</time>
      </trkpt>
      <trkpt lat="47.56018" lon="-2.30207">
        <ele>24.8</ele>
        <time>2025-01-16T10:53:53Z</time>
      </trkpt>
      <trkpt lat="47.56019" lon="-2.30209">
        <ele>24.9</ele>
        <time>2025-01-16T10:53:54Z</time>
      </trkpt>
      <trkpt lat="47.5602" lon="-2.3021">
        <ele>25</ele>
        <time>2025-01-16T10:53:55Z</time>
      </trkpt>
      <trkpt lat="47.56021" lon="-2.30211">
        <ele>25.1</ele>
        <time>2025-01-16T10:53:56Z</time>
      </trkpt>
      <trkpt lat="47.56022" lon="-2.30212">
        <ele>25.2</ele>
        <time>2025-01-16T10:53:57Z</time>
      </trkpt>
      <trkpt lat="47.56023" lon="-2.30213">
        <ele>25.3</ele>
        <time>2025-01-16T10:53:58Z</time>
      </trkpt>
      <trkpt lat="47.56024" lon="-2.30214">
        <ele>25.3</ele>
        <time>2025-01-16T10:53:59Z</time>
      </trkpt>
      <trkpt lat="47.56025" lon="-2.30214">
        <ele>25.5</ele>
        <time>2025-01-16T10:54:00Z</time>
      </trkpt>
      <trkpt lat="47.56026" lon="-2.30214">
        <ele>25.6</ele>
        <time>2025-01-16T10:54:01Z</time>
      </trkpt>
      <trkpt lat="47.56027" lon="-2.30215">
        <ele>25.7</ele>
        <time>2025-01-16T10:54:02Z</time>
      </trkpt>
      <trkpt lat="47.56028" lon="-2.30216">
        <ele>25.8</ele>
        <time>2025-01-16T10:54:03Z</time>
      </trkpt>
      <trkpt lat="47.56028" lon="-2.30217">
        <ele>25.6</ele>
        <time>2025-01-16T10:54:04Z</time>
      </trkpt>
      <trkpt lat="47.56029" lon="-2.30217">
        <ele>26</ele>
        <time>2025-01-16T10:54:05Z</time>
      </trkpt>
      <trkpt lat="47.56031" lon="-2.30218">
        <ele>26.6</ele>
        <time>2025-01-16T10:54:06Z</time>
      </trkpt>
      <trkpt lat="47.56031" lon="-2.30219">
        <ele>26.5</ele>
        <time>2025-01-16T10:54:07Z</time>
      </trkpt>
      <trkpt lat="47.56032" lon="-2.30219">
        <ele>26.9</ele>
        <time>2025-01-16T10:54:08Z</time>
      </trkpt>
      <trkpt lat="47.56032" lon="-2.30221">
        <ele>26.6</ele>
        <time>2025-01-16T10:54:09Z</time>
      </trkpt>
      <trkpt lat="47.56033" lon="-2.30223">
        <ele>26.8</ele>
        <time>2025-01-16T10:54:10Z</time>
      </trkpt>
      <trkpt lat="47.56033" lon="-2.30224">
        <ele>26.8</ele>
        <time>2025-01-16T10:54:11Z</time>
      </trkpt>
      <trkpt lat="47.56034" lon="-2.30226">
        <ele>27</ele>
        <time>2025-01-16T10:54:12Z</time>
      </trkpt>
      <trkpt lat="47.56034" lon="-2.30227">
        <ele>27</ele>
        <time>2025-01-16T10:54:13Z</time>
      </trkpt>
      <trkpt lat="47.56034" lon="-2.30228">
        <ele>26.9</ele>
        <time>2025-01-16T10:54:14Z</time>
      </trkpt>
      <trkpt lat="47.56035" lon="-2.30229">
        <ele>27.2</ele>
        <time>2025-01-16T10:54:15Z</time>
      </trkpt>
      <trkpt lat="47.56035" lon="-2.3023">
        <ele>27.2</ele>
        <time>2025-01-16T10:54:16Z</time>
      </trkpt>
      <trkpt lat="47.56036" lon="-2.30232">
        <ele>27.4</ele>
        <time>2025-01-16T10:54:17Z</time>
      </trkpt>
      <trkpt lat="47.56036" lon="-2.30233">
        <ele>27.3</ele>
        <time>2025-01-16T10:54:18Z</time>
      </trkpt>
      <trkpt lat="47.56037" lon="-2.30234">
        <ele>27.6</ele>
        <time>2025-01-16T10:54:19Z</time>
      </trkpt>
      <trkpt lat="47.56038" lon="-2.30236">
        <ele>27.8</ele>
        <time>2025-01-16T10:54:20Z</time>
      </trkpt>
      <trkpt lat="47.56038" lon="-2.30237">
        <ele>27.8</ele>
        <time>2025-01-16T10:54:21Z</time>
      </trkpt>
      <trkpt lat="47.56039" lon="-2.30238">
        <ele>28</ele>
        <time>2025-01-16T10:54:22Z</time>
      </trkpt>
      <trkpt lat="47.5604" lon="-2.30239">
        <ele>28.3</ele>
        <time>2025-01-16T10:54:23Z</time>
      </trkpt>
      <trkpt lat="47.56041" lon="-2.3024">
        <ele>28.5</ele>
        <time>2025-01-16T10:54:24Z</time>
      </trkpt>
      <trkpt lat="47.56041" lon="-2.30241">
        <ele>28.4</ele>
        <time>2025-01-16T10:54:25Z</time>
      </trkpt>
      <trkpt lat="47.56042" lon="-2.30242">
        <ele>28.7</ele>
        <time>2025-01-16T10:54:26Z</time>
      </trkpt>
      <trkpt lat="47.56043" lon="-2.30243">
        <ele>28.9</ele>
        <time>2025-01-16T10:54:27Z</time>
      </trkpt>
      <trkpt lat="47.56044" lon="-2.30245">
        <ele>29.1</ele>
        <time>2025-01-16T10:54:28Z</time>
      </trkpt>
      <trkpt lat="47.56045" lon="-2.30246">
        <ele>29.3</ele>
        <time>2025-01-16T10:54:29Z</time>
      </trkpt>
      <trkpt lat="47.56046" lon="-2.30248">
        <ele>29.4</ele>
        <time>2025-01-16T10:54:30Z</time>
      </trkpt>
      <trkpt lat="47.56046" lon="-2.3025">
        <ele>29.2</ele>
        <time>2025-01-16T10:54:31Z</time>
      </trkpt>
      <trkpt lat="47.56046" lon="-2.30252">
        <ele>29.1</ele>
        <time>2025-01-16T10:54:32Z</time>
      </trkpt>
      <trkpt lat="47.56047" lon="-2.30253">
        <ele>29.2</ele>
        <time>2025-01-16T10:54:33Z</time>
      </trkpt>
      <trkpt lat="47.56047" lon="-2.30255">
        <ele>29</ele>
        <time>2025-01-16T10:54:34Z</time>
      </trkpt>
      <trkpt lat="47.56048" lon="-2.30256">
        <ele>29.2</ele>
        <time>2025-01-16T10:54:35Z</time>
      </trkpt>
      <trkpt lat="47.56048" lon="-2.30258">
        <ele>29</ele>
        <time>2025-01-16T10:54:36Z</time>
      </trkpt>
      <trkpt lat="47.56049" lon="-2.30259">
        <ele>29.1</ele>
        <time>2025-01-16T10:54:37Z</time>
      </trkpt>
      <trkpt lat="47.5605" lon="-2.30261">
        <ele>29.1</ele>
        <time>2025-01-16T10:54:38Z</time>
      </trkpt>
      <trkpt lat="47.56051" lon="-2.30262">
        <ele>29.2</ele>
        <time>2025-01-16T10:54:39Z</time>
      </trkpt>
      <trkpt lat="47.56052" lon="-2.30264">
        <ele>29.2</ele>
        <time>2025-01-16T10:54:40Z</time>
      </trkpt>
      <trkpt lat="47.56052" lon="-2.30266">
        <ele>29</ele>
        <time>2025-01-16T10:54:41Z</time>
      </trkpt>
      <trkpt lat="47.56053" lon="-2.30268">
        <ele>28.9</ele>
        <time>2025-01-16T10:54:42Z</time>
      </trkpt>
      <trkpt lat="47.56053" lon="-2.3027">
        <ele>28.6</ele>
        <time>2025-01-16T10:54:43Z</time>
      </trkpt>
      <trkpt lat="47.56054" lon="-2.30272">
        <ele>28.6</ele>
        <time>2025-01-16T10:54:44Z</time>
      </trkpt>
      <trkpt lat="47.56054" lon="-2.30274">
        <ele>28.3</ele>
        <time>2025-01-16T10:54:45Z</time>
      </trkpt>
      <trkpt lat="47.56055" lon="-2.30275">
        <ele>28.3</ele>
        <time>2025-01-16T10:54:46Z</time>
      </trkpt>
      <trkpt lat="47.56056" lon="-2.30277">
        <ele>28.3</ele>
        <time>2025-01-16T10:54:47Z</time>
      </trkpt>
      <trkpt lat="47.56057" lon="-2.30278">
        <ele>28.6</ele>
        <time>2025-01-16T10:54:48Z</time>
      </trkpt>
      <trkpt lat="47.56057" lon="-2.3028">
        <ele>28.6</ele>
        <time>2025-01-16T10:54:49Z</time>
      </trkpt>
      <trkpt lat="47.56058" lon="-2.30282">
        <ele>29.1</ele>
        <time>2025-01-16T10:54:50Z</time>
      </trkpt>
      <trkpt lat="47.56058" lon="-2.30284">
        <ele>29.2</ele>
        <time>2025-01-16T10:54:51Z</time>
      </trkpt>
      <trkpt lat="47.56058" lon="-2.30285">
        <ele>29.2</ele>
        <time>2025-01-16T10:54:52Z</time>
      </trkpt>
      <trkpt lat="47.56058" lon="-2.30287">
        <ele>29.2</ele>
        <time>2025-01-16T10:54:53Z</time>
      </trkpt>
      <trkpt lat="47.56059" lon="-2.30289">
        <ele>29.7</ele>
        <time>2025-01-16T10:54:54Z</time>
      </trkpt>
      <trkpt lat="47.56059" lon="-2.30291">
        <ele>29.7</ele>
        <time>2025-01-16T10:54:55Z</time>
      </trkpt>
      <trkpt lat="47.56061" lon="-2.30292">
        <ele>30.5</ele>
        <time>2025-01-16T10:54:56Z</time>
      </trkpt>
      <trkpt lat="47.56061" lon="-2.30294">
        <ele>30.5</ele>
        <time>2025-01-16T10:54:57Z</time>
      </trkpt>
      <trkpt lat="47.56062" lon="-2.30296">
        <ele>30.9</ele>
        <time>2025-01-16T10:54:58Z</time>
      </trkpt>
      <trkpt lat="47.56063" lon="-2.30298">
        <ele>31.3</ele>
        <time>2025-01-16T10:54:59Z</time>
      </trkpt>
      <trkpt lat="47.56063" lon="-2.30299">
        <ele>31.3</ele>
        <time>2025-01-16T10:55:00Z</time>
      </trkpt>
      <trkpt lat="47.56063" lon="-2.30301">
        <ele>31.3</ele>
        <time>2025-01-16T10:55:01Z</time>
      </trkpt>
      <trkpt lat="47.56063" lon="-2.30303">
        <ele>31.4</ele>
        <time>2025-01-16T10:55:02Z</time>
      </trkpt>
      <trkpt lat="47.56063" lon="-2.30305">
        <ele>31.4</ele>
        <time>2025-01-16T10:55:03Z</time>
      </trkpt>
      <trkpt lat="47.56063" lon="-2.30307">
        <ele>31.4</ele>
        <time>2025-01-16T10:55:04Z</time>
      </trkpt>
      <trkpt lat="47.56063" lon="-2.30308">
        <ele>31.3</ele>
        <time>2025-01-16T10:55:05Z</time>
      </trkpt>
      <trkpt lat="47.56063" lon="-2.30309">
        <ele>31.3</ele>
        <time>2025-01-16T10:55:06Z</time>
      </trkpt>
      <trkpt lat="47.56063" lon="-2.3031">
        <ele>31.3</ele>
        <time>2025-01-16T10:55:07Z</time>
      </trkpt>
      <trkpt lat="47.56063" lon="-2.30312">
        <ele>31.2</ele>
        <time>2025-01-16T10:55:08Z</time>
      </trkpt>
      <trkpt lat="47.56064" lon="-2.30313">
        <ele>31.5</ele>
        <time>2025-01-16T10:55:09Z</time>
      </trkpt>
      <trkpt lat="47.56064" lon="-2.30315">
        <ele>31.5</ele>
        <time>2025-01-16T10:55:10Z</time>
      </trkpt>
      <trkpt lat="47.56064" lon="-2.30317">
        <ele>31.4</ele>
        <time>2025-01-16T10:55:11Z</time>
      </trkpt>
      <trkpt lat="47.56064" lon="-2.30319">
        <ele>31.4</ele>
        <time>2025-01-16T10:55:12Z</time>
      </trkpt>
      <trkpt lat="47.56064" lon="-2.30321">
        <ele>31.3</ele>
        <time>2025-01-16T10:55:13Z</time>
      </trkpt>
      <trkpt lat="47.56064" lon="-2.30323">
        <ele>31.3</ele>
        <time>2025-01-16T10:55:14Z</time>
      </trkpt>
      <trkpt lat="47.56063" lon="-2.30325">
        <ele>30.9</ele>
        <time>2025-01-16T10:55:15Z</time>
      </trkpt>
      <trkpt lat="47.56063" lon="-2.30326">
        <ele>30.9</ele>
        <time>2025-01-16T10:55:16Z</time>
      </trkpt>
      <trkpt lat="47.56062" lon="-2.30328">
        <ele>30.5</ele>
        <time>2025-01-16T10:55:17Z</time>
      </trkpt>
      <trkpt lat="47.56062" lon="-2.3033">
        <ele>30.4</ele>
        <time>2025-01-16T10:55:18Z</time>
      </trkpt>
      <trkpt lat="47.56062" lon="-2.30331">
        <ele>30.4</ele>
        <time>2025-01-16T10:55:19Z</time>
      </trkpt>
      <trkpt lat="47.56062" lon="-2.30333">
        <ele>30.3</ele>
        <time>2025-01-16T10:55:20Z</time>
      </trkpt>
      <trkpt lat="47.56062" lon="-2.30334">
        <ele>30.3</ele>
        <time>2025-01-16T10:55:21Z</time>
      </trkpt>
      <trkpt lat="47.56062" lon="-2.30335">
        <ele>30.4</ele>
        <time>2025-01-16T10:55:22Z</time>
      </trkpt>
      <trkpt lat="47.56061" lon="-2.30338">
        <ele>30.1</ele>
        <time>2025-01-16T10:55:23Z</time>
      </trkpt>
      <trkpt lat="47.56061" lon="-2.3034">
        <ele>30.2</ele>
        <time>2025-01-16T10:55:24Z</time>
      </trkpt>
      <trkpt lat="47.5606" lon="-2.30343">
        <ele>29.9</ele>
        <time>2025-01-16T10:55:25Z</time>
      </trkpt>
      <trkpt lat="47.56059" lon="-2.30346">
        <ele>29.6</ele>
        <time>2025-01-16T10:55:26Z</time>
      </trkpt>
      <trkpt lat="47.56058" lon="-2.30348">
        <ele>29.4</ele>
        <time>2025-01-16T10:55:27Z</time>
      </trkpt>
      <trkpt lat="47.56058" lon="-2.3035">
        <ele>29.4</ele>
        <time>2025-01-16T10:55:28Z</time>
      </trkpt>
      <trkpt lat="47.56058" lon="-2.30352">
        <ele>29.5</ele>
        <time>2025-01-16T10:55:29Z</time>
      </trkpt>
      <trkpt lat="47.56058" lon="-2.30353">
        <ele>29.5</ele>
        <time>2025-01-16T10:55:30Z</time>
      </trkpt>
      <trkpt lat="47.56058" lon="-2.30354">
        <ele>29.6</ele>
        <time>2025-01-16T10:55:31Z</time>
      </trkpt>
      <trkpt lat="47.56058" lon="-2.30356">
        <ele>29.6</ele>
        <time>2025-01-16T10:55:32Z</time>
      </trkpt>
      <trkpt lat="47.56058" lon="-2.30357">
        <ele>29.7</ele>
        <time>2025-01-16T10:55:33Z</time>
      </trkpt>
      <trkpt lat="47.56058" lon="-2.30359">
        <ele>29.7</ele>
        <time>2025-01-16T10:55:34Z</time>
      </trkpt>
      <trkpt lat="47.56059" lon="-2.30361">
        <ele>30.1</ele>
        <time>2025-01-16T10:55:35Z</time>
      </trkpt>
      <trkpt lat="47.56059" lon="-2.30362">
        <ele>30.2</ele>
        <time>2025-01-16T10:55:36Z</time>
      </trkpt>
      <trkpt lat="47.56059" lon="-2.30363">
        <ele>30.2</ele>
        <time>2025-01-16T10:55:37Z</time>
      </trkpt>
      <trkpt lat="47.5606" lon="-2.30364">
        <ele>30.6</ele>
        <time>2025-01-16T10:55:38Z</time>
      </trkpt>
      <trkpt lat="47.5606" lon="-2.30365">
        <ele>30.6</ele>
        <time>2025-01-16T10:55:39Z</time>
      </trkpt>
      <trkpt lat="47.5606" lon="-2.30367">
        <ele>30.7</ele>
        <time>2025-01-16T10:55:40Z</time>
      </trkpt>
      <trkpt lat="47.56061" lon="-2.30368">
        <ele>31.1</ele>
        <time>2025-01-16T10:55:41Z</time>
      </trkpt>
      <trkpt lat="47.56061" lon="-2.30369">
        <ele>31.1</ele>
        <time>2025-01-16T10:55:42Z</time>
      </trkpt>
      <trkpt lat="47.56061" lon="-2.30371">
        <ele>31.2</ele>
        <time>2025-01-16T10:55:43Z</time>
      </trkpt>
      <trkpt lat="47.56061" lon="-2.30372">
        <ele>31.2</ele>
        <time>2025-01-16T10:55:44Z</time>
      </trkpt>
      <trkpt lat="47.56061" lon="-2.30374">
        <ele>31.3</ele>
        <time>2025-01-16T10:55:45Z</time>
      </trkpt>
      <trkpt lat="47.56062" lon="-2.30374">
        <ele>31.7</ele>
        <time>2025-01-16T10:55:46Z</time>
      </trkpt>
      <trkpt lat="47.56062" lon="-2.30375">
        <ele>31.7</ele>
        <time>2025-01-16T10:55:47Z</time>
      </trkpt>
      <trkpt lat="47.56063" lon="-2.30376">
        <ele>32.1</ele>
        <time>2025-01-16T10:55:48Z</time>
      </trkpt>
      <trkpt lat="47.56063" lon="-2.30377">
        <ele>32.1</ele>
        <time>2025-01-16T10:55:49Z</time>
      </trkpt>
      <trkpt lat="47.56064" lon="-2.30379">
        <ele>32.6</ele>
        <time>2025-01-16T10:55:50Z</time>
      </trkpt>
      <trkpt lat="47.56064" lon="-2.30379">
        <ele>32.6</ele>
        <time>2025-01-16T10:55:51Z</time>
      </trkpt>
      <trkpt lat="47.56064" lon="-2.30379">
        <ele>32.6</ele>
        <time>2025-01-16T10:55:52Z</time>
      </trkpt>
      <trkpt lat="47.56065" lon="-2.30381">
        <ele>33</ele>
        <time>2025-01-16T10:55:53Z</time>
      </trkpt>
      <trkpt lat="47.56065" lon="-2.30382">
        <ele>33.1</ele>
        <time>2025-01-16T10:55:54Z</time>
      </trkpt>
      <trkpt lat="47.56065" lon="-2.30383">
        <ele>33.1</ele>
        <time>2025-01-16T10:55:55Z</time>
      </trkpt>
      <trkpt lat="47.56066" lon="-2.30384">
        <ele>33.5</ele>
        <time>2025-01-16T10:55:56Z</time>
      </trkpt>
      <trkpt lat="47.56066" lon="-2.30386">
        <ele>33.6</ele>
        <time>2025-01-16T10:55:57Z</time>
      </trkpt>
      <trkpt lat="47.56066" lon="-2.30387">
        <ele>33.7</ele>
        <time>2025-01-16T10:55:58Z</time>
      </trkpt>
      <trkpt lat="47.56066" lon="-2.30388">
        <ele>33.7</ele>
        <time>2025-01-16T10:55:59Z</time>
      </trkpt>
      <trkpt lat="47.56067" lon="-2.30389">
        <ele>34.1</ele>
        <time>2025-01-16T10:56:00Z</time>
      </trkpt>
      <trkpt lat="47.56067" lon="-2.3039">
        <ele>34.1</ele>
        <time>2025-01-16T10:56:01Z</time>
      </trkpt>
      <trkpt lat="47.56067" lon="-2.30392">
        <ele>34.1</ele>
        <time>2025-01-16T10:56:02Z</time>
      </trkpt>
      <trkpt lat="47.56067" lon="-2.30393">
        <ele>34.1</ele>
        <time>2025-01-16T10:56:03Z</time>
      </trkpt>
      <trkpt lat="47.56067" lon="-2.30395">
        <ele>34.1</ele>
        <time>2025-01-16T10:56:04Z</time>
      </trkpt>
      <trkpt lat="47.56068" lon="-2.30397">
        <ele>34.5</ele>
        <time>2025-01-16T10:56:05Z</time>
      </trkpt>
      <trkpt lat="47.56068" lon="-2.30399">
        <ele>34.5</ele>
        <time>2025-01-16T10:56:06Z</time>
      </trkpt>
      <trkpt lat="47.56068" lon="-2.304">
        <ele>34.5</ele>
        <time>2025-01-16T10:56:07Z</time>
      </trkpt>
      <trkpt lat="47.56068" lon="-2.30401">
        <ele>34.5</ele>
        <time>2025-01-16T10:56:08Z</time>
      </trkpt>
      <trkpt lat="47.56069" lon="-2.30402">
        <ele>34.8</ele>
        <time>2025-01-16T10:56:09Z</time>
      </trkpt>
      <trkpt lat="47.56069" lon="-2.30403">
        <ele>34.8</ele>
        <time>2025-01-16T10:56:10Z</time>
      </trkpt>
      <trkpt lat="47.56069" lon="-2.30405">
        <ele>34.8</ele>
        <time>2025-01-16T10:56:11Z</time>
      </trkpt>
      <trkpt lat="47.56069" lon="-2.30406">
        <ele>34.8</ele>
        <time>2025-01-16T10:56:12Z</time>
      </trkpt>
      <trkpt lat="47.56069" lon="-2.30407">
        <ele>34.8</ele>
        <time>2025-01-16T10:56:13Z</time>
      </trkpt>
      <trkpt lat="47.56069" lon="-2.30408">
        <ele>34.8</ele>
        <time>2025-01-16T10:56:14Z</time>
      </trkpt>
      <trkpt lat="47.5607" lon="-2.3041">
        <ele>35.2</ele>
        <time>2025-01-16T10:56:15Z</time>
      </trkpt>
      <trkpt lat="47.5607" lon="-2.30412">
        <ele>35.2</ele>
        <time>2025-01-16T10:56:16Z</time>
      </trkpt>
      <trkpt lat="47.56071" lon="-2.30414">
        <ele>35.6</ele>
        <time>2025-01-16T10:56:17Z</time>
      </trkpt>
      <trkpt lat="47.56071" lon="-2.30416">
        <ele>35.6</ele>
        <time>2025-01-16T10:56:18Z</time>
      </trkpt>
      <trkpt lat="47.56072" lon="-2.30417">
        <ele>35.9</ele>
        <time>2025-01-16T10:56:19Z</time>
      </trkpt>
      <trkpt lat="47.56073" lon="-2.30419">
        <ele>36.2</ele>
        <time>2025-01-16T10:56:20Z</time>
      </trkpt>
      <trkpt lat="47.56073" lon="-2.30421">
        <ele>36.2</ele>
        <time>2025-01-16T10:56:21Z</time>
      </trkpt>
      <trkpt lat="47.56074" lon="-2.30422">
        <ele>36.5</ele>
        <time>2025-01-16T10:56:22Z</time>
      </trkpt>
      <trkpt lat="47.56074" lon="-2.30424">
        <ele>36.5</ele>
        <time>2025-01-16T10:56:23Z</time>
      </trkpt>
      <trkpt lat="47.56074" lon="-2.30424">
        <ele>36.5</ele>
        <time>2025-01-16T10:56:24Z</time>
      </trkpt>
      <trkpt lat="47.56075" lon="-2.30426">
        <ele>36.8</ele>
        <time>2025-01-16T10:56:25Z</time>
      </trkpt>
      <trkpt lat="47.56076" lon="-2.30427">
        <ele>37.1</ele>
        <time>2025-01-16T10:56:26Z</time>
      </trkpt>
      <trkpt lat="47.56076" lon="-2.30428">
        <ele>37.1</ele>
        <time>2025-01-16T10:56:27Z</time>
      </trkpt>
      <trkpt lat="47.56076" lon="-2.30429">
        <ele>37</ele>
        <time>2025-01-16T10:56:28Z</time>
      </trkpt>
      <trkpt lat="47.56077" lon="-2.3043">
        <ele>37.3</ele>
        <time>2025-01-16T10:56:29Z</time>
      </trkpt>
      <trkpt lat="47.56078" lon="-2.30432">
        <ele>37.6</ele>
        <time>2025-01-16T10:56:30Z</time>
      </trkpt>
      <trkpt lat="47.56078" lon="-2.30433">
        <ele>37.6</ele>
        <time>2025-01-16T10:56:31Z</time>
      </trkpt>
      <trkpt lat="47.56078" lon="-2.30435">
        <ele>37.5</ele>
        <time>2025-01-16T10:56:32Z</time>
      </trkpt>
      <trkpt lat="47.56078" lon="-2.30437">
        <ele>37.5</ele>
        <time>2025-01-16T10:56:33Z</time>
      </trkpt>
      <trkpt lat="47.56078" lon="-2.30439">
        <ele>37.4</ele>
        <time>2025-01-16T10:56:34Z</time>
      </trkpt>
      <trkpt lat="47.56078" lon="-2.30442">
        <ele>37.3</ele>
        <time>2025-01-16T10:56:35Z</time>
      </trkpt>
      <trkpt lat="47.56078" lon="-2.30444">
        <ele>37.3</ele>
        <time>2025-01-16T10:56:36Z</time>
      </trkpt>
      <trkpt lat="47.56078" lon="-2.30446">
        <ele>37.2</ele>
        <time>2025-01-16T10:56:37Z</time>
      </trkpt>
      <trkpt lat="47.56079" lon="-2.30448">
        <ele>37.4</ele>
        <time>2025-01-16T10:56:38Z</time>
      </trkpt>
      <trkpt lat="47.56079" lon="-2.3045">
        <ele>37.3</ele>
        <time>2025-01-16T10:56:39Z</time>
      </trkpt>
      <trkpt lat="47.56079" lon="-2.30451">
        <ele>37.2</ele>
        <time>2025-01-16T10:56:40Z</time>
      </trkpt>
      <trkpt lat="47.56079" lon="-2.30453">
        <ele>37.1</ele>
        <time>2025-01-16T10:56:41Z</time>
      </trkpt>
      <trkpt lat="47.5608" lon="-2.30455">
        <ele>37.3</ele>
        <time>2025-01-16T10:56:42Z</time>
      </trkpt>
      <trkpt lat="47.5608" lon="-2.30457">
        <ele>37.2</ele>
        <time>2025-01-16T10:56:43Z</time>
      </trkpt>
      <trkpt lat="47.56081" lon="-2.30459">
        <ele>37.3</ele>
        <time>2025-01-16T10:56:44Z</time>
      </trkpt>
      <trkpt lat="47.56081" lon="-2.3046">
        <ele>37.3</ele>
        <time>2025-01-16T10:56:45Z</time>
      </trkpt>
      <trkpt lat="47.56081" lon="-2.30461">
        <ele>37.2</ele>
        <time>2025-01-16T10:56:46Z</time>
      </trkpt>
      <trkpt lat="47.56082" lon="-2.30462">
        <ele>37.4</ele>
        <time>2025-01-16T10:56:47Z</time>
      </trkpt>
      <trkpt lat="47.56083" lon="-2.30462">
        <ele>37.7</ele>
        <time>2025-01-16T10:56:48Z</time>
      </trkpt>
      <trkpt lat="47.56083" lon="-2.30463">
        <ele>37.6</ele>
        <time>2025-01-16T10:56:49Z</time>
      </trkpt>
      <trkpt lat="47.56084" lon="-2.30464">
        <ele>37.7</ele>
        <time>2025-01-16T10:56:50Z</time>
      </trkpt>
      <trkpt lat="47.56085" lon="-2.30466">
        <ele>37.8</ele>
        <time>2025-01-16T10:56:51Z</time>
      </trkpt>
      <trkpt lat="47.56086" lon="-2.30467">
        <ele>38</ele>
        <time>2025-01-16T10:56:52Z</time>
      </trkpt>
      <trkpt lat="47.56087" lon="-2.30469">
        <ele>38</ele>
        <time>2025-01-16T10:56:53Z</time>
      </trkpt>
      <trkpt lat="47.56088" lon="-2.3047">
        <ele>38.2</ele>
        <time>2025-01-16T10:56:54Z</time>
      </trkpt>
      <trkpt lat="47.56089" lon="-2.30471">
        <ele>38.3</ele>
        <time>2025-01-16T10:56:55Z</time>
      </trkpt>
      <trkpt lat="47.5609" lon="-2.30472">
        <ele>38.5</ele>
        <time>2025-01-16T10:56:56Z</time>
      </trkpt>
      <trkpt lat="47.5609" lon="-2.30473">
        <ele>38.3</ele>
        <time>2025-01-16T10:56:57Z</time>
      </trkpt>
      <trkpt lat="47.56091" lon="-2.30474">
        <ele>38.4</ele>
        <time>2025-01-16T10:56:58Z</time>
      </trkpt>
      <trkpt lat="47.56092" lon="-2.30475">
        <ele>38.4</ele>
        <time>2025-01-16T10:56:59Z</time>
      </trkpt>
      <trkpt lat="47.56093" lon="-2.30477">
        <ele>38.3</ele>
        <time>2025-01-16T10:57:00Z</time>
      </trkpt>
      <trkpt lat="47.56094" lon="-2.30478">
        <ele>38.3</ele>
        <time>2025-01-16T10:57:01Z</time>
      </trkpt>
      <trkpt lat="47.56095" lon="-2.30478">
        <ele>38.5</ele>
        <time>2025-01-16T10:57:02Z</time>
      </trkpt>
      <trkpt lat="47.56096" lon="-2.30479">
        <ele>38.5</ele>
        <time>2025-01-16T10:57:03Z</time>
      </trkpt>
      <trkpt lat="47.56097" lon="-2.3048">
        <ele>38.6</ele>
        <time>2025-01-16T10:57:04Z</time>
      </trkpt>
      <trkpt lat="47.56098" lon="-2.30482">
        <ele>38.4</ele>
        <time>2025-01-16T10:57:05Z</time>
      </trkpt>
      <trkpt lat="47.56099" lon="-2.30483">
        <ele>38.4</ele>
        <time>2025-01-16T10:57:06Z</time>
      </trkpt>
      <trkpt lat="47.561" lon="-2.30484">
        <ele>38.4</ele>
        <time>2025-01-16T10:57:07Z</time>
      </trkpt>
      <trkpt lat="47.561" lon="-2.30484">
        <ele>38.4</ele>
        <time>2025-01-16T10:57:08Z</time>
      </trkpt>
      <trkpt lat="47.56101" lon="-2.30485">
        <ele>38.4</ele>
        <time>2025-01-16T10:57:09Z</time>
      </trkpt>
      <trkpt lat="47.56102" lon="-2.30485">
        <ele>38.6</ele>
        <time>2025-01-16T10:57:10Z</time>
      </trkpt>
      <trkpt lat="47.56103" lon="-2.30485">
        <ele>38.8</ele>
        <time>2025-01-16T10:57:11Z</time>
      </trkpt>
      <trkpt lat="47.56104" lon="-2.30485">
        <ele>38.9</ele>
        <time>2025-01-16T10:57:12Z</time>
      </trkpt>
      <trkpt lat="47.56105" lon="-2.30485">
        <ele>39.1</ele>
        <time>2025-01-16T10:57:13Z</time>
      </trkpt>
      <trkpt lat="47.56106" lon="-2.30486">
        <ele>39.1</ele>
        <time>2025-01-16T10:57:14Z</time>
      </trkpt>
      <trkpt lat="47.56107" lon="-2.30487">
        <ele>39.1</ele>
        <time>2025-01-16T10:57:15Z</time>
      </trkpt>
      <trkpt lat="47.56108" lon="-2.30487">
        <ele>39.3</ele>
        <time>2025-01-16T10:57:16Z</time>
      </trkpt>
      <trkpt lat="47.56109" lon="-2.30488">
        <ele>39.2</ele>
        <time>2025-01-16T10:57:17Z</time>
      </trkpt>
      <trkpt lat="47.56109" lon="-2.30489">
        <ele>39</ele>
        <time>2025-01-16T10:57:18Z</time>
      </trkpt>
      <trkpt lat="47.5611" lon="-2.3049">
        <ele>39</ele>
        <time>2025-01-16T10:57:19Z</time>
      </trkpt>
      <trkpt lat="47.56111" lon="-2.3049">
        <ele>39.1</ele>
        <time>2025-01-16T10:57:20Z</time>
      </trkpt>
      <trkpt lat="47.56113" lon="-2.3049">
        <ele>39.4</ele>
        <time>2025-01-16T10:57:21Z</time>
      </trkpt>
      <trkpt lat="47.56114" lon="-2.30491">
        <ele>39.3</ele>
        <time>2025-01-16T10:57:22Z</time>
      </trkpt>
      <trkpt lat="47.56115" lon="-2.30492">
        <ele>39.1</ele>
        <time>2025-01-16T10:57:23Z</time>
      </trkpt>
      <trkpt lat="47.56115" lon="-2.30492">
        <ele>39.1</ele>
        <time>2025-01-16T10:57:24Z</time>
      </trkpt>
      <trkpt lat="47.56116" lon="-2.30493">
        <ele>39</ele>
        <time>2025-01-16T10:57:25Z</time>
      </trkpt>
      <trkpt lat="47.56117" lon="-2.30493">
        <ele>39.1</ele>
        <time>2025-01-16T10:57:26Z</time>
      </trkpt>
      <trkpt lat="47.56118" lon="-2.30494">
        <ele>39</ele>
        <time>2025-01-16T10:57:27Z</time>
      </trkpt>
      <trkpt lat="47.56118" lon="-2.30494">
        <ele>39</ele>
        <time>2025-01-16T10:57:28Z</time>
      </trkpt>
      <trkpt lat="47.5612" lon="-2.30495">
        <ele>39</ele>
        <time>2025-01-16T10:57:29Z</time>
      </trkpt>
      <trkpt lat="47.56121" lon="-2.30495">
        <ele>39.1</ele>
        <time>2025-01-16T10:57:30Z</time>
      </trkpt>
      <trkpt lat="47.56122" lon="-2.30496">
        <ele>39</ele>
        <time>2025-01-16T10:57:31Z</time>
      </trkpt>
      <trkpt lat="47.56122" lon="-2.30496">
        <ele>39</ele>
        <time>2025-01-16T10:57:32Z</time>
      </trkpt>
      <trkpt lat="47.56122" lon="-2.30496">
        <ele>39</ele>
        <time>2025-01-16T10:57:33Z</time>
      </trkpt>
      <trkpt lat="47.56123" lon="-2.30496">
        <ele>39.1</ele>
        <time>2025-01-16T10:57:34Z</time>
      </trkpt>
      <trkpt lat="47.56124" lon="-2.30497">
        <ele>39</ele>
        <time>2025-01-16T10:57:35Z</time>
      </trkpt>
      <trkpt lat="47.56124" lon="-2.30497">
        <ele>39</ele>
        <time>2025-01-16T10:57:36Z</time>
      </trkpt>
      <trkpt lat="47.56125" lon="-2.30497">
        <ele>39.1</ele>
        <time>2025-01-16T10:57:37Z</time>
      </trkpt>
      <trkpt lat="47.56126" lon="-2.30496">
        <ele>39.5</ele>
        <time>2025-01-16T10:57:38Z</time>
      </trkpt>
      <trkpt lat="47.56127" lon="-2.30495">
        <ele>39.8</ele>
        <time>2025-01-16T10:57:39Z</time>
      </trkpt>
      <trkpt lat="47.56128" lon="-2.30493">
        <ele>40.3</ele>
        <time>2025-01-16T10:57:40Z</time>
      </trkpt>
      <trkpt lat="47.56129" lon="-2.30493">
        <ele>40.4</ele>
        <time>2025-01-16T10:57:41Z</time>
      </trkpt>
      <trkpt lat="47.5613" lon="-2.30493">
        <ele>40.6</ele>
        <time>2025-01-16T10:57:42Z</time>
      </trkpt>
      <trkpt lat="47.56132" lon="-2.30493">
        <ele>40.8</ele>
        <time>2025-01-16T10:57:43Z</time>
      </trkpt>
      <trkpt lat="47.56133" lon="-2.30494">
        <ele>40.7</ele>
        <time>2025-01-16T10:57:44Z</time>
      </trkpt>
      <trkpt lat="47.56134" lon="-2.30494">
        <ele>40.8</ele>
        <time>2025-01-16T10:57:45Z</time>
      </trkpt>
      <trkpt lat="47.56134" lon="-2.30495">
        <ele>40.6</ele>
        <time>2025-01-16T10:57:46Z</time>
      </trkpt>
      <trkpt lat="47.56135" lon="-2.30496">
        <ele>40.4</ele>
        <time>2025-01-16T10:57:47Z</time>
      </trkpt>
      <trkpt lat="47.56136" lon="-2.30496">
        <ele>40.6</ele>
        <time>2025-01-16T10:57:48Z</time>
      </trkpt>
      <trkpt lat="47.56136" lon="-2.30496">
        <ele>40.6</ele>
        <time>2025-01-16T10:57:49Z</time>
      </trkpt>
      <trkpt lat="47.56137" lon="-2.30496">
        <ele>40.7</ele>
        <time>2025-01-16T10:57:50Z</time>
      </trkpt>
      <trkpt lat="47.56137" lon="-2.30497">
        <ele>40.4</ele>
        <time>2025-01-16T10:57:51Z</time>
      </trkpt>
      <trkpt lat="47.56138" lon="-2.30497">
        <ele>40.6</ele>
        <time>2025-01-16T10:57:52Z</time>
      </trkpt>
      <trkpt lat="47.56139" lon="-2.30497">
        <ele>40.7</ele>
        <time>2025-01-16T10:57:53Z</time>
      </trkpt>
      <trkpt lat="47.5614" lon="-2.30498">
        <ele>40.5</ele>
        <time>2025-01-16T10:57:54Z</time>
      </trkpt>
      <trkpt lat="47.5614" lon="-2.30499">
        <ele>40.3</ele>
        <time>2025-01-16T10:57:55Z</time>
      </trkpt>
      <trkpt lat="47.5614" lon="-2.30499">
        <ele>40.3</ele>
        <time>2025-01-16T10:57:56Z</time>
      </trkpt>
      <trkpt lat="47.56141" lon="-2.30501">
        <ele>39.9</ele>
        <time>2025-01-16T10:57:57Z</time>
      </trkpt>
      <trkpt lat="47.56141" lon="-2.30502">
        <ele>39.8</ele>
        <time>2025-01-16T10:57:58Z</time>
      </trkpt>
      <trkpt lat="47.56142" lon="-2.30502">
        <ele>39.8</ele>
        <time>2025-01-16T10:57:59Z</time>
      </trkpt>
      <trkpt lat="47.56143" lon="-2.30503">
        <ele>39.7</ele>
        <time>2025-01-16T10:58:00Z</time>
      </trkpt>
      <trkpt lat="47.56145" lon="-2.30503">
        <ele>39.8</ele>
        <time>2025-01-16T10:58:01Z</time>
      </trkpt>
      <trkpt lat="47.56146" lon="-2.30502">
        <ele>40</ele>
        <time>2025-01-16T10:58:02Z</time>
      </trkpt>
      <trkpt lat="47.56148" lon="-2.30501">
        <ele>40.2</ele>
        <time>2025-01-16T10:58:03Z</time>
      </trkpt>
      <trkpt lat="47.5615" lon="-2.305">
        <ele>40.4</ele>
        <time>2025-01-16T10:58:04Z</time>
      </trkpt>
      <trkpt lat="47.56152" lon="-2.305">
        <ele>40.5</ele>
        <time>2025-01-16T10:58:05Z</time>
      </trkpt>
      <trkpt lat="47.56154" lon="-2.305">
        <ele>40.5</ele>
        <time>2025-01-16T10:58:06Z</time>
      </trkpt>
      <trkpt lat="47.56156" lon="-2.305">
        <ele>40.6</ele>
        <time>2025-01-16T10:58:07Z</time>
      </trkpt>
      <trkpt lat="47.56157" lon="-2.305">
        <ele>40.7</ele>
        <time>2025-01-16T10:58:08Z</time>
      </trkpt>
      <trkpt lat="47.56159" lon="-2.305">
        <ele>40.7</ele>
        <time>2025-01-16T10:58:09Z</time>
      </trkpt>
      <trkpt lat="47.56161" lon="-2.305">
        <ele>40.8</ele>
        <time>2025-01-16T10:58:10Z</time>
      </trkpt>
      <trkpt lat="47.56162" lon="-2.305">
        <ele>40.8</ele>
        <time>2025-01-16T10:58:11Z</time>
      </trkpt>
      <trkpt lat="47.56164" lon="-2.305">
        <ele>40.9</ele>
        <time>2025-01-16T10:58:12Z</time>
      </trkpt>
      <trkpt lat="47.56165" lon="-2.305">
        <ele>40.9</ele>
        <time>2025-01-16T10:58:13Z</time>
      </trkpt>
      <trkpt lat="47.56166" lon="-2.30501">
        <ele>40.9</ele>
        <time>2025-01-16T10:58:14Z</time>
      </trkpt>
      <trkpt lat="47.56168" lon="-2.30501">
        <ele>40.9</ele>
        <time>2025-01-16T10:58:15Z</time>
      </trkpt>
      <trkpt lat="47.56169" lon="-2.305">
        <ele>41.1</ele>
        <time>2025-01-16T10:58:16Z</time>
      </trkpt>
      <trkpt lat="47.5617" lon="-2.305">
        <ele>41.1</ele>
        <time>2025-01-16T10:58:17Z</time>
      </trkpt>
      <trkpt lat="47.56171" lon="-2.305">
        <ele>41.2</ele>
        <time>2025-01-16T10:58:18Z</time>
      </trkpt>
      <trkpt lat="47.56172" lon="-2.305">
        <ele>41.2</ele>
        <time>2025-01-16T10:58:19Z</time>
      </trkpt>
      <trkpt lat="47.56174" lon="-2.30499">
        <ele>41.5</ele>
        <time>2025-01-16T10:58:20Z</time>
      </trkpt>
      <trkpt lat="47.56175" lon="-2.30499">
        <ele>41.5</ele>
        <time>2025-01-16T10:58:21Z</time>
      </trkpt>
      <trkpt lat="47.56176" lon="-2.30499">
        <ele>41.5</ele>
        <time>2025-01-16T10:58:22Z</time>
      </trkpt>
      <trkpt lat="47.56177" lon="-2.30498">
        <ele>41.8</ele>
        <time>2025-01-16T10:58:23Z</time>
      </trkpt>
      <trkpt lat="47.56179" lon="-2.30498">
        <ele>41.8</ele>
        <time>2025-01-16T10:58:24Z</time>
      </trkpt>
      <trkpt lat="47.5618" lon="-2.30498">
        <ele>41.9</ele>
        <time>2025-01-16T10:58:25Z</time>
      </trkpt>
      <trkpt lat="47.56181" lon="-2.30498">
        <ele>41.9</ele>
        <time>2025-01-16T10:58:26Z</time>
      </trkpt>
      <trkpt lat="47.56183" lon="-2.30497">
        <ele>42.2</ele>
        <time>2025-01-16T10:58:27Z</time>
      </trkpt>
      <trkpt lat="47.56184" lon="-2.30497">
        <ele>42.2</ele>
        <time>2025-01-16T10:58:28Z</time>
      </trkpt>
      <trkpt lat="47.56185" lon="-2.30497">
        <ele>42.2</ele>
        <time>2025-01-16T10:58:29Z</time>
      </trkpt>
      <trkpt lat="47.56186" lon="-2.30497">
        <ele>42.3</ele>
        <time>2025-01-16T10:58:30Z</time>
      </trkpt>
      <trkpt lat="47.56187" lon="-2.30497">
        <ele>42.3</ele>
        <time>2025-01-16T10:58:31Z</time>
      </trkpt>
      <trkpt lat="47.56188" lon="-2.30496">
        <ele>42.5</ele>
        <time>2025-01-16T10:58:32Z</time>
      </trkpt>
      <trkpt lat="47.56189" lon="-2.30495">
        <ele>42.7</ele>
        <time>2025-01-16T10:58:33Z</time>
      </trkpt>
      <trkpt lat="47.5619" lon="-2.30495">
        <ele>42.8</ele>
        <time>2025-01-16T10:58:34Z</time>
      </trkpt>
      <trkpt lat="47.5619" lon="-2.30495">
        <ele>42.8</ele>
        <time>2025-01-16T10:58:35Z</time>
      </trkpt>
      <trkpt lat="47.5619" lon="-2.30495">
        <ele>42.8</ele>
        <time>2025-01-16T10:58:36Z</time>
      </trkpt>
      <trkpt lat="47.56191" lon="-2.30495">
        <ele>42.8</ele>
        <time>2025-01-16T10:58:37Z</time>
      </trkpt>
      <trkpt lat="47.56191" lon="-2.30495">
        <ele>42.8</ele>
        <time>2025-01-16T10:58:38Z</time>
      </trkpt>
      <trkpt lat="47.56192" lon="-2.30495">
        <ele>42.8</ele>
        <time>2025-01-16T10:58:39Z</time>
      </trkpt>
      <trkpt lat="47.56194" lon="-2.30496">
        <ele>42.7</ele>
        <time>2025-01-16T10:58:40Z</time>
      </trkpt>
      <trkpt lat="47.56195" lon="-2.30496">
        <ele>42.7</ele>
        <time>2025-01-16T10:58:41Z</time>
      </trkpt>
      <trkpt lat="47.56196" lon="-2.30497">
        <ele>42.6</ele>
        <time>2025-01-16T10:58:42Z</time>
      </trkpt>
      <trkpt lat="47.56198" lon="-2.30498">
        <ele>42.5</ele>
        <time>2025-01-16T10:58:43Z</time>
      </trkpt>
      <trkpt lat="47.56199" lon="-2.30499">
        <ele>42.3</ele>
        <time>2025-01-16T10:58:44Z</time>
      </trkpt>
      <trkpt lat="47.56201" lon="-2.305">
        <ele>42.2</ele>
        <time>2025-01-16T10:58:45Z</time>
      </trkpt>
      <trkpt lat="47.56202" lon="-2.305">
        <ele>42.3</ele>
        <time>2025-01-16T10:58:46Z</time>
      </trkpt>
      <trkpt lat="47.56203" lon="-2.30501">
        <ele>42.2</ele>
        <time>2025-01-16T10:58:47Z</time>
      </trkpt>
      <trkpt lat="47.56204" lon="-2.30501">
        <ele>42.2</ele>
        <time>2025-01-16T10:58:48Z</time>
      </trkpt>
      <trkpt lat="47.56205" lon="-2.30501">
        <ele>42.3</ele>
        <time>2025-01-16T10:58:49Z</time>
      </trkpt>
      <trkpt lat="47.56205" lon="-2.30502">
        <ele>42.2</ele>
        <time>2025-01-16T10:58:50Z</time>
      </trkpt>
      <trkpt lat="47.56206" lon="-2.30502">
        <ele>42.2</ele>
        <time>2025-01-16T10:58:51Z</time>
      </trkpt>
      <trkpt lat="47.56206" lon="-2.30501">
        <ele>42.3</ele>
        <time>2025-01-16T10:58:52Z</time>
      </trkpt>
      <trkpt lat="47.56208" lon="-2.30501">
        <ele>42.4</ele>
        <time>2025-01-16T10:58:53Z</time>
      </trkpt>
      <trkpt lat="47.56209" lon="-2.30501">
        <ele>42.4</ele>
        <time>2025-01-16T10:58:54Z</time>
      </trkpt>
      <trkpt lat="47.5621" lon="-2.30501">
        <ele>42.5</ele>
        <time>2025-01-16T10:58:55Z</time>
      </trkpt>
      <trkpt lat="47.56211" lon="-2.30501">
        <ele>42.5</ele>
        <time>2025-01-16T10:58:56Z</time>
      </trkpt>
      <trkpt lat="47.56212" lon="-2.30501">
        <ele>42.5</ele>
        <time>2025-01-16T10:58:57Z</time>
      </trkpt>
      <trkpt lat="47.56213" lon="-2.30501">
        <ele>42.6</ele>
        <time>2025-01-16T10:58:58Z</time>
      </trkpt>
      <trkpt lat="47.56215" lon="-2.30501">
        <ele>42.6</ele>
        <time>2025-01-16T10:58:59Z</time>
      </trkpt>
      <trkpt lat="47.56216" lon="-2.30501">
        <ele>42.7</ele>
        <time>2025-01-16T10:59:00Z</time>
      </trkpt>
      <trkpt lat="47.56217" lon="-2.305">
        <ele>42.8</ele>
        <time>2025-01-16T10:59:01Z</time>
      </trkpt>
      <trkpt lat="47.56218" lon="-2.305">
        <ele>42.8</ele>
        <time>2025-01-16T10:59:02Z</time>
      </trkpt>
      <trkpt lat="47.5622" lon="-2.305">
        <ele>42.9</ele>
        <time>2025-01-16T10:59:03Z</time>
      </trkpt>
      <trkpt lat="47.56221" lon="-2.305">
        <ele>43</ele>
        <time>2025-01-16T10:59:04Z</time>
      </trkpt>
      <trkpt lat="47.56222" lon="-2.305">
        <ele>43</ele>
        <time>2025-01-16T10:59:05Z</time>
      </trkpt>
      <trkpt lat="47.56223" lon="-2.30501">
        <ele>42.9</ele>
        <time>2025-01-16T10:59:06Z</time>
      </trkpt>
      <trkpt lat="47.56225" lon="-2.30501">
        <ele>42.9</ele>
        <time>2025-01-16T10:59:07Z</time>
      </trkpt>
      <trkpt lat="47.56226" lon="-2.30501">
        <ele>42.9</ele>
        <time>2025-01-16T10:59:08Z</time>
      </trkpt>
      <trkpt lat="47.56227" lon="-2.30501">
        <ele>42.9</ele>
        <time>2025-01-16T10:59:09Z</time>
      </trkpt>
      <trkpt lat="47.56228" lon="-2.305">
        <ele>43</ele>
        <time>2025-01-16T10:59:10Z</time>
      </trkpt>
      <trkpt lat="47.56229" lon="-2.305">
        <ele>43</ele>
        <time>2025-01-16T10:59:11Z</time>
      </trkpt>
      <trkpt lat="47.5623" lon="-2.305">
        <ele>43</ele>
        <time>2025-01-16T10:59:12Z</time>
      </trkpt>
      <trkpt lat="47.56231" lon="-2.305">
        <ele>43</ele>
        <time>2025-01-16T10:59:13Z</time>
      </trkpt>
      <trkpt lat="47.56232" lon="-2.30499">
        <ele>43.1</ele>
        <time>2025-01-16T10:59:14Z</time>
      </trkpt>
      <trkpt lat="47.56233" lon="-2.30499">
        <ele>43.1</ele>
        <time>2025-01-16T10:59:15Z</time>
      </trkpt>
      <trkpt lat="47.56234" lon="-2.30498">
        <ele>43.3</ele>
        <time>2025-01-16T10:59:16Z</time>
      </trkpt>
      <trkpt lat="47.56235" lon="-2.30498">
        <ele>43.3</ele>
        <time>2025-01-16T10:59:17Z</time>
      </trkpt>
      <trkpt lat="47.56235" lon="-2.30497">
        <ele>43.4</ele>
        <time>2025-01-16T10:59:18Z</time>
      </trkpt>
      <trkpt lat="47.56236" lon="-2.30497">
        <ele>43.4</ele>
        <time>2025-01-16T10:59:19Z</time>
      </trkpt>
      <trkpt lat="47.56238" lon="-2.30497">
        <ele>43.4</ele>
        <time>2025-01-16T10:59:20Z</time>
      </trkpt>
      <trkpt lat="47.56239" lon="-2.30496">
        <ele>43.5</ele>
        <time>2025-01-16T10:59:21Z</time>
      </trkpt>
      <trkpt lat="47.5624" lon="-2.30496">
        <ele>43.5</ele>
        <time>2025-01-16T10:59:22Z</time>
      </trkpt>
      <trkpt lat="47.56242" lon="-2.30495">
        <ele>43.6</ele>
        <time>2025-01-16T10:59:23Z</time>
      </trkpt>
      <trkpt lat="47.56243" lon="-2.30495">
        <ele>43.6</ele>
        <time>2025-01-16T10:59:24Z</time>
      </trkpt>
      <trkpt lat="47.56244" lon="-2.30495">
        <ele>43.6</ele>
        <time>2025-01-16T10:59:25Z</time>
      </trkpt>
      <trkpt lat="47.56244" lon="-2.30495">
        <ele>43.6</ele>
        <time>2025-01-16T10:59:26Z</time>
      </trkpt>
      <trkpt lat="47.56245" lon="-2.30494">
        <ele>43.7</ele>
        <time>2025-01-16T10:59:27Z</time>
      </trkpt>
      <trkpt lat="47.56246" lon="-2.30493">
        <ele>43.8</ele>
        <time>2025-01-16T10:59:28Z</time>
      </trkpt>
      <trkpt lat="47.56247" lon="-2.30492">
        <ele>43.9</ele>
        <time>2025-01-16T10:59:29Z</time>
      </trkpt>
      <trkpt lat="47.56248" lon="-2.30491">
        <ele>44</ele>
        <time>2025-01-16T10:59:30Z</time>
      </trkpt>
      <trkpt lat="47.56249" lon="-2.30491">
        <ele>44</ele>
        <time>2025-01-16T10:59:31Z</time>
      </trkpt>
      <trkpt lat="47.5625" lon="-2.3049">
        <ele>44.1</ele>
        <time>2025-01-16T10:59:32Z</time>
      </trkpt>
      <trkpt lat="47.56252" lon="-2.30489">
        <ele>44.2</ele>
        <time>2025-01-16T10:59:33Z</time>
      </trkpt>
      <trkpt lat="47.56252" lon="-2.30489">
        <ele>44.2</ele>
        <time>2025-01-16T10:59:34Z</time>
      </trkpt>
      <trkpt lat="47.56253" lon="-2.30488">
        <ele>44.2</ele>
        <time>2025-01-16T10:59:35Z</time>
      </trkpt>
      <trkpt lat="47.56255" lon="-2.30488">
        <ele>44.2</ele>
        <time>2025-01-16T10:59:36Z</time>
      </trkpt>
      <trkpt lat="47.56256" lon="-2.30488">
        <ele>44.2</ele>
        <time>2025-01-16T10:59:37Z</time>
      </trkpt>
      <trkpt lat="47.56257" lon="-2.30488">
        <ele>44.2</ele>
        <time>2025-01-16T10:59:38Z</time>
      </trkpt>
      <trkpt lat="47.56257" lon="-2.30487">
        <ele>44.3</ele>
        <time>2025-01-16T10:59:39Z</time>
      </trkpt>
      <trkpt lat="47.56258" lon="-2.30486">
        <ele>44.4</ele>
        <time>2025-01-16T10:59:40Z</time>
      </trkpt>
      <trkpt lat="47.56259" lon="-2.30485">
        <ele>44.4</ele>
        <time>2025-01-16T10:59:41Z</time>
      </trkpt>
      <trkpt lat="47.5626" lon="-2.30484">
        <ele>44.5</ele>
        <time>2025-01-16T10:59:42Z</time>
      </trkpt>
      <trkpt lat="47.56262" lon="-2.30484">
        <ele>44.5</ele>
        <time>2025-01-16T10:59:43Z</time>
      </trkpt>
      <trkpt lat="47.56263" lon="-2.30483">
        <ele>44.5</ele>
        <time>2025-01-16T10:59:44Z</time>
      </trkpt>
      <trkpt lat="47.56264" lon="-2.30482">
        <ele>44.6</ele>
        <time>2025-01-16T10:59:45Z</time>
      </trkpt>
      <trkpt lat="47.56265" lon="-2.30482">
        <ele>44.6</ele>
        <time>2025-01-16T10:59:46Z</time>
      </trkpt>
      <trkpt lat="47.56267" lon="-2.30481">
        <ele>44.6</ele>
        <time>2025-01-16T10:59:47Z</time>
      </trkpt>
      <trkpt lat="47.56268" lon="-2.3048">
        <ele>44.7</ele>
        <time>2025-01-16T10:59:48Z</time>
      </trkpt>
      <trkpt lat="47.56269" lon="-2.3048">
        <ele>44.7</ele>
        <time>2025-01-16T10:59:49Z</time>
      </trkpt>
      <trkpt lat="47.56271" lon="-2.30479">
        <ele>44.7</ele>
        <time>2025-01-16T10:59:50Z</time>
      </trkpt>
      <trkpt lat="47.56273" lon="-2.30479">
        <ele>44.6</ele>
        <time>2025-01-16T10:59:51Z</time>
      </trkpt>
      <trkpt lat="47.56274" lon="-2.30479">
        <ele>44.6</ele>
        <time>2025-01-16T10:59:52Z</time>
      </trkpt>
      <trkpt lat="47.56275" lon="-2.30478">
        <ele>44.7</ele>
        <time>2025-01-16T10:59:53Z</time>
      </trkpt>
      <trkpt lat="47.56277" lon="-2.30477">
        <ele>44.7</ele>
        <time>2025-01-16T10:59:54Z</time>
      </trkpt>
      <trkpt lat="47.56277" lon="-2.30477">
        <ele>44.7</ele>
        <time>2025-01-16T10:59:55Z</time>
      </trkpt>
      <trkpt lat="47.56278" lon="-2.30478">
        <ele>44.6</ele>
        <time>2025-01-16T10:59:56Z</time>
      </trkpt>
      <trkpt lat="47.56279" lon="-2.30478">
        <ele>44.6</ele>
        <time>2025-01-16T10:59:57Z</time>
      </trkpt>
      <trkpt lat="47.5628" lon="-2.30477">
        <ele>44.7</ele>
        <time>2025-01-16T10:59:58Z</time>
      </trkpt>
      <trkpt lat="47.56281" lon="-2.30477">
        <ele>44.7</ele>
        <time>2025-01-16T10:59:59Z</time>
      </trkpt>
      <trkpt lat="47.56282" lon="-2.30477">
        <ele>44.7</ele>
        <time>2025-01-16T11:00:00Z</time>
      </trkpt>
      <trkpt lat="47.56283" lon="-2.30478">
        <ele>44.6</ele>
        <time>2025-01-16T11:00:01Z</time>
      </trkpt>
      <trkpt lat="47.56284" lon="-2.30478">
        <ele>44.6</ele>
        <time>2025-01-16T11:00:02Z</time>
      </trkpt>
      <trkpt lat="47.56285" lon="-2.30478">
        <ele>44.6</ele>
        <time>2025-01-16T11:00:03Z</time>
      </trkpt>
      <trkpt lat="47.56285" lon="-2.30478">
        <ele>44.6</ele>
        <time>2025-01-16T11:00:04Z</time>
      </trkpt>
      <trkpt lat="47.56286" lon="-2.30479">
        <ele>44.6</ele>
        <time>2025-01-16T11:00:05Z</time>
      </trkpt>
      <trkpt lat="47.56286" lon="-2.30479">
        <ele>44.6</ele>
        <time>2025-01-16T11:00:06Z</time>
      </trkpt>
      <trkpt lat="47.56287" lon="-2.30478">
        <ele>44.7</ele>
        <time>2025-01-16T11:00:07Z</time>
      </trkpt>
      <trkpt lat="47.56288" lon="-2.30477">
        <ele>44.7</ele>
        <time>2025-01-16T11:00:08Z</time>
      </trkpt>
      <trkpt lat="47.5629" lon="-2.30477">
        <ele>44.7</ele>
        <time>2025-01-16T11:00:09Z</time>
      </trkpt>
      <trkpt lat="47.56291" lon="-2.30477">
        <ele>44.7</ele>
        <time>2025-01-16T11:00:10Z</time>
      </trkpt>
      <trkpt lat="47.56292" lon="-2.30476">
        <ele>44.8</ele>
        <time>2025-01-16T11:00:11Z</time>
      </trkpt>
      <trkpt lat="47.56293" lon="-2.30476">
        <ele>44.8</ele>
        <time>2025-01-16T11:00:12Z</time>
      </trkpt>
      <trkpt lat="47.56294" lon="-2.30476">
        <ele>44.8</ele>
        <time>2025-01-16T11:00:13Z</time>
      </trkpt>
      <trkpt lat="47.56295" lon="-2.30476">
        <ele>44.8</ele>
        <time>2025-01-16T11:00:14Z</time>
      </trkpt>
      <trkpt lat="47.56296" lon="-2.30475">
        <ele>44.9</ele>
        <time>2025-01-16T11:00:15Z</time>
      </trkpt>
      <trkpt lat="47.56297" lon="-2.30475">
        <ele>44.9</ele>
        <time>2025-01-16T11:00:16Z</time>
      </trkpt>
      <trkpt lat="47.56298" lon="-2.30474">
        <ele>44.9</ele>
        <time>2025-01-16T11:00:17Z</time>
      </trkpt>
      <trkpt lat="47.56299" lon="-2.30474">
        <ele>44.9</ele>
        <time>2025-01-16T11:00:18Z</time>
      </trkpt>
      <trkpt lat="47.563" lon="-2.30474">
        <ele>44.9</ele>
        <time>2025-01-16T11:00:19Z</time>
      </trkpt>
      <trkpt lat="47.563" lon="-2.30473">
        <ele>45</ele>
        <time>2025-01-16T11:00:20Z</time>
      </trkpt>
      <trkpt lat="47.56301" lon="-2.30473">
        <ele>45</ele>
        <time>2025-01-16T11:00:21Z</time>
      </trkpt>
      <trkpt lat="47.56302" lon="-2.30473">
        <ele>45</ele>
        <time>2025-01-16T11:00:22Z</time>
      </trkpt>
      <trkpt lat="47.56303" lon="-2.30472">
        <ele>45</ele>
        <time>2025-01-16T11:00:23Z</time>
      </trkpt>
      <trkpt lat="47.56304" lon="-2.30472">
        <ele>45</ele>
        <time>2025-01-16T11:00:24Z</time>
      </trkpt>
      <trkpt lat="47.56305" lon="-2.30471">
        <ele>45.1</ele>
        <time>2025-01-16T11:00:25Z</time>
      </trkpt>
      <trkpt lat="47.56307" lon="-2.30471">
        <ele>45.2</ele>
        <time>2025-01-16T11:00:26Z</time>
      </trkpt>
      <trkpt lat="47.56308" lon="-2.3047">
        <ele>45.4</ele>
        <time>2025-01-16T11:00:27Z</time>
      </trkpt>
      <trkpt lat="47.5631" lon="-2.3047">
        <ele>45.6</ele>
        <time>2025-01-16T11:00:28Z</time>
      </trkpt>
      <trkpt lat="47.56311" lon="-2.30469">
        <ele>45.8</ele>
        <time>2025-01-16T11:00:29Z</time>
      </trkpt>
      <trkpt lat="47.56312" lon="-2.30469">
        <ele>45.9</ele>
        <time>2025-01-16T11:00:30Z</time>
      </trkpt>
      <trkpt lat="47.56314" lon="-2.30468">
        <ele>46.1</ele>
        <time>2025-01-16T11:00:31Z</time>
      </trkpt>
      <trkpt lat="47.56315" lon="-2.30467">
        <ele>46.3</ele>
        <time>2025-01-16T11:00:32Z</time>
      </trkpt>
      <trkpt lat="47.56316" lon="-2.30467">
        <ele>46.4</ele>
        <time>2025-01-16T11:00:33Z</time>
      </trkpt>
      <trkpt lat="47.56317" lon="-2.30467">
        <ele>46.5</ele>
        <time>2025-01-16T11:00:34Z</time>
      </trkpt>
      <trkpt lat="47.56318" lon="-2.30467">
        <ele>46.6</ele>
        <time>2025-01-16T11:00:35Z</time>
      </trkpt>
      <trkpt lat="47.56319" lon="-2.30467">
        <ele>46.6</ele>
        <time>2025-01-16T11:00:36Z</time>
      </trkpt>
      <trkpt lat="47.5632" lon="-2.30468">
        <ele>46.7</ele>
        <time>2025-01-16T11:00:37Z</time>
      </trkpt>
      <trkpt lat="47.56321" lon="-2.30468">
        <ele>46.8</ele>
        <time>2025-01-16T11:00:38Z</time>
      </trkpt>
      <trkpt lat="47.56321" lon="-2.30468">
        <ele>46.8</ele>
        <time>2025-01-16T11:00:39Z</time>
      </trkpt>
      <trkpt lat="47.56322" lon="-2.30468">
        <ele>46.9</ele>
        <time>2025-01-16T11:00:40Z</time>
      </trkpt>
      <trkpt lat="47.56323" lon="-2.30469">
        <ele>47</ele>
        <time>2025-01-16T11:00:41Z</time>
      </trkpt>
      <trkpt lat="47.56324" lon="-2.30469">
        <ele>47.1</ele>
        <time>2025-01-16T11:00:42Z</time>
      </trkpt>
      <trkpt lat="47.56325" lon="-2.3047">
        <ele>47.1</ele>
        <time>2025-01-16T11:00:43Z</time>
      </trkpt>
      <trkpt lat="47.56326" lon="-2.30472">
        <ele>47.2</ele>
        <time>2025-01-16T11:00:44Z</time>
      </trkpt>
      <trkpt lat="47.56327" lon="-2.30472">
        <ele>47.3</ele>
        <time>2025-01-16T11:00:45Z</time>
      </trkpt>
      <trkpt lat="47.56328" lon="-2.30473">
        <ele>47.4</ele>
        <time>2025-01-16T11:00:46Z</time>
      </trkpt>
      <trkpt lat="47.56329" lon="-2.30473">
        <ele>47.5</ele>
        <time>2025-01-16T11:00:47Z</time>
      </trkpt>
      <trkpt lat="47.5633" lon="-2.30474">
        <ele>47.6</ele>
        <time>2025-01-16T11:00:48Z</time>
      </trkpt>
      <trkpt lat="47.56331" lon="-2.30476">
        <ele>47.6</ele>
        <time>2025-01-16T11:00:49Z</time>
      </trkpt>
      <trkpt lat="47.56332" lon="-2.30477">
        <ele>47.7</ele>
        <time>2025-01-16T11:00:50Z</time>
      </trkpt>
      <trkpt lat="47.56333" lon="-2.30477">
        <ele>47.8</ele>
        <time>2025-01-16T11:00:51Z</time>
      </trkpt>
      <trkpt lat="47.56335" lon="-2.30479">
        <ele>47.8</ele>
        <time>2025-01-16T11:00:52Z</time>
      </trkpt>
      <trkpt lat="47.56337" lon="-2.3048">
        <ele>47.9</ele>
        <time>2025-01-16T11:00:53Z</time>
      </trkpt>
      <trkpt lat="47.56338" lon="-2.30481">
        <ele>47.9</ele>
        <time>2025-01-16T11:00:54Z</time>
      </trkpt>
      <trkpt lat="47.56339" lon="-2.30482">
        <ele>47.9</ele>
        <time>2025-01-16T11:00:55Z</time>
      </trkpt>
      <trkpt lat="47.5634" lon="-2.30482">
        <ele>47.9</ele>
        <time>2025-01-16T11:00:56Z</time>
      </trkpt>
      <trkpt lat="47.56342" lon="-2.30482">
        <ele>48</ele>
        <time>2025-01-16T11:00:57Z</time>
      </trkpt>
      <trkpt lat="47.56343" lon="-2.30483">
        <ele>48</ele>
        <time>2025-01-16T11:00:58Z</time>
      </trkpt>
      <trkpt lat="47.56344" lon="-2.30483">
        <ele>48</ele>
        <time>2025-01-16T11:00:59Z</time>
      </trkpt>
      <trkpt lat="47.56345" lon="-2.30484">
        <ele>48</ele>
        <time>2025-01-16T11:01:00Z</time>
      </trkpt>
      <trkpt lat="47.56345" lon="-2.30485">
        <ele>48</ele>
        <time>2025-01-16T11:01:01Z</time>
      </trkpt>
      <trkpt lat="47.56346" lon="-2.30486">
        <ele>48</ele>
        <time>2025-01-16T11:01:02Z</time>
      </trkpt>
      <trkpt lat="47.56346" lon="-2.30487">
        <ele>47.9</ele>
        <time>2025-01-16T11:01:03Z</time>
      </trkpt>
      <trkpt lat="47.56347" lon="-2.30488">
        <ele>47.9</ele>
        <time>2025-01-16T11:01:04Z</time>
      </trkpt>
      <trkpt lat="47.56347" lon="-2.30489">
        <ele>47.9</ele>
        <time>2025-01-16T11:01:05Z</time>
      </trkpt>
      <trkpt lat="47.56347" lon="-2.3049">
        <ele>47.9</ele>
        <time>2025-01-16T11:01:06Z</time>
      </trkpt>
      <trkpt lat="47.56348" lon="-2.3049">
        <ele>47.9</ele>
        <time>2025-01-16T11:01:07Z</time>
      </trkpt>
      <trkpt lat="47.56349" lon="-2.3049">
        <ele>47.9</ele>
        <time>2025-01-16T11:01:08Z</time>
      </trkpt>
      <trkpt lat="47.5635" lon="-2.3049">
        <ele>48</ele>
        <time>2025-01-16T11:01:09Z</time>
      </trkpt>
      <trkpt lat="47.56352" lon="-2.3049">
        <ele>48</ele>
        <time>2025-01-16T11:01:10Z</time>
      </trkpt>
      <trkpt lat="47.56354" lon="-2.3049">
        <ele>48.1</ele>
        <time>2025-01-16T11:01:11Z</time>
      </trkpt>
      <trkpt lat="47.56355" lon="-2.3049">
        <ele>48.1</ele>
        <time>2025-01-16T11:01:12Z</time>
      </trkpt>
      <trkpt lat="47.56357" lon="-2.30489">
        <ele>48.2</ele>
        <time>2025-01-16T11:01:13Z</time>
      </trkpt>
      <trkpt lat="47.56358" lon="-2.30489">
        <ele>48.3</ele>
        <time>2025-01-16T11:01:14Z</time>
      </trkpt>
      <trkpt lat="47.56359" lon="-2.3049">
        <ele>48.3</ele>
        <time>2025-01-16T11:01:15Z</time>
      </trkpt>
      <trkpt lat="47.5636" lon="-2.3049">
        <ele>48.3</ele>
        <time>2025-01-16T11:01:16Z</time>
      </trkpt>
      <trkpt lat="47.56361" lon="-2.3049">
        <ele>48.4</ele>
        <time>2025-01-16T11:01:17Z</time>
      </trkpt>
      <trkpt lat="47.56363" lon="-2.3049">
        <ele>48.5</ele>
        <time>2025-01-16T11:01:18Z</time>
      </trkpt>
      <trkpt lat="47.56364" lon="-2.3049">
        <ele>48.5</ele>
        <time>2025-01-16T11:01:19Z</time>
      </trkpt>
      <trkpt lat="47.56366" lon="-2.30491">
        <ele>48.6</ele>
        <time>2025-01-16T11:01:20Z</time>
      </trkpt>
      <trkpt lat="47.56368" lon="-2.30491">
        <ele>48.7</ele>
        <time>2025-01-16T11:01:21Z</time>
      </trkpt>
      <trkpt lat="47.56369" lon="-2.30492">
        <ele>48.7</ele>
        <time>2025-01-16T11:01:22Z</time>
      </trkpt>
      <trkpt lat="47.5637" lon="-2.30492">
        <ele>48.7</ele>
        <time>2025-01-16T11:01:23Z</time>
      </trkpt>
      <trkpt lat="47.56372" lon="-2.30492">
        <ele>48.8</ele>
        <time>2025-01-16T11:01:24Z</time>
      </trkpt>
      <trkpt lat="47.56372" lon="-2.30492">
        <ele>48.8</ele>
        <time>2025-01-16T11:01:25Z</time>
      </trkpt>
      <trkpt lat="47.56372" lon="-2.30492">
        <ele>48.8</ele>
        <time>2025-01-16T11:01:26Z</time>
      </trkpt>
      <trkpt lat="47.56372" lon="-2.30492">
        <ele>48.8</ele>
        <time>2025-01-16T11:01:27Z</time>
      </trkpt>
      <trkpt lat="47.56373" lon="-2.30492">
        <ele>48.8</ele>
        <time>2025-01-16T11:01:28Z</time>
      </trkpt>
      <trkpt lat="47.56373" lon="-2.30491">
        <ele>48.9</ele>
        <time>2025-01-16T11:01:29Z</time>
      </trkpt>
      <trkpt lat="47.56374" lon="-2.30492">
        <ele>48.9</ele>
        <time>2025-01-16T11:01:30Z</time>
      </trkpt>
      <trkpt lat="47.56376" lon="-2.30492">
        <ele>49</ele>
        <time>2025-01-16T11:01:31Z</time>
      </trkpt>
      <trkpt lat="47.56377" lon="-2.30492">
        <ele>49</ele>
        <time>2025-01-16T11:01:32Z</time>
      </trkpt>
      <trkpt lat="47.56378" lon="-2.30491">
        <ele>49.1</ele>
        <time>2025-01-16T11:01:33Z</time>
      </trkpt>
      <trkpt lat="47.56379" lon="-2.30491">
        <ele>49.2</ele>
        <time>2025-01-16T11:01:34Z</time>
      </trkpt>
      <trkpt lat="47.56381" lon="-2.30491">
        <ele>49.3</ele>
        <time>2025-01-16T11:01:35Z</time>
      </trkpt>
      <trkpt lat="47.56382" lon="-2.30491">
        <ele>49.3</ele>
        <time>2025-01-16T11:01:36Z</time>
      </trkpt>
      <trkpt lat="47.56384" lon="-2.30491">
        <ele>49.4</ele>
        <time>2025-01-16T11:01:37Z</time>
      </trkpt>
      <trkpt lat="47.56385" lon="-2.30491">
        <ele>49.5</ele>
        <time>2025-01-16T11:01:38Z</time>
      </trkpt>
      <trkpt lat="47.56386" lon="-2.30491">
        <ele>49.5</ele>
        <time>2025-01-16T11:01:39Z</time>
      </trkpt>
      <trkpt lat="47.56387" lon="-2.30491">
        <ele>49.6</ele>
        <time>2025-01-16T11:01:40Z</time>
      </trkpt>
      <trkpt lat="47.56389" lon="-2.30491">
        <ele>49.7</ele>
        <time>2025-01-16T11:01:41Z</time>
      </trkpt>
      <trkpt lat="47.5639" lon="-2.3049">
        <ele>49.8</ele>
        <time>2025-01-16T11:01:42Z</time>
      </trkpt>
      <trkpt lat="47.56391" lon="-2.30489">
        <ele>49.9</ele>
        <time>2025-01-16T11:01:43Z</time>
      </trkpt>
      <trkpt lat="47.56392" lon="-2.30489">
        <ele>49.9</ele>
        <time>2025-01-16T11:01:44Z</time>
      </trkpt>
      <trkpt lat="47.56394" lon="-2.30489">
        <ele>50</ele>
        <time>2025-01-16T11:01:45Z</time>
      </trkpt>
      <trkpt lat="47.56395" lon="-2.30489">
        <ele>50</ele>
        <time>2025-01-16T11:01:46Z</time>
      </trkpt>
      <trkpt lat="47.56396" lon="-2.30488">
        <ele>50.1</ele>
        <time>2025-01-16T11:01:47Z</time>
      </trkpt>
      <trkpt lat="47.56397" lon="-2.30488">
        <ele>50.2</ele>
        <time>2025-01-16T11:01:48Z</time>
      </trkpt>
      <trkpt lat="47.56398" lon="-2.30488">
        <ele>50.2</ele>
        <time>2025-01-16T11:01:49Z</time>
      </trkpt>
      <trkpt lat="47.56399" lon="-2.30487">
        <ele>50.3</ele>
        <time>2025-01-16T11:01:50Z</time>
      </trkpt>
      <trkpt lat="47.564" lon="-2.30487">
        <ele>50.3</ele>
        <time>2025-01-16T11:01:51Z</time>
      </trkpt>
      <trkpt lat="47.56401" lon="-2.30487">
        <ele>50.4</ele>
        <time>2025-01-16T11:01:52Z</time>
      </trkpt>
      <trkpt lat="47.56402" lon="-2.30486">
        <ele>50.5</ele>
        <time>2025-01-16T11:01:53Z</time>
      </trkpt>
      <trkpt lat="47.56404" lon="-2.30486">
        <ele>50.6</ele>
        <time>2025-01-16T11:01:54Z</time>
      </trkpt>
      <trkpt lat="47.56405" lon="-2.30485">
        <ele>50.7</ele>
        <time>2025-01-16T11:01:55Z</time>
      </trkpt>
      <trkpt lat="47.56406" lon="-2.30485">
        <ele>50.7</ele>
        <time>2025-01-16T11:01:56Z</time>
      </trkpt>
      <trkpt lat="47.56407" lon="-2.30484">
        <ele>50.8</ele>
        <time>2025-01-16T11:01:57Z</time>
      </trkpt>
      <trkpt lat="47.56408" lon="-2.30484">
        <ele>50.8</ele>
        <time>2025-01-16T11:01:58Z</time>
      </trkpt>
      <trkpt lat="47.5641" lon="-2.30484">
        <ele>50.9</ele>
        <time>2025-01-16T11:01:59Z</time>
      </trkpt>
      <trkpt lat="47.56411" lon="-2.30484">
        <ele>50.9</ele>
        <time>2025-01-16T11:02:00Z</time>
      </trkpt>
      <trkpt lat="47.56413" lon="-2.30484">
        <ele>51</ele>
        <time>2025-01-16T11:02:01Z</time>
      </trkpt>
      <trkpt lat="47.56413" lon="-2.30484">
        <ele>51</ele>
        <time>2025-01-16T11:02:02Z</time>
      </trkpt>
      <trkpt lat="47.56415" lon="-2.30484">
        <ele>51.1</ele>
        <time>2025-01-16T11:02:03Z</time>
      </trkpt>
      <trkpt lat="47.56416" lon="-2.30485">
        <ele>51.1</ele>
        <time>2025-01-16T11:02:04Z</time>
      </trkpt>
      <trkpt lat="47.56417" lon="-2.30485">
        <ele>51.1</ele>
        <time>2025-01-16T11:02:05Z</time>
      </trkpt>
      <trkpt lat="47.56418" lon="-2.30485">
        <ele>51.1</ele>
        <time>2025-01-16T11:02:06Z</time>
      </trkpt>
      <trkpt lat="47.5642" lon="-2.30485">
        <ele>51.1</ele>
        <time>2025-01-16T11:02:07Z</time>
      </trkpt>
      <trkpt lat="47.56421" lon="-2.30485">
        <ele>51.1</ele>
        <time>2025-01-16T11:02:08Z</time>
      </trkpt>
      <trkpt lat="47.56422" lon="-2.30485">
        <ele>51.2</ele>
        <time>2025-01-16T11:02:09Z</time>
      </trkpt>
      <trkpt lat="47.56423" lon="-2.30484">
        <ele>51.2</ele>
        <time>2025-01-16T11:02:10Z</time>
      </trkpt>
      <trkpt lat="47.56424" lon="-2.30484">
        <ele>51.2</ele>
        <time>2025-01-16T11:02:11Z</time>
      </trkpt>
      <trkpt lat="47.56425" lon="-2.30483">
        <ele>51.3</ele>
        <time>2025-01-16T11:02:12Z</time>
      </trkpt>
      <trkpt lat="47.56426" lon="-2.30482">
        <ele>51.3</ele>
        <time>2025-01-16T11:02:13Z</time>
      </trkpt>
      <trkpt lat="47.56427" lon="-2.30482">
        <ele>51.3</ele>
        <time>2025-01-16T11:02:14Z</time>
      </trkpt>
      <trkpt lat="47.56428" lon="-2.30481">
        <ele>51.3</ele>
        <time>2025-01-16T11:02:15Z</time>
      </trkpt>
      <trkpt lat="47.56428" lon="-2.3048">
        <ele>51.4</ele>
        <time>2025-01-16T11:02:16Z</time>
      </trkpt>
      <trkpt lat="47.56429" lon="-2.3048">
        <ele>51.4</ele>
        <time>2025-01-16T11:02:17Z</time>
      </trkpt>
      <trkpt lat="47.56431" lon="-2.30479">
        <ele>51.4</ele>
        <time>2025-01-16T11:02:18Z</time>
      </trkpt>
      <trkpt lat="47.56432" lon="-2.30479">
        <ele>51.4</ele>
        <time>2025-01-16T11:02:19Z</time>
      </trkpt>
      <trkpt lat="47.56433" lon="-2.30478">
        <ele>51.4</ele>
        <time>2025-01-16T11:02:20Z</time>
      </trkpt>
      <trkpt lat="47.56434" lon="-2.30478">
        <ele>51.3</ele>
        <time>2025-01-16T11:02:21Z</time>
      </trkpt>
      <trkpt lat="47.56438" lon="-2.30477">
        <ele>51.3</ele>
        <time>2025-01-16T11:02:25Z</time>
      </trkpt>
      <trkpt lat="47.56439" lon="-2.30477">
        <ele>51.3</ele>
        <time>2025-01-16T11:02:26Z</time>
      </trkpt>
      <trkpt lat="47.5644" lon="-2.30477">
        <ele>51.2</ele>
        <time>2025-01-16T11:02:27Z</time>
      </trkpt>
      <trkpt lat="47.56441" lon="-2.30477">
        <ele>51.2</ele>
        <time>2025-01-16T11:02:28Z</time>
      </trkpt>
      <trkpt lat="47.56442" lon="-2.30477">
        <ele>51.2</ele>
        <time>2025-01-16T11:02:29Z</time>
      </trkpt>
      <trkpt lat="47.56443" lon="-2.30476">
        <ele>51.2</ele>
        <time>2025-01-16T11:02:30Z</time>
      </trkpt>
      <trkpt lat="47.56444" lon="-2.30475">
        <ele>51.1</ele>
        <time>2025-01-16T11:02:31Z</time>
      </trkpt>
      <trkpt lat="47.56445" lon="-2.30474">
        <ele>51.1</ele>
        <time>2025-01-16T11:02:32Z</time>
      </trkpt>
      <trkpt lat="47.56447" lon="-2.30474">
        <ele>51.2</ele>
        <time>2025-01-16T11:02:33Z</time>
      </trkpt>
      <trkpt lat="47.56448" lon="-2.30474">
        <ele>51.2</ele>
        <time>2025-01-16T11:02:34Z</time>
      </trkpt>
      <trkpt lat="47.5645" lon="-2.30473">
        <ele>51.2</ele>
        <time>2025-01-16T11:02:35Z</time>
      </trkpt>
      <trkpt lat="47.56451" lon="-2.30473">
        <ele>51.3</ele>
        <time>2025-01-16T11:02:36Z</time>
      </trkpt>
      <trkpt lat="47.56451" lon="-2.30473">
        <ele>51.3</ele>
        <time>2025-01-16T11:02:37Z</time>
      </trkpt>
      <trkpt lat="47.56453" lon="-2.30472">
        <ele>51.3</ele>
        <time>2025-01-16T11:02:38Z</time>
      </trkpt>
      <trkpt lat="47.56454" lon="-2.30472">
        <ele>51.4</ele>
        <time>2025-01-16T11:02:39Z</time>
      </trkpt>
      <trkpt lat="47.56456" lon="-2.30471">
        <ele>51.5</ele>
        <time>2025-01-16T11:02:40Z</time>
      </trkpt>
      <trkpt lat="47.56457" lon="-2.30472">
        <ele>51.5</ele>
        <time>2025-01-16T11:02:41Z</time>
      </trkpt>
      <trkpt lat="47.56457" lon="-2.30473">
        <ele>51.5</ele>
        <time>2025-01-16T11:02:42Z</time>
      </trkpt>
      <trkpt lat="47.56459" lon="-2.30473">
        <ele>51.6</ele>
        <time>2025-01-16T11:02:43Z</time>
      </trkpt>
      <trkpt lat="47.5646" lon="-2.30474">
        <ele>51.6</ele>
        <time>2025-01-16T11:02:44Z</time>
      </trkpt>
      <trkpt lat="47.56461" lon="-2.30474">
        <ele>51.7</ele>
        <time>2025-01-16T11:02:45Z</time>
      </trkpt>
      <trkpt lat="47.56462" lon="-2.30474">
        <ele>51.7</ele>
        <time>2025-01-16T11:02:46Z</time>
      </trkpt>
      <trkpt lat="47.56463" lon="-2.30474">
        <ele>51.7</ele>
        <time>2025-01-16T11:02:47Z</time>
      </trkpt>
      <trkpt lat="47.56463" lon="-2.30473">
        <ele>51.7</ele>
        <time>2025-01-16T11:02:48Z</time>
      </trkpt>
      <trkpt lat="47.56464" lon="-2.30472">
        <ele>51.7</ele>
        <time>2025-01-16T11:02:49Z</time>
      </trkpt>
      <trkpt lat="47.56465" lon="-2.30471">
        <ele>51.8</ele>
        <time>2025-01-16T11:02:50Z</time>
      </trkpt>
      <trkpt lat="47.56466" lon="-2.30471">
        <ele>51.8</ele>
        <time>2025-01-16T11:02:51Z</time>
      </trkpt>
      <trkpt lat="47.56467" lon="-2.30471">
        <ele>51.9</ele>
        <time>2025-01-16T11:02:52Z</time>
      </trkpt>
      <trkpt lat="47.56468" lon="-2.30472">
        <ele>51.9</ele>
        <time>2025-01-16T11:02:53Z</time>
      </trkpt>
      <trkpt lat="47.56469" lon="-2.30472">
        <ele>51.9</ele>
        <time>2025-01-16T11:02:54Z</time>
      </trkpt>
      <trkpt lat="47.56471" lon="-2.30472">
        <ele>52</ele>
        <time>2025-01-16T11:02:55Z</time>
      </trkpt>
      <trkpt lat="47.56472" lon="-2.30472">
        <ele>52</ele>
        <time>2025-01-16T11:02:56Z</time>
      </trkpt>
      <trkpt lat="47.56474" lon="-2.30472">
        <ele>52.1</ele>
        <time>2025-01-16T11:02:57Z</time>
      </trkpt>
      <trkpt lat="47.56475" lon="-2.30472">
        <ele>52.1</ele>
        <time>2025-01-16T11:02:58Z</time>
      </trkpt>
      <trkpt lat="47.56476" lon="-2.30473">
        <ele>52.2</ele>
        <time>2025-01-16T11:02:59Z</time>
      </trkpt>
      <trkpt lat="47.56478" lon="-2.30473">
        <ele>52.2</ele>
        <time>2025-01-16T11:03:00Z</time>
      </trkpt>
      <trkpt lat="47.56479" lon="-2.30473">
        <ele>52.3</ele>
        <time>2025-01-16T11:03:01Z</time>
      </trkpt>
      <trkpt lat="47.5648" lon="-2.30473">
        <ele>52.3</ele>
        <time>2025-01-16T11:03:02Z</time>
      </trkpt>
      <trkpt lat="47.56481" lon="-2.30473">
        <ele>52.3</ele>
        <time>2025-01-16T11:03:03Z</time>
      </trkpt>
      <trkpt lat="47.56482" lon="-2.30472">
        <ele>52.4</ele>
        <time>2025-01-16T11:03:04Z</time>
      </trkpt>
      <trkpt lat="47.56483" lon="-2.30472">
        <ele>52.4</ele>
        <time>2025-01-16T11:03:05Z</time>
      </trkpt>
      <trkpt lat="47.56483" lon="-2.30472">
        <ele>52.4</ele>
        <time>2025-01-16T11:03:06Z</time>
      </trkpt>
      <trkpt lat="47.56484" lon="-2.30473">
        <ele>52.5</ele>
        <time>2025-01-16T11:03:07Z</time>
      </trkpt>
      <trkpt lat="47.56485" lon="-2.30473">
        <ele>52.5</ele>
        <time>2025-01-16T11:03:08Z</time>
      </trkpt>
      <trkpt lat="47.56487" lon="-2.30473">
        <ele>52.6</ele>
        <time>2025-01-16T11:03:09Z</time>
      </trkpt>
      <trkpt lat="47.56488" lon="-2.30473">
        <ele>52.6</ele>
        <time>2025-01-16T11:03:10Z</time>
      </trkpt>
      <trkpt lat="47.56489" lon="-2.30474">
        <ele>52.7</ele>
        <time>2025-01-16T11:03:11Z</time>
      </trkpt>
      <trkpt lat="47.5649" lon="-2.30474">
        <ele>52.7</ele>
        <time>2025-01-16T11:03:12Z</time>
      </trkpt>
      <trkpt lat="47.56492" lon="-2.30475">
        <ele>52.8</ele>
        <time>2025-01-16T11:03:13Z</time>
      </trkpt>
      <trkpt lat="47.56493" lon="-2.30476">
        <ele>52.9</ele>
        <time>2025-01-16T11:03:14Z</time>
      </trkpt>
      <trkpt lat="47.56494" lon="-2.30477">
        <ele>53</ele>
        <time>2025-01-16T11:03:15Z</time>
      </trkpt>
      <trkpt lat="47.56494" lon="-2.30478">
        <ele>53</ele>
        <time>2025-01-16T11:03:16Z</time>
      </trkpt>
      <trkpt lat="47.56496" lon="-2.30478">
        <ele>53.1</ele>
        <time>2025-01-16T11:03:17Z</time>
      </trkpt>
      <trkpt lat="47.56497" lon="-2.30479">
        <ele>53.1</ele>
        <time>2025-01-16T11:03:18Z</time>
      </trkpt>
      <trkpt lat="47.56497" lon="-2.3048">
        <ele>53.2</ele>
        <time>2025-01-16T11:03:19Z</time>
      </trkpt>
      <trkpt lat="47.56498" lon="-2.30483">
        <ele>53.3</ele>
        <time>2025-01-16T11:03:20Z</time>
      </trkpt>
      <trkpt lat="47.56499" lon="-2.30484">
        <ele>53.4</ele>
        <time>2025-01-16T11:03:21Z</time>
      </trkpt>
      <trkpt lat="47.56499" lon="-2.30485">
        <ele>53.4</ele>
        <time>2025-01-16T11:03:22Z</time>
      </trkpt>
      <trkpt lat="47.565" lon="-2.30486">
        <ele>53.5</ele>
        <time>2025-01-16T11:03:23Z</time>
      </trkpt>
      <trkpt lat="47.56501" lon="-2.30487">
        <ele>53.6</ele>
        <time>2025-01-16T11:03:24Z</time>
      </trkpt>
      <trkpt lat="47.56501" lon="-2.30488">
        <ele>53.6</ele>
        <time>2025-01-16T11:03:25Z</time>
      </trkpt>
      <trkpt lat="47.56501" lon="-2.3049">
        <ele>53.7</ele>
        <time>2025-01-16T11:03:26Z</time>
      </trkpt>
      <trkpt lat="47.56502" lon="-2.30491">
        <ele>53.7</ele>
        <time>2025-01-16T11:03:27Z</time>
      </trkpt>
      <trkpt lat="47.56502" lon="-2.30493">
        <ele>53.8</ele>
        <time>2025-01-16T11:03:28Z</time>
      </trkpt>
      <trkpt lat="47.56502" lon="-2.30495">
        <ele>53.9</ele>
        <time>2025-01-16T11:03:29Z</time>
      </trkpt>
      <trkpt lat="47.56503" lon="-2.30497">
        <ele>54</ele>
        <time>2025-01-16T11:03:30Z</time>
      </trkpt>
      <trkpt lat="47.56503" lon="-2.30499">
        <ele>54.1</ele>
        <time>2025-01-16T11:03:31Z</time>
      </trkpt>
      <trkpt lat="47.56503" lon="-2.30501">
        <ele>54.1</ele>
        <time>2025-01-16T11:03:32Z</time>
      </trkpt>
      <trkpt lat="47.56503" lon="-2.30503">
        <ele>54.2</ele>
        <time>2025-01-16T11:03:33Z</time>
      </trkpt>
      <trkpt lat="47.56503" lon="-2.30505">
        <ele>54.3</ele>
        <time>2025-01-16T11:03:34Z</time>
      </trkpt>
      <trkpt lat="47.56503" lon="-2.30506">
        <ele>54.3</ele>
        <time>2025-01-16T11:03:35Z</time>
      </trkpt>
      <trkpt lat="47.56503" lon="-2.30508">
        <ele>54.4</ele>
        <time>2025-01-16T11:03:36Z</time>
      </trkpt>
      <trkpt lat="47.56503" lon="-2.30509">
        <ele>54.4</ele>
        <time>2025-01-16T11:03:37Z</time>
      </trkpt>
      <trkpt lat="47.56503" lon="-2.3051">
        <ele>54.4</ele>
        <time>2025-01-16T11:03:38Z</time>
      </trkpt>
      <trkpt lat="47.56503" lon="-2.30512">
        <ele>54.5</ele>
        <time>2025-01-16T11:03:39Z</time>
      </trkpt>
      <trkpt lat="47.56503" lon="-2.30514">
        <ele>54.6</ele>
        <time>2025-01-16T11:03:40Z</time>
      </trkpt>
      <trkpt lat="47.56503" lon="-2.30516">
        <ele>54.6</ele>
        <time>2025-01-16T11:03:41Z</time>
      </trkpt>
      <trkpt lat="47.56503" lon="-2.30518">
        <ele>54.7</ele>
        <time>2025-01-16T11:03:42Z</time>
      </trkpt>
      <trkpt lat="47.56504" lon="-2.3052">
        <ele>54.8</ele>
        <time>2025-01-16T11:03:43Z</time>
      </trkpt>
      <trkpt lat="47.56504" lon="-2.30522">
        <ele>54.8</ele>
        <time>2025-01-16T11:03:44Z</time>
      </trkpt>
      <trkpt lat="47.56504" lon="-2.30524">
        <ele>54.9</ele>
        <time>2025-01-16T11:03:45Z</time>
      </trkpt>
      <trkpt lat="47.56504" lon="-2.30525">
        <ele>54.9</ele>
        <time>2025-01-16T11:03:46Z</time>
      </trkpt>
      <trkpt lat="47.56505" lon="-2.30527">
        <ele>55</ele>
        <time>2025-01-16T11:03:47Z</time>
      </trkpt>
      <trkpt lat="47.56505" lon="-2.30529">
        <ele>55</ele>
        <time>2025-01-16T11:03:48Z</time>
      </trkpt>
      <trkpt lat="47.56505" lon="-2.30532">
        <ele>55.2</ele>
        <time>2025-01-16T11:03:49Z</time>
      </trkpt>
      <trkpt lat="47.56505" lon="-2.30534">
        <ele>55.2</ele>
        <time>2025-01-16T11:03:50Z</time>
      </trkpt>
      <trkpt lat="47.56505" lon="-2.30536">
        <ele>55.3</ele>
        <time>2025-01-16T11:03:51Z</time>
      </trkpt>
      <trkpt lat="47.56506" lon="-2.30538">
        <ele>55.4</ele>
        <time>2025-01-16T11:03:52Z</time>
      </trkpt>
      <trkpt lat="47.56506" lon="-2.3054">
        <ele>55.4</ele>
        <time>2025-01-16T11:03:53Z</time>
      </trkpt>
      <trkpt lat="47.56506" lon="-2.30542">
        <ele>55.5</ele>
        <time>2025-01-16T11:03:54Z</time>
      </trkpt>
      <trkpt lat="47.56506" lon="-2.30543">
        <ele>55.5</ele>
        <time>2025-01-16T11:03:55Z</time>
      </trkpt>
      <trkpt lat="47.56506" lon="-2.30545">
        <ele>55.6</ele>
        <time>2025-01-16T11:03:56Z</time>
      </trkpt>
      <trkpt lat="47.56506" lon="-2.30547">
        <ele>55.7</ele>
        <time>2025-01-16T11:03:57Z</time>
      </trkpt>
      <trkpt lat="47.56507" lon="-2.30549">
        <ele>55.8</ele>
        <time>2025-01-16T11:03:58Z</time>
      </trkpt>
      <trkpt lat="47.56507" lon="-2.3055">
        <ele>55.8</ele>
        <time>2025-01-16T11:03:59Z</time>
      </trkpt>
      <trkpt lat="47.56507" lon="-2.30552">
        <ele>55.9</ele>
        <time>2025-01-16T11:04:00Z</time>
      </trkpt>
      <trkpt lat="47.56507" lon="-2.30554">
        <ele>55.9</ele>
        <time>2025-01-16T11:04:01Z</time>
      </trkpt>
      <trkpt lat="47.56507" lon="-2.30556">
        <ele>56</ele>
        <time>2025-01-16T11:04:02Z</time>
      </trkpt>
      <trkpt lat="47.56508" lon="-2.30558">
        <ele>56</ele>
        <time>2025-01-16T11:04:03Z</time>
      </trkpt>
      <trkpt lat="47.56508" lon="-2.3056">
        <ele>56</ele>
        <time>2025-01-16T11:04:04Z</time>
      </trkpt>
      <trkpt lat="47.56508" lon="-2.30562">
        <ele>56.1</ele>
        <time>2025-01-16T11:04:05Z</time>
      </trkpt>
      <trkpt lat="47.56508" lon="-2.30563">
        <ele>56.1</ele>
        <time>2025-01-16T11:04:06Z</time>
      </trkpt>
      <trkpt lat="47.56509" lon="-2.30564">
        <ele>56.1</ele>
        <time>2025-01-16T11:04:07Z</time>
      </trkpt>
      <trkpt lat="47.56509" lon="-2.30565">
        <ele>56.1</ele>
        <time>2025-01-16T11:04:08Z</time>
      </trkpt>
      <trkpt lat="47.56509" lon="-2.30567">
        <ele>56.1</ele>
        <time>2025-01-16T11:04:09Z</time>
      </trkpt>
      <trkpt lat="47.5651" lon="-2.30569">
        <ele>56.2</ele>
        <time>2025-01-16T11:04:10Z</time>
      </trkpt>
      <trkpt lat="47.5651" lon="-2.3057">
        <ele>56.2</ele>
        <time>2025-01-16T11:04:11Z</time>
      </trkpt>
      <trkpt lat="47.5651" lon="-2.30572">
        <ele>56.2</ele>
        <time>2025-01-16T11:04:12Z</time>
      </trkpt>
      <trkpt lat="47.56511" lon="-2.30573">
        <ele>56.2</ele>
        <time>2025-01-16T11:04:13Z</time>
      </trkpt>
      <trkpt lat="47.56511" lon="-2.30575">
        <ele>56.3</ele>
        <time>2025-01-16T11:04:14Z</time>
      </trkpt>
      <trkpt lat="47.56511" lon="-2.30577">
        <ele>56.3</ele>
        <time>2025-01-16T11:04:15Z</time>
      </trkpt>
      <trkpt lat="47.56511" lon="-2.30578">
        <ele>56.3</ele>
        <time>2025-01-16T11:04:16Z</time>
      </trkpt>
      <trkpt lat="47.56511" lon="-2.3058">
        <ele>56.3</ele>
        <time>2025-01-16T11:04:17Z</time>
      </trkpt>
      <trkpt lat="47.56512" lon="-2.30582">
        <ele>56.4</ele>
        <time>2025-01-16T11:04:18Z</time>
      </trkpt>
      <trkpt lat="47.56512" lon="-2.30583">
        <ele>56.4</ele>
        <time>2025-01-16T11:04:19Z</time>
      </trkpt>
      <trkpt lat="47.56512" lon="-2.30585">
        <ele>56.5</ele>
        <time>2025-01-16T11:04:20Z</time>
      </trkpt>
      <trkpt lat="47.56512" lon="-2.30587">
        <ele>56.6</ele>
        <time>2025-01-16T11:04:21Z</time>
      </trkpt>
      <trkpt lat="47.56513" lon="-2.30589">
        <ele>56.7</ele>
        <time>2025-01-16T11:04:22Z</time>
      </trkpt>
      <trkpt lat="47.56513" lon="-2.30591">
        <ele>56.7</ele>
        <time>2025-01-16T11:04:23Z</time>
      </trkpt>
      <trkpt lat="47.56512" lon="-2.30592">
        <ele>56.7</ele>
        <time>2025-01-16T11:04:24Z</time>
      </trkpt>
      <trkpt lat="47.56512" lon="-2.30594">
        <ele>56.8</ele>
        <time>2025-01-16T11:04:25Z</time>
      </trkpt>
      <trkpt lat="47.56512" lon="-2.30594">
        <ele>56.8</ele>
        <time>2025-01-16T11:04:26Z</time>
      </trkpt>
      <trkpt lat="47.56512" lon="-2.30596">
        <ele>56.9</ele>
        <time>2025-01-16T11:04:27Z</time>
      </trkpt>
      <trkpt lat="47.56511" lon="-2.30598">
        <ele>56.9</ele>
        <time>2025-01-16T11:04:28Z</time>
      </trkpt>
      <trkpt lat="47.56511" lon="-2.306">
        <ele>57</ele>
        <time>2025-01-16T11:04:29Z</time>
      </trkpt>
      <trkpt lat="47.56511" lon="-2.30601">
        <ele>57</ele>
        <time>2025-01-16T11:04:30Z</time>
      </trkpt>
      <trkpt lat="47.5651" lon="-2.30603">
        <ele>57.1</ele>
        <time>2025-01-16T11:04:31Z</time>
      </trkpt>
      <trkpt lat="47.56509" lon="-2.30605">
        <ele>57.1</ele>
        <time>2025-01-16T11:04:32Z</time>
      </trkpt>
      <trkpt lat="47.56508" lon="-2.30607">
        <ele>57.1</ele>
        <time>2025-01-16T11:04:33Z</time>
      </trkpt>
      <trkpt lat="47.56508" lon="-2.30608">
        <ele>57.2</ele>
        <time>2025-01-16T11:04:34Z</time>
      </trkpt>
      <trkpt lat="47.56507" lon="-2.3061">
        <ele>57.2</ele>
        <time>2025-01-16T11:04:35Z</time>
      </trkpt>
      <trkpt lat="47.56506" lon="-2.30611">
        <ele>57.2</ele>
        <time>2025-01-16T11:04:36Z</time>
      </trkpt>
      <trkpt lat="47.56505" lon="-2.30612">
        <ele>57.2</ele>
        <time>2025-01-16T11:04:37Z</time>
      </trkpt>
      <trkpt lat="47.56504" lon="-2.30613">
        <ele>57.2</ele>
        <time>2025-01-16T11:04:38Z</time>
      </trkpt>
      <trkpt lat="47.56503" lon="-2.30615">
        <ele>57.2</ele>
        <time>2025-01-16T11:04:39Z</time>
      </trkpt>
      <trkpt lat="47.56502" lon="-2.30616">
        <ele>57.2</ele>
        <time>2025-01-16T11:04:40Z</time>
      </trkpt>
      <trkpt lat="47.56501" lon="-2.30617">
        <ele>57.2</ele>
        <time>2025-01-16T11:04:41Z</time>
      </trkpt>
      <trkpt lat="47.565" lon="-2.30619">
        <ele>57.3</ele>
        <time>2025-01-16T11:04:42Z</time>
      </trkpt>
      <trkpt lat="47.56499" lon="-2.3062">
        <ele>57.3</ele>
        <time>2025-01-16T11:04:43Z</time>
      </trkpt>
      <trkpt lat="47.56498" lon="-2.30621">
        <ele>57.3</ele>
        <time>2025-01-16T11:04:44Z</time>
      </trkpt>
      <trkpt lat="47.56497" lon="-2.30622">
        <ele>57.2</ele>
        <time>2025-01-16T11:04:45Z</time>
      </trkpt>
      <trkpt lat="47.56496" lon="-2.30624">
        <ele>57.3</ele>
        <time>2025-01-16T11:04:46Z</time>
      </trkpt>
      <trkpt lat="47.56495" lon="-2.30625">
        <ele>57.2</ele>
        <time>2025-01-16T11:04:47Z</time>
      </trkpt>
      <trkpt lat="47.56495" lon="-2.30626">
        <ele>57.3</ele>
        <time>2025-01-16T11:04:48Z</time>
      </trkpt>
      <trkpt lat="47.56494" lon="-2.30627">
        <ele>57.2</ele>
        <time>2025-01-16T11:04:49Z</time>
      </trkpt>
      <trkpt lat="47.56492" lon="-2.30628">
        <ele>57.1</ele>
        <time>2025-01-16T11:04:50Z</time>
      </trkpt>
      <trkpt lat="47.56491" lon="-2.30629">
        <ele>57.1</ele>
        <time>2025-01-16T11:04:51Z</time>
      </trkpt>
      <trkpt lat="47.5649" lon="-2.30631">
        <ele>57.1</ele>
        <time>2025-01-16T11:04:52Z</time>
      </trkpt>
      <trkpt lat="47.56489" lon="-2.30632">
        <ele>57.1</ele>
        <time>2025-01-16T11:04:53Z</time>
      </trkpt>
      <trkpt lat="47.56488" lon="-2.30633">
        <ele>57</ele>
        <time>2025-01-16T11:04:54Z</time>
      </trkpt>
      <trkpt lat="47.56487" lon="-2.30634">
        <ele>57</ele>
        <time>2025-01-16T11:04:55Z</time>
      </trkpt>
      <trkpt lat="47.56486" lon="-2.30635">
        <ele>56.9</ele>
        <time>2025-01-16T11:04:56Z</time>
      </trkpt>
      <trkpt lat="47.56485" lon="-2.30636">
        <ele>56.9</ele>
        <time>2025-01-16T11:04:57Z</time>
      </trkpt>
      <trkpt lat="47.56484" lon="-2.30636">
        <ele>56.8</ele>
        <time>2025-01-16T11:04:58Z</time>
      </trkpt>
      <trkpt lat="47.56483" lon="-2.30637">
        <ele>56.7</ele>
        <time>2025-01-16T11:04:59Z</time>
      </trkpt>
      <trkpt lat="47.56482" lon="-2.30638">
        <ele>56.7</ele>
        <time>2025-01-16T11:05:00Z</time>
      </trkpt>
      <trkpt lat="47.5648" lon="-2.30639">
        <ele>56.6</ele>
        <time>2025-01-16T11:05:01Z</time>
      </trkpt>
      <trkpt lat="47.56479" lon="-2.3064">
        <ele>56.5</ele>
        <time>2025-01-16T11:05:02Z</time>
      </trkpt>
      <trkpt lat="47.56478" lon="-2.30641">
        <ele>56.5</ele>
        <time>2025-01-16T11:05:03Z</time>
      </trkpt>
      <trkpt lat="47.56477" lon="-2.30641">
        <ele>56.4</ele>
        <time>2025-01-16T11:05:04Z</time>
      </trkpt>
      <trkpt lat="47.56476" lon="-2.30642">
        <ele>56.4</ele>
        <time>2025-01-16T11:05:05Z</time>
      </trkpt>
      <trkpt lat="47.56475" lon="-2.30642">
        <ele>56.3</ele>
        <time>2025-01-16T11:05:06Z</time>
      </trkpt>
      <trkpt lat="47.56473" lon="-2.30643">
        <ele>56.2</ele>
        <time>2025-01-16T11:05:07Z</time>
      </trkpt>
      <trkpt lat="47.56472" lon="-2.30644">
        <ele>56.2</ele>
        <time>2025-01-16T11:05:08Z</time>
      </trkpt>
      <trkpt lat="47.56471" lon="-2.30645">
        <ele>56.2</ele>
        <time>2025-01-16T11:05:09Z</time>
      </trkpt>
      <trkpt lat="47.5647" lon="-2.30646">
        <ele>56.2</ele>
        <time>2025-01-16T11:05:10Z</time>
      </trkpt>
      <trkpt lat="47.56469" lon="-2.30647">
        <ele>56.3</ele>
        <time>2025-01-16T11:05:11Z</time>
      </trkpt>
      <trkpt lat="47.56468" lon="-2.30648">
        <ele>56.3</ele>
        <time>2025-01-16T11:05:12Z</time>
      </trkpt>
      <trkpt lat="47.56466" lon="-2.30649">
        <ele>56.3</ele>
        <time>2025-01-16T11:05:13Z</time>
      </trkpt>
      <trkpt lat="47.56465" lon="-2.3065">
        <ele>56.3</ele>
        <time>2025-01-16T11:05:14Z</time>
      </trkpt>
      <trkpt lat="47.56464" lon="-2.30651">
        <ele>56.3</ele>
        <time>2025-01-16T11:05:15Z</time>
      </trkpt>
      <trkpt lat="47.56463" lon="-2.30651">
        <ele>56.3</ele>
        <time>2025-01-16T11:05:16Z</time>
      </trkpt>
      <trkpt lat="47.56461" lon="-2.30652">
        <ele>56.3</ele>
        <time>2025-01-16T11:05:17Z</time>
      </trkpt>
      <trkpt lat="47.5646" lon="-2.30653">
        <ele>56.3</ele>
        <time>2025-01-16T11:05:18Z</time>
      </trkpt>
      <trkpt lat="47.56459" lon="-2.30654">
        <ele>56.3</ele>
        <time>2025-01-16T11:05:19Z</time>
      </trkpt>
      <trkpt lat="47.56458" lon="-2.30655">
        <ele>56.3</ele>
        <time>2025-01-16T11:05:20Z</time>
      </trkpt>
      <trkpt lat="47.56457" lon="-2.30655">
        <ele>56.3</ele>
        <time>2025-01-16T11:05:21Z</time>
      </trkpt>
      <trkpt lat="47.56456" lon="-2.30656">
        <ele>56.3</ele>
        <time>2025-01-16T11:05:22Z</time>
      </trkpt>
      <trkpt lat="47.56455" lon="-2.30656">
        <ele>56.2</ele>
        <time>2025-01-16T11:05:23Z</time>
      </trkpt>
      <trkpt lat="47.56454" lon="-2.30656">
        <ele>56.2</ele>
        <time>2025-01-16T11:05:24Z</time>
      </trkpt>
      <trkpt lat="47.56453" lon="-2.30657">
        <ele>56.2</ele>
        <time>2025-01-16T11:05:25Z</time>
      </trkpt>
      <trkpt lat="47.56451" lon="-2.30657">
        <ele>56.2</ele>
        <time>2025-01-16T11:05:26Z</time>
      </trkpt>
      <trkpt lat="47.5645" lon="-2.30657">
        <ele>56.1</ele>
        <time>2025-01-16T11:05:27Z</time>
      </trkpt>
      <trkpt lat="47.56449" lon="-2.30658">
        <ele>56.1</ele>
        <time>2025-01-16T11:05:28Z</time>
      </trkpt>
      <trkpt lat="47.56448" lon="-2.30658">
        <ele>56.1</ele>
        <time>2025-01-16T11:05:29Z</time>
      </trkpt>
      <trkpt lat="47.56446" lon="-2.30659">
        <ele>56</ele>
        <time>2025-01-16T11:05:30Z</time>
      </trkpt>
      <trkpt lat="47.56445" lon="-2.30659">
        <ele>56</ele>
        <time>2025-01-16T11:05:31Z</time>
      </trkpt>
      <trkpt lat="47.56444" lon="-2.30659">
        <ele>56</ele>
        <time>2025-01-16T11:05:32Z</time>
      </trkpt>
      <trkpt lat="47.56443" lon="-2.30659">
        <ele>55.9</ele>
        <time>2025-01-16T11:05:33Z</time>
      </trkpt>
      <trkpt lat="47.56442" lon="-2.30659">
        <ele>55.9</ele>
        <time>2025-01-16T11:05:34Z</time>
      </trkpt>
      <trkpt lat="47.56441" lon="-2.30659">
        <ele>55.8</ele>
        <time>2025-01-16T11:05:35Z</time>
      </trkpt>
      <trkpt lat="47.5644" lon="-2.30659">
        <ele>55.8</ele>
        <time>2025-01-16T11:05:36Z</time>
      </trkpt>
      <trkpt lat="47.56438" lon="-2.3066">
        <ele>55.7</ele>
        <time>2025-01-16T11:05:37Z</time>
      </trkpt>
      <trkpt lat="47.56437" lon="-2.30661">
        <ele>55.7</ele>
        <time>2025-01-16T11:05:38Z</time>
      </trkpt>
      <trkpt lat="47.56436" lon="-2.30662">
        <ele>55.6</ele>
        <time>2025-01-16T11:05:39Z</time>
      </trkpt>
      <trkpt lat="47.56435" lon="-2.30663">
        <ele>55.6</ele>
        <time>2025-01-16T11:05:40Z</time>
      </trkpt>
      <trkpt lat="47.56434" lon="-2.30664">
        <ele>55.6</ele>
        <time>2025-01-16T11:05:41Z</time>
      </trkpt>
      <trkpt lat="47.56433" lon="-2.30665">
        <ele>55.6</ele>
        <time>2025-01-16T11:05:42Z</time>
      </trkpt>
      <trkpt lat="47.56432" lon="-2.30666">
        <ele>55.5</ele>
        <time>2025-01-16T11:05:43Z</time>
      </trkpt>
      <trkpt lat="47.56431" lon="-2.30667">
        <ele>55.5</ele>
        <time>2025-01-16T11:05:44Z</time>
      </trkpt>
      <trkpt lat="47.5643" lon="-2.30667">
        <ele>55.5</ele>
        <time>2025-01-16T11:05:45Z</time>
      </trkpt>
      <trkpt lat="47.56429" lon="-2.30668">
        <ele>55.5</ele>
        <time>2025-01-16T11:05:46Z</time>
      </trkpt>
      <trkpt lat="47.56428" lon="-2.30668">
        <ele>55.4</ele>
        <time>2025-01-16T11:05:47Z</time>
      </trkpt>
      <trkpt lat="47.56427" lon="-2.30668">
        <ele>55.4</ele>
        <time>2025-01-16T11:05:48Z</time>
      </trkpt>
      <trkpt lat="47.56425" lon="-2.30669">
        <ele>55.4</ele>
        <time>2025-01-16T11:05:49Z</time>
      </trkpt>
      <trkpt lat="47.56424" lon="-2.30669">
        <ele>55.3</ele>
        <time>2025-01-16T11:05:50Z</time>
      </trkpt>
      <trkpt lat="47.56423" lon="-2.3067">
        <ele>55.3</ele>
        <time>2025-01-16T11:05:51Z</time>
      </trkpt>
      <trkpt lat="47.56422" lon="-2.3067">
        <ele>55.3</ele>
        <time>2025-01-16T11:05:52Z</time>
      </trkpt>
      <trkpt lat="47.56421" lon="-2.30671">
        <ele>55.3</ele>
        <time>2025-01-16T11:05:53Z</time>
      </trkpt>
      <trkpt lat="47.5642" lon="-2.30671">
        <ele>55.3</ele>
        <time>2025-01-16T11:05:54Z</time>
      </trkpt>
      <trkpt lat="47.56419" lon="-2.30672">
        <ele>55.3</ele>
        <time>2025-01-16T11:05:55Z</time>
      </trkpt>
      <trkpt lat="47.56418" lon="-2.30672">
        <ele>55.2</ele>
        <time>2025-01-16T11:05:56Z</time>
      </trkpt>
      <trkpt lat="47.56416" lon="-2.30672">
        <ele>55.2</ele>
        <time>2025-01-16T11:05:57Z</time>
      </trkpt>
      <trkpt lat="47.56415" lon="-2.30673">
        <ele>55.2</ele>
        <time>2025-01-16T11:05:58Z</time>
      </trkpt>
      <trkpt lat="47.56414" lon="-2.30673">
        <ele>55.1</ele>
        <time>2025-01-16T11:05:59Z</time>
      </trkpt>
      <trkpt lat="47.56413" lon="-2.30674">
        <ele>55.1</ele>
        <time>2025-01-16T11:06:00Z</time>
      </trkpt>
      <trkpt lat="47.56412" lon="-2.30674">
        <ele>55.1</ele>
        <time>2025-01-16T11:06:01Z</time>
      </trkpt>
      <trkpt lat="47.56411" lon="-2.30674">
        <ele>55.1</ele>
        <time>2025-01-16T11:06:02Z</time>
      </trkpt>
      <trkpt lat="47.5641" lon="-2.30675">
        <ele>55.1</ele>
        <time>2025-01-16T11:06:03Z</time>
      </trkpt>
      <trkpt lat="47.56409" lon="-2.30676">
        <ele>55.1</ele>
        <time>2025-01-16T11:06:04Z</time>
      </trkpt>
      <trkpt lat="47.56408" lon="-2.30676">
        <ele>55</ele>
        <time>2025-01-16T11:06:05Z</time>
      </trkpt>
      <trkpt lat="47.56407" lon="-2.30677">
        <ele>55</ele>
        <time>2025-01-16T11:06:06Z</time>
      </trkpt>
      <trkpt lat="47.56406" lon="-2.30678">
        <ele>55</ele>
        <time>2025-01-16T11:06:07Z</time>
      </trkpt>
      <trkpt lat="47.56405" lon="-2.30678">
        <ele>55</ele>
        <time>2025-01-16T11:06:08Z</time>
      </trkpt>
      <trkpt lat="47.56404" lon="-2.30679">
        <ele>55</ele>
        <time>2025-01-16T11:06:09Z</time>
      </trkpt>
      <trkpt lat="47.56402" lon="-2.30679">
        <ele>54.9</ele>
        <time>2025-01-16T11:06:10Z</time>
      </trkpt>
      <trkpt lat="47.56401" lon="-2.30679">
        <ele>54.9</ele>
        <time>2025-01-16T11:06:11Z</time>
      </trkpt>
      <trkpt lat="47.564" lon="-2.3068">
        <ele>54.9</ele>
        <time>2025-01-16T11:06:12Z</time>
      </trkpt>
      <trkpt lat="47.56399" lon="-2.3068">
        <ele>54.8</ele>
        <time>2025-01-16T11:06:13Z</time>
      </trkpt>
      <trkpt lat="47.56398" lon="-2.30681">
        <ele>54.8</ele>
        <time>2025-01-16T11:06:14Z</time>
      </trkpt>
      <trkpt lat="47.56397" lon="-2.30681">
        <ele>54.8</ele>
        <time>2025-01-16T11:06:15Z</time>
      </trkpt>
      <trkpt lat="47.56395" lon="-2.30682">
        <ele>54.8</ele>
        <time>2025-01-16T11:06:16Z</time>
      </trkpt>
      <trkpt lat="47.56394" lon="-2.30682">
        <ele>54.7</ele>
        <time>2025-01-16T11:06:17Z</time>
      </trkpt>
      <trkpt lat="47.56393" lon="-2.30683">
        <ele>54.7</ele>
        <time>2025-01-16T11:06:18Z</time>
      </trkpt>
      <trkpt lat="47.56392" lon="-2.30684">
        <ele>54.7</ele>
        <time>2025-01-16T11:06:19Z</time>
      </trkpt>
      <trkpt lat="47.56391" lon="-2.30685">
        <ele>54.7</ele>
        <time>2025-01-16T11:06:20Z</time>
      </trkpt>
      <trkpt lat="47.5639" lon="-2.30685">
        <ele>54.7</ele>
        <time>2025-01-16T11:06:21Z</time>
      </trkpt>
      <trkpt lat="47.56389" lon="-2.30685">
        <ele>54.7</ele>
        <time>2025-01-16T11:06:22Z</time>
      </trkpt>
      <trkpt lat="47.56387" lon="-2.30686">
        <ele>54.7</ele>
        <time>2025-01-16T11:06:23Z</time>
      </trkpt>
      <trkpt lat="47.56386" lon="-2.30686">
        <ele>54.7</ele>
        <time>2025-01-16T11:06:24Z</time>
      </trkpt>
      <trkpt lat="47.56385" lon="-2.30687">
        <ele>54.7</ele>
        <time>2025-01-16T11:06:25Z</time>
      </trkpt>
      <trkpt lat="47.56385" lon="-2.30687">
        <ele>54.7</ele>
        <time>2025-01-16T11:06:26Z</time>
      </trkpt>
      <trkpt lat="47.56384" lon="-2.30687">
        <ele>54.7</ele>
        <time>2025-01-16T11:06:27Z</time>
      </trkpt>
      <trkpt lat="47.56382" lon="-2.30687">
        <ele>54.7</ele>
        <time>2025-01-16T11:06:28Z</time>
      </trkpt>
      <trkpt lat="47.56381" lon="-2.30687">
        <ele>54.7</ele>
        <time>2025-01-16T11:06:29Z</time>
      </trkpt>
      <trkpt lat="47.5638" lon="-2.30688">
        <ele>54.7</ele>
        <time>2025-01-16T11:06:30Z</time>
      </trkpt>
      <trkpt lat="47.5638" lon="-2.30688">
        <ele>54.7</ele>
        <time>2025-01-16T11:06:31Z</time>
      </trkpt>
      <trkpt lat="47.56379" lon="-2.30689">
        <ele>54.7</ele>
        <time>2025-01-16T11:06:32Z</time>
      </trkpt>
      <trkpt lat="47.56378" lon="-2.3069">
        <ele>54.8</ele>
        <time>2025-01-16T11:06:33Z</time>
      </trkpt>
      <trkpt lat="47.56377" lon="-2.30691">
        <ele>54.8</ele>
        <time>2025-01-16T11:06:34Z</time>
      </trkpt>
      <trkpt lat="47.56376" lon="-2.30692">
        <ele>54.9</ele>
        <time>2025-01-16T11:06:35Z</time>
      </trkpt>
      <trkpt lat="47.56375" lon="-2.30693">
        <ele>54.9</ele>
        <time>2025-01-16T11:06:36Z</time>
      </trkpt>
      <trkpt lat="47.56374" lon="-2.30694">
        <ele>55</ele>
        <time>2025-01-16T11:06:37Z</time>
      </trkpt>
      <trkpt lat="47.56373" lon="-2.30695">
        <ele>55</ele>
        <time>2025-01-16T11:06:38Z</time>
      </trkpt>
      <trkpt lat="47.56372" lon="-2.30696">
        <ele>55</ele>
        <time>2025-01-16T11:06:39Z</time>
      </trkpt>
      <trkpt lat="47.56371" lon="-2.30697">
        <ele>55</ele>
        <time>2025-01-16T11:06:40Z</time>
      </trkpt>
      <trkpt lat="47.5637" lon="-2.30698">
        <ele>55</ele>
        <time>2025-01-16T11:06:41Z</time>
      </trkpt>
      <trkpt lat="47.56369" lon="-2.30699">
        <ele>55</ele>
        <time>2025-01-16T11:06:42Z</time>
      </trkpt>
      <trkpt lat="47.56368" lon="-2.307">
        <ele>55</ele>
        <time>2025-01-16T11:06:43Z</time>
      </trkpt>
      <trkpt lat="47.56367" lon="-2.30701">
        <ele>55.1</ele>
        <time>2025-01-16T11:06:44Z</time>
      </trkpt>
      <trkpt lat="47.56367" lon="-2.30702">
        <ele>55.1</ele>
        <time>2025-01-16T11:06:45Z</time>
      </trkpt>
      <trkpt lat="47.56366" lon="-2.30703">
        <ele>55.1</ele>
        <time>2025-01-16T11:06:46Z</time>
      </trkpt>
      <trkpt lat="47.56365" lon="-2.30704">
        <ele>55</ele>
        <time>2025-01-16T11:06:47Z</time>
      </trkpt>
      <trkpt lat="47.56365" lon="-2.30706">
        <ele>55.1</ele>
        <time>2025-01-16T11:06:48Z</time>
      </trkpt>
      <trkpt lat="47.56365" lon="-2.30707">
        <ele>55.1</ele>
        <time>2025-01-16T11:06:49Z</time>
      </trkpt>
      <trkpt lat="47.56365" lon="-2.30708">
        <ele>55.1</ele>
        <time>2025-01-16T11:06:50Z</time>
      </trkpt>
      <trkpt lat="47.56364" lon="-2.30709">
        <ele>55.1</ele>
        <time>2025-01-16T11:06:51Z</time>
      </trkpt>
      <trkpt lat="47.56363" lon="-2.30711">
        <ele>55</ele>
        <time>2025-01-16T11:06:52Z</time>
      </trkpt>
      <trkpt lat="47.56362" lon="-2.30712">
        <ele>55</ele>
        <time>2025-01-16T11:06:53Z</time>
      </trkpt>
      <trkpt lat="47.56361" lon="-2.30713">
        <ele>55</ele>
        <time>2025-01-16T11:06:54Z</time>
      </trkpt>
      <trkpt lat="47.56359" lon="-2.30715">
        <ele>55</ele>
        <time>2025-01-16T11:06:55Z</time>
      </trkpt>
      <trkpt lat="47.56358" lon="-2.30716">
        <ele>54.9</ele>
        <time>2025-01-16T11:06:56Z</time>
      </trkpt>
      <trkpt lat="47.56357" lon="-2.30717">
        <ele>54.9</ele>
        <time>2025-01-16T11:06:57Z</time>
      </trkpt>
      <trkpt lat="47.56356" lon="-2.30719">
        <ele>55</ele>
        <time>2025-01-16T11:06:58Z</time>
      </trkpt>
      <trkpt lat="47.56355" lon="-2.3072">
        <ele>55</ele>
        <time>2025-01-16T11:06:59Z</time>
      </trkpt>
      <trkpt lat="47.56354" lon="-2.30721">
        <ele>55</ele>
        <time>2025-01-16T11:07:00Z</time>
      </trkpt>
      <trkpt lat="47.56354" lon="-2.30721">
        <ele>55</ele>
        <time>2025-01-16T11:07:01Z</time>
      </trkpt>
      <trkpt lat="47.56353" lon="-2.30722">
        <ele>55</ele>
        <time>2025-01-16T11:07:02Z</time>
      </trkpt>
      <trkpt lat="47.56352" lon="-2.30723">
        <ele>55</ele>
        <time>2025-01-16T11:07:03Z</time>
      </trkpt>
      <trkpt lat="47.56352" lon="-2.30724">
        <ele>55.1</ele>
        <time>2025-01-16T11:07:04Z</time>
      </trkpt>
      <trkpt lat="47.56351" lon="-2.30725">
        <ele>55.1</ele>
        <time>2025-01-16T11:07:05Z</time>
      </trkpt>
      <trkpt lat="47.56351" lon="-2.30727">
        <ele>55.2</ele>
        <time>2025-01-16T11:07:06Z</time>
      </trkpt>
      <trkpt lat="47.5635" lon="-2.30728">
        <ele>55.2</ele>
        <time>2025-01-16T11:07:07Z</time>
      </trkpt>
      <trkpt lat="47.5635" lon="-2.30729">
        <ele>55.2</ele>
        <time>2025-01-16T11:07:08Z</time>
      </trkpt>
      <trkpt lat="47.56349" lon="-2.30731">
        <ele>55.3</ele>
        <time>2025-01-16T11:07:09Z</time>
      </trkpt>
      <trkpt lat="47.56348" lon="-2.30732">
        <ele>55.4</ele>
        <time>2025-01-16T11:07:10Z</time>
      </trkpt>
      <trkpt lat="47.56348" lon="-2.30733">
        <ele>55.4</ele>
        <time>2025-01-16T11:07:11Z</time>
      </trkpt>
      <trkpt lat="47.56347" lon="-2.30734">
        <ele>55.4</ele>
        <time>2025-01-16T11:07:12Z</time>
      </trkpt>
      <trkpt lat="47.56346" lon="-2.30736">
        <ele>55.5</ele>
        <time>2025-01-16T11:07:13Z</time>
      </trkpt>
      <trkpt lat="47.56345" lon="-2.30737">
        <ele>55.5</ele>
        <time>2025-01-16T11:07:14Z</time>
      </trkpt>
      <trkpt lat="47.56345" lon="-2.30738">
        <ele>55.6</ele>
        <time>2025-01-16T11:07:15Z</time>
      </trkpt>
      <trkpt lat="47.56344" lon="-2.30739">
        <ele>55.6</ele>
        <time>2025-01-16T11:07:16Z</time>
      </trkpt>
      <trkpt lat="47.56343" lon="-2.30739">
        <ele>55.6</ele>
        <time>2025-01-16T11:07:17Z</time>
      </trkpt>
      <trkpt lat="47.56343" lon="-2.30739">
        <ele>55.6</ele>
        <time>2025-01-16T11:07:18Z</time>
      </trkpt>
      <trkpt lat="47.56341" lon="-2.3074">
        <ele>55.6</ele>
        <time>2025-01-16T11:07:19Z</time>
      </trkpt>
      <trkpt lat="47.5634" lon="-2.30741">
        <ele>55.7</ele>
        <time>2025-01-16T11:07:20Z</time>
      </trkpt>
      <trkpt lat="47.5634" lon="-2.30742">
        <ele>55.7</ele>
        <time>2025-01-16T11:07:21Z</time>
      </trkpt>
      <trkpt lat="47.56339" lon="-2.30743">
        <ele>55.7</ele>
        <time>2025-01-16T11:07:22Z</time>
      </trkpt>
      <trkpt lat="47.56337" lon="-2.30744">
        <ele>55.8</ele>
        <time>2025-01-16T11:07:23Z</time>
      </trkpt>
      <trkpt lat="47.56336" lon="-2.30745">
        <ele>55.8</ele>
        <time>2025-01-16T11:07:24Z</time>
      </trkpt>
      <trkpt lat="47.56335" lon="-2.30746">
        <ele>55.9</ele>
        <time>2025-01-16T11:07:25Z</time>
      </trkpt>
      <trkpt lat="47.56334" lon="-2.30747">
        <ele>55.9</ele>
        <time>2025-01-16T11:07:26Z</time>
      </trkpt>
      <trkpt lat="47.56332" lon="-2.30748">
        <ele>55.9</ele>
        <time>2025-01-16T11:07:27Z</time>
      </trkpt>
      <trkpt lat="47.56331" lon="-2.30749">
        <ele>56</ele>
        <time>2025-01-16T11:07:28Z</time>
      </trkpt>
      <trkpt lat="47.5633" lon="-2.3075">
        <ele>56</ele>
        <time>2025-01-16T11:07:29Z</time>
      </trkpt>
      <trkpt lat="47.56329" lon="-2.30751">
        <ele>56</ele>
        <time>2025-01-16T11:07:30Z</time>
      </trkpt>
      <trkpt lat="47.56328" lon="-2.30751">
        <ele>56</ele>
        <time>2025-01-16T11:07:31Z</time>
      </trkpt>
      <trkpt lat="47.56326" lon="-2.30752">
        <ele>56</ele>
        <time>2025-01-16T11:07:32Z</time>
      </trkpt>
      <trkpt lat="47.56325" lon="-2.30752">
        <ele>56</ele>
        <time>2025-01-16T11:07:33Z</time>
      </trkpt>
      <trkpt lat="47.56324" lon="-2.30752">
        <ele>56</ele>
        <time>2025-01-16T11:07:34Z</time>
      </trkpt>
      <trkpt lat="47.56323" lon="-2.30752">
        <ele>56</ele>
        <time>2025-01-16T11:07:35Z</time>
      </trkpt>
      <trkpt lat="47.56322" lon="-2.30751">
        <ele>56</ele>
        <time>2025-01-16T11:07:36Z</time>
      </trkpt>
      <trkpt lat="47.56321" lon="-2.30751">
        <ele>56</ele>
        <time>2025-01-16T11:07:37Z</time>
      </trkpt>
      <trkpt lat="47.5632" lon="-2.3075">
        <ele>56</ele>
        <time>2025-01-16T11:07:38Z</time>
      </trkpt>
      <trkpt lat="47.56319" lon="-2.3075">
        <ele>56</ele>
        <time>2025-01-16T11:07:39Z</time>
      </trkpt>
      <trkpt lat="47.56318" lon="-2.3075">
        <ele>56</ele>
        <time>2025-01-16T11:07:40Z</time>
      </trkpt>
      <trkpt lat="47.56317" lon="-2.3075">
        <ele>56</ele>
        <time>2025-01-16T11:07:41Z</time>
      </trkpt>
      <trkpt lat="47.56316" lon="-2.3075">
        <ele>56</ele>
        <time>2025-01-16T11:07:42Z</time>
      </trkpt>
      <trkpt lat="47.56315" lon="-2.30749">
        <ele>56</ele>
        <time>2025-01-16T11:07:43Z</time>
      </trkpt>
      <trkpt lat="47.56314" lon="-2.30749">
        <ele>56</ele>
        <time>2025-01-16T11:07:44Z</time>
      </trkpt>
      <trkpt lat="47.56313" lon="-2.30749">
        <ele>56</ele>
        <time>2025-01-16T11:07:45Z</time>
      </trkpt>
      <trkpt lat="47.56312" lon="-2.30749">
        <ele>56</ele>
        <time>2025-01-16T11:07:46Z</time>
      </trkpt>
      <trkpt lat="47.56311" lon="-2.30749">
        <ele>56</ele>
        <time>2025-01-16T11:07:47Z</time>
      </trkpt>
      <trkpt lat="47.5631" lon="-2.30749">
        <ele>56</ele>
        <time>2025-01-16T11:07:48Z</time>
      </trkpt>
      <trkpt lat="47.56309" lon="-2.3075">
        <ele>56</ele>
        <time>2025-01-16T11:07:49Z</time>
      </trkpt>
      <trkpt lat="47.56308" lon="-2.30751">
        <ele>56</ele>
        <time>2025-01-16T11:07:50Z</time>
      </trkpt>
      <trkpt lat="47.56307" lon="-2.30751">
        <ele>56</ele>
        <time>2025-01-16T11:07:51Z</time>
      </trkpt>
      <trkpt lat="47.56306" lon="-2.30751">
        <ele>56</ele>
        <time>2025-01-16T11:07:52Z</time>
      </trkpt>
      <trkpt lat="47.56305" lon="-2.30751">
        <ele>56</ele>
        <time>2025-01-16T11:07:53Z</time>
      </trkpt>
      <trkpt lat="47.56304" lon="-2.30752">
        <ele>56.1</ele>
        <time>2025-01-16T11:07:54Z</time>
      </trkpt>
      <trkpt lat="47.56303" lon="-2.30752">
        <ele>56.1</ele>
        <time>2025-01-16T11:07:55Z</time>
      </trkpt>
      <trkpt lat="47.56302" lon="-2.30752">
        <ele>56.1</ele>
        <time>2025-01-16T11:07:56Z</time>
      </trkpt>
      <trkpt lat="47.56301" lon="-2.30752">
        <ele>56.1</ele>
        <time>2025-01-16T11:07:57Z</time>
      </trkpt>
      <trkpt lat="47.563" lon="-2.30753">
        <ele>56.1</ele>
        <time>2025-01-16T11:07:58Z</time>
      </trkpt>
      <trkpt lat="47.56299" lon="-2.30753">
        <ele>56.1</ele>
        <time>2025-01-16T11:07:59Z</time>
      </trkpt>
      <trkpt lat="47.56298" lon="-2.30753">
        <ele>56.1</ele>
        <time>2025-01-16T11:08:00Z</time>
      </trkpt>
      <trkpt lat="47.56296" lon="-2.30754">
        <ele>56.1</ele>
        <time>2025-01-16T11:08:01Z</time>
      </trkpt>
      <trkpt lat="47.56295" lon="-2.30755">
        <ele>56.2</ele>
        <time>2025-01-16T11:08:02Z</time>
      </trkpt>
      <trkpt lat="47.56294" lon="-2.30755">
        <ele>56.2</ele>
        <time>2025-01-16T11:08:03Z</time>
      </trkpt>
      <trkpt lat="47.56293" lon="-2.30756">
        <ele>56.2</ele>
        <time>2025-01-16T11:08:04Z</time>
      </trkpt>
      <trkpt lat="47.56292" lon="-2.30756">
        <ele>56.2</ele>
        <time>2025-01-16T11:08:05Z</time>
      </trkpt>
      <trkpt lat="47.56291" lon="-2.30756">
        <ele>56.2</ele>
        <time>2025-01-16T11:08:06Z</time>
      </trkpt>
      <trkpt lat="47.5629" lon="-2.30756">
        <ele>56.2</ele>
        <time>2025-01-16T11:08:07Z</time>
      </trkpt>
      <trkpt lat="47.56288" lon="-2.30756">
        <ele>56.2</ele>
        <time>2025-01-16T11:08:08Z</time>
      </trkpt>
      <trkpt lat="47.56287" lon="-2.30756">
        <ele>56.2</ele>
        <time>2025-01-16T11:08:09Z</time>
      </trkpt>
      <trkpt lat="47.56287" lon="-2.30756">
        <ele>56.2</ele>
        <time>2025-01-16T11:08:10Z</time>
      </trkpt>
      <trkpt lat="47.56285" lon="-2.30756">
        <ele>56.2</ele>
        <time>2025-01-16T11:08:11Z</time>
      </trkpt>
      <trkpt lat="47.56284" lon="-2.30756">
        <ele>56.2</ele>
        <time>2025-01-16T11:08:12Z</time>
      </trkpt>
      <trkpt lat="47.56283" lon="-2.30757">
        <ele>56.3</ele>
        <time>2025-01-16T11:08:13Z</time>
      </trkpt>
      <trkpt lat="47.56282" lon="-2.30757">
        <ele>56.3</ele>
        <time>2025-01-16T11:08:14Z</time>
      </trkpt>
      <trkpt lat="47.56281" lon="-2.30757">
        <ele>56.3</ele>
        <time>2025-01-16T11:08:15Z</time>
      </trkpt>
      <trkpt lat="47.5628" lon="-2.30758">
        <ele>56.3</ele>
        <time>2025-01-16T11:08:16Z</time>
      </trkpt>
      <trkpt lat="47.56279" lon="-2.30758">
        <ele>56.3</ele>
        <time>2025-01-16T11:08:17Z</time>
      </trkpt>
      <trkpt lat="47.56277" lon="-2.30758">
        <ele>56.3</ele>
        <time>2025-01-16T11:08:18Z</time>
      </trkpt>
      <trkpt lat="47.56276" lon="-2.30758">
        <ele>56.4</ele>
        <time>2025-01-16T11:08:19Z</time>
      </trkpt>
      <trkpt lat="47.56275" lon="-2.30758">
        <ele>56.4</ele>
        <time>2025-01-16T11:08:20Z</time>
      </trkpt>
      <trkpt lat="47.56274" lon="-2.30758">
        <ele>56.4</ele>
        <time>2025-01-16T11:08:21Z</time>
      </trkpt>
      <trkpt lat="47.56273" lon="-2.30758">
        <ele>56.5</ele>
        <time>2025-01-16T11:08:22Z</time>
      </trkpt>
      <trkpt lat="47.56272" lon="-2.30758">
        <ele>56.5</ele>
        <time>2025-01-16T11:08:23Z</time>
      </trkpt>
      <trkpt lat="47.56271" lon="-2.30758">
        <ele>56.5</ele>
        <time>2025-01-16T11:08:24Z</time>
      </trkpt>
      <trkpt lat="47.5627" lon="-2.30758">
        <ele>56.6</ele>
        <time>2025-01-16T11:08:25Z</time>
      </trkpt>
      <trkpt lat="47.56269" lon="-2.30758">
        <ele>56.6</ele>
        <time>2025-01-16T11:08:26Z</time>
      </trkpt>
      <trkpt lat="47.56268" lon="-2.30758">
        <ele>56.6</ele>
        <time>2025-01-16T11:08:27Z</time>
      </trkpt>
      <trkpt lat="47.56267" lon="-2.30758">
        <ele>56.7</ele>
        <time>2025-01-16T11:08:28Z</time>
      </trkpt>
      <trkpt lat="47.56266" lon="-2.30758">
        <ele>56.7</ele>
        <time>2025-01-16T11:08:29Z</time>
      </trkpt>
      <trkpt lat="47.56265" lon="-2.30759">
        <ele>56.8</ele>
        <time>2025-01-16T11:08:30Z</time>
      </trkpt>
      <trkpt lat="47.56263" lon="-2.30759">
        <ele>56.9</ele>
        <time>2025-01-16T11:08:31Z</time>
      </trkpt>
      <trkpt lat="47.56262" lon="-2.30759">
        <ele>56.9</ele>
        <time>2025-01-16T11:08:32Z</time>
      </trkpt>
      <trkpt lat="47.56261" lon="-2.3076">
        <ele>57</ele>
        <time>2025-01-16T11:08:33Z</time>
      </trkpt>
      <trkpt lat="47.5626" lon="-2.3076">
        <ele>57</ele>
        <time>2025-01-16T11:08:34Z</time>
      </trkpt>
      <trkpt lat="47.56258" lon="-2.3076">
        <ele>57.1</ele>
        <time>2025-01-16T11:08:35Z</time>
      </trkpt>
      <trkpt lat="47.56257" lon="-2.3076">
        <ele>57.1</ele>
        <time>2025-01-16T11:08:36Z</time>
      </trkpt>
      <trkpt lat="47.56256" lon="-2.30761">
        <ele>57.2</ele>
        <time>2025-01-16T11:08:37Z</time>
      </trkpt>
      <trkpt lat="47.56255" lon="-2.30761">
        <ele>57.2</ele>
        <time>2025-01-16T11:08:38Z</time>
      </trkpt>
      <trkpt lat="47.56254" lon="-2.30761">
        <ele>57.3</ele>
        <time>2025-01-16T11:08:39Z</time>
      </trkpt>
      <trkpt lat="47.56253" lon="-2.30761">
        <ele>57.3</ele>
        <time>2025-01-16T11:08:40Z</time>
      </trkpt>
      <trkpt lat="47.56252" lon="-2.30761">
        <ele>57.3</ele>
        <time>2025-01-16T11:08:41Z</time>
      </trkpt>
      <trkpt lat="47.56251" lon="-2.30761">
        <ele>57.4</ele>
        <time>2025-01-16T11:08:42Z</time>
      </trkpt>
      <trkpt lat="47.5625" lon="-2.30761">
        <ele>57.4</ele>
        <time>2025-01-16T11:08:43Z</time>
      </trkpt>
      <trkpt lat="47.56248" lon="-2.30761">
        <ele>57.4</ele>
        <time>2025-01-16T11:08:44Z</time>
      </trkpt>
      <trkpt lat="47.56247" lon="-2.30762">
        <ele>57.4</ele>
        <time>2025-01-16T11:08:45Z</time>
      </trkpt>
      <trkpt lat="47.56246" lon="-2.30762">
        <ele>57.4</ele>
        <time>2025-01-16T11:08:46Z</time>
      </trkpt>
      <trkpt lat="47.56245" lon="-2.30762">
        <ele>57.4</ele>
        <time>2025-01-16T11:08:47Z</time>
      </trkpt>
      <trkpt lat="47.56243" lon="-2.30763">
        <ele>57.5</ele>
        <time>2025-01-16T11:08:48Z</time>
      </trkpt>
      <trkpt lat="47.56242" lon="-2.30763">
        <ele>57.5</ele>
        <time>2025-01-16T11:08:49Z</time>
      </trkpt>
      <trkpt lat="47.56241" lon="-2.30763">
        <ele>57.5</ele>
        <time>2025-01-16T11:08:50Z</time>
      </trkpt>
      <trkpt lat="47.5624" lon="-2.30764">
        <ele>57.5</ele>
        <time>2025-01-16T11:08:51Z</time>
      </trkpt>
      <trkpt lat="47.56238" lon="-2.30765">
        <ele>57.5</ele>
        <time>2025-01-16T11:08:52Z</time>
      </trkpt>
      <trkpt lat="47.56237" lon="-2.30765">
        <ele>57.5</ele>
        <time>2025-01-16T11:08:53Z</time>
      </trkpt>
      <trkpt lat="47.56236" lon="-2.30766">
        <ele>57.6</ele>
        <time>2025-01-16T11:08:54Z</time>
      </trkpt>
      <trkpt lat="47.56235" lon="-2.30766">
        <ele>57.6</ele>
        <time>2025-01-16T11:08:55Z</time>
      </trkpt>
      <trkpt lat="47.56234" lon="-2.30766">
        <ele>57.6</ele>
        <time>2025-01-16T11:08:56Z</time>
      </trkpt>
      <trkpt lat="47.56233" lon="-2.30767">
        <ele>57.6</ele>
        <time>2025-01-16T11:08:57Z</time>
      </trkpt>
      <trkpt lat="47.56232" lon="-2.30767">
        <ele>57.6</ele>
        <time>2025-01-16T11:08:58Z</time>
      </trkpt>
      <trkpt lat="47.56231" lon="-2.30767">
        <ele>57.6</ele>
        <time>2025-01-16T11:08:59Z</time>
      </trkpt>
      <trkpt lat="47.5623" lon="-2.30768">
        <ele>57.6</ele>
        <time>2025-01-16T11:09:00Z</time>
      </trkpt>
      <trkpt lat="47.56229" lon="-2.30768">
        <ele>57.6</ele>
        <time>2025-01-16T11:09:01Z</time>
      </trkpt>
      <trkpt lat="47.56228" lon="-2.30769">
        <ele>57.7</ele>
        <time>2025-01-16T11:09:02Z</time>
      </trkpt>
      <trkpt lat="47.56227" lon="-2.30769">
        <ele>57.7</ele>
        <time>2025-01-16T11:09:03Z</time>
      </trkpt>
      <trkpt lat="47.56225" lon="-2.30769">
        <ele>57.7</ele>
        <time>2025-01-16T11:09:04Z</time>
      </trkpt>
      <trkpt lat="47.56224" lon="-2.3077">
        <ele>57.7</ele>
        <time>2025-01-16T11:09:05Z</time>
      </trkpt>
      <trkpt lat="47.56223" lon="-2.3077">
        <ele>57.7</ele>
        <time>2025-01-16T11:09:06Z</time>
      </trkpt>
      <trkpt lat="47.56222" lon="-2.3077">
        <ele>57.7</ele>
        <time>2025-01-16T11:09:07Z</time>
      </trkpt>
      <trkpt lat="47.56221" lon="-2.30771">
        <ele>57.7</ele>
        <time>2025-01-16T11:09:08Z</time>
      </trkpt>
      <trkpt lat="47.5622" lon="-2.30771">
        <ele>57.7</ele>
        <time>2025-01-16T11:09:09Z</time>
      </trkpt>
      <trkpt lat="47.56219" lon="-2.30771">
        <ele>57.6</ele>
        <time>2025-01-16T11:09:10Z</time>
      </trkpt>
      <trkpt lat="47.56218" lon="-2.30771">
        <ele>57.6</ele>
        <time>2025-01-16T11:09:11Z</time>
      </trkpt>
      <trkpt lat="47.56217" lon="-2.30772">
        <ele>57.6</ele>
        <time>2025-01-16T11:09:12Z</time>
      </trkpt>
      <trkpt lat="47.56216" lon="-2.30772">
        <ele>57.6</ele>
        <time>2025-01-16T11:09:13Z</time>
      </trkpt>
      <trkpt lat="47.56214" lon="-2.30773">
        <ele>57.5</ele>
        <time>2025-01-16T11:09:14Z</time>
      </trkpt>
      <trkpt lat="47.56213" lon="-2.30773">
        <ele>57.5</ele>
        <time>2025-01-16T11:09:15Z</time>
      </trkpt>
      <trkpt lat="47.56212" lon="-2.30773">
        <ele>57.5</ele>
        <time>2025-01-16T11:09:16Z</time>
      </trkpt>
      <trkpt lat="47.56211" lon="-2.30774">
        <ele>57.5</ele>
        <time>2025-01-16T11:09:17Z</time>
      </trkpt>
      <trkpt lat="47.5621" lon="-2.30774">
        <ele>57.4</ele>
        <time>2025-01-16T11:09:18Z</time>
      </trkpt>
      <trkpt lat="47.56208" lon="-2.30774">
        <ele>57.4</ele>
        <time>2025-01-16T11:09:19Z</time>
      </trkpt>
      <trkpt lat="47.56207" lon="-2.30775">
        <ele>57.4</ele>
        <time>2025-01-16T11:09:20Z</time>
      </trkpt>
      <trkpt lat="47.56206" lon="-2.30776">
        <ele>57.4</ele>
        <time>2025-01-16T11:09:21Z</time>
      </trkpt>
      <trkpt lat="47.56204" lon="-2.30776">
        <ele>57.3</ele>
        <time>2025-01-16T11:09:22Z</time>
      </trkpt>
      <trkpt lat="47.56203" lon="-2.30777">
        <ele>57.3</ele>
        <time>2025-01-16T11:09:23Z</time>
      </trkpt>
      <trkpt lat="47.56202" lon="-2.30777">
        <ele>57.2</ele>
        <time>2025-01-16T11:09:24Z</time>
      </trkpt>
      <trkpt lat="47.56201" lon="-2.30777">
        <ele>57.2</ele>
        <time>2025-01-16T11:09:25Z</time>
      </trkpt>
      <trkpt lat="47.562" lon="-2.30778">
        <ele>57.2</ele>
        <time>2025-01-16T11:09:26Z</time>
      </trkpt>
      <trkpt lat="47.56199" lon="-2.30778">
        <ele>57.2</ele>
        <time>2025-01-16T11:09:27Z</time>
      </trkpt>
      <trkpt lat="47.56198" lon="-2.30778">
        <ele>57.1</ele>
        <time>2025-01-16T11:09:28Z</time>
      </trkpt>
      <trkpt lat="47.56197" lon="-2.30779">
        <ele>57.1</ele>
        <time>2025-01-16T11:09:29Z</time>
      </trkpt>
      <trkpt lat="47.56195" lon="-2.30779">
        <ele>57.1</ele>
        <time>2025-01-16T11:09:30Z</time>
      </trkpt>
      <trkpt lat="47.56194" lon="-2.3078">
        <ele>57</ele>
        <time>2025-01-16T11:09:31Z</time>
      </trkpt>
      <trkpt lat="47.56193" lon="-2.3078">
        <ele>57</ele>
        <time>2025-01-16T11:09:32Z</time>
      </trkpt>
      <trkpt lat="47.56192" lon="-2.30781">
        <ele>56.9</ele>
        <time>2025-01-16T11:09:33Z</time>
      </trkpt>
      <trkpt lat="47.56191" lon="-2.30782">
        <ele>56.9</ele>
        <time>2025-01-16T11:09:34Z</time>
      </trkpt>
      <trkpt lat="47.5619" lon="-2.30782">
        <ele>56.8</ele>
        <time>2025-01-16T11:09:35Z</time>
      </trkpt>
      <trkpt lat="47.56189" lon="-2.30782">
        <ele>56.8</ele>
        <time>2025-01-16T11:09:36Z</time>
      </trkpt>
      <trkpt lat="47.56188" lon="-2.30782">
        <ele>56.7</ele>
        <time>2025-01-16T11:09:37Z</time>
      </trkpt>
      <trkpt lat="47.56187" lon="-2.30783">
        <ele>56.7</ele>
        <time>2025-01-16T11:09:38Z</time>
      </trkpt>
      <trkpt lat="47.56185" lon="-2.30783">
        <ele>56.5</ele>
        <time>2025-01-16T11:09:39Z</time>
      </trkpt>
      <trkpt lat="47.56184" lon="-2.30783">
        <ele>56.4</ele>
        <time>2025-01-16T11:09:40Z</time>
      </trkpt>
      <trkpt lat="47.56183" lon="-2.30783">
        <ele>56.4</ele>
        <time>2025-01-16T11:09:41Z</time>
      </trkpt>
      <trkpt lat="47.56182" lon="-2.30783">
        <ele>56.3</ele>
        <time>2025-01-16T11:09:42Z</time>
      </trkpt>
      <trkpt lat="47.56181" lon="-2.30783">
        <ele>56.2</ele>
        <time>2025-01-16T11:09:43Z</time>
      </trkpt>
      <trkpt lat="47.5618" lon="-2.30784">
        <ele>56.2</ele>
        <time>2025-01-16T11:09:44Z</time>
      </trkpt>
      <trkpt lat="47.56179" lon="-2.30784">
        <ele>56.1</ele>
        <time>2025-01-16T11:09:45Z</time>
      </trkpt>
      <trkpt lat="47.56178" lon="-2.30784">
        <ele>56</ele>
        <time>2025-01-16T11:09:46Z</time>
      </trkpt>
      <trkpt lat="47.56177" lon="-2.30785">
        <ele>56</ele>
        <time>2025-01-16T11:09:47Z</time>
      </trkpt>
      <trkpt lat="47.56176" lon="-2.30785">
        <ele>55.9</ele>
        <time>2025-01-16T11:09:48Z</time>
      </trkpt>
      <trkpt lat="47.56174" lon="-2.30786">
        <ele>55.8</ele>
        <time>2025-01-16T11:09:49Z</time>
      </trkpt>
      <trkpt lat="47.56173" lon="-2.30786">
        <ele>55.8</ele>
        <time>2025-01-16T11:09:50Z</time>
      </trkpt>
      <trkpt lat="47.56172" lon="-2.30787">
        <ele>55.7</ele>
        <time>2025-01-16T11:09:51Z</time>
      </trkpt>
      <trkpt lat="47.56171" lon="-2.30787">
        <ele>55.6</ele>
        <time>2025-01-16T11:09:52Z</time>
      </trkpt>
      <trkpt lat="47.5617" lon="-2.30787">
        <ele>55.6</ele>
        <time>2025-01-16T11:09:53Z</time>
      </trkpt>
      <trkpt lat="47.56169" lon="-2.30788">
        <ele>55.5</ele>
        <time>2025-01-16T11:09:54Z</time>
      </trkpt>
      <trkpt lat="47.56168" lon="-2.30788">
        <ele>55.5</ele>
        <time>2025-01-16T11:09:55Z</time>
      </trkpt>
      <trkpt lat="47.56167" lon="-2.30789">
        <ele>55.4</ele>
        <time>2025-01-16T11:09:56Z</time>
      </trkpt>
      <trkpt lat="47.56166" lon="-2.30789">
        <ele>55.4</ele>
        <time>2025-01-16T11:09:57Z</time>
      </trkpt>
      <trkpt lat="47.56165" lon="-2.30789">
        <ele>55.3</ele>
        <time>2025-01-16T11:09:58Z</time>
      </trkpt>
      <trkpt lat="47.56164" lon="-2.30789">
        <ele>55.3</ele>
        <time>2025-01-16T11:09:59Z</time>
      </trkpt>
      <trkpt lat="47.56163" lon="-2.30789">
        <ele>55.2</ele>
        <time>2025-01-16T11:10:00Z</time>
      </trkpt>
      <trkpt lat="47.56162" lon="-2.30789">
        <ele>55.2</ele>
        <time>2025-01-16T11:10:01Z</time>
      </trkpt>
      <trkpt lat="47.56161" lon="-2.30789">
        <ele>55.1</ele>
        <time>2025-01-16T11:10:02Z</time>
      </trkpt>
      <trkpt lat="47.5616" lon="-2.3079">
        <ele>55.1</ele>
        <time>2025-01-16T11:10:03Z</time>
      </trkpt>
      <trkpt lat="47.56158" lon="-2.3079">
        <ele>55</ele>
        <time>2025-01-16T11:10:04Z</time>
      </trkpt>
      <trkpt lat="47.56157" lon="-2.3079">
        <ele>54.9</ele>
        <time>2025-01-16T11:10:05Z</time>
      </trkpt>
      <trkpt lat="47.56156" lon="-2.3079">
        <ele>54.9</ele>
        <time>2025-01-16T11:10:06Z</time>
      </trkpt>
      <trkpt lat="47.56155" lon="-2.30791">
        <ele>54.9</ele>
        <time>2025-01-16T11:10:07Z</time>
      </trkpt>
      <trkpt lat="47.56154" lon="-2.30791">
        <ele>54.8</ele>
        <time>2025-01-16T11:10:08Z</time>
      </trkpt>
      <trkpt lat="47.56152" lon="-2.30791">
        <ele>54.7</ele>
        <time>2025-01-16T11:10:09Z</time>
      </trkpt>
      <trkpt lat="47.56151" lon="-2.30791">
        <ele>54.6</ele>
        <time>2025-01-16T11:10:10Z</time>
      </trkpt>
      <trkpt lat="47.5615" lon="-2.30791">
        <ele>54.6</ele>
        <time>2025-01-16T11:10:11Z</time>
      </trkpt>
      <trkpt lat="47.56149" lon="-2.30791">
        <ele>54.5</ele>
        <time>2025-01-16T11:10:12Z</time>
      </trkpt>
      <trkpt lat="47.56148" lon="-2.30791">
        <ele>54.5</ele>
        <time>2025-01-16T11:10:13Z</time>
      </trkpt>
      <trkpt lat="47.56147" lon="-2.30791">
        <ele>54.4</ele>
        <time>2025-01-16T11:10:14Z</time>
      </trkpt>
      <trkpt lat="47.56146" lon="-2.30792">
        <ele>54.4</ele>
        <time>2025-01-16T11:10:15Z</time>
      </trkpt>
      <trkpt lat="47.56144" lon="-2.30792">
        <ele>54.3</ele>
        <time>2025-01-16T11:10:16Z</time>
      </trkpt>
      <trkpt lat="47.56143" lon="-2.30793">
        <ele>54.2</ele>
        <time>2025-01-16T11:10:17Z</time>
      </trkpt>
      <trkpt lat="47.56142" lon="-2.30793">
        <ele>54.2</ele>
        <time>2025-01-16T11:10:18Z</time>
      </trkpt>
      <trkpt lat="47.56141" lon="-2.30794">
        <ele>54.1</ele>
        <time>2025-01-16T11:10:19Z</time>
      </trkpt>
      <trkpt lat="47.56139" lon="-2.30794">
        <ele>54</ele>
        <time>2025-01-16T11:10:20Z</time>
      </trkpt>
      <trkpt lat="47.56138" lon="-2.30794">
        <ele>53.9</ele>
        <time>2025-01-16T11:10:21Z</time>
      </trkpt>
      <trkpt lat="47.56137" lon="-2.30794">
        <ele>53.8</ele>
        <time>2025-01-16T11:10:22Z</time>
      </trkpt>
      <trkpt lat="47.56136" lon="-2.30795">
        <ele>53.7</ele>
        <time>2025-01-16T11:10:23Z</time>
      </trkpt>
      <trkpt lat="47.56135" lon="-2.30795">
        <ele>53.6</ele>
        <time>2025-01-16T11:10:24Z</time>
      </trkpt>
      <trkpt lat="47.56134" lon="-2.30795">
        <ele>53.4</ele>
        <time>2025-01-16T11:10:25Z</time>
      </trkpt>
      <trkpt lat="47.56133" lon="-2.30796">
        <ele>53.4</ele>
        <time>2025-01-16T11:10:26Z</time>
      </trkpt>
      <trkpt lat="47.56131" lon="-2.30796">
        <ele>53.1</ele>
        <time>2025-01-16T11:10:27Z</time>
      </trkpt>
      <trkpt lat="47.5613" lon="-2.30796">
        <ele>53</ele>
        <time>2025-01-16T11:10:28Z</time>
      </trkpt>
      <trkpt lat="47.56129" lon="-2.30796">
        <ele>52.9</ele>
        <time>2025-01-16T11:10:29Z</time>
      </trkpt>
      <trkpt lat="47.56128" lon="-2.30796">
        <ele>52.8</ele>
        <time>2025-01-16T11:10:30Z</time>
      </trkpt>
      <trkpt lat="47.56126" lon="-2.30797">
        <ele>52.6</ele>
        <time>2025-01-16T11:10:31Z</time>
      </trkpt>
      <trkpt lat="47.56125" lon="-2.30797">
        <ele>52.5</ele>
        <time>2025-01-16T11:10:32Z</time>
      </trkpt>
      <trkpt lat="47.56124" lon="-2.30797">
        <ele>52.4</ele>
        <time>2025-01-16T11:10:33Z</time>
      </trkpt>
      <trkpt lat="47.56123" lon="-2.30797">
        <ele>52.3</ele>
        <time>2025-01-16T11:10:34Z</time>
      </trkpt>
      <trkpt lat="47.56122" lon="-2.30798">
        <ele>52.3</ele>
        <time>2025-01-16T11:10:35Z</time>
      </trkpt>
      <trkpt lat="47.5612" lon="-2.30798">
        <ele>52.1</ele>
        <time>2025-01-16T11:10:36Z</time>
      </trkpt>
      <trkpt lat="47.56119" lon="-2.30798">
        <ele>52</ele>
        <time>2025-01-16T11:10:37Z</time>
      </trkpt>
      <trkpt lat="47.56118" lon="-2.30798">
        <ele>51.9</ele>
        <time>2025-01-16T11:10:38Z</time>
      </trkpt>
      <trkpt lat="47.56116" lon="-2.30798">
        <ele>51.7</ele>
        <time>2025-01-16T11:10:39Z</time>
      </trkpt>
      <trkpt lat="47.56115" lon="-2.30798">
        <ele>51.6</ele>
        <time>2025-01-16T11:10:40Z</time>
      </trkpt>
      <trkpt lat="47.56114" lon="-2.30798">
        <ele>51.5</ele>
        <time>2025-01-16T11:10:41Z</time>
      </trkpt>
      <trkpt lat="47.56113" lon="-2.30799">
        <ele>51.5</ele>
        <time>2025-01-16T11:10:42Z</time>
      </trkpt>
      <trkpt lat="47.56112" lon="-2.30799">
        <ele>51.4</ele>
        <time>2025-01-16T11:10:43Z</time>
      </trkpt>
      <trkpt lat="47.5611" lon="-2.308">
        <ele>51.5</ele>
        <time>2025-01-16T11:10:44Z</time>
      </trkpt>
      <trkpt lat="47.56109" lon="-2.308">
        <ele>51.5</ele>
        <time>2025-01-16T11:10:45Z</time>
      </trkpt>
      <trkpt lat="47.56108" lon="-2.30801">
        <ele>51.7</ele>
        <time>2025-01-16T11:10:46Z</time>
      </trkpt>
      <trkpt lat="47.56107" lon="-2.30801">
        <ele>51.7</ele>
        <time>2025-01-16T11:10:47Z</time>
      </trkpt>
      <trkpt lat="47.56107" lon="-2.30802">
        <ele>51.8</ele>
        <time>2025-01-16T11:10:48Z</time>
      </trkpt>
      <trkpt lat="47.56106" lon="-2.30803">
        <ele>51.9</ele>
        <time>2025-01-16T11:10:49Z</time>
      </trkpt>
      <trkpt lat="47.56105" lon="-2.30803">
        <ele>52</ele>
        <time>2025-01-16T11:10:50Z</time>
      </trkpt>
      <trkpt lat="47.56104" lon="-2.30804">
        <ele>52.1</ele>
        <time>2025-01-16T11:10:51Z</time>
      </trkpt>
      <trkpt lat="47.56103" lon="-2.30805">
        <ele>52.2</ele>
        <time>2025-01-16T11:10:52Z</time>
      </trkpt>
      <trkpt lat="47.56102" lon="-2.30806">
        <ele>52.3</ele>
        <time>2025-01-16T11:10:53Z</time>
      </trkpt>
      <trkpt lat="47.56101" lon="-2.30807">
        <ele>52.4</ele>
        <time>2025-01-16T11:10:54Z</time>
      </trkpt>
      <trkpt lat="47.56101" lon="-2.30807">
        <ele>52.4</ele>
        <time>2025-01-16T11:10:55Z</time>
      </trkpt>
      <trkpt lat="47.561" lon="-2.30808">
        <ele>52.5</ele>
        <time>2025-01-16T11:10:56Z</time>
      </trkpt>
      <trkpt lat="47.56099" lon="-2.30809">
        <ele>52.6</ele>
        <time>2025-01-16T11:10:57Z</time>
      </trkpt>
      <trkpt lat="47.56098" lon="-2.3081">
        <ele>52.6</ele>
        <time>2025-01-16T11:10:58Z</time>
      </trkpt>
      <trkpt lat="47.56097" lon="-2.3081">
        <ele>52.7</ele>
        <time>2025-01-16T11:10:59Z</time>
      </trkpt>
      <trkpt lat="47.56096" lon="-2.30811">
        <ele>52.7</ele>
        <time>2025-01-16T11:11:00Z</time>
      </trkpt>
      <trkpt lat="47.56095" lon="-2.30811">
        <ele>52.7</ele>
        <time>2025-01-16T11:11:01Z</time>
      </trkpt>
      <trkpt lat="47.56094" lon="-2.30812">
        <ele>52.8</ele>
        <time>2025-01-16T11:11:02Z</time>
      </trkpt>
      <trkpt lat="47.56093" lon="-2.30813">
        <ele>52.8</ele>
        <time>2025-01-16T11:11:03Z</time>
      </trkpt>
      <trkpt lat="47.56093" lon="-2.30814">
        <ele>52.9</ele>
        <time>2025-01-16T11:11:04Z</time>
      </trkpt>
      <trkpt lat="47.56092" lon="-2.30815">
        <ele>52.9</ele>
        <time>2025-01-16T11:11:05Z</time>
      </trkpt>
      <trkpt lat="47.56091" lon="-2.30816">
        <ele>52.9</ele>
        <time>2025-01-16T11:11:06Z</time>
      </trkpt>
      <trkpt lat="47.5609" lon="-2.30816">
        <ele>52.9</ele>
        <time>2025-01-16T11:11:07Z</time>
      </trkpt>
      <trkpt lat="47.56089" lon="-2.30818">
        <ele>53</ele>
        <time>2025-01-16T11:11:08Z</time>
      </trkpt>
      <trkpt lat="47.56088" lon="-2.30818">
        <ele>53</ele>
        <time>2025-01-16T11:11:09Z</time>
      </trkpt>
      <trkpt lat="47.56088" lon="-2.30819">
        <ele>53</ele>
        <time>2025-01-16T11:11:10Z</time>
      </trkpt>
      <trkpt lat="47.56087" lon="-2.3082">
        <ele>53</ele>
        <time>2025-01-16T11:11:11Z</time>
      </trkpt>
      <trkpt lat="47.56086" lon="-2.3082">
        <ele>53</ele>
        <time>2025-01-16T11:11:12Z</time>
      </trkpt>
      <trkpt lat="47.56085" lon="-2.30821">
        <ele>53</ele>
        <time>2025-01-16T11:11:13Z</time>
      </trkpt>
      <trkpt lat="47.56085" lon="-2.30822">
        <ele>53</ele>
        <time>2025-01-16T11:11:14Z</time>
      </trkpt>
      <trkpt lat="47.56084" lon="-2.30823">
        <ele>53</ele>
        <time>2025-01-16T11:11:15Z</time>
      </trkpt>
      <trkpt lat="47.56083" lon="-2.30824">
        <ele>53</ele>
        <time>2025-01-16T11:11:16Z</time>
      </trkpt>
      <trkpt lat="47.56082" lon="-2.30825">
        <ele>53.2</ele>
        <time>2025-01-16T11:11:17Z</time>
      </trkpt>
      <trkpt lat="47.56081" lon="-2.30825">
        <ele>53.3</ele>
        <time>2025-01-16T11:11:18Z</time>
      </trkpt>
      <trkpt lat="47.5608" lon="-2.30826">
        <ele>53.4</ele>
        <time>2025-01-16T11:11:19Z</time>
      </trkpt>
      <trkpt lat="47.56079" lon="-2.30826">
        <ele>53.5</ele>
        <time>2025-01-16T11:11:20Z</time>
      </trkpt>
      <trkpt lat="47.56078" lon="-2.30827">
        <ele>53.7</ele>
        <time>2025-01-16T11:11:21Z</time>
      </trkpt>
      <trkpt lat="47.56077" lon="-2.30828">
        <ele>53.8</ele>
        <time>2025-01-16T11:11:22Z</time>
      </trkpt>
      <trkpt lat="47.56076" lon="-2.30829">
        <ele>54</ele>
        <time>2025-01-16T11:11:23Z</time>
      </trkpt>
      <trkpt lat="47.56075" lon="-2.30829">
        <ele>54.1</ele>
        <time>2025-01-16T11:11:24Z</time>
      </trkpt>
      <trkpt lat="47.56074" lon="-2.3083">
        <ele>54.3</ele>
        <time>2025-01-16T11:11:25Z</time>
      </trkpt>
      <trkpt lat="47.56073" lon="-2.3083">
        <ele>54.4</ele>
        <time>2025-01-16T11:11:26Z</time>
      </trkpt>
      <trkpt lat="47.56072" lon="-2.3083">
        <ele>54.5</ele>
        <time>2025-01-16T11:11:27Z</time>
      </trkpt>
      <trkpt lat="47.56071" lon="-2.3083">
        <ele>54.7</ele>
        <time>2025-01-16T11:11:28Z</time>
      </trkpt>
      <trkpt lat="47.5607" lon="-2.3083">
        <ele>54.8</ele>
        <time>2025-01-16T11:11:29Z</time>
      </trkpt>
      <trkpt lat="47.56069" lon="-2.30829">
        <ele>54.9</ele>
        <time>2025-01-16T11:11:30Z</time>
      </trkpt>
      <trkpt lat="47.56068" lon="-2.30829">
        <ele>55</ele>
        <time>2025-01-16T11:11:31Z</time>
      </trkpt>
      <trkpt lat="47.56066" lon="-2.30828">
        <ele>55.3</ele>
        <time>2025-01-16T11:11:32Z</time>
      </trkpt>
      <trkpt lat="47.56066" lon="-2.30827">
        <ele>55.2</ele>
        <time>2025-01-16T11:11:33Z</time>
      </trkpt>
      <trkpt lat="47.56065" lon="-2.30827">
        <ele>55.3</ele>
        <time>2025-01-16T11:11:34Z</time>
      </trkpt>
      <trkpt lat="47.56064" lon="-2.30826">
        <ele>55.4</ele>
        <time>2025-01-16T11:11:35Z</time>
      </trkpt>
      <trkpt lat="47.56063" lon="-2.30824">
        <ele>55.4</ele>
        <time>2025-01-16T11:11:36Z</time>
      </trkpt>
      <trkpt lat="47.56062" lon="-2.30823">
        <ele>55.5</ele>
        <time>2025-01-16T11:11:37Z</time>
      </trkpt>
      <trkpt lat="47.56061" lon="-2.30822">
        <ele>55.6</ele>
        <time>2025-01-16T11:11:38Z</time>
      </trkpt>
      <trkpt lat="47.5606" lon="-2.30821">
        <ele>55.6</ele>
        <time>2025-01-16T11:11:39Z</time>
      </trkpt>
      <trkpt lat="47.56059" lon="-2.3082">
        <ele>55.7</ele>
        <time>2025-01-16T11:11:40Z</time>
      </trkpt>
      <trkpt lat="47.56059" lon="-2.30818">
        <ele>55.5</ele>
        <time>2025-01-16T11:11:41Z</time>
      </trkpt>
      <trkpt lat="47.56058" lon="-2.30817">
        <ele>55.6</ele>
        <time>2025-01-16T11:11:42Z</time>
      </trkpt>
      <trkpt lat="47.56057" lon="-2.30816">
        <ele>55.6</ele>
        <time>2025-01-16T11:11:43Z</time>
      </trkpt>
      <trkpt lat="47.56056" lon="-2.30815">
        <ele>55.6</ele>
        <time>2025-01-16T11:11:44Z</time>
      </trkpt>
      <trkpt lat="47.56055" lon="-2.30813">
        <ele>55.6</ele>
        <time>2025-01-16T11:11:45Z</time>
      </trkpt>
      <trkpt lat="47.56055" lon="-2.30811">
        <ele>55.4</ele>
        <time>2025-01-16T11:11:46Z</time>
      </trkpt>
      <trkpt lat="47.56055" lon="-2.3081">
        <ele>55.4</ele>
        <time>2025-01-16T11:11:47Z</time>
      </trkpt>
      <trkpt lat="47.56055" lon="-2.3081">
        <ele>55.4</ele>
        <time>2025-01-16T11:11:48Z</time>
      </trkpt>
      <trkpt lat="47.56055" lon="-2.3081">
        <ele>55.4</ele>
        <time>2025-01-16T11:11:49Z</time>
      </trkpt>
      <trkpt lat="47.56054" lon="-2.30808">
        <ele>55.3</ele>
        <time>2025-01-16T11:11:50Z</time>
      </trkpt>
      <trkpt lat="47.56053" lon="-2.30806">
        <ele>55.2</ele>
        <time>2025-01-16T11:11:51Z</time>
      </trkpt>
      <trkpt lat="47.56052" lon="-2.30805">
        <ele>55.2</ele>
        <time>2025-01-16T11:11:52Z</time>
      </trkpt>
      <trkpt lat="47.56052" lon="-2.30803">
        <ele>55.2</ele>
        <time>2025-01-16T11:11:53Z</time>
      </trkpt>
      <trkpt lat="47.56051" lon="-2.30802">
        <ele>55.2</ele>
        <time>2025-01-16T11:11:54Z</time>
      </trkpt>
      <trkpt lat="47.5605" lon="-2.30801">
        <ele>55.3</ele>
        <time>2025-01-16T11:11:55Z</time>
      </trkpt>
      <trkpt lat="47.5605" lon="-2.308">
        <ele>55.2</ele>
        <time>2025-01-16T11:11:56Z</time>
      </trkpt>
      <trkpt lat="47.5605" lon="-2.30799">
        <ele>55.2</ele>
        <time>2025-01-16T11:11:57Z</time>
      </trkpt>
      <trkpt lat="47.5605" lon="-2.30797">
        <ele>55.2</ele>
        <time>2025-01-16T11:11:58Z</time>
      </trkpt>
      <trkpt lat="47.5605" lon="-2.30795">
        <ele>55.1</ele>
        <time>2025-01-16T11:11:59Z</time>
      </trkpt>
      <trkpt lat="47.5605" lon="-2.30793">
        <ele>55</ele>
        <time>2025-01-16T11:12:00Z</time>
      </trkpt>
      <trkpt lat="47.56051" lon="-2.30791">
        <ele>54.9</ele>
        <time>2025-01-16T11:12:01Z</time>
      </trkpt>
      <trkpt lat="47.56051" lon="-2.3079">
        <ele>54.9</ele>
        <time>2025-01-16T11:12:02Z</time>
      </trkpt>
      <trkpt lat="47.56051" lon="-2.30788">
        <ele>54.8</ele>
        <time>2025-01-16T11:12:03Z</time>
      </trkpt>
      <trkpt lat="47.56051" lon="-2.30786">
        <ele>54.7</ele>
        <time>2025-01-16T11:12:04Z</time>
      </trkpt>
      <trkpt lat="47.56051" lon="-2.30784">
        <ele>54.7</ele>
        <time>2025-01-16T11:12:05Z</time>
      </trkpt>
      <trkpt lat="47.56051" lon="-2.30782">
        <ele>54.6</ele>
        <time>2025-01-16T11:12:06Z</time>
      </trkpt>
      <trkpt lat="47.56051" lon="-2.30779">
        <ele>54.5</ele>
        <time>2025-01-16T11:12:07Z</time>
      </trkpt>
      <trkpt lat="47.56051" lon="-2.30777">
        <ele>54.5</ele>
        <time>2025-01-16T11:12:08Z</time>
      </trkpt>
      <trkpt lat="47.56051" lon="-2.30774">
        <ele>54.4</ele>
        <time>2025-01-16T11:12:09Z</time>
      </trkpt>
      <trkpt lat="47.56051" lon="-2.30772">
        <ele>54.3</ele>
        <time>2025-01-16T11:12:10Z</time>
      </trkpt>
      <trkpt lat="47.56051" lon="-2.3077">
        <ele>54.2</ele>
        <time>2025-01-16T11:12:11Z</time>
      </trkpt>
      <trkpt lat="47.5605" lon="-2.30768">
        <ele>54.2</ele>
        <time>2025-01-16T11:12:12Z</time>
      </trkpt>
      <trkpt lat="47.5605" lon="-2.30767">
        <ele>54.2</ele>
        <time>2025-01-16T11:12:13Z</time>
      </trkpt>
      <trkpt lat="47.5605" lon="-2.30765">
        <ele>54.1</ele>
        <time>2025-01-16T11:12:14Z</time>
      </trkpt>
      <trkpt lat="47.5605" lon="-2.30762">
        <ele>54</ele>
        <time>2025-01-16T11:12:15Z</time>
      </trkpt>
      <trkpt lat="47.5605" lon="-2.3076">
        <ele>54</ele>
        <time>2025-01-16T11:12:16Z</time>
      </trkpt>
      <trkpt lat="47.5605" lon="-2.30758">
        <ele>53.9</ele>
        <time>2025-01-16T11:12:17Z</time>
      </trkpt>
      <trkpt lat="47.5605" lon="-2.30756">
        <ele>53.8</ele>
        <time>2025-01-16T11:12:18Z</time>
      </trkpt>
      <trkpt lat="47.56049" lon="-2.30754">
        <ele>53.9</ele>
        <time>2025-01-16T11:12:19Z</time>
      </trkpt>
      <trkpt lat="47.56049" lon="-2.30752">
        <ele>53.8</ele>
        <time>2025-01-16T11:12:20Z</time>
      </trkpt>
      <trkpt lat="47.5605" lon="-2.30751">
        <ele>53.6</ele>
        <time>2025-01-16T11:12:21Z</time>
      </trkpt>
      <trkpt lat="47.56051" lon="-2.3075">
        <ele>53.5</ele>
        <time>2025-01-16T11:12:22Z</time>
      </trkpt>
      <trkpt lat="47.56051" lon="-2.3075">
        <ele>53.5</ele>
        <time>2025-01-16T11:12:23Z</time>
      </trkpt>
      <trkpt lat="47.56052" lon="-2.30749">
        <ele>53.4</ele>
        <time>2025-01-16T11:12:24Z</time>
      </trkpt>
      <trkpt lat="47.56053" lon="-2.30748">
        <ele>53.3</ele>
        <time>2025-01-16T11:12:25Z</time>
      </trkpt>
      <trkpt lat="47.56054" lon="-2.30747">
        <ele>53.2</ele>
        <time>2025-01-16T11:12:26Z</time>
      </trkpt>
      <trkpt lat="47.56054" lon="-2.30747">
        <ele>53.2</ele>
        <time>2025-01-16T11:12:27Z</time>
      </trkpt>
      <trkpt lat="47.56055" lon="-2.30746">
        <ele>53.1</ele>
        <time>2025-01-16T11:12:28Z</time>
      </trkpt>
      <trkpt lat="47.56056" lon="-2.30745">
        <ele>53</ele>
        <time>2025-01-16T11:12:29Z</time>
      </trkpt>
      <trkpt lat="47.56057" lon="-2.30744">
        <ele>52.9</ele>
        <time>2025-01-16T11:12:30Z</time>
      </trkpt>
      <trkpt lat="47.56058" lon="-2.30743">
        <ele>52.8</ele>
        <time>2025-01-16T11:12:31Z</time>
      </trkpt>
      <trkpt lat="47.56059" lon="-2.30742">
        <ele>52.7</ele>
        <time>2025-01-16T11:12:32Z</time>
      </trkpt>
      <trkpt lat="47.5606" lon="-2.30741">
        <ele>52.6</ele>
        <time>2025-01-16T11:12:33Z</time>
      </trkpt>
      <trkpt lat="47.56061" lon="-2.3074">
        <ele>52.5</ele>
        <time>2025-01-16T11:12:34Z</time>
      </trkpt>
      <trkpt lat="47.56062" lon="-2.30739">
        <ele>52.4</ele>
        <time>2025-01-16T11:12:35Z</time>
      </trkpt>
      <trkpt lat="47.56063" lon="-2.30738">
        <ele>52.2</ele>
        <time>2025-01-16T11:12:36Z</time>
      </trkpt>
      <trkpt lat="47.56064" lon="-2.30737">
        <ele>52.1</ele>
        <time>2025-01-16T11:12:37Z</time>
      </trkpt>
      <trkpt lat="47.56065" lon="-2.30736">
        <ele>52</ele>
        <time>2025-01-16T11:12:38Z</time>
      </trkpt>
      <trkpt lat="47.56066" lon="-2.30735">
        <ele>51.8</ele>
        <time>2025-01-16T11:12:39Z</time>
      </trkpt>
      <trkpt lat="47.56067" lon="-2.30733">
        <ele>51.7</ele>
        <time>2025-01-16T11:12:40Z</time>
      </trkpt>
      <trkpt lat="47.56067" lon="-2.30731">
        <ele>51.6</ele>
        <time>2025-01-16T11:12:41Z</time>
      </trkpt>
      <trkpt lat="47.56068" lon="-2.3073">
        <ele>51.5</ele>
        <time>2025-01-16T11:12:42Z</time>
      </trkpt>
      <trkpt lat="47.56069" lon="-2.30728">
        <ele>51.3</ele>
        <time>2025-01-16T11:12:43Z</time>
      </trkpt>
      <trkpt lat="47.5607" lon="-2.30726">
        <ele>51.1</ele>
        <time>2025-01-16T11:12:44Z</time>
      </trkpt>
      <trkpt lat="47.5607" lon="-2.30724">
        <ele>51</ele>
        <time>2025-01-16T11:12:45Z</time>
      </trkpt>
      <trkpt lat="47.56071" lon="-2.30722">
        <ele>50.8</ele>
        <time>2025-01-16T11:12:46Z</time>
      </trkpt>
      <trkpt lat="47.56071" lon="-2.30721">
        <ele>50.8</ele>
        <time>2025-01-16T11:12:47Z</time>
      </trkpt>
      <trkpt lat="47.56071" lon="-2.30719">
        <ele>50.8</ele>
        <time>2025-01-16T11:12:48Z</time>
      </trkpt>
      <trkpt lat="47.56072" lon="-2.30718">
        <ele>50.6</ele>
        <time>2025-01-16T11:12:49Z</time>
      </trkpt>
      <trkpt lat="47.56072" lon="-2.30716">
        <ele>50.6</ele>
        <time>2025-01-16T11:12:50Z</time>
      </trkpt>
      <trkpt lat="47.56072" lon="-2.30713">
        <ele>50.6</ele>
        <time>2025-01-16T11:12:51Z</time>
      </trkpt>
      <trkpt lat="47.56072" lon="-2.30711">
        <ele>50.6</ele>
        <time>2025-01-16T11:12:52Z</time>
      </trkpt>
      <trkpt lat="47.56072" lon="-2.30709">
        <ele>50.6</ele>
        <time>2025-01-16T11:12:53Z</time>
      </trkpt>
      <trkpt lat="47.56072" lon="-2.30708">
        <ele>50.6</ele>
        <time>2025-01-16T11:12:54Z</time>
      </trkpt>
      <trkpt lat="47.56072" lon="-2.30707">
        <ele>50.6</ele>
        <time>2025-01-16T11:12:55Z</time>
      </trkpt>
      <trkpt lat="47.56073" lon="-2.30706">
        <ele>50.5</ele>
        <time>2025-01-16T11:12:56Z</time>
      </trkpt>
      <trkpt lat="47.56073" lon="-2.30705">
        <ele>50.5</ele>
        <time>2025-01-16T11:12:57Z</time>
      </trkpt>
      <trkpt lat="47.56073" lon="-2.30703">
        <ele>50.5</ele>
        <time>2025-01-16T11:12:58Z</time>
      </trkpt>
      <trkpt lat="47.56074" lon="-2.30702">
        <ele>50.3</ele>
        <time>2025-01-16T11:12:59Z</time>
      </trkpt>
      <trkpt lat="47.56074" lon="-2.307">
        <ele>50.3</ele>
        <time>2025-01-16T11:13:00Z</time>
      </trkpt>
      <trkpt lat="47.56074" lon="-2.30698">
        <ele>50.3</ele>
        <time>2025-01-16T11:13:01Z</time>
      </trkpt>
      <trkpt lat="47.56074" lon="-2.30696">
        <ele>50.3</ele>
        <time>2025-01-16T11:13:02Z</time>
      </trkpt>
      <trkpt lat="47.56074" lon="-2.30695">
        <ele>50.3</ele>
        <time>2025-01-16T11:13:03Z</time>
      </trkpt>
      <trkpt lat="47.56074" lon="-2.30694">
        <ele>50.3</ele>
        <time>2025-01-16T11:13:04Z</time>
      </trkpt>
      <trkpt lat="47.56074" lon="-2.30693">
        <ele>50.3</ele>
        <time>2025-01-16T11:13:05Z</time>
      </trkpt>
      <trkpt lat="47.56075" lon="-2.30692">
        <ele>50.1</ele>
        <time>2025-01-16T11:13:06Z</time>
      </trkpt>
      <trkpt lat="47.56075" lon="-2.30691">
        <ele>50.1</ele>
        <time>2025-01-16T11:13:07Z</time>
      </trkpt>
      <trkpt lat="47.56075" lon="-2.3069">
        <ele>50.1</ele>
        <time>2025-01-16T11:13:08Z</time>
      </trkpt>
      <trkpt lat="47.56075" lon="-2.30689">
        <ele>50.1</ele>
        <time>2025-01-16T11:13:09Z</time>
      </trkpt>
      <trkpt lat="47.56075" lon="-2.30687">
        <ele>50</ele>
        <time>2025-01-16T11:13:10Z</time>
      </trkpt>
      <trkpt lat="47.56074" lon="-2.30686">
        <ele>50.1</ele>
        <time>2025-01-16T11:13:11Z</time>
      </trkpt>
      <trkpt lat="47.56074" lon="-2.30684">
        <ele>50.1</ele>
        <time>2025-01-16T11:13:12Z</time>
      </trkpt>
      <trkpt lat="47.56074" lon="-2.30682">
        <ele>50</ele>
        <time>2025-01-16T11:13:13Z</time>
      </trkpt>
      <trkpt lat="47.56074" lon="-2.3068">
        <ele>50</ele>
        <time>2025-01-16T11:13:14Z</time>
      </trkpt>
      <trkpt lat="47.56074" lon="-2.30677">
        <ele>49.9</ele>
        <time>2025-01-16T11:13:15Z</time>
      </trkpt>
      <trkpt lat="47.56074" lon="-2.30676">
        <ele>49.9</ele>
        <time>2025-01-16T11:13:16Z</time>
      </trkpt>
      <trkpt lat="47.56073" lon="-2.30673">
        <ele>50</ele>
        <time>2025-01-16T11:13:17Z</time>
      </trkpt>
      <trkpt lat="47.56073" lon="-2.3067">
        <ele>49.9</ele>
        <time>2025-01-16T11:13:18Z</time>
      </trkpt>
      <trkpt lat="47.56073" lon="-2.30668">
        <ele>49.9</ele>
        <time>2025-01-16T11:13:19Z</time>
      </trkpt>
      <trkpt lat="47.56073" lon="-2.30666">
        <ele>49.8</ele>
        <time>2025-01-16T11:13:20Z</time>
      </trkpt>
      <trkpt lat="47.56073" lon="-2.30665">
        <ele>49.7</ele>
        <time>2025-01-16T11:13:21Z</time>
      </trkpt>
      <trkpt lat="47.56073" lon="-2.30663">
        <ele>49.6</ele>
        <time>2025-01-16T11:13:22Z</time>
      </trkpt>
      <trkpt lat="47.56072" lon="-2.30661">
        <ele>49.6</ele>
        <time>2025-01-16T11:13:23Z</time>
      </trkpt>
      <trkpt lat="47.56072" lon="-2.30659">
        <ele>49.5</ele>
        <time>2025-01-16T11:13:24Z</time>
      </trkpt>
      <trkpt lat="47.56072" lon="-2.30657">
        <ele>49.3</ele>
        <time>2025-01-16T11:13:25Z</time>
      </trkpt>
      <trkpt lat="47.56072" lon="-2.30654">
        <ele>49.1</ele>
        <time>2025-01-16T11:13:26Z</time>
      </trkpt>
      <trkpt lat="47.56072" lon="-2.30652">
        <ele>49</ele>
        <time>2025-01-16T11:13:27Z</time>
      </trkpt>
      <trkpt lat="47.56072" lon="-2.30651">
        <ele>48.9</ele>
        <time>2025-01-16T11:13:28Z</time>
      </trkpt>
      <trkpt lat="47.56072" lon="-2.30649">
        <ele>48.8</ele>
        <time>2025-01-16T11:13:29Z</time>
      </trkpt>
      <trkpt lat="47.56072" lon="-2.30647">
        <ele>48.6</ele>
        <time>2025-01-16T11:13:30Z</time>
      </trkpt>
      <trkpt lat="47.56072" lon="-2.30645">
        <ele>48.5</ele>
        <time>2025-01-16T11:13:31Z</time>
      </trkpt>
      <trkpt lat="47.56071" lon="-2.30643">
        <ele>48.5</ele>
        <time>2025-01-16T11:13:32Z</time>
      </trkpt>
      <trkpt lat="47.56071" lon="-2.30641">
        <ele>48.4</ele>
        <time>2025-01-16T11:13:33Z</time>
      </trkpt>
      <trkpt lat="47.56071" lon="-2.30639">
        <ele>48.2</ele>
        <time>2025-01-16T11:13:34Z</time>
      </trkpt>
      <trkpt lat="47.5607" lon="-2.30638">
        <ele>48.4</ele>
        <time>2025-01-16T11:13:35Z</time>
      </trkpt>
      <trkpt lat="47.5607" lon="-2.30635">
        <ele>48.2</ele>
        <time>2025-01-16T11:13:36Z</time>
      </trkpt>
      <trkpt lat="47.5607" lon="-2.30633">
        <ele>48.1</ele>
        <time>2025-01-16T11:13:37Z</time>
      </trkpt>
      <trkpt lat="47.56069" lon="-2.30631">
        <ele>48.2</ele>
        <time>2025-01-16T11:13:38Z</time>
      </trkpt>
      <trkpt lat="47.56069" lon="-2.30629">
        <ele>48.1</ele>
        <time>2025-01-16T11:13:39Z</time>
      </trkpt>
      <trkpt lat="47.56069" lon="-2.30628">
        <ele>48</ele>
        <time>2025-01-16T11:13:40Z</time>
      </trkpt>
      <trkpt lat="47.56069" lon="-2.30626">
        <ele>47.9</ele>
        <time>2025-01-16T11:13:41Z</time>
      </trkpt>
      <trkpt lat="47.56069" lon="-2.30625">
        <ele>47.8</ele>
        <time>2025-01-16T11:13:42Z</time>
      </trkpt>
      <trkpt lat="47.56069" lon="-2.30623">
        <ele>47.7</ele>
        <time>2025-01-16T11:13:43Z</time>
      </trkpt>
      <trkpt lat="47.56069" lon="-2.30621">
        <ele>47.6</ele>
        <time>2025-01-16T11:13:44Z</time>
      </trkpt>
      <trkpt lat="47.56069" lon="-2.30619">
        <ele>47.5</ele>
        <time>2025-01-16T11:13:45Z</time>
      </trkpt>
      <trkpt lat="47.56069" lon="-2.30618">
        <ele>47.5</ele>
        <time>2025-01-16T11:13:46Z</time>
      </trkpt>
      <trkpt lat="47.56069" lon="-2.30617">
        <ele>47.4</ele>
        <time>2025-01-16T11:13:47Z</time>
      </trkpt>
      <trkpt lat="47.56069" lon="-2.30615">
        <ele>47.3</ele>
        <time>2025-01-16T11:13:48Z</time>
      </trkpt>
      <trkpt lat="47.56068" lon="-2.30613">
        <ele>47.4</ele>
        <time>2025-01-16T11:13:49Z</time>
      </trkpt>
      <trkpt lat="47.56068" lon="-2.30612">
        <ele>47.4</ele>
        <time>2025-01-16T11:13:50Z</time>
      </trkpt>
      <trkpt lat="47.56068" lon="-2.3061">
        <ele>47.3</ele>
        <time>2025-01-16T11:13:51Z</time>
      </trkpt>
      <trkpt lat="47.56068" lon="-2.30609">
        <ele>47.2</ele>
        <time>2025-01-16T11:13:52Z</time>
      </trkpt>
      <trkpt lat="47.56068" lon="-2.30608">
        <ele>47.2</ele>
        <time>2025-01-16T11:13:53Z</time>
      </trkpt>
      <trkpt lat="47.56068" lon="-2.30606">
        <ele>47.1</ele>
        <time>2025-01-16T11:13:54Z</time>
      </trkpt>
      <trkpt lat="47.56068" lon="-2.30604">
        <ele>47</ele>
        <time>2025-01-16T11:13:55Z</time>
      </trkpt>
      <trkpt lat="47.56067" lon="-2.30603">
        <ele>47.2</ele>
        <time>2025-01-16T11:13:56Z</time>
      </trkpt>
      <trkpt lat="47.56067" lon="-2.306">
        <ele>47.1</ele>
        <time>2025-01-16T11:13:57Z</time>
      </trkpt>
      <trkpt lat="47.56066" lon="-2.30598">
        <ele>47.2</ele>
        <time>2025-01-16T11:13:58Z</time>
      </trkpt>
      <trkpt lat="47.56066" lon="-2.30596">
        <ele>47.1</ele>
        <time>2025-01-16T11:13:59Z</time>
      </trkpt>
      <trkpt lat="47.56066" lon="-2.30594">
        <ele>47</ele>
        <time>2025-01-16T11:14:00Z</time>
      </trkpt>
      <trkpt lat="47.56066" lon="-2.30592">
        <ele>46.9</ele>
        <time>2025-01-16T11:14:01Z</time>
      </trkpt>
      <trkpt lat="47.56066" lon="-2.3059">
        <ele>46.8</ele>
        <time>2025-01-16T11:14:02Z</time>
      </trkpt>
      <trkpt lat="47.56066" lon="-2.30588">
        <ele>46.7</ele>
        <time>2025-01-16T11:14:03Z</time>
      </trkpt>
      <trkpt lat="47.56065" lon="-2.30586">
        <ele>46.8</ele>
        <time>2025-01-16T11:14:04Z</time>
      </trkpt>
      <trkpt lat="47.56065" lon="-2.30584">
        <ele>46.7</ele>
        <time>2025-01-16T11:14:05Z</time>
      </trkpt>
      <trkpt lat="47.56064" lon="-2.30582">
        <ele>46.7</ele>
        <time>2025-01-16T11:14:06Z</time>
      </trkpt>
      <trkpt lat="47.56064" lon="-2.30581">
        <ele>46.6</ele>
        <time>2025-01-16T11:14:07Z</time>
      </trkpt>
      <trkpt lat="47.56064" lon="-2.3058">
        <ele>46.5</ele>
        <time>2025-01-16T11:14:08Z</time>
      </trkpt>
      <trkpt lat="47.56064" lon="-2.30578">
        <ele>46.4</ele>
        <time>2025-01-16T11:14:09Z</time>
      </trkpt>
      <trkpt lat="47.56064" lon="-2.30577">
        <ele>46.3</ele>
        <time>2025-01-16T11:14:10Z</time>
      </trkpt>
      <trkpt lat="47.56064" lon="-2.30576">
        <ele>46.3</ele>
        <time>2025-01-16T11:14:11Z</time>
      </trkpt>
      <trkpt lat="47.56063" lon="-2.30574">
        <ele>46.3</ele>
        <time>2025-01-16T11:14:12Z</time>
      </trkpt>
      <trkpt lat="47.56063" lon="-2.30572">
        <ele>46.1</ele>
        <time>2025-01-16T11:14:13Z</time>
      </trkpt>
      <trkpt lat="47.56062" lon="-2.3057">
        <ele>46.1</ele>
        <time>2025-01-16T11:14:14Z</time>
      </trkpt>
      <trkpt lat="47.56062" lon="-2.30569">
        <ele>46</ele>
        <time>2025-01-16T11:14:15Z</time>
      </trkpt>
      <trkpt lat="47.56062" lon="-2.30567">
        <ele>45.9</ele>
        <time>2025-01-16T11:14:16Z</time>
      </trkpt>
      <trkpt lat="47.56061" lon="-2.30566">
        <ele>46</ele>
        <time>2025-01-16T11:14:17Z</time>
      </trkpt>
      <trkpt lat="47.56061" lon="-2.30564">
        <ele>45.8</ele>
        <time>2025-01-16T11:14:18Z</time>
      </trkpt>
      <trkpt lat="47.5606" lon="-2.30563">
        <ele>45.9</ele>
        <time>2025-01-16T11:14:19Z</time>
      </trkpt>
      <trkpt lat="47.5606" lon="-2.30562">
        <ele>45.8</ele>
        <time>2025-01-16T11:14:20Z</time>
      </trkpt>
      <trkpt lat="47.56059" lon="-2.3056">
        <ele>45.8</ele>
        <time>2025-01-16T11:14:21Z</time>
      </trkpt>
      <trkpt lat="47.56058" lon="-2.30559">
        <ele>45.9</ele>
        <time>2025-01-16T11:14:22Z</time>
      </trkpt>
      <trkpt lat="47.56057" lon="-2.30557">
        <ele>45.9</ele>
        <time>2025-01-16T11:14:23Z</time>
      </trkpt>
      <trkpt lat="47.56056" lon="-2.30555">
        <ele>45.8</ele>
        <time>2025-01-16T11:14:24Z</time>
      </trkpt>
      <trkpt lat="47.56055" lon="-2.30554">
        <ele>45.8</ele>
        <time>2025-01-16T11:14:25Z</time>
      </trkpt>
      <trkpt lat="47.56055" lon="-2.30552">
        <ele>45.4</ele>
        <time>2025-01-16T11:14:26Z</time>
      </trkpt>
      <trkpt lat="47.56054" lon="-2.30551">
        <ele>45.4</ele>
        <time>2025-01-16T11:14:27Z</time>
      </trkpt>
      <trkpt lat="47.56053" lon="-2.3055">
        <ele>45.4</ele>
        <time>2025-01-16T11:14:28Z</time>
      </trkpt>
      <trkpt lat="47.56052" lon="-2.30548">
        <ele>45.3</ele>
        <time>2025-01-16T11:14:29Z</time>
      </trkpt>
      <trkpt lat="47.56051" lon="-2.30547">
        <ele>45.3</ele>
        <time>2025-01-16T11:14:30Z</time>
      </trkpt>
      <trkpt lat="47.56049" lon="-2.30545">
        <ele>45.3</ele>
        <time>2025-01-16T11:14:31Z</time>
      </trkpt>
      <trkpt lat="47.56048" lon="-2.30544">
        <ele>45.3</ele>
        <time>2025-01-16T11:14:32Z</time>
      </trkpt>
      <trkpt lat="47.56047" lon="-2.30542">
        <ele>45.2</ele>
        <time>2025-01-16T11:14:33Z</time>
      </trkpt>
      <trkpt lat="47.56046" lon="-2.30541">
        <ele>45.3</ele>
        <time>2025-01-16T11:14:34Z</time>
      </trkpt>
      <trkpt lat="47.56045" lon="-2.3054">
        <ele>45.4</ele>
        <time>2025-01-16T11:14:35Z</time>
      </trkpt>
      <trkpt lat="47.56045" lon="-2.30539">
        <ele>45.2</ele>
        <time>2025-01-16T11:14:36Z</time>
      </trkpt>
      <trkpt lat="47.56044" lon="-2.30537">
        <ele>45.2</ele>
        <time>2025-01-16T11:14:37Z</time>
      </trkpt>
      <trkpt lat="47.56043" lon="-2.30536">
        <ele>45.2</ele>
        <time>2025-01-16T11:14:38Z</time>
      </trkpt>
      <trkpt lat="47.56043" lon="-2.30534">
        <ele>45</ele>
        <time>2025-01-16T11:14:39Z</time>
      </trkpt>
      <trkpt lat="47.56042" lon="-2.30533">
        <ele>45.1</ele>
        <time>2025-01-16T11:14:40Z</time>
      </trkpt>
      <trkpt lat="47.56041" lon="-2.30532">
        <ele>45.2</ele>
        <time>2025-01-16T11:14:41Z</time>
      </trkpt>
      <trkpt lat="47.5604" lon="-2.3053">
        <ele>45.2</ele>
        <time>2025-01-16T11:14:42Z</time>
      </trkpt>
      <trkpt lat="47.56039" lon="-2.30529">
        <ele>45.3</ele>
        <time>2025-01-16T11:14:43Z</time>
      </trkpt>
      <trkpt lat="47.56038" lon="-2.30528">
        <ele>45.4</ele>
        <time>2025-01-16T11:14:44Z</time>
      </trkpt>
      <trkpt lat="47.56037" lon="-2.30527">
        <ele>45.6</ele>
        <time>2025-01-16T11:14:45Z</time>
      </trkpt>
      <trkpt lat="47.56037" lon="-2.30525">
        <ele>45.3</ele>
        <time>2025-01-16T11:14:46Z</time>
      </trkpt>
      <trkpt lat="47.56036" lon="-2.30524">
        <ele>45.4</ele>
        <time>2025-01-16T11:14:47Z</time>
      </trkpt>
      <trkpt lat="47.56035" lon="-2.30522">
        <ele>45.4</ele>
        <time>2025-01-16T11:14:48Z</time>
      </trkpt>
      <trkpt lat="47.56034" lon="-2.30521">
        <ele>45.5</ele>
        <time>2025-01-16T11:14:49Z</time>
      </trkpt>
      <trkpt lat="47.56033" lon="-2.30519">
        <ele>45.6</ele>
        <time>2025-01-16T11:14:50Z</time>
      </trkpt>
      <trkpt lat="47.56032" lon="-2.30518">
        <ele>45.7</ele>
        <time>2025-01-16T11:14:51Z</time>
      </trkpt>
      <trkpt lat="47.56031" lon="-2.30517">
        <ele>45.9</ele>
        <time>2025-01-16T11:14:52Z</time>
      </trkpt>
      <trkpt lat="47.56031" lon="-2.30515">
        <ele>45.6</ele>
        <time>2025-01-16T11:14:53Z</time>
      </trkpt>
      <trkpt lat="47.5603" lon="-2.30514">
        <ele>45.8</ele>
        <time>2025-01-16T11:14:54Z</time>
      </trkpt>
      <trkpt lat="47.5603" lon="-2.30513">
        <ele>45.7</ele>
        <time>2025-01-16T11:14:55Z</time>
      </trkpt>
      <trkpt lat="47.5603" lon="-2.30512">
        <ele>45.6</ele>
        <time>2025-01-16T11:14:56Z</time>
      </trkpt>
      <trkpt lat="47.5603" lon="-2.30511">
        <ele>45.5</ele>
        <time>2025-01-16T11:14:57Z</time>
      </trkpt>
      <trkpt lat="47.56029" lon="-2.30509">
        <ele>45.6</ele>
        <time>2025-01-16T11:14:58Z</time>
      </trkpt>
      <trkpt lat="47.56029" lon="-2.30508">
        <ele>45.5</ele>
        <time>2025-01-16T11:14:59Z</time>
      </trkpt>
      <trkpt lat="47.56028" lon="-2.30507">
        <ele>45.7</ele>
        <time>2025-01-16T11:15:00Z</time>
      </trkpt>
      <trkpt lat="47.56027" lon="-2.30505">
        <ele>45.7</ele>
        <time>2025-01-16T11:15:01Z</time>
      </trkpt>
      <trkpt lat="47.56027" lon="-2.30504">
        <ele>45.6</ele>
        <time>2025-01-16T11:15:02Z</time>
      </trkpt>
      <trkpt lat="47.56026" lon="-2.30503">
        <ele>45.6</ele>
        <time>2025-01-16T11:15:03Z</time>
      </trkpt>
      <trkpt lat="47.56025" lon="-2.30501">
        <ele>45.6</ele>
        <time>2025-01-16T11:15:04Z</time>
      </trkpt>
      <trkpt lat="47.56025" lon="-2.30499">
        <ele>45.4</ele>
        <time>2025-01-16T11:15:05Z</time>
      </trkpt>
      <trkpt lat="47.56024" lon="-2.30497">
        <ele>45.4</ele>
        <time>2025-01-16T11:15:06Z</time>
      </trkpt>
      <trkpt lat="47.56023" lon="-2.30495">
        <ele>45.4</ele>
        <time>2025-01-16T11:15:07Z</time>
      </trkpt>
      <trkpt lat="47.56023" lon="-2.30495">
        <ele>45.4</ele>
        <time>2025-01-16T11:15:08Z</time>
      </trkpt>
      <trkpt lat="47.56023" lon="-2.30494">
        <ele>45.2</ele>
        <time>2025-01-16T11:15:09Z</time>
      </trkpt>
      <trkpt lat="47.56023" lon="-2.30493">
        <ele>45.1</ele>
        <time>2025-01-16T11:15:10Z</time>
      </trkpt>
      <trkpt lat="47.56022" lon="-2.30492">
        <ele>45.2</ele>
        <time>2025-01-16T11:15:11Z</time>
      </trkpt>
      <trkpt lat="47.56022" lon="-2.30491">
        <ele>45.1</ele>
        <time>2025-01-16T11:15:12Z</time>
      </trkpt>
      <trkpt lat="47.56022" lon="-2.30489">
        <ele>44.9</ele>
        <time>2025-01-16T11:15:13Z</time>
      </trkpt>
      <trkpt lat="47.56021" lon="-2.30488">
        <ele>45</ele>
        <time>2025-01-16T11:15:14Z</time>
      </trkpt>
      <trkpt lat="47.56021" lon="-2.30487">
        <ele>44.9</ele>
        <time>2025-01-16T11:15:15Z</time>
      </trkpt>
      <trkpt lat="47.5602" lon="-2.30485">
        <ele>44.9</ele>
        <time>2025-01-16T11:15:16Z</time>
      </trkpt>
      <trkpt lat="47.5602" lon="-2.30483">
        <ele>44.7</ele>
        <time>2025-01-16T11:15:17Z</time>
      </trkpt>
      <trkpt lat="47.56019" lon="-2.30482">
        <ele>44.8</ele>
        <time>2025-01-16T11:15:18Z</time>
      </trkpt>
      <trkpt lat="47.56019" lon="-2.30481">
        <ele>44.7</ele>
        <time>2025-01-16T11:15:19Z</time>
      </trkpt>
      <trkpt lat="47.56018" lon="-2.30479">
        <ele>44.8</ele>
        <time>2025-01-16T11:15:20Z</time>
      </trkpt>
      <trkpt lat="47.56018" lon="-2.30478">
        <ele>44.7</ele>
        <time>2025-01-16T11:15:21Z</time>
      </trkpt>
      <trkpt lat="47.56017" lon="-2.30477">
        <ele>44.8</ele>
        <time>2025-01-16T11:15:22Z</time>
      </trkpt>
      <trkpt lat="47.56016" lon="-2.30476">
        <ele>44.9</ele>
        <time>2025-01-16T11:15:23Z</time>
      </trkpt>
      <trkpt lat="47.56015" lon="-2.30475">
        <ele>45</ele>
        <time>2025-01-16T11:15:24Z</time>
      </trkpt>
      <trkpt lat="47.56014" lon="-2.30473">
        <ele>45</ele>
        <time>2025-01-16T11:15:25Z</time>
      </trkpt>
      <trkpt lat="47.56014" lon="-2.30472">
        <ele>45</ele>
        <time>2025-01-16T11:15:26Z</time>
      </trkpt>
      <trkpt lat="47.56013" lon="-2.3047">
        <ele>45</ele>
        <time>2025-01-16T11:15:27Z</time>
      </trkpt>
      <trkpt lat="47.56012" lon="-2.30468">
        <ele>45</ele>
        <time>2025-01-16T11:15:28Z</time>
      </trkpt>
      <trkpt lat="47.56012" lon="-2.30467">
        <ele>44.8</ele>
        <time>2025-01-16T11:15:29Z</time>
      </trkpt>
      <trkpt lat="47.56011" lon="-2.30465">
        <ele>44.8</ele>
        <time>2025-01-16T11:15:30Z</time>
      </trkpt>
      <trkpt lat="47.56011" lon="-2.30464">
        <ele>44.7</ele>
        <time>2025-01-16T11:15:31Z</time>
      </trkpt>
      <trkpt lat="47.5601" lon="-2.30462">
        <ele>44.7</ele>
        <time>2025-01-16T11:15:32Z</time>
      </trkpt>
      <trkpt lat="47.56009" lon="-2.3046">
        <ele>44.7</ele>
        <time>2025-01-16T11:15:33Z</time>
      </trkpt>
      <trkpt lat="47.56009" lon="-2.30459">
        <ele>44.6</ele>
        <time>2025-01-16T11:15:34Z</time>
      </trkpt>
      <trkpt lat="47.56008" lon="-2.30457">
        <ele>44.6</ele>
        <time>2025-01-16T11:15:35Z</time>
      </trkpt>
      <trkpt lat="47.56007" lon="-2.30455">
        <ele>44.6</ele>
        <time>2025-01-16T11:15:36Z</time>
      </trkpt>
      <trkpt lat="47.56007" lon="-2.30454">
        <ele>44.5</ele>
        <time>2025-01-16T11:15:37Z</time>
      </trkpt>
      <trkpt lat="47.56006" lon="-2.30452">
        <ele>44.5</ele>
        <time>2025-01-16T11:15:38Z</time>
      </trkpt>
      <trkpt lat="47.56006" lon="-2.30451">
        <ele>44.4</ele>
        <time>2025-01-16T11:15:39Z</time>
      </trkpt>
      <trkpt lat="47.56005" lon="-2.3045">
        <ele>44.5</ele>
        <time>2025-01-16T11:15:40Z</time>
      </trkpt>
      <trkpt lat="47.56004" lon="-2.30449">
        <ele>44.6</ele>
        <time>2025-01-16T11:15:41Z</time>
      </trkpt>
      <trkpt lat="47.56004" lon="-2.30448">
        <ele>44.5</ele>
        <time>2025-01-16T11:15:42Z</time>
      </trkpt>
      <trkpt lat="47.56003" lon="-2.30446">
        <ele>44.5</ele>
        <time>2025-01-16T11:15:43Z</time>
      </trkpt>
      <trkpt lat="47.56002" lon="-2.30445">
        <ele>44.6</ele>
        <time>2025-01-16T11:15:44Z</time>
      </trkpt>
      <trkpt lat="47.56001" lon="-2.30443">
        <ele>44.7</ele>
        <time>2025-01-16T11:15:45Z</time>
      </trkpt>
      <trkpt lat="47.56001" lon="-2.30442">
        <ele>44.6</ele>
        <time>2025-01-16T11:15:46Z</time>
      </trkpt>
      <trkpt lat="47.56001" lon="-2.30442">
        <ele>44.6</ele>
        <time>2025-01-16T11:15:47Z</time>
      </trkpt>
      <trkpt lat="47.56" lon="-2.3044">
        <ele>44.7</ele>
        <time>2025-01-16T11:15:48Z</time>
      </trkpt>
      <trkpt lat="47.55999" lon="-2.30439">
        <ele>44.7</ele>
        <time>2025-01-16T11:15:49Z</time>
      </trkpt>
      <trkpt lat="47.55998" lon="-2.30438">
        <ele>44.7</ele>
        <time>2025-01-16T11:15:50Z</time>
      </trkpt>
      <trkpt lat="47.55997" lon="-2.30436">
        <ele>44.7</ele>
        <time>2025-01-16T11:15:51Z</time>
      </trkpt>
      <trkpt lat="47.55996" lon="-2.30436">
        <ele>44.8</ele>
        <time>2025-01-16T11:15:52Z</time>
      </trkpt>
      <trkpt lat="47.55995" lon="-2.30434">
        <ele>44.7</ele>
        <time>2025-01-16T11:15:53Z</time>
      </trkpt>
      <trkpt lat="47.55994" lon="-2.30433">
        <ele>44.7</ele>
        <time>2025-01-16T11:15:54Z</time>
      </trkpt>
      <trkpt lat="47.55993" lon="-2.30431">
        <ele>44.7</ele>
        <time>2025-01-16T11:15:55Z</time>
      </trkpt>
      <trkpt lat="47.55992" lon="-2.3043">
        <ele>44.7</ele>
        <time>2025-01-16T11:15:56Z</time>
      </trkpt>
      <trkpt lat="47.55991" lon="-2.30428">
        <ele>44.6</ele>
        <time>2025-01-16T11:15:57Z</time>
      </trkpt>
      <trkpt lat="47.5599" lon="-2.30427">
        <ele>44.6</ele>
        <time>2025-01-16T11:15:58Z</time>
      </trkpt>
      <trkpt lat="47.5599" lon="-2.30426">
        <ele>44.5</ele>
        <time>2025-01-16T11:15:59Z</time>
      </trkpt>
      <trkpt lat="47.55989" lon="-2.30425">
        <ele>44.5</ele>
        <time>2025-01-16T11:16:00Z</time>
      </trkpt>
      <trkpt lat="47.55989" lon="-2.30424">
        <ele>44.4</ele>
        <time>2025-01-16T11:16:01Z</time>
      </trkpt>
      <trkpt lat="47.55988" lon="-2.30422">
        <ele>44.3</ele>
        <time>2025-01-16T11:16:02Z</time>
      </trkpt>
      <trkpt lat="47.55987" lon="-2.30421">
        <ele>44.3</ele>
        <time>2025-01-16T11:16:03Z</time>
      </trkpt>
      <trkpt lat="47.55986" lon="-2.30419">
        <ele>44.2</ele>
        <time>2025-01-16T11:16:04Z</time>
      </trkpt>
      <trkpt lat="47.55985" lon="-2.30418">
        <ele>44.2</ele>
        <time>2025-01-16T11:16:05Z</time>
      </trkpt>
      <trkpt lat="47.55984" lon="-2.30416">
        <ele>44.1</ele>
        <time>2025-01-16T11:16:06Z</time>
      </trkpt>
      <trkpt lat="47.55983" lon="-2.30415">
        <ele>44</ele>
        <time>2025-01-16T11:16:07Z</time>
      </trkpt>
      <trkpt lat="47.55983" lon="-2.30414">
        <ele>43.9</ele>
        <time>2025-01-16T11:16:08Z</time>
      </trkpt>
      <trkpt lat="47.55982" lon="-2.30413">
        <ele>43.9</ele>
        <time>2025-01-16T11:16:09Z</time>
      </trkpt>
      <trkpt lat="47.55981" lon="-2.30412">
        <ele>43.9</ele>
        <time>2025-01-16T11:16:10Z</time>
      </trkpt>
      <trkpt lat="47.5598" lon="-2.3041">
        <ele>43.7</ele>
        <time>2025-01-16T11:16:11Z</time>
      </trkpt>
      <trkpt lat="47.55979" lon="-2.30408">
        <ele>43.6</ele>
        <time>2025-01-16T11:16:12Z</time>
      </trkpt>
      <trkpt lat="47.55978" lon="-2.30407">
        <ele>43.5</ele>
        <time>2025-01-16T11:16:13Z</time>
      </trkpt>
      <trkpt lat="47.55977" lon="-2.30405">
        <ele>43.4</ele>
        <time>2025-01-16T11:16:14Z</time>
      </trkpt>
      <trkpt lat="47.55976" lon="-2.30403">
        <ele>43.3</ele>
        <time>2025-01-16T11:16:15Z</time>
      </trkpt>
      <trkpt lat="47.55976" lon="-2.30402">
        <ele>43.1</ele>
        <time>2025-01-16T11:16:16Z</time>
      </trkpt>
      <trkpt lat="47.55975" lon="-2.30401">
        <ele>43.1</ele>
        <time>2025-01-16T11:16:17Z</time>
      </trkpt>
      <trkpt lat="47.55974" lon="-2.30399">
        <ele>43</ele>
        <time>2025-01-16T11:16:18Z</time>
      </trkpt>
      <trkpt lat="47.55974" lon="-2.30398">
        <ele>42.9</ele>
        <time>2025-01-16T11:16:19Z</time>
      </trkpt>
      <trkpt lat="47.55973" lon="-2.30396">
        <ele>42.7</ele>
        <time>2025-01-16T11:16:20Z</time>
      </trkpt>
      <trkpt lat="47.55972" lon="-2.30396">
        <ele>42.8</ele>
        <time>2025-01-16T11:16:21Z</time>
      </trkpt>
      <trkpt lat="47.55972" lon="-2.30395">
        <ele>42.7</ele>
        <time>2025-01-16T11:16:22Z</time>
      </trkpt>
      <trkpt lat="47.55971" lon="-2.30394">
        <ele>42.6</ele>
        <time>2025-01-16T11:16:23Z</time>
      </trkpt>
      <trkpt lat="47.55971" lon="-2.30393">
        <ele>42.5</ele>
        <time>2025-01-16T11:16:24Z</time>
      </trkpt>
      <trkpt lat="47.5597" lon="-2.30391">
        <ele>42.4</ele>
        <time>2025-01-16T11:16:25Z</time>
      </trkpt>
      <trkpt lat="47.55969" lon="-2.3039">
        <ele>42.4</ele>
        <time>2025-01-16T11:16:26Z</time>
      </trkpt>
      <trkpt lat="47.55968" lon="-2.30388">
        <ele>42.2</ele>
        <time>2025-01-16T11:16:27Z</time>
      </trkpt>
      <trkpt lat="47.55967" lon="-2.30386">
        <ele>42.1</ele>
        <time>2025-01-16T11:16:28Z</time>
      </trkpt>
      <trkpt lat="47.55967" lon="-2.30384">
        <ele>42</ele>
        <time>2025-01-16T11:16:29Z</time>
      </trkpt>
      <trkpt lat="47.55966" lon="-2.30383">
        <ele>42</ele>
        <time>2025-01-16T11:16:30Z</time>
      </trkpt>
      <trkpt lat="47.55965" lon="-2.30381">
        <ele>41.9</ele>
        <time>2025-01-16T11:16:31Z</time>
      </trkpt>
      <trkpt lat="47.55964" lon="-2.30379">
        <ele>41.8</ele>
        <time>2025-01-16T11:16:32Z</time>
      </trkpt>
      <trkpt lat="47.55964" lon="-2.30377">
        <ele>41.6</ele>
        <time>2025-01-16T11:16:33Z</time>
      </trkpt>
      <trkpt lat="47.55963" lon="-2.30376">
        <ele>41.6</ele>
        <time>2025-01-16T11:16:34Z</time>
      </trkpt>
      <trkpt lat="47.55963" lon="-2.30374">
        <ele>41.4</ele>
        <time>2025-01-16T11:16:35Z</time>
      </trkpt>
      <trkpt lat="47.55962" lon="-2.30372">
        <ele>41.3</ele>
        <time>2025-01-16T11:16:36Z</time>
      </trkpt>
      <trkpt lat="47.55961" lon="-2.30371">
        <ele>41.3</ele>
        <time>2025-01-16T11:16:37Z</time>
      </trkpt>
      <trkpt lat="47.5596" lon="-2.30369">
        <ele>41.1</ele>
        <time>2025-01-16T11:16:38Z</time>
      </trkpt>
      <trkpt lat="47.5596" lon="-2.30368">
        <ele>41</ele>
        <time>2025-01-16T11:16:39Z</time>
      </trkpt>
      <trkpt lat="47.55959" lon="-2.30367">
        <ele>41</ele>
        <time>2025-01-16T11:16:40Z</time>
      </trkpt>
      <trkpt lat="47.55959" lon="-2.30366">
        <ele>40.9</ele>
        <time>2025-01-16T11:16:41Z</time>
      </trkpt>
      <trkpt lat="47.55958" lon="-2.30365">
        <ele>40.9</ele>
        <time>2025-01-16T11:16:42Z</time>
      </trkpt>
      <trkpt lat="47.55958" lon="-2.30365">
        <ele>40.9</ele>
        <time>2025-01-16T11:16:43Z</time>
      </trkpt>
      <trkpt lat="47.55958" lon="-2.30364">
        <ele>40.8</ele>
        <time>2025-01-16T11:16:44Z</time>
      </trkpt>
      <trkpt lat="47.55958" lon="-2.30362">
        <ele>40.6</ele>
        <time>2025-01-16T11:16:45Z</time>
      </trkpt>
      <trkpt lat="47.55957" lon="-2.30361">
        <ele>40.5</ele>
        <time>2025-01-16T11:16:46Z</time>
      </trkpt>
      <trkpt lat="47.55957" lon="-2.30359">
        <ele>40.4</ele>
        <time>2025-01-16T11:16:47Z</time>
      </trkpt>
      <trkpt lat="47.55956" lon="-2.30358">
        <ele>40.3</ele>
        <time>2025-01-16T11:16:48Z</time>
      </trkpt>
      <trkpt lat="47.55955" lon="-2.30356">
        <ele>40.1</ele>
        <time>2025-01-16T11:16:49Z</time>
      </trkpt>
      <trkpt lat="47.55954" lon="-2.30355">
        <ele>40.1</ele>
        <time>2025-01-16T11:16:50Z</time>
      </trkpt>
      <trkpt lat="47.55954" lon="-2.30353">
        <ele>39.9</ele>
        <time>2025-01-16T11:16:51Z</time>
      </trkpt>
      <trkpt lat="47.55953" lon="-2.30352">
        <ele>39.8</ele>
        <time>2025-01-16T11:16:52Z</time>
      </trkpt>
      <trkpt lat="47.55953" lon="-2.3035">
        <ele>39.6</ele>
        <time>2025-01-16T11:16:53Z</time>
      </trkpt>
      <trkpt lat="47.55952" lon="-2.30348">
        <ele>39.4</ele>
        <time>2025-01-16T11:16:54Z</time>
      </trkpt>
      <trkpt lat="47.55952" lon="-2.30346">
        <ele>39.2</ele>
        <time>2025-01-16T11:16:55Z</time>
      </trkpt>
      <trkpt lat="47.55951" lon="-2.30344">
        <ele>39.1</ele>
        <time>2025-01-16T11:16:56Z</time>
      </trkpt>
      <trkpt lat="47.5595" lon="-2.30342">
        <ele>38.9</ele>
        <time>2025-01-16T11:16:57Z</time>
      </trkpt>
      <trkpt lat="47.5595" lon="-2.3034">
        <ele>38.7</ele>
        <time>2025-01-16T11:16:58Z</time>
      </trkpt>
      <trkpt lat="47.55949" lon="-2.30339">
        <ele>38.6</ele>
        <time>2025-01-16T11:16:59Z</time>
      </trkpt>
      <trkpt lat="47.55948" lon="-2.30338">
        <ele>38.5</ele>
        <time>2025-01-16T11:17:00Z</time>
      </trkpt>
      <trkpt lat="47.55948" lon="-2.30336">
        <ele>38.3</ele>
        <time>2025-01-16T11:17:01Z</time>
      </trkpt>
      <trkpt lat="47.55947" lon="-2.30335">
        <ele>38.2</ele>
        <time>2025-01-16T11:17:02Z</time>
      </trkpt>
      <trkpt lat="47.55946" lon="-2.30334">
        <ele>38.1</ele>
        <time>2025-01-16T11:17:03Z</time>
      </trkpt>
      <trkpt lat="47.55945" lon="-2.30332">
        <ele>37.9</ele>
        <time>2025-01-16T11:17:04Z</time>
      </trkpt>
      <trkpt lat="47.55945" lon="-2.30331">
        <ele>37.7</ele>
        <time>2025-01-16T11:17:05Z</time>
      </trkpt>
      <trkpt lat="47.55944" lon="-2.30329">
        <ele>37.6</ele>
        <time>2025-01-16T11:17:06Z</time>
      </trkpt>
      <trkpt lat="47.55943" lon="-2.30327">
        <ele>37.4</ele>
        <time>2025-01-16T11:17:07Z</time>
      </trkpt>
      <trkpt lat="47.55942" lon="-2.30325">
        <ele>37.2</ele>
        <time>2025-01-16T11:17:08Z</time>
      </trkpt>
      <trkpt lat="47.55942" lon="-2.30324">
        <ele>37.1</ele>
        <time>2025-01-16T11:17:09Z</time>
      </trkpt>
      <trkpt lat="47.55941" lon="-2.30323">
        <ele>37.1</ele>
        <time>2025-01-16T11:17:10Z</time>
      </trkpt>
      <trkpt lat="47.55941" lon="-2.30322">
        <ele>37</ele>
        <time>2025-01-16T11:17:11Z</time>
      </trkpt>
      <trkpt lat="47.55941" lon="-2.30322">
        <ele>37</ele>
        <time>2025-01-16T11:17:12Z</time>
      </trkpt>
      <trkpt lat="47.5594" lon="-2.3032">
        <ele>36.8</ele>
        <time>2025-01-16T11:17:13Z</time>
      </trkpt>
      <trkpt lat="47.5594" lon="-2.30319">
        <ele>36.7</ele>
        <time>2025-01-16T11:17:14Z</time>
      </trkpt>
      <trkpt lat="47.5594" lon="-2.30318">
        <ele>36.6</ele>
        <time>2025-01-16T11:17:15Z</time>
      </trkpt>
      <trkpt lat="47.55939" lon="-2.30317">
        <ele>36.5</ele>
        <time>2025-01-16T11:17:16Z</time>
      </trkpt>
      <trkpt lat="47.55938" lon="-2.30315">
        <ele>36.4</ele>
        <time>2025-01-16T11:17:17Z</time>
      </trkpt>
      <trkpt lat="47.55937" lon="-2.30314">
        <ele>36.4</ele>
        <time>2025-01-16T11:17:18Z</time>
      </trkpt>
      <trkpt lat="47.55937" lon="-2.30313">
        <ele>36.3</ele>
        <time>2025-01-16T11:17:19Z</time>
      </trkpt>
      <trkpt lat="47.55936" lon="-2.30312">
        <ele>36.2</ele>
        <time>2025-01-16T11:17:20Z</time>
      </trkpt>
      <trkpt lat="47.55935" lon="-2.3031">
        <ele>36.1</ele>
        <time>2025-01-16T11:17:21Z</time>
      </trkpt>
      <trkpt lat="47.55935" lon="-2.30309">
        <ele>36</ele>
        <time>2025-01-16T11:17:22Z</time>
      </trkpt>
      <trkpt lat="47.55934" lon="-2.30307">
        <ele>35.9</ele>
        <time>2025-01-16T11:17:23Z</time>
      </trkpt>
      <trkpt lat="47.55934" lon="-2.30306">
        <ele>35.8</ele>
        <time>2025-01-16T11:17:24Z</time>
      </trkpt>
      <trkpt lat="47.55934" lon="-2.30306">
        <ele>35.8</ele>
        <time>2025-01-16T11:17:25Z</time>
      </trkpt>
      <trkpt lat="47.55934" lon="-2.30305">
        <ele>35.7</ele>
        <time>2025-01-16T11:17:26Z</time>
      </trkpt>
      <trkpt lat="47.55934" lon="-2.30304">
        <ele>35.6</ele>
        <time>2025-01-16T11:17:27Z</time>
      </trkpt>
      <trkpt lat="47.55933" lon="-2.30304">
        <ele>35.7</ele>
        <time>2025-01-16T11:17:28Z</time>
      </trkpt>
      <trkpt lat="47.55933" lon="-2.30304">
        <ele>35.7</ele>
        <time>2025-01-16T11:17:29Z</time>
      </trkpt>
      <trkpt lat="47.55933" lon="-2.30303">
        <ele>35.7</ele>
        <time>2025-01-16T11:17:30Z</time>
      </trkpt>
      <trkpt lat="47.55933" lon="-2.30303">
        <ele>35.7</ele>
        <time>2025-01-16T11:17:31Z</time>
      </trkpt>
      <trkpt lat="47.55933" lon="-2.30302">
        <ele>35.6</ele>
        <time>2025-01-16T11:17:32Z</time>
      </trkpt>
      <trkpt lat="47.55934" lon="-2.30302">
        <ele>35.5</ele>
        <time>2025-01-16T11:17:33Z</time>
      </trkpt>
      <trkpt lat="47.55934" lon="-2.30302">
        <ele>35.5</ele>
        <time>2025-01-16T11:17:34Z</time>
      </trkpt>
      <trkpt lat="47.55934" lon="-2.30301">
        <ele>35.4</ele>
        <time>2025-01-16T11:17:35Z</time>
      </trkpt>
      <trkpt lat="47.55934" lon="-2.30301">
        <ele>35.4</ele>
        <time>2025-01-16T11:17:36Z</time>
      </trkpt>
      <trkpt lat="47.55934" lon="-2.303">
        <ele>35.4</ele>
        <time>2025-01-16T11:17:37Z</time>
      </trkpt>
      <trkpt lat="47.55934" lon="-2.303">
        <ele>35.4</ele>
        <time>2025-01-16T11:17:38Z</time>
      </trkpt>
      <trkpt lat="47.55934" lon="-2.30299">
        <ele>35.3</ele>
        <time>2025-01-16T11:17:39Z</time>
      </trkpt>
      <trkpt lat="47.55934" lon="-2.303">
        <ele>35.4</ele>
        <time>2025-01-16T11:17:40Z</time>
      </trkpt>
      <trkpt lat="47.55934" lon="-2.30301">
        <ele>35.4</ele>
        <time>2025-01-16T11:17:41Z</time>
      </trkpt>
      <trkpt lat="47.55934" lon="-2.30302">
        <ele>35.5</ele>
        <time>2025-01-16T11:17:42Z</time>
      </trkpt>
      <trkpt lat="47.55934" lon="-2.30303">
        <ele>35.6</ele>
        <time>2025-01-16T11:17:43Z</time>
      </trkpt>
      <trkpt lat="47.55935" lon="-2.30305">
        <ele>35.6</ele>
        <time>2025-01-16T11:17:44Z</time>
      </trkpt>
      <trkpt lat="47.55935" lon="-2.30306">
        <ele>35.7</ele>
        <time>2025-01-16T11:17:45Z</time>
      </trkpt>
      <trkpt lat="47.55935" lon="-2.30306">
        <ele>35.7</ele>
        <time>2025-01-16T11:17:46Z</time>
      </trkpt>
      <trkpt lat="47.55935" lon="-2.30306">
        <ele>35.7</ele>
        <time>2025-01-16T11:17:47Z</time>
      </trkpt>
      <trkpt lat="47.55935" lon="-2.30306">
        <ele>35.7</ele>
        <time>2025-01-16T11:17:48Z</time>
      </trkpt>
      <trkpt lat="47.55935" lon="-2.30306">
        <ele>35.7</ele>
        <time>2025-01-16T11:17:49Z</time>
      </trkpt>
      <trkpt lat="47.55935" lon="-2.30307">
        <ele>35.8</ele>
        <time>2025-01-16T11:17:50Z</time>
      </trkpt>
      <trkpt lat="47.55935" lon="-2.30307">
        <ele>35.8</ele>
        <time>2025-01-16T11:17:51Z</time>
      </trkpt>
      <trkpt lat="47.55935" lon="-2.30307">
        <ele>35.8</ele>
        <time>2025-01-16T11:17:52Z</time>
      </trkpt>
      <trkpt lat="47.55935" lon="-2.30307">
        <ele>35.8</ele>
        <time>2025-01-16T11:17:53Z</time>
      </trkpt>
      <trkpt lat="47.55935" lon="-2.30308">
        <ele>35.9</ele>
        <time>2025-01-16T11:17:54Z</time>
      </trkpt>
      <trkpt lat="47.55935" lon="-2.30309">
        <ele>36</ele>
        <time>2025-01-16T11:17:55Z</time>
      </trkpt>
      <trkpt lat="47.55936" lon="-2.3031">
        <ele>36</ele>
        <time>2025-01-16T11:17:56Z</time>
      </trkpt>
      <trkpt lat="47.55936" lon="-2.30312">
        <ele>36.2</ele>
        <time>2025-01-16T11:17:57Z</time>
      </trkpt>
      <trkpt lat="47.55937" lon="-2.30313">
        <ele>36.3</ele>
        <time>2025-01-16T11:17:58Z</time>
      </trkpt>
      <trkpt lat="47.55937" lon="-2.30314">
        <ele>36.4</ele>
        <time>2025-01-16T11:17:59Z</time>
      </trkpt>
      <trkpt lat="47.55938" lon="-2.30315">
        <ele>36.4</ele>
        <time>2025-01-16T11:18:00Z</time>
      </trkpt>
      <trkpt lat="47.55939" lon="-2.30316">
        <ele>36.4</ele>
        <time>2025-01-16T11:18:01Z</time>
      </trkpt>
      <trkpt lat="47.5594" lon="-2.30317">
        <ele>36.5</ele>
        <time>2025-01-16T11:18:02Z</time>
      </trkpt>
      <trkpt lat="47.5594" lon="-2.30317">
        <ele>36.5</ele>
        <time>2025-01-16T11:18:03Z</time>
      </trkpt>
      <trkpt lat="47.55941" lon="-2.30318">
        <ele>36.5</ele>
        <time>2025-01-16T11:18:04Z</time>
      </trkpt>
      <trkpt lat="47.55941" lon="-2.30319">
        <ele>36.6</ele>
        <time>2025-01-16T11:18:05Z</time>
      </trkpt>
      <trkpt lat="47.55942" lon="-2.30319">
        <ele>36.6</ele>
        <time>2025-01-16T11:18:06Z</time>
      </trkpt>
      <trkpt lat="47.55942" lon="-2.3032">
        <ele>36.7</ele>
        <time>2025-01-16T11:18:07Z</time>
      </trkpt>
      <trkpt lat="47.55943" lon="-2.3032">
        <ele>36.6</ele>
        <time>2025-01-16T11:18:08Z</time>
      </trkpt>
      <trkpt lat="47.55944" lon="-2.3032">
        <ele>36.6</ele>
        <time>2025-01-16T11:18:09Z</time>
      </trkpt>
      <trkpt lat="47.55944" lon="-2.30321">
        <ele>36.7</ele>
        <time>2025-01-16T11:18:10Z</time>
      </trkpt>
      <trkpt lat="47.55945" lon="-2.30321">
        <ele>36.7</ele>
        <time>2025-01-16T11:18:11Z</time>
      </trkpt>
      <trkpt lat="47.55946" lon="-2.30322">
        <ele>36.8</ele>
        <time>2025-01-16T11:18:12Z</time>
      </trkpt>
      <trkpt lat="47.55946" lon="-2.30322">
        <ele>36.8</ele>
        <time>2025-01-16T11:18:13Z</time>
      </trkpt>
      <trkpt lat="47.55946" lon="-2.30322">
        <ele>36.8</ele>
        <time>2025-01-16T11:18:14Z</time>
      </trkpt>
      <trkpt lat="47.55947" lon="-2.30321">
        <ele>36.6</ele>
        <time>2025-01-16T11:18:15Z</time>
      </trkpt>
      <trkpt lat="47.55947" lon="-2.30321">
        <ele>36.6</ele>
        <time>2025-01-16T11:18:16Z</time>
      </trkpt>
      <trkpt lat="47.55947" lon="-2.30321">
        <ele>36.6</ele>
        <time>2025-01-16T11:18:17Z</time>
      </trkpt>
      <trkpt lat="47.55947" lon="-2.30322">
        <ele>36.7</ele>
        <time>2025-01-16T11:18:18Z</time>
      </trkpt>
      <trkpt lat="47.55947" lon="-2.30322">
        <ele>36.7</ele>
        <time>2025-01-16T11:18:19Z</time>
      </trkpt>
      <trkpt lat="47.55947" lon="-2.30322">
        <ele>36.7</ele>
        <time>2025-01-16T11:18:20Z</time>
      </trkpt>
      <trkpt lat="47.55947" lon="-2.30323">
        <ele>36.8</ele>
        <time>2025-01-16T11:18:21Z</time>
      </trkpt>
      <trkpt lat="47.55947" lon="-2.30323">
        <ele>36.8</ele>
        <time>2025-01-16T11:18:22Z</time>
      </trkpt>
      <trkpt lat="47.55948" lon="-2.30323">
        <ele>36.8</ele>
        <time>2025-01-16T11:18:23Z</time>
      </trkpt>
      <trkpt lat="47.55948" lon="-2.30323">
        <ele>36.8</ele>
        <time>2025-01-16T11:18:24Z</time>
      </trkpt>
      <trkpt lat="47.55948" lon="-2.30323">
        <ele>36.8</ele>
        <time>2025-01-16T11:18:25Z</time>
      </trkpt>
      <trkpt lat="47.55948" lon="-2.30323">
        <ele>36.8</ele>
        <time>2025-01-16T11:18:26Z</time>
      </trkpt>
      <trkpt lat="47.55948" lon="-2.30324">
        <ele>36.9</ele>
        <time>2025-01-16T11:18:27Z</time>
      </trkpt>
      <trkpt lat="47.55948" lon="-2.30324">
        <ele>36.9</ele>
        <time>2025-01-16T11:18:28Z</time>
      </trkpt>
      <trkpt lat="47.55948" lon="-2.30324">
        <ele>36.9</ele>
        <time>2025-01-16T11:18:29Z</time>
      </trkpt>
      <trkpt lat="47.55948" lon="-2.30324">
        <ele>36.9</ele>
        <time>2025-01-16T11:18:30Z</time>
      </trkpt>
      <trkpt lat="47.55948" lon="-2.30324">
        <ele>36.9</ele>
        <time>2025-01-16T11:18:31Z</time>
      </trkpt>
      <trkpt lat="47.55948" lon="-2.30324">
        <ele>36.9</ele>
        <time>2025-01-16T11:18:32Z</time>
      </trkpt>
      <trkpt lat="47.55948" lon="-2.30324">
        <ele>36.9</ele>
        <time>2025-01-16T11:18:33Z</time>
      </trkpt>
      <trkpt lat="47.55948" lon="-2.30324">
        <ele>36.9</ele>
        <time>2025-01-16T11:18:34Z</time>
      </trkpt>
      <trkpt lat="47.55948" lon="-2.30324">
        <ele>36.9</ele>
        <time>2025-01-16T11:18:35Z</time>
      </trkpt>
      <trkpt lat="47.55948" lon="-2.30324">
        <ele>36.9</ele>
        <time>2025-01-16T11:18:36Z</time>
      </trkpt>
      <trkpt lat="47.55948" lon="-2.30325">
        <ele>37.1</ele>
        <time>2025-01-16T11:18:37Z</time>
      </trkpt>
      <trkpt lat="47.55948" lon="-2.30325">
        <ele>37.1</ele>
        <time>2025-01-16T11:18:38Z</time>
      </trkpt>
      <trkpt lat="47.55949" lon="-2.30325">
        <ele>37.1</ele>
        <time>2025-01-16T11:18:39Z</time>
      </trkpt>
      <trkpt lat="47.55949" lon="-2.30325">
        <ele>37.1</ele>
        <time>2025-01-16T11:18:40Z</time>
      </trkpt>
      <trkpt lat="47.55949" lon="-2.30326">
        <ele>37.2</ele>
        <time>2025-01-16T11:18:41Z</time>
      </trkpt>
      <trkpt lat="47.55949" lon="-2.30326">
        <ele>37.2</ele>
        <time>2025-01-16T11:18:42Z</time>
      </trkpt>
      <trkpt lat="47.5595" lon="-2.30326">
        <ele>37.2</ele>
        <time>2025-01-16T11:18:43Z</time>
      </trkpt>
      <trkpt lat="47.5595" lon="-2.30326">
        <ele>37.2</ele>
        <time>2025-01-16T11:18:44Z</time>
      </trkpt>
      <trkpt lat="47.5595" lon="-2.30327">
        <ele>37.3</ele>
        <time>2025-01-16T11:18:45Z</time>
      </trkpt>
      <trkpt lat="47.5595" lon="-2.30326">
        <ele>37.2</ele>
        <time>2025-01-16T11:18:46Z</time>
      </trkpt>
      <trkpt lat="47.5595" lon="-2.30326">
        <ele>37.2</ele>
        <time>2025-01-16T11:18:47Z</time>
      </trkpt>
      <trkpt lat="47.5595" lon="-2.30326">
        <ele>37.2</ele>
        <time>2025-01-16T11:18:48Z</time>
      </trkpt>
      <trkpt lat="47.5595" lon="-2.30325">
        <ele>37</ele>
        <time>2025-01-16T11:18:49Z</time>
      </trkpt>
      <trkpt lat="47.5595" lon="-2.30325">
        <ele>37</ele>
        <time>2025-01-16T11:18:50Z</time>
      </trkpt>
      <trkpt lat="47.5595" lon="-2.30324">
        <ele>36.9</ele>
        <time>2025-01-16T11:18:51Z</time>
      </trkpt>
      <trkpt lat="47.55949" lon="-2.30324">
        <ele>36.9</ele>
        <time>2025-01-16T11:18:52Z</time>
      </trkpt>
      <trkpt lat="47.55949" lon="-2.30323">
        <ele>36.8</ele>
        <time>2025-01-16T11:18:53Z</time>
      </trkpt>
      <trkpt lat="47.55948" lon="-2.30321">
        <ele>36.6</ele>
        <time>2025-01-16T11:18:54Z</time>
      </trkpt>
      <trkpt lat="47.55947" lon="-2.3032">
        <ele>36.5</ele>
        <time>2025-01-16T11:18:55Z</time>
      </trkpt>
      <trkpt lat="47.55946" lon="-2.30318">
        <ele>36.3</ele>
        <time>2025-01-16T11:18:56Z</time>
      </trkpt>
      <trkpt lat="47.55945" lon="-2.30317">
        <ele>36.2</ele>
        <time>2025-01-16T11:18:57Z</time>
      </trkpt>
      <trkpt lat="47.55945" lon="-2.30317">
        <ele>36.2</ele>
        <time>2025-01-16T11:18:58Z</time>
      </trkpt>
      <trkpt lat="47.55945" lon="-2.30317">
        <ele>36.2</ele>
        <time>2025-01-16T11:18:59Z</time>
      </trkpt>
      <trkpt lat="47.55945" lon="-2.30316">
        <ele>36.1</ele>
        <time>2025-01-16T11:19:00Z</time>
      </trkpt>
      <trkpt lat="47.55945" lon="-2.30316">
        <ele>36.1</ele>
        <time>2025-01-16T11:19:01Z</time>
      </trkpt>
      <trkpt lat="47.55945" lon="-2.30317">
        <ele>36.2</ele>
        <time>2025-01-16T11:19:02Z</time>
      </trkpt>
      <trkpt lat="47.55945" lon="-2.30317">
        <ele>36.2</ele>
        <time>2025-01-16T11:19:03Z</time>
      </trkpt>
      <trkpt lat="47.55945" lon="-2.30317">
        <ele>36.2</ele>
        <time>2025-01-16T11:19:04Z</time>
      </trkpt>
      <trkpt lat="47.55945" lon="-2.30317">
        <ele>36.2</ele>
        <time>2025-01-16T11:19:05Z</time>
      </trkpt>
      <trkpt lat="47.55945" lon="-2.30317">
        <ele>36.2</ele>
        <time>2025-01-16T11:19:06Z</time>
      </trkpt>
      <trkpt lat="47.55945" lon="-2.30317">
        <ele>36.2</ele>
        <time>2025-01-16T11:19:07Z</time>
      </trkpt>
      <trkpt lat="47.55945" lon="-2.30317">
        <ele>36.2</ele>
        <time>2025-01-16T11:19:08Z</time>
      </trkpt>
      <trkpt lat="47.55945" lon="-2.30317">
        <ele>36.2</ele>
        <time>2025-01-16T11:19:09Z</time>
      </trkpt>
      <trkpt lat="47.55945" lon="-2.30317">
        <ele>36.2</ele>
        <time>2025-01-16T11:19:10Z</time>
      </trkpt>
      <trkpt lat="47.55945" lon="-2.30318">
        <ele>36.3</ele>
        <time>2025-01-16T11:19:11Z</time>
      </trkpt>
      <trkpt lat="47.55945" lon="-2.30318">
        <ele>36.3</ele>
        <time>2025-01-16T11:19:12Z</time>
      </trkpt>
      <trkpt lat="47.55945" lon="-2.30318">
        <ele>36.3</ele>
        <time>2025-01-16T11:19:13Z</time>
      </trkpt>
      <trkpt lat="47.55945" lon="-2.30318">
        <ele>36.3</ele>
        <time>2025-01-16T11:19:14Z</time>
      </trkpt>
      <trkpt lat="47.55945" lon="-2.30318">
        <ele>36.3</ele>
        <time>2025-01-16T11:19:15Z</time>
      </trkpt>
      <trkpt lat="47.55945" lon="-2.30318">
        <ele>36.3</ele>
        <time>2025-01-16T11:19:16Z</time>
      </trkpt>
      <trkpt lat="47.55945" lon="-2.30318">
        <ele>36.3</ele>
        <time>2025-01-16T11:19:17Z</time>
      </trkpt>
      <trkpt lat="47.55945" lon="-2.30318">
        <ele>36.3</ele>
        <time>2025-01-16T11:19:18Z</time>
      </trkpt>
      <trkpt lat="47.55944" lon="-2.30319">
        <ele>36.5</ele>
        <time>2025-01-16T11:19:19Z</time>
      </trkpt>
      <trkpt lat="47.55944" lon="-2.30319">
        <ele>36.5</ele>
        <time>2025-01-16T11:19:20Z</time>
      </trkpt>
      <trkpt lat="47.55944" lon="-2.30319">
        <ele>36.5</ele>
        <time>2025-01-16T11:19:21Z</time>
      </trkpt>
      <trkpt lat="47.55944" lon="-2.30319">
        <ele>36.5</ele>
        <time>2025-01-16T11:19:22Z</time>
      </trkpt>
      <trkpt lat="47.55944" lon="-2.30319">
        <ele>36.5</ele>
        <time>2025-01-16T11:19:23Z</time>
      </trkpt>
      <trkpt lat="47.55945" lon="-2.30318">
        <ele>36.3</ele>
        <time>2025-01-16T11:19:24Z</time>
      </trkpt>
      <trkpt lat="47.55945" lon="-2.30318">
        <ele>36.3</ele>
        <time>2025-01-16T11:19:25Z</time>
      </trkpt>
      <trkpt lat="47.55945" lon="-2.30318">
        <ele>36.3</ele>
        <time>2025-01-16T11:19:26Z</time>
      </trkpt>
      <trkpt lat="47.55946" lon="-2.30317">
        <ele>36.2</ele>
        <time>2025-01-16T11:19:27Z</time>
      </trkpt>
      <trkpt lat="47.55946" lon="-2.30317">
        <ele>36.2</ele>
        <time>2025-01-16T11:19:28Z</time>
      </trkpt>
      <trkpt lat="47.55945" lon="-2.30317">
        <ele>36.2</ele>
        <time>2025-01-16T11:19:29Z</time>
      </trkpt>
      <trkpt lat="47.55945" lon="-2.30318">
        <ele>36.3</ele>
        <time>2025-01-16T11:19:30Z</time>
      </trkpt>
      <trkpt lat="47.55945" lon="-2.30318">
        <ele>36.3</ele>
        <time>2025-01-16T11:19:31Z</time>
      </trkpt>
      <trkpt lat="47.55945" lon="-2.30318">
        <ele>36.3</ele>
        <time>2025-01-16T11:19:32Z</time>
      </trkpt>
      <trkpt lat="47.55945" lon="-2.30318">
        <ele>36.3</ele>
        <time>2025-01-16T11:19:33Z</time>
      </trkpt>
      <trkpt lat="47.55945" lon="-2.30318">
        <ele>36.3</ele>
        <time>2025-01-16T11:19:34Z</time>
      </trkpt>
      <trkpt lat="47.55945" lon="-2.30318">
        <ele>36.3</ele>
        <time>2025-01-16T11:19:35Z</time>
      </trkpt>
      <trkpt lat="47.55945" lon="-2.30318">
        <ele>36.3</ele>
        <time>2025-01-16T11:19:36Z</time>
      </trkpt>
      <trkpt lat="47.55945" lon="-2.30318">
        <ele>36.3</ele>
        <time>2025-01-16T11:19:37Z</time>
      </trkpt>
      <trkpt lat="47.55945" lon="-2.30318">
        <ele>36.3</ele>
        <time>2025-01-16T11:19:38Z</time>
      </trkpt>
      <trkpt lat="47.55945" lon="-2.30318">
        <ele>36.3</ele>
        <time>2025-01-16T11:19:39Z</time>
      </trkpt>
      <trkpt lat="47.55945" lon="-2.30318">
        <ele>36.3</ele>
        <time>2025-01-16T11:19:40Z</time>
      </trkpt>
      <trkpt lat="47.55945" lon="-2.30318">
        <ele>36.3</ele>
        <time>2025-01-16T11:19:41Z</time>
      </trkpt>
      <trkpt lat="47.55945" lon="-2.30318">
        <ele>36.3</ele>
        <time>2025-01-16T11:19:42Z</time>
      </trkpt>
      <trkpt lat="47.55945" lon="-2.30318">
        <ele>36.3</ele>
        <time>2025-01-16T11:19:43Z</time>
      </trkpt>
      <trkpt lat="47.55945" lon="-2.30318">
        <ele>36.3</ele>
        <time>2025-01-16T11:19:44Z</time>
      </trkpt>
      <trkpt lat="47.55945" lon="-2.30318">
        <ele>36.3</ele>
        <time>2025-01-16T11:19:45Z</time>
      </trkpt>
      <trkpt lat="47.55945" lon="-2.30318">
        <ele>36.3</ele>
        <time>2025-01-16T11:19:46Z</time>
      </trkpt>
      <trkpt lat="47.55945" lon="-2.30318">
        <ele>36.3</ele>
        <time>2025-01-16T11:19:47Z</time>
      </trkpt>
      <trkpt lat="47.55945" lon="-2.30318">
        <ele>36.3</ele>
        <time>2025-01-16T11:19:48Z</time>
      </trkpt>
      <trkpt lat="47.55945" lon="-2.30318">
        <ele>36.3</ele>
        <time>2025-01-16T11:19:49Z</time>
      </trkpt>
      <trkpt lat="47.55945" lon="-2.30318">
        <ele>36.3</ele>
        <time>2025-01-16T11:19:50Z</time>
      </trkpt>
      <trkpt lat="47.55945" lon="-2.30317">
        <ele>36.2</ele>
        <time>2025-01-16T11:19:51Z</time>
      </trkpt>
      <trkpt lat="47.55945" lon="-2.30317">
        <ele>36.2</ele>
        <time>2025-01-16T11:19:52Z</time>
      </trkpt>
      <trkpt lat="47.55945" lon="-2.30317">
        <ele>36.2</ele>
        <time>2025-01-16T11:19:53Z</time>
      </trkpt>
      <trkpt lat="47.55945" lon="-2.30318">
        <ele>36.3</ele>
        <time>2025-01-16T11:19:54Z</time>
      </trkpt>
      <trkpt lat="47.55945" lon="-2.30318">
        <ele>36.3</ele>
        <time>2025-01-16T11:19:55Z</time>
      </trkpt>
      <trkpt lat="47.55945" lon="-2.30318">
        <ele>36.3</ele>
        <time>2025-01-16T11:19:56Z</time>
      </trkpt>
      <trkpt lat="47.55944" lon="-2.30318">
        <ele>36.4</ele>
        <time>2025-01-16T11:19:57Z</time>
      </trkpt>
      <trkpt lat="47.55944" lon="-2.30318">
        <ele>36.4</ele>
        <time>2025-01-16T11:19:58Z</time>
      </trkpt>
      <trkpt lat="47.55944" lon="-2.30319">
        <ele>36.5</ele>
        <time>2025-01-16T11:19:59Z</time>
      </trkpt>
      <trkpt lat="47.55944" lon="-2.30319">
        <ele>36.5</ele>
        <time>2025-01-16T11:20:00Z</time>
      </trkpt>
      <trkpt lat="47.55944" lon="-2.30319">
        <ele>36.5</ele>
        <time>2025-01-16T11:20:01Z</time>
      </trkpt>
      <trkpt lat="47.55943" lon="-2.30319">
        <ele>36.5</ele>
        <time>2025-01-16T11:20:02Z</time>
      </trkpt>
      <trkpt lat="47.55943" lon="-2.30319">
        <ele>36.5</ele>
        <time>2025-01-16T11:20:03Z</time>
      </trkpt>
      <trkpt lat="47.55943" lon="-2.30319">
        <ele>36.5</ele>
        <time>2025-01-16T11:20:04Z</time>
      </trkpt>
      <trkpt lat="47.55943" lon="-2.30319">
        <ele>36.5</ele>
        <time>2025-01-16T11:20:05Z</time>
      </trkpt>
      <trkpt lat="47.55943" lon="-2.30319">
        <ele>36.5</ele>
        <time>2025-01-16T11:20:06Z</time>
      </trkpt>
      <trkpt lat="47.55943" lon="-2.30319">
        <ele>36.5</ele>
        <time>2025-01-16T11:20:07Z</time>
      </trkpt>
      <trkpt lat="47.55943" lon="-2.30319">
        <ele>36.5</ele>
        <time>2025-01-16T11:20:08Z</time>
      </trkpt>
      <trkpt lat="47.55943" lon="-2.30319">
        <ele>36.5</ele>
        <time>2025-01-16T11:20:09Z</time>
      </trkpt>
      <trkpt lat="47.55943" lon="-2.30319">
        <ele>36.5</ele>
        <time>2025-01-16T11:20:10Z</time>
      </trkpt>
      <trkpt lat="47.55943" lon="-2.30319">
        <ele>36.5</ele>
        <time>2025-01-16T11:20:11Z</time>
      </trkpt>
      <trkpt lat="47.55943" lon="-2.30319">
        <ele>36.5</ele>
        <time>2025-01-16T11:20:12Z</time>
      </trkpt>
      <trkpt lat="47.55943" lon="-2.30319">
        <ele>36.5</ele>
        <time>2025-01-16T11:20:13Z</time>
      </trkpt>
      <trkpt lat="47.55943" lon="-2.30319">
        <ele>36.5</ele>
        <time>2025-01-16T11:20:14Z</time>
      </trkpt>
      <trkpt lat="47.55943" lon="-2.30319">
        <ele>36.5</ele>
        <time>2025-01-16T11:20:15Z</time>
      </trkpt>
      <trkpt lat="47.55943" lon="-2.30319">
        <ele>36.5</ele>
        <time>2025-01-16T11:20:16Z</time>
      </trkpt>
      <trkpt lat="47.55943" lon="-2.30319">
        <ele>36.5</ele>
        <time>2025-01-16T11:20:17Z</time>
      </trkpt>
      <trkpt lat="47.55943" lon="-2.30319">
        <ele>36.5</ele>
        <time>2025-01-16T11:20:18Z</time>
      </trkpt>
      <trkpt lat="47.55943" lon="-2.30319">
        <ele>36.5</ele>
        <time>2025-01-16T11:20:19Z</time>
      </trkpt>
      <trkpt lat="47.55943" lon="-2.30319">
        <ele>36.5</ele>
        <time>2025-01-16T11:20:20Z</time>
      </trkpt>
      <trkpt lat="47.55943" lon="-2.30319">
        <ele>36.5</ele>
        <time>2025-01-16T11:20:21Z</time>
      </trkpt>
      <trkpt lat="47.55943" lon="-2.30319">
        <ele>36.5</ele>
        <time>2025-01-16T11:20:22Z</time>
      </trkpt>
      <trkpt lat="47.55943" lon="-2.30319">
        <ele>36.5</ele>
        <time>2025-01-16T11:20:23Z</time>
      </trkpt>
      <trkpt lat="47.55943" lon="-2.3032">
        <ele>36.6</ele>
        <time>2025-01-16T11:20:24Z</time>
      </trkpt>
      <trkpt lat="47.55943" lon="-2.3032">
        <ele>36.6</ele>
        <time>2025-01-16T11:20:25Z</time>
      </trkpt>
      <trkpt lat="47.55944" lon="-2.3032">
        <ele>36.6</ele>
        <time>2025-01-16T11:20:26Z</time>
      </trkpt>
      <trkpt lat="47.55944" lon="-2.3032">
        <ele>36.6</ele>
        <time>2025-01-16T11:20:27Z</time>
      </trkpt>
      <trkpt lat="47.55944" lon="-2.3032">
        <ele>36.6</ele>
        <time>2025-01-16T11:20:28Z</time>
      </trkpt>
      <trkpt lat="47.55944" lon="-2.3032">
        <ele>36.6</ele>
        <time>2025-01-16T11:20:29Z</time>
      </trkpt>
      <trkpt lat="47.55944" lon="-2.3032">
        <ele>36.6</ele>
        <time>2025-01-16T11:20:30Z</time>
      </trkpt>
      <trkpt lat="47.55944" lon="-2.3032">
        <ele>36.6</ele>
        <time>2025-01-16T11:20:31Z</time>
      </trkpt>
      <trkpt lat="47.55944" lon="-2.30321">
        <ele>36.7</ele>
        <time>2025-01-16T11:20:32Z</time>
      </trkpt>
      <trkpt lat="47.55944" lon="-2.30321">
        <ele>36.7</ele>
        <time>2025-01-16T11:20:33Z</time>
      </trkpt>
      <trkpt lat="47.55944" lon="-2.30321">
        <ele>36.7</ele>
        <time>2025-01-16T11:20:34Z</time>
      </trkpt>
      <trkpt lat="47.55944" lon="-2.30321">
        <ele>36.7</ele>
        <time>2025-01-16T11:20:35Z</time>
      </trkpt>
      <trkpt lat="47.55944" lon="-2.30321">
        <ele>36.7</ele>
        <time>2025-01-16T11:20:36Z</time>
      </trkpt>
      <trkpt lat="47.55944" lon="-2.30321">
        <ele>36.7</ele>
        <time>2025-01-16T11:20:37Z</time>
      </trkpt>
      <trkpt lat="47.55944" lon="-2.30321">
        <ele>36.7</ele>
        <time>2025-01-16T11:20:38Z</time>
      </trkpt>
      <trkpt lat="47.55944" lon="-2.30321">
        <ele>36.7</ele>
        <time>2025-01-16T11:20:39Z</time>
      </trkpt>
      <trkpt lat="47.55944" lon="-2.30321">
        <ele>36.7</ele>
        <time>2025-01-16T11:20:40Z</time>
      </trkpt>
      <trkpt lat="47.55944" lon="-2.30321">
        <ele>36.7</ele>
        <time>2025-01-16T11:20:41Z</time>
      </trkpt>
      <trkpt lat="47.55945" lon="-2.30321">
        <ele>36.7</ele>
        <time>2025-01-16T11:20:42Z</time>
      </trkpt>
      <trkpt lat="47.55945" lon="-2.30321">
        <ele>36.7</ele>
        <time>2025-01-16T11:20:43Z</time>
      </trkpt>
      <trkpt lat="47.55945" lon="-2.30321">
        <ele>36.7</ele>
        <time>2025-01-16T11:20:44Z</time>
      </trkpt>
      <trkpt lat="47.55945" lon="-2.30321">
        <ele>36.7</ele>
        <time>2025-01-16T11:20:45Z</time>
      </trkpt>
      <trkpt lat="47.55945" lon="-2.30321">
        <ele>36.7</ele>
        <time>2025-01-16T11:20:46Z</time>
      </trkpt>
      <trkpt lat="47.55946" lon="-2.30321">
        <ele>36.6</ele>
        <time>2025-01-16T11:20:47Z</time>
      </trkpt>
      <trkpt lat="47.55946" lon="-2.30322">
        <ele>36.8</ele>
        <time>2025-01-16T11:20:48Z</time>
      </trkpt>
      <trkpt lat="47.55946" lon="-2.30322">
        <ele>36.8</ele>
        <time>2025-01-16T11:20:49Z</time>
      </trkpt>
      <trkpt lat="47.55946" lon="-2.30321">
        <ele>36.6</ele>
        <time>2025-01-16T11:20:50Z</time>
      </trkpt>
      <trkpt lat="47.55946" lon="-2.30321">
        <ele>36.6</ele>
        <time>2025-01-16T11:20:51Z</time>
      </trkpt>
      <trkpt lat="47.55946" lon="-2.30321">
        <ele>36.6</ele>
        <time>2025-01-16T11:20:52Z</time>
      </trkpt>
      <trkpt lat="47.55946" lon="-2.3032">
        <ele>36.5</ele>
        <time>2025-01-16T11:20:53Z</time>
      </trkpt>
      <trkpt lat="47.55947" lon="-2.3032">
        <ele>36.5</ele>
        <time>2025-01-16T11:20:54Z</time>
      </trkpt>
      <trkpt lat="47.55947" lon="-2.3032">
        <ele>36.5</ele>
        <time>2025-01-16T11:20:55Z</time>
      </trkpt>
      <trkpt lat="47.55947" lon="-2.3032">
        <ele>36.5</ele>
        <time>2025-01-16T11:20:56Z</time>
      </trkpt>
      <trkpt lat="47.55947" lon="-2.3032">
        <ele>36.5</ele>
        <time>2025-01-16T11:20:57Z</time>
      </trkpt>
      <trkpt lat="47.55947" lon="-2.3032">
        <ele>36.5</ele>
        <time>2025-01-16T11:20:58Z</time>
      </trkpt>
      <trkpt lat="47.55947" lon="-2.3032">
        <ele>36.5</ele>
        <time>2025-01-16T11:20:59Z</time>
      </trkpt>
      <trkpt lat="47.55947" lon="-2.3032">
        <ele>36.5</ele>
        <time>2025-01-16T11:21:00Z</time>
      </trkpt>
      <trkpt lat="47.55947" lon="-2.3032">
        <ele>36.5</ele>
        <time>2025-01-16T11:21:01Z</time>
      </trkpt>
      <trkpt lat="47.55947" lon="-2.3032">
        <ele>36.5</ele>
        <time>2025-01-16T11:21:02Z</time>
      </trkpt>
      <trkpt lat="47.55947" lon="-2.3032">
        <ele>36.5</ele>
        <time>2025-01-16T11:21:03Z</time>
      </trkpt>
      <trkpt lat="47.55947" lon="-2.3032">
        <ele>36.5</ele>
        <time>2025-01-16T11:21:04Z</time>
      </trkpt>
      <trkpt lat="47.55947" lon="-2.3032">
        <ele>36.5</ele>
        <time>2025-01-16T11:21:05Z</time>
      </trkpt>
      <trkpt lat="47.55947" lon="-2.3032">
        <ele>36.5</ele>
        <time>2025-01-16T11:21:06Z</time>
      </trkpt>
      <trkpt lat="47.55947" lon="-2.3032">
        <ele>36.5</ele>
        <time>2025-01-16T11:21:07Z</time>
      </trkpt>
      <trkpt lat="47.55947" lon="-2.3032">
        <ele>36.5</ele>
        <time>2025-01-16T11:21:08Z</time>
      </trkpt>
      <trkpt lat="47.55947" lon="-2.3032">
        <ele>36.5</ele>
        <time>2025-01-16T11:21:09Z</time>
      </trkpt>
      <trkpt lat="47.55947" lon="-2.3032">
        <ele>36.5</ele>
        <time>2025-01-16T11:21:10Z</time>
      </trkpt>
      <trkpt lat="47.55947" lon="-2.3032">
        <ele>36.5</ele>
        <time>2025-01-16T11:21:11Z</time>
      </trkpt>
      <trkpt lat="47.55947" lon="-2.3032">
        <ele>36.5</ele>
        <time>2025-01-16T11:21:12Z</time>
      </trkpt>
      <trkpt lat="47.55947" lon="-2.3032">
        <ele>36.5</ele>
        <time>2025-01-16T11:21:13Z</time>
      </trkpt>
      <trkpt lat="47.55947" lon="-2.3032">
        <ele>36.5</ele>
        <time>2025-01-16T11:21:14Z</time>
      </trkpt>
      <trkpt lat="47.55947" lon="-2.3032">
        <ele>36.5</ele>
        <time>2025-01-16T11:21:15Z</time>
      </trkpt>
      <trkpt lat="47.55947" lon="-2.3032">
        <ele>36.5</ele>
        <time>2025-01-16T11:21:16Z</time>
      </trkpt>
      <trkpt lat="47.55947" lon="-2.3032">
        <ele>36.5</ele>
        <time>2025-01-16T11:21:17Z</time>
      </trkpt>
      <trkpt lat="47.55947" lon="-2.3032">
        <ele>36.5</ele>
        <time>2025-01-16T11:21:18Z</time>
      </trkpt>
      <trkpt lat="47.55947" lon="-2.3032">
        <ele>36.5</ele>
        <time>2025-01-16T11:21:19Z</time>
      </trkpt>
      <trkpt lat="47.55947" lon="-2.3032">
        <ele>36.5</ele>
        <time>2025-01-16T11:21:20Z</time>
      </trkpt>
      <trkpt lat="47.55947" lon="-2.3032">
        <ele>36.5</ele>
        <time>2025-01-16T11:21:21Z</time>
      </trkpt>
      <trkpt lat="47.55947" lon="-2.30319">
        <ele>36.4</ele>
        <time>2025-01-16T11:21:22Z</time>
      </trkpt>
      <trkpt lat="47.55947" lon="-2.30319">
        <ele>36.4</ele>
        <time>2025-01-16T11:21:23Z</time>
      </trkpt>
      <trkpt lat="47.55947" lon="-2.30318">
        <ele>36.3</ele>
        <time>2025-01-16T11:21:24Z</time>
      </trkpt>
      <trkpt lat="47.55947" lon="-2.30318">
        <ele>36.3</ele>
        <time>2025-01-16T11:21:25Z</time>
      </trkpt>
      <trkpt lat="47.55947" lon="-2.30318">
        <ele>36.3</ele>
        <time>2025-01-16T11:21:26Z</time>
      </trkpt>
      <trkpt lat="47.55947" lon="-2.30317">
        <ele>36.2</ele>
        <time>2025-01-16T11:21:27Z</time>
      </trkpt>
      <trkpt lat="47.55947" lon="-2.30317">
        <ele>36.2</ele>
        <time>2025-01-16T11:21:28Z</time>
      </trkpt>
      <trkpt lat="47.55947" lon="-2.30317">
        <ele>36.2</ele>
        <time>2025-01-16T11:21:29Z</time>
      </trkpt>
      <trkpt lat="47.55947" lon="-2.30317">
        <ele>36.2</ele>
        <time>2025-01-16T11:21:30Z</time>
      </trkpt>
      <trkpt lat="47.55947" lon="-2.30317">
        <ele>36.2</ele>
        <time>2025-01-16T11:21:31Z</time>
      </trkpt>
      <trkpt lat="47.55947" lon="-2.30317">
        <ele>36.2</ele>
        <time>2025-01-16T11:21:32Z</time>
      </trkpt>
      <trkpt lat="47.55948" lon="-2.30317">
        <ele>36.2</ele>
        <time>2025-01-16T11:21:33Z</time>
      </trkpt>
      <trkpt lat="47.55948" lon="-2.30317">
        <ele>36.2</ele>
        <time>2025-01-16T11:21:34Z</time>
      </trkpt>
      <trkpt lat="47.55948" lon="-2.30317">
        <ele>36.2</ele>
        <time>2025-01-16T11:21:35Z</time>
      </trkpt>
      <trkpt lat="47.55948" lon="-2.30317">
        <ele>36.2</ele>
        <time>2025-01-16T11:21:36Z</time>
      </trkpt>
      <trkpt lat="47.55948" lon="-2.30317">
        <ele>36.2</ele>
        <time>2025-01-16T11:21:37Z</time>
      </trkpt>
      <trkpt lat="47.55948" lon="-2.30317">
        <ele>36.2</ele>
        <time>2025-01-16T11:21:38Z</time>
      </trkpt>
      <trkpt lat="47.55948" lon="-2.30316">
        <ele>36</ele>
        <time>2025-01-16T11:21:39Z</time>
      </trkpt>
      <trkpt lat="47.55948" lon="-2.30316">
        <ele>36</ele>
        <time>2025-01-16T11:21:40Z</time>
      </trkpt>
      <trkpt lat="47.55947" lon="-2.30316">
        <ele>36.1</ele>
        <time>2025-01-16T11:21:41Z</time>
      </trkpt>
      <trkpt lat="47.55947" lon="-2.30315">
        <ele>36</ele>
        <time>2025-01-16T11:21:42Z</time>
      </trkpt>
      <trkpt lat="47.55946" lon="-2.30315">
        <ele>36</ele>
        <time>2025-01-16T11:21:43Z</time>
      </trkpt>
      <trkpt lat="47.55946" lon="-2.30315">
        <ele>36</ele>
        <time>2025-01-16T11:21:44Z</time>
      </trkpt>
      <trkpt lat="47.55945" lon="-2.30315">
        <ele>36</ele>
        <time>2025-01-16T11:21:45Z</time>
      </trkpt>
      <trkpt lat="47.55944" lon="-2.30315">
        <ele>36</ele>
        <time>2025-01-16T11:21:46Z</time>
      </trkpt>
      <trkpt lat="47.55944" lon="-2.30314">
        <ele>35.9</ele>
        <time>2025-01-16T11:21:47Z</time>
      </trkpt>
      <trkpt lat="47.55944" lon="-2.30313">
        <ele>35.8</ele>
        <time>2025-01-16T11:21:48Z</time>
      </trkpt>
      <trkpt lat="47.55944" lon="-2.30313">
        <ele>35.8</ele>
        <time>2025-01-16T11:21:49Z</time>
      </trkpt>
      <trkpt lat="47.55945" lon="-2.30313">
        <ele>35.8</ele>
        <time>2025-01-16T11:21:50Z</time>
      </trkpt>
      <trkpt lat="47.55944" lon="-2.30313">
        <ele>35.8</ele>
        <time>2025-01-16T11:21:51Z</time>
      </trkpt>
      <trkpt lat="47.55944" lon="-2.30313">
        <ele>35.8</ele>
        <time>2025-01-16T11:21:52Z</time>
      </trkpt>
      <trkpt lat="47.55944" lon="-2.30313">
        <ele>35.8</ele>
        <time>2025-01-16T11:21:53Z</time>
      </trkpt>
      <trkpt lat="47.55945" lon="-2.30313">
        <ele>35.8</ele>
        <time>2025-01-16T11:21:54Z</time>
      </trkpt>
      <trkpt lat="47.55945" lon="-2.30313">
        <ele>35.8</ele>
        <time>2025-01-16T11:21:55Z</time>
      </trkpt>
      <trkpt lat="47.55945" lon="-2.30313">
        <ele>35.8</ele>
        <time>2025-01-16T11:21:56Z</time>
      </trkpt>
      <trkpt lat="47.55945" lon="-2.30313">
        <ele>35.8</ele>
        <time>2025-01-16T11:21:57Z</time>
      </trkpt>
      <trkpt lat="47.55945" lon="-2.30313">
        <ele>35.8</ele>
        <time>2025-01-16T11:21:58Z</time>
      </trkpt>
      <trkpt lat="47.55945" lon="-2.30314">
        <ele>35.9</ele>
        <time>2025-01-16T11:21:59Z</time>
      </trkpt>
      <trkpt lat="47.55945" lon="-2.30314">
        <ele>35.9</ele>
        <time>2025-01-16T11:22:00Z</time>
      </trkpt>
      <trkpt lat="47.55945" lon="-2.30314">
        <ele>35.9</ele>
        <time>2025-01-16T11:22:01Z</time>
      </trkpt>
      <trkpt lat="47.55945" lon="-2.30314">
        <ele>35.9</ele>
        <time>2025-01-16T11:22:02Z</time>
      </trkpt>
      <trkpt lat="47.55946" lon="-2.30315">
        <ele>36</ele>
        <time>2025-01-16T11:22:03Z</time>
      </trkpt>
      <trkpt lat="47.55946" lon="-2.30315">
        <ele>36</ele>
        <time>2025-01-16T11:22:04Z</time>
      </trkpt>
      <trkpt lat="47.55945" lon="-2.30315">
        <ele>36</ele>
        <time>2025-01-16T11:22:05Z</time>
      </trkpt>
      <trkpt lat="47.55945" lon="-2.30315">
        <ele>36</ele>
        <time>2025-01-16T11:22:06Z</time>
      </trkpt>
      <trkpt lat="47.55946" lon="-2.30315">
        <ele>36</ele>
        <time>2025-01-16T11:22:07Z</time>
      </trkpt>
      <trkpt lat="47.55946" lon="-2.30315">
        <ele>36</ele>
        <time>2025-01-16T11:22:08Z</time>
      </trkpt>
      <trkpt lat="47.55946" lon="-2.30315">
        <ele>36</ele>
        <time>2025-01-16T11:22:09Z</time>
      </trkpt>
      <trkpt lat="47.55946" lon="-2.30315">
        <ele>36</ele>
        <time>2025-01-16T11:22:10Z</time>
      </trkpt>
      <trkpt lat="47.55946" lon="-2.30315">
        <ele>36</ele>
        <time>2025-01-16T11:22:11Z</time>
      </trkpt>
      <trkpt lat="47.55946" lon="-2.30315">
        <ele>36</ele>
        <time>2025-01-16T11:22:12Z</time>
      </trkpt>
      <trkpt lat="47.55946" lon="-2.30315">
        <ele>36</ele>
        <time>2025-01-16T11:22:13Z</time>
      </trkpt>
      <trkpt lat="47.55946" lon="-2.30315">
        <ele>36</ele>
        <time>2025-01-16T11:22:14Z</time>
      </trkpt>
      <trkpt lat="47.55946" lon="-2.30315">
        <ele>36</ele>
        <time>2025-01-16T11:22:15Z</time>
      </trkpt>
      <trkpt lat="47.55946" lon="-2.30315">
        <ele>36</ele>
        <time>2025-01-16T11:22:16Z</time>
      </trkpt>
      <trkpt lat="47.55946" lon="-2.30315">
        <ele>36</ele>
        <time>2025-01-16T11:22:17Z</time>
      </trkpt>
      <trkpt lat="47.55946" lon="-2.30315">
        <ele>36</ele>
        <time>2025-01-16T11:22:18Z</time>
      </trkpt>
      <trkpt lat="47.55946" lon="-2.30315">
        <ele>36</ele>
        <time>2025-01-16T11:22:19Z</time>
      </trkpt>
      <trkpt lat="47.55946" lon="-2.30315">
        <ele>36</ele>
        <time>2025-01-16T11:22:20Z</time>
      </trkpt>
      <trkpt lat="47.55946" lon="-2.30316">
        <ele>36.1</ele>
        <time>2025-01-16T11:22:21Z</time>
      </trkpt>
      <trkpt lat="47.55946" lon="-2.30316">
        <ele>36.1</ele>
        <time>2025-01-16T11:22:22Z</time>
      </trkpt>
      <trkpt lat="47.55946" lon="-2.30316">
        <ele>36.1</ele>
        <time>2025-01-16T11:22:23Z</time>
      </trkpt>
      <trkpt lat="47.55946" lon="-2.30316">
        <ele>36.1</ele>
        <time>2025-01-16T11:22:24Z</time>
      </trkpt>
      <trkpt lat="47.55946" lon="-2.30316">
        <ele>36.1</ele>
        <time>2025-01-16T11:22:25Z</time>
      </trkpt>
      <trkpt lat="47.55946" lon="-2.30316">
        <ele>36.1</ele>
        <time>2025-01-16T11:22:26Z</time>
      </trkpt>
      <trkpt lat="47.55946" lon="-2.30316">
        <ele>36.1</ele>
        <time>2025-01-16T11:22:27Z</time>
      </trkpt>
      <trkpt lat="47.55946" lon="-2.30316">
        <ele>36.1</ele>
        <time>2025-01-16T11:22:28Z</time>
      </trkpt>
      <trkpt lat="47.55946" lon="-2.30316">
        <ele>36.1</ele>
        <time>2025-01-16T11:22:29Z</time>
      </trkpt>
      <trkpt lat="47.55946" lon="-2.30316">
        <ele>36.1</ele>
        <time>2025-01-16T11:22:30Z</time>
      </trkpt>
      <trkpt lat="47.55946" lon="-2.30316">
        <ele>36.1</ele>
        <time>2025-01-16T11:22:31Z</time>
      </trkpt>
      <trkpt lat="47.55946" lon="-2.30316">
        <ele>36.1</ele>
        <time>2025-01-16T11:22:32Z</time>
      </trkpt>
      <trkpt lat="47.55946" lon="-2.30316">
        <ele>36.1</ele>
        <time>2025-01-16T11:22:33Z</time>
      </trkpt>
      <trkpt lat="47.55946" lon="-2.30316">
        <ele>36.1</ele>
        <time>2025-01-16T11:22:34Z</time>
      </trkpt>
      <trkpt lat="47.55946" lon="-2.30316">
        <ele>36.1</ele>
        <time>2025-01-16T11:22:35Z</time>
      </trkpt>
      <trkpt lat="47.55946" lon="-2.30316">
        <ele>36.1</ele>
        <time>2025-01-16T11:22:36Z</time>
      </trkpt>
      <trkpt lat="47.55946" lon="-2.30316">
        <ele>36.1</ele>
        <time>2025-01-16T11:22:37Z</time>
      </trkpt>
      <trkpt lat="47.55946" lon="-2.30316">
        <ele>36.1</ele>
        <time>2025-01-16T11:22:38Z</time>
      </trkpt>
      <trkpt lat="47.55946" lon="-2.30316">
        <ele>36.1</ele>
        <time>2025-01-16T11:22:39Z</time>
      </trkpt>
      <trkpt lat="47.55946" lon="-2.30316">
        <ele>36.1</ele>
        <time>2025-01-16T11:22:40Z</time>
      </trkpt>
      <trkpt lat="47.55946" lon="-2.30316">
        <ele>36.1</ele>
        <time>2025-01-16T11:22:41Z</time>
      </trkpt>
      <trkpt lat="47.55946" lon="-2.30316">
        <ele>36.1</ele>
        <time>2025-01-16T11:22:42Z</time>
      </trkpt>
      <trkpt lat="47.55946" lon="-2.30316">
        <ele>36.1</ele>
        <time>2025-01-16T11:22:43Z</time>
      </trkpt>
      <trkpt lat="47.55946" lon="-2.30316">
        <ele>36.1</ele>
        <time>2025-01-16T11:22:44Z</time>
      </trkpt>
      <trkpt lat="47.55946" lon="-2.30316">
        <ele>36.1</ele>
        <time>2025-01-16T11:22:45Z</time>
      </trkpt>
      <trkpt lat="47.55946" lon="-2.30316">
        <ele>36.1</ele>
        <time>2025-01-16T11:22:46Z</time>
      </trkpt>
      <trkpt lat="47.55946" lon="-2.30316">
        <ele>36.1</ele>
        <time>2025-01-16T11:22:47Z</time>
      </trkpt>
      <trkpt lat="47.55946" lon="-2.30316">
        <ele>36.1</ele>
        <time>2025-01-16T11:22:48Z</time>
      </trkpt>
      <trkpt lat="47.55946" lon="-2.30316">
        <ele>36.1</ele>
        <time>2025-01-16T11:22:49Z</time>
      </trkpt>
      <trkpt lat="47.55946" lon="-2.30316">
        <ele>36.1</ele>
        <time>2025-01-16T11:22:50Z</time>
      </trkpt>
      <trkpt lat="47.55946" lon="-2.30315">
        <ele>36</ele>
        <time>2025-01-16T11:22:51Z</time>
      </trkpt>
      <trkpt lat="47.55946" lon="-2.30315">
        <ele>36</ele>
        <time>2025-01-16T11:22:52Z</time>
      </trkpt>
      <trkpt lat="47.55946" lon="-2.30315">
        <ele>36</ele>
        <time>2025-01-16T11:22:53Z</time>
      </trkpt>
      <trkpt lat="47.55946" lon="-2.30315">
        <ele>36</ele>
        <time>2025-01-16T11:22:54Z</time>
      </trkpt>
      <trkpt lat="47.55946" lon="-2.30315">
        <ele>36</ele>
        <time>2025-01-16T11:22:55Z</time>
      </trkpt>
      <trkpt lat="47.55946" lon="-2.30315">
        <ele>36</ele>
        <time>2025-01-16T11:22:56Z</time>
      </trkpt>
      <trkpt lat="47.55946" lon="-2.30315">
        <ele>36</ele>
        <time>2025-01-16T11:22:57Z</time>
      </trkpt>
      <trkpt lat="47.55946" lon="-2.30315">
        <ele>36</ele>
        <time>2025-01-16T11:22:58Z</time>
      </trkpt>
      <trkpt lat="47.55946" lon="-2.30315">
        <ele>36</ele>
        <time>2025-01-16T11:22:59Z</time>
      </trkpt>
      <trkpt lat="47.55946" lon="-2.30315">
        <ele>36</ele>
        <time>2025-01-16T11:23:00Z</time>
      </trkpt>
      <trkpt lat="47.55946" lon="-2.30315">
        <ele>36</ele>
        <time>2025-01-16T11:23:01Z</time>
      </trkpt>
      <trkpt lat="47.55946" lon="-2.30315">
        <ele>36</ele>
        <time>2025-01-16T11:23:02Z</time>
      </trkpt>
      <trkpt lat="47.55946" lon="-2.30315">
        <ele>36</ele>
        <time>2025-01-16T11:23:03Z</time>
      </trkpt>
      <trkpt lat="47.55946" lon="-2.30315">
        <ele>36</ele>
        <time>2025-01-16T11:23:04Z</time>
      </trkpt>
      <trkpt lat="47.55946" lon="-2.30315">
        <ele>36</ele>
        <time>2025-01-16T11:23:05Z</time>
      </trkpt>
      <trkpt lat="47.55946" lon="-2.30315">
        <ele>36</ele>
        <time>2025-01-16T11:23:06Z</time>
      </trkpt>
      <trkpt lat="47.55946" lon="-2.30315">
        <ele>36</ele>
        <time>2025-01-16T11:23:07Z</time>
      </trkpt>
      <trkpt lat="47.55946" lon="-2.30315">
        <ele>36</ele>
        <time>2025-01-16T11:23:08Z</time>
      </trkpt>
      <trkpt lat="47.55946" lon="-2.30315">
        <ele>36</ele>
        <time>2025-01-16T11:23:09Z</time>
      </trkpt>
      <trkpt lat="47.55946" lon="-2.30315">
        <ele>36</ele>
        <time>2025-01-16T11:23:10Z</time>
      </trkpt>
      <trkpt lat="47.55946" lon="-2.30315">
        <ele>36</ele>
        <time>2025-01-16T11:23:11Z</time>
      </trkpt>
      <trkpt lat="47.55946" lon="-2.30315">
        <ele>36</ele>
        <time>2025-01-16T11:23:12Z</time>
      </trkpt>
      <trkpt lat="47.55946" lon="-2.30315">
        <ele>36</ele>
        <time>2025-01-16T11:23:13Z</time>
      </trkpt>
      <trkpt lat="47.55946" lon="-2.30315">
        <ele>36</ele>
        <time>2025-01-16T11:23:14Z</time>
      </trkpt>
      <trkpt lat="47.55946" lon="-2.30315">
        <ele>36</ele>
        <time>2025-01-16T11:23:15Z</time>
      </trkpt>
      <trkpt lat="47.55946" lon="-2.30315">
        <ele>36</ele>
        <time>2025-01-16T11:23:16Z</time>
      </trkpt>
      <trkpt lat="47.55946" lon="-2.30315">
        <ele>36</ele>
        <time>2025-01-16T11:23:17Z</time>
      </trkpt>
      <trkpt lat="47.55946" lon="-2.30315">
        <ele>36</ele>
        <time>2025-01-16T11:23:18Z</time>
      </trkpt>
      <trkpt lat="47.55946" lon="-2.30315">
        <ele>36</ele>
        <time>2025-01-16T11:23:19Z</time>
      </trkpt>
      <trkpt lat="47.55946" lon="-2.30315">
        <ele>36</ele>
        <time>2025-01-16T11:23:20Z</time>
      </trkpt>
      <trkpt lat="47.55946" lon="-2.30315">
        <ele>36</ele>
        <time>2025-01-16T11:23:21Z</time>
      </trkpt>
      <trkpt lat="47.55946" lon="-2.30316">
        <ele>36.1</ele>
        <time>2025-01-16T11:23:22Z</time>
      </trkpt>
      <trkpt lat="47.55946" lon="-2.30316">
        <ele>36.1</ele>
        <time>2025-01-16T11:23:23Z</time>
      </trkpt>
      <trkpt lat="47.55946" lon="-2.30316">
        <ele>36.1</ele>
        <time>2025-01-16T11:23:24Z</time>
      </trkpt>
      <trkpt lat="47.55946" lon="-2.30316">
        <ele>36.1</ele>
        <time>2025-01-16T11:23:25Z</time>
      </trkpt>
      <trkpt lat="47.55946" lon="-2.30316">
        <ele>36.1</ele>
        <time>2025-01-16T11:23:26Z</time>
      </trkpt>
      <trkpt lat="47.55946" lon="-2.30316">
        <ele>36.1</ele>
        <time>2025-01-16T11:23:27Z</time>
      </trkpt>
      <trkpt lat="47.55946" lon="-2.30315">
        <ele>36</ele>
        <time>2025-01-16T11:23:28Z</time>
      </trkpt>
      <trkpt lat="47.55946" lon="-2.30315">
        <ele>36</ele>
        <time>2025-01-16T11:23:29Z</time>
      </trkpt>
      <trkpt lat="47.55946" lon="-2.30314">
        <ele>35.9</ele>
        <time>2025-01-16T11:23:30Z</time>
      </trkpt>
      <trkpt lat="47.55946" lon="-2.30314">
        <ele>35.9</ele>
        <time>2025-01-16T11:23:31Z</time>
      </trkpt>
      <trkpt lat="47.55946" lon="-2.30314">
        <ele>35.9</ele>
        <time>2025-01-16T11:23:32Z</time>
      </trkpt>
      <trkpt lat="47.55946" lon="-2.30314">
        <ele>35.9</ele>
        <time>2025-01-16T11:23:33Z</time>
      </trkpt>
      <trkpt lat="47.55946" lon="-2.30314">
        <ele>35.9</ele>
        <time>2025-01-16T11:23:34Z</time>
      </trkpt>
      <trkpt lat="47.55946" lon="-2.30313">
        <ele>35.8</ele>
        <time>2025-01-16T11:23:35Z</time>
      </trkpt>
      <trkpt lat="47.55946" lon="-2.30313">
        <ele>35.8</ele>
        <time>2025-01-16T11:23:36Z</time>
      </trkpt>
      <trkpt lat="47.55946" lon="-2.30313">
        <ele>35.8</ele>
        <time>2025-01-16T11:23:37Z</time>
      </trkpt>
      <trkpt lat="47.55946" lon="-2.30313">
        <ele>35.8</ele>
        <time>2025-01-16T11:23:38Z</time>
      </trkpt>
      <trkpt lat="47.55946" lon="-2.30313">
        <ele>35.8</ele>
        <time>2025-01-16T11:23:39Z</time>
      </trkpt>
      <trkpt lat="47.55946" lon="-2.30313">
        <ele>35.8</ele>
        <time>2025-01-16T11:23:40Z</time>
      </trkpt>
      <trkpt lat="47.55946" lon="-2.30313">
        <ele>35.8</ele>
        <time>2025-01-16T11:23:41Z</time>
      </trkpt>
      <trkpt lat="47.55946" lon="-2.30313">
        <ele>35.8</ele>
        <time>2025-01-16T11:23:42Z</time>
      </trkpt>
      <trkpt lat="47.55946" lon="-2.30313">
        <ele>35.8</ele>
        <time>2025-01-16T11:23:43Z</time>
      </trkpt>
      <trkpt lat="47.55946" lon="-2.30313">
        <ele>35.8</ele>
        <time>2025-01-16T11:23:44Z</time>
      </trkpt>
      <trkpt lat="47.55946" lon="-2.30313">
        <ele>35.8</ele>
        <time>2025-01-16T11:23:45Z</time>
      </trkpt>
      <trkpt lat="47.55946" lon="-2.30313">
        <ele>35.8</ele>
        <time>2025-01-16T11:23:46Z</time>
      </trkpt>
      <trkpt lat="47.55946" lon="-2.30313">
        <ele>35.8</ele>
        <time>2025-01-16T11:23:47Z</time>
      </trkpt>
      <trkpt lat="47.55946" lon="-2.30313">
        <ele>35.8</ele>
        <time>2025-01-16T11:23:48Z</time>
      </trkpt>
      <trkpt lat="47.55946" lon="-2.30313">
        <ele>35.8</ele>
        <time>2025-01-16T11:23:49Z</time>
      </trkpt>
      <trkpt lat="47.55946" lon="-2.30313">
        <ele>35.8</ele>
        <time>2025-01-16T11:23:50Z</time>
      </trkpt>
      <trkpt lat="47.55946" lon="-2.30313">
        <ele>35.8</ele>
        <time>2025-01-16T11:23:51Z</time>
      </trkpt>
      <trkpt lat="47.55946" lon="-2.30313">
        <ele>35.8</ele>
        <time>2025-01-16T11:23:52Z</time>
      </trkpt>
      <trkpt lat="47.55946" lon="-2.30313">
        <ele>35.8</ele>
        <time>2025-01-16T11:23:53Z</time>
      </trkpt>
      <trkpt lat="47.55946" lon="-2.30313">
        <ele>35.8</ele>
        <time>2025-01-16T11:23:54Z</time>
      </trkpt>
      <trkpt lat="47.55946" lon="-2.30313">
        <ele>35.8</ele>
        <time>2025-01-16T11:23:55Z</time>
      </trkpt>
      <trkpt lat="47.55946" lon="-2.30313">
        <ele>35.8</ele>
        <time>2025-01-16T11:23:56Z</time>
      </trkpt>
      <trkpt lat="47.55946" lon="-2.30314">
        <ele>35.9</ele>
        <time>2025-01-16T11:23:57Z</time>
      </trkpt>
      <trkpt lat="47.55947" lon="-2.30313">
        <ele>35.7</ele>
        <time>2025-01-16T11:23:58Z</time>
      </trkpt>
      <trkpt lat="47.55948" lon="-2.30313">
        <ele>35.7</ele>
        <time>2025-01-16T11:23:59Z</time>
      </trkpt>
      <trkpt lat="47.55948" lon="-2.30313">
        <ele>35.7</ele>
        <time>2025-01-16T11:24:00Z</time>
      </trkpt>
      <trkpt lat="47.55948" lon="-2.30313">
        <ele>35.7</ele>
        <time>2025-01-16T11:24:01Z</time>
      </trkpt>
      <trkpt lat="47.55948" lon="-2.30313">
        <ele>35.7</ele>
        <time>2025-01-16T11:24:02Z</time>
      </trkpt>
      <trkpt lat="47.55948" lon="-2.30312">
        <ele>35.6</ele>
        <time>2025-01-16T11:24:03Z</time>
      </trkpt>
      <trkpt lat="47.55947" lon="-2.30313">
        <ele>35.7</ele>
        <time>2025-01-16T11:24:04Z</time>
      </trkpt>
      <trkpt lat="47.55947" lon="-2.30313">
        <ele>35.7</ele>
        <time>2025-01-16T11:24:05Z</time>
      </trkpt>
      <trkpt lat="47.55946" lon="-2.30313">
        <ele>35.8</ele>
        <time>2025-01-16T11:24:06Z</time>
      </trkpt>
      <trkpt lat="47.55946" lon="-2.30313">
        <ele>35.8</ele>
        <time>2025-01-16T11:24:07Z</time>
      </trkpt>
      <trkpt lat="47.55946" lon="-2.30313">
        <ele>35.8</ele>
        <time>2025-01-16T11:24:08Z</time>
      </trkpt>
      <trkpt lat="47.55946" lon="-2.30313">
        <ele>35.8</ele>
        <time>2025-01-16T11:24:09Z</time>
      </trkpt>
      <trkpt lat="47.55945" lon="-2.30314">
        <ele>35.9</ele>
        <time>2025-01-16T11:24:10Z</time>
      </trkpt>
      <trkpt lat="47.55945" lon="-2.30314">
        <ele>35.9</ele>
        <time>2025-01-16T11:24:11Z</time>
      </trkpt>
      <trkpt lat="47.55945" lon="-2.30314">
        <ele>35.9</ele>
        <time>2025-01-16T11:24:12Z</time>
      </trkpt>
      <trkpt lat="47.55945" lon="-2.30314">
        <ele>35.9</ele>
        <time>2025-01-16T11:24:13Z</time>
      </trkpt>
      <trkpt lat="47.55946" lon="-2.30314">
        <ele>35.9</ele>
        <time>2025-01-16T11:24:14Z</time>
      </trkpt>
      <trkpt lat="47.55946" lon="-2.30314">
        <ele>35.9</ele>
        <time>2025-01-16T11:24:15Z</time>
      </trkpt>
      <trkpt lat="47.55947" lon="-2.30315">
        <ele>36</ele>
        <time>2025-01-16T11:24:16Z</time>
      </trkpt>
      <trkpt lat="47.55947" lon="-2.30315">
        <ele>36</ele>
        <time>2025-01-16T11:24:17Z</time>
      </trkpt>
      <trkpt lat="47.55947" lon="-2.30315">
        <ele>36</ele>
        <time>2025-01-16T11:24:18Z</time>
      </trkpt>
      <trkpt lat="47.55947" lon="-2.30315">
        <ele>36</ele>
        <time>2025-01-16T11:24:19Z</time>
      </trkpt>
      <trkpt lat="47.55947" lon="-2.30315">
        <ele>36</ele>
        <time>2025-01-16T11:24:20Z</time>
      </trkpt>
      <trkpt lat="47.55947" lon="-2.30315">
        <ele>36</ele>
        <time>2025-01-16T11:24:21Z</time>
      </trkpt>
      <trkpt lat="47.55947" lon="-2.30315">
        <ele>36</ele>
        <time>2025-01-16T11:24:22Z</time>
      </trkpt>
      <trkpt lat="47.55947" lon="-2.30315">
        <ele>36</ele>
        <time>2025-01-16T11:24:23Z</time>
      </trkpt>
      <trkpt lat="47.55947" lon="-2.30315">
        <ele>36</ele>
        <time>2025-01-16T11:24:24Z</time>
      </trkpt>
      <trkpt lat="47.55947" lon="-2.30315">
        <ele>36</ele>
        <time>2025-01-16T11:24:25Z</time>
      </trkpt>
      <trkpt lat="47.55947" lon="-2.30314">
        <ele>35.8</ele>
        <time>2025-01-16T11:24:26Z</time>
      </trkpt>
      <trkpt lat="47.55947" lon="-2.30314">
        <ele>35.8</ele>
        <time>2025-01-16T11:24:27Z</time>
      </trkpt>
      <trkpt lat="47.55947" lon="-2.30314">
        <ele>35.8</ele>
        <time>2025-01-16T11:24:28Z</time>
      </trkpt>
      <trkpt lat="47.55947" lon="-2.30314">
        <ele>35.8</ele>
        <time>2025-01-16T11:24:29Z</time>
      </trkpt>
      <trkpt lat="47.55947" lon="-2.30314">
        <ele>35.8</ele>
        <time>2025-01-16T11:24:30Z</time>
      </trkpt>
      <trkpt lat="47.55947" lon="-2.30314">
        <ele>35.8</ele>
        <time>2025-01-16T11:24:31Z</time>
      </trkpt>
      <trkpt lat="47.55947" lon="-2.30314">
        <ele>35.8</ele>
        <time>2025-01-16T11:24:32Z</time>
      </trkpt>
      <trkpt lat="47.55947" lon="-2.30314">
        <ele>35.8</ele>
        <time>2025-01-16T11:24:33Z</time>
      </trkpt>
      <trkpt lat="47.55947" lon="-2.30314">
        <ele>35.8</ele>
        <time>2025-01-16T11:24:34Z</time>
      </trkpt>
      <trkpt lat="47.55947" lon="-2.30314">
        <ele>35.8</ele>
        <time>2025-01-16T11:24:35Z</time>
      </trkpt>
      <trkpt lat="47.55947" lon="-2.30314">
        <ele>35.8</ele>
        <time>2025-01-16T11:24:36Z</time>
      </trkpt>
      <trkpt lat="47.55947" lon="-2.30314">
        <ele>35.8</ele>
        <time>2025-01-16T11:24:37Z</time>
      </trkpt>
      <trkpt lat="47.55947" lon="-2.30314">
        <ele>35.8</ele>
        <time>2025-01-16T11:24:38Z</time>
      </trkpt>
      <trkpt lat="47.55947" lon="-2.30314">
        <ele>35.8</ele>
        <time>2025-01-16T11:24:39Z</time>
      </trkpt>
      <trkpt lat="47.55947" lon="-2.30314">
        <ele>35.8</ele>
        <time>2025-01-16T11:24:40Z</time>
      </trkpt>
      <trkpt lat="47.55947" lon="-2.30314">
        <ele>35.8</ele>
        <time>2025-01-16T11:24:41Z</time>
      </trkpt>
      <trkpt lat="47.55947" lon="-2.30314">
        <ele>35.8</ele>
        <time>2025-01-16T11:24:42Z</time>
      </trkpt>
      <trkpt lat="47.55947" lon="-2.30314">
        <ele>35.8</ele>
        <time>2025-01-16T11:24:43Z</time>
      </trkpt>
      <trkpt lat="47.55947" lon="-2.30314">
        <ele>35.8</ele>
        <time>2025-01-16T11:24:44Z</time>
      </trkpt>
      <trkpt lat="47.55947" lon="-2.30314">
        <ele>35.8</ele>
        <time>2025-01-16T11:24:45Z</time>
      </trkpt>
      <trkpt lat="47.55947" lon="-2.30314">
        <ele>35.8</ele>
        <time>2025-01-16T11:24:46Z</time>
      </trkpt>
      <trkpt lat="47.55947" lon="-2.30314">
        <ele>35.8</ele>
        <time>2025-01-16T11:24:47Z</time>
      </trkpt>
      <trkpt lat="47.55947" lon="-2.30314">
        <ele>35.8</ele>
        <time>2025-01-16T11:24:48Z</time>
      </trkpt>
      <trkpt lat="47.55947" lon="-2.30314">
        <ele>35.8</ele>
        <time>2025-01-16T11:24:49Z</time>
      </trkpt>
      <trkpt lat="47.55947" lon="-2.30314">
        <ele>35.8</ele>
        <time>2025-01-16T11:24:50Z</time>
      </trkpt>
      <trkpt lat="47.55947" lon="-2.30314">
        <ele>35.8</ele>
        <time>2025-01-16T11:24:51Z</time>
      </trkpt>
      <trkpt lat="47.55947" lon="-2.30314">
        <ele>35.8</ele>
        <time>2025-01-16T11:24:52Z</time>
      </trkpt>
      <trkpt lat="47.55947" lon="-2.30314">
        <ele>35.8</ele>
        <time>2025-01-16T11:24:53Z</time>
      </trkpt>
      <trkpt lat="47.55947" lon="-2.30314">
        <ele>35.8</ele>
        <time>2025-01-16T11:24:54Z</time>
      </trkpt>
      <trkpt lat="47.55947" lon="-2.30314">
        <ele>35.8</ele>
        <time>2025-01-16T11:24:55Z</time>
      </trkpt>
      <trkpt lat="47.55947" lon="-2.30314">
        <ele>35.8</ele>
        <time>2025-01-16T11:24:56Z</time>
      </trkpt>
      <trkpt lat="47.55947" lon="-2.30314">
        <ele>35.8</ele>
        <time>2025-01-16T11:24:57Z</time>
      </trkpt>
      <trkpt lat="47.55947" lon="-2.30314">
        <ele>35.8</ele>
        <time>2025-01-16T11:24:58Z</time>
      </trkpt>
      <trkpt lat="47.55947" lon="-2.30314">
        <ele>35.8</ele>
        <time>2025-01-16T11:24:59Z</time>
      </trkpt>
      <trkpt lat="47.55947" lon="-2.30314">
        <ele>35.8</ele>
        <time>2025-01-16T11:25:00Z</time>
      </trkpt>
      <trkpt lat="47.55947" lon="-2.30314">
        <ele>35.8</ele>
        <time>2025-01-16T11:25:01Z</time>
      </trkpt>
      <trkpt lat="47.55947" lon="-2.30314">
        <ele>35.8</ele>
        <time>2025-01-16T11:25:02Z</time>
      </trkpt>
      <trkpt lat="47.55947" lon="-2.30314">
        <ele>35.8</ele>
        <time>2025-01-16T11:25:03Z</time>
      </trkpt>
      <trkpt lat="47.55947" lon="-2.30314">
        <ele>35.8</ele>
        <time>2025-01-16T11:25:04Z</time>
      </trkpt>
      <trkpt lat="47.55947" lon="-2.30314">
        <ele>35.8</ele>
        <time>2025-01-16T11:25:05Z</time>
      </trkpt>
      <trkpt lat="47.55947" lon="-2.30314">
        <ele>35.8</ele>
        <time>2025-01-16T11:25:06Z</time>
      </trkpt>
      <trkpt lat="47.55947" lon="-2.30314">
        <ele>35.8</ele>
        <time>2025-01-16T11:25:07Z</time>
      </trkpt>
      <trkpt lat="47.55947" lon="-2.30314">
        <ele>35.8</ele>
        <time>2025-01-16T11:25:08Z</time>
      </trkpt>
      <trkpt lat="47.55947" lon="-2.30314">
        <ele>35.8</ele>
        <time>2025-01-16T11:25:09Z</time>
      </trkpt>
      <trkpt lat="47.55947" lon="-2.30314">
        <ele>35.8</ele>
        <time>2025-01-16T11:25:10Z</time>
      </trkpt>
      <trkpt lat="47.55947" lon="-2.30314">
        <ele>35.8</ele>
        <time>2025-01-16T11:25:11Z</time>
      </trkpt>
      <trkpt lat="47.55947" lon="-2.30314">
        <ele>35.8</ele>
        <time>2025-01-16T11:25:12Z</time>
      </trkpt>
      <trkpt lat="47.55947" lon="-2.30314">
        <ele>35.8</ele>
        <time>2025-01-16T11:25:13Z</time>
      </trkpt>
      <trkpt lat="47.55947" lon="-2.30314">
        <ele>35.8</ele>
        <time>2025-01-16T11:25:14Z</time>
      </trkpt>
      <trkpt lat="47.55947" lon="-2.30314">
        <ele>35.8</ele>
        <time>2025-01-16T11:25:15Z</time>
      </trkpt>
      <trkpt lat="47.55947" lon="-2.30314">
        <ele>35.8</ele>
        <time>2025-01-16T11:25:16Z</time>
      </trkpt>
      <trkpt lat="47.55947" lon="-2.30314">
        <ele>35.8</ele>
        <time>2025-01-16T11:25:17Z</time>
      </trkpt>
      <trkpt lat="47.55947" lon="-2.30314">
        <ele>35.8</ele>
        <time>2025-01-16T11:25:18Z</time>
      </trkpt>
      <trkpt lat="47.55947" lon="-2.30314">
        <ele>35.8</ele>
        <time>2025-01-16T11:25:19Z</time>
      </trkpt>
      <trkpt lat="47.55947" lon="-2.30314">
        <ele>35.8</ele>
        <time>2025-01-16T11:25:20Z</time>
      </trkpt>
      <trkpt lat="47.55947" lon="-2.30314">
        <ele>35.8</ele>
        <time>2025-01-16T11:25:21Z</time>
      </trkpt>
      <trkpt lat="47.55947" lon="-2.30314">
        <ele>35.8</ele>
        <time>2025-01-16T11:25:22Z</time>
      </trkpt>
      <trkpt lat="47.55947" lon="-2.30314">
        <ele>35.8</ele>
        <time>2025-01-16T11:25:23Z</time>
      </trkpt>
      <trkpt lat="47.55947" lon="-2.30314">
        <ele>35.8</ele>
        <time>2025-01-16T11:25:24Z</time>
      </trkpt>
      <trkpt lat="47.55947" lon="-2.30314">
        <ele>35.8</ele>
        <time>2025-01-16T11:25:25Z</time>
      </trkpt>
      <trkpt lat="47.55947" lon="-2.30314">
        <ele>35.8</ele>
        <time>2025-01-16T11:25:26Z</time>
      </trkpt>
      <trkpt lat="47.55947" lon="-2.30314">
        <ele>35.8</ele>
        <time>2025-01-16T11:25:27Z</time>
      </trkpt>
      <trkpt lat="47.55947" lon="-2.30314">
        <ele>35.8</ele>
        <time>2025-01-16T11:25:28Z</time>
      </trkpt>
      <trkpt lat="47.55947" lon="-2.30314">
        <ele>35.8</ele>
        <time>2025-01-16T11:25:29Z</time>
      </trkpt>
      <trkpt lat="47.55947" lon="-2.30314">
        <ele>35.8</ele>
        <time>2025-01-16T11:25:30Z</time>
      </trkpt>
      <trkpt lat="47.55947" lon="-2.30314">
        <ele>35.8</ele>
        <time>2025-01-16T11:25:31Z</time>
      </trkpt>
      <trkpt lat="47.55947" lon="-2.30314">
        <ele>35.8</ele>
        <time>2025-01-16T11:25:32Z</time>
      </trkpt>
      <trkpt lat="47.55947" lon="-2.30314">
        <ele>35.8</ele>
        <time>2025-01-16T11:25:33Z</time>
      </trkpt>
      <trkpt lat="47.55947" lon="-2.30314">
        <ele>35.8</ele>
        <time>2025-01-16T11:25:34Z</time>
      </trkpt>
      <trkpt lat="47.55947" lon="-2.30314">
        <ele>35.8</ele>
        <time>2025-01-16T11:25:35Z</time>
      </trkpt>
      <trkpt lat="47.55947" lon="-2.30313">
        <ele>35.7</ele>
        <time>2025-01-16T11:25:36Z</time>
      </trkpt>
      <trkpt lat="47.55947" lon="-2.30313">
        <ele>35.7</ele>
        <time>2025-01-16T11:25:37Z</time>
      </trkpt>
      <trkpt lat="47.55947" lon="-2.30313">
        <ele>35.7</ele>
        <time>2025-01-16T11:25:38Z</time>
      </trkpt>
      <trkpt lat="47.55946" lon="-2.30313">
        <ele>35.8</ele>
        <time>2025-01-16T11:25:39Z</time>
      </trkpt>
      <trkpt lat="47.55946" lon="-2.30313">
        <ele>35.8</ele>
        <time>2025-01-16T11:25:40Z</time>
      </trkpt>
      <trkpt lat="47.55946" lon="-2.30313">
        <ele>35.8</ele>
        <time>2025-01-16T11:25:41Z</time>
      </trkpt>
      <trkpt lat="47.55946" lon="-2.30313">
        <ele>35.8</ele>
        <time>2025-01-16T11:25:42Z</time>
      </trkpt>
      <trkpt lat="47.55946" lon="-2.30313">
        <ele>35.8</ele>
        <time>2025-01-16T11:25:43Z</time>
      </trkpt>
      <trkpt lat="47.55946" lon="-2.30313">
        <ele>35.8</ele>
        <time>2025-01-16T11:25:44Z</time>
      </trkpt>
      <trkpt lat="47.55946" lon="-2.30314">
        <ele>35.9</ele>
        <time>2025-01-16T11:25:45Z</time>
      </trkpt>
      <trkpt lat="47.55946" lon="-2.30314">
        <ele>35.9</ele>
        <time>2025-01-16T11:25:46Z</time>
      </trkpt>
      <trkpt lat="47.55946" lon="-2.30314">
        <ele>35.9</ele>
        <time>2025-01-16T11:25:47Z</time>
      </trkpt>
      <trkpt lat="47.55946" lon="-2.30314">
        <ele>35.9</ele>
        <time>2025-01-16T11:25:48Z</time>
      </trkpt>
      <trkpt lat="47.55946" lon="-2.30314">
        <ele>35.9</ele>
        <time>2025-01-16T11:25:49Z</time>
      </trkpt>
      <trkpt lat="47.55946" lon="-2.30314">
        <ele>35.9</ele>
        <time>2025-01-16T11:25:50Z</time>
      </trkpt>
      <trkpt lat="47.55946" lon="-2.30315">
        <ele>36</ele>
        <time>2025-01-16T11:25:51Z</time>
      </trkpt>
      <trkpt lat="47.55946" lon="-2.30315">
        <ele>36</ele>
        <time>2025-01-16T11:25:52Z</time>
      </trkpt>
      <trkpt lat="47.55946" lon="-2.30315">
        <ele>36</ele>
        <time>2025-01-16T11:25:53Z</time>
      </trkpt>
      <trkpt lat="47.55946" lon="-2.30315">
        <ele>36</ele>
        <time>2025-01-16T11:25:54Z</time>
      </trkpt>
      <trkpt lat="47.55946" lon="-2.30315">
        <ele>36</ele>
        <time>2025-01-16T11:25:55Z</time>
      </trkpt>
      <trkpt lat="47.55946" lon="-2.30315">
        <ele>36</ele>
        <time>2025-01-16T11:25:56Z</time>
      </trkpt>
      <trkpt lat="47.55946" lon="-2.30315">
        <ele>36</ele>
        <time>2025-01-16T11:25:57Z</time>
      </trkpt>
      <trkpt lat="47.55946" lon="-2.30315">
        <ele>36</ele>
        <time>2025-01-16T11:25:58Z</time>
      </trkpt>
      <trkpt lat="47.55946" lon="-2.30315">
        <ele>36</ele>
        <time>2025-01-16T11:25:59Z</time>
      </trkpt>
      <trkpt lat="47.55946" lon="-2.30315">
        <ele>36</ele>
        <time>2025-01-16T11:26:00Z</time>
      </trkpt>
      <trkpt lat="47.55946" lon="-2.30315">
        <ele>36</ele>
        <time>2025-01-16T11:26:01Z</time>
      </trkpt>
      <trkpt lat="47.55946" lon="-2.30315">
        <ele>36</ele>
        <time>2025-01-16T11:26:02Z</time>
      </trkpt>
      <trkpt lat="47.55946" lon="-2.30316">
        <ele>36.1</ele>
        <time>2025-01-16T11:26:03Z</time>
      </trkpt>
      <trkpt lat="47.55946" lon="-2.30316">
        <ele>36.1</ele>
        <time>2025-01-16T11:26:04Z</time>
      </trkpt>
      <trkpt lat="47.55946" lon="-2.30316">
        <ele>36.1</ele>
        <time>2025-01-16T11:26:05Z</time>
      </trkpt>
      <trkpt lat="47.55946" lon="-2.30315">
        <ele>36</ele>
        <time>2025-01-16T11:26:06Z</time>
      </trkpt>
      <trkpt lat="47.55946" lon="-2.30315">
        <ele>36</ele>
        <time>2025-01-16T11:26:07Z</time>
      </trkpt>
      <trkpt lat="47.55946" lon="-2.30315">
        <ele>36</ele>
        <time>2025-01-16T11:26:08Z</time>
      </trkpt>
      <trkpt lat="47.55946" lon="-2.30315">
        <ele>36</ele>
        <time>2025-01-16T11:26:09Z</time>
      </trkpt>
      <trkpt lat="47.55946" lon="-2.30315">
        <ele>36</ele>
        <time>2025-01-16T11:26:10Z</time>
      </trkpt>
      <trkpt lat="47.55946" lon="-2.30315">
        <ele>36</ele>
        <time>2025-01-16T11:26:11Z</time>
      </trkpt>
      <trkpt lat="47.55946" lon="-2.30315">
        <ele>36</ele>
        <time>2025-01-16T11:26:12Z</time>
      </trkpt>
      <trkpt lat="47.55946" lon="-2.30314">
        <ele>35.9</ele>
        <time>2025-01-16T11:26:13Z</time>
      </trkpt>
      <trkpt lat="47.55946" lon="-2.30314">
        <ele>35.9</ele>
        <time>2025-01-16T11:26:14Z</time>
      </trkpt>
      <trkpt lat="47.55946" lon="-2.30314">
        <ele>35.9</ele>
        <time>2025-01-16T11:26:15Z</time>
      </trkpt>
      <trkpt lat="47.55946" lon="-2.30314">
        <ele>35.9</ele>
        <time>2025-01-16T11:26:16Z</time>
      </trkpt>
      <trkpt lat="47.55946" lon="-2.30314">
        <ele>35.9</ele>
        <time>2025-01-16T11:26:17Z</time>
      </trkpt>
      <trkpt lat="47.55946" lon="-2.30314">
        <ele>35.9</ele>
        <time>2025-01-16T11:26:18Z</time>
      </trkpt>
      <trkpt lat="47.55946" lon="-2.30314">
        <ele>35.9</ele>
        <time>2025-01-16T11:26:19Z</time>
      </trkpt>
      <trkpt lat="47.55946" lon="-2.30314">
        <ele>35.9</ele>
        <time>2025-01-16T11:26:20Z</time>
      </trkpt>
      <trkpt lat="47.55946" lon="-2.30314">
        <ele>35.9</ele>
        <time>2025-01-16T11:26:21Z</time>
      </trkpt>
      <trkpt lat="47.55946" lon="-2.30314">
        <ele>35.9</ele>
        <time>2025-01-16T11:26:22Z</time>
      </trkpt>
      <trkpt lat="47.55946" lon="-2.30314">
        <ele>35.9</ele>
        <time>2025-01-16T11:26:23Z</time>
      </trkpt>
      <trkpt lat="47.55946" lon="-2.30314">
        <ele>35.9</ele>
        <time>2025-01-16T11:26:24Z</time>
      </trkpt>
      <trkpt lat="47.55946" lon="-2.30314">
        <ele>35.9</ele>
        <time>2025-01-16T11:26:25Z</time>
      </trkpt>
      <trkpt lat="47.55946" lon="-2.30314">
        <ele>35.9</ele>
        <time>2025-01-16T11:26:26Z</time>
      </trkpt>
      <trkpt lat="47.55946" lon="-2.30314">
        <ele>35.9</ele>
        <time>2025-01-16T11:26:27Z</time>
      </trkpt>
      <trkpt lat="47.55946" lon="-2.30314">
        <ele>35.9</ele>
        <time>2025-01-16T11:26:28Z</time>
      </trkpt>
      <trkpt lat="47.55946" lon="-2.30314">
        <ele>35.9</ele>
        <time>2025-01-16T11:26:29Z</time>
      </trkpt>
      <trkpt lat="47.55946" lon="-2.30314">
        <ele>35.9</ele>
        <time>2025-01-16T11:26:30Z</time>
      </trkpt>
      <trkpt lat="47.55946" lon="-2.30314">
        <ele>35.9</ele>
        <time>2025-01-16T11:26:31Z</time>
      </trkpt>
      <trkpt lat="47.55946" lon="-2.30314">
        <ele>35.9</ele>
        <time>2025-01-16T11:26:32Z</time>
      </trkpt>
      <trkpt lat="47.55946" lon="-2.30314">
        <ele>35.9</ele>
        <time>2025-01-16T11:26:33Z</time>
      </trkpt>
      <trkpt lat="47.55946" lon="-2.30314">
        <ele>35.9</ele>
        <time>2025-01-16T11:26:34Z</time>
      </trkpt>
      <trkpt lat="47.55946" lon="-2.30314">
        <ele>35.9</ele>
        <time>2025-01-16T11:26:35Z</time>
      </trkpt>
      <trkpt lat="47.55946" lon="-2.30314">
        <ele>35.9</ele>
        <time>2025-01-16T11:26:36Z</time>
      </trkpt>
      <trkpt lat="47.55946" lon="-2.30314">
        <ele>35.9</ele>
        <time>2025-01-16T11:26:37Z</time>
      </trkpt>
      <trkpt lat="47.55946" lon="-2.30314">
        <ele>35.9</ele>
        <time>2025-01-16T11:26:38Z</time>
      </trkpt>
      <trkpt lat="47.55946" lon="-2.30314">
        <ele>35.9</ele>
        <time>2025-01-16T11:26:39Z</time>
      </trkpt>
      <trkpt lat="47.55946" lon="-2.30314">
        <ele>35.9</ele>
        <time>2025-01-16T11:26:40Z</time>
      </trkpt>
      <trkpt lat="47.55946" lon="-2.30314">
        <ele>35.9</ele>
        <time>2025-01-16T11:26:41Z</time>
      </trkpt>
      <trkpt lat="47.55946" lon="-2.30314">
        <ele>35.9</ele>
        <time>2025-01-16T11:26:42Z</time>
      </trkpt>
      <trkpt lat="47.55946" lon="-2.30314">
        <ele>35.9</ele>
        <time>2025-01-16T11:26:43Z</time>
      </trkpt>
      <trkpt lat="47.55946" lon="-2.30314">
        <ele>35.9</ele>
        <time>2025-01-16T11:26:44Z</time>
      </trkpt>
      <trkpt lat="47.55946" lon="-2.30314">
        <ele>35.9</ele>
        <time>2025-01-16T11:26:45Z</time>
      </trkpt>
      <trkpt lat="47.55946" lon="-2.30314">
        <ele>35.9</ele>
        <time>2025-01-16T11:26:46Z</time>
      </trkpt>
      <trkpt lat="47.55946" lon="-2.30314">
        <ele>35.9</ele>
        <time>2025-01-16T11:26:47Z</time>
      </trkpt>
      <trkpt lat="47.55946" lon="-2.30314">
        <ele>35.9</ele>
        <time>2025-01-16T11:26:48Z</time>
      </trkpt>
      <trkpt lat="47.55946" lon="-2.30314">
        <ele>35.9</ele>
        <time>2025-01-16T11:26:49Z</time>
      </trkpt>
      <trkpt lat="47.55946" lon="-2.30314">
        <ele>35.9</ele>
        <time>2025-01-16T11:26:50Z</time>
      </trkpt>
      <trkpt lat="47.55946" lon="-2.30314">
        <ele>35.9</ele>
        <time>2025-01-16T11:26:51Z</time>
      </trkpt>
      <trkpt lat="47.55946" lon="-2.30314">
        <ele>35.9</ele>
        <time>2025-01-16T11:26:52Z</time>
      </trkpt>
      <trkpt lat="47.55946" lon="-2.30315">
        <ele>36</ele>
        <time>2025-01-16T11:26:53Z</time>
      </trkpt>
      <trkpt lat="47.55945" lon="-2.30315">
        <ele>36</ele>
        <time>2025-01-16T11:26:54Z</time>
      </trkpt>
      <trkpt lat="47.55945" lon="-2.30314">
        <ele>35.9</ele>
        <time>2025-01-16T11:26:55Z</time>
      </trkpt>
      <trkpt lat="47.55946" lon="-2.30314">
        <ele>35.9</ele>
        <time>2025-01-16T11:26:56Z</time>
      </trkpt>
      <trkpt lat="47.55946" lon="-2.30314">
        <ele>35.9</ele>
        <time>2025-01-16T11:26:57Z</time>
      </trkpt>
      <trkpt lat="47.55946" lon="-2.30314">
        <ele>35.9</ele>
        <time>2025-01-16T11:26:58Z</time>
      </trkpt>
      <trkpt lat="47.55947" lon="-2.30314">
        <ele>35.8</ele>
        <time>2025-01-16T11:26:59Z</time>
      </trkpt>
      <trkpt lat="47.55947" lon="-2.30314">
        <ele>35.8</ele>
        <time>2025-01-16T11:27:00Z</time>
      </trkpt>
      <trkpt lat="47.55947" lon="-2.30313">
        <ele>35.7</ele>
        <time>2025-01-16T11:27:01Z</time>
      </trkpt>
      <trkpt lat="47.55948" lon="-2.30313">
        <ele>35.7</ele>
        <time>2025-01-16T11:27:02Z</time>
      </trkpt>
      <trkpt lat="47.55948" lon="-2.30312">
        <ele>35.6</ele>
        <time>2025-01-16T11:27:03Z</time>
      </trkpt>
      <trkpt lat="47.55948" lon="-2.30312">
        <ele>35.6</ele>
        <time>2025-01-16T11:27:04Z</time>
      </trkpt>
      <trkpt lat="47.55948" lon="-2.30312">
        <ele>35.6</ele>
        <time>2025-01-16T11:27:05Z</time>
      </trkpt>
      <trkpt lat="47.55948" lon="-2.30312">
        <ele>35.6</ele>
        <time>2025-01-16T11:27:06Z</time>
      </trkpt>
      <trkpt lat="47.55949" lon="-2.30312">
        <ele>35.6</ele>
        <time>2025-01-16T11:27:07Z</time>
      </trkpt>
      <trkpt lat="47.55949" lon="-2.30312">
        <ele>35.6</ele>
        <time>2025-01-16T11:27:08Z</time>
      </trkpt>
      <trkpt lat="47.55949" lon="-2.30312">
        <ele>35.6</ele>
        <time>2025-01-16T11:27:09Z</time>
      </trkpt>
      <trkpt lat="47.55948" lon="-2.30312">
        <ele>35.6</ele>
        <time>2025-01-16T11:27:10Z</time>
      </trkpt>
      <trkpt lat="47.55948" lon="-2.30312">
        <ele>35.6</ele>
        <time>2025-01-16T11:27:11Z</time>
      </trkpt>
      <trkpt lat="47.55949" lon="-2.30312">
        <ele>35.6</ele>
        <time>2025-01-16T11:27:12Z</time>
      </trkpt>
      <trkpt lat="47.55949" lon="-2.30312">
        <ele>35.6</ele>
        <time>2025-01-16T11:27:13Z</time>
      </trkpt>
      <trkpt lat="47.55949" lon="-2.30312">
        <ele>35.6</ele>
        <time>2025-01-16T11:27:14Z</time>
      </trkpt>
      <trkpt lat="47.55949" lon="-2.30312">
        <ele>35.6</ele>
        <time>2025-01-16T11:27:15Z</time>
      </trkpt>
      <trkpt lat="47.55949" lon="-2.30312">
        <ele>35.6</ele>
        <time>2025-01-16T11:27:16Z</time>
      </trkpt>
      <trkpt lat="47.55949" lon="-2.30312">
        <ele>35.6</ele>
        <time>2025-01-16T11:27:17Z</time>
      </trkpt>
      <trkpt lat="47.55949" lon="-2.30312">
        <ele>35.6</ele>
        <time>2025-01-16T11:27:18Z</time>
      </trkpt>
      <trkpt lat="47.55949" lon="-2.30312">
        <ele>35.6</ele>
        <time>2025-01-16T11:27:19Z</time>
      </trkpt>
      <trkpt lat="47.55949" lon="-2.30312">
        <ele>35.6</ele>
        <time>2025-01-16T11:27:20Z</time>
      </trkpt>
      <trkpt lat="47.55949" lon="-2.30312">
        <ele>35.6</ele>
        <time>2025-01-16T11:27:21Z</time>
      </trkpt>
      <trkpt lat="47.55949" lon="-2.30312">
        <ele>35.6</ele>
        <time>2025-01-16T11:27:22Z</time>
      </trkpt>
      <trkpt lat="47.55949" lon="-2.30312">
        <ele>35.6</ele>
        <time>2025-01-16T11:27:23Z</time>
      </trkpt>
      <trkpt lat="47.55949" lon="-2.30312">
        <ele>35.6</ele>
        <time>2025-01-16T11:27:24Z</time>
      </trkpt>
      <trkpt lat="47.55949" lon="-2.30312">
        <ele>35.6</ele>
        <time>2025-01-16T11:27:25Z</time>
      </trkpt>
      <trkpt lat="47.55949" lon="-2.30312">
        <ele>35.6</ele>
        <time>2025-01-16T11:27:26Z</time>
      </trkpt>
      <trkpt lat="47.55949" lon="-2.30312">
        <ele>35.6</ele>
        <time>2025-01-16T11:27:27Z</time>
      </trkpt>
      <trkpt lat="47.55949" lon="-2.30312">
        <ele>35.6</ele>
        <time>2025-01-16T11:27:28Z</time>
      </trkpt>
      <trkpt lat="47.55949" lon="-2.30312">
        <ele>35.6</ele>
        <time>2025-01-16T11:27:29Z</time>
      </trkpt>
      <trkpt lat="47.55949" lon="-2.30312">
        <ele>35.6</ele>
        <time>2025-01-16T11:27:30Z</time>
      </trkpt>
      <trkpt lat="47.55949" lon="-2.30312">
        <ele>35.6</ele>
        <time>2025-01-16T11:27:31Z</time>
      </trkpt>
      <trkpt lat="47.55948" lon="-2.30312">
        <ele>35.6</ele>
        <time>2025-01-16T11:27:32Z</time>
      </trkpt>
      <trkpt lat="47.55948" lon="-2.30312">
        <ele>35.6</ele>
        <time>2025-01-16T11:27:33Z</time>
      </trkpt>
      <trkpt lat="47.55947" lon="-2.30312">
        <ele>35.6</ele>
        <time>2025-01-16T11:27:34Z</time>
      </trkpt>
      <trkpt lat="47.55947" lon="-2.30312">
        <ele>35.6</ele>
        <time>2025-01-16T11:27:35Z</time>
      </trkpt>
      <trkpt lat="47.55946" lon="-2.30312">
        <ele>35.7</ele>
        <time>2025-01-16T11:27:36Z</time>
      </trkpt>
      <trkpt lat="47.55946" lon="-2.30312">
        <ele>35.7</ele>
        <time>2025-01-16T11:27:37Z</time>
      </trkpt>
      <trkpt lat="47.55946" lon="-2.30312">
        <ele>35.7</ele>
        <time>2025-01-16T11:27:38Z</time>
      </trkpt>
      <trkpt lat="47.55946" lon="-2.30312">
        <ele>35.7</ele>
        <time>2025-01-16T11:27:39Z</time>
      </trkpt>
      <trkpt lat="47.55946" lon="-2.30313">
        <ele>35.8</ele>
        <time>2025-01-16T11:27:40Z</time>
      </trkpt>
      <trkpt lat="47.55947" lon="-2.30313">
        <ele>35.7</ele>
        <time>2025-01-16T11:27:41Z</time>
      </trkpt>
      <trkpt lat="47.55947" lon="-2.30313">
        <ele>35.7</ele>
        <time>2025-01-16T11:27:42Z</time>
      </trkpt>
      <trkpt lat="47.55947" lon="-2.30313">
        <ele>35.7</ele>
        <time>2025-01-16T11:27:43Z</time>
      </trkpt>
      <trkpt lat="47.55947" lon="-2.30313">
        <ele>35.7</ele>
        <time>2025-01-16T11:27:44Z</time>
      </trkpt>
      <trkpt lat="47.55947" lon="-2.30313">
        <ele>35.7</ele>
        <time>2025-01-16T11:27:45Z</time>
      </trkpt>
      <trkpt lat="47.55947" lon="-2.30314">
        <ele>35.8</ele>
        <time>2025-01-16T11:27:46Z</time>
      </trkpt>
      <trkpt lat="47.55947" lon="-2.30314">
        <ele>35.8</ele>
        <time>2025-01-16T11:27:47Z</time>
      </trkpt>
      <trkpt lat="47.55947" lon="-2.30315">
        <ele>36</ele>
        <time>2025-01-16T11:27:48Z</time>
      </trkpt>
      <trkpt lat="47.55947" lon="-2.30315">
        <ele>36</ele>
        <time>2025-01-16T11:27:49Z</time>
      </trkpt>
      <trkpt lat="47.55947" lon="-2.30316">
        <ele>36.1</ele>
        <time>2025-01-16T11:27:50Z</time>
      </trkpt>
      <trkpt lat="47.55947" lon="-2.30316">
        <ele>36.1</ele>
        <time>2025-01-16T11:27:51Z</time>
      </trkpt>
      <trkpt lat="47.55947" lon="-2.30316">
        <ele>36.1</ele>
        <time>2025-01-16T11:27:52Z</time>
      </trkpt>
      <trkpt lat="47.55947" lon="-2.30316">
        <ele>36.1</ele>
        <time>2025-01-16T11:27:53Z</time>
      </trkpt>
      <trkpt lat="47.55947" lon="-2.30316">
        <ele>36.1</ele>
        <time>2025-01-16T11:27:54Z</time>
      </trkpt>
      <trkpt lat="47.55947" lon="-2.30316">
        <ele>36.1</ele>
        <time>2025-01-16T11:27:55Z</time>
      </trkpt>
      <trkpt lat="47.55948" lon="-2.30316">
        <ele>36</ele>
        <time>2025-01-16T11:27:56Z</time>
      </trkpt>
      <trkpt lat="47.55948" lon="-2.30316">
        <ele>36</ele>
        <time>2025-01-16T11:27:57Z</time>
      </trkpt>
      <trkpt lat="47.55948" lon="-2.30316">
        <ele>36</ele>
        <time>2025-01-16T11:27:58Z</time>
      </trkpt>
      <trkpt lat="47.55948" lon="-2.30316">
        <ele>36</ele>
        <time>2025-01-16T11:27:59Z</time>
      </trkpt>
      <trkpt lat="47.55948" lon="-2.30316">
        <ele>36</ele>
        <time>2025-01-16T11:28:00Z</time>
      </trkpt>
      <trkpt lat="47.55948" lon="-2.30316">
        <ele>36</ele>
        <time>2025-01-16T11:28:01Z</time>
      </trkpt>
      <trkpt lat="47.55948" lon="-2.30316">
        <ele>36</ele>
        <time>2025-01-16T11:28:02Z</time>
      </trkpt>
      <trkpt lat="47.55948" lon="-2.30316">
        <ele>36</ele>
        <time>2025-01-16T11:28:03Z</time>
      </trkpt>
      <trkpt lat="47.55948" lon="-2.30316">
        <ele>36</ele>
        <time>2025-01-16T11:28:04Z</time>
      </trkpt>
      <trkpt lat="47.55948" lon="-2.30316">
        <ele>36</ele>
        <time>2025-01-16T11:28:05Z</time>
      </trkpt>
      <trkpt lat="47.55948" lon="-2.30316">
        <ele>36</ele>
        <time>2025-01-16T11:28:06Z</time>
      </trkpt>
      <trkpt lat="47.55948" lon="-2.30316">
        <ele>36</ele>
        <time>2025-01-16T11:28:07Z</time>
      </trkpt>
      <trkpt lat="47.55948" lon="-2.30316">
        <ele>36</ele>
        <time>2025-01-16T11:28:08Z</time>
      </trkpt>
      <trkpt lat="47.55948" lon="-2.30316">
        <ele>36</ele>
        <time>2025-01-16T11:28:09Z</time>
      </trkpt>
      <trkpt lat="47.55948" lon="-2.30316">
        <ele>36</ele>
        <time>2025-01-16T11:28:10Z</time>
      </trkpt>
      <trkpt lat="47.55948" lon="-2.30316">
        <ele>36</ele>
        <time>2025-01-16T11:28:11Z</time>
      </trkpt>
      <trkpt lat="47.55948" lon="-2.30316">
        <ele>36</ele>
        <time>2025-01-16T11:28:12Z</time>
      </trkpt>
      <trkpt lat="47.55948" lon="-2.30316">
        <ele>36</ele>
        <time>2025-01-16T11:28:13Z</time>
      </trkpt>
      <trkpt lat="47.55948" lon="-2.30316">
        <ele>36</ele>
        <time>2025-01-16T11:28:14Z</time>
      </trkpt>
      <trkpt lat="47.55948" lon="-2.30316">
        <ele>36</ele>
        <time>2025-01-16T11:28:15Z</time>
      </trkpt>
      <trkpt lat="47.55948" lon="-2.30316">
        <ele>36</ele>
        <time>2025-01-16T11:28:16Z</time>
      </trkpt>
      <trkpt lat="47.55948" lon="-2.30316">
        <ele>36</ele>
        <time>2025-01-16T11:28:17Z</time>
      </trkpt>
      <trkpt lat="47.55948" lon="-2.30316">
        <ele>36</ele>
        <time>2025-01-16T11:28:18Z</time>
      </trkpt>
      <trkpt lat="47.55948" lon="-2.30316">
        <ele>36</ele>
        <time>2025-01-16T11:28:19Z</time>
      </trkpt>
      <trkpt lat="47.55948" lon="-2.30316">
        <ele>36</ele>
        <time>2025-01-16T11:28:20Z</time>
      </trkpt>
      <trkpt lat="47.55948" lon="-2.30316">
        <ele>36</ele>
        <time>2025-01-16T11:28:21Z</time>
      </trkpt>
      <trkpt lat="47.55948" lon="-2.30316">
        <ele>36</ele>
        <time>2025-01-16T11:28:22Z</time>
      </trkpt>
      <trkpt lat="47.55948" lon="-2.30316">
        <ele>36</ele>
        <time>2025-01-16T11:28:23Z</time>
      </trkpt>
      <trkpt lat="47.55948" lon="-2.30316">
        <ele>36</ele>
        <time>2025-01-16T11:28:24Z</time>
      </trkpt>
      <trkpt lat="47.55948" lon="-2.30316">
        <ele>36</ele>
        <time>2025-01-16T11:28:25Z</time>
      </trkpt>
      <trkpt lat="47.55948" lon="-2.30316">
        <ele>36</ele>
        <time>2025-01-16T11:28:26Z</time>
      </trkpt>
      <trkpt lat="47.55948" lon="-2.30316">
        <ele>36</ele>
        <time>2025-01-16T11:28:27Z</time>
      </trkpt>
      <trkpt lat="47.55948" lon="-2.30316">
        <ele>36</ele>
        <time>2025-01-16T11:28:28Z</time>
      </trkpt>
      <trkpt lat="47.55948" lon="-2.30316">
        <ele>36</ele>
        <time>2025-01-16T11:28:29Z</time>
      </trkpt>
      <trkpt lat="47.55948" lon="-2.30316">
        <ele>36</ele>
        <time>2025-01-16T11:28:30Z</time>
      </trkpt>
      <trkpt lat="47.55948" lon="-2.30316">
        <ele>36</ele>
        <time>2025-01-16T11:28:31Z</time>
      </trkpt>
      <trkpt lat="47.55948" lon="-2.30316">
        <ele>36</ele>
        <time>2025-01-16T11:28:32Z</time>
      </trkpt>
      <trkpt lat="47.55948" lon="-2.30316">
        <ele>36</ele>
        <time>2025-01-16T11:28:33Z</time>
      </trkpt>
      <trkpt lat="47.55948" lon="-2.30316">
        <ele>36</ele>
        <time>2025-01-16T11:28:34Z</time>
      </trkpt>
      <trkpt lat="47.55948" lon="-2.30316">
        <ele>36</ele>
        <time>2025-01-16T11:28:35Z</time>
      </trkpt>
      <trkpt lat="47.55948" lon="-2.30316">
        <ele>36</ele>
        <time>2025-01-16T11:28:36Z</time>
      </trkpt>
      <trkpt lat="47.55948" lon="-2.30316">
        <ele>36</ele>
        <time>2025-01-16T11:28:37Z</time>
      </trkpt>
      <trkpt lat="47.55948" lon="-2.30316">
        <ele>36</ele>
        <time>2025-01-16T11:28:38Z</time>
      </trkpt>
      <trkpt lat="47.55948" lon="-2.30316">
        <ele>36</ele>
        <time>2025-01-16T11:28:39Z</time>
      </trkpt>
      <trkpt lat="47.55948" lon="-2.30316">
        <ele>36</ele>
        <time>2025-01-16T11:28:40Z</time>
      </trkpt>
      <trkpt lat="47.55948" lon="-2.30316">
        <ele>36</ele>
        <time>2025-01-16T11:28:41Z</time>
      </trkpt>
      <trkpt lat="47.55948" lon="-2.30316">
        <ele>36</ele>
        <time>2025-01-16T11:28:42Z</time>
      </trkpt>
      <trkpt lat="47.55948" lon="-2.30316">
        <ele>36</ele>
        <time>2025-01-16T11:28:43Z</time>
      </trkpt>
      <trkpt lat="47.55948" lon="-2.30316">
        <ele>36</ele>
        <time>2025-01-16T11:28:44Z</time>
      </trkpt>
      <trkpt lat="47.55948" lon="-2.30316">
        <ele>36</ele>
        <time>2025-01-16T11:28:45Z</time>
      </trkpt>
      <trkpt lat="47.55948" lon="-2.30316">
        <ele>36</ele>
        <time>2025-01-16T11:28:46Z</time>
      </trkpt>
      <trkpt lat="47.55948" lon="-2.30316">
        <ele>36</ele>
        <time>2025-01-16T11:28:47Z</time>
      </trkpt>
      <trkpt lat="47.55948" lon="-2.30316">
        <ele>36</ele>
        <time>2025-01-16T11:28:48Z</time>
      </trkpt>
      <trkpt lat="47.55948" lon="-2.30316">
        <ele>36</ele>
        <time>2025-01-16T11:28:49Z</time>
      </trkpt>
      <trkpt lat="47.55948" lon="-2.30316">
        <ele>36</ele>
        <time>2025-01-16T11:28:50Z</time>
      </trkpt>
      <trkpt lat="47.55948" lon="-2.30316">
        <ele>36</ele>
        <time>2025-01-16T11:28:51Z</time>
      </trkpt>
      <trkpt lat="47.55948" lon="-2.30316">
        <ele>36</ele>
        <time>2025-01-16T11:28:52Z</time>
      </trkpt>
      <trkpt lat="47.55948" lon="-2.30316">
        <ele>36</ele>
        <time>2025-01-16T11:28:53Z</time>
      </trkpt>
      <trkpt lat="47.55948" lon="-2.30316">
        <ele>36</ele>
        <time>2025-01-16T11:28:54Z</time>
      </trkpt>
      <trkpt lat="47.55948" lon="-2.30316">
        <ele>36</ele>
        <time>2025-01-16T11:28:55Z</time>
      </trkpt>
      <trkpt lat="47.55948" lon="-2.30316">
        <ele>36</ele>
        <time>2025-01-16T11:28:56Z</time>
      </trkpt>
      <trkpt lat="47.55948" lon="-2.30316">
        <ele>36</ele>
        <time>2025-01-16T11:28:57Z</time>
      </trkpt>
      <trkpt lat="47.55948" lon="-2.30316">
        <ele>36</ele>
        <time>2025-01-16T11:28:58Z</time>
      </trkpt>
      <trkpt lat="47.55948" lon="-2.30316">
        <ele>36</ele>
        <time>2025-01-16T11:28:59Z</time>
      </trkpt>
      <trkpt lat="47.55948" lon="-2.30316">
        <ele>36</ele>
        <time>2025-01-16T11:29:00Z</time>
      </trkpt>
      <trkpt lat="47.55948" lon="-2.30316">
        <ele>36</ele>
        <time>2025-01-16T11:29:01Z</time>
      </trkpt>
      <trkpt lat="47.55948" lon="-2.30316">
        <ele>36</ele>
        <time>2025-01-16T11:29:02Z</time>
      </trkpt>
      <trkpt lat="47.55948" lon="-2.30316">
        <ele>36</ele>
        <time>2025-01-16T11:29:03Z</time>
      </trkpt>
      <trkpt lat="47.55948" lon="-2.30316">
        <ele>36</ele>
        <time>2025-01-16T11:29:04Z</time>
      </trkpt>
      <trkpt lat="47.55948" lon="-2.30316">
        <ele>36</ele>
        <time>2025-01-16T11:29:05Z</time>
      </trkpt>
      <trkpt lat="47.55948" lon="-2.30316">
        <ele>36</ele>
        <time>2025-01-16T11:29:06Z</time>
      </trkpt>
      <trkpt lat="47.55948" lon="-2.30316">
        <ele>36</ele>
        <time>2025-01-16T11:29:07Z</time>
      </trkpt>
      <trkpt lat="47.55948" lon="-2.30316">
        <ele>36</ele>
        <time>2025-01-16T11:29:08Z</time>
      </trkpt>
      <trkpt lat="47.55948" lon="-2.30316">
        <ele>36</ele>
        <time>2025-01-16T11:29:09Z</time>
      </trkpt>
      <trkpt lat="47.55948" lon="-2.30316">
        <ele>36</ele>
        <time>2025-01-16T11:29:10Z</time>
      </trkpt>
      <trkpt lat="47.55948" lon="-2.30316">
        <ele>36</ele>
        <time>2025-01-16T11:29:11Z</time>
      </trkpt>
      <trkpt lat="47.55948" lon="-2.30316">
        <ele>36</ele>
        <time>2025-01-16T11:29:12Z</time>
      </trkpt>
      <trkpt lat="47.55948" lon="-2.30316">
        <ele>36</ele>
        <time>2025-01-16T11:29:13Z</time>
      </trkpt>
      <trkpt lat="47.55948" lon="-2.30316">
        <ele>36</ele>
        <time>2025-01-16T11:29:14Z</time>
      </trkpt>
      <trkpt lat="47.55948" lon="-2.30316">
        <ele>36</ele>
        <time>2025-01-16T11:29:15Z</time>
      </trkpt>
      <trkpt lat="47.55948" lon="-2.30316">
        <ele>36</ele>
        <time>2025-01-16T11:29:16Z</time>
      </trkpt>
      <trkpt lat="47.55948" lon="-2.30316">
        <ele>36</ele>
        <time>2025-01-16T11:29:17Z</time>
      </trkpt>
      <trkpt lat="47.55948" lon="-2.30316">
        <ele>36</ele>
        <time>2025-01-16T11:29:18Z</time>
      </trkpt>
      <trkpt lat="47.55948" lon="-2.30316">
        <ele>36</ele>
        <time>2025-01-16T11:29:19Z</time>
      </trkpt>
      <trkpt lat="47.55948" lon="-2.30316">
        <ele>36</ele>
        <time>2025-01-16T11:29:20Z</time>
      </trkpt>
      <trkpt lat="47.55948" lon="-2.30316">
        <ele>36</ele>
        <time>2025-01-16T11:29:21Z</time>
      </trkpt>
      <trkpt lat="47.55948" lon="-2.30316">
        <ele>36</ele>
        <time>2025-01-16T11:29:22Z</time>
      </trkpt>
      <trkpt lat="47.55948" lon="-2.30316">
        <ele>36</ele>
        <time>2025-01-16T11:29:23Z</time>
      </trkpt>
      <trkpt lat="47.55948" lon="-2.30316">
        <ele>36</ele>
        <time>2025-01-16T11:29:24Z</time>
      </trkpt>
      <trkpt lat="47.55948" lon="-2.30316">
        <ele>36</ele>
        <time>2025-01-16T11:29:25Z</time>
      </trkpt>
      <trkpt lat="47.55948" lon="-2.30316">
        <ele>36</ele>
        <time>2025-01-16T11:29:26Z</time>
      </trkpt>
      <trkpt lat="47.55948" lon="-2.30316">
        <ele>36</ele>
        <time>2025-01-16T11:29:27Z</time>
      </trkpt>
      <trkpt lat="47.55948" lon="-2.30316">
        <ele>36</ele>
        <time>2025-01-16T11:29:28Z</time>
      </trkpt>
      <trkpt lat="47.55948" lon="-2.30316">
        <ele>36</ele>
        <time>2025-01-16T11:29:29Z</time>
      </trkpt>
      <trkpt lat="47.55948" lon="-2.30316">
        <ele>36</ele>
        <time>2025-01-16T11:29:30Z</time>
      </trkpt>
      <trkpt lat="47.55948" lon="-2.30316">
        <ele>36</ele>
        <time>2025-01-16T11:29:31Z</time>
      </trkpt>
      <trkpt lat="47.55948" lon="-2.30316">
        <ele>36</ele>
        <time>2025-01-16T11:29:32Z</time>
      </trkpt>
      <trkpt lat="47.55948" lon="-2.30316">
        <ele>36</ele>
        <time>2025-01-16T11:29:33Z</time>
      </trkpt>
      <trkpt lat="47.55948" lon="-2.30316">
        <ele>36</ele>
        <time>2025-01-16T11:29:34Z</time>
      </trkpt>
      <trkpt lat="47.55948" lon="-2.30316">
        <ele>36</ele>
        <time>2025-01-16T11:29:35Z</time>
      </trkpt>
      <trkpt lat="47.55948" lon="-2.30316">
        <ele>36</ele>
        <time>2025-01-16T11:29:36Z</time>
      </trkpt>
      <trkpt lat="47.55948" lon="-2.30316">
        <ele>36</ele>
        <time>2025-01-16T11:29:37Z</time>
      </trkpt>
      <trkpt lat="47.55948" lon="-2.30316">
        <ele>36</ele>
        <time>2025-01-16T11:29:38Z</time>
      </trkpt>
      <trkpt lat="47.55948" lon="-2.30316">
        <ele>36</ele>
        <time>2025-01-16T11:29:39Z</time>
      </trkpt>
      <trkpt lat="47.55948" lon="-2.30316">
        <ele>36</ele>
        <time>2025-01-16T11:29:40Z</time>
      </trkpt>
      <trkpt lat="47.55948" lon="-2.30316">
        <ele>36</ele>
        <time>2025-01-16T11:29:41Z</time>
      </trkpt>
      <trkpt lat="47.55948" lon="-2.30316">
        <ele>36</ele>
        <time>2025-01-16T11:29:42Z</time>
      </trkpt>
      <trkpt lat="47.55948" lon="-2.30316">
        <ele>36</ele>
        <time>2025-01-16T11:29:43Z</time>
      </trkpt>
      <trkpt lat="47.55948" lon="-2.30316">
        <ele>36</ele>
        <time>2025-01-16T11:29:44Z</time>
      </trkpt>
      <trkpt lat="47.55948" lon="-2.30316">
        <ele>36</ele>
        <time>2025-01-16T11:29:45Z</time>
      </trkpt>
      <trkpt lat="47.55948" lon="-2.30316">
        <ele>36</ele>
        <time>2025-01-16T11:29:46Z</time>
      </trkpt>
      <trkpt lat="47.55948" lon="-2.30316">
        <ele>36</ele>
        <time>2025-01-16T11:29:47Z</time>
      </trkpt>
      <trkpt lat="47.55948" lon="-2.30316">
        <ele>36</ele>
        <time>2025-01-16T11:29:48Z</time>
      </trkpt>
      <trkpt lat="47.55948" lon="-2.30316">
        <ele>36</ele>
        <time>2025-01-16T11:29:49Z</time>
      </trkpt>
      <trkpt lat="47.55948" lon="-2.30316">
        <ele>36</ele>
        <time>2025-01-16T11:29:50Z</time>
      </trkpt>
      <trkpt lat="47.55948" lon="-2.30316">
        <ele>36</ele>
        <time>2025-01-16T11:29:51Z</time>
      </trkpt>
      <trkpt lat="47.55948" lon="-2.30316">
        <ele>36</ele>
        <time>2025-01-16T11:29:52Z</time>
      </trkpt>
      <trkpt lat="47.55948" lon="-2.30316">
        <ele>36</ele>
        <time>2025-01-16T11:29:53Z</time>
      </trkpt>
      <trkpt lat="47.55948" lon="-2.30316">
        <ele>36</ele>
        <time>2025-01-16T11:29:54Z</time>
      </trkpt>
      <trkpt lat="47.55948" lon="-2.30316">
        <ele>36</ele>
        <time>2025-01-16T11:29:55Z</time>
      </trkpt>
      <trkpt lat="47.55948" lon="-2.30316">
        <ele>36</ele>
        <time>2025-01-16T11:29:56Z</time>
      </trkpt>
      <trkpt lat="47.55948" lon="-2.30316">
        <ele>36</ele>
        <time>2025-01-16T11:29:57Z</time>
      </trkpt>
      <trkpt lat="47.55948" lon="-2.30316">
        <ele>36</ele>
        <time>2025-01-16T11:29:58Z</time>
      </trkpt>
      <trkpt lat="47.55948" lon="-2.30316">
        <ele>36</ele>
        <time>2025-01-16T11:29:59Z</time>
      </trkpt>
      <trkpt lat="47.55948" lon="-2.30316">
        <ele>36</ele>
        <time>2025-01-16T11:30:00Z</time>
      </trkpt>
      <trkpt lat="47.55948" lon="-2.30316">
        <ele>36</ele>
        <time>2025-01-16T11:30:01Z</time>
      </trkpt>
      <trkpt lat="47.55948" lon="-2.30316">
        <ele>36</ele>
        <time>2025-01-16T11:30:02Z</time>
      </trkpt>
      <trkpt lat="47.55948" lon="-2.30316">
        <ele>36</ele>
        <time>2025-01-16T11:30:03Z</time>
      </trkpt>
      <trkpt lat="47.55948" lon="-2.30316">
        <ele>36</ele>
        <time>2025-01-16T11:30:04Z</time>
      </trkpt>
      <trkpt lat="47.55948" lon="-2.30316">
        <ele>36</ele>
        <time>2025-01-16T11:30:05Z</time>
      </trkpt>
      <trkpt lat="47.55947" lon="-2.30316">
        <ele>36.1</ele>
        <time>2025-01-16T11:30:06Z</time>
      </trkpt>
      <trkpt lat="47.55947" lon="-2.30316">
        <ele>36.1</ele>
        <time>2025-01-16T11:30:07Z</time>
      </trkpt>
      <trkpt lat="47.55947" lon="-2.30315">
        <ele>36</ele>
        <time>2025-01-16T11:30:08Z</time>
      </trkpt>
      <trkpt lat="47.55947" lon="-2.30315">
        <ele>36</ele>
        <time>2025-01-16T11:30:09Z</time>
      </trkpt>
      <trkpt lat="47.55947" lon="-2.30315">
        <ele>36</ele>
        <time>2025-01-16T11:30:10Z</time>
      </trkpt>
      <trkpt lat="47.55947" lon="-2.30315">
        <ele>36</ele>
        <time>2025-01-16T11:30:11Z</time>
      </trkpt>
      <trkpt lat="47.55947" lon="-2.30315">
        <ele>36</ele>
        <time>2025-01-16T11:30:12Z</time>
      </trkpt>
      <trkpt lat="47.55947" lon="-2.30315">
        <ele>36</ele>
        <time>2025-01-16T11:30:16Z</time>
      </trkpt>
      <trkpt lat="47.55947" lon="-2.30314">
        <ele>35.8</ele>
        <time>2025-01-16T11:30:17Z</time>
      </trkpt>
      <trkpt lat="47.55947" lon="-2.30314">
        <ele>35.8</ele>
        <time>2025-01-16T11:30:18Z</time>
      </trkpt>
      <trkpt lat="47.55947" lon="-2.30314">
        <ele>35.8</ele>
        <time>2025-01-16T11:30:19Z</time>
      </trkpt>
      <trkpt lat="47.55947" lon="-2.30314">
        <ele>35.8</ele>
        <time>2025-01-16T11:30:20Z</time>
      </trkpt>
      <trkpt lat="47.55947" lon="-2.30314">
        <ele>35.8</ele>
        <time>2025-01-16T11:30:21Z</time>
      </trkpt>
      <trkpt lat="47.55947" lon="-2.30314">
        <ele>35.8</ele>
        <time>2025-01-16T11:30:22Z</time>
      </trkpt>
      <trkpt lat="47.55947" lon="-2.30314">
        <ele>35.8</ele>
        <time>2025-01-16T11:30:23Z</time>
      </trkpt>
      <trkpt lat="47.55947" lon="-2.30314">
        <ele>35.8</ele>
        <time>2025-01-16T11:30:24Z</time>
      </trkpt>
      <trkpt lat="47.55947" lon="-2.30314">
        <ele>35.8</ele>
        <time>2025-01-16T11:30:25Z</time>
      </trkpt>
      <trkpt lat="47.55947" lon="-2.30314">
        <ele>35.8</ele>
        <time>2025-01-16T11:30:26Z</time>
      </trkpt>
      <trkpt lat="47.55947" lon="-2.30314">
        <ele>35.8</ele>
        <time>2025-01-16T11:30:27Z</time>
      </trkpt>
      <trkpt lat="47.55947" lon="-2.30314">
        <ele>35.8</ele>
        <time>2025-01-16T11:30:28Z</time>
      </trkpt>
      <trkpt lat="47.55947" lon="-2.30314">
        <ele>35.8</ele>
        <time>2025-01-16T11:30:29Z</time>
      </trkpt>
      <trkpt lat="47.55947" lon="-2.30314">
        <ele>35.8</ele>
        <time>2025-01-16T11:30:30Z</time>
      </trkpt>
      <trkpt lat="47.55947" lon="-2.30314">
        <ele>35.8</ele>
        <time>2025-01-16T11:30:31Z</time>
      </trkpt>
      <trkpt lat="47.55947" lon="-2.30314">
        <ele>35.8</ele>
        <time>2025-01-16T11:30:32Z</time>
      </trkpt>
      <trkpt lat="47.55947" lon="-2.30314">
        <ele>35.8</ele>
        <time>2025-01-16T11:30:33Z</time>
      </trkpt>
      <trkpt lat="47.55947" lon="-2.30314">
        <ele>35.8</ele>
        <time>2025-01-16T11:30:34Z</time>
      </trkpt>
      <trkpt lat="47.55947" lon="-2.30314">
        <ele>35.8</ele>
        <time>2025-01-16T11:30:35Z</time>
      </trkpt>
      <trkpt lat="47.55947" lon="-2.30314">
        <ele>35.8</ele>
        <time>2025-01-16T11:30:36Z</time>
      </trkpt>
      <trkpt lat="47.55947" lon="-2.30314">
        <ele>35.8</ele>
        <time>2025-01-16T11:30:37Z</time>
      </trkpt>
      <trkpt lat="47.55947" lon="-2.30314">
        <ele>35.8</ele>
        <time>2025-01-16T11:30:38Z</time>
      </trkpt>
      <trkpt lat="47.55947" lon="-2.30314">
        <ele>35.8</ele>
        <time>2025-01-16T11:30:39Z</time>
      </trkpt>
      <trkpt lat="47.55947" lon="-2.30314">
        <ele>35.8</ele>
        <time>2025-01-16T11:30:40Z</time>
      </trkpt>
      <trkpt lat="47.55947" lon="-2.30314">
        <ele>35.8</ele>
        <time>2025-01-16T11:30:41Z</time>
      </trkpt>
      <trkpt lat="47.55947" lon="-2.30314">
        <ele>35.8</ele>
        <time>2025-01-16T11:30:42Z</time>
      </trkpt>
      <trkpt lat="47.55947" lon="-2.30314">
        <ele>35.8</ele>
        <time>2025-01-16T11:30:43Z</time>
      </trkpt>
      <trkpt lat="47.55947" lon="-2.30314">
        <ele>35.8</ele>
        <time>2025-01-16T11:30:44Z</time>
      </trkpt>
      <trkpt lat="47.55947" lon="-2.30314">
        <ele>35.8</ele>
        <time>2025-01-16T11:30:45Z</time>
      </trkpt>
      <trkpt lat="47.55947" lon="-2.30314">
        <ele>35.8</ele>
        <time>2025-01-16T11:30:46Z</time>
      </trkpt>
      <trkpt lat="47.55947" lon="-2.30314">
        <ele>35.8</ele>
        <time>2025-01-16T11:30:47Z</time>
      </trkpt>
      <trkpt lat="47.55947" lon="-2.30315">
        <ele>36</ele>
        <time>2025-01-16T11:30:48Z</time>
      </trkpt>
      <trkpt lat="47.55947" lon="-2.30315">
        <ele>36</ele>
        <time>2025-01-16T11:30:49Z</time>
      </trkpt>
      <trkpt lat="47.55947" lon="-2.30315">
        <ele>36</ele>
        <time>2025-01-16T11:30:50Z</time>
      </trkpt>
      <trkpt lat="47.55947" lon="-2.30315">
        <ele>36</ele>
        <time>2025-01-16T11:30:51Z</time>
      </trkpt>
      <trkpt lat="47.55947" lon="-2.30316">
        <ele>36.1</ele>
        <time>2025-01-16T11:30:52Z</time>
      </trkpt>
      <trkpt lat="47.55947" lon="-2.30316">
        <ele>36.1</ele>
        <time>2025-01-16T11:30:53Z</time>
      </trkpt>
      <trkpt lat="47.55948" lon="-2.30316">
        <ele>36</ele>
        <time>2025-01-16T11:30:56Z</time>
      </trkpt>
      <trkpt lat="47.55948" lon="-2.30317">
        <ele>36.2</ele>
        <time>2025-01-16T11:30:58Z</time>
      </trkpt>
      <trkpt lat="47.55948" lon="-2.30317">
        <ele>36.2</ele>
        <time>2025-01-16T11:30:59Z</time>
      </trkpt>
      <trkpt lat="47.55948" lon="-2.30317">
        <ele>36.2</ele>
        <time>2025-01-16T11:31:00Z</time>
      </trkpt>
      <trkpt lat="47.55948" lon="-2.30318">
        <ele>36.3</ele>
        <time>2025-01-16T11:31:01Z</time>
      </trkpt>
      <trkpt lat="47.55948" lon="-2.30318">
        <ele>36.3</ele>
        <time>2025-01-16T11:31:02Z</time>
      </trkpt>
      <trkpt lat="47.55947" lon="-2.30318">
        <ele>36.3</ele>
        <time>2025-01-16T11:31:03Z</time>
      </trkpt>
      <trkpt lat="47.55947" lon="-2.30318">
        <ele>36.3</ele>
        <time>2025-01-16T11:31:04Z</time>
      </trkpt>
      <trkpt lat="47.55947" lon="-2.30318">
        <ele>36.3</ele>
        <time>2025-01-16T11:31:05Z</time>
      </trkpt>
      <trkpt lat="47.55947" lon="-2.30318">
        <ele>36.3</ele>
        <time>2025-01-16T11:31:06Z</time>
      </trkpt>
      <trkpt lat="47.55947" lon="-2.30318">
        <ele>36.3</ele>
        <time>2025-01-16T11:31:07Z</time>
      </trkpt>
      <trkpt lat="47.55947" lon="-2.30318">
        <ele>36.3</ele>
        <time>2025-01-16T11:31:08Z</time>
      </trkpt>
      <trkpt lat="47.55947" lon="-2.30318">
        <ele>36.3</ele>
        <time>2025-01-16T11:31:09Z</time>
      </trkpt>
      <trkpt lat="47.55947" lon="-2.30318">
        <ele>36.3</ele>
        <time>2025-01-16T11:31:10Z</time>
      </trkpt>
      <trkpt lat="47.55947" lon="-2.30318">
        <ele>36.3</ele>
        <time>2025-01-16T11:31:11Z</time>
      </trkpt>
      <trkpt lat="47.55947" lon="-2.30318">
        <ele>36.3</ele>
        <time>2025-01-16T11:31:12Z</time>
      </trkpt>
      <trkpt lat="47.55947" lon="-2.30318">
        <ele>36.3</ele>
        <time>2025-01-16T11:31:13Z</time>
      </trkpt>
      <trkpt lat="47.55947" lon="-2.30318">
        <ele>36.3</ele>
        <time>2025-01-16T11:31:14Z</time>
      </trkpt>
      <trkpt lat="47.55947" lon="-2.30318">
        <ele>36.3</ele>
        <time>2025-01-16T11:31:15Z</time>
      </trkpt>
      <trkpt lat="47.55947" lon="-2.30318">
        <ele>36.3</ele>
        <time>2025-01-16T11:31:16Z</time>
      </trkpt>
      <trkpt lat="47.55947" lon="-2.30318">
        <ele>36.3</ele>
        <time>2025-01-16T11:31:17Z</time>
      </trkpt>
      <trkpt lat="47.55947" lon="-2.30318">
        <ele>36.3</ele>
        <time>2025-01-16T11:31:18Z</time>
      </trkpt>
      <trkpt lat="47.55947" lon="-2.30318">
        <ele>36.3</ele>
        <time>2025-01-16T11:31:19Z</time>
      </trkpt>
      <trkpt lat="47.55947" lon="-2.30318">
        <ele>36.3</ele>
        <time>2025-01-16T11:31:20Z</time>
      </trkpt>
      <trkpt lat="47.55947" lon="-2.30318">
        <ele>36.3</ele>
        <time>2025-01-16T11:31:21Z</time>
      </trkpt>
      <trkpt lat="47.55948" lon="-2.30317">
        <ele>36.2</ele>
        <time>2025-01-16T11:31:22Z</time>
      </trkpt>
      <trkpt lat="47.55948" lon="-2.30317">
        <ele>36.2</ele>
        <time>2025-01-16T11:31:23Z</time>
      </trkpt>
      <trkpt lat="47.55948" lon="-2.30317">
        <ele>36.2</ele>
        <time>2025-01-16T11:31:24Z</time>
      </trkpt>
      <trkpt lat="47.55948" lon="-2.30317">
        <ele>36.2</ele>
        <time>2025-01-16T11:31:25Z</time>
      </trkpt>
      <trkpt lat="47.55949" lon="-2.30316">
        <ele>36</ele>
        <time>2025-01-16T11:31:26Z</time>
      </trkpt>
      <trkpt lat="47.55949" lon="-2.30316">
        <ele>36</ele>
        <time>2025-01-16T11:31:27Z</time>
      </trkpt>
      <trkpt lat="47.55949" lon="-2.30316">
        <ele>36</ele>
        <time>2025-01-16T11:31:28Z</time>
      </trkpt>
      <trkpt lat="47.55949" lon="-2.30316">
        <ele>36</ele>
        <time>2025-01-16T11:31:29Z</time>
      </trkpt>
      <trkpt lat="47.55949" lon="-2.30315">
        <ele>35.9</ele>
        <time>2025-01-16T11:31:30Z</time>
      </trkpt>
      <trkpt lat="47.55948" lon="-2.30315">
        <ele>35.9</ele>
        <time>2025-01-16T11:31:31Z</time>
      </trkpt>
      <trkpt lat="47.55948" lon="-2.30315">
        <ele>35.9</ele>
        <time>2025-01-16T11:31:32Z</time>
      </trkpt>
      <trkpt lat="47.55948" lon="-2.30315">
        <ele>35.9</ele>
        <time>2025-01-16T11:31:33Z</time>
      </trkpt>
      <trkpt lat="47.55948" lon="-2.30315">
        <ele>35.9</ele>
        <time>2025-01-16T11:31:34Z</time>
      </trkpt>
      <trkpt lat="47.55948" lon="-2.30315">
        <ele>35.9</ele>
        <time>2025-01-16T11:31:35Z</time>
      </trkpt>
      <trkpt lat="47.55948" lon="-2.30315">
        <ele>35.9</ele>
        <time>2025-01-16T11:31:36Z</time>
      </trkpt>
      <trkpt lat="47.55948" lon="-2.30315">
        <ele>35.9</ele>
        <time>2025-01-16T11:31:37Z</time>
      </trkpt>
      <trkpt lat="47.55948" lon="-2.30315">
        <ele>35.9</ele>
        <time>2025-01-16T11:31:38Z</time>
      </trkpt>
      <trkpt lat="47.55948" lon="-2.30315">
        <ele>35.9</ele>
        <time>2025-01-16T11:31:39Z</time>
      </trkpt>
      <trkpt lat="47.55948" lon="-2.30315">
        <ele>35.9</ele>
        <time>2025-01-16T11:31:40Z</time>
      </trkpt>
      <trkpt lat="47.55948" lon="-2.30315">
        <ele>35.9</ele>
        <time>2025-01-16T11:31:41Z</time>
      </trkpt>
      <trkpt lat="47.55948" lon="-2.30315">
        <ele>35.9</ele>
        <time>2025-01-16T11:31:42Z</time>
      </trkpt>
      <trkpt lat="47.55948" lon="-2.30315">
        <ele>35.9</ele>
        <time>2025-01-16T11:31:43Z</time>
      </trkpt>
      <trkpt lat="47.55948" lon="-2.30315">
        <ele>35.9</ele>
        <time>2025-01-16T11:31:44Z</time>
      </trkpt>
      <trkpt lat="47.55948" lon="-2.30315">
        <ele>35.9</ele>
        <time>2025-01-16T11:31:45Z</time>
      </trkpt>
      <trkpt lat="47.55948" lon="-2.30315">
        <ele>35.9</ele>
        <time>2025-01-16T11:31:46Z</time>
      </trkpt>
      <trkpt lat="47.55948" lon="-2.30315">
        <ele>35.9</ele>
        <time>2025-01-16T11:31:47Z</time>
      </trkpt>
      <trkpt lat="47.55948" lon="-2.30315">
        <ele>35.9</ele>
        <time>2025-01-16T11:31:48Z</time>
      </trkpt>
      <trkpt lat="47.55948" lon="-2.30315">
        <ele>35.9</ele>
        <time>2025-01-16T11:31:49Z</time>
      </trkpt>
      <trkpt lat="47.55948" lon="-2.30315">
        <ele>35.9</ele>
        <time>2025-01-16T11:31:50Z</time>
      </trkpt>
      <trkpt lat="47.55948" lon="-2.30315">
        <ele>35.9</ele>
        <time>2025-01-16T11:31:51Z</time>
      </trkpt>
      <trkpt lat="47.55948" lon="-2.30315">
        <ele>35.9</ele>
        <time>2025-01-16T11:31:52Z</time>
      </trkpt>
      <trkpt lat="47.55948" lon="-2.30315">
        <ele>35.9</ele>
        <time>2025-01-16T11:31:53Z</time>
      </trkpt>
      <trkpt lat="47.55948" lon="-2.30315">
        <ele>35.9</ele>
        <time>2025-01-16T11:31:54Z</time>
      </trkpt>
      <trkpt lat="47.55948" lon="-2.30315">
        <ele>35.9</ele>
        <time>2025-01-16T11:31:55Z</time>
      </trkpt>
      <trkpt lat="47.55948" lon="-2.30315">
        <ele>35.9</ele>
        <time>2025-01-16T11:31:56Z</time>
      </trkpt>
      <trkpt lat="47.55948" lon="-2.30315">
        <ele>35.9</ele>
        <time>2025-01-16T11:31:57Z</time>
      </trkpt>
      <trkpt lat="47.55948" lon="-2.30315">
        <ele>35.9</ele>
        <time>2025-01-16T11:31:58Z</time>
      </trkpt>
      <trkpt lat="47.55948" lon="-2.30315">
        <ele>35.9</ele>
        <time>2025-01-16T11:31:59Z</time>
      </trkpt>
      <trkpt lat="47.55948" lon="-2.30315">
        <ele>35.9</ele>
        <time>2025-01-16T11:32:00Z</time>
      </trkpt>
      <trkpt lat="47.55948" lon="-2.30315">
        <ele>35.9</ele>
        <time>2025-01-16T11:32:01Z</time>
      </trkpt>
      <trkpt lat="47.55948" lon="-2.30315">
        <ele>35.9</ele>
        <time>2025-01-16T11:32:02Z</time>
      </trkpt>
      <trkpt lat="47.55948" lon="-2.30315">
        <ele>35.9</ele>
        <time>2025-01-16T11:32:03Z</time>
      </trkpt>
      <trkpt lat="47.55948" lon="-2.30315">
        <ele>35.9</ele>
        <time>2025-01-16T11:32:04Z</time>
      </trkpt>
      <trkpt lat="47.55948" lon="-2.30315">
        <ele>35.9</ele>
        <time>2025-01-16T11:32:05Z</time>
      </trkpt>
      <trkpt lat="47.55948" lon="-2.30315">
        <ele>35.9</ele>
        <time>2025-01-16T11:32:06Z</time>
      </trkpt>
      <trkpt lat="47.55948" lon="-2.30315">
        <ele>35.9</ele>
        <time>2025-01-16T11:32:07Z</time>
      </trkpt>
      <trkpt lat="47.55948" lon="-2.30315">
        <ele>35.9</ele>
        <time>2025-01-16T11:32:08Z</time>
      </trkpt>
      <trkpt lat="47.55948" lon="-2.30315">
        <ele>35.9</ele>
        <time>2025-01-16T11:32:09Z</time>
      </trkpt>
      <trkpt lat="47.55948" lon="-2.30315">
        <ele>35.9</ele>
        <time>2025-01-16T11:32:10Z</time>
      </trkpt>
      <trkpt lat="47.55948" lon="-2.30315">
        <ele>35.9</ele>
        <time>2025-01-16T11:32:11Z</time>
      </trkpt>
      <trkpt lat="47.55948" lon="-2.30315">
        <ele>35.9</ele>
        <time>2025-01-16T11:32:12Z</time>
      </trkpt>
      <trkpt lat="47.55948" lon="-2.30315">
        <ele>35.9</ele>
        <time>2025-01-16T11:32:13Z</time>
      </trkpt>
      <trkpt lat="47.55948" lon="-2.30315">
        <ele>35.9</ele>
        <time>2025-01-16T11:32:14Z</time>
      </trkpt>
      <trkpt lat="47.55948" lon="-2.30315">
        <ele>35.9</ele>
        <time>2025-01-16T11:32:15Z</time>
      </trkpt>
      <trkpt lat="47.55948" lon="-2.30315">
        <ele>35.9</ele>
        <time>2025-01-16T11:32:16Z</time>
      </trkpt>
      <trkpt lat="47.55948" lon="-2.30315">
        <ele>35.9</ele>
        <time>2025-01-16T11:32:17Z</time>
      </trkpt>
      <trkpt lat="47.55948" lon="-2.30315">
        <ele>35.9</ele>
        <time>2025-01-16T11:32:18Z</time>
      </trkpt>
      <trkpt lat="47.55948" lon="-2.30315">
        <ele>35.9</ele>
        <time>2025-01-16T11:32:19Z</time>
      </trkpt>
      <trkpt lat="47.55948" lon="-2.30315">
        <ele>35.9</ele>
        <time>2025-01-16T11:32:20Z</time>
      </trkpt>
      <trkpt lat="47.55948" lon="-2.30315">
        <ele>35.9</ele>
        <time>2025-01-16T11:32:21Z</time>
      </trkpt>
      <trkpt lat="47.55948" lon="-2.30315">
        <ele>35.9</ele>
        <time>2025-01-16T11:32:22Z</time>
      </trkpt>
      <trkpt lat="47.55948" lon="-2.30315">
        <ele>35.9</ele>
        <time>2025-01-16T11:32:23Z</time>
      </trkpt>
      <trkpt lat="47.55948" lon="-2.30315">
        <ele>35.9</ele>
        <time>2025-01-16T11:32:24Z</time>
      </trkpt>
      <trkpt lat="47.55948" lon="-2.30315">
        <ele>35.9</ele>
        <time>2025-01-16T11:32:26Z</time>
      </trkpt>
      <trkpt lat="47.55948" lon="-2.30315">
        <ele>35.9</ele>
        <time>2025-01-16T11:32:27Z</time>
      </trkpt>
      <trkpt lat="47.55948" lon="-2.30315">
        <ele>35.9</ele>
        <time>2025-01-16T11:32:28Z</time>
      </trkpt>
      <trkpt lat="47.55948" lon="-2.30315">
        <ele>35.9</ele>
        <time>2025-01-16T11:32:29Z</time>
      </trkpt>
      <trkpt lat="47.55948" lon="-2.30315">
        <ele>35.9</ele>
        <time>2025-01-16T11:32:30Z</time>
      </trkpt>
      <trkpt lat="47.55948" lon="-2.30315">
        <ele>35.9</ele>
        <time>2025-01-16T11:32:31Z</time>
      </trkpt>
      <trkpt lat="47.55948" lon="-2.30315">
        <ele>35.9</ele>
        <time>2025-01-16T11:32:32Z</time>
      </trkpt>
      <trkpt lat="47.55948" lon="-2.30315">
        <ele>35.9</ele>
        <time>2025-01-16T11:32:33Z</time>
      </trkpt>
      <trkpt lat="47.55948" lon="-2.30315">
        <ele>35.9</ele>
        <time>2025-01-16T11:32:34Z</time>
      </trkpt>
      <trkpt lat="47.55948" lon="-2.30315">
        <ele>35.9</ele>
        <time>2025-01-16T11:32:35Z</time>
      </trkpt>
      <trkpt lat="47.55948" lon="-2.30315">
        <ele>35.9</ele>
        <time>2025-01-16T11:32:36Z</time>
      </trkpt>
      <trkpt lat="47.55948" lon="-2.30315">
        <ele>35.9</ele>
        <time>2025-01-16T11:32:37Z</time>
      </trkpt>
      <trkpt lat="47.55948" lon="-2.30315">
        <ele>35.9</ele>
        <time>2025-01-16T11:32:38Z</time>
      </trkpt>
      <trkpt lat="47.55948" lon="-2.30315">
        <ele>35.9</ele>
        <time>2025-01-16T11:32:39Z</time>
      </trkpt>
      <trkpt lat="47.55948" lon="-2.30315">
        <ele>35.9</ele>
        <time>2025-01-16T11:32:40Z</time>
      </trkpt>
      <trkpt lat="47.55948" lon="-2.30315">
        <ele>35.9</ele>
        <time>2025-01-16T11:32:41Z</time>
      </trkpt>
      <trkpt lat="47.55948" lon="-2.30315">
        <ele>35.9</ele>
        <time>2025-01-16T11:32:42Z</time>
      </trkpt>
      <trkpt lat="47.55948" lon="-2.30315">
        <ele>35.9</ele>
        <time>2025-01-16T11:32:43Z</time>
      </trkpt>
      <trkpt lat="47.55948" lon="-2.30315">
        <ele>35.9</ele>
        <time>2025-01-16T11:32:44Z</time>
      </trkpt>
      <trkpt lat="47.55948" lon="-2.30315">
        <ele>35.9</ele>
        <time>2025-01-16T11:32:45Z</time>
      </trkpt>
      <trkpt lat="47.55948" lon="-2.30314">
        <ele>35.8</ele>
        <time>2025-01-16T11:32:46Z</time>
      </trkpt>
      <trkpt lat="47.55948" lon="-2.30314">
        <ele>35.8</ele>
        <time>2025-01-16T11:32:47Z</time>
      </trkpt>
      <trkpt lat="47.55948" lon="-2.30314">
        <ele>35.8</ele>
        <time>2025-01-16T11:32:48Z</time>
      </trkpt>
      <trkpt lat="47.55948" lon="-2.30314">
        <ele>35.8</ele>
        <time>2025-01-16T11:32:49Z</time>
      </trkpt>
      <trkpt lat="47.55948" lon="-2.30314">
        <ele>35.8</ele>
        <time>2025-01-16T11:32:50Z</time>
      </trkpt>
      <trkpt lat="47.55948" lon="-2.30314">
        <ele>35.8</ele>
        <time>2025-01-16T11:32:51Z</time>
      </trkpt>
      <trkpt lat="47.55948" lon="-2.30314">
        <ele>35.8</ele>
        <time>2025-01-16T11:32:52Z</time>
      </trkpt>
      <trkpt lat="47.55948" lon="-2.30314">
        <ele>35.8</ele>
        <time>2025-01-16T11:32:53Z</time>
      </trkpt>
      <trkpt lat="47.55948" lon="-2.30314">
        <ele>35.8</ele>
        <time>2025-01-16T11:32:54Z</time>
      </trkpt>
      <trkpt lat="47.55948" lon="-2.30314">
        <ele>35.8</ele>
        <time>2025-01-16T11:32:55Z</time>
      </trkpt>
      <trkpt lat="47.55948" lon="-2.30314">
        <ele>35.8</ele>
        <time>2025-01-16T11:32:56Z</time>
      </trkpt>
      <trkpt lat="47.55948" lon="-2.30314">
        <ele>35.8</ele>
        <time>2025-01-16T11:32:57Z</time>
      </trkpt>
      <trkpt lat="47.55948" lon="-2.30314">
        <ele>35.8</ele>
        <time>2025-01-16T11:32:58Z</time>
      </trkpt>
      <trkpt lat="47.55948" lon="-2.30314">
        <ele>35.8</ele>
        <time>2025-01-16T11:32:59Z</time>
      </trkpt>
      <trkpt lat="47.55948" lon="-2.30314">
        <ele>35.8</ele>
        <time>2025-01-16T11:33:00Z</time>
      </trkpt>
      <trkpt lat="47.55948" lon="-2.30314">
        <ele>35.8</ele>
        <time>2025-01-16T11:33:01Z</time>
      </trkpt>
      <trkpt lat="47.55948" lon="-2.30314">
        <ele>35.8</ele>
        <time>2025-01-16T11:33:02Z</time>
      </trkpt>
      <trkpt lat="47.55948" lon="-2.30314">
        <ele>35.8</ele>
        <time>2025-01-16T11:33:03Z</time>
      </trkpt>
      <trkpt lat="47.55948" lon="-2.30314">
        <ele>35.8</ele>
        <time>2025-01-16T11:33:04Z</time>
      </trkpt>
      <trkpt lat="47.55948" lon="-2.30314">
        <ele>35.8</ele>
        <time>2025-01-16T11:33:05Z</time>
      </trkpt>
      <trkpt lat="47.55948" lon="-2.30314">
        <ele>35.8</ele>
        <time>2025-01-16T11:33:06Z</time>
      </trkpt>
      <trkpt lat="47.55948" lon="-2.30314">
        <ele>35.8</ele>
        <time>2025-01-16T11:33:07Z</time>
      </trkpt>
      <trkpt lat="47.55948" lon="-2.30314">
        <ele>35.8</ele>
        <time>2025-01-16T11:33:08Z</time>
      </trkpt>
      <trkpt lat="47.55948" lon="-2.30314">
        <ele>35.8</ele>
        <time>2025-01-16T11:33:09Z</time>
      </trkpt>
      <trkpt lat="47.55948" lon="-2.30314">
        <ele>35.8</ele>
        <time>2025-01-16T11:33:10Z</time>
      </trkpt>
      <trkpt lat="47.55949" lon="-2.30314">
        <ele>35.8</ele>
        <time>2025-01-16T11:33:11Z</time>
      </trkpt>
      <trkpt lat="47.55949" lon="-2.30314">
        <ele>35.8</ele>
        <time>2025-01-16T11:33:12Z</time>
      </trkpt>
      <trkpt lat="47.55949" lon="-2.30314">
        <ele>35.8</ele>
        <time>2025-01-16T11:33:13Z</time>
      </trkpt>
      <trkpt lat="47.55949" lon="-2.30314">
        <ele>35.8</ele>
        <time>2025-01-16T11:33:14Z</time>
      </trkpt>
      <trkpt lat="47.55949" lon="-2.30314">
        <ele>35.8</ele>
        <time>2025-01-16T11:33:15Z</time>
      </trkpt>
      <trkpt lat="47.55949" lon="-2.30314">
        <ele>35.8</ele>
        <time>2025-01-16T11:33:16Z</time>
      </trkpt>
      <trkpt lat="47.55949" lon="-2.30314">
        <ele>35.8</ele>
        <time>2025-01-16T11:33:17Z</time>
      </trkpt>
      <trkpt lat="47.55949" lon="-2.30315">
        <ele>35.9</ele>
        <time>2025-01-16T11:33:18Z</time>
      </trkpt>
      <trkpt lat="47.55948" lon="-2.30315">
        <ele>35.9</ele>
        <time>2025-01-16T11:33:19Z</time>
      </trkpt>
      <trkpt lat="47.55948" lon="-2.30315">
        <ele>35.9</ele>
        <time>2025-01-16T11:33:20Z</time>
      </trkpt>
      <trkpt lat="47.55948" lon="-2.30315">
        <ele>35.9</ele>
        <time>2025-01-16T11:33:21Z</time>
      </trkpt>
      <trkpt lat="47.55948" lon="-2.30315">
        <ele>35.9</ele>
        <time>2025-01-16T11:33:22Z</time>
      </trkpt>
      <trkpt lat="47.55948" lon="-2.30315">
        <ele>35.9</ele>
        <time>2025-01-16T11:33:23Z</time>
      </trkpt>
      <trkpt lat="47.55948" lon="-2.30315">
        <ele>35.9</ele>
        <time>2025-01-16T11:33:24Z</time>
      </trkpt>
      <trkpt lat="47.55948" lon="-2.30314">
        <ele>35.8</ele>
        <time>2025-01-16T11:33:25Z</time>
      </trkpt>
      <trkpt lat="47.55947" lon="-2.30314">
        <ele>35.8</ele>
        <time>2025-01-16T11:33:26Z</time>
      </trkpt>
      <trkpt lat="47.55947" lon="-2.30314">
        <ele>35.8</ele>
        <time>2025-01-16T11:33:27Z</time>
      </trkpt>
      <trkpt lat="47.55947" lon="-2.30314">
        <ele>35.8</ele>
        <time>2025-01-16T11:33:28Z</time>
      </trkpt>
      <trkpt lat="47.55947" lon="-2.30314">
        <ele>35.8</ele>
        <time>2025-01-16T11:33:29Z</time>
      </trkpt>
      <trkpt lat="47.55947" lon="-2.30314">
        <ele>35.8</ele>
        <time>2025-01-16T11:33:30Z</time>
      </trkpt>
      <trkpt lat="47.55947" lon="-2.30314">
        <ele>35.8</ele>
        <time>2025-01-16T11:33:31Z</time>
      </trkpt>
      <trkpt lat="47.55947" lon="-2.30314">
        <ele>35.8</ele>
        <time>2025-01-16T11:33:32Z</time>
      </trkpt>
      <trkpt lat="47.55947" lon="-2.30314">
        <ele>35.8</ele>
        <time>2025-01-16T11:33:33Z</time>
      </trkpt>
      <trkpt lat="47.55948" lon="-2.30314">
        <ele>35.8</ele>
        <time>2025-01-16T11:33:34Z</time>
      </trkpt>
      <trkpt lat="47.55948" lon="-2.30314">
        <ele>35.8</ele>
        <time>2025-01-16T11:33:35Z</time>
      </trkpt>
      <trkpt lat="47.55948" lon="-2.30314">
        <ele>35.8</ele>
        <time>2025-01-16T11:33:36Z</time>
      </trkpt>
      <trkpt lat="47.55948" lon="-2.30314">
        <ele>35.8</ele>
        <time>2025-01-16T11:33:37Z</time>
      </trkpt>
      <trkpt lat="47.55948" lon="-2.30314">
        <ele>35.8</ele>
        <time>2025-01-16T11:33:38Z</time>
      </trkpt>
      <trkpt lat="47.55948" lon="-2.30314">
        <ele>35.8</ele>
        <time>2025-01-16T11:33:39Z</time>
      </trkpt>
      <trkpt lat="47.55948" lon="-2.30314">
        <ele>35.8</ele>
        <time>2025-01-16T11:33:40Z</time>
      </trkpt>
      <trkpt lat="47.55948" lon="-2.30314">
        <ele>35.8</ele>
        <time>2025-01-16T11:33:41Z</time>
      </trkpt>
      <trkpt lat="47.55948" lon="-2.30314">
        <ele>35.8</ele>
        <time>2025-01-16T11:33:42Z</time>
      </trkpt>
      <trkpt lat="47.55947" lon="-2.30315">
        <ele>36</ele>
        <time>2025-01-16T11:33:43Z</time>
      </trkpt>
      <trkpt lat="47.55947" lon="-2.30315">
        <ele>36</ele>
        <time>2025-01-16T11:33:44Z</time>
      </trkpt>
      <trkpt lat="47.55947" lon="-2.30315">
        <ele>36</ele>
        <time>2025-01-16T11:33:45Z</time>
      </trkpt>
      <trkpt lat="47.55947" lon="-2.30315">
        <ele>36</ele>
        <time>2025-01-16T11:33:46Z</time>
      </trkpt>
      <trkpt lat="47.55947" lon="-2.30315">
        <ele>36</ele>
        <time>2025-01-16T11:33:47Z</time>
      </trkpt>
      <trkpt lat="47.55946" lon="-2.30314">
        <ele>35.9</ele>
        <time>2025-01-16T11:33:48Z</time>
      </trkpt>
      <trkpt lat="47.55946" lon="-2.30314">
        <ele>35.9</ele>
        <time>2025-01-16T11:33:49Z</time>
      </trkpt>
      <trkpt lat="47.55946" lon="-2.30314">
        <ele>35.9</ele>
        <time>2025-01-16T11:33:50Z</time>
      </trkpt>
      <trkpt lat="47.55946" lon="-2.30314">
        <ele>35.9</ele>
        <time>2025-01-16T11:33:51Z</time>
      </trkpt>
      <trkpt lat="47.55945" lon="-2.30314">
        <ele>35.9</ele>
        <time>2025-01-16T11:33:52Z</time>
      </trkpt>
      <trkpt lat="47.55945" lon="-2.30314">
        <ele>35.9</ele>
        <time>2025-01-16T11:33:53Z</time>
      </trkpt>
      <trkpt lat="47.55945" lon="-2.30314">
        <ele>35.9</ele>
        <time>2025-01-16T11:33:54Z</time>
      </trkpt>
      <trkpt lat="47.55945" lon="-2.30313">
        <ele>35.8</ele>
        <time>2025-01-16T11:33:55Z</time>
      </trkpt>
      <trkpt lat="47.55945" lon="-2.30313">
        <ele>35.8</ele>
        <time>2025-01-16T11:33:56Z</time>
      </trkpt>
      <trkpt lat="47.55945" lon="-2.30313">
        <ele>35.8</ele>
        <time>2025-01-16T11:33:57Z</time>
      </trkpt>
      <trkpt lat="47.55945" lon="-2.30313">
        <ele>35.8</ele>
        <time>2025-01-16T11:33:58Z</time>
      </trkpt>
      <trkpt lat="47.55945" lon="-2.30313">
        <ele>35.8</ele>
        <time>2025-01-16T11:33:59Z</time>
      </trkpt>
      <trkpt lat="47.55945" lon="-2.30313">
        <ele>35.8</ele>
        <time>2025-01-16T11:34:00Z</time>
      </trkpt>
      <trkpt lat="47.55945" lon="-2.30313">
        <ele>35.8</ele>
        <time>2025-01-16T11:34:01Z</time>
      </trkpt>
      <trkpt lat="47.55945" lon="-2.30313">
        <ele>35.8</ele>
        <time>2025-01-16T11:34:02Z</time>
      </trkpt>
      <trkpt lat="47.55945" lon="-2.30313">
        <ele>35.8</ele>
        <time>2025-01-16T11:34:03Z</time>
      </trkpt>
      <trkpt lat="47.55945" lon="-2.30313">
        <ele>35.8</ele>
        <time>2025-01-16T11:34:04Z</time>
      </trkpt>
      <trkpt lat="47.55945" lon="-2.30313">
        <ele>35.8</ele>
        <time>2025-01-16T11:34:05Z</time>
      </trkpt>
      <trkpt lat="47.55945" lon="-2.30313">
        <ele>35.8</ele>
        <time>2025-01-16T11:34:06Z</time>
      </trkpt>
      <trkpt lat="47.55945" lon="-2.30313">
        <ele>35.8</ele>
        <time>2025-01-16T11:34:07Z</time>
      </trkpt>
      <trkpt lat="47.55945" lon="-2.30313">
        <ele>35.8</ele>
        <time>2025-01-16T11:34:08Z</time>
      </trkpt>
      <trkpt lat="47.55945" lon="-2.30313">
        <ele>35.8</ele>
        <time>2025-01-16T11:34:09Z</time>
      </trkpt>
      <trkpt lat="47.55945" lon="-2.30313">
        <ele>35.8</ele>
        <time>2025-01-16T11:34:10Z</time>
      </trkpt>
      <trkpt lat="47.55945" lon="-2.30313">
        <ele>35.8</ele>
        <time>2025-01-16T11:34:11Z</time>
      </trkpt>
      <trkpt lat="47.55945" lon="-2.30313">
        <ele>35.8</ele>
        <time>2025-01-16T11:34:12Z</time>
      </trkpt>
      <trkpt lat="47.55945" lon="-2.30313">
        <ele>35.8</ele>
        <time>2025-01-16T11:34:13Z</time>
      </trkpt>
      <trkpt lat="47.55945" lon="-2.30313">
        <ele>35.8</ele>
        <time>2025-01-16T11:34:14Z</time>
      </trkpt>
      <trkpt lat="47.55945" lon="-2.30313">
        <ele>35.8</ele>
        <time>2025-01-16T11:34:15Z</time>
      </trkpt>
      <trkpt lat="47.55945" lon="-2.30313">
        <ele>35.8</ele>
        <time>2025-01-16T11:34:16Z</time>
      </trkpt>
      <trkpt lat="47.55945" lon="-2.30313">
        <ele>35.8</ele>
        <time>2025-01-16T11:34:17Z</time>
      </trkpt>
      <trkpt lat="47.55945" lon="-2.30313">
        <ele>35.8</ele>
        <time>2025-01-16T11:34:18Z</time>
      </trkpt>
      <trkpt lat="47.55945" lon="-2.30313">
        <ele>35.8</ele>
        <time>2025-01-16T11:34:19Z</time>
      </trkpt>
      <trkpt lat="47.55945" lon="-2.30313">
        <ele>35.8</ele>
        <time>2025-01-16T11:34:20Z</time>
      </trkpt>
      <trkpt lat="47.55945" lon="-2.30313">
        <ele>35.8</ele>
        <time>2025-01-16T11:34:21Z</time>
      </trkpt>
      <trkpt lat="47.55945" lon="-2.30313">
        <ele>35.8</ele>
        <time>2025-01-16T11:34:22Z</time>
      </trkpt>
      <trkpt lat="47.55945" lon="-2.30313">
        <ele>35.8</ele>
        <time>2025-01-16T11:34:23Z</time>
      </trkpt>
      <trkpt lat="47.55945" lon="-2.30313">
        <ele>35.8</ele>
        <time>2025-01-16T11:34:24Z</time>
      </trkpt>
      <trkpt lat="47.55945" lon="-2.30313">
        <ele>35.8</ele>
        <time>2025-01-16T11:34:25Z</time>
      </trkpt>
      <trkpt lat="47.55945" lon="-2.30313">
        <ele>35.8</ele>
        <time>2025-01-16T11:34:26Z</time>
      </trkpt>
      <trkpt lat="47.55945" lon="-2.30313">
        <ele>35.8</ele>
        <time>2025-01-16T11:34:27Z</time>
      </trkpt>
      <trkpt lat="47.55945" lon="-2.30313">
        <ele>35.8</ele>
        <time>2025-01-16T11:34:28Z</time>
      </trkpt>
      <trkpt lat="47.55945" lon="-2.30313">
        <ele>35.8</ele>
        <time>2025-01-16T11:34:29Z</time>
      </trkpt>
      <trkpt lat="47.55945" lon="-2.30313">
        <ele>35.8</ele>
        <time>2025-01-16T11:34:30Z</time>
      </trkpt>
      <trkpt lat="47.55945" lon="-2.30313">
        <ele>35.8</ele>
        <time>2025-01-16T11:34:31Z</time>
      </trkpt>
      <trkpt lat="47.55945" lon="-2.30313">
        <ele>35.8</ele>
        <time>2025-01-16T11:34:32Z</time>
      </trkpt>
      <trkpt lat="47.55945" lon="-2.30313">
        <ele>35.8</ele>
        <time>2025-01-16T11:34:33Z</time>
      </trkpt>
      <trkpt lat="47.55945" lon="-2.30313">
        <ele>35.8</ele>
        <time>2025-01-16T11:34:34Z</time>
      </trkpt>
      <trkpt lat="47.55945" lon="-2.30313">
        <ele>35.8</ele>
        <time>2025-01-16T11:34:35Z</time>
      </trkpt>
      <trkpt lat="47.55945" lon="-2.30313">
        <ele>35.8</ele>
        <time>2025-01-16T11:34:36Z</time>
      </trkpt>
      <trkpt lat="47.55945" lon="-2.30313">
        <ele>35.8</ele>
        <time>2025-01-16T11:34:37Z</time>
      </trkpt>
      <trkpt lat="47.55945" lon="-2.30313">
        <ele>35.8</ele>
        <time>2025-01-16T11:34:38Z</time>
      </trkpt>
      <trkpt lat="47.55945" lon="-2.30313">
        <ele>35.8</ele>
        <time>2025-01-16T11:34:39Z</time>
      </trkpt>
      <trkpt lat="47.55945" lon="-2.30313">
        <ele>35.8</ele>
        <time>2025-01-16T11:34:40Z</time>
      </trkpt>
      <trkpt lat="47.55945" lon="-2.30313">
        <ele>35.8</ele>
        <time>2025-01-16T11:34:41Z</time>
      </trkpt>
      <trkpt lat="47.55945" lon="-2.30313">
        <ele>35.8</ele>
        <time>2025-01-16T11:34:42Z</time>
      </trkpt>
      <trkpt lat="47.55945" lon="-2.30313">
        <ele>35.8</ele>
        <time>2025-01-16T11:34:43Z</time>
      </trkpt>
      <trkpt lat="47.55945" lon="-2.30313">
        <ele>35.8</ele>
        <time>2025-01-16T11:34:44Z</time>
      </trkpt>
      <trkpt lat="47.55945" lon="-2.30313">
        <ele>35.8</ele>
        <time>2025-01-16T11:34:45Z</time>
      </trkpt>
      <trkpt lat="47.55945" lon="-2.30313">
        <ele>35.8</ele>
        <time>2025-01-16T11:34:46Z</time>
      </trkpt>
      <trkpt lat="47.55945" lon="-2.30313">
        <ele>35.8</ele>
        <time>2025-01-16T11:34:47Z</time>
      </trkpt>
      <trkpt lat="47.55945" lon="-2.30313">
        <ele>35.8</ele>
        <time>2025-01-16T11:34:48Z</time>
      </trkpt>
      <trkpt lat="47.55945" lon="-2.30313">
        <ele>35.8</ele>
        <time>2025-01-16T11:34:49Z</time>
      </trkpt>
      <trkpt lat="47.55945" lon="-2.30313">
        <ele>35.8</ele>
        <time>2025-01-16T11:34:50Z</time>
      </trkpt>
      <trkpt lat="47.55945" lon="-2.30313">
        <ele>35.8</ele>
        <time>2025-01-16T11:34:51Z</time>
      </trkpt>
      <trkpt lat="47.55945" lon="-2.30313">
        <ele>35.8</ele>
        <time>2025-01-16T11:34:52Z</time>
      </trkpt>
      <trkpt lat="47.55945" lon="-2.30313">
        <ele>35.8</ele>
        <time>2025-01-16T11:34:53Z</time>
      </trkpt>
      <trkpt lat="47.55945" lon="-2.30313">
        <ele>35.8</ele>
        <time>2025-01-16T11:34:54Z</time>
      </trkpt>
      <trkpt lat="47.55945" lon="-2.30313">
        <ele>35.8</ele>
        <time>2025-01-16T11:34:55Z</time>
      </trkpt>
      <trkpt lat="47.55945" lon="-2.30313">
        <ele>35.8</ele>
        <time>2025-01-16T11:34:56Z</time>
      </trkpt>
      <trkpt lat="47.55945" lon="-2.30313">
        <ele>35.8</ele>
        <time>2025-01-16T11:34:57Z</time>
      </trkpt>
      <trkpt lat="47.55945" lon="-2.30313">
        <ele>35.8</ele>
        <time>2025-01-16T11:34:58Z</time>
      </trkpt>
      <trkpt lat="47.55945" lon="-2.30313">
        <ele>35.8</ele>
        <time>2025-01-16T11:34:59Z</time>
      </trkpt>
      <trkpt lat="47.55945" lon="-2.30313">
        <ele>35.8</ele>
        <time>2025-01-16T11:35:00Z</time>
      </trkpt>
      <trkpt lat="47.55945" lon="-2.30313">
        <ele>35.8</ele>
        <time>2025-01-16T11:35:01Z</time>
      </trkpt>
      <trkpt lat="47.55945" lon="-2.30313">
        <ele>35.8</ele>
        <time>2025-01-16T11:35:02Z</time>
      </trkpt>
      <trkpt lat="47.55945" lon="-2.30313">
        <ele>35.8</ele>
        <time>2025-01-16T11:35:03Z</time>
      </trkpt>
      <trkpt lat="47.55945" lon="-2.30313">
        <ele>35.8</ele>
        <time>2025-01-16T11:35:04Z</time>
      </trkpt>
      <trkpt lat="47.55945" lon="-2.30313">
        <ele>35.8</ele>
        <time>2025-01-16T11:35:05Z</time>
      </trkpt>
      <trkpt lat="47.55945" lon="-2.30313">
        <ele>35.8</ele>
        <time>2025-01-16T11:35:06Z</time>
      </trkpt>
      <trkpt lat="47.55945" lon="-2.30313">
        <ele>35.8</ele>
        <time>2025-01-16T11:35:07Z</time>
      </trkpt>
      <trkpt lat="47.55945" lon="-2.30313">
        <ele>35.8</ele>
        <time>2025-01-16T11:35:08Z</time>
      </trkpt>
      <trkpt lat="47.55945" lon="-2.30313">
        <ele>35.8</ele>
        <time>2025-01-16T11:35:09Z</time>
      </trkpt>
      <trkpt lat="47.55945" lon="-2.30313">
        <ele>35.8</ele>
        <time>2025-01-16T11:35:10Z</time>
      </trkpt>
      <trkpt lat="47.55945" lon="-2.30313">
        <ele>35.8</ele>
        <time>2025-01-16T11:35:11Z</time>
      </trkpt>
      <trkpt lat="47.55945" lon="-2.30313">
        <ele>35.8</ele>
        <time>2025-01-16T11:35:12Z</time>
      </trkpt>
      <trkpt lat="47.55945" lon="-2.30313">
        <ele>35.8</ele>
        <time>2025-01-16T11:35:13Z</time>
      </trkpt>
      <trkpt lat="47.55945" lon="-2.30313">
        <ele>35.8</ele>
        <time>2025-01-16T11:35:14Z</time>
      </trkpt>
      <trkpt lat="47.55945" lon="-2.30313">
        <ele>35.8</ele>
        <time>2025-01-16T11:35:15Z</time>
      </trkpt>
      <trkpt lat="47.55945" lon="-2.30313">
        <ele>35.8</ele>
        <time>2025-01-16T11:35:16Z</time>
      </trkpt>
      <trkpt lat="47.55945" lon="-2.30313">
        <ele>35.8</ele>
        <time>2025-01-16T11:35:17Z</time>
      </trkpt>
      <trkpt lat="47.55945" lon="-2.30313">
        <ele>35.8</ele>
        <time>2025-01-16T11:35:18Z</time>
      </trkpt>
      <trkpt lat="47.55945" lon="-2.30313">
        <ele>35.8</ele>
        <time>2025-01-16T11:35:19Z</time>
      </trkpt>
      <trkpt lat="47.55945" lon="-2.30313">
        <ele>35.8</ele>
        <time>2025-01-16T11:35:20Z</time>
      </trkpt>
      <trkpt lat="47.55945" lon="-2.30313">
        <ele>35.8</ele>
        <time>2025-01-16T11:35:21Z</time>
      </trkpt>
      <trkpt lat="47.55945" lon="-2.30313">
        <ele>35.8</ele>
        <time>2025-01-16T11:35:22Z</time>
      </trkpt>
      <trkpt lat="47.55945" lon="-2.30313">
        <ele>35.8</ele>
        <time>2025-01-16T11:35:23Z</time>
      </trkpt>
      <trkpt lat="47.55945" lon="-2.30313">
        <ele>35.8</ele>
        <time>2025-01-16T11:35:24Z</time>
      </trkpt>
      <trkpt lat="47.55945" lon="-2.30313">
        <ele>35.8</ele>
        <time>2025-01-16T11:35:25Z</time>
      </trkpt>
      <trkpt lat="47.55945" lon="-2.30313">
        <ele>35.8</ele>
        <time>2025-01-16T11:35:26Z</time>
      </trkpt>
      <trkpt lat="47.55945" lon="-2.30313">
        <ele>35.8</ele>
        <time>2025-01-16T11:35:27Z</time>
      </trkpt>
      <trkpt lat="47.55945" lon="-2.30313">
        <ele>35.8</ele>
        <time>2025-01-16T11:35:28Z</time>
      </trkpt>
      <trkpt lat="47.55945" lon="-2.30313">
        <ele>35.8</ele>
        <time>2025-01-16T11:35:29Z</time>
      </trkpt>
      <trkpt lat="47.55945" lon="-2.30313">
        <ele>35.8</ele>
        <time>2025-01-16T11:35:30Z</time>
      </trkpt>
      <trkpt lat="47.55945" lon="-2.30313">
        <ele>35.8</ele>
        <time>2025-01-16T11:35:31Z</time>
      </trkpt>
      <trkpt lat="47.55945" lon="-2.30313">
        <ele>35.8</ele>
        <time>2025-01-16T11:35:32Z</time>
      </trkpt>
      <trkpt lat="47.55945" lon="-2.30313">
        <ele>35.8</ele>
        <time>2025-01-16T11:35:33Z</time>
      </trkpt>
      <trkpt lat="47.55945" lon="-2.30313">
        <ele>35.8</ele>
        <time>2025-01-16T11:35:34Z</time>
      </trkpt>
      <trkpt lat="47.55945" lon="-2.30313">
        <ele>35.8</ele>
        <time>2025-01-16T11:35:35Z</time>
      </trkpt>
      <trkpt lat="47.55945" lon="-2.30313">
        <ele>35.8</ele>
        <time>2025-01-16T11:35:36Z</time>
      </trkpt>
      <trkpt lat="47.55945" lon="-2.30313">
        <ele>35.8</ele>
        <time>2025-01-16T11:35:37Z</time>
      </trkpt>
      <trkpt lat="47.55945" lon="-2.30313">
        <ele>35.8</ele>
        <time>2025-01-16T11:35:38Z</time>
      </trkpt>
      <trkpt lat="47.55945" lon="-2.30313">
        <ele>35.8</ele>
        <time>2025-01-16T11:35:39Z</time>
      </trkpt>
      <trkpt lat="47.55945" lon="-2.30313">
        <ele>35.8</ele>
        <time>2025-01-16T11:35:40Z</time>
      </trkpt>
      <trkpt lat="47.55945" lon="-2.30313">
        <ele>35.8</ele>
        <time>2025-01-16T11:35:41Z</time>
      </trkpt>
      <trkpt lat="47.55945" lon="-2.30313">
        <ele>35.8</ele>
        <time>2025-01-16T11:35:42Z</time>
      </trkpt>
      <trkpt lat="47.55945" lon="-2.30313">
        <ele>35.8</ele>
        <time>2025-01-16T11:35:43Z</time>
      </trkpt>
      <trkpt lat="47.55945" lon="-2.30313">
        <ele>35.8</ele>
        <time>2025-01-16T11:35:44Z</time>
      </trkpt>
      <trkpt lat="47.55945" lon="-2.30313">
        <ele>35.8</ele>
        <time>2025-01-16T11:35:45Z</time>
      </trkpt>
      <trkpt lat="47.55945" lon="-2.30313">
        <ele>35.8</ele>
        <time>2025-01-16T11:35:46Z</time>
      </trkpt>
      <trkpt lat="47.55945" lon="-2.30313">
        <ele>35.8</ele>
        <time>2025-01-16T11:35:47Z</time>
      </trkpt>
      <trkpt lat="47.55945" lon="-2.30313">
        <ele>35.8</ele>
        <time>2025-01-16T11:35:48Z</time>
      </trkpt>
      <trkpt lat="47.55945" lon="-2.30313">
        <ele>35.8</ele>
        <time>2025-01-16T11:35:49Z</time>
      </trkpt>
      <trkpt lat="47.55945" lon="-2.30313">
        <ele>35.8</ele>
        <time>2025-01-16T11:35:50Z</time>
      </trkpt>
      <trkpt lat="47.55945" lon="-2.30313">
        <ele>35.8</ele>
        <time>2025-01-16T11:35:51Z</time>
      </trkpt>
      <trkpt lat="47.55945" lon="-2.30313">
        <ele>35.8</ele>
        <time>2025-01-16T11:35:52Z</time>
      </trkpt>
      <trkpt lat="47.55945" lon="-2.30313">
        <ele>35.8</ele>
        <time>2025-01-16T11:35:53Z</time>
      </trkpt>
      <trkpt lat="47.55945" lon="-2.30313">
        <ele>35.8</ele>
        <time>2025-01-16T11:35:54Z</time>
      </trkpt>
      <trkpt lat="47.55945" lon="-2.30313">
        <ele>35.8</ele>
        <time>2025-01-16T11:35:55Z</time>
      </trkpt>
      <trkpt lat="47.55945" lon="-2.30313">
        <ele>35.8</ele>
        <time>2025-01-16T11:35:56Z</time>
      </trkpt>
      <trkpt lat="47.55945" lon="-2.30313">
        <ele>35.8</ele>
        <time>2025-01-16T11:35:57Z</time>
      </trkpt>
      <trkpt lat="47.55945" lon="-2.30313">
        <ele>35.8</ele>
        <time>2025-01-16T11:35:58Z</time>
      </trkpt>
      <trkpt lat="47.55945" lon="-2.30313">
        <ele>35.8</ele>
        <time>2025-01-16T11:35:59Z</time>
      </trkpt>
      <trkpt lat="47.55945" lon="-2.30313">
        <ele>35.8</ele>
        <time>2025-01-16T11:36:00Z</time>
      </trkpt>
      <trkpt lat="47.55945" lon="-2.30313">
        <ele>35.8</ele>
        <time>2025-01-16T11:36:01Z</time>
      </trkpt>
      <trkpt lat="47.55945" lon="-2.30313">
        <ele>35.8</ele>
        <time>2025-01-16T11:36:02Z</time>
      </trkpt>
      <trkpt lat="47.55945" lon="-2.30313">
        <ele>35.8</ele>
        <time>2025-01-16T11:36:03Z</time>
      </trkpt>
      <trkpt lat="47.55945" lon="-2.30313">
        <ele>35.8</ele>
        <time>2025-01-16T11:36:04Z</time>
      </trkpt>
      <trkpt lat="47.55945" lon="-2.30313">
        <ele>35.8</ele>
        <time>2025-01-16T11:36:05Z</time>
      </trkpt>
      <trkpt lat="47.55945" lon="-2.30313">
        <ele>35.8</ele>
        <time>2025-01-16T11:36:06Z</time>
      </trkpt>
      <trkpt lat="47.55945" lon="-2.30313">
        <ele>35.8</ele>
        <time>2025-01-16T11:36:07Z</time>
      </trkpt>
      <trkpt lat="47.55945" lon="-2.30313">
        <ele>35.8</ele>
        <time>2025-01-16T11:36:08Z</time>
      </trkpt>
      <trkpt lat="47.55945" lon="-2.30313">
        <ele>35.8</ele>
        <time>2025-01-16T11:36:09Z</time>
      </trkpt>
      <trkpt lat="47.55945" lon="-2.30313">
        <ele>35.8</ele>
        <time>2025-01-16T11:36:10Z</time>
      </trkpt>
      <trkpt lat="47.55945" lon="-2.30313">
        <ele>35.8</ele>
        <time>2025-01-16T11:36:11Z</time>
      </trkpt>
      <trkpt lat="47.55945" lon="-2.30313">
        <ele>35.8</ele>
        <time>2025-01-16T11:36:12Z</time>
      </trkpt>
      <trkpt lat="47.55945" lon="-2.30313">
        <ele>35.8</ele>
        <time>2025-01-16T11:36:13Z</time>
      </trkpt>
      <trkpt lat="47.55945" lon="-2.30313">
        <ele>35.8</ele>
        <time>2025-01-16T11:36:14Z</time>
      </trkpt>
      <trkpt lat="47.55945" lon="-2.30313">
        <ele>35.8</ele>
        <time>2025-01-16T11:36:15Z</time>
      </trkpt>
      <trkpt lat="47.55945" lon="-2.30313">
        <ele>35.8</ele>
        <time>2025-01-16T11:36:16Z</time>
      </trkpt>
      <trkpt lat="47.55945" lon="-2.30313">
        <ele>35.8</ele>
        <time>2025-01-16T11:36:17Z</time>
      </trkpt>
      <trkpt lat="47.55945" lon="-2.30313">
        <ele>35.8</ele>
        <time>2025-01-16T11:36:18Z</time>
      </trkpt>
      <trkpt lat="47.55945" lon="-2.30313">
        <ele>35.8</ele>
        <time>2025-01-16T11:36:19Z</time>
      </trkpt>
      <trkpt lat="47.55945" lon="-2.30313">
        <ele>35.8</ele>
        <time>2025-01-16T11:36:20Z</time>
      </trkpt>
      <trkpt lat="47.55945" lon="-2.30313">
        <ele>35.8</ele>
        <time>2025-01-16T11:36:21Z</time>
      </trkpt>
      <trkpt lat="47.55945" lon="-2.30313">
        <ele>35.8</ele>
        <time>2025-01-16T11:36:22Z</time>
      </trkpt>
      <trkpt lat="47.55945" lon="-2.30313">
        <ele>35.8</ele>
        <time>2025-01-16T11:36:23Z</time>
      </trkpt>
      <trkpt lat="47.55945" lon="-2.30313">
        <ele>35.8</ele>
        <time>2025-01-16T11:36:24Z</time>
      </trkpt>
      <trkpt lat="47.55945" lon="-2.30313">
        <ele>35.8</ele>
        <time>2025-01-16T11:36:25Z</time>
      </trkpt>
      <trkpt lat="47.55945" lon="-2.30313">
        <ele>35.8</ele>
        <time>2025-01-16T11:36:26Z</time>
      </trkpt>
      <trkpt lat="47.55945" lon="-2.30313">
        <ele>35.8</ele>
        <time>2025-01-16T11:36:27Z</time>
      </trkpt>
      <trkpt lat="47.55945" lon="-2.30313">
        <ele>35.8</ele>
        <time>2025-01-16T11:36:28Z</time>
      </trkpt>
      <trkpt lat="47.55945" lon="-2.30313">
        <ele>35.8</ele>
        <time>2025-01-16T11:36:29Z</time>
      </trkpt>
      <trkpt lat="47.55945" lon="-2.30313">
        <ele>35.8</ele>
        <time>2025-01-16T11:36:30Z</time>
      </trkpt>
      <trkpt lat="47.55945" lon="-2.30313">
        <ele>35.8</ele>
        <time>2025-01-16T11:36:31Z</time>
      </trkpt>
      <trkpt lat="47.55945" lon="-2.30313">
        <ele>35.8</ele>
        <time>2025-01-16T11:36:32Z</time>
      </trkpt>
      <trkpt lat="47.55945" lon="-2.30313">
        <ele>35.8</ele>
        <time>2025-01-16T11:36:33Z</time>
      </trkpt>
      <trkpt lat="47.55945" lon="-2.30313">
        <ele>35.8</ele>
        <time>2025-01-16T11:36:34Z</time>
      </trkpt>
      <trkpt lat="47.55945" lon="-2.30313">
        <ele>35.8</ele>
        <time>2025-01-16T11:36:35Z</time>
      </trkpt>
      <trkpt lat="47.55945" lon="-2.30313">
        <ele>35.8</ele>
        <time>2025-01-16T11:36:36Z</time>
      </trkpt>
      <trkpt lat="47.55945" lon="-2.30314">
        <ele>35.9</ele>
        <time>2025-01-16T11:36:37Z</time>
      </trkpt>
      <trkpt lat="47.55945" lon="-2.30314">
        <ele>35.9</ele>
        <time>2025-01-16T11:36:38Z</time>
      </trkpt>
      <trkpt lat="47.55945" lon="-2.30313">
        <ele>35.8</ele>
        <time>2025-01-16T11:36:39Z</time>
      </trkpt>
      <trkpt lat="47.55945" lon="-2.30313">
        <ele>35.8</ele>
        <time>2025-01-16T11:36:40Z</time>
      </trkpt>
      <trkpt lat="47.55945" lon="-2.30313">
        <ele>35.8</ele>
        <time>2025-01-16T11:36:41Z</time>
      </trkpt>
      <trkpt lat="47.55944" lon="-2.30313">
        <ele>35.8</ele>
        <time>2025-01-16T11:36:42Z</time>
      </trkpt>
      <trkpt lat="47.55944" lon="-2.30313">
        <ele>35.8</ele>
        <time>2025-01-16T11:36:43Z</time>
      </trkpt>
      <trkpt lat="47.55944" lon="-2.30313">
        <ele>35.8</ele>
        <time>2025-01-16T11:36:44Z</time>
      </trkpt>
      <trkpt lat="47.55944" lon="-2.30313">
        <ele>35.8</ele>
        <time>2025-01-16T11:36:45Z</time>
      </trkpt>
      <trkpt lat="47.55944" lon="-2.30313">
        <ele>35.8</ele>
        <time>2025-01-16T11:36:46Z</time>
      </trkpt>
      <trkpt lat="47.55944" lon="-2.30312">
        <ele>35.7</ele>
        <time>2025-01-16T11:36:47Z</time>
      </trkpt>
      <trkpt lat="47.55944" lon="-2.30312">
        <ele>35.7</ele>
        <time>2025-01-16T11:36:48Z</time>
      </trkpt>
      <trkpt lat="47.55944" lon="-2.30312">
        <ele>35.7</ele>
        <time>2025-01-16T11:36:49Z</time>
      </trkpt>
      <trkpt lat="47.55944" lon="-2.30312">
        <ele>35.7</ele>
        <time>2025-01-16T11:36:50Z</time>
      </trkpt>
      <trkpt lat="47.55944" lon="-2.30312">
        <ele>35.7</ele>
        <time>2025-01-16T11:36:51Z</time>
      </trkpt>
      <trkpt lat="47.55944" lon="-2.30312">
        <ele>35.7</ele>
        <time>2025-01-16T11:36:52Z</time>
      </trkpt>
      <trkpt lat="47.55944" lon="-2.30312">
        <ele>35.7</ele>
        <time>2025-01-16T11:36:53Z</time>
      </trkpt>
      <trkpt lat="47.55944" lon="-2.30312">
        <ele>35.7</ele>
        <time>2025-01-16T11:36:54Z</time>
      </trkpt>
      <trkpt lat="47.55944" lon="-2.30312">
        <ele>35.7</ele>
        <time>2025-01-16T11:36:55Z</time>
      </trkpt>
      <trkpt lat="47.55944" lon="-2.30312">
        <ele>35.7</ele>
        <time>2025-01-16T11:36:56Z</time>
      </trkpt>
      <trkpt lat="47.55944" lon="-2.30312">
        <ele>35.7</ele>
        <time>2025-01-16T11:36:57Z</time>
      </trkpt>
      <trkpt lat="47.55944" lon="-2.30312">
        <ele>35.7</ele>
        <time>2025-01-16T11:36:58Z</time>
      </trkpt>
      <trkpt lat="47.55944" lon="-2.30312">
        <ele>35.7</ele>
        <time>2025-01-16T11:36:59Z</time>
      </trkpt>
      <trkpt lat="47.55944" lon="-2.30312">
        <ele>35.7</ele>
        <time>2025-01-16T11:37:00Z</time>
      </trkpt>
      <trkpt lat="47.55944" lon="-2.30312">
        <ele>35.7</ele>
        <time>2025-01-16T11:37:01Z</time>
      </trkpt>
      <trkpt lat="47.55944" lon="-2.30312">
        <ele>35.7</ele>
        <time>2025-01-16T11:37:02Z</time>
      </trkpt>
      <trkpt lat="47.55944" lon="-2.30312">
        <ele>35.7</ele>
        <time>2025-01-16T11:37:03Z</time>
      </trkpt>
      <trkpt lat="47.55944" lon="-2.30312">
        <ele>35.7</ele>
        <time>2025-01-16T11:37:04Z</time>
      </trkpt>
      <trkpt lat="47.55944" lon="-2.30312">
        <ele>35.7</ele>
        <time>2025-01-16T11:37:05Z</time>
      </trkpt>
      <trkpt lat="47.55944" lon="-2.30312">
        <ele>35.7</ele>
        <time>2025-01-16T11:37:06Z</time>
      </trkpt>
      <trkpt lat="47.55944" lon="-2.30312">
        <ele>35.7</ele>
        <time>2025-01-16T11:37:07Z</time>
      </trkpt>
      <trkpt lat="47.55944" lon="-2.30312">
        <ele>35.7</ele>
        <time>2025-01-16T11:37:08Z</time>
      </trkpt>
      <trkpt lat="47.55944" lon="-2.30312">
        <ele>35.7</ele>
        <time>2025-01-16T11:37:09Z</time>
      </trkpt>
      <trkpt lat="47.55944" lon="-2.30312">
        <ele>35.7</ele>
        <time>2025-01-16T11:37:10Z</time>
      </trkpt>
      <trkpt lat="47.55944" lon="-2.30312">
        <ele>35.7</ele>
        <time>2025-01-16T11:37:11Z</time>
      </trkpt>
      <trkpt lat="47.55944" lon="-2.30312">
        <ele>35.7</ele>
        <time>2025-01-16T11:37:12Z</time>
      </trkpt>
      <trkpt lat="47.55944" lon="-2.30312">
        <ele>35.7</ele>
        <time>2025-01-16T11:37:13Z</time>
      </trkpt>
      <trkpt lat="47.55944" lon="-2.30312">
        <ele>35.7</ele>
        <time>2025-01-16T11:37:14Z</time>
      </trkpt>
      <trkpt lat="47.55944" lon="-2.30312">
        <ele>35.7</ele>
        <time>2025-01-16T11:37:15Z</time>
      </trkpt>
      <trkpt lat="47.55944" lon="-2.30312">
        <ele>35.7</ele>
        <time>2025-01-16T11:37:16Z</time>
      </trkpt>
      <trkpt lat="47.55944" lon="-2.30312">
        <ele>35.7</ele>
        <time>2025-01-16T11:37:17Z</time>
      </trkpt>
      <trkpt lat="47.55944" lon="-2.30312">
        <ele>35.7</ele>
        <time>2025-01-16T11:37:18Z</time>
      </trkpt>
      <trkpt lat="47.55944" lon="-2.30312">
        <ele>35.7</ele>
        <time>2025-01-16T11:37:19Z</time>
      </trkpt>
      <trkpt lat="47.55944" lon="-2.30312">
        <ele>35.7</ele>
        <time>2025-01-16T11:37:20Z</time>
      </trkpt>
      <trkpt lat="47.55944" lon="-2.30312">
        <ele>35.7</ele>
        <time>2025-01-16T11:37:21Z</time>
      </trkpt>
      <trkpt lat="47.55944" lon="-2.30312">
        <ele>35.7</ele>
        <time>2025-01-16T11:37:22Z</time>
      </trkpt>
      <trkpt lat="47.55944" lon="-2.30312">
        <ele>35.7</ele>
        <time>2025-01-16T11:37:23Z</time>
      </trkpt>
      <trkpt lat="47.55944" lon="-2.30312">
        <ele>35.7</ele>
        <time>2025-01-16T11:37:24Z</time>
      </trkpt>
      <trkpt lat="47.55944" lon="-2.30312">
        <ele>35.7</ele>
        <time>2025-01-16T11:37:25Z</time>
      </trkpt>
      <trkpt lat="47.55944" lon="-2.30312">
        <ele>35.7</ele>
        <time>2025-01-16T11:37:26Z</time>
      </trkpt>
      <trkpt lat="47.55944" lon="-2.30312">
        <ele>35.7</ele>
        <time>2025-01-16T11:37:27Z</time>
      </trkpt>
      <trkpt lat="47.55944" lon="-2.30312">
        <ele>35.7</ele>
        <time>2025-01-16T11:37:28Z</time>
      </trkpt>
      <trkpt lat="47.55944" lon="-2.30312">
        <ele>35.7</ele>
        <time>2025-01-16T11:37:29Z</time>
      </trkpt>
      <trkpt lat="47.55944" lon="-2.30312">
        <ele>35.7</ele>
        <time>2025-01-16T11:37:30Z</time>
      </trkpt>
      <trkpt lat="47.55944" lon="-2.30312">
        <ele>35.7</ele>
        <time>2025-01-16T11:37:31Z</time>
      </trkpt>
      <trkpt lat="47.55944" lon="-2.30312">
        <ele>35.7</ele>
        <time>2025-01-16T11:37:32Z</time>
      </trkpt>
      <trkpt lat="47.55944" lon="-2.30312">
        <ele>35.7</ele>
        <time>2025-01-16T11:37:33Z</time>
      </trkpt>
      <trkpt lat="47.55944" lon="-2.30312">
        <ele>35.7</ele>
        <time>2025-01-16T11:37:34Z</time>
      </trkpt>
      <trkpt lat="47.55944" lon="-2.30312">
        <ele>35.7</ele>
        <time>2025-01-16T11:37:35Z</time>
      </trkpt>
      <trkpt lat="47.55944" lon="-2.30312">
        <ele>35.7</ele>
        <time>2025-01-16T11:37:36Z</time>
      </trkpt>
      <trkpt lat="47.55944" lon="-2.30312">
        <ele>35.7</ele>
        <time>2025-01-16T11:37:37Z</time>
      </trkpt>
      <trkpt lat="47.55944" lon="-2.30312">
        <ele>35.7</ele>
        <time>2025-01-16T11:37:38Z</time>
      </trkpt>
      <trkpt lat="47.55944" lon="-2.30312">
        <ele>35.7</ele>
        <time>2025-01-16T11:37:39Z</time>
      </trkpt>
      <trkpt lat="47.55944" lon="-2.30312">
        <ele>35.7</ele>
        <time>2025-01-16T11:37:40Z</time>
      </trkpt>
      <trkpt lat="47.55944" lon="-2.30312">
        <ele>35.7</ele>
        <time>2025-01-16T11:37:41Z</time>
      </trkpt>
      <trkpt lat="47.55944" lon="-2.30312">
        <ele>35.7</ele>
        <time>2025-01-16T11:37:42Z</time>
      </trkpt>
      <trkpt lat="47.55944" lon="-2.30312">
        <ele>35.7</ele>
        <time>2025-01-16T11:37:43Z</time>
      </trkpt>
      <trkpt lat="47.55944" lon="-2.30312">
        <ele>35.7</ele>
        <time>2025-01-16T11:37:44Z</time>
      </trkpt>
      <trkpt lat="47.55944" lon="-2.30312">
        <ele>35.7</ele>
        <time>2025-01-16T11:37:45Z</time>
      </trkpt>
      <trkpt lat="47.55944" lon="-2.30312">
        <ele>35.7</ele>
        <time>2025-01-16T11:37:46Z</time>
      </trkpt>
      <trkpt lat="47.55944" lon="-2.30312">
        <ele>35.7</ele>
        <time>2025-01-16T11:37:47Z</time>
      </trkpt>
      <trkpt lat="47.55944" lon="-2.30312">
        <ele>35.7</ele>
        <time>2025-01-16T11:37:48Z</time>
      </trkpt>
      <trkpt lat="47.55944" lon="-2.30312">
        <ele>35.7</ele>
        <time>2025-01-16T11:37:49Z</time>
      </trkpt>
      <trkpt lat="47.55944" lon="-2.30312">
        <ele>35.7</ele>
        <time>2025-01-16T11:37:50Z</time>
      </trkpt>
      <trkpt lat="47.55944" lon="-2.30312">
        <ele>35.7</ele>
        <time>2025-01-16T11:37:51Z</time>
      </trkpt>
      <trkpt lat="47.55944" lon="-2.30312">
        <ele>35.7</ele>
        <time>2025-01-16T11:37:52Z</time>
      </trkpt>
      <trkpt lat="47.55944" lon="-2.30312">
        <ele>35.7</ele>
        <time>2025-01-16T11:37:53Z</time>
      </trkpt>
      <trkpt lat="47.55944" lon="-2.30312">
        <ele>35.7</ele>
        <time>2025-01-16T11:37:54Z</time>
      </trkpt>
      <trkpt lat="47.55944" lon="-2.30312">
        <ele>35.7</ele>
        <time>2025-01-16T11:37:55Z</time>
      </trkpt>
      <trkpt lat="47.55944" lon="-2.30312">
        <ele>35.7</ele>
        <time>2025-01-16T11:37:56Z</time>
      </trkpt>
      <trkpt lat="47.55944" lon="-2.30312">
        <ele>35.7</ele>
        <time>2025-01-16T11:37:57Z</time>
      </trkpt>
      <trkpt lat="47.55944" lon="-2.30312">
        <ele>35.7</ele>
        <time>2025-01-16T11:37:58Z</time>
      </trkpt>
      <trkpt lat="47.55944" lon="-2.30312">
        <ele>35.7</ele>
        <time>2025-01-16T11:37:59Z</time>
      </trkpt>
      <trkpt lat="47.55944" lon="-2.30312">
        <ele>35.7</ele>
        <time>2025-01-16T11:38:00Z</time>
      </trkpt>
      <trkpt lat="47.55944" lon="-2.30312">
        <ele>35.7</ele>
        <time>2025-01-16T11:38:01Z</time>
      </trkpt>
      <trkpt lat="47.55944" lon="-2.30312">
        <ele>35.7</ele>
        <time>2025-01-16T11:38:02Z</time>
      </trkpt>
      <trkpt lat="47.55944" lon="-2.30312">
        <ele>35.7</ele>
        <time>2025-01-16T11:38:03Z</time>
      </trkpt>
      <trkpt lat="47.55944" lon="-2.30312">
        <ele>35.7</ele>
        <time>2025-01-16T11:38:04Z</time>
      </trkpt>
      <trkpt lat="47.55944" lon="-2.30312">
        <ele>35.7</ele>
        <time>2025-01-16T11:38:05Z</time>
      </trkpt>
      <trkpt lat="47.55944" lon="-2.30312">
        <ele>35.7</ele>
        <time>2025-01-16T11:38:06Z</time>
      </trkpt>
      <trkpt lat="47.55944" lon="-2.30312">
        <ele>35.7</ele>
        <time>2025-01-16T11:38:07Z</time>
      </trkpt>
      <trkpt lat="47.55944" lon="-2.30312">
        <ele>35.7</ele>
        <time>2025-01-16T11:38:08Z</time>
      </trkpt>
      <trkpt lat="47.55944" lon="-2.30312">
        <ele>35.7</ele>
        <time>2025-01-16T11:38:09Z</time>
      </trkpt>
      <trkpt lat="47.55944" lon="-2.30312">
        <ele>35.7</ele>
        <time>2025-01-16T11:38:10Z</time>
      </trkpt>
      <trkpt lat="47.55944" lon="-2.30312">
        <ele>35.7</ele>
        <time>2025-01-16T11:38:11Z</time>
      </trkpt>
      <trkpt lat="47.55944" lon="-2.30312">
        <ele>35.7</ele>
        <time>2025-01-16T11:38:12Z</time>
      </trkpt>
      <trkpt lat="47.55944" lon="-2.30312">
        <ele>35.7</ele>
        <time>2025-01-16T11:38:13Z</time>
      </trkpt>
      <trkpt lat="47.55944" lon="-2.30312">
        <ele>35.7</ele>
        <time>2025-01-16T11:38:14Z</time>
      </trkpt>
      <trkpt lat="47.55944" lon="-2.30312">
        <ele>35.7</ele>
        <time>2025-01-16T11:38:15Z</time>
      </trkpt>
      <trkpt lat="47.55944" lon="-2.30312">
        <ele>35.7</ele>
        <time>2025-01-16T11:38:16Z</time>
      </trkpt>
      <trkpt lat="47.55944" lon="-2.30312">
        <ele>35.7</ele>
        <time>2025-01-16T11:38:17Z</time>
      </trkpt>
      <trkpt lat="47.55944" lon="-2.30312">
        <ele>35.7</ele>
        <time>2025-01-16T11:38:18Z</time>
      </trkpt>
      <trkpt lat="47.55944" lon="-2.30312">
        <ele>35.7</ele>
        <time>2025-01-16T11:38:19Z</time>
      </trkpt>
      <trkpt lat="47.55944" lon="-2.30312">
        <ele>35.7</ele>
        <time>2025-01-16T11:38:20Z</time>
      </trkpt>
      <trkpt lat="47.55944" lon="-2.30312">
        <ele>35.7</ele>
        <time>2025-01-16T11:38:21Z</time>
      </trkpt>
      <trkpt lat="47.55944" lon="-2.30312">
        <ele>35.7</ele>
        <time>2025-01-16T11:38:22Z</time>
      </trkpt>
      <trkpt lat="47.55944" lon="-2.30312">
        <ele>35.7</ele>
        <time>2025-01-16T11:38:23Z</time>
      </trkpt>
      <trkpt lat="47.55944" lon="-2.30312">
        <ele>35.7</ele>
        <time>2025-01-16T11:38:24Z</time>
      </trkpt>
      <trkpt lat="47.55944" lon="-2.30312">
        <ele>35.7</ele>
        <time>2025-01-16T11:38:25Z</time>
      </trkpt>
      <trkpt lat="47.55944" lon="-2.30312">
        <ele>35.7</ele>
        <time>2025-01-16T11:38:26Z</time>
      </trkpt>
      <trkpt lat="47.55944" lon="-2.30312">
        <ele>35.7</ele>
        <time>2025-01-16T11:38:27Z</time>
      </trkpt>
      <trkpt lat="47.55944" lon="-2.30312">
        <ele>35.7</ele>
        <time>2025-01-16T11:38:28Z</time>
      </trkpt>
      <trkpt lat="47.55944" lon="-2.30312">
        <ele>35.7</ele>
        <time>2025-01-16T11:38:29Z</time>
      </trkpt>
      <trkpt lat="47.55944" lon="-2.30312">
        <ele>35.7</ele>
        <time>2025-01-16T11:38:30Z</time>
      </trkpt>
      <trkpt lat="47.55944" lon="-2.30312">
        <ele>35.7</ele>
        <time>2025-01-16T11:38:31Z</time>
      </trkpt>
      <trkpt lat="47.55944" lon="-2.30312">
        <ele>35.7</ele>
        <time>2025-01-16T11:38:32Z</time>
      </trkpt>
      <trkpt lat="47.55944" lon="-2.30312">
        <ele>35.7</ele>
        <time>2025-01-16T11:38:33Z</time>
      </trkpt>
      <trkpt lat="47.55944" lon="-2.30312">
        <ele>35.7</ele>
        <time>2025-01-16T11:38:34Z</time>
      </trkpt>
      <trkpt lat="47.55944" lon="-2.30312">
        <ele>35.7</ele>
        <time>2025-01-16T11:38:35Z</time>
      </trkpt>
      <trkpt lat="47.55944" lon="-2.30312">
        <ele>35.7</ele>
        <time>2025-01-16T11:38:36Z</time>
      </trkpt>
      <trkpt lat="47.55944" lon="-2.30312">
        <ele>35.7</ele>
        <time>2025-01-16T11:38:37Z</time>
      </trkpt>
      <trkpt lat="47.55944" lon="-2.30312">
        <ele>35.7</ele>
        <time>2025-01-16T11:38:38Z</time>
      </trkpt>
      <trkpt lat="47.55944" lon="-2.30312">
        <ele>35.7</ele>
        <time>2025-01-16T11:38:39Z</time>
      </trkpt>
      <trkpt lat="47.55944" lon="-2.30312">
        <ele>35.7</ele>
        <time>2025-01-16T11:38:40Z</time>
      </trkpt>
      <trkpt lat="47.55944" lon="-2.30312">
        <ele>35.7</ele>
        <time>2025-01-16T11:38:41Z</time>
      </trkpt>
      <trkpt lat="47.55944" lon="-2.30312">
        <ele>35.7</ele>
        <time>2025-01-16T11:38:42Z</time>
      </trkpt>
      <trkpt lat="47.55945" lon="-2.30312">
        <ele>35.7</ele>
        <time>2025-01-16T11:38:43Z</time>
      </trkpt>
      <trkpt lat="47.55945" lon="-2.30312">
        <ele>35.7</ele>
        <time>2025-01-16T11:38:44Z</time>
      </trkpt>
      <trkpt lat="47.55945" lon="-2.30311">
        <ele>35.6</ele>
        <time>2025-01-16T11:38:45Z</time>
      </trkpt>
      <trkpt lat="47.55945" lon="-2.30311">
        <ele>35.6</ele>
        <time>2025-01-16T11:38:46Z</time>
      </trkpt>
      <trkpt lat="47.55945" lon="-2.30311">
        <ele>35.6</ele>
        <time>2025-01-16T11:38:47Z</time>
      </trkpt>
      <trkpt lat="47.55945" lon="-2.30311">
        <ele>35.6</ele>
        <time>2025-01-16T11:38:48Z</time>
      </trkpt>
      <trkpt lat="47.55945" lon="-2.30311">
        <ele>35.6</ele>
        <time>2025-01-16T11:38:49Z</time>
      </trkpt>
      <trkpt lat="47.55945" lon="-2.30311">
        <ele>35.6</ele>
        <time>2025-01-16T11:38:50Z</time>
      </trkpt>
      <trkpt lat="47.55945" lon="-2.30311">
        <ele>35.6</ele>
        <time>2025-01-16T11:38:51Z</time>
      </trkpt>
      <trkpt lat="47.55945" lon="-2.30311">
        <ele>35.6</ele>
        <time>2025-01-16T11:38:52Z</time>
      </trkpt>
      <trkpt lat="47.55945" lon="-2.30311">
        <ele>35.6</ele>
        <time>2025-01-16T11:38:53Z</time>
      </trkpt>
      <trkpt lat="47.55945" lon="-2.30311">
        <ele>35.6</ele>
        <time>2025-01-16T11:38:54Z</time>
      </trkpt>
      <trkpt lat="47.55945" lon="-2.30311">
        <ele>35.6</ele>
        <time>2025-01-16T11:38:55Z</time>
      </trkpt>
      <trkpt lat="47.55945" lon="-2.30311">
        <ele>35.6</ele>
        <time>2025-01-16T11:38:56Z</time>
      </trkpt>
      <trkpt lat="47.55945" lon="-2.30311">
        <ele>35.6</ele>
        <time>2025-01-16T11:38:57Z</time>
      </trkpt>
      <trkpt lat="47.55945" lon="-2.30311">
        <ele>35.6</ele>
        <time>2025-01-16T11:38:58Z</time>
      </trkpt>
      <trkpt lat="47.55945" lon="-2.30311">
        <ele>35.6</ele>
        <time>2025-01-16T11:38:59Z</time>
      </trkpt>
      <trkpt lat="47.55945" lon="-2.30311">
        <ele>35.6</ele>
        <time>2025-01-16T11:39:00Z</time>
      </trkpt>
      <trkpt lat="47.55945" lon="-2.30311">
        <ele>35.6</ele>
        <time>2025-01-16T11:39:01Z</time>
      </trkpt>
      <trkpt lat="47.55945" lon="-2.30311">
        <ele>35.6</ele>
        <time>2025-01-16T11:39:02Z</time>
      </trkpt>
      <trkpt lat="47.55945" lon="-2.30311">
        <ele>35.6</ele>
        <time>2025-01-16T11:39:03Z</time>
      </trkpt>
      <trkpt lat="47.55945" lon="-2.30311">
        <ele>35.6</ele>
        <time>2025-01-16T11:39:04Z</time>
      </trkpt>
      <trkpt lat="47.55945" lon="-2.30311">
        <ele>35.6</ele>
        <time>2025-01-16T11:39:05Z</time>
      </trkpt>
      <trkpt lat="47.55945" lon="-2.30311">
        <ele>35.6</ele>
        <time>2025-01-16T11:39:06Z</time>
      </trkpt>
      <trkpt lat="47.55945" lon="-2.30311">
        <ele>35.6</ele>
        <time>2025-01-16T11:39:07Z</time>
      </trkpt>
      <trkpt lat="47.55945" lon="-2.30311">
        <ele>35.6</ele>
        <time>2025-01-16T11:39:08Z</time>
      </trkpt>
      <trkpt lat="47.55945" lon="-2.30311">
        <ele>35.6</ele>
        <time>2025-01-16T11:39:09Z</time>
      </trkpt>
      <trkpt lat="47.55945" lon="-2.30311">
        <ele>35.6</ele>
        <time>2025-01-16T11:39:10Z</time>
      </trkpt>
      <trkpt lat="47.55945" lon="-2.30311">
        <ele>35.6</ele>
        <time>2025-01-16T11:39:11Z</time>
      </trkpt>
      <trkpt lat="47.55945" lon="-2.30311">
        <ele>35.6</ele>
        <time>2025-01-16T11:39:12Z</time>
      </trkpt>
      <trkpt lat="47.55945" lon="-2.30311">
        <ele>35.6</ele>
        <time>2025-01-16T11:39:13Z</time>
      </trkpt>
      <trkpt lat="47.55945" lon="-2.30311">
        <ele>35.6</ele>
        <time>2025-01-16T11:39:14Z</time>
      </trkpt>
      <trkpt lat="47.55945" lon="-2.30311">
        <ele>35.6</ele>
        <time>2025-01-16T11:39:15Z</time>
      </trkpt>
      <trkpt lat="47.55945" lon="-2.30311">
        <ele>35.6</ele>
        <time>2025-01-16T11:39:16Z</time>
      </trkpt>
      <trkpt lat="47.55945" lon="-2.30311">
        <ele>35.6</ele>
        <time>2025-01-16T11:39:17Z</time>
      </trkpt>
      <trkpt lat="47.55945" lon="-2.30311">
        <ele>35.6</ele>
        <time>2025-01-16T11:39:18Z</time>
      </trkpt>
      <trkpt lat="47.55945" lon="-2.30311">
        <ele>35.6</ele>
        <time>2025-01-16T11:39:19Z</time>
      </trkpt>
      <trkpt lat="47.55945" lon="-2.30311">
        <ele>35.6</ele>
        <time>2025-01-16T11:39:20Z</time>
      </trkpt>
      <trkpt lat="47.55945" lon="-2.30311">
        <ele>35.6</ele>
        <time>2025-01-16T11:39:21Z</time>
      </trkpt>
      <trkpt lat="47.55945" lon="-2.30311">
        <ele>35.6</ele>
        <time>2025-01-16T11:39:22Z</time>
      </trkpt>
      <trkpt lat="47.55945" lon="-2.30311">
        <ele>35.6</ele>
        <time>2025-01-16T11:39:23Z</time>
      </trkpt>
      <trkpt lat="47.55945" lon="-2.30311">
        <ele>35.6</ele>
        <time>2025-01-16T11:39:24Z</time>
      </trkpt>
      <trkpt lat="47.55945" lon="-2.30311">
        <ele>35.6</ele>
        <time>2025-01-16T11:39:25Z</time>
      </trkpt>
      <trkpt lat="47.55945" lon="-2.30311">
        <ele>35.6</ele>
        <time>2025-01-16T11:39:26Z</time>
      </trkpt>
      <trkpt lat="47.55945" lon="-2.30311">
        <ele>35.6</ele>
        <time>2025-01-16T11:39:27Z</time>
      </trkpt>
      <trkpt lat="47.55945" lon="-2.30311">
        <ele>35.6</ele>
        <time>2025-01-16T11:39:28Z</time>
      </trkpt>
      <trkpt lat="47.55945" lon="-2.30311">
        <ele>35.6</ele>
        <time>2025-01-16T11:39:29Z</time>
      </trkpt>
      <trkpt lat="47.55945" lon="-2.30311">
        <ele>35.6</ele>
        <time>2025-01-16T11:39:30Z</time>
      </trkpt>
      <trkpt lat="47.55945" lon="-2.30311">
        <ele>35.6</ele>
        <time>2025-01-16T11:39:31Z</time>
      </trkpt>
      <trkpt lat="47.55945" lon="-2.30311">
        <ele>35.6</ele>
        <time>2025-01-16T11:39:32Z</time>
      </trkpt>
      <trkpt lat="47.55945" lon="-2.30311">
        <ele>35.6</ele>
        <time>2025-01-16T11:39:33Z</time>
      </trkpt>
      <trkpt lat="47.55945" lon="-2.30311">
        <ele>35.6</ele>
        <time>2025-01-16T11:39:34Z</time>
      </trkpt>
      <trkpt lat="47.55945" lon="-2.30311">
        <ele>35.6</ele>
        <time>2025-01-16T11:39:35Z</time>
      </trkpt>
      <trkpt lat="47.55945" lon="-2.30311">
        <ele>35.6</ele>
        <time>2025-01-16T11:39:36Z</time>
      </trkpt>
      <trkpt lat="47.55945" lon="-2.30311">
        <ele>35.6</ele>
        <time>2025-01-16T11:39:37Z</time>
      </trkpt>
      <trkpt lat="47.55945" lon="-2.30311">
        <ele>35.6</ele>
        <time>2025-01-16T11:39:38Z</time>
      </trkpt>
      <trkpt lat="47.55945" lon="-2.30311">
        <ele>35.6</ele>
        <time>2025-01-16T11:39:39Z</time>
      </trkpt>
      <trkpt lat="47.55945" lon="-2.30311">
        <ele>35.6</ele>
        <time>2025-01-16T11:39:40Z</time>
      </trkpt>
      <trkpt lat="47.55945" lon="-2.30311">
        <ele>35.6</ele>
        <time>2025-01-16T11:39:41Z</time>
      </trkpt>
      <trkpt lat="47.55945" lon="-2.30311">
        <ele>35.6</ele>
        <time>2025-01-16T11:39:42Z</time>
      </trkpt>
      <trkpt lat="47.55945" lon="-2.30311">
        <ele>35.6</ele>
        <time>2025-01-16T11:39:43Z</time>
      </trkpt>
      <trkpt lat="47.55945" lon="-2.30311">
        <ele>35.6</ele>
        <time>2025-01-16T11:39:44Z</time>
      </trkpt>
      <trkpt lat="47.55945" lon="-2.30311">
        <ele>35.6</ele>
        <time>2025-01-16T11:39:45Z</time>
      </trkpt>
      <trkpt lat="47.55945" lon="-2.30311">
        <ele>35.6</ele>
        <time>2025-01-16T11:39:46Z</time>
      </trkpt>
      <trkpt lat="47.55945" lon="-2.30311">
        <ele>35.6</ele>
        <time>2025-01-16T11:39:47Z</time>
      </trkpt>
      <trkpt lat="47.55945" lon="-2.30311">
        <ele>35.6</ele>
        <time>2025-01-16T11:39:48Z</time>
      </trkpt>
      <trkpt lat="47.55945" lon="-2.30311">
        <ele>35.6</ele>
        <time>2025-01-16T11:39:49Z</time>
      </trkpt>
      <trkpt lat="47.55945" lon="-2.30311">
        <ele>35.6</ele>
        <time>2025-01-16T11:39:50Z</time>
      </trkpt>
      <trkpt lat="47.55945" lon="-2.30311">
        <ele>35.6</ele>
        <time>2025-01-16T11:39:51Z</time>
      </trkpt>
      <trkpt lat="47.55945" lon="-2.30311">
        <ele>35.6</ele>
        <time>2025-01-16T11:39:52Z</time>
      </trkpt>
      <trkpt lat="47.55945" lon="-2.30311">
        <ele>35.6</ele>
        <time>2025-01-16T11:39:53Z</time>
      </trkpt>
      <trkpt lat="47.55945" lon="-2.30311">
        <ele>35.6</ele>
        <time>2025-01-16T11:39:54Z</time>
      </trkpt>
      <trkpt lat="47.55945" lon="-2.30311">
        <ele>35.6</ele>
        <time>2025-01-16T11:39:55Z</time>
      </trkpt>
      <trkpt lat="47.55945" lon="-2.30311">
        <ele>35.6</ele>
        <time>2025-01-16T11:39:56Z</time>
      </trkpt>
      <trkpt lat="47.55945" lon="-2.30311">
        <ele>35.6</ele>
        <time>2025-01-16T11:39:57Z</time>
      </trkpt>
      <trkpt lat="47.55945" lon="-2.30311">
        <ele>35.6</ele>
        <time>2025-01-16T11:39:58Z</time>
      </trkpt>
      <trkpt lat="47.55945" lon="-2.30311">
        <ele>35.6</ele>
        <time>2025-01-16T11:39:59Z</time>
      </trkpt>
      <trkpt lat="47.55945" lon="-2.30311">
        <ele>35.6</ele>
        <time>2025-01-16T11:40:00Z</time>
      </trkpt>
      <trkpt lat="47.55945" lon="-2.30311">
        <ele>35.6</ele>
        <time>2025-01-16T11:40:01Z</time>
      </trkpt>
      <trkpt lat="47.55945" lon="-2.30311">
        <ele>35.6</ele>
        <time>2025-01-16T11:40:02Z</time>
      </trkpt>
      <trkpt lat="47.55945" lon="-2.30311">
        <ele>35.6</ele>
        <time>2025-01-16T11:40:03Z</time>
      </trkpt>
      <trkpt lat="47.55945" lon="-2.30311">
        <ele>35.6</ele>
        <time>2025-01-16T11:40:04Z</time>
      </trkpt>
      <trkpt lat="47.55945" lon="-2.30311">
        <ele>35.6</ele>
        <time>2025-01-16T11:40:05Z</time>
      </trkpt>
      <trkpt lat="47.55945" lon="-2.30311">
        <ele>35.6</ele>
        <time>2025-01-16T11:40:06Z</time>
      </trkpt>
      <trkpt lat="47.55945" lon="-2.30311">
        <ele>35.6</ele>
        <time>2025-01-16T11:40:07Z</time>
      </trkpt>
      <trkpt lat="47.55945" lon="-2.30311">
        <ele>35.6</ele>
        <time>2025-01-16T11:40:08Z</time>
      </trkpt>
      <trkpt lat="47.55945" lon="-2.30311">
        <ele>35.6</ele>
        <time>2025-01-16T11:40:09Z</time>
      </trkpt>
      <trkpt lat="47.55945" lon="-2.30311">
        <ele>35.6</ele>
        <time>2025-01-16T11:40:10Z</time>
      </trkpt>
      <trkpt lat="47.55945" lon="-2.30311">
        <ele>35.6</ele>
        <time>2025-01-16T11:40:11Z</time>
      </trkpt>
      <trkpt lat="47.55945" lon="-2.30311">
        <ele>35.6</ele>
        <time>2025-01-16T11:40:12Z</time>
      </trkpt>
      <trkpt lat="47.55945" lon="-2.30311">
        <ele>35.6</ele>
        <time>2025-01-16T11:40:13Z</time>
      </trkpt>
      <trkpt lat="47.55945" lon="-2.30311">
        <ele>35.6</ele>
        <time>2025-01-16T11:40:14Z</time>
      </trkpt>
      <trkpt lat="47.55945" lon="-2.30311">
        <ele>35.6</ele>
        <time>2025-01-16T11:40:15Z</time>
      </trkpt>
      <trkpt lat="47.55945" lon="-2.30311">
        <ele>35.6</ele>
        <time>2025-01-16T11:40:16Z</time>
      </trkpt>
      <trkpt lat="47.55945" lon="-2.30311">
        <ele>35.6</ele>
        <time>2025-01-16T11:40:17Z</time>
      </trkpt>
      <trkpt lat="47.55945" lon="-2.30311">
        <ele>35.6</ele>
        <time>2025-01-16T11:40:18Z</time>
      </trkpt>
      <trkpt lat="47.55945" lon="-2.30311">
        <ele>35.6</ele>
        <time>2025-01-16T11:40:19Z</time>
      </trkpt>
      <trkpt lat="47.55945" lon="-2.30311">
        <ele>35.6</ele>
        <time>2025-01-16T11:40:20Z</time>
      </trkpt>
      <trkpt lat="47.55945" lon="-2.30311">
        <ele>35.6</ele>
        <time>2025-01-16T11:40:21Z</time>
      </trkpt>
      <trkpt lat="47.55945" lon="-2.30311">
        <ele>35.6</ele>
        <time>2025-01-16T11:40:22Z</time>
      </trkpt>
      <trkpt lat="47.55945" lon="-2.30311">
        <ele>35.6</ele>
        <time>2025-01-16T11:40:23Z</time>
      </trkpt>
      <trkpt lat="47.55945" lon="-2.30311">
        <ele>35.6</ele>
        <time>2025-01-16T11:40:24Z</time>
      </trkpt>
      <trkpt lat="47.55945" lon="-2.30311">
        <ele>35.6</ele>
        <time>2025-01-16T11:40:25Z</time>
      </trkpt>
      <trkpt lat="47.55945" lon="-2.30311">
        <ele>35.6</ele>
        <time>2025-01-16T11:40:26Z</time>
      </trkpt>
      <trkpt lat="47.55945" lon="-2.30311">
        <ele>35.6</ele>
        <time>2025-01-16T11:40:27Z</time>
      </trkpt>
      <trkpt lat="47.55945" lon="-2.30311">
        <ele>35.6</ele>
        <time>2025-01-16T11:40:28Z</time>
      </trkpt>
      <trkpt lat="47.55945" lon="-2.30311">
        <ele>35.6</ele>
        <time>2025-01-16T11:40:29Z</time>
      </trkpt>
      <trkpt lat="47.55945" lon="-2.30311">
        <ele>35.6</ele>
        <time>2025-01-16T11:40:30Z</time>
      </trkpt>
      <trkpt lat="47.55945" lon="-2.30311">
        <ele>35.6</ele>
        <time>2025-01-16T11:40:31Z</time>
      </trkpt>
      <trkpt lat="47.55945" lon="-2.30311">
        <ele>35.6</ele>
        <time>2025-01-16T11:40:32Z</time>
      </trkpt>
      <trkpt lat="47.55945" lon="-2.30311">
        <ele>35.6</ele>
        <time>2025-01-16T11:40:33Z</time>
      </trkpt>
      <trkpt lat="47.55945" lon="-2.30311">
        <ele>35.6</ele>
        <time>2025-01-16T11:40:34Z</time>
      </trkpt>
      <trkpt lat="47.55945" lon="-2.30311">
        <ele>35.6</ele>
        <time>2025-01-16T11:40:35Z</time>
      </trkpt>
      <trkpt lat="47.55945" lon="-2.30311">
        <ele>35.6</ele>
        <time>2025-01-16T11:40:36Z</time>
      </trkpt>
      <trkpt lat="47.55945" lon="-2.30311">
        <ele>35.6</ele>
        <time>2025-01-16T11:40:37Z</time>
      </trkpt>
      <trkpt lat="47.55945" lon="-2.30311">
        <ele>35.6</ele>
        <time>2025-01-16T11:40:38Z</time>
      </trkpt>
      <trkpt lat="47.55945" lon="-2.30311">
        <ele>35.6</ele>
        <time>2025-01-16T11:40:39Z</time>
      </trkpt>
      <trkpt lat="47.55945" lon="-2.30311">
        <ele>35.6</ele>
        <time>2025-01-16T11:40:40Z</time>
      </trkpt>
      <trkpt lat="47.55945" lon="-2.30311">
        <ele>35.6</ele>
        <time>2025-01-16T11:40:41Z</time>
      </trkpt>
      <trkpt lat="47.55945" lon="-2.30311">
        <ele>35.6</ele>
        <time>2025-01-16T11:40:42Z</time>
      </trkpt>
      <trkpt lat="47.55945" lon="-2.30311">
        <ele>35.6</ele>
        <time>2025-01-16T11:40:43Z</time>
      </trkpt>
      <trkpt lat="47.55945" lon="-2.30311">
        <ele>35.6</ele>
        <time>2025-01-16T11:40:44Z</time>
      </trkpt>
      <trkpt lat="47.55945" lon="-2.30311">
        <ele>35.6</ele>
        <time>2025-01-16T11:40:45Z</time>
      </trkpt>
      <trkpt lat="47.55945" lon="-2.30311">
        <ele>35.6</ele>
        <time>2025-01-16T11:40:46Z</time>
      </trkpt>
      <trkpt lat="47.55945" lon="-2.30311">
        <ele>35.6</ele>
        <time>2025-01-16T11:40:47Z</time>
      </trkpt>
      <trkpt lat="47.55945" lon="-2.30311">
        <ele>35.6</ele>
        <time>2025-01-16T11:40:48Z</time>
      </trkpt>
      <trkpt lat="47.55945" lon="-2.30311">
        <ele>35.6</ele>
        <time>2025-01-16T11:40:49Z</time>
      </trkpt>
      <trkpt lat="47.55945" lon="-2.30311">
        <ele>35.6</ele>
        <time>2025-01-16T11:40:50Z</time>
      </trkpt>
      <trkpt lat="47.55945" lon="-2.30311">
        <ele>35.6</ele>
        <time>2025-01-16T11:40:51Z</time>
      </trkpt>
      <trkpt lat="47.55945" lon="-2.30311">
        <ele>35.6</ele>
        <time>2025-01-16T11:40:52Z</time>
      </trkpt>
      <trkpt lat="47.55945" lon="-2.30311">
        <ele>35.6</ele>
        <time>2025-01-16T11:40:53Z</time>
      </trkpt>
      <trkpt lat="47.55945" lon="-2.30311">
        <ele>35.6</ele>
        <time>2025-01-16T11:40:54Z</time>
      </trkpt>
      <trkpt lat="47.55945" lon="-2.30311">
        <ele>35.6</ele>
        <time>2025-01-16T11:40:55Z</time>
      </trkpt>
      <trkpt lat="47.55945" lon="-2.30312">
        <ele>35.7</ele>
        <time>2025-01-16T11:40:56Z</time>
      </trkpt>
      <trkpt lat="47.55945" lon="-2.30312">
        <ele>35.7</ele>
        <time>2025-01-16T11:40:57Z</time>
      </trkpt>
      <trkpt lat="47.55945" lon="-2.30312">
        <ele>35.7</ele>
        <time>2025-01-16T11:40:58Z</time>
      </trkpt>
      <trkpt lat="47.55945" lon="-2.30312">
        <ele>35.7</ele>
        <time>2025-01-16T11:40:59Z</time>
      </trkpt>
      <trkpt lat="47.55945" lon="-2.30312">
        <ele>35.7</ele>
        <time>2025-01-16T11:41:00Z</time>
      </trkpt>
      <trkpt lat="47.55945" lon="-2.30312">
        <ele>35.7</ele>
        <time>2025-01-16T11:41:01Z</time>
      </trkpt>
      <trkpt lat="47.55945" lon="-2.30312">
        <ele>35.7</ele>
        <time>2025-01-16T11:41:02Z</time>
      </trkpt>
      <trkpt lat="47.55945" lon="-2.30312">
        <ele>35.7</ele>
        <time>2025-01-16T11:41:03Z</time>
      </trkpt>
      <trkpt lat="47.55945" lon="-2.30312">
        <ele>35.7</ele>
        <time>2025-01-16T11:41:04Z</time>
      </trkpt>
      <trkpt lat="47.55945" lon="-2.30312">
        <ele>35.7</ele>
        <time>2025-01-16T11:41:05Z</time>
      </trkpt>
      <trkpt lat="47.55945" lon="-2.30312">
        <ele>35.7</ele>
        <time>2025-01-16T11:41:06Z</time>
      </trkpt>
      <trkpt lat="47.55945" lon="-2.30312">
        <ele>35.7</ele>
        <time>2025-01-16T11:41:07Z</time>
      </trkpt>
      <trkpt lat="47.55945" lon="-2.30312">
        <ele>35.7</ele>
        <time>2025-01-16T11:41:08Z</time>
      </trkpt>
      <trkpt lat="47.55945" lon="-2.30312">
        <ele>35.7</ele>
        <time>2025-01-16T11:41:09Z</time>
      </trkpt>
      <trkpt lat="47.55945" lon="-2.30312">
        <ele>35.7</ele>
        <time>2025-01-16T11:41:10Z</time>
      </trkpt>
      <trkpt lat="47.55945" lon="-2.30312">
        <ele>35.7</ele>
        <time>2025-01-16T11:41:11Z</time>
      </trkpt>
      <trkpt lat="47.55945" lon="-2.30312">
        <ele>35.7</ele>
        <time>2025-01-16T11:41:12Z</time>
      </trkpt>
      <trkpt lat="47.55945" lon="-2.30312">
        <ele>35.7</ele>
        <time>2025-01-16T11:41:13Z</time>
      </trkpt>
      <trkpt lat="47.55945" lon="-2.30312">
        <ele>35.7</ele>
        <time>2025-01-16T11:41:14Z</time>
      </trkpt>
      <trkpt lat="47.55945" lon="-2.30312">
        <ele>35.7</ele>
        <time>2025-01-16T11:41:15Z</time>
      </trkpt>
      <trkpt lat="47.55945" lon="-2.30312">
        <ele>35.7</ele>
        <time>2025-01-16T11:41:16Z</time>
      </trkpt>
      <trkpt lat="47.55945" lon="-2.30312">
        <ele>35.7</ele>
        <time>2025-01-16T11:41:17Z</time>
      </trkpt>
      <trkpt lat="47.55945" lon="-2.30312">
        <ele>35.7</ele>
        <time>2025-01-16T11:41:18Z</time>
      </trkpt>
      <trkpt lat="47.55945" lon="-2.30312">
        <ele>35.7</ele>
        <time>2025-01-16T11:41:19Z</time>
      </trkpt>
      <trkpt lat="47.55945" lon="-2.30312">
        <ele>35.7</ele>
        <time>2025-01-16T11:41:20Z</time>
      </trkpt>
      <trkpt lat="47.55945" lon="-2.30312">
        <ele>35.7</ele>
        <time>2025-01-16T11:41:21Z</time>
      </trkpt>
      <trkpt lat="47.55945" lon="-2.30312">
        <ele>35.7</ele>
        <time>2025-01-16T11:41:22Z</time>
      </trkpt>
      <trkpt lat="47.55945" lon="-2.30313">
        <ele>35.8</ele>
        <time>2025-01-16T11:41:23Z</time>
      </trkpt>
      <trkpt lat="47.55945" lon="-2.30313">
        <ele>35.8</ele>
        <time>2025-01-16T11:41:24Z</time>
      </trkpt>
      <trkpt lat="47.55945" lon="-2.30313">
        <ele>35.8</ele>
        <time>2025-01-16T11:41:25Z</time>
      </trkpt>
      <trkpt lat="47.55945" lon="-2.30313">
        <ele>35.8</ele>
        <time>2025-01-16T11:41:26Z</time>
      </trkpt>
      <trkpt lat="47.55945" lon="-2.30313">
        <ele>35.8</ele>
        <time>2025-01-16T11:41:27Z</time>
      </trkpt>
      <trkpt lat="47.55945" lon="-2.30313">
        <ele>35.8</ele>
        <time>2025-01-16T11:41:28Z</time>
      </trkpt>
      <trkpt lat="47.55946" lon="-2.30313">
        <ele>35.8</ele>
        <time>2025-01-16T11:41:29Z</time>
      </trkpt>
      <trkpt lat="47.55946" lon="-2.30314">
        <ele>35.9</ele>
        <time>2025-01-16T11:41:30Z</time>
      </trkpt>
      <trkpt lat="47.55946" lon="-2.30314">
        <ele>35.9</ele>
        <time>2025-01-16T11:41:31Z</time>
      </trkpt>
      <trkpt lat="47.55946" lon="-2.30313">
        <ele>35.8</ele>
        <time>2025-01-16T11:41:32Z</time>
      </trkpt>
      <trkpt lat="47.55946" lon="-2.30313">
        <ele>35.8</ele>
        <time>2025-01-16T11:41:33Z</time>
      </trkpt>
      <trkpt lat="47.55946" lon="-2.30313">
        <ele>35.8</ele>
        <time>2025-01-16T11:41:34Z</time>
      </trkpt>
      <trkpt lat="47.55946" lon="-2.30313">
        <ele>35.8</ele>
        <time>2025-01-16T11:41:35Z</time>
      </trkpt>
      <trkpt lat="47.55946" lon="-2.30313">
        <ele>35.8</ele>
        <time>2025-01-16T11:41:36Z</time>
      </trkpt>
      <trkpt lat="47.55946" lon="-2.30313">
        <ele>35.8</ele>
        <time>2025-01-16T11:41:37Z</time>
      </trkpt>
      <trkpt lat="47.55946" lon="-2.30313">
        <ele>35.8</ele>
        <time>2025-01-16T11:41:38Z</time>
      </trkpt>
      <trkpt lat="47.55946" lon="-2.30313">
        <ele>35.8</ele>
        <time>2025-01-16T11:41:39Z</time>
      </trkpt>
      <trkpt lat="47.55946" lon="-2.30313">
        <ele>35.8</ele>
        <time>2025-01-16T11:41:40Z</time>
      </trkpt>
      <trkpt lat="47.55946" lon="-2.30313">
        <ele>35.8</ele>
        <time>2025-01-16T11:41:41Z</time>
      </trkpt>
      <trkpt lat="47.55946" lon="-2.30313">
        <ele>35.8</ele>
        <time>2025-01-16T11:41:42Z</time>
      </trkpt>
      <trkpt lat="47.55946" lon="-2.30313">
        <ele>35.8</ele>
        <time>2025-01-16T11:41:43Z</time>
      </trkpt>
      <trkpt lat="47.55946" lon="-2.30313">
        <ele>35.8</ele>
        <time>2025-01-16T11:41:44Z</time>
      </trkpt>
      <trkpt lat="47.55946" lon="-2.30313">
        <ele>35.8</ele>
        <time>2025-01-16T11:41:45Z</time>
      </trkpt>
      <trkpt lat="47.55946" lon="-2.30313">
        <ele>35.8</ele>
        <time>2025-01-16T11:41:46Z</time>
      </trkpt>
      <trkpt lat="47.55946" lon="-2.30313">
        <ele>35.8</ele>
        <time>2025-01-16T11:41:47Z</time>
      </trkpt>
      <trkpt lat="47.55946" lon="-2.30313">
        <ele>35.8</ele>
        <time>2025-01-16T11:41:48Z</time>
      </trkpt>
      <trkpt lat="47.55946" lon="-2.30313">
        <ele>35.8</ele>
        <time>2025-01-16T11:41:49Z</time>
      </trkpt>
      <trkpt lat="47.55946" lon="-2.30313">
        <ele>35.8</ele>
        <time>2025-01-16T11:41:50Z</time>
      </trkpt>
      <trkpt lat="47.55946" lon="-2.30313">
        <ele>35.8</ele>
        <time>2025-01-16T11:41:51Z</time>
      </trkpt>
      <trkpt lat="47.55946" lon="-2.30313">
        <ele>35.8</ele>
        <time>2025-01-16T11:41:52Z</time>
      </trkpt>
      <trkpt lat="47.55946" lon="-2.30313">
        <ele>35.8</ele>
        <time>2025-01-16T11:41:53Z</time>
      </trkpt>
      <trkpt lat="47.55946" lon="-2.30313">
        <ele>35.8</ele>
        <time>2025-01-16T11:41:54Z</time>
      </trkpt>
      <trkpt lat="47.55946" lon="-2.30313">
        <ele>35.8</ele>
        <time>2025-01-16T11:41:55Z</time>
      </trkpt>
      <trkpt lat="47.55946" lon="-2.30313">
        <ele>35.8</ele>
        <time>2025-01-16T11:41:56Z</time>
      </trkpt>
      <trkpt lat="47.55946" lon="-2.30313">
        <ele>35.8</ele>
        <time>2025-01-16T11:41:57Z</time>
      </trkpt>
      <trkpt lat="47.55946" lon="-2.30313">
        <ele>35.8</ele>
        <time>2025-01-16T11:41:58Z</time>
      </trkpt>
      <trkpt lat="47.55946" lon="-2.30313">
        <ele>35.8</ele>
        <time>2025-01-16T11:41:59Z</time>
      </trkpt>
      <trkpt lat="47.55946" lon="-2.30313">
        <ele>35.8</ele>
        <time>2025-01-16T11:42:00Z</time>
      </trkpt>
      <trkpt lat="47.55946" lon="-2.30313">
        <ele>35.8</ele>
        <time>2025-01-16T11:42:01Z</time>
      </trkpt>
      <trkpt lat="47.55946" lon="-2.30313">
        <ele>35.8</ele>
        <time>2025-01-16T11:42:02Z</time>
      </trkpt>
      <trkpt lat="47.55946" lon="-2.30313">
        <ele>35.8</ele>
        <time>2025-01-16T11:42:03Z</time>
      </trkpt>
      <trkpt lat="47.55946" lon="-2.30313">
        <ele>35.8</ele>
        <time>2025-01-16T11:42:04Z</time>
      </trkpt>
      <trkpt lat="47.55946" lon="-2.30313">
        <ele>35.8</ele>
        <time>2025-01-16T11:42:05Z</time>
      </trkpt>
      <trkpt lat="47.55946" lon="-2.30313">
        <ele>35.8</ele>
        <time>2025-01-16T11:42:06Z</time>
      </trkpt>
      <trkpt lat="47.55946" lon="-2.30313">
        <ele>35.8</ele>
        <time>2025-01-16T11:42:07Z</time>
      </trkpt>
      <trkpt lat="47.55946" lon="-2.30313">
        <ele>35.8</ele>
        <time>2025-01-16T11:42:08Z</time>
      </trkpt>
      <trkpt lat="47.55946" lon="-2.30313">
        <ele>35.8</ele>
        <time>2025-01-16T11:42:09Z</time>
      </trkpt>
      <trkpt lat="47.55946" lon="-2.30313">
        <ele>35.8</ele>
        <time>2025-01-16T11:42:10Z</time>
      </trkpt>
      <trkpt lat="47.55946" lon="-2.30313">
        <ele>35.8</ele>
        <time>2025-01-16T11:42:11Z</time>
      </trkpt>
      <trkpt lat="47.55946" lon="-2.30313">
        <ele>35.8</ele>
        <time>2025-01-16T11:42:12Z</time>
      </trkpt>
      <trkpt lat="47.55946" lon="-2.30313">
        <ele>35.8</ele>
        <time>2025-01-16T11:42:13Z</time>
      </trkpt>
      <trkpt lat="47.55946" lon="-2.30313">
        <ele>35.8</ele>
        <time>2025-01-16T11:42:14Z</time>
      </trkpt>
      <trkpt lat="47.55946" lon="-2.30313">
        <ele>35.8</ele>
        <time>2025-01-16T11:42:15Z</time>
      </trkpt>
      <trkpt lat="47.55946" lon="-2.30313">
        <ele>35.8</ele>
        <time>2025-01-16T11:42:16Z</time>
      </trkpt>
      <trkpt lat="47.55946" lon="-2.30313">
        <ele>35.8</ele>
        <time>2025-01-16T11:42:17Z</time>
      </trkpt>
      <trkpt lat="47.55946" lon="-2.30313">
        <ele>35.8</ele>
        <time>2025-01-16T11:42:18Z</time>
      </trkpt>
      <trkpt lat="47.55946" lon="-2.30313">
        <ele>35.8</ele>
        <time>2025-01-16T11:42:19Z</time>
      </trkpt>
      <trkpt lat="47.55946" lon="-2.30313">
        <ele>35.8</ele>
        <time>2025-01-16T11:42:20Z</time>
      </trkpt>
      <trkpt lat="47.55946" lon="-2.30313">
        <ele>35.8</ele>
        <time>2025-01-16T11:42:21Z</time>
      </trkpt>
      <trkpt lat="47.55946" lon="-2.30313">
        <ele>35.8</ele>
        <time>2025-01-16T11:42:22Z</time>
      </trkpt>
      <trkpt lat="47.55946" lon="-2.30313">
        <ele>35.8</ele>
        <time>2025-01-16T11:42:23Z</time>
      </trkpt>
      <trkpt lat="47.55946" lon="-2.30313">
        <ele>35.8</ele>
        <time>2025-01-16T11:42:24Z</time>
      </trkpt>
      <trkpt lat="47.55946" lon="-2.30313">
        <ele>35.8</ele>
        <time>2025-01-16T11:42:25Z</time>
      </trkpt>
      <trkpt lat="47.55946" lon="-2.30313">
        <ele>35.8</ele>
        <time>2025-01-16T11:42:26Z</time>
      </trkpt>
      <trkpt lat="47.55946" lon="-2.30313">
        <ele>35.8</ele>
        <time>2025-01-16T11:42:27Z</time>
      </trkpt>
      <trkpt lat="47.55946" lon="-2.30313">
        <ele>35.8</ele>
        <time>2025-01-16T11:42:28Z</time>
      </trkpt>
      <trkpt lat="47.55946" lon="-2.30313">
        <ele>35.8</ele>
        <time>2025-01-16T11:42:29Z</time>
      </trkpt>
      <trkpt lat="47.55946" lon="-2.30313">
        <ele>35.8</ele>
        <time>2025-01-16T11:42:30Z</time>
      </trkpt>
      <trkpt lat="47.55946" lon="-2.30313">
        <ele>35.8</ele>
        <time>2025-01-16T11:42:31Z</time>
      </trkpt>
      <trkpt lat="47.55946" lon="-2.30313">
        <ele>35.8</ele>
        <time>2025-01-16T11:42:32Z</time>
      </trkpt>
      <trkpt lat="47.55946" lon="-2.30313">
        <ele>35.8</ele>
        <time>2025-01-16T11:42:33Z</time>
      </trkpt>
      <trkpt lat="47.55946" lon="-2.30313">
        <ele>35.8</ele>
        <time>2025-01-16T11:42:34Z</time>
      </trkpt>
      <trkpt lat="47.55946" lon="-2.30313">
        <ele>35.8</ele>
        <time>2025-01-16T11:42:35Z</time>
      </trkpt>
      <trkpt lat="47.55946" lon="-2.30313">
        <ele>35.8</ele>
        <time>2025-01-16T11:42:36Z</time>
      </trkpt>
      <trkpt lat="47.55946" lon="-2.30313">
        <ele>35.8</ele>
        <time>2025-01-16T11:42:37Z</time>
      </trkpt>
      <trkpt lat="47.55946" lon="-2.30313">
        <ele>35.8</ele>
        <time>2025-01-16T11:42:38Z</time>
      </trkpt>
      <trkpt lat="47.55946" lon="-2.30313">
        <ele>35.8</ele>
        <time>2025-01-16T11:42:39Z</time>
      </trkpt>
      <trkpt lat="47.55946" lon="-2.30313">
        <ele>35.8</ele>
        <time>2025-01-16T11:42:40Z</time>
      </trkpt>
      <trkpt lat="47.55946" lon="-2.30313">
        <ele>35.8</ele>
        <time>2025-01-16T11:42:41Z</time>
      </trkpt>
      <trkpt lat="47.55946" lon="-2.30313">
        <ele>35.8</ele>
        <time>2025-01-16T11:42:42Z</time>
      </trkpt>
      <trkpt lat="47.55946" lon="-2.30313">
        <ele>35.8</ele>
        <time>2025-01-16T11:42:43Z</time>
      </trkpt>
      <trkpt lat="47.55946" lon="-2.30313">
        <ele>35.8</ele>
        <time>2025-01-16T11:42:44Z</time>
      </trkpt>
      <trkpt lat="47.55946" lon="-2.30313">
        <ele>35.8</ele>
        <time>2025-01-16T11:42:45Z</time>
      </trkpt>
      <trkpt lat="47.55946" lon="-2.30313">
        <ele>35.8</ele>
        <time>2025-01-16T11:42:46Z</time>
      </trkpt>
      <trkpt lat="47.55946" lon="-2.30313">
        <ele>35.8</ele>
        <time>2025-01-16T11:42:47Z</time>
      </trkpt>
      <trkpt lat="47.55946" lon="-2.30313">
        <ele>35.8</ele>
        <time>2025-01-16T11:42:48Z</time>
      </trkpt>
      <trkpt lat="47.55946" lon="-2.30313">
        <ele>35.8</ele>
        <time>2025-01-16T11:42:49Z</time>
      </trkpt>
      <trkpt lat="47.55946" lon="-2.30314">
        <ele>35.9</ele>
        <time>2025-01-16T11:42:50Z</time>
      </trkpt>
      <trkpt lat="47.55946" lon="-2.30313">
        <ele>35.8</ele>
        <time>2025-01-16T11:42:51Z</time>
      </trkpt>
      <trkpt lat="47.55946" lon="-2.30313">
        <ele>35.8</ele>
        <time>2025-01-16T11:42:52Z</time>
      </trkpt>
      <trkpt lat="47.55947" lon="-2.30313">
        <ele>35.7</ele>
        <time>2025-01-16T11:42:53Z</time>
      </trkpt>
      <trkpt lat="47.55947" lon="-2.30313">
        <ele>35.7</ele>
        <time>2025-01-16T11:42:54Z</time>
      </trkpt>
      <trkpt lat="47.55947" lon="-2.30313">
        <ele>35.7</ele>
        <time>2025-01-16T11:42:55Z</time>
      </trkpt>
      <trkpt lat="47.55947" lon="-2.30313">
        <ele>35.7</ele>
        <time>2025-01-16T11:42:56Z</time>
      </trkpt>
      <trkpt lat="47.55947" lon="-2.30312">
        <ele>35.6</ele>
        <time>2025-01-16T11:42:57Z</time>
      </trkpt>
      <trkpt lat="47.55947" lon="-2.30312">
        <ele>35.6</ele>
        <time>2025-01-16T11:42:58Z</time>
      </trkpt>
      <trkpt lat="47.55947" lon="-2.30312">
        <ele>35.6</ele>
        <time>2025-01-16T11:42:59Z</time>
      </trkpt>
      <trkpt lat="47.55947" lon="-2.30313">
        <ele>35.7</ele>
        <time>2025-01-16T11:43:00Z</time>
      </trkpt>
      <trkpt lat="47.55947" lon="-2.30313">
        <ele>35.7</ele>
        <time>2025-01-16T11:43:01Z</time>
      </trkpt>
      <trkpt lat="47.55947" lon="-2.30313">
        <ele>35.7</ele>
        <time>2025-01-16T11:43:02Z</time>
      </trkpt>
      <trkpt lat="47.55947" lon="-2.30313">
        <ele>35.7</ele>
        <time>2025-01-16T11:43:03Z</time>
      </trkpt>
      <trkpt lat="47.55947" lon="-2.30313">
        <ele>35.7</ele>
        <time>2025-01-16T11:43:04Z</time>
      </trkpt>
      <trkpt lat="47.55947" lon="-2.30313">
        <ele>35.7</ele>
        <time>2025-01-16T11:43:05Z</time>
      </trkpt>
      <trkpt lat="47.55947" lon="-2.30313">
        <ele>35.7</ele>
        <time>2025-01-16T11:43:06Z</time>
      </trkpt>
      <trkpt lat="47.55947" lon="-2.30313">
        <ele>35.7</ele>
        <time>2025-01-16T11:43:07Z</time>
      </trkpt>
      <trkpt lat="47.55947" lon="-2.30313">
        <ele>35.7</ele>
        <time>2025-01-16T11:43:08Z</time>
      </trkpt>
      <trkpt lat="47.55947" lon="-2.30313">
        <ele>35.7</ele>
        <time>2025-01-16T11:43:09Z</time>
      </trkpt>
      <trkpt lat="47.55947" lon="-2.30313">
        <ele>35.7</ele>
        <time>2025-01-16T11:43:10Z</time>
      </trkpt>
      <trkpt lat="47.55947" lon="-2.30313">
        <ele>35.7</ele>
        <time>2025-01-16T11:43:11Z</time>
      </trkpt>
      <trkpt lat="47.55946" lon="-2.30313">
        <ele>35.8</ele>
        <time>2025-01-16T11:43:12Z</time>
      </trkpt>
      <trkpt lat="47.55946" lon="-2.30313">
        <ele>35.8</ele>
        <time>2025-01-16T11:43:13Z</time>
      </trkpt>
      <trkpt lat="47.55946" lon="-2.30313">
        <ele>35.8</ele>
        <time>2025-01-16T11:43:14Z</time>
      </trkpt>
      <trkpt lat="47.55945" lon="-2.30313">
        <ele>35.8</ele>
        <time>2025-01-16T11:43:15Z</time>
      </trkpt>
      <trkpt lat="47.55945" lon="-2.30313">
        <ele>35.8</ele>
        <time>2025-01-16T11:43:16Z</time>
      </trkpt>
      <trkpt lat="47.55945" lon="-2.30313">
        <ele>35.8</ele>
        <time>2025-01-16T11:43:17Z</time>
      </trkpt>
      <trkpt lat="47.55945" lon="-2.30313">
        <ele>35.8</ele>
        <time>2025-01-16T11:43:18Z</time>
      </trkpt>
      <trkpt lat="47.55946" lon="-2.30313">
        <ele>35.8</ele>
        <time>2025-01-16T11:43:19Z</time>
      </trkpt>
      <trkpt lat="47.55946" lon="-2.30313">
        <ele>35.8</ele>
        <time>2025-01-16T11:43:20Z</time>
      </trkpt>
      <trkpt lat="47.55946" lon="-2.30312">
        <ele>35.7</ele>
        <time>2025-01-16T11:43:21Z</time>
      </trkpt>
      <trkpt lat="47.55946" lon="-2.30313">
        <ele>35.8</ele>
        <time>2025-01-16T11:43:22Z</time>
      </trkpt>
      <trkpt lat="47.55945" lon="-2.30313">
        <ele>35.8</ele>
        <time>2025-01-16T11:43:23Z</time>
      </trkpt>
      <trkpt lat="47.55945" lon="-2.30313">
        <ele>35.8</ele>
        <time>2025-01-16T11:43:24Z</time>
      </trkpt>
      <trkpt lat="47.55945" lon="-2.30313">
        <ele>35.8</ele>
        <time>2025-01-16T11:43:25Z</time>
      </trkpt>
      <trkpt lat="47.55945" lon="-2.30314">
        <ele>35.9</ele>
        <time>2025-01-16T11:43:26Z</time>
      </trkpt>
      <trkpt lat="47.55944" lon="-2.30314">
        <ele>35.9</ele>
        <time>2025-01-16T11:43:27Z</time>
      </trkpt>
      <trkpt lat="47.55944" lon="-2.30315">
        <ele>36</ele>
        <time>2025-01-16T11:43:28Z</time>
      </trkpt>
      <trkpt lat="47.55944" lon="-2.30315">
        <ele>36</ele>
        <time>2025-01-16T11:43:29Z</time>
      </trkpt>
      <trkpt lat="47.55944" lon="-2.30315">
        <ele>36</ele>
        <time>2025-01-16T11:43:30Z</time>
      </trkpt>
      <trkpt lat="47.55944" lon="-2.30315">
        <ele>36</ele>
        <time>2025-01-16T11:43:31Z</time>
      </trkpt>
      <trkpt lat="47.55944" lon="-2.30316">
        <ele>36.2</ele>
        <time>2025-01-16T11:43:32Z</time>
      </trkpt>
      <trkpt lat="47.55944" lon="-2.30315">
        <ele>36</ele>
        <time>2025-01-16T11:43:33Z</time>
      </trkpt>
      <trkpt lat="47.55945" lon="-2.30315">
        <ele>36</ele>
        <time>2025-01-16T11:43:34Z</time>
      </trkpt>
      <trkpt lat="47.55945" lon="-2.30316">
        <ele>36.1</ele>
        <time>2025-01-16T11:43:35Z</time>
      </trkpt>
      <trkpt lat="47.55945" lon="-2.30316">
        <ele>36.1</ele>
        <time>2025-01-16T11:43:36Z</time>
      </trkpt>
      <trkpt lat="47.55945" lon="-2.30316">
        <ele>36.1</ele>
        <time>2025-01-16T11:43:37Z</time>
      </trkpt>
      <trkpt lat="47.55945" lon="-2.30316">
        <ele>36.1</ele>
        <time>2025-01-16T11:43:38Z</time>
      </trkpt>
      <trkpt lat="47.55945" lon="-2.30316">
        <ele>36.1</ele>
        <time>2025-01-16T11:43:39Z</time>
      </trkpt>
      <trkpt lat="47.55945" lon="-2.30316">
        <ele>36.1</ele>
        <time>2025-01-16T11:43:40Z</time>
      </trkpt>
      <trkpt lat="47.55945" lon="-2.30316">
        <ele>36.1</ele>
        <time>2025-01-16T11:43:41Z</time>
      </trkpt>
      <trkpt lat="47.55945" lon="-2.30316">
        <ele>36.1</ele>
        <time>2025-01-16T11:43:42Z</time>
      </trkpt>
      <trkpt lat="47.55945" lon="-2.30316">
        <ele>36.1</ele>
        <time>2025-01-16T11:43:43Z</time>
      </trkpt>
      <trkpt lat="47.55945" lon="-2.30316">
        <ele>36.1</ele>
        <time>2025-01-16T11:43:44Z</time>
      </trkpt>
      <trkpt lat="47.55945" lon="-2.30316">
        <ele>36.1</ele>
        <time>2025-01-16T11:43:45Z</time>
      </trkpt>
      <trkpt lat="47.55945" lon="-2.30316">
        <ele>36.1</ele>
        <time>2025-01-16T11:43:46Z</time>
      </trkpt>
      <trkpt lat="47.55945" lon="-2.30316">
        <ele>36.1</ele>
        <time>2025-01-16T11:43:47Z</time>
      </trkpt>
      <trkpt lat="47.55945" lon="-2.30316">
        <ele>36.1</ele>
        <time>2025-01-16T11:43:48Z</time>
      </trkpt>
      <trkpt lat="47.55945" lon="-2.30316">
        <ele>36.1</ele>
        <time>2025-01-16T11:43:49Z</time>
      </trkpt>
      <trkpt lat="47.55945" lon="-2.30316">
        <ele>36.1</ele>
        <time>2025-01-16T11:43:50Z</time>
      </trkpt>
      <trkpt lat="47.55945" lon="-2.30316">
        <ele>36.1</ele>
        <time>2025-01-16T11:43:51Z</time>
      </trkpt>
      <trkpt lat="47.55945" lon="-2.30316">
        <ele>36.1</ele>
        <time>2025-01-16T11:43:52Z</time>
      </trkpt>
      <trkpt lat="47.55945" lon="-2.30316">
        <ele>36.1</ele>
        <time>2025-01-16T11:43:53Z</time>
      </trkpt>
      <trkpt lat="47.55945" lon="-2.30316">
        <ele>36.1</ele>
        <time>2025-01-16T11:43:54Z</time>
      </trkpt>
      <trkpt lat="47.55945" lon="-2.30316">
        <ele>36.1</ele>
        <time>2025-01-16T11:43:55Z</time>
      </trkpt>
      <trkpt lat="47.55945" lon="-2.30316">
        <ele>36.1</ele>
        <time>2025-01-16T11:43:56Z</time>
      </trkpt>
      <trkpt lat="47.55945" lon="-2.30316">
        <ele>36.1</ele>
        <time>2025-01-16T11:43:57Z</time>
      </trkpt>
      <trkpt lat="47.55945" lon="-2.30316">
        <ele>36.1</ele>
        <time>2025-01-16T11:43:58Z</time>
      </trkpt>
      <trkpt lat="47.55945" lon="-2.30316">
        <ele>36.1</ele>
        <time>2025-01-16T11:43:59Z</time>
      </trkpt>
      <trkpt lat="47.55945" lon="-2.30316">
        <ele>36.1</ele>
        <time>2025-01-16T11:44:00Z</time>
      </trkpt>
      <trkpt lat="47.55945" lon="-2.30316">
        <ele>36.1</ele>
        <time>2025-01-16T11:44:01Z</time>
      </trkpt>
      <trkpt lat="47.55945" lon="-2.30316">
        <ele>36.1</ele>
        <time>2025-01-16T11:44:02Z</time>
      </trkpt>
      <trkpt lat="47.55945" lon="-2.30316">
        <ele>36.1</ele>
        <time>2025-01-16T11:44:03Z</time>
      </trkpt>
      <trkpt lat="47.55945" lon="-2.30316">
        <ele>36.1</ele>
        <time>2025-01-16T11:44:04Z</time>
      </trkpt>
      <trkpt lat="47.55945" lon="-2.30316">
        <ele>36.1</ele>
        <time>2025-01-16T11:44:05Z</time>
      </trkpt>
      <trkpt lat="47.55945" lon="-2.30316">
        <ele>36.1</ele>
        <time>2025-01-16T11:44:06Z</time>
      </trkpt>
      <trkpt lat="47.55945" lon="-2.30316">
        <ele>36.1</ele>
        <time>2025-01-16T11:44:07Z</time>
      </trkpt>
      <trkpt lat="47.55945" lon="-2.30316">
        <ele>36.1</ele>
        <time>2025-01-16T11:44:08Z</time>
      </trkpt>
      <trkpt lat="47.55945" lon="-2.30316">
        <ele>36.1</ele>
        <time>2025-01-16T11:44:09Z</time>
      </trkpt>
      <trkpt lat="47.55945" lon="-2.30316">
        <ele>36.1</ele>
        <time>2025-01-16T11:44:10Z</time>
      </trkpt>
      <trkpt lat="47.55946" lon="-2.30316">
        <ele>36.1</ele>
        <time>2025-01-16T11:44:11Z</time>
      </trkpt>
      <trkpt lat="47.55946" lon="-2.30316">
        <ele>36.1</ele>
        <time>2025-01-16T11:44:12Z</time>
      </trkpt>
      <trkpt lat="47.55946" lon="-2.30316">
        <ele>36.1</ele>
        <time>2025-01-16T11:44:13Z</time>
      </trkpt>
      <trkpt lat="47.55947" lon="-2.30316">
        <ele>36.1</ele>
        <time>2025-01-16T11:44:14Z</time>
      </trkpt>
      <trkpt lat="47.55947" lon="-2.30316">
        <ele>36.1</ele>
        <time>2025-01-16T11:44:15Z</time>
      </trkpt>
      <trkpt lat="47.55947" lon="-2.30316">
        <ele>36.1</ele>
        <time>2025-01-16T11:44:16Z</time>
      </trkpt>
      <trkpt lat="47.55947" lon="-2.30316">
        <ele>36.1</ele>
        <time>2025-01-16T11:44:17Z</time>
      </trkpt>
      <trkpt lat="47.55947" lon="-2.30316">
        <ele>36.1</ele>
        <time>2025-01-16T11:44:18Z</time>
      </trkpt>
      <trkpt lat="47.55947" lon="-2.30316">
        <ele>36.1</ele>
        <time>2025-01-16T11:44:19Z</time>
      </trkpt>
      <trkpt lat="47.55947" lon="-2.30317">
        <ele>36.2</ele>
        <time>2025-01-16T11:44:20Z</time>
      </trkpt>
      <trkpt lat="47.55947" lon="-2.30317">
        <ele>36.2</ele>
        <time>2025-01-16T11:44:21Z</time>
      </trkpt>
      <trkpt lat="47.55947" lon="-2.30316">
        <ele>36.1</ele>
        <time>2025-01-16T11:44:22Z</time>
      </trkpt>
      <trkpt lat="47.55947" lon="-2.30316">
        <ele>36.1</ele>
        <time>2025-01-16T11:44:23Z</time>
      </trkpt>
      <trkpt lat="47.55947" lon="-2.30315">
        <ele>36</ele>
        <time>2025-01-16T11:44:24Z</time>
      </trkpt>
      <trkpt lat="47.55947" lon="-2.30315">
        <ele>36</ele>
        <time>2025-01-16T11:44:25Z</time>
      </trkpt>
      <trkpt lat="47.55948" lon="-2.30316">
        <ele>36</ele>
        <time>2025-01-16T11:44:26Z</time>
      </trkpt>
      <trkpt lat="47.55948" lon="-2.30316">
        <ele>36</ele>
        <time>2025-01-16T11:44:27Z</time>
      </trkpt>
      <trkpt lat="47.55948" lon="-2.30315">
        <ele>35.9</ele>
        <time>2025-01-16T11:44:28Z</time>
      </trkpt>
      <trkpt lat="47.55948" lon="-2.30315">
        <ele>35.9</ele>
        <time>2025-01-16T11:44:29Z</time>
      </trkpt>
      <trkpt lat="47.55948" lon="-2.30315">
        <ele>35.9</ele>
        <time>2025-01-16T11:44:30Z</time>
      </trkpt>
      <trkpt lat="47.55948" lon="-2.30315">
        <ele>35.9</ele>
        <time>2025-01-16T11:44:31Z</time>
      </trkpt>
      <trkpt lat="47.55948" lon="-2.30315">
        <ele>35.9</ele>
        <time>2025-01-16T11:44:32Z</time>
      </trkpt>
      <trkpt lat="47.55948" lon="-2.30315">
        <ele>35.9</ele>
        <time>2025-01-16T11:44:33Z</time>
      </trkpt>
      <trkpt lat="47.55948" lon="-2.30315">
        <ele>35.9</ele>
        <time>2025-01-16T11:44:34Z</time>
      </trkpt>
      <trkpt lat="47.55948" lon="-2.30315">
        <ele>35.9</ele>
        <time>2025-01-16T11:44:35Z</time>
      </trkpt>
      <trkpt lat="47.55948" lon="-2.30315">
        <ele>35.9</ele>
        <time>2025-01-16T11:44:36Z</time>
      </trkpt>
      <trkpt lat="47.55948" lon="-2.30315">
        <ele>35.9</ele>
        <time>2025-01-16T11:44:37Z</time>
      </trkpt>
      <trkpt lat="47.55948" lon="-2.30315">
        <ele>35.9</ele>
        <time>2025-01-16T11:44:38Z</time>
      </trkpt>
      <trkpt lat="47.55948" lon="-2.30315">
        <ele>35.9</ele>
        <time>2025-01-16T11:44:39Z</time>
      </trkpt>
      <trkpt lat="47.55948" lon="-2.30315">
        <ele>35.9</ele>
        <time>2025-01-16T11:44:40Z</time>
      </trkpt>
      <trkpt lat="47.55948" lon="-2.30315">
        <ele>35.9</ele>
        <time>2025-01-16T11:44:41Z</time>
      </trkpt>
      <trkpt lat="47.55948" lon="-2.30315">
        <ele>35.9</ele>
        <time>2025-01-16T11:44:42Z</time>
      </trkpt>
      <trkpt lat="47.55948" lon="-2.30315">
        <ele>35.9</ele>
        <time>2025-01-16T11:44:43Z</time>
      </trkpt>
      <trkpt lat="47.55948" lon="-2.30315">
        <ele>35.9</ele>
        <time>2025-01-16T11:44:44Z</time>
      </trkpt>
      <trkpt lat="47.55948" lon="-2.30315">
        <ele>35.9</ele>
        <time>2025-01-16T11:44:45Z</time>
      </trkpt>
      <trkpt lat="47.55947" lon="-2.30315">
        <ele>36</ele>
        <time>2025-01-16T11:44:46Z</time>
      </trkpt>
      <trkpt lat="47.55947" lon="-2.30315">
        <ele>36</ele>
        <time>2025-01-16T11:44:47Z</time>
      </trkpt>
      <trkpt lat="47.55947" lon="-2.30315">
        <ele>36</ele>
        <time>2025-01-16T11:44:48Z</time>
      </trkpt>
      <trkpt lat="47.55947" lon="-2.30316">
        <ele>36.1</ele>
        <time>2025-01-16T11:44:49Z</time>
      </trkpt>
      <trkpt lat="47.55946" lon="-2.30316">
        <ele>36.1</ele>
        <time>2025-01-16T11:44:50Z</time>
      </trkpt>
      <trkpt lat="47.55946" lon="-2.30316">
        <ele>36.1</ele>
        <time>2025-01-16T11:44:51Z</time>
      </trkpt>
      <trkpt lat="47.55946" lon="-2.30316">
        <ele>36.1</ele>
        <time>2025-01-16T11:44:52Z</time>
      </trkpt>
      <trkpt lat="47.55946" lon="-2.30316">
        <ele>36.1</ele>
        <time>2025-01-16T11:44:53Z</time>
      </trkpt>
      <trkpt lat="47.55945" lon="-2.30316">
        <ele>36.1</ele>
        <time>2025-01-16T11:44:54Z</time>
      </trkpt>
      <trkpt lat="47.55945" lon="-2.30316">
        <ele>36.1</ele>
        <time>2025-01-16T11:44:55Z</time>
      </trkpt>
      <trkpt lat="47.55945" lon="-2.30316">
        <ele>36.1</ele>
        <time>2025-01-16T11:44:56Z</time>
      </trkpt>
      <trkpt lat="47.55945" lon="-2.30316">
        <ele>36.1</ele>
        <time>2025-01-16T11:44:57Z</time>
      </trkpt>
      <trkpt lat="47.55945" lon="-2.30316">
        <ele>36.1</ele>
        <time>2025-01-16T11:44:58Z</time>
      </trkpt>
      <trkpt lat="47.55945" lon="-2.30316">
        <ele>36.1</ele>
        <time>2025-01-16T11:44:59Z</time>
      </trkpt>
      <trkpt lat="47.55945" lon="-2.30316">
        <ele>36.1</ele>
        <time>2025-01-16T11:45:00Z</time>
      </trkpt>
      <trkpt lat="47.55945" lon="-2.30316">
        <ele>36.1</ele>
        <time>2025-01-16T11:45:01Z</time>
      </trkpt>
      <trkpt lat="47.55945" lon="-2.30316">
        <ele>36.1</ele>
        <time>2025-01-16T11:45:02Z</time>
      </trkpt>
      <trkpt lat="47.55945" lon="-2.30316">
        <ele>36.1</ele>
        <time>2025-01-16T11:45:03Z</time>
      </trkpt>
      <trkpt lat="47.55945" lon="-2.30316">
        <ele>36.1</ele>
        <time>2025-01-16T11:45:04Z</time>
      </trkpt>
      <trkpt lat="47.55945" lon="-2.30316">
        <ele>36.1</ele>
        <time>2025-01-16T11:45:05Z</time>
      </trkpt>
      <trkpt lat="47.55945" lon="-2.30316">
        <ele>36.1</ele>
        <time>2025-01-16T11:45:06Z</time>
      </trkpt>
      <trkpt lat="47.55945" lon="-2.30316">
        <ele>36.1</ele>
        <time>2025-01-16T11:45:07Z</time>
      </trkpt>
      <trkpt lat="47.55945" lon="-2.30316">
        <ele>36.1</ele>
        <time>2025-01-16T11:45:08Z</time>
      </trkpt>
      <trkpt lat="47.55945" lon="-2.30316">
        <ele>36.1</ele>
        <time>2025-01-16T11:45:09Z</time>
      </trkpt>
      <trkpt lat="47.55945" lon="-2.30316">
        <ele>36.1</ele>
        <time>2025-01-16T11:45:10Z</time>
      </trkpt>
      <trkpt lat="47.55945" lon="-2.30316">
        <ele>36.1</ele>
        <time>2025-01-16T11:45:11Z</time>
      </trkpt>
      <trkpt lat="47.55945" lon="-2.30316">
        <ele>36.1</ele>
        <time>2025-01-16T11:45:12Z</time>
      </trkpt>
      <trkpt lat="47.55945" lon="-2.30316">
        <ele>36.1</ele>
        <time>2025-01-16T11:45:13Z</time>
      </trkpt>
      <trkpt lat="47.55945" lon="-2.30316">
        <ele>36.1</ele>
        <time>2025-01-16T11:45:14Z</time>
      </trkpt>
      <trkpt lat="47.55945" lon="-2.30316">
        <ele>36.1</ele>
        <time>2025-01-16T11:45:15Z</time>
      </trkpt>
      <trkpt lat="47.55945" lon="-2.30316">
        <ele>36.1</ele>
        <time>2025-01-16T11:45:16Z</time>
      </trkpt>
      <trkpt lat="47.55945" lon="-2.30316">
        <ele>36.1</ele>
        <time>2025-01-16T11:45:17Z</time>
      </trkpt>
      <trkpt lat="47.55945" lon="-2.30316">
        <ele>36.1</ele>
        <time>2025-01-16T11:45:18Z</time>
      </trkpt>
      <trkpt lat="47.55945" lon="-2.30316">
        <ele>36.1</ele>
        <time>2025-01-16T11:45:19Z</time>
      </trkpt>
      <trkpt lat="47.55945" lon="-2.30316">
        <ele>36.1</ele>
        <time>2025-01-16T11:45:20Z</time>
      </trkpt>
      <trkpt lat="47.55945" lon="-2.30316">
        <ele>36.1</ele>
        <time>2025-01-16T11:45:21Z</time>
      </trkpt>
      <trkpt lat="47.55945" lon="-2.30316">
        <ele>36.1</ele>
        <time>2025-01-16T11:45:22Z</time>
      </trkpt>
      <trkpt lat="47.55945" lon="-2.30316">
        <ele>36.1</ele>
        <time>2025-01-16T11:45:23Z</time>
      </trkpt>
      <trkpt lat="47.55945" lon="-2.30316">
        <ele>36.1</ele>
        <time>2025-01-16T11:45:24Z</time>
      </trkpt>
      <trkpt lat="47.55945" lon="-2.30316">
        <ele>36.1</ele>
        <time>2025-01-16T11:45:25Z</time>
      </trkpt>
      <trkpt lat="47.55945" lon="-2.30316">
        <ele>36.1</ele>
        <time>2025-01-16T11:45:26Z</time>
      </trkpt>
      <trkpt lat="47.55945" lon="-2.30316">
        <ele>36.1</ele>
        <time>2025-01-16T11:45:27Z</time>
      </trkpt>
      <trkpt lat="47.55945" lon="-2.30315">
        <ele>36</ele>
        <time>2025-01-16T11:45:28Z</time>
      </trkpt>
      <trkpt lat="47.55945" lon="-2.30315">
        <ele>36</ele>
        <time>2025-01-16T11:45:29Z</time>
      </trkpt>
      <trkpt lat="47.55945" lon="-2.30315">
        <ele>36</ele>
        <time>2025-01-16T11:45:30Z</time>
      </trkpt>
      <trkpt lat="47.55945" lon="-2.30315">
        <ele>36</ele>
        <time>2025-01-16T11:45:31Z</time>
      </trkpt>
      <trkpt lat="47.55945" lon="-2.30315">
        <ele>36</ele>
        <time>2025-01-16T11:45:32Z</time>
      </trkpt>
      <trkpt lat="47.55945" lon="-2.30315">
        <ele>36</ele>
        <time>2025-01-16T11:45:33Z</time>
      </trkpt>
      <trkpt lat="47.55946" lon="-2.30315">
        <ele>36</ele>
        <time>2025-01-16T11:45:34Z</time>
      </trkpt>
      <trkpt lat="47.55946" lon="-2.30315">
        <ele>36</ele>
        <time>2025-01-16T11:45:35Z</time>
      </trkpt>
      <trkpt lat="47.55946" lon="-2.30315">
        <ele>36</ele>
        <time>2025-01-16T11:45:36Z</time>
      </trkpt>
      <trkpt lat="47.55946" lon="-2.30315">
        <ele>36</ele>
        <time>2025-01-16T11:45:37Z</time>
      </trkpt>
      <trkpt lat="47.55946" lon="-2.30315">
        <ele>36</ele>
        <time>2025-01-16T11:45:38Z</time>
      </trkpt>
      <trkpt lat="47.55946" lon="-2.30315">
        <ele>36</ele>
        <time>2025-01-16T11:45:39Z</time>
      </trkpt>
      <trkpt lat="47.55946" lon="-2.30315">
        <ele>36</ele>
        <time>2025-01-16T11:45:40Z</time>
      </trkpt>
      <trkpt lat="47.55946" lon="-2.30315">
        <ele>36</ele>
        <time>2025-01-16T11:45:41Z</time>
      </trkpt>
      <trkpt lat="47.55946" lon="-2.30315">
        <ele>36</ele>
        <time>2025-01-16T11:45:42Z</time>
      </trkpt>
      <trkpt lat="47.55946" lon="-2.30315">
        <ele>36</ele>
        <time>2025-01-16T11:45:43Z</time>
      </trkpt>
      <trkpt lat="47.55946" lon="-2.30315">
        <ele>36</ele>
        <time>2025-01-16T11:45:44Z</time>
      </trkpt>
      <trkpt lat="47.55946" lon="-2.30315">
        <ele>36</ele>
        <time>2025-01-16T11:45:45Z</time>
      </trkpt>
      <trkpt lat="47.55946" lon="-2.30315">
        <ele>36</ele>
        <time>2025-01-16T11:45:46Z</time>
      </trkpt>
      <trkpt lat="47.55946" lon="-2.30315">
        <ele>36</ele>
        <time>2025-01-16T11:45:47Z</time>
      </trkpt>
      <trkpt lat="47.55946" lon="-2.30315">
        <ele>36</ele>
        <time>2025-01-16T11:45:48Z</time>
      </trkpt>
      <trkpt lat="47.55946" lon="-2.30315">
        <ele>36</ele>
        <time>2025-01-16T11:45:49Z</time>
      </trkpt>
      <trkpt lat="47.55946" lon="-2.30315">
        <ele>36</ele>
        <time>2025-01-16T11:45:50Z</time>
      </trkpt>
      <trkpt lat="47.55946" lon="-2.30315">
        <ele>36</ele>
        <time>2025-01-16T11:45:51Z</time>
      </trkpt>
      <trkpt lat="47.55946" lon="-2.30315">
        <ele>36</ele>
        <time>2025-01-16T11:45:52Z</time>
      </trkpt>
      <trkpt lat="47.55946" lon="-2.30315">
        <ele>36</ele>
        <time>2025-01-16T11:45:53Z</time>
      </trkpt>
      <trkpt lat="47.55946" lon="-2.30315">
        <ele>36</ele>
        <time>2025-01-16T11:45:54Z</time>
      </trkpt>
      <trkpt lat="47.55946" lon="-2.30315">
        <ele>36</ele>
        <time>2025-01-16T11:45:55Z</time>
      </trkpt>
      <trkpt lat="47.55946" lon="-2.30315">
        <ele>36</ele>
        <time>2025-01-16T11:45:56Z</time>
      </trkpt>
      <trkpt lat="47.55946" lon="-2.30315">
        <ele>36</ele>
        <time>2025-01-16T11:45:57Z</time>
      </trkpt>
      <trkpt lat="47.55946" lon="-2.30315">
        <ele>36</ele>
        <time>2025-01-16T11:45:58Z</time>
      </trkpt>
      <trkpt lat="47.55946" lon="-2.30315">
        <ele>36</ele>
        <time>2025-01-16T11:45:59Z</time>
      </trkpt>
      <trkpt lat="47.55946" lon="-2.30315">
        <ele>36</ele>
        <time>2025-01-16T11:46:00Z</time>
      </trkpt>
      <trkpt lat="47.55946" lon="-2.30315">
        <ele>36</ele>
        <time>2025-01-16T11:46:01Z</time>
      </trkpt>
      <trkpt lat="47.55946" lon="-2.30315">
        <ele>36</ele>
        <time>2025-01-16T11:46:02Z</time>
      </trkpt>
      <trkpt lat="47.55946" lon="-2.30315">
        <ele>36</ele>
        <time>2025-01-16T11:46:03Z</time>
      </trkpt>
      <trkpt lat="47.55946" lon="-2.30315">
        <ele>36</ele>
        <time>2025-01-16T11:46:04Z</time>
      </trkpt>
      <trkpt lat="47.55946" lon="-2.30315">
        <ele>36</ele>
        <time>2025-01-16T11:46:05Z</time>
      </trkpt>
      <trkpt lat="47.55946" lon="-2.30315">
        <ele>36</ele>
        <time>2025-01-16T11:46:06Z</time>
      </trkpt>
      <trkpt lat="47.55946" lon="-2.30315">
        <ele>36</ele>
        <time>2025-01-16T11:46:07Z</time>
      </trkpt>
      <trkpt lat="47.55946" lon="-2.30315">
        <ele>36</ele>
        <time>2025-01-16T11:46:08Z</time>
      </trkpt>
      <trkpt lat="47.55946" lon="-2.30315">
        <ele>36</ele>
        <time>2025-01-16T11:46:09Z</time>
      </trkpt>
      <trkpt lat="47.55946" lon="-2.30315">
        <ele>36</ele>
        <time>2025-01-16T11:46:10Z</time>
      </trkpt>
      <trkpt lat="47.55946" lon="-2.30315">
        <ele>36</ele>
        <time>2025-01-16T11:46:11Z</time>
      </trkpt>
      <trkpt lat="47.55946" lon="-2.30315">
        <ele>36</ele>
        <time>2025-01-16T11:46:12Z</time>
      </trkpt>
      <trkpt lat="47.55946" lon="-2.30315">
        <ele>36</ele>
        <time>2025-01-16T11:46:13Z</time>
      </trkpt>
      <trkpt lat="47.55946" lon="-2.30315">
        <ele>36</ele>
        <time>2025-01-16T11:46:14Z</time>
      </trkpt>
      <trkpt lat="47.55946" lon="-2.30315">
        <ele>36</ele>
        <time>2025-01-16T11:46:15Z</time>
      </trkpt>
      <trkpt lat="47.55946" lon="-2.30315">
        <ele>36</ele>
        <time>2025-01-16T11:46:16Z</time>
      </trkpt>
      <trkpt lat="47.55946" lon="-2.30315">
        <ele>36</ele>
        <time>2025-01-16T11:46:17Z</time>
      </trkpt>
      <trkpt lat="47.55946" lon="-2.30315">
        <ele>36</ele>
        <time>2025-01-16T11:46:18Z</time>
      </trkpt>
      <trkpt lat="47.55946" lon="-2.30315">
        <ele>36</ele>
        <time>2025-01-16T11:46:19Z</time>
      </trkpt>
      <trkpt lat="47.55946" lon="-2.30315">
        <ele>36</ele>
        <time>2025-01-16T11:46:20Z</time>
      </trkpt>
      <trkpt lat="47.55946" lon="-2.30315">
        <ele>36</ele>
        <time>2025-01-16T11:46:21Z</time>
      </trkpt>
      <trkpt lat="47.55946" lon="-2.30315">
        <ele>36</ele>
        <time>2025-01-16T11:46:22Z</time>
      </trkpt>
      <trkpt lat="47.55946" lon="-2.30315">
        <ele>36</ele>
        <time>2025-01-16T11:46:23Z</time>
      </trkpt>
      <trkpt lat="47.55946" lon="-2.30315">
        <ele>36</ele>
        <time>2025-01-16T11:46:24Z</time>
      </trkpt>
      <trkpt lat="47.55946" lon="-2.30315">
        <ele>36</ele>
        <time>2025-01-16T11:46:25Z</time>
      </trkpt>
      <trkpt lat="47.55946" lon="-2.30315">
        <ele>36</ele>
        <time>2025-01-16T11:46:26Z</time>
      </trkpt>
      <trkpt lat="47.55946" lon="-2.30315">
        <ele>36</ele>
        <time>2025-01-16T11:46:27Z</time>
      </trkpt>
      <trkpt lat="47.55946" lon="-2.30315">
        <ele>36</ele>
        <time>2025-01-16T11:46:28Z</time>
      </trkpt>
      <trkpt lat="47.55946" lon="-2.30315">
        <ele>36</ele>
        <time>2025-01-16T11:46:29Z</time>
      </trkpt>
      <trkpt lat="47.55946" lon="-2.30315">
        <ele>36</ele>
        <time>2025-01-16T11:46:30Z</time>
      </trkpt>
      <trkpt lat="47.55946" lon="-2.30315">
        <ele>36</ele>
        <time>2025-01-16T11:46:31Z</time>
      </trkpt>
      <trkpt lat="47.55946" lon="-2.30315">
        <ele>36</ele>
        <time>2025-01-16T11:46:32Z</time>
      </trkpt>
      <trkpt lat="47.55946" lon="-2.30315">
        <ele>36</ele>
        <time>2025-01-16T11:46:33Z</time>
      </trkpt>
      <trkpt lat="47.55946" lon="-2.30315">
        <ele>36</ele>
        <time>2025-01-16T11:46:34Z</time>
      </trkpt>
      <trkpt lat="47.55946" lon="-2.30315">
        <ele>36</ele>
        <time>2025-01-16T11:46:35Z</time>
      </trkpt>
      <trkpt lat="47.55946" lon="-2.30315">
        <ele>36</ele>
        <time>2025-01-16T11:46:36Z</time>
      </trkpt>
      <trkpt lat="47.55946" lon="-2.30315">
        <ele>36</ele>
        <time>2025-01-16T11:46:37Z</time>
      </trkpt>
      <trkpt lat="47.55946" lon="-2.30315">
        <ele>36</ele>
        <time>2025-01-16T11:46:38Z</time>
      </trkpt>
      <trkpt lat="47.55946" lon="-2.30315">
        <ele>36</ele>
        <time>2025-01-16T11:46:39Z</time>
      </trkpt>
      <trkpt lat="47.55946" lon="-2.30315">
        <ele>36</ele>
        <time>2025-01-16T11:46:40Z</time>
      </trkpt>
      <trkpt lat="47.55946" lon="-2.30315">
        <ele>36</ele>
        <time>2025-01-16T11:46:41Z</time>
      </trkpt>
      <trkpt lat="47.55946" lon="-2.30315">
        <ele>36</ele>
        <time>2025-01-16T11:46:42Z</time>
      </trkpt>
      <trkpt lat="47.55946" lon="-2.30315">
        <ele>36</ele>
        <time>2025-01-16T11:46:43Z</time>
      </trkpt>
      <trkpt lat="47.55946" lon="-2.30315">
        <ele>36</ele>
        <time>2025-01-16T11:46:44Z</time>
      </trkpt>
      <trkpt lat="47.55946" lon="-2.30315">
        <ele>36</ele>
        <time>2025-01-16T11:46:45Z</time>
      </trkpt>
      <trkpt lat="47.55946" lon="-2.30315">
        <ele>36</ele>
        <time>2025-01-16T11:46:46Z</time>
      </trkpt>
      <trkpt lat="47.55946" lon="-2.30315">
        <ele>36</ele>
        <time>2025-01-16T11:46:47Z</time>
      </trkpt>
      <trkpt lat="47.55946" lon="-2.30315">
        <ele>36</ele>
        <time>2025-01-16T11:46:48Z</time>
      </trkpt>
      <trkpt lat="47.55946" lon="-2.30315">
        <ele>36</ele>
        <time>2025-01-16T11:46:49Z</time>
      </trkpt>
      <trkpt lat="47.55946" lon="-2.30315">
        <ele>36</ele>
        <time>2025-01-16T11:46:50Z</time>
      </trkpt>
      <trkpt lat="47.55946" lon="-2.30315">
        <ele>36</ele>
        <time>2025-01-16T11:46:51Z</time>
      </trkpt>
      <trkpt lat="47.55946" lon="-2.30315">
        <ele>36</ele>
        <time>2025-01-16T11:46:52Z</time>
      </trkpt>
      <trkpt lat="47.55946" lon="-2.30315">
        <ele>36</ele>
        <time>2025-01-16T11:46:53Z</time>
      </trkpt>
      <trkpt lat="47.55946" lon="-2.30315">
        <ele>36</ele>
        <time>2025-01-16T11:46:54Z</time>
      </trkpt>
      <trkpt lat="47.55946" lon="-2.30315">
        <ele>36</ele>
        <time>2025-01-16T11:46:55Z</time>
      </trkpt>
      <trkpt lat="47.55946" lon="-2.30315">
        <ele>36</ele>
        <time>2025-01-16T11:46:56Z</time>
      </trkpt>
      <trkpt lat="47.55946" lon="-2.30315">
        <ele>36</ele>
        <time>2025-01-16T11:46:57Z</time>
      </trkpt>
      <trkpt lat="47.55946" lon="-2.30315">
        <ele>36</ele>
        <time>2025-01-16T11:46:58Z</time>
      </trkpt>
      <trkpt lat="47.55945" lon="-2.30315">
        <ele>36</ele>
        <time>2025-01-16T11:46:59Z</time>
      </trkpt>
      <trkpt lat="47.55945" lon="-2.30315">
        <ele>36</ele>
        <time>2025-01-16T11:47:00Z</time>
      </trkpt>
      <trkpt lat="47.55945" lon="-2.30315">
        <ele>36</ele>
        <time>2025-01-16T11:47:01Z</time>
      </trkpt>
      <trkpt lat="47.55945" lon="-2.30315">
        <ele>36</ele>
        <time>2025-01-16T11:47:02Z</time>
      </trkpt>
      <trkpt lat="47.55945" lon="-2.30315">
        <ele>36</ele>
        <time>2025-01-16T11:47:03Z</time>
      </trkpt>
      <trkpt lat="47.55945" lon="-2.30315">
        <ele>36</ele>
        <time>2025-01-16T11:47:04Z</time>
      </trkpt>
      <trkpt lat="47.55945" lon="-2.30315">
        <ele>36</ele>
        <time>2025-01-16T11:47:05Z</time>
      </trkpt>
      <trkpt lat="47.55945" lon="-2.30315">
        <ele>36</ele>
        <time>2025-01-16T11:47:06Z</time>
      </trkpt>
      <trkpt lat="47.55945" lon="-2.30315">
        <ele>36</ele>
        <time>2025-01-16T11:47:07Z</time>
      </trkpt>
      <trkpt lat="47.55945" lon="-2.30315">
        <ele>36</ele>
        <time>2025-01-16T11:47:08Z</time>
      </trkpt>
      <trkpt lat="47.55945" lon="-2.30315">
        <ele>36</ele>
        <time>2025-01-16T11:47:09Z</time>
      </trkpt>
      <trkpt lat="47.55945" lon="-2.30315">
        <ele>36</ele>
        <time>2025-01-16T11:47:10Z</time>
      </trkpt>
      <trkpt lat="47.55945" lon="-2.30315">
        <ele>36</ele>
        <time>2025-01-16T11:47:11Z</time>
      </trkpt>
      <trkpt lat="47.55945" lon="-2.30315">
        <ele>36</ele>
        <time>2025-01-16T11:47:12Z</time>
      </trkpt>
      <trkpt lat="47.55945" lon="-2.30315">
        <ele>36</ele>
        <time>2025-01-16T11:47:13Z</time>
      </trkpt>
      <trkpt lat="47.55945" lon="-2.30315">
        <ele>36</ele>
        <time>2025-01-16T11:47:14Z</time>
      </trkpt>
      <trkpt lat="47.55945" lon="-2.30315">
        <ele>36</ele>
        <time>2025-01-16T11:47:15Z</time>
      </trkpt>
      <trkpt lat="47.55945" lon="-2.30315">
        <ele>36</ele>
        <time>2025-01-16T11:47:16Z</time>
      </trkpt>
      <trkpt lat="47.55945" lon="-2.30315">
        <ele>36</ele>
        <time>2025-01-16T11:47:17Z</time>
      </trkpt>
      <trkpt lat="47.55945" lon="-2.30315">
        <ele>36</ele>
        <time>2025-01-16T11:47:18Z</time>
      </trkpt>
      <trkpt lat="47.55945" lon="-2.30315">
        <ele>36</ele>
        <time>2025-01-16T11:47:19Z</time>
      </trkpt>
      <trkpt lat="47.55945" lon="-2.30315">
        <ele>36</ele>
        <time>2025-01-16T11:47:20Z</time>
      </trkpt>
      <trkpt lat="47.55945" lon="-2.30315">
        <ele>36</ele>
        <time>2025-01-16T11:47:21Z</time>
      </trkpt>
      <trkpt lat="47.55945" lon="-2.30315">
        <ele>36</ele>
        <time>2025-01-16T11:47:22Z</time>
      </trkpt>
      <trkpt lat="47.55945" lon="-2.30315">
        <ele>36</ele>
        <time>2025-01-16T11:47:23Z</time>
      </trkpt>
      <trkpt lat="47.55945" lon="-2.30315">
        <ele>36</ele>
        <time>2025-01-16T11:47:24Z</time>
      </trkpt>
      <trkpt lat="47.55945" lon="-2.30315">
        <ele>36</ele>
        <time>2025-01-16T11:47:25Z</time>
      </trkpt>
      <trkpt lat="47.55945" lon="-2.30315">
        <ele>36</ele>
        <time>2025-01-16T11:47:26Z</time>
      </trkpt>
      <trkpt lat="47.55945" lon="-2.30315">
        <ele>36</ele>
        <time>2025-01-16T11:47:27Z</time>
      </trkpt>
      <trkpt lat="47.55945" lon="-2.30315">
        <ele>36</ele>
        <time>2025-01-16T11:47:28Z</time>
      </trkpt>
      <trkpt lat="47.55945" lon="-2.30315">
        <ele>36</ele>
        <time>2025-01-16T11:47:29Z</time>
      </trkpt>
      <trkpt lat="47.55945" lon="-2.30315">
        <ele>36</ele>
        <time>2025-01-16T11:47:30Z</time>
      </trkpt>
      <trkpt lat="47.55945" lon="-2.30315">
        <ele>36</ele>
        <time>2025-01-16T11:47:31Z</time>
      </trkpt>
      <trkpt lat="47.55945" lon="-2.30315">
        <ele>36</ele>
        <time>2025-01-16T11:47:32Z</time>
      </trkpt>
      <trkpt lat="47.55945" lon="-2.30315">
        <ele>36</ele>
        <time>2025-01-16T11:47:33Z</time>
      </trkpt>
      <trkpt lat="47.55945" lon="-2.30315">
        <ele>36</ele>
        <time>2025-01-16T11:47:34Z</time>
      </trkpt>
      <trkpt lat="47.55945" lon="-2.30315">
        <ele>36</ele>
        <time>2025-01-16T11:47:35Z</time>
      </trkpt>
      <trkpt lat="47.55945" lon="-2.30315">
        <ele>36</ele>
        <time>2025-01-16T11:47:36Z</time>
      </trkpt>
      <trkpt lat="47.55945" lon="-2.30315">
        <ele>36</ele>
        <time>2025-01-16T11:47:37Z</time>
      </trkpt>
      <trkpt lat="47.55945" lon="-2.30315">
        <ele>36</ele>
        <time>2025-01-16T11:47:38Z</time>
      </trkpt>
      <trkpt lat="47.55945" lon="-2.30315">
        <ele>36</ele>
        <time>2025-01-16T11:47:39Z</time>
      </trkpt>
      <trkpt lat="47.55945" lon="-2.30315">
        <ele>36</ele>
        <time>2025-01-16T11:47:40Z</time>
      </trkpt>
      <trkpt lat="47.55945" lon="-2.30315">
        <ele>36</ele>
        <time>2025-01-16T11:47:41Z</time>
      </trkpt>
      <trkpt lat="47.55945" lon="-2.30315">
        <ele>36</ele>
        <time>2025-01-16T11:47:42Z</time>
      </trkpt>
      <trkpt lat="47.55945" lon="-2.30315">
        <ele>36</ele>
        <time>2025-01-16T11:47:43Z</time>
      </trkpt>
      <trkpt lat="47.55945" lon="-2.30315">
        <ele>36</ele>
        <time>2025-01-16T11:47:44Z</time>
      </trkpt>
      <trkpt lat="47.55945" lon="-2.30315">
        <ele>36</ele>
        <time>2025-01-16T11:47:45Z</time>
      </trkpt>
      <trkpt lat="47.55945" lon="-2.30315">
        <ele>36</ele>
        <time>2025-01-16T11:47:46Z</time>
      </trkpt>
      <trkpt lat="47.55945" lon="-2.30315">
        <ele>36</ele>
        <time>2025-01-16T11:47:47Z</time>
      </trkpt>
      <trkpt lat="47.55945" lon="-2.30315">
        <ele>36</ele>
        <time>2025-01-16T11:47:48Z</time>
      </trkpt>
      <trkpt lat="47.55945" lon="-2.30315">
        <ele>36</ele>
        <time>2025-01-16T11:47:49Z</time>
      </trkpt>
      <trkpt lat="47.55945" lon="-2.30314">
        <ele>35.9</ele>
        <time>2025-01-16T11:47:50Z</time>
      </trkpt>
      <trkpt lat="47.55945" lon="-2.30315">
        <ele>36</ele>
        <time>2025-01-16T11:47:51Z</time>
      </trkpt>
      <trkpt lat="47.55944" lon="-2.30314">
        <ele>35.9</ele>
        <time>2025-01-16T11:47:52Z</time>
      </trkpt>
      <trkpt lat="47.55944" lon="-2.30314">
        <ele>35.9</ele>
        <time>2025-01-16T11:47:53Z</time>
      </trkpt>
      <trkpt lat="47.55944" lon="-2.30314">
        <ele>35.9</ele>
        <time>2025-01-16T11:47:54Z</time>
      </trkpt>
      <trkpt lat="47.55943" lon="-2.30314">
        <ele>36</ele>
        <time>2025-01-16T11:47:55Z</time>
      </trkpt>
      <trkpt lat="47.55943" lon="-2.30313">
        <ele>35.9</ele>
        <time>2025-01-16T11:47:56Z</time>
      </trkpt>
      <trkpt lat="47.55943" lon="-2.30313">
        <ele>35.9</ele>
        <time>2025-01-16T11:47:57Z</time>
      </trkpt>
      <trkpt lat="47.55943" lon="-2.30313">
        <ele>35.9</ele>
        <time>2025-01-16T11:47:58Z</time>
      </trkpt>
      <trkpt lat="47.55943" lon="-2.30313">
        <ele>35.9</ele>
        <time>2025-01-16T11:47:59Z</time>
      </trkpt>
      <trkpt lat="47.55943" lon="-2.30313">
        <ele>35.9</ele>
        <time>2025-01-16T11:48:00Z</time>
      </trkpt>
      <trkpt lat="47.55942" lon="-2.30313">
        <ele>36</ele>
        <time>2025-01-16T11:48:01Z</time>
      </trkpt>
      <trkpt lat="47.55942" lon="-2.30313">
        <ele>36</ele>
        <time>2025-01-16T11:48:02Z</time>
      </trkpt>
      <trkpt lat="47.55942" lon="-2.30312">
        <ele>35.9</ele>
        <time>2025-01-16T11:48:03Z</time>
      </trkpt>
      <trkpt lat="47.55942" lon="-2.30312">
        <ele>35.9</ele>
        <time>2025-01-16T11:48:04Z</time>
      </trkpt>
      <trkpt lat="47.55942" lon="-2.30312">
        <ele>35.9</ele>
        <time>2025-01-16T11:48:05Z</time>
      </trkpt>
      <trkpt lat="47.55942" lon="-2.30312">
        <ele>35.9</ele>
        <time>2025-01-16T11:48:06Z</time>
      </trkpt>
      <trkpt lat="47.55942" lon="-2.30312">
        <ele>35.9</ele>
        <time>2025-01-16T11:48:07Z</time>
      </trkpt>
      <trkpt lat="47.55942" lon="-2.30312">
        <ele>35.9</ele>
        <time>2025-01-16T11:48:08Z</time>
      </trkpt>
      <trkpt lat="47.55942" lon="-2.30312">
        <ele>35.9</ele>
        <time>2025-01-16T11:48:09Z</time>
      </trkpt>
      <trkpt lat="47.55942" lon="-2.30312">
        <ele>35.9</ele>
        <time>2025-01-16T11:48:10Z</time>
      </trkpt>
      <trkpt lat="47.55942" lon="-2.30312">
        <ele>35.9</ele>
        <time>2025-01-16T11:48:11Z</time>
      </trkpt>
      <trkpt lat="47.55942" lon="-2.30312">
        <ele>35.9</ele>
        <time>2025-01-16T11:48:12Z</time>
      </trkpt>
      <trkpt lat="47.55942" lon="-2.30312">
        <ele>35.9</ele>
        <time>2025-01-16T11:48:13Z</time>
      </trkpt>
      <trkpt lat="47.55942" lon="-2.30312">
        <ele>35.9</ele>
        <time>2025-01-16T11:48:14Z</time>
      </trkpt>
      <trkpt lat="47.55942" lon="-2.30312">
        <ele>35.9</ele>
        <time>2025-01-16T11:48:15Z</time>
      </trkpt>
      <trkpt lat="47.55942" lon="-2.30312">
        <ele>35.9</ele>
        <time>2025-01-16T11:48:16Z</time>
      </trkpt>
      <trkpt lat="47.55942" lon="-2.30312">
        <ele>35.9</ele>
        <time>2025-01-16T11:48:17Z</time>
      </trkpt>
      <trkpt lat="47.55942" lon="-2.30312">
        <ele>35.9</ele>
        <time>2025-01-16T11:48:18Z</time>
      </trkpt>
      <trkpt lat="47.55942" lon="-2.30312">
        <ele>35.9</ele>
        <time>2025-01-16T11:48:19Z</time>
      </trkpt>
      <trkpt lat="47.55942" lon="-2.30312">
        <ele>35.9</ele>
        <time>2025-01-16T11:48:20Z</time>
      </trkpt>
      <trkpt lat="47.55942" lon="-2.30312">
        <ele>35.9</ele>
        <time>2025-01-16T11:48:21Z</time>
      </trkpt>
      <trkpt lat="47.55942" lon="-2.30312">
        <ele>35.9</ele>
        <time>2025-01-16T11:48:22Z</time>
      </trkpt>
      <trkpt lat="47.55942" lon="-2.30312">
        <ele>35.9</ele>
        <time>2025-01-16T11:48:23Z</time>
      </trkpt>
      <trkpt lat="47.55942" lon="-2.30312">
        <ele>35.9</ele>
        <time>2025-01-16T11:48:24Z</time>
      </trkpt>
      <trkpt lat="47.55942" lon="-2.30312">
        <ele>35.9</ele>
        <time>2025-01-16T11:48:25Z</time>
      </trkpt>
      <trkpt lat="47.55942" lon="-2.30312">
        <ele>35.9</ele>
        <time>2025-01-16T11:48:26Z</time>
      </trkpt>
      <trkpt lat="47.55942" lon="-2.30312">
        <ele>35.9</ele>
        <time>2025-01-16T11:48:27Z</time>
      </trkpt>
      <trkpt lat="47.55942" lon="-2.30312">
        <ele>35.9</ele>
        <time>2025-01-16T11:48:28Z</time>
      </trkpt>
      <trkpt lat="47.55942" lon="-2.30312">
        <ele>35.9</ele>
        <time>2025-01-16T11:48:29Z</time>
      </trkpt>
      <trkpt lat="47.55942" lon="-2.30312">
        <ele>35.9</ele>
        <time>2025-01-16T11:48:30Z</time>
      </trkpt>
      <trkpt lat="47.55942" lon="-2.30312">
        <ele>35.9</ele>
        <time>2025-01-16T11:48:31Z</time>
      </trkpt>
      <trkpt lat="47.55942" lon="-2.30312">
        <ele>35.9</ele>
        <time>2025-01-16T11:48:32Z</time>
      </trkpt>
      <trkpt lat="47.55942" lon="-2.30312">
        <ele>35.9</ele>
        <time>2025-01-16T11:48:33Z</time>
      </trkpt>
      <trkpt lat="47.55942" lon="-2.30312">
        <ele>35.9</ele>
        <time>2025-01-16T11:48:34Z</time>
      </trkpt>
      <trkpt lat="47.55942" lon="-2.30312">
        <ele>35.9</ele>
        <time>2025-01-16T11:48:35Z</time>
      </trkpt>
      <trkpt lat="47.55942" lon="-2.30312">
        <ele>35.9</ele>
        <time>2025-01-16T11:48:36Z</time>
      </trkpt>
      <trkpt lat="47.55942" lon="-2.30312">
        <ele>35.9</ele>
        <time>2025-01-16T11:48:37Z</time>
      </trkpt>
      <trkpt lat="47.55942" lon="-2.30312">
        <ele>35.9</ele>
        <time>2025-01-16T11:48:38Z</time>
      </trkpt>
      <trkpt lat="47.55942" lon="-2.30312">
        <ele>35.9</ele>
        <time>2025-01-16T11:48:39Z</time>
      </trkpt>
      <trkpt lat="47.55942" lon="-2.30312">
        <ele>35.9</ele>
        <time>2025-01-16T11:48:40Z</time>
      </trkpt>
      <trkpt lat="47.55942" lon="-2.30312">
        <ele>35.9</ele>
        <time>2025-01-16T11:48:41Z</time>
      </trkpt>
      <trkpt lat="47.55942" lon="-2.30312">
        <ele>35.9</ele>
        <time>2025-01-16T11:48:42Z</time>
      </trkpt>
      <trkpt lat="47.55942" lon="-2.30312">
        <ele>35.9</ele>
        <time>2025-01-16T11:48:43Z</time>
      </trkpt>
      <trkpt lat="47.55942" lon="-2.30312">
        <ele>35.9</ele>
        <time>2025-01-16T11:48:44Z</time>
      </trkpt>
      <trkpt lat="47.55942" lon="-2.30312">
        <ele>35.9</ele>
        <time>2025-01-16T11:48:45Z</time>
      </trkpt>
      <trkpt lat="47.55942" lon="-2.30312">
        <ele>35.9</ele>
        <time>2025-01-16T11:48:46Z</time>
      </trkpt>
      <trkpt lat="47.55943" lon="-2.30312">
        <ele>35.8</ele>
        <time>2025-01-16T11:48:47Z</time>
      </trkpt>
      <trkpt lat="47.55943" lon="-2.30312">
        <ele>35.8</ele>
        <time>2025-01-16T11:48:48Z</time>
      </trkpt>
      <trkpt lat="47.55943" lon="-2.30312">
        <ele>35.8</ele>
        <time>2025-01-16T11:48:49Z</time>
      </trkpt>
      <trkpt lat="47.55943" lon="-2.30311">
        <ele>35.7</ele>
        <time>2025-01-16T11:48:50Z</time>
      </trkpt>
      <trkpt lat="47.55943" lon="-2.30311">
        <ele>35.7</ele>
        <time>2025-01-16T11:48:51Z</time>
      </trkpt>
      <trkpt lat="47.55943" lon="-2.30311">
        <ele>35.7</ele>
        <time>2025-01-16T11:48:52Z</time>
      </trkpt>
      <trkpt lat="47.55944" lon="-2.30311">
        <ele>35.6</ele>
        <time>2025-01-16T11:48:53Z</time>
      </trkpt>
      <trkpt lat="47.55944" lon="-2.30311">
        <ele>35.6</ele>
        <time>2025-01-16T11:48:54Z</time>
      </trkpt>
      <trkpt lat="47.55944" lon="-2.30311">
        <ele>35.6</ele>
        <time>2025-01-16T11:48:55Z</time>
      </trkpt>
      <trkpt lat="47.55944" lon="-2.30311">
        <ele>35.6</ele>
        <time>2025-01-16T11:48:56Z</time>
      </trkpt>
      <trkpt lat="47.55944" lon="-2.30311">
        <ele>35.6</ele>
        <time>2025-01-16T11:48:57Z</time>
      </trkpt>
      <trkpt lat="47.55944" lon="-2.30311">
        <ele>35.6</ele>
        <time>2025-01-16T11:48:58Z</time>
      </trkpt>
      <trkpt lat="47.55944" lon="-2.30311">
        <ele>35.6</ele>
        <time>2025-01-16T11:48:59Z</time>
      </trkpt>
      <trkpt lat="47.55944" lon="-2.30311">
        <ele>35.6</ele>
        <time>2025-01-16T11:49:00Z</time>
      </trkpt>
      <trkpt lat="47.55944" lon="-2.30311">
        <ele>35.6</ele>
        <time>2025-01-16T11:49:01Z</time>
      </trkpt>
      <trkpt lat="47.55944" lon="-2.30311">
        <ele>35.6</ele>
        <time>2025-01-16T11:49:02Z</time>
      </trkpt>
      <trkpt lat="47.55944" lon="-2.30311">
        <ele>35.6</ele>
        <time>2025-01-16T11:49:03Z</time>
      </trkpt>
      <trkpt lat="47.55944" lon="-2.30311">
        <ele>35.6</ele>
        <time>2025-01-16T11:49:04Z</time>
      </trkpt>
      <trkpt lat="47.55944" lon="-2.30311">
        <ele>35.6</ele>
        <time>2025-01-16T11:49:05Z</time>
      </trkpt>
      <trkpt lat="47.55944" lon="-2.30311">
        <ele>35.6</ele>
        <time>2025-01-16T11:49:06Z</time>
      </trkpt>
      <trkpt lat="47.55944" lon="-2.30311">
        <ele>35.6</ele>
        <time>2025-01-16T11:49:07Z</time>
      </trkpt>
      <trkpt lat="47.55944" lon="-2.30311">
        <ele>35.6</ele>
        <time>2025-01-16T11:49:08Z</time>
      </trkpt>
      <trkpt lat="47.55944" lon="-2.30311">
        <ele>35.6</ele>
        <time>2025-01-16T11:49:09Z</time>
      </trkpt>
      <trkpt lat="47.55944" lon="-2.30311">
        <ele>35.6</ele>
        <time>2025-01-16T11:49:10Z</time>
      </trkpt>
      <trkpt lat="47.55944" lon="-2.30311">
        <ele>35.6</ele>
        <time>2025-01-16T11:49:11Z</time>
      </trkpt>
      <trkpt lat="47.55944" lon="-2.30311">
        <ele>35.6</ele>
        <time>2025-01-16T11:49:12Z</time>
      </trkpt>
      <trkpt lat="47.55944" lon="-2.30311">
        <ele>35.6</ele>
        <time>2025-01-16T11:49:13Z</time>
      </trkpt>
      <trkpt lat="47.55944" lon="-2.30311">
        <ele>35.6</ele>
        <time>2025-01-16T11:49:14Z</time>
      </trkpt>
      <trkpt lat="47.55944" lon="-2.30311">
        <ele>35.6</ele>
        <time>2025-01-16T11:49:15Z</time>
      </trkpt>
      <trkpt lat="47.55944" lon="-2.30311">
        <ele>35.6</ele>
        <time>2025-01-16T11:49:16Z</time>
      </trkpt>
      <trkpt lat="47.55944" lon="-2.30311">
        <ele>35.6</ele>
        <time>2025-01-16T11:49:17Z</time>
      </trkpt>
      <trkpt lat="47.55944" lon="-2.30311">
        <ele>35.6</ele>
        <time>2025-01-16T11:49:18Z</time>
      </trkpt>
      <trkpt lat="47.55944" lon="-2.30311">
        <ele>35.6</ele>
        <time>2025-01-16T11:49:19Z</time>
      </trkpt>
      <trkpt lat="47.55944" lon="-2.30311">
        <ele>35.6</ele>
        <time>2025-01-16T11:49:20Z</time>
      </trkpt>
      <trkpt lat="47.55944" lon="-2.30311">
        <ele>35.6</ele>
        <time>2025-01-16T11:49:21Z</time>
      </trkpt>
      <trkpt lat="47.55944" lon="-2.30311">
        <ele>35.6</ele>
        <time>2025-01-16T11:49:22Z</time>
      </trkpt>
      <trkpt lat="47.55944" lon="-2.30311">
        <ele>35.6</ele>
        <time>2025-01-16T11:49:23Z</time>
      </trkpt>
      <trkpt lat="47.55944" lon="-2.30311">
        <ele>35.6</ele>
        <time>2025-01-16T11:49:24Z</time>
      </trkpt>
      <trkpt lat="47.55944" lon="-2.30311">
        <ele>35.6</ele>
        <time>2025-01-16T11:49:25Z</time>
      </trkpt>
      <trkpt lat="47.55944" lon="-2.30311">
        <ele>35.6</ele>
        <time>2025-01-16T11:49:26Z</time>
      </trkpt>
      <trkpt lat="47.55944" lon="-2.30311">
        <ele>35.6</ele>
        <time>2025-01-16T11:49:27Z</time>
      </trkpt>
      <trkpt lat="47.55944" lon="-2.30311">
        <ele>35.6</ele>
        <time>2025-01-16T11:49:28Z</time>
      </trkpt>
      <trkpt lat="47.55944" lon="-2.30311">
        <ele>35.6</ele>
        <time>2025-01-16T11:49:29Z</time>
      </trkpt>
      <trkpt lat="47.55944" lon="-2.30311">
        <ele>35.6</ele>
        <time>2025-01-16T11:49:30Z</time>
      </trkpt>
      <trkpt lat="47.55944" lon="-2.30311">
        <ele>35.6</ele>
        <time>2025-01-16T11:49:31Z</time>
      </trkpt>
      <trkpt lat="47.55944" lon="-2.30311">
        <ele>35.6</ele>
        <time>2025-01-16T11:49:32Z</time>
      </trkpt>
      <trkpt lat="47.55944" lon="-2.30311">
        <ele>35.6</ele>
        <time>2025-01-16T11:49:33Z</time>
      </trkpt>
      <trkpt lat="47.55944" lon="-2.30311">
        <ele>35.6</ele>
        <time>2025-01-16T11:49:34Z</time>
      </trkpt>
      <trkpt lat="47.55944" lon="-2.30311">
        <ele>35.6</ele>
        <time>2025-01-16T11:49:35Z</time>
      </trkpt>
      <trkpt lat="47.55944" lon="-2.30311">
        <ele>35.6</ele>
        <time>2025-01-16T11:49:36Z</time>
      </trkpt>
      <trkpt lat="47.55944" lon="-2.30311">
        <ele>35.6</ele>
        <time>2025-01-16T11:49:37Z</time>
      </trkpt>
      <trkpt lat="47.55944" lon="-2.30311">
        <ele>35.6</ele>
        <time>2025-01-16T11:49:38Z</time>
      </trkpt>
      <trkpt lat="47.55944" lon="-2.30311">
        <ele>35.6</ele>
        <time>2025-01-16T11:49:39Z</time>
      </trkpt>
      <trkpt lat="47.55944" lon="-2.30311">
        <ele>35.6</ele>
        <time>2025-01-16T11:49:40Z</time>
      </trkpt>
      <trkpt lat="47.55944" lon="-2.30311">
        <ele>35.6</ele>
        <time>2025-01-16T11:49:41Z</time>
      </trkpt>
      <trkpt lat="47.55944" lon="-2.30311">
        <ele>35.6</ele>
        <time>2025-01-16T11:49:42Z</time>
      </trkpt>
      <trkpt lat="47.55944" lon="-2.30311">
        <ele>35.6</ele>
        <time>2025-01-16T11:49:43Z</time>
      </trkpt>
      <trkpt lat="47.55944" lon="-2.30311">
        <ele>35.6</ele>
        <time>2025-01-16T11:49:44Z</time>
      </trkpt>
      <trkpt lat="47.55944" lon="-2.30311">
        <ele>35.6</ele>
        <time>2025-01-16T11:49:45Z</time>
      </trkpt>
      <trkpt lat="47.55944" lon="-2.30311">
        <ele>35.6</ele>
        <time>2025-01-16T11:49:46Z</time>
      </trkpt>
      <trkpt lat="47.55944" lon="-2.30312">
        <ele>35.7</ele>
        <time>2025-01-16T11:49:47Z</time>
      </trkpt>
      <trkpt lat="47.55944" lon="-2.30313">
        <ele>35.8</ele>
        <time>2025-01-16T11:49:48Z</time>
      </trkpt>
      <trkpt lat="47.55945" lon="-2.30314">
        <ele>35.9</ele>
        <time>2025-01-16T11:49:49Z</time>
      </trkpt>
      <trkpt lat="47.55945" lon="-2.30315">
        <ele>36</ele>
        <time>2025-01-16T11:49:50Z</time>
      </trkpt>
      <trkpt lat="47.55945" lon="-2.30316">
        <ele>36.1</ele>
        <time>2025-01-16T11:49:51Z</time>
      </trkpt>
      <trkpt lat="47.55945" lon="-2.30316">
        <ele>36.1</ele>
        <time>2025-01-16T11:49:52Z</time>
      </trkpt>
      <trkpt lat="47.55945" lon="-2.30316">
        <ele>36.1</ele>
        <time>2025-01-16T11:49:53Z</time>
      </trkpt>
      <trkpt lat="47.55944" lon="-2.30317">
        <ele>36.3</ele>
        <time>2025-01-16T11:49:54Z</time>
      </trkpt>
      <trkpt lat="47.55945" lon="-2.30317">
        <ele>36.2</ele>
        <time>2025-01-16T11:49:55Z</time>
      </trkpt>
      <trkpt lat="47.55944" lon="-2.30318">
        <ele>36.4</ele>
        <time>2025-01-16T11:49:56Z</time>
      </trkpt>
      <trkpt lat="47.55945" lon="-2.30318">
        <ele>36.3</ele>
        <time>2025-01-16T11:49:57Z</time>
      </trkpt>
      <trkpt lat="47.55945" lon="-2.30318">
        <ele>36.3</ele>
        <time>2025-01-16T11:49:58Z</time>
      </trkpt>
      <trkpt lat="47.55944" lon="-2.30318">
        <ele>36.4</ele>
        <time>2025-01-16T11:49:59Z</time>
      </trkpt>
      <trkpt lat="47.55945" lon="-2.30318">
        <ele>36.3</ele>
        <time>2025-01-16T11:50:00Z</time>
      </trkpt>
      <trkpt lat="47.55945" lon="-2.30318">
        <ele>36.3</ele>
        <time>2025-01-16T11:50:01Z</time>
      </trkpt>
      <trkpt lat="47.55945" lon="-2.30318">
        <ele>36.3</ele>
        <time>2025-01-16T11:50:02Z</time>
      </trkpt>
      <trkpt lat="47.55945" lon="-2.30318">
        <ele>36.3</ele>
        <time>2025-01-16T11:50:03Z</time>
      </trkpt>
      <trkpt lat="47.55945" lon="-2.30318">
        <ele>36.3</ele>
        <time>2025-01-16T11:50:04Z</time>
      </trkpt>
      <trkpt lat="47.55945" lon="-2.30318">
        <ele>36.3</ele>
        <time>2025-01-16T11:50:05Z</time>
      </trkpt>
      <trkpt lat="47.55945" lon="-2.30318">
        <ele>36.3</ele>
        <time>2025-01-16T11:50:06Z</time>
      </trkpt>
      <trkpt lat="47.55945" lon="-2.30318">
        <ele>36.3</ele>
        <time>2025-01-16T11:50:07Z</time>
      </trkpt>
      <trkpt lat="47.55945" lon="-2.30318">
        <ele>36.3</ele>
        <time>2025-01-16T11:50:08Z</time>
      </trkpt>
      <trkpt lat="47.55945" lon="-2.30318">
        <ele>36.3</ele>
        <time>2025-01-16T11:50:09Z</time>
      </trkpt>
      <trkpt lat="47.55945" lon="-2.30318">
        <ele>36.3</ele>
        <time>2025-01-16T11:50:10Z</time>
      </trkpt>
      <trkpt lat="47.55945" lon="-2.30319">
        <ele>36.4</ele>
        <time>2025-01-16T11:50:11Z</time>
      </trkpt>
      <trkpt lat="47.55944" lon="-2.30319">
        <ele>36.5</ele>
        <time>2025-01-16T11:50:12Z</time>
      </trkpt>
      <trkpt lat="47.55944" lon="-2.30319">
        <ele>36.5</ele>
        <time>2025-01-16T11:50:13Z</time>
      </trkpt>
      <trkpt lat="47.55944" lon="-2.30319">
        <ele>36.5</ele>
        <time>2025-01-16T11:50:14Z</time>
      </trkpt>
      <trkpt lat="47.55945" lon="-2.30319">
        <ele>36.4</ele>
        <time>2025-01-16T11:50:15Z</time>
      </trkpt>
      <trkpt lat="47.55945" lon="-2.30319">
        <ele>36.4</ele>
        <time>2025-01-16T11:50:16Z</time>
      </trkpt>
      <trkpt lat="47.55945" lon="-2.30319">
        <ele>36.4</ele>
        <time>2025-01-16T11:50:17Z</time>
      </trkpt>
      <trkpt lat="47.55945" lon="-2.30319">
        <ele>36.4</ele>
        <time>2025-01-16T11:50:18Z</time>
      </trkpt>
      <trkpt lat="47.55945" lon="-2.30319">
        <ele>36.4</ele>
        <time>2025-01-16T11:50:19Z</time>
      </trkpt>
      <trkpt lat="47.55945" lon="-2.30319">
        <ele>36.4</ele>
        <time>2025-01-16T11:50:20Z</time>
      </trkpt>
      <trkpt lat="47.55945" lon="-2.30319">
        <ele>36.4</ele>
        <time>2025-01-16T11:50:21Z</time>
      </trkpt>
      <trkpt lat="47.55945" lon="-2.3032">
        <ele>36.6</ele>
        <time>2025-01-16T11:50:22Z</time>
      </trkpt>
      <trkpt lat="47.55945" lon="-2.3032">
        <ele>36.6</ele>
        <time>2025-01-16T11:50:23Z</time>
      </trkpt>
      <trkpt lat="47.55945" lon="-2.3032">
        <ele>36.6</ele>
        <time>2025-01-16T11:50:24Z</time>
      </trkpt>
      <trkpt lat="47.55945" lon="-2.3032">
        <ele>36.6</ele>
        <time>2025-01-16T11:50:25Z</time>
      </trkpt>
      <trkpt lat="47.55945" lon="-2.30321">
        <ele>36.7</ele>
        <time>2025-01-16T11:50:26Z</time>
      </trkpt>
      <trkpt lat="47.55944" lon="-2.30322">
        <ele>36.8</ele>
        <time>2025-01-16T11:50:27Z</time>
      </trkpt>
      <trkpt lat="47.55945" lon="-2.30322">
        <ele>36.8</ele>
        <time>2025-01-16T11:50:28Z</time>
      </trkpt>
      <trkpt lat="47.55945" lon="-2.30322">
        <ele>36.8</ele>
        <time>2025-01-16T11:50:29Z</time>
      </trkpt>
      <trkpt lat="47.55945" lon="-2.30322">
        <ele>36.8</ele>
        <time>2025-01-16T11:50:30Z</time>
      </trkpt>
      <trkpt lat="47.55945" lon="-2.30323">
        <ele>36.9</ele>
        <time>2025-01-16T11:50:31Z</time>
      </trkpt>
      <trkpt lat="47.55945" lon="-2.30322">
        <ele>36.8</ele>
        <time>2025-01-16T11:50:32Z</time>
      </trkpt>
      <trkpt lat="47.55945" lon="-2.30323">
        <ele>36.9</ele>
        <time>2025-01-16T11:50:33Z</time>
      </trkpt>
      <trkpt lat="47.55945" lon="-2.30323">
        <ele>36.9</ele>
        <time>2025-01-16T11:50:34Z</time>
      </trkpt>
      <trkpt lat="47.55945" lon="-2.30323">
        <ele>36.9</ele>
        <time>2025-01-16T11:50:35Z</time>
      </trkpt>
      <trkpt lat="47.55945" lon="-2.30323">
        <ele>36.9</ele>
        <time>2025-01-16T11:50:36Z</time>
      </trkpt>
      <trkpt lat="47.55945" lon="-2.30323">
        <ele>36.9</ele>
        <time>2025-01-16T11:50:37Z</time>
      </trkpt>
      <trkpt lat="47.55945" lon="-2.30323">
        <ele>36.9</ele>
        <time>2025-01-16T11:50:38Z</time>
      </trkpt>
      <trkpt lat="47.55945" lon="-2.30322">
        <ele>36.8</ele>
        <time>2025-01-16T11:50:39Z</time>
      </trkpt>
      <trkpt lat="47.55945" lon="-2.30321">
        <ele>36.7</ele>
        <time>2025-01-16T11:50:40Z</time>
      </trkpt>
      <trkpt lat="47.55945" lon="-2.30321">
        <ele>36.7</ele>
        <time>2025-01-16T11:50:41Z</time>
      </trkpt>
      <trkpt lat="47.55945" lon="-2.3032">
        <ele>36.6</ele>
        <time>2025-01-16T11:50:42Z</time>
      </trkpt>
      <trkpt lat="47.55945" lon="-2.3032">
        <ele>36.6</ele>
        <time>2025-01-16T11:50:43Z</time>
      </trkpt>
      <trkpt lat="47.55944" lon="-2.30319">
        <ele>36.5</ele>
        <time>2025-01-16T11:50:44Z</time>
      </trkpt>
      <trkpt lat="47.55944" lon="-2.30319">
        <ele>36.5</ele>
        <time>2025-01-16T11:50:45Z</time>
      </trkpt>
      <trkpt lat="47.55944" lon="-2.30319">
        <ele>36.5</ele>
        <time>2025-01-16T11:50:46Z</time>
      </trkpt>
      <trkpt lat="47.55944" lon="-2.30319">
        <ele>36.5</ele>
        <time>2025-01-16T11:50:47Z</time>
      </trkpt>
      <trkpt lat="47.55944" lon="-2.30318">
        <ele>36.4</ele>
        <time>2025-01-16T11:50:48Z</time>
      </trkpt>
      <trkpt lat="47.55944" lon="-2.30318">
        <ele>36.4</ele>
        <time>2025-01-16T11:50:49Z</time>
      </trkpt>
      <trkpt lat="47.55944" lon="-2.30318">
        <ele>36.4</ele>
        <time>2025-01-16T11:50:50Z</time>
      </trkpt>
      <trkpt lat="47.55944" lon="-2.30318">
        <ele>36.4</ele>
        <time>2025-01-16T11:50:51Z</time>
      </trkpt>
      <trkpt lat="47.55944" lon="-2.30318">
        <ele>36.4</ele>
        <time>2025-01-16T11:50:52Z</time>
      </trkpt>
      <trkpt lat="47.55944" lon="-2.30318">
        <ele>36.4</ele>
        <time>2025-01-16T11:50:53Z</time>
      </trkpt>
      <trkpt lat="47.55944" lon="-2.30318">
        <ele>36.4</ele>
        <time>2025-01-16T11:50:54Z</time>
      </trkpt>
      <trkpt lat="47.55944" lon="-2.30318">
        <ele>36.4</ele>
        <time>2025-01-16T11:50:55Z</time>
      </trkpt>
      <trkpt lat="47.55944" lon="-2.30318">
        <ele>36.4</ele>
        <time>2025-01-16T11:50:56Z</time>
      </trkpt>
      <trkpt lat="47.55944" lon="-2.30318">
        <ele>36.4</ele>
        <time>2025-01-16T11:50:57Z</time>
      </trkpt>
      <trkpt lat="47.55944" lon="-2.30318">
        <ele>36.4</ele>
        <time>2025-01-16T11:50:58Z</time>
      </trkpt>
      <trkpt lat="47.55944" lon="-2.30318">
        <ele>36.4</ele>
        <time>2025-01-16T11:50:59Z</time>
      </trkpt>
      <trkpt lat="47.55944" lon="-2.30318">
        <ele>36.4</ele>
        <time>2025-01-16T11:51:00Z</time>
      </trkpt>
      <trkpt lat="47.55944" lon="-2.30318">
        <ele>36.4</ele>
        <time>2025-01-16T11:51:01Z</time>
      </trkpt>
      <trkpt lat="47.55944" lon="-2.30318">
        <ele>36.4</ele>
        <time>2025-01-16T11:51:02Z</time>
      </trkpt>
      <trkpt lat="47.55944" lon="-2.30318">
        <ele>36.4</ele>
        <time>2025-01-16T11:51:03Z</time>
      </trkpt>
      <trkpt lat="47.55945" lon="-2.30317">
        <ele>36.2</ele>
        <time>2025-01-16T11:51:04Z</time>
      </trkpt>
      <trkpt lat="47.55945" lon="-2.30317">
        <ele>36.2</ele>
        <time>2025-01-16T11:51:05Z</time>
      </trkpt>
      <trkpt lat="47.55945" lon="-2.30317">
        <ele>36.2</ele>
        <time>2025-01-16T11:51:06Z</time>
      </trkpt>
      <trkpt lat="47.55946" lon="-2.30316">
        <ele>36.1</ele>
        <time>2025-01-16T11:51:07Z</time>
      </trkpt>
      <trkpt lat="47.55946" lon="-2.30316">
        <ele>36.1</ele>
        <time>2025-01-16T11:51:08Z</time>
      </trkpt>
      <trkpt lat="47.55946" lon="-2.30316">
        <ele>36.1</ele>
        <time>2025-01-16T11:51:09Z</time>
      </trkpt>
      <trkpt lat="47.55946" lon="-2.30315">
        <ele>36</ele>
        <time>2025-01-16T11:51:10Z</time>
      </trkpt>
      <trkpt lat="47.55946" lon="-2.30315">
        <ele>36</ele>
        <time>2025-01-16T11:51:11Z</time>
      </trkpt>
      <trkpt lat="47.55946" lon="-2.30315">
        <ele>36</ele>
        <time>2025-01-16T11:51:12Z</time>
      </trkpt>
      <trkpt lat="47.55946" lon="-2.30315">
        <ele>36</ele>
        <time>2025-01-16T11:51:13Z</time>
      </trkpt>
      <trkpt lat="47.55945" lon="-2.30315">
        <ele>36</ele>
        <time>2025-01-16T11:51:14Z</time>
      </trkpt>
      <trkpt lat="47.55945" lon="-2.30315">
        <ele>36</ele>
        <time>2025-01-16T11:51:15Z</time>
      </trkpt>
      <trkpt lat="47.55945" lon="-2.30315">
        <ele>36</ele>
        <time>2025-01-16T11:51:16Z</time>
      </trkpt>
      <trkpt lat="47.55945" lon="-2.30315">
        <ele>36</ele>
        <time>2025-01-16T11:51:17Z</time>
      </trkpt>
      <trkpt lat="47.55945" lon="-2.30315">
        <ele>36</ele>
        <time>2025-01-16T11:51:18Z</time>
      </trkpt>
      <trkpt lat="47.55945" lon="-2.30315">
        <ele>36</ele>
        <time>2025-01-16T11:51:19Z</time>
      </trkpt>
      <trkpt lat="47.55945" lon="-2.30315">
        <ele>36</ele>
        <time>2025-01-16T11:51:20Z</time>
      </trkpt>
      <trkpt lat="47.55945" lon="-2.30315">
        <ele>36</ele>
        <time>2025-01-16T11:51:21Z</time>
      </trkpt>
      <trkpt lat="47.55945" lon="-2.30314">
        <ele>35.9</ele>
        <time>2025-01-16T11:51:22Z</time>
      </trkpt>
      <trkpt lat="47.55945" lon="-2.30314">
        <ele>35.9</ele>
        <time>2025-01-16T11:51:23Z</time>
      </trkpt>
      <trkpt lat="47.55945" lon="-2.30314">
        <ele>35.9</ele>
        <time>2025-01-16T11:51:24Z</time>
      </trkpt>
      <trkpt lat="47.55945" lon="-2.30315">
        <ele>36</ele>
        <time>2025-01-16T11:51:25Z</time>
      </trkpt>
      <trkpt lat="47.55945" lon="-2.30315">
        <ele>36</ele>
        <time>2025-01-16T11:51:26Z</time>
      </trkpt>
      <trkpt lat="47.55944" lon="-2.30316">
        <ele>36.2</ele>
        <time>2025-01-16T11:51:27Z</time>
      </trkpt>
      <trkpt lat="47.55943" lon="-2.30317">
        <ele>36.3</ele>
        <time>2025-01-16T11:51:28Z</time>
      </trkpt>
      <trkpt lat="47.55942" lon="-2.30317">
        <ele>36.4</ele>
        <time>2025-01-16T11:51:29Z</time>
      </trkpt>
      <trkpt lat="47.55942" lon="-2.30317">
        <ele>36.4</ele>
        <time>2025-01-16T11:51:30Z</time>
      </trkpt>
      <trkpt lat="47.55941" lon="-2.30317">
        <ele>36.4</ele>
        <time>2025-01-16T11:51:31Z</time>
      </trkpt>
      <trkpt lat="47.55941" lon="-2.30317">
        <ele>36.4</ele>
        <time>2025-01-16T11:51:32Z</time>
      </trkpt>
      <trkpt lat="47.5594" lon="-2.30316">
        <ele>36.4</ele>
        <time>2025-01-16T11:51:33Z</time>
      </trkpt>
      <trkpt lat="47.55939" lon="-2.30316">
        <ele>36.4</ele>
        <time>2025-01-16T11:51:34Z</time>
      </trkpt>
      <trkpt lat="47.55938" lon="-2.30315">
        <ele>36.4</ele>
        <time>2025-01-16T11:51:35Z</time>
      </trkpt>
      <trkpt lat="47.55938" lon="-2.30314">
        <ele>36.3</ele>
        <time>2025-01-16T11:51:36Z</time>
      </trkpt>
      <trkpt lat="47.55937" lon="-2.30313">
        <ele>36.3</ele>
        <time>2025-01-16T11:51:37Z</time>
      </trkpt>
      <trkpt lat="47.55936" lon="-2.30311">
        <ele>36.1</ele>
        <time>2025-01-16T11:51:38Z</time>
      </trkpt>
      <trkpt lat="47.55935" lon="-2.3031">
        <ele>36.1</ele>
        <time>2025-01-16T11:51:39Z</time>
      </trkpt>
      <trkpt lat="47.55935" lon="-2.30309">
        <ele>36</ele>
        <time>2025-01-16T11:51:40Z</time>
      </trkpt>
      <trkpt lat="47.55934" lon="-2.30307">
        <ele>35.9</ele>
        <time>2025-01-16T11:51:41Z</time>
      </trkpt>
      <trkpt lat="47.55934" lon="-2.30305">
        <ele>35.7</ele>
        <time>2025-01-16T11:51:42Z</time>
      </trkpt>
      <trkpt lat="47.55934" lon="-2.30303">
        <ele>35.6</ele>
        <time>2025-01-16T11:51:43Z</time>
      </trkpt>
      <trkpt lat="47.55933" lon="-2.30302">
        <ele>35.6</ele>
        <time>2025-01-16T11:51:44Z</time>
      </trkpt>
      <trkpt lat="47.55933" lon="-2.303">
        <ele>35.5</ele>
        <time>2025-01-16T11:51:45Z</time>
      </trkpt>
      <trkpt lat="47.55933" lon="-2.30299">
        <ele>35.4</ele>
        <time>2025-01-16T11:51:46Z</time>
      </trkpt>
      <trkpt lat="47.55933" lon="-2.30297">
        <ele>35.3</ele>
        <time>2025-01-16T11:51:47Z</time>
      </trkpt>
      <trkpt lat="47.55933" lon="-2.30296">
        <ele>35.2</ele>
        <time>2025-01-16T11:51:48Z</time>
      </trkpt>
      <trkpt lat="47.55933" lon="-2.30294">
        <ele>35.1</ele>
        <time>2025-01-16T11:51:49Z</time>
      </trkpt>
      <trkpt lat="47.55933" lon="-2.30292">
        <ele>35</ele>
        <time>2025-01-16T11:51:50Z</time>
      </trkpt>
      <trkpt lat="47.55932" lon="-2.30291">
        <ele>35</ele>
        <time>2025-01-16T11:51:51Z</time>
      </trkpt>
      <trkpt lat="47.55932" lon="-2.30289">
        <ele>34.9</ele>
        <time>2025-01-16T11:51:52Z</time>
      </trkpt>
      <trkpt lat="47.55932" lon="-2.30287">
        <ele>34.8</ele>
        <time>2025-01-16T11:51:53Z</time>
      </trkpt>
      <trkpt lat="47.55932" lon="-2.30286">
        <ele>34.7</ele>
        <time>2025-01-16T11:51:54Z</time>
      </trkpt>
      <trkpt lat="47.55932" lon="-2.30284">
        <ele>34.6</ele>
        <time>2025-01-16T11:51:55Z</time>
      </trkpt>
      <trkpt lat="47.55932" lon="-2.30283">
        <ele>34.6</ele>
        <time>2025-01-16T11:51:56Z</time>
      </trkpt>
      <trkpt lat="47.55932" lon="-2.30281">
        <ele>34.4</ele>
        <time>2025-01-16T11:51:57Z</time>
      </trkpt>
      <trkpt lat="47.55932" lon="-2.3028">
        <ele>34.4</ele>
        <time>2025-01-16T11:51:58Z</time>
      </trkpt>
      <trkpt lat="47.55932" lon="-2.30278">
        <ele>34.3</ele>
        <time>2025-01-16T11:51:59Z</time>
      </trkpt>
      <trkpt lat="47.55932" lon="-2.30276">
        <ele>34.3</ele>
        <time>2025-01-16T11:52:00Z</time>
      </trkpt>
      <trkpt lat="47.55932" lon="-2.30275">
        <ele>34.3</ele>
        <time>2025-01-16T11:52:01Z</time>
      </trkpt>
      <trkpt lat="47.55931" lon="-2.30273">
        <ele>34.5</ele>
        <time>2025-01-16T11:52:02Z</time>
      </trkpt>
      <trkpt lat="47.55931" lon="-2.30272">
        <ele>34.5</ele>
        <time>2025-01-16T11:52:03Z</time>
      </trkpt>
      <trkpt lat="47.5593" lon="-2.30271">
        <ele>34.7</ele>
        <time>2025-01-16T11:52:04Z</time>
      </trkpt>
      <trkpt lat="47.5593" lon="-2.30271">
        <ele>34.7</ele>
        <time>2025-01-16T11:52:05Z</time>
      </trkpt>
      <trkpt lat="47.5593" lon="-2.30271">
        <ele>34.7</ele>
        <time>2025-01-16T11:52:06Z</time>
      </trkpt>
      <trkpt lat="47.5593" lon="-2.30271">
        <ele>34.7</ele>
        <time>2025-01-16T11:52:07Z</time>
      </trkpt>
      <trkpt lat="47.5593" lon="-2.30271">
        <ele>34.7</ele>
        <time>2025-01-16T11:52:08Z</time>
      </trkpt>
      <trkpt lat="47.5593" lon="-2.30271">
        <ele>34.7</ele>
        <time>2025-01-16T11:52:09Z</time>
      </trkpt>
      <trkpt lat="47.55929" lon="-2.3027">
        <ele>34.9</ele>
        <time>2025-01-16T11:52:10Z</time>
      </trkpt>
      <trkpt lat="47.55929" lon="-2.30269">
        <ele>34.9</ele>
        <time>2025-01-16T11:52:11Z</time>
      </trkpt>
      <trkpt lat="47.55929" lon="-2.30269">
        <ele>34.9</ele>
        <time>2025-01-16T11:52:12Z</time>
      </trkpt>
      <trkpt lat="47.55928" lon="-2.30268">
        <ele>35.1</ele>
        <time>2025-01-16T11:52:13Z</time>
      </trkpt>
      <trkpt lat="47.55927" lon="-2.30268">
        <ele>35.3</ele>
        <time>2025-01-16T11:52:14Z</time>
      </trkpt>
      <trkpt lat="47.55926" lon="-2.30267">
        <ele>35.5</ele>
        <time>2025-01-16T11:52:15Z</time>
      </trkpt>
      <trkpt lat="47.55925" lon="-2.30267">
        <ele>35.6</ele>
        <time>2025-01-16T11:52:16Z</time>
      </trkpt>
      <trkpt lat="47.55924" lon="-2.30267">
        <ele>35.8</ele>
        <time>2025-01-16T11:52:17Z</time>
      </trkpt>
      <trkpt lat="47.55923" lon="-2.30267">
        <ele>35.9</ele>
        <time>2025-01-16T11:52:18Z</time>
      </trkpt>
      <trkpt lat="47.55922" lon="-2.30268">
        <ele>36.1</ele>
        <time>2025-01-16T11:52:19Z</time>
      </trkpt>
      <trkpt lat="47.55921" lon="-2.30269">
        <ele>36.3</ele>
        <time>2025-01-16T11:52:20Z</time>
      </trkpt>
      <trkpt lat="47.5592" lon="-2.30269">
        <ele>36.4</ele>
        <time>2025-01-16T11:52:21Z</time>
      </trkpt>
      <trkpt lat="47.55919" lon="-2.3027">
        <ele>36.6</ele>
        <time>2025-01-16T11:52:22Z</time>
      </trkpt>
      <trkpt lat="47.55918" lon="-2.3027">
        <ele>36.8</ele>
        <time>2025-01-16T11:52:23Z</time>
      </trkpt>
      <trkpt lat="47.55916" lon="-2.30271">
        <ele>37.1</ele>
        <time>2025-01-16T11:52:24Z</time>
      </trkpt>
      <trkpt lat="47.55915" lon="-2.30271">
        <ele>37.2</ele>
        <time>2025-01-16T11:52:25Z</time>
      </trkpt>
      <trkpt lat="47.55914" lon="-2.30272">
        <ele>37.3</ele>
        <time>2025-01-16T11:52:26Z</time>
      </trkpt>
      <trkpt lat="47.55913" lon="-2.30273">
        <ele>37.4</ele>
        <time>2025-01-16T11:52:27Z</time>
      </trkpt>
      <trkpt lat="47.55912" lon="-2.30273">
        <ele>37.5</ele>
        <time>2025-01-16T11:52:28Z</time>
      </trkpt>
      <trkpt lat="47.55911" lon="-2.30273">
        <ele>37.6</ele>
        <time>2025-01-16T11:52:29Z</time>
      </trkpt>
      <trkpt lat="47.5591" lon="-2.30273">
        <ele>37.7</ele>
        <time>2025-01-16T11:52:30Z</time>
      </trkpt>
      <trkpt lat="47.5591" lon="-2.30273">
        <ele>37.7</ele>
        <time>2025-01-16T11:52:31Z</time>
      </trkpt>
      <trkpt lat="47.55909" lon="-2.30273">
        <ele>37.8</ele>
        <time>2025-01-16T11:52:32Z</time>
      </trkpt>
      <trkpt lat="47.55907" lon="-2.30274">
        <ele>38</ele>
        <time>2025-01-16T11:52:33Z</time>
      </trkpt>
      <trkpt lat="47.55906" lon="-2.30275">
        <ele>38.1</ele>
        <time>2025-01-16T11:52:34Z</time>
      </trkpt>
      <trkpt lat="47.55906" lon="-2.30275">
        <ele>38.1</ele>
        <time>2025-01-16T11:52:35Z</time>
      </trkpt>
      <trkpt lat="47.55905" lon="-2.30275">
        <ele>38.2</ele>
        <time>2025-01-16T11:52:36Z</time>
      </trkpt>
      <trkpt lat="47.55905" lon="-2.30276">
        <ele>38.2</ele>
        <time>2025-01-16T11:52:37Z</time>
      </trkpt>
      <trkpt lat="47.55904" lon="-2.30277">
        <ele>38.4</ele>
        <time>2025-01-16T11:52:38Z</time>
      </trkpt>
      <trkpt lat="47.55903" lon="-2.30277">
        <ele>38.5</ele>
        <time>2025-01-16T11:52:39Z</time>
      </trkpt>
      <trkpt lat="47.55903" lon="-2.30278">
        <ele>38.5</ele>
        <time>2025-01-16T11:52:40Z</time>
      </trkpt>
      <trkpt lat="47.55904" lon="-2.30278">
        <ele>38.4</ele>
        <time>2025-01-16T11:52:41Z</time>
      </trkpt>
      <trkpt lat="47.55903" lon="-2.30278">
        <ele>38.5</ele>
        <time>2025-01-16T11:52:42Z</time>
      </trkpt>
      <trkpt lat="47.55903" lon="-2.30278">
        <ele>38.5</ele>
        <time>2025-01-16T11:52:43Z</time>
      </trkpt>
      <trkpt lat="47.55903" lon="-2.30277">
        <ele>38.5</ele>
        <time>2025-01-16T11:52:44Z</time>
      </trkpt>
      <trkpt lat="47.55904" lon="-2.30275">
        <ele>38.3</ele>
        <time>2025-01-16T11:52:45Z</time>
      </trkpt>
      <trkpt lat="47.55904" lon="-2.30274">
        <ele>38.3</ele>
        <time>2025-01-16T11:52:46Z</time>
      </trkpt>
      <trkpt lat="47.55904" lon="-2.30274">
        <ele>38.3</ele>
        <time>2025-01-16T11:52:47Z</time>
      </trkpt>
      <trkpt lat="47.55904" lon="-2.30273">
        <ele>38.3</ele>
        <time>2025-01-16T11:52:51Z</time>
      </trkpt>
      <trkpt lat="47.55904" lon="-2.30273">
        <ele>38.3</ele>
        <time>2025-01-16T11:52:52Z</time>
      </trkpt>
      <trkpt lat="47.55904" lon="-2.30272">
        <ele>38.3</ele>
        <time>2025-01-16T11:52:53Z</time>
      </trkpt>
      <trkpt lat="47.55904" lon="-2.30272">
        <ele>38.3</ele>
        <time>2025-01-16T11:52:54Z</time>
      </trkpt>
      <trkpt lat="47.55904" lon="-2.30271">
        <ele>38.3</ele>
        <time>2025-01-16T11:52:55Z</time>
      </trkpt>
      <trkpt lat="47.55904" lon="-2.30271">
        <ele>38.3</ele>
        <time>2025-01-16T11:52:56Z</time>
      </trkpt>
      <trkpt lat="47.55905" lon="-2.30271">
        <ele>38.2</ele>
        <time>2025-01-16T11:52:57Z</time>
      </trkpt>
      <trkpt lat="47.55905" lon="-2.30272">
        <ele>38.2</ele>
        <time>2025-01-16T11:52:58Z</time>
      </trkpt>
      <trkpt lat="47.55905" lon="-2.30272">
        <ele>38.2</ele>
        <time>2025-01-16T11:52:59Z</time>
      </trkpt>
      <trkpt lat="47.55905" lon="-2.30272">
        <ele>38.2</ele>
        <time>2025-01-16T11:53:00Z</time>
      </trkpt>
      <trkpt lat="47.55905" lon="-2.30272">
        <ele>38.2</ele>
        <time>2025-01-16T11:53:01Z</time>
      </trkpt>
      <trkpt lat="47.55905" lon="-2.30272">
        <ele>38.2</ele>
        <time>2025-01-16T11:53:02Z</time>
      </trkpt>
      <trkpt lat="47.55905" lon="-2.30272">
        <ele>38.2</ele>
        <time>2025-01-16T11:53:03Z</time>
      </trkpt>
      <trkpt lat="47.55905" lon="-2.30272">
        <ele>38.2</ele>
        <time>2025-01-16T11:53:04Z</time>
      </trkpt>
      <trkpt lat="47.55905" lon="-2.30272">
        <ele>38.2</ele>
        <time>2025-01-16T11:53:05Z</time>
      </trkpt>
      <trkpt lat="47.55904" lon="-2.30272">
        <ele>38.3</ele>
        <time>2025-01-16T11:53:06Z</time>
      </trkpt>
      <trkpt lat="47.55904" lon="-2.30272">
        <ele>38.3</ele>
        <time>2025-01-16T11:53:07Z</time>
      </trkpt>
      <trkpt lat="47.55904" lon="-2.30272">
        <ele>38.3</ele>
        <time>2025-01-16T11:53:08Z</time>
      </trkpt>
      <trkpt lat="47.55904" lon="-2.30272">
        <ele>38.3</ele>
        <time>2025-01-16T11:53:09Z</time>
      </trkpt>
      <trkpt lat="47.55904" lon="-2.30272">
        <ele>38.3</ele>
        <time>2025-01-16T11:53:10Z</time>
      </trkpt>
      <trkpt lat="47.55904" lon="-2.30272">
        <ele>38.3</ele>
        <time>2025-01-16T11:53:11Z</time>
      </trkpt>
      <trkpt lat="47.55904" lon="-2.30272">
        <ele>38.3</ele>
        <time>2025-01-16T11:53:12Z</time>
      </trkpt>
      <trkpt lat="47.55904" lon="-2.30272">
        <ele>38.3</ele>
        <time>2025-01-16T11:53:13Z</time>
      </trkpt>
      <trkpt lat="47.55904" lon="-2.30272">
        <ele>38.3</ele>
        <time>2025-01-16T11:53:14Z</time>
      </trkpt>
      <trkpt lat="47.55904" lon="-2.30272">
        <ele>38.3</ele>
        <time>2025-01-16T11:53:15Z</time>
      </trkpt>
      <trkpt lat="47.55904" lon="-2.30272">
        <ele>38.3</ele>
        <time>2025-01-16T11:53:16Z</time>
      </trkpt>
      <trkpt lat="47.55903" lon="-2.30272">
        <ele>38.4</ele>
        <time>2025-01-16T11:53:17Z</time>
      </trkpt>
      <trkpt lat="47.55903" lon="-2.30272">
        <ele>38.4</ele>
        <time>2025-01-16T11:53:18Z</time>
      </trkpt>
      <trkpt lat="47.55903" lon="-2.30272">
        <ele>38.4</ele>
        <time>2025-01-16T11:53:19Z</time>
      </trkpt>
      <trkpt lat="47.55903" lon="-2.30273">
        <ele>38.4</ele>
        <time>2025-01-16T11:53:20Z</time>
      </trkpt>
      <trkpt lat="47.55903" lon="-2.30273">
        <ele>38.4</ele>
        <time>2025-01-16T11:53:21Z</time>
      </trkpt>
      <trkpt lat="47.55903" lon="-2.30273">
        <ele>38.4</ele>
        <time>2025-01-16T11:53:22Z</time>
      </trkpt>
      <trkpt lat="47.55903" lon="-2.30273">
        <ele>38.4</ele>
        <time>2025-01-16T11:53:23Z</time>
      </trkpt>
      <trkpt lat="47.55903" lon="-2.30273">
        <ele>38.4</ele>
        <time>2025-01-16T11:53:24Z</time>
      </trkpt>
      <trkpt lat="47.55903" lon="-2.30272">
        <ele>38.4</ele>
        <time>2025-01-16T11:53:25Z</time>
      </trkpt>
      <trkpt lat="47.55903" lon="-2.30272">
        <ele>38.4</ele>
        <time>2025-01-16T11:53:26Z</time>
      </trkpt>
      <trkpt lat="47.55902" lon="-2.30273">
        <ele>38.5</ele>
        <time>2025-01-16T11:53:27Z</time>
      </trkpt>
      <trkpt lat="47.55902" lon="-2.30273">
        <ele>38.5</ele>
        <time>2025-01-16T11:53:28Z</time>
      </trkpt>
      <trkpt lat="47.55902" lon="-2.30273">
        <ele>38.5</ele>
        <time>2025-01-16T11:53:29Z</time>
      </trkpt>
      <trkpt lat="47.55901" lon="-2.30273">
        <ele>38.6</ele>
        <time>2025-01-16T11:53:30Z</time>
      </trkpt>
      <trkpt lat="47.55901" lon="-2.30273">
        <ele>38.6</ele>
        <time>2025-01-16T11:53:31Z</time>
      </trkpt>
      <trkpt lat="47.55901" lon="-2.30273">
        <ele>38.6</ele>
        <time>2025-01-16T11:53:32Z</time>
      </trkpt>
      <trkpt lat="47.55901" lon="-2.30273">
        <ele>38.6</ele>
        <time>2025-01-16T11:53:33Z</time>
      </trkpt>
      <trkpt lat="47.55901" lon="-2.30273">
        <ele>38.6</ele>
        <time>2025-01-16T11:53:34Z</time>
      </trkpt>
      <trkpt lat="47.55901" lon="-2.30272">
        <ele>38.6</ele>
        <time>2025-01-16T11:53:35Z</time>
      </trkpt>
      <trkpt lat="47.55901" lon="-2.30272">
        <ele>38.6</ele>
        <time>2025-01-16T11:53:36Z</time>
      </trkpt>
      <trkpt lat="47.55901" lon="-2.30272">
        <ele>38.6</ele>
        <time>2025-01-16T11:53:37Z</time>
      </trkpt>
      <trkpt lat="47.55901" lon="-2.30272">
        <ele>38.6</ele>
        <time>2025-01-16T11:53:38Z</time>
      </trkpt>
      <trkpt lat="47.55901" lon="-2.30271">
        <ele>38.6</ele>
        <time>2025-01-16T11:53:39Z</time>
      </trkpt>
      <trkpt lat="47.55901" lon="-2.30271">
        <ele>38.6</ele>
        <time>2025-01-16T11:53:40Z</time>
      </trkpt>
      <trkpt lat="47.55901" lon="-2.30271">
        <ele>38.6</ele>
        <time>2025-01-16T11:53:41Z</time>
      </trkpt>
      <trkpt lat="47.559" lon="-2.3027">
        <ele>38.6</ele>
        <time>2025-01-16T11:53:42Z</time>
      </trkpt>
      <trkpt lat="47.559" lon="-2.3027">
        <ele>38.6</ele>
        <time>2025-01-16T11:53:43Z</time>
      </trkpt>
      <trkpt lat="47.559" lon="-2.3027">
        <ele>38.6</ele>
        <time>2025-01-16T11:53:44Z</time>
      </trkpt>
      <trkpt lat="47.559" lon="-2.3027">
        <ele>38.6</ele>
        <time>2025-01-16T11:53:45Z</time>
      </trkpt>
      <trkpt lat="47.559" lon="-2.3027">
        <ele>38.6</ele>
        <time>2025-01-16T11:53:46Z</time>
      </trkpt>
      <trkpt lat="47.559" lon="-2.3027">
        <ele>38.6</ele>
        <time>2025-01-16T11:53:47Z</time>
      </trkpt>
      <trkpt lat="47.559" lon="-2.3027">
        <ele>38.6</ele>
        <time>2025-01-16T11:53:48Z</time>
      </trkpt>
      <trkpt lat="47.559" lon="-2.3027">
        <ele>38.6</ele>
        <time>2025-01-16T11:53:49Z</time>
      </trkpt>
      <trkpt lat="47.55901" lon="-2.30269">
        <ele>38.5</ele>
        <time>2025-01-16T11:53:50Z</time>
      </trkpt>
      <trkpt lat="47.55901" lon="-2.30269">
        <ele>38.5</ele>
        <time>2025-01-16T11:53:51Z</time>
      </trkpt>
      <trkpt lat="47.55901" lon="-2.30269">
        <ele>38.5</ele>
        <time>2025-01-16T11:53:52Z</time>
      </trkpt>
      <trkpt lat="47.55901" lon="-2.30269">
        <ele>38.5</ele>
        <time>2025-01-16T11:53:53Z</time>
      </trkpt>
      <trkpt lat="47.55901" lon="-2.30269">
        <ele>38.5</ele>
        <time>2025-01-16T11:53:54Z</time>
      </trkpt>
      <trkpt lat="47.55901" lon="-2.30269">
        <ele>38.5</ele>
        <time>2025-01-16T11:53:55Z</time>
      </trkpt>
      <trkpt lat="47.55901" lon="-2.30269">
        <ele>38.5</ele>
        <time>2025-01-16T11:53:56Z</time>
      </trkpt>
      <trkpt lat="47.55901" lon="-2.30269">
        <ele>38.5</ele>
        <time>2025-01-16T11:53:57Z</time>
      </trkpt>
      <trkpt lat="47.55901" lon="-2.30269">
        <ele>38.5</ele>
        <time>2025-01-16T11:53:58Z</time>
      </trkpt>
      <trkpt lat="47.55901" lon="-2.30269">
        <ele>38.5</ele>
        <time>2025-01-16T11:53:59Z</time>
      </trkpt>
      <trkpt lat="47.559" lon="-2.30269">
        <ele>38.6</ele>
        <time>2025-01-16T11:54:00Z</time>
      </trkpt>
      <trkpt lat="47.559" lon="-2.30269">
        <ele>38.6</ele>
        <time>2025-01-16T11:54:01Z</time>
      </trkpt>
      <trkpt lat="47.559" lon="-2.30269">
        <ele>38.6</ele>
        <time>2025-01-16T11:54:02Z</time>
      </trkpt>
      <trkpt lat="47.559" lon="-2.3027">
        <ele>38.6</ele>
        <time>2025-01-16T11:54:03Z</time>
      </trkpt>
      <trkpt lat="47.559" lon="-2.3027">
        <ele>38.6</ele>
        <time>2025-01-16T11:54:04Z</time>
      </trkpt>
      <trkpt lat="47.559" lon="-2.3027">
        <ele>38.6</ele>
        <time>2025-01-16T11:54:05Z</time>
      </trkpt>
      <trkpt lat="47.559" lon="-2.3027">
        <ele>38.6</ele>
        <time>2025-01-16T11:54:06Z</time>
      </trkpt>
      <trkpt lat="47.559" lon="-2.3027">
        <ele>38.6</ele>
        <time>2025-01-16T11:54:07Z</time>
      </trkpt>
      <trkpt lat="47.559" lon="-2.3027">
        <ele>38.6</ele>
        <time>2025-01-16T11:54:08Z</time>
      </trkpt>
      <trkpt lat="47.559" lon="-2.3027">
        <ele>38.6</ele>
        <time>2025-01-16T11:54:09Z</time>
      </trkpt>
      <trkpt lat="47.559" lon="-2.3027">
        <ele>38.6</ele>
        <time>2025-01-16T11:54:10Z</time>
      </trkpt>
      <trkpt lat="47.559" lon="-2.3027">
        <ele>38.6</ele>
        <time>2025-01-16T11:54:11Z</time>
      </trkpt>
      <trkpt lat="47.559" lon="-2.3027">
        <ele>38.6</ele>
        <time>2025-01-16T11:54:12Z</time>
      </trkpt>
      <trkpt lat="47.559" lon="-2.3027">
        <ele>38.6</ele>
        <time>2025-01-16T11:54:13Z</time>
      </trkpt>
      <trkpt lat="47.559" lon="-2.3027">
        <ele>38.6</ele>
        <time>2025-01-16T11:54:14Z</time>
      </trkpt>
      <trkpt lat="47.559" lon="-2.3027">
        <ele>38.6</ele>
        <time>2025-01-16T11:54:15Z</time>
      </trkpt>
      <trkpt lat="47.559" lon="-2.3027">
        <ele>38.6</ele>
        <time>2025-01-16T11:54:16Z</time>
      </trkpt>
      <trkpt lat="47.559" lon="-2.3027">
        <ele>38.6</ele>
        <time>2025-01-16T11:54:17Z</time>
      </trkpt>
      <trkpt lat="47.559" lon="-2.3027">
        <ele>38.6</ele>
        <time>2025-01-16T11:54:18Z</time>
      </trkpt>
      <trkpt lat="47.559" lon="-2.30269">
        <ele>38.6</ele>
        <time>2025-01-16T11:54:19Z</time>
      </trkpt>
      <trkpt lat="47.559" lon="-2.30269">
        <ele>38.6</ele>
        <time>2025-01-16T11:54:20Z</time>
      </trkpt>
      <trkpt lat="47.559" lon="-2.30269">
        <ele>38.6</ele>
        <time>2025-01-16T11:54:21Z</time>
      </trkpt>
      <trkpt lat="47.559" lon="-2.30269">
        <ele>38.6</ele>
        <time>2025-01-16T11:54:22Z</time>
      </trkpt>
      <trkpt lat="47.559" lon="-2.30269">
        <ele>38.6</ele>
        <time>2025-01-16T11:54:23Z</time>
      </trkpt>
      <trkpt lat="47.559" lon="-2.30269">
        <ele>38.6</ele>
        <time>2025-01-16T11:54:24Z</time>
      </trkpt>
      <trkpt lat="47.55899" lon="-2.30269">
        <ele>38.7</ele>
        <time>2025-01-16T11:54:25Z</time>
      </trkpt>
      <trkpt lat="47.55899" lon="-2.30268">
        <ele>38.7</ele>
        <time>2025-01-16T11:54:26Z</time>
      </trkpt>
      <trkpt lat="47.55899" lon="-2.30268">
        <ele>38.7</ele>
        <time>2025-01-16T11:54:27Z</time>
      </trkpt>
      <trkpt lat="47.55899" lon="-2.30268">
        <ele>38.7</ele>
        <time>2025-01-16T11:54:28Z</time>
      </trkpt>
      <trkpt lat="47.55899" lon="-2.30268">
        <ele>38.7</ele>
        <time>2025-01-16T11:54:29Z</time>
      </trkpt>
      <trkpt lat="47.55899" lon="-2.30268">
        <ele>38.7</ele>
        <time>2025-01-16T11:54:30Z</time>
      </trkpt>
      <trkpt lat="47.55899" lon="-2.30268">
        <ele>38.7</ele>
        <time>2025-01-16T11:54:31Z</time>
      </trkpt>
      <trkpt lat="47.55898" lon="-2.30268">
        <ele>38.8</ele>
        <time>2025-01-16T11:54:32Z</time>
      </trkpt>
      <trkpt lat="47.55898" lon="-2.30268">
        <ele>38.8</ele>
        <time>2025-01-16T11:54:33Z</time>
      </trkpt>
      <trkpt lat="47.55898" lon="-2.30268">
        <ele>38.8</ele>
        <time>2025-01-16T11:54:34Z</time>
      </trkpt>
      <trkpt lat="47.55898" lon="-2.30268">
        <ele>38.8</ele>
        <time>2025-01-16T11:54:35Z</time>
      </trkpt>
      <trkpt lat="47.55898" lon="-2.30268">
        <ele>38.8</ele>
        <time>2025-01-16T11:54:36Z</time>
      </trkpt>
      <trkpt lat="47.55898" lon="-2.30268">
        <ele>38.8</ele>
        <time>2025-01-16T11:54:37Z</time>
      </trkpt>
      <trkpt lat="47.55898" lon="-2.30268">
        <ele>38.8</ele>
        <time>2025-01-16T11:54:38Z</time>
      </trkpt>
      <trkpt lat="47.55898" lon="-2.30268">
        <ele>38.8</ele>
        <time>2025-01-16T11:54:39Z</time>
      </trkpt>
      <trkpt lat="47.55898" lon="-2.30268">
        <ele>38.8</ele>
        <time>2025-01-16T11:54:40Z</time>
      </trkpt>
      <trkpt lat="47.55898" lon="-2.30268">
        <ele>38.8</ele>
        <time>2025-01-16T11:54:41Z</time>
      </trkpt>
      <trkpt lat="47.55898" lon="-2.30268">
        <ele>38.8</ele>
        <time>2025-01-16T11:54:42Z</time>
      </trkpt>
      <trkpt lat="47.55898" lon="-2.30268">
        <ele>38.8</ele>
        <time>2025-01-16T11:54:43Z</time>
      </trkpt>
      <trkpt lat="47.55898" lon="-2.30268">
        <ele>38.8</ele>
        <time>2025-01-16T11:54:44Z</time>
      </trkpt>
      <trkpt lat="47.55898" lon="-2.30268">
        <ele>38.8</ele>
        <time>2025-01-16T11:54:45Z</time>
      </trkpt>
      <trkpt lat="47.55898" lon="-2.30268">
        <ele>38.8</ele>
        <time>2025-01-16T11:54:46Z</time>
      </trkpt>
      <trkpt lat="47.55898" lon="-2.30268">
        <ele>38.8</ele>
        <time>2025-01-16T11:54:47Z</time>
      </trkpt>
      <trkpt lat="47.55898" lon="-2.30268">
        <ele>38.8</ele>
        <time>2025-01-16T11:54:48Z</time>
      </trkpt>
      <trkpt lat="47.55898" lon="-2.30269">
        <ele>38.8</ele>
        <time>2025-01-16T11:54:49Z</time>
      </trkpt>
      <trkpt lat="47.55898" lon="-2.30269">
        <ele>38.8</ele>
        <time>2025-01-16T11:54:50Z</time>
      </trkpt>
      <trkpt lat="47.55898" lon="-2.30269">
        <ele>38.8</ele>
        <time>2025-01-16T11:54:51Z</time>
      </trkpt>
      <trkpt lat="47.55898" lon="-2.30269">
        <ele>38.8</ele>
        <time>2025-01-16T11:54:52Z</time>
      </trkpt>
      <trkpt lat="47.55898" lon="-2.30269">
        <ele>38.8</ele>
        <time>2025-01-16T11:54:53Z</time>
      </trkpt>
      <trkpt lat="47.55898" lon="-2.30269">
        <ele>38.8</ele>
        <time>2025-01-16T11:54:54Z</time>
      </trkpt>
      <trkpt lat="47.55898" lon="-2.30269">
        <ele>38.8</ele>
        <time>2025-01-16T11:54:55Z</time>
      </trkpt>
      <trkpt lat="47.55898" lon="-2.30269">
        <ele>38.8</ele>
        <time>2025-01-16T11:54:56Z</time>
      </trkpt>
      <trkpt lat="47.55898" lon="-2.30269">
        <ele>38.8</ele>
        <time>2025-01-16T11:54:57Z</time>
      </trkpt>
      <trkpt lat="47.55898" lon="-2.30269">
        <ele>38.8</ele>
        <time>2025-01-16T11:54:58Z</time>
      </trkpt>
      <trkpt lat="47.55898" lon="-2.30269">
        <ele>38.8</ele>
        <time>2025-01-16T11:54:59Z</time>
      </trkpt>
      <trkpt lat="47.55898" lon="-2.3027">
        <ele>38.8</ele>
        <time>2025-01-16T11:55:00Z</time>
      </trkpt>
      <trkpt lat="47.55898" lon="-2.3027">
        <ele>38.8</ele>
        <time>2025-01-16T11:55:01Z</time>
      </trkpt>
      <trkpt lat="47.55897" lon="-2.3027">
        <ele>38.9</ele>
        <time>2025-01-16T11:55:02Z</time>
      </trkpt>
      <trkpt lat="47.55897" lon="-2.30271">
        <ele>39</ele>
        <time>2025-01-16T11:55:03Z</time>
      </trkpt>
      <trkpt lat="47.55896" lon="-2.30271">
        <ele>39.1</ele>
        <time>2025-01-16T11:55:04Z</time>
      </trkpt>
      <trkpt lat="47.55896" lon="-2.30272">
        <ele>39.1</ele>
        <time>2025-01-16T11:55:05Z</time>
      </trkpt>
      <trkpt lat="47.55895" lon="-2.30273">
        <ele>39.2</ele>
        <time>2025-01-16T11:55:06Z</time>
      </trkpt>
      <trkpt lat="47.55895" lon="-2.30273">
        <ele>39.2</ele>
        <time>2025-01-16T11:55:07Z</time>
      </trkpt>
      <trkpt lat="47.55894" lon="-2.30273">
        <ele>39.3</ele>
        <time>2025-01-16T11:55:08Z</time>
      </trkpt>
      <trkpt lat="47.55893" lon="-2.30274">
        <ele>39.4</ele>
        <time>2025-01-16T11:55:09Z</time>
      </trkpt>
      <trkpt lat="47.55893" lon="-2.30274">
        <ele>39.4</ele>
        <time>2025-01-16T11:55:10Z</time>
      </trkpt>
      <trkpt lat="47.55892" lon="-2.30275">
        <ele>39.6</ele>
        <time>2025-01-16T11:55:11Z</time>
      </trkpt>
      <trkpt lat="47.55891" lon="-2.30276">
        <ele>39.7</ele>
        <time>2025-01-16T11:55:12Z</time>
      </trkpt>
      <trkpt lat="47.5589" lon="-2.30277">
        <ele>39.9</ele>
        <time>2025-01-16T11:55:13Z</time>
      </trkpt>
      <trkpt lat="47.55889" lon="-2.30278">
        <ele>40</ele>
        <time>2025-01-16T11:55:14Z</time>
      </trkpt>
      <trkpt lat="47.55888" lon="-2.30279">
        <ele>40.1</ele>
        <time>2025-01-16T11:55:15Z</time>
      </trkpt>
      <trkpt lat="47.55887" lon="-2.3028">
        <ele>40.2</ele>
        <time>2025-01-16T11:55:16Z</time>
      </trkpt>
      <trkpt lat="47.55886" lon="-2.3028">
        <ele>40.2</ele>
        <time>2025-01-16T11:55:17Z</time>
      </trkpt>
      <trkpt lat="47.55886" lon="-2.30281">
        <ele>40.2</ele>
        <time>2025-01-16T11:55:18Z</time>
      </trkpt>
      <trkpt lat="47.55887" lon="-2.30282">
        <ele>40.2</ele>
        <time>2025-01-16T11:55:19Z</time>
      </trkpt>
      <trkpt lat="47.55887" lon="-2.30282">
        <ele>40.2</ele>
        <time>2025-01-16T11:55:20Z</time>
      </trkpt>
      <trkpt lat="47.55887" lon="-2.30283">
        <ele>40.3</ele>
        <time>2025-01-16T11:55:21Z</time>
      </trkpt>
      <trkpt lat="47.55886" lon="-2.30283">
        <ele>40.3</ele>
        <time>2025-01-16T11:55:22Z</time>
      </trkpt>
      <trkpt lat="47.55886" lon="-2.30283">
        <ele>40.3</ele>
        <time>2025-01-16T11:55:23Z</time>
      </trkpt>
      <trkpt lat="47.55885" lon="-2.30283">
        <ele>40.4</ele>
        <time>2025-01-16T11:55:24Z</time>
      </trkpt>
      <trkpt lat="47.55886" lon="-2.30283">
        <ele>40.3</ele>
        <time>2025-01-16T11:55:25Z</time>
      </trkpt>
      <trkpt lat="47.55886" lon="-2.30283">
        <ele>40.3</ele>
        <time>2025-01-16T11:55:26Z</time>
      </trkpt>
      <trkpt lat="47.55886" lon="-2.30282">
        <ele>40.3</ele>
        <time>2025-01-16T11:55:27Z</time>
      </trkpt>
      <trkpt lat="47.55885" lon="-2.30282">
        <ele>40.3</ele>
        <time>2025-01-16T11:55:28Z</time>
      </trkpt>
      <trkpt lat="47.55885" lon="-2.30282">
        <ele>40.3</ele>
        <time>2025-01-16T11:55:29Z</time>
      </trkpt>
      <trkpt lat="47.55885" lon="-2.30281">
        <ele>40.3</ele>
        <time>2025-01-16T11:55:30Z</time>
      </trkpt>
      <trkpt lat="47.55885" lon="-2.30282">
        <ele>40.3</ele>
        <time>2025-01-16T11:55:31Z</time>
      </trkpt>
      <trkpt lat="47.55885" lon="-2.30282">
        <ele>40.3</ele>
        <time>2025-01-16T11:55:32Z</time>
      </trkpt>
      <trkpt lat="47.55886" lon="-2.30282">
        <ele>40.3</ele>
        <time>2025-01-16T11:55:33Z</time>
      </trkpt>
      <trkpt lat="47.55886" lon="-2.30282">
        <ele>40.3</ele>
        <time>2025-01-16T11:55:34Z</time>
      </trkpt>
      <trkpt lat="47.55886" lon="-2.30281">
        <ele>40.2</ele>
        <time>2025-01-16T11:55:35Z</time>
      </trkpt>
      <trkpt lat="47.55886" lon="-2.30281">
        <ele>40.2</ele>
        <time>2025-01-16T11:55:36Z</time>
      </trkpt>
      <trkpt lat="47.55886" lon="-2.30281">
        <ele>40.2</ele>
        <time>2025-01-16T11:55:37Z</time>
      </trkpt>
      <trkpt lat="47.55885" lon="-2.30282">
        <ele>40.3</ele>
        <time>2025-01-16T11:55:38Z</time>
      </trkpt>
      <trkpt lat="47.55884" lon="-2.30282">
        <ele>40.4</ele>
        <time>2025-01-16T11:55:39Z</time>
      </trkpt>
      <trkpt lat="47.55883" lon="-2.30282">
        <ele>40.4</ele>
        <time>2025-01-16T11:55:40Z</time>
      </trkpt>
      <trkpt lat="47.55882" lon="-2.30282">
        <ele>40.4</ele>
        <time>2025-01-16T11:55:41Z</time>
      </trkpt>
      <trkpt lat="47.55881" lon="-2.30282">
        <ele>40.5</ele>
        <time>2025-01-16T11:55:42Z</time>
      </trkpt>
      <trkpt lat="47.55881" lon="-2.30283">
        <ele>40.5</ele>
        <time>2025-01-16T11:55:43Z</time>
      </trkpt>
      <trkpt lat="47.5588" lon="-2.30282">
        <ele>40.5</ele>
        <time>2025-01-16T11:55:44Z</time>
      </trkpt>
      <trkpt lat="47.55879" lon="-2.30283">
        <ele>40.6</ele>
        <time>2025-01-16T11:55:45Z</time>
      </trkpt>
      <trkpt lat="47.55878" lon="-2.30283">
        <ele>40.7</ele>
        <time>2025-01-16T11:55:46Z</time>
      </trkpt>
      <trkpt lat="47.55877" lon="-2.30283">
        <ele>40.7</ele>
        <time>2025-01-16T11:55:47Z</time>
      </trkpt>
      <trkpt lat="47.55876" lon="-2.30284">
        <ele>40.8</ele>
        <time>2025-01-16T11:55:48Z</time>
      </trkpt>
      <trkpt lat="47.55874" lon="-2.30284">
        <ele>40.9</ele>
        <time>2025-01-16T11:55:49Z</time>
      </trkpt>
      <trkpt lat="47.55873" lon="-2.30284">
        <ele>40.9</ele>
        <time>2025-01-16T11:55:50Z</time>
      </trkpt>
      <trkpt lat="47.55872" lon="-2.30285">
        <ele>41</ele>
        <time>2025-01-16T11:55:51Z</time>
      </trkpt>
      <trkpt lat="47.55871" lon="-2.30285">
        <ele>41.1</ele>
        <time>2025-01-16T11:55:52Z</time>
      </trkpt>
      <trkpt lat="47.5587" lon="-2.30285">
        <ele>41.1</ele>
        <time>2025-01-16T11:55:53Z</time>
      </trkpt>
      <trkpt lat="47.5587" lon="-2.30286">
        <ele>41.2</ele>
        <time>2025-01-16T11:55:54Z</time>
      </trkpt>
      <trkpt lat="47.55869" lon="-2.30286">
        <ele>41.2</ele>
        <time>2025-01-16T11:55:55Z</time>
      </trkpt>
      <trkpt lat="47.55868" lon="-2.30286">
        <ele>41.3</ele>
        <time>2025-01-16T11:55:56Z</time>
      </trkpt>
      <trkpt lat="47.55867" lon="-2.30285">
        <ele>41.3</ele>
        <time>2025-01-16T11:55:57Z</time>
      </trkpt>
      <trkpt lat="47.55866" lon="-2.30285">
        <ele>41.3</ele>
        <time>2025-01-16T11:55:58Z</time>
      </trkpt>
      <trkpt lat="47.55865" lon="-2.30284">
        <ele>41.3</ele>
        <time>2025-01-16T11:55:59Z</time>
      </trkpt>
      <trkpt lat="47.55864" lon="-2.30284">
        <ele>41.3</ele>
        <time>2025-01-16T11:56:00Z</time>
      </trkpt>
      <trkpt lat="47.55862" lon="-2.30285">
        <ele>41.5</ele>
        <time>2025-01-16T11:56:01Z</time>
      </trkpt>
      <trkpt lat="47.55861" lon="-2.30285">
        <ele>41.5</ele>
        <time>2025-01-16T11:56:02Z</time>
      </trkpt>
      <trkpt lat="47.5586" lon="-2.30285">
        <ele>41.6</ele>
        <time>2025-01-16T11:56:03Z</time>
      </trkpt>
      <trkpt lat="47.5586" lon="-2.30285">
        <ele>41.6</ele>
        <time>2025-01-16T11:56:04Z</time>
      </trkpt>
      <trkpt lat="47.55859" lon="-2.30285">
        <ele>41.6</ele>
        <time>2025-01-16T11:56:05Z</time>
      </trkpt>
      <trkpt lat="47.55858" lon="-2.30286">
        <ele>41.7</ele>
        <time>2025-01-16T11:56:06Z</time>
      </trkpt>
      <trkpt lat="47.55857" lon="-2.30286">
        <ele>41.7</ele>
        <time>2025-01-16T11:56:07Z</time>
      </trkpt>
      <trkpt lat="47.55856" lon="-2.30286">
        <ele>41.8</ele>
        <time>2025-01-16T11:56:08Z</time>
      </trkpt>
      <trkpt lat="47.55855" lon="-2.30286">
        <ele>41.8</ele>
        <time>2025-01-16T11:56:09Z</time>
      </trkpt>
      <trkpt lat="47.55854" lon="-2.30286">
        <ele>41.8</ele>
        <time>2025-01-16T11:56:10Z</time>
      </trkpt>
      <trkpt lat="47.55853" lon="-2.30287">
        <ele>42</ele>
        <time>2025-01-16T11:56:11Z</time>
      </trkpt>
      <trkpt lat="47.55852" lon="-2.30288">
        <ele>42.1</ele>
        <time>2025-01-16T11:56:12Z</time>
      </trkpt>
      <trkpt lat="47.5585" lon="-2.30289">
        <ele>42.2</ele>
        <time>2025-01-16T11:56:13Z</time>
      </trkpt>
      <trkpt lat="47.55849" lon="-2.3029">
        <ele>42.3</ele>
        <time>2025-01-16T11:56:14Z</time>
      </trkpt>
      <trkpt lat="47.55848" lon="-2.30291">
        <ele>42.4</ele>
        <time>2025-01-16T11:56:15Z</time>
      </trkpt>
      <trkpt lat="47.55847" lon="-2.30292">
        <ele>42.5</ele>
        <time>2025-01-16T11:56:16Z</time>
      </trkpt>
      <trkpt lat="47.55845" lon="-2.30294">
        <ele>42.7</ele>
        <time>2025-01-16T11:56:17Z</time>
      </trkpt>
      <trkpt lat="47.55844" lon="-2.30295">
        <ele>42.9</ele>
        <time>2025-01-16T11:56:18Z</time>
      </trkpt>
      <trkpt lat="47.55843" lon="-2.30296">
        <ele>43</ele>
        <time>2025-01-16T11:56:19Z</time>
      </trkpt>
      <trkpt lat="47.55842" lon="-2.30298">
        <ele>43.1</ele>
        <time>2025-01-16T11:56:20Z</time>
      </trkpt>
      <trkpt lat="47.55841" lon="-2.303">
        <ele>43.3</ele>
        <time>2025-01-16T11:56:21Z</time>
      </trkpt>
      <trkpt lat="47.5584" lon="-2.30301">
        <ele>43.4</ele>
        <time>2025-01-16T11:56:22Z</time>
      </trkpt>
      <trkpt lat="47.55839" lon="-2.30302">
        <ele>43.5</ele>
        <time>2025-01-16T11:56:23Z</time>
      </trkpt>
      <trkpt lat="47.55838" lon="-2.30303">
        <ele>43.6</ele>
        <time>2025-01-16T11:56:24Z</time>
      </trkpt>
      <trkpt lat="47.55837" lon="-2.30303">
        <ele>43.7</ele>
        <time>2025-01-16T11:56:25Z</time>
      </trkpt>
      <trkpt lat="47.55836" lon="-2.30304">
        <ele>43.8</ele>
        <time>2025-01-16T11:56:26Z</time>
      </trkpt>
      <trkpt lat="47.55835" lon="-2.30304">
        <ele>43.8</ele>
        <time>2025-01-16T11:56:27Z</time>
      </trkpt>
      <trkpt lat="47.55835" lon="-2.30305">
        <ele>43.9</ele>
        <time>2025-01-16T11:56:28Z</time>
      </trkpt>
      <trkpt lat="47.55835" lon="-2.30304">
        <ele>43.8</ele>
        <time>2025-01-16T11:56:29Z</time>
      </trkpt>
      <trkpt lat="47.55835" lon="-2.30304">
        <ele>43.8</ele>
        <time>2025-01-16T11:56:30Z</time>
      </trkpt>
      <trkpt lat="47.55835" lon="-2.30304">
        <ele>43.8</ele>
        <time>2025-01-16T11:56:31Z</time>
      </trkpt>
      <trkpt lat="47.55836" lon="-2.30304">
        <ele>43.8</ele>
        <time>2025-01-16T11:56:32Z</time>
      </trkpt>
      <trkpt lat="47.55836" lon="-2.30304">
        <ele>43.8</ele>
        <time>2025-01-16T11:56:33Z</time>
      </trkpt>
      <trkpt lat="47.55836" lon="-2.30304">
        <ele>43.8</ele>
        <time>2025-01-16T11:56:34Z</time>
      </trkpt>
      <trkpt lat="47.55835" lon="-2.30305">
        <ele>43.9</ele>
        <time>2025-01-16T11:56:35Z</time>
      </trkpt>
      <trkpt lat="47.55834" lon="-2.30305">
        <ele>43.9</ele>
        <time>2025-01-16T11:56:36Z</time>
      </trkpt>
      <trkpt lat="47.55834" lon="-2.30305">
        <ele>43.9</ele>
        <time>2025-01-16T11:56:37Z</time>
      </trkpt>
      <trkpt lat="47.55834" lon="-2.30305">
        <ele>43.9</ele>
        <time>2025-01-16T11:56:38Z</time>
      </trkpt>
      <trkpt lat="47.55833" lon="-2.30305">
        <ele>44</ele>
        <time>2025-01-16T11:56:39Z</time>
      </trkpt>
      <trkpt lat="47.55832" lon="-2.30306">
        <ele>44.2</ele>
        <time>2025-01-16T11:56:40Z</time>
      </trkpt>
      <trkpt lat="47.55832" lon="-2.30307">
        <ele>44.3</ele>
        <time>2025-01-16T11:56:41Z</time>
      </trkpt>
      <trkpt lat="47.55831" lon="-2.30308">
        <ele>44.5</ele>
        <time>2025-01-16T11:56:42Z</time>
      </trkpt>
      <trkpt lat="47.5583" lon="-2.30309">
        <ele>44.7</ele>
        <time>2025-01-16T11:56:43Z</time>
      </trkpt>
      <trkpt lat="47.55829" lon="-2.3031">
        <ele>44.9</ele>
        <time>2025-01-16T11:56:44Z</time>
      </trkpt>
      <trkpt lat="47.55828" lon="-2.30311">
        <ele>45.1</ele>
        <time>2025-01-16T11:56:45Z</time>
      </trkpt>
      <trkpt lat="47.55827" lon="-2.30311">
        <ele>45.2</ele>
        <time>2025-01-16T11:56:46Z</time>
      </trkpt>
      <trkpt lat="47.55826" lon="-2.30311">
        <ele>45.3</ele>
        <time>2025-01-16T11:56:47Z</time>
      </trkpt>
      <trkpt lat="47.55825" lon="-2.30311">
        <ele>45.4</ele>
        <time>2025-01-16T11:56:48Z</time>
      </trkpt>
      <trkpt lat="47.55825" lon="-2.3031">
        <ele>45.3</ele>
        <time>2025-01-16T11:56:49Z</time>
      </trkpt>
      <trkpt lat="47.55824" lon="-2.30309">
        <ele>45.3</ele>
        <time>2025-01-16T11:56:50Z</time>
      </trkpt>
      <trkpt lat="47.55823" lon="-2.30309">
        <ele>45.4</ele>
        <time>2025-01-16T11:56:51Z</time>
      </trkpt>
      <trkpt lat="47.55822" lon="-2.30309">
        <ele>45.5</ele>
        <time>2025-01-16T11:56:52Z</time>
      </trkpt>
      <trkpt lat="47.55821" lon="-2.3031">
        <ele>45.7</ele>
        <time>2025-01-16T11:56:53Z</time>
      </trkpt>
      <trkpt lat="47.5582" lon="-2.30311">
        <ele>45.8</ele>
        <time>2025-01-16T11:56:54Z</time>
      </trkpt>
      <trkpt lat="47.55819" lon="-2.30311">
        <ele>45.9</ele>
        <time>2025-01-16T11:56:55Z</time>
      </trkpt>
      <trkpt lat="47.55818" lon="-2.30312">
        <ele>46.1</ele>
        <time>2025-01-16T11:56:56Z</time>
      </trkpt>
      <trkpt lat="47.55818" lon="-2.30313">
        <ele>46.2</ele>
        <time>2025-01-16T11:56:57Z</time>
      </trkpt>
      <trkpt lat="47.55817" lon="-2.30314">
        <ele>46.3</ele>
        <time>2025-01-16T11:56:58Z</time>
      </trkpt>
      <trkpt lat="47.55816" lon="-2.30314">
        <ele>46.4</ele>
        <time>2025-01-16T11:56:59Z</time>
      </trkpt>
      <trkpt lat="47.55816" lon="-2.30315">
        <ele>46.5</ele>
        <time>2025-01-16T11:57:00Z</time>
      </trkpt>
      <trkpt lat="47.55815" lon="-2.30316">
        <ele>46.6</ele>
        <time>2025-01-16T11:57:01Z</time>
      </trkpt>
      <trkpt lat="47.55815" lon="-2.30316">
        <ele>46.6</ele>
        <time>2025-01-16T11:57:02Z</time>
      </trkpt>
      <trkpt lat="47.55814" lon="-2.30317">
        <ele>46.8</ele>
        <time>2025-01-16T11:57:03Z</time>
      </trkpt>
      <trkpt lat="47.55813" lon="-2.30317">
        <ele>46.8</ele>
        <time>2025-01-16T11:57:04Z</time>
      </trkpt>
      <trkpt lat="47.55812" lon="-2.30318">
        <ele>47</ele>
        <time>2025-01-16T11:57:05Z</time>
      </trkpt>
      <trkpt lat="47.55811" lon="-2.30318">
        <ele>47</ele>
        <time>2025-01-16T11:57:06Z</time>
      </trkpt>
      <trkpt lat="47.5581" lon="-2.30319">
        <ele>47.2</ele>
        <time>2025-01-16T11:57:07Z</time>
      </trkpt>
      <trkpt lat="47.5581" lon="-2.3032">
        <ele>47.2</ele>
        <time>2025-01-16T11:57:08Z</time>
      </trkpt>
      <trkpt lat="47.55809" lon="-2.3032">
        <ele>47.3</ele>
        <time>2025-01-16T11:57:09Z</time>
      </trkpt>
      <trkpt lat="47.55808" lon="-2.30321">
        <ele>47.4</ele>
        <time>2025-01-16T11:57:10Z</time>
      </trkpt>
      <trkpt lat="47.55808" lon="-2.30321">
        <ele>47.4</ele>
        <time>2025-01-16T11:57:11Z</time>
      </trkpt>
      <trkpt lat="47.55807" lon="-2.30322">
        <ele>47.5</ele>
        <time>2025-01-16T11:57:12Z</time>
      </trkpt>
      <trkpt lat="47.55806" lon="-2.30324">
        <ele>47.6</ele>
        <time>2025-01-16T11:57:13Z</time>
      </trkpt>
      <trkpt lat="47.55805" lon="-2.30325">
        <ele>47.7</ele>
        <time>2025-01-16T11:57:14Z</time>
      </trkpt>
      <trkpt lat="47.55804" lon="-2.30326">
        <ele>47.8</ele>
        <time>2025-01-16T11:57:15Z</time>
      </trkpt>
      <trkpt lat="47.55804" lon="-2.30327">
        <ele>47.9</ele>
        <time>2025-01-16T11:57:16Z</time>
      </trkpt>
      <trkpt lat="47.55803" lon="-2.30328">
        <ele>48</ele>
        <time>2025-01-16T11:57:17Z</time>
      </trkpt>
      <trkpt lat="47.55802" lon="-2.30328">
        <ele>48</ele>
        <time>2025-01-16T11:57:18Z</time>
      </trkpt>
      <trkpt lat="47.55802" lon="-2.30329">
        <ele>48.1</ele>
        <time>2025-01-16T11:57:19Z</time>
      </trkpt>
      <trkpt lat="47.55801" lon="-2.3033">
        <ele>48.2</ele>
        <time>2025-01-16T11:57:20Z</time>
      </trkpt>
      <trkpt lat="47.55801" lon="-2.30331">
        <ele>48.2</ele>
        <time>2025-01-16T11:57:21Z</time>
      </trkpt>
      <trkpt lat="47.558" lon="-2.30332">
        <ele>48.3</ele>
        <time>2025-01-16T11:57:22Z</time>
      </trkpt>
      <trkpt lat="47.55799" lon="-2.30334">
        <ele>48.5</ele>
        <time>2025-01-16T11:57:23Z</time>
      </trkpt>
      <trkpt lat="47.55798" lon="-2.30335">
        <ele>48.7</ele>
        <time>2025-01-16T11:57:24Z</time>
      </trkpt>
      <trkpt lat="47.55797" lon="-2.30336">
        <ele>48.9</ele>
        <time>2025-01-16T11:57:25Z</time>
      </trkpt>
      <trkpt lat="47.55796" lon="-2.30337">
        <ele>49</ele>
        <time>2025-01-16T11:57:26Z</time>
      </trkpt>
      <trkpt lat="47.55795" lon="-2.30337">
        <ele>49.1</ele>
        <time>2025-01-16T11:57:27Z</time>
      </trkpt>
      <trkpt lat="47.55793" lon="-2.30338">
        <ele>49.3</ele>
        <time>2025-01-16T11:57:28Z</time>
      </trkpt>
      <trkpt lat="47.55792" lon="-2.30339">
        <ele>49.5</ele>
        <time>2025-01-16T11:57:29Z</time>
      </trkpt>
      <trkpt lat="47.55791" lon="-2.3034">
        <ele>49.6</ele>
        <time>2025-01-16T11:57:30Z</time>
      </trkpt>
      <trkpt lat="47.5579" lon="-2.30341">
        <ele>49.8</ele>
        <time>2025-01-16T11:57:31Z</time>
      </trkpt>
      <trkpt lat="47.55789" lon="-2.30342">
        <ele>49.9</ele>
        <time>2025-01-16T11:57:32Z</time>
      </trkpt>
      <trkpt lat="47.55788" lon="-2.30344">
        <ele>50.2</ele>
        <time>2025-01-16T11:57:33Z</time>
      </trkpt>
      <trkpt lat="47.55787" lon="-2.30345">
        <ele>50.3</ele>
        <time>2025-01-16T11:57:34Z</time>
      </trkpt>
      <trkpt lat="47.55786" lon="-2.30346">
        <ele>50.5</ele>
        <time>2025-01-16T11:57:35Z</time>
      </trkpt>
      <trkpt lat="47.55785" lon="-2.30347">
        <ele>50.6</ele>
        <time>2025-01-16T11:57:36Z</time>
      </trkpt>
      <trkpt lat="47.55784" lon="-2.30348">
        <ele>50.7</ele>
        <time>2025-01-16T11:57:37Z</time>
      </trkpt>
      <trkpt lat="47.55783" lon="-2.30349">
        <ele>50.9</ele>
        <time>2025-01-16T11:57:38Z</time>
      </trkpt>
      <trkpt lat="47.55783" lon="-2.30349">
        <ele>50.9</ele>
        <time>2025-01-16T11:57:39Z</time>
      </trkpt>
      <trkpt lat="47.55782" lon="-2.3035">
        <ele>51</ele>
        <time>2025-01-16T11:57:40Z</time>
      </trkpt>
      <trkpt lat="47.55781" lon="-2.30351">
        <ele>51.1</ele>
        <time>2025-01-16T11:57:41Z</time>
      </trkpt>
      <trkpt lat="47.5578" lon="-2.30352">
        <ele>51.2</ele>
        <time>2025-01-16T11:57:42Z</time>
      </trkpt>
      <trkpt lat="47.5578" lon="-2.30353">
        <ele>51.3</ele>
        <time>2025-01-16T11:57:43Z</time>
      </trkpt>
      <trkpt lat="47.55779" lon="-2.30354">
        <ele>51.4</ele>
        <time>2025-01-16T11:57:44Z</time>
      </trkpt>
      <trkpt lat="47.55778" lon="-2.30354">
        <ele>51.5</ele>
        <time>2025-01-16T11:57:45Z</time>
      </trkpt>
      <trkpt lat="47.55777" lon="-2.30355">
        <ele>51.6</ele>
        <time>2025-01-16T11:57:46Z</time>
      </trkpt>
      <trkpt lat="47.55776" lon="-2.30356">
        <ele>51.7</ele>
        <time>2025-01-16T11:57:47Z</time>
      </trkpt>
      <trkpt lat="47.55775" lon="-2.30357">
        <ele>51.8</ele>
        <time>2025-01-16T11:57:48Z</time>
      </trkpt>
      <trkpt lat="47.55774" lon="-2.30357">
        <ele>51.9</ele>
        <time>2025-01-16T11:57:49Z</time>
      </trkpt>
      <trkpt lat="47.55773" lon="-2.30358">
        <ele>52</ele>
        <time>2025-01-16T11:57:50Z</time>
      </trkpt>
      <trkpt lat="47.55772" lon="-2.30359">
        <ele>52.1</ele>
        <time>2025-01-16T11:57:51Z</time>
      </trkpt>
      <trkpt lat="47.5577" lon="-2.3036">
        <ele>52.2</ele>
        <time>2025-01-16T11:57:52Z</time>
      </trkpt>
      <trkpt lat="47.55769" lon="-2.3036">
        <ele>52.2</ele>
        <time>2025-01-16T11:57:53Z</time>
      </trkpt>
      <trkpt lat="47.55768" lon="-2.3036">
        <ele>52.3</ele>
        <time>2025-01-16T11:57:54Z</time>
      </trkpt>
      <trkpt lat="47.55767" lon="-2.30359">
        <ele>52.3</ele>
        <time>2025-01-16T11:57:55Z</time>
      </trkpt>
      <trkpt lat="47.55766" lon="-2.30359">
        <ele>52.3</ele>
        <time>2025-01-16T11:57:56Z</time>
      </trkpt>
      <trkpt lat="47.55765" lon="-2.30358">
        <ele>52.3</ele>
        <time>2025-01-16T11:57:57Z</time>
      </trkpt>
      <trkpt lat="47.55764" lon="-2.30357">
        <ele>52.3</ele>
        <time>2025-01-16T11:57:58Z</time>
      </trkpt>
      <trkpt lat="47.55763" lon="-2.30356">
        <ele>52.3</ele>
        <time>2025-01-16T11:57:59Z</time>
      </trkpt>
      <trkpt lat="47.55762" lon="-2.30354">
        <ele>52.2</ele>
        <time>2025-01-16T11:58:00Z</time>
      </trkpt>
      <trkpt lat="47.55762" lon="-2.30353">
        <ele>52.1</ele>
        <time>2025-01-16T11:58:01Z</time>
      </trkpt>
      <trkpt lat="47.55761" lon="-2.30351">
        <ele>52.1</ele>
        <time>2025-01-16T11:58:02Z</time>
      </trkpt>
      <trkpt lat="47.5576" lon="-2.30349">
        <ele>52</ele>
        <time>2025-01-16T11:58:03Z</time>
      </trkpt>
      <trkpt lat="47.5576" lon="-2.30348">
        <ele>52</ele>
        <time>2025-01-16T11:58:04Z</time>
      </trkpt>
      <trkpt lat="47.5576" lon="-2.30347">
        <ele>51.9</ele>
        <time>2025-01-16T11:58:05Z</time>
      </trkpt>
      <trkpt lat="47.55759" lon="-2.30345">
        <ele>51.9</ele>
        <time>2025-01-16T11:58:06Z</time>
      </trkpt>
      <trkpt lat="47.55759" lon="-2.30344">
        <ele>51.9</ele>
        <time>2025-01-16T11:58:07Z</time>
      </trkpt>
      <trkpt lat="47.55759" lon="-2.30342">
        <ele>51.8</ele>
        <time>2025-01-16T11:58:08Z</time>
      </trkpt>
      <trkpt lat="47.55759" lon="-2.30341">
        <ele>51.7</ele>
        <time>2025-01-16T11:58:09Z</time>
      </trkpt>
      <trkpt lat="47.55758" lon="-2.30339">
        <ele>51.7</ele>
        <time>2025-01-16T11:58:10Z</time>
      </trkpt>
      <trkpt lat="47.55758" lon="-2.30338">
        <ele>51.6</ele>
        <time>2025-01-16T11:58:11Z</time>
      </trkpt>
      <trkpt lat="47.55758" lon="-2.30336">
        <ele>51.5</ele>
        <time>2025-01-16T11:58:12Z</time>
      </trkpt>
      <trkpt lat="47.55757" lon="-2.30334">
        <ele>51.5</ele>
        <time>2025-01-16T11:58:13Z</time>
      </trkpt>
      <trkpt lat="47.55757" lon="-2.30332">
        <ele>51.4</ele>
        <time>2025-01-16T11:58:14Z</time>
      </trkpt>
      <trkpt lat="47.55756" lon="-2.3033">
        <ele>51.4</ele>
        <time>2025-01-16T11:58:15Z</time>
      </trkpt>
      <trkpt lat="47.55756" lon="-2.30329">
        <ele>51.4</ele>
        <time>2025-01-16T11:58:16Z</time>
      </trkpt>
      <trkpt lat="47.55755" lon="-2.30327">
        <ele>51.4</ele>
        <time>2025-01-16T11:58:17Z</time>
      </trkpt>
      <trkpt lat="47.55755" lon="-2.30326">
        <ele>51.3</ele>
        <time>2025-01-16T11:58:18Z</time>
      </trkpt>
      <trkpt lat="47.55755" lon="-2.30324">
        <ele>51.2</ele>
        <time>2025-01-16T11:58:19Z</time>
      </trkpt>
      <trkpt lat="47.55755" lon="-2.30323">
        <ele>51.2</ele>
        <time>2025-01-16T11:58:20Z</time>
      </trkpt>
      <trkpt lat="47.55754" lon="-2.30321">
        <ele>51.2</ele>
        <time>2025-01-16T11:58:21Z</time>
      </trkpt>
      <trkpt lat="47.55754" lon="-2.30319">
        <ele>51.1</ele>
        <time>2025-01-16T11:58:22Z</time>
      </trkpt>
      <trkpt lat="47.55753" lon="-2.30318">
        <ele>51.2</ele>
        <time>2025-01-16T11:58:23Z</time>
      </trkpt>
      <trkpt lat="47.5575" lon="-2.30309">
        <ele>51.1</ele>
        <time>2025-01-16T11:58:28Z</time>
      </trkpt>
      <trkpt lat="47.5575" lon="-2.30307">
        <ele>51.1</ele>
        <time>2025-01-16T11:58:29Z</time>
      </trkpt>
      <trkpt lat="47.55749" lon="-2.30306">
        <ele>51.1</ele>
        <time>2025-01-16T11:58:30Z</time>
      </trkpt>
      <trkpt lat="47.55748" lon="-2.30304">
        <ele>51.1</ele>
        <time>2025-01-16T11:58:31Z</time>
      </trkpt>
      <trkpt lat="47.55747" lon="-2.30302">
        <ele>51.1</ele>
        <time>2025-01-16T11:58:32Z</time>
      </trkpt>
      <trkpt lat="47.55747" lon="-2.30301">
        <ele>51.1</ele>
        <time>2025-01-16T11:58:33Z</time>
      </trkpt>
      <trkpt lat="47.55746" lon="-2.30299">
        <ele>51.1</ele>
        <time>2025-01-16T11:58:34Z</time>
      </trkpt>
      <trkpt lat="47.55745" lon="-2.30298">
        <ele>51.1</ele>
        <time>2025-01-16T11:58:35Z</time>
      </trkpt>
      <trkpt lat="47.55745" lon="-2.30296">
        <ele>51</ele>
        <time>2025-01-16T11:58:36Z</time>
      </trkpt>
      <trkpt lat="47.55745" lon="-2.30295">
        <ele>51</ele>
        <time>2025-01-16T11:58:37Z</time>
      </trkpt>
      <trkpt lat="47.55744" lon="-2.30293">
        <ele>51</ele>
        <time>2025-01-16T11:58:38Z</time>
      </trkpt>
      <trkpt lat="47.55744" lon="-2.30292">
        <ele>50.9</ele>
        <time>2025-01-16T11:58:39Z</time>
      </trkpt>
      <trkpt lat="47.55744" lon="-2.3029">
        <ele>50.9</ele>
        <time>2025-01-16T11:58:40Z</time>
      </trkpt>
      <trkpt lat="47.55743" lon="-2.30288">
        <ele>50.9</ele>
        <time>2025-01-16T11:58:41Z</time>
      </trkpt>
      <trkpt lat="47.55742" lon="-2.30287">
        <ele>50.9</ele>
        <time>2025-01-16T11:58:42Z</time>
      </trkpt>
      <trkpt lat="47.55742" lon="-2.30286">
        <ele>50.9</ele>
        <time>2025-01-16T11:58:43Z</time>
      </trkpt>
      <trkpt lat="47.55742" lon="-2.30285">
        <ele>50.8</ele>
        <time>2025-01-16T11:58:44Z</time>
      </trkpt>
      <trkpt lat="47.55742" lon="-2.30283">
        <ele>50.8</ele>
        <time>2025-01-16T11:58:45Z</time>
      </trkpt>
      <trkpt lat="47.55741" lon="-2.30282">
        <ele>50.8</ele>
        <time>2025-01-16T11:58:46Z</time>
      </trkpt>
      <trkpt lat="47.55741" lon="-2.30281">
        <ele>50.8</ele>
        <time>2025-01-16T11:58:47Z</time>
      </trkpt>
      <trkpt lat="47.5574" lon="-2.3028">
        <ele>50.8</ele>
        <time>2025-01-16T11:58:48Z</time>
      </trkpt>
      <trkpt lat="47.55739" lon="-2.30278">
        <ele>50.8</ele>
        <time>2025-01-16T11:58:49Z</time>
      </trkpt>
      <trkpt lat="47.55739" lon="-2.30277">
        <ele>50.8</ele>
        <time>2025-01-16T11:58:50Z</time>
      </trkpt>
      <trkpt lat="47.55738" lon="-2.30276">
        <ele>50.8</ele>
        <time>2025-01-16T11:58:51Z</time>
      </trkpt>
      <trkpt lat="47.55737" lon="-2.30274">
        <ele>50.8</ele>
        <time>2025-01-16T11:58:52Z</time>
      </trkpt>
      <trkpt lat="47.55737" lon="-2.30272">
        <ele>50.7</ele>
        <time>2025-01-16T11:58:53Z</time>
      </trkpt>
      <trkpt lat="47.55736" lon="-2.3027">
        <ele>50.7</ele>
        <time>2025-01-16T11:58:54Z</time>
      </trkpt>
      <trkpt lat="47.55735" lon="-2.30268">
        <ele>50.7</ele>
        <time>2025-01-16T11:58:55Z</time>
      </trkpt>
      <trkpt lat="47.55734" lon="-2.30267">
        <ele>50.8</ele>
        <time>2025-01-16T11:58:56Z</time>
      </trkpt>
      <trkpt lat="47.55734" lon="-2.30265">
        <ele>50.7</ele>
        <time>2025-01-16T11:58:57Z</time>
      </trkpt>
      <trkpt lat="47.55733" lon="-2.30264">
        <ele>50.7</ele>
        <time>2025-01-16T11:58:58Z</time>
      </trkpt>
      <trkpt lat="47.55732" lon="-2.30262">
        <ele>50.7</ele>
        <time>2025-01-16T11:58:59Z</time>
      </trkpt>
      <trkpt lat="47.55731" lon="-2.3026">
        <ele>50.7</ele>
        <time>2025-01-16T11:59:00Z</time>
      </trkpt>
      <trkpt lat="47.5573" lon="-2.30259">
        <ele>50.8</ele>
        <time>2025-01-16T11:59:01Z</time>
      </trkpt>
      <trkpt lat="47.55729" lon="-2.30257">
        <ele>50.8</ele>
        <time>2025-01-16T11:59:02Z</time>
      </trkpt>
      <trkpt lat="47.55728" lon="-2.30255">
        <ele>50.8</ele>
        <time>2025-01-16T11:59:03Z</time>
      </trkpt>
      <trkpt lat="47.55727" lon="-2.30253">
        <ele>50.8</ele>
        <time>2025-01-16T11:59:04Z</time>
      </trkpt>
      <trkpt lat="47.55727" lon="-2.30252">
        <ele>50.7</ele>
        <time>2025-01-16T11:59:05Z</time>
      </trkpt>
      <trkpt lat="47.55726" lon="-2.3025">
        <ele>50.7</ele>
        <time>2025-01-16T11:59:06Z</time>
      </trkpt>
      <trkpt lat="47.55725" lon="-2.30249">
        <ele>50.7</ele>
        <time>2025-01-16T11:59:07Z</time>
      </trkpt>
      <trkpt lat="47.55725" lon="-2.30248">
        <ele>50.7</ele>
        <time>2025-01-16T11:59:08Z</time>
      </trkpt>
      <trkpt lat="47.55724" lon="-2.30246">
        <ele>50.6</ele>
        <time>2025-01-16T11:59:09Z</time>
      </trkpt>
      <trkpt lat="47.55723" lon="-2.30245">
        <ele>50.6</ele>
        <time>2025-01-16T11:59:10Z</time>
      </trkpt>
      <trkpt lat="47.55722" lon="-2.30244">
        <ele>50.6</ele>
        <time>2025-01-16T11:59:11Z</time>
      </trkpt>
      <trkpt lat="47.55721" lon="-2.30242">
        <ele>50.5</ele>
        <time>2025-01-16T11:59:12Z</time>
      </trkpt>
      <trkpt lat="47.55721" lon="-2.30241">
        <ele>50.4</ele>
        <time>2025-01-16T11:59:13Z</time>
      </trkpt>
      <trkpt lat="47.5572" lon="-2.3024">
        <ele>50.4</ele>
        <time>2025-01-16T11:59:14Z</time>
      </trkpt>
      <trkpt lat="47.5572" lon="-2.30239">
        <ele>50.3</ele>
        <time>2025-01-16T11:59:15Z</time>
      </trkpt>
      <trkpt lat="47.55719" lon="-2.30238">
        <ele>50.3</ele>
        <time>2025-01-16T11:59:16Z</time>
      </trkpt>
      <trkpt lat="47.55718" lon="-2.30236">
        <ele>50.2</ele>
        <time>2025-01-16T11:59:17Z</time>
      </trkpt>
      <trkpt lat="47.55718" lon="-2.30235">
        <ele>50.2</ele>
        <time>2025-01-16T11:59:18Z</time>
      </trkpt>
      <trkpt lat="47.55717" lon="-2.30234">
        <ele>50.1</ele>
        <time>2025-01-16T11:59:19Z</time>
      </trkpt>
      <trkpt lat="47.55716" lon="-2.30232">
        <ele>50.1</ele>
        <time>2025-01-16T11:59:20Z</time>
      </trkpt>
      <trkpt lat="47.55716" lon="-2.30231">
        <ele>50</ele>
        <time>2025-01-16T11:59:21Z</time>
      </trkpt>
      <trkpt lat="47.55715" lon="-2.3023">
        <ele>50</ele>
        <time>2025-01-16T11:59:22Z</time>
      </trkpt>
      <trkpt lat="47.55714" lon="-2.30228">
        <ele>49.9</ele>
        <time>2025-01-16T11:59:23Z</time>
      </trkpt>
      <trkpt lat="47.55713" lon="-2.30227">
        <ele>50</ele>
        <time>2025-01-16T11:59:24Z</time>
      </trkpt>
      <trkpt lat="47.55713" lon="-2.30226">
        <ele>49.9</ele>
        <time>2025-01-16T11:59:25Z</time>
      </trkpt>
      <trkpt lat="47.55712" lon="-2.30225">
        <ele>49.9</ele>
        <time>2025-01-16T11:59:26Z</time>
      </trkpt>
      <trkpt lat="47.55712" lon="-2.30223">
        <ele>49.8</ele>
        <time>2025-01-16T11:59:27Z</time>
      </trkpt>
      <trkpt lat="47.55711" lon="-2.30221">
        <ele>49.8</ele>
        <time>2025-01-16T11:59:28Z</time>
      </trkpt>
      <trkpt lat="47.5571" lon="-2.3022">
        <ele>49.8</ele>
        <time>2025-01-16T11:59:29Z</time>
      </trkpt>
      <trkpt lat="47.5571" lon="-2.30219">
        <ele>49.8</ele>
        <time>2025-01-16T11:59:30Z</time>
      </trkpt>
      <trkpt lat="47.55709" lon="-2.30217">
        <ele>49.8</ele>
        <time>2025-01-16T11:59:31Z</time>
      </trkpt>
      <trkpt lat="47.55709" lon="-2.30216">
        <ele>49.7</ele>
        <time>2025-01-16T11:59:32Z</time>
      </trkpt>
      <trkpt lat="47.55708" lon="-2.30215">
        <ele>49.8</ele>
        <time>2025-01-16T11:59:33Z</time>
      </trkpt>
      <trkpt lat="47.55708" lon="-2.30214">
        <ele>49.7</ele>
        <time>2025-01-16T11:59:34Z</time>
      </trkpt>
      <trkpt lat="47.55707" lon="-2.30212">
        <ele>49.7</ele>
        <time>2025-01-16T11:59:35Z</time>
      </trkpt>
      <trkpt lat="47.55706" lon="-2.30211">
        <ele>49.8</ele>
        <time>2025-01-16T11:59:36Z</time>
      </trkpt>
      <trkpt lat="47.55705" lon="-2.3021">
        <ele>49.8</ele>
        <time>2025-01-16T11:59:37Z</time>
      </trkpt>
      <trkpt lat="47.55704" lon="-2.30208">
        <ele>49.8</ele>
        <time>2025-01-16T11:59:38Z</time>
      </trkpt>
      <trkpt lat="47.55703" lon="-2.30207">
        <ele>49.8</ele>
        <time>2025-01-16T11:59:39Z</time>
      </trkpt>
      <trkpt lat="47.55703" lon="-2.30205">
        <ele>49.8</ele>
        <time>2025-01-16T11:59:40Z</time>
      </trkpt>
      <trkpt lat="47.55702" lon="-2.30204">
        <ele>49.8</ele>
        <time>2025-01-16T11:59:41Z</time>
      </trkpt>
      <trkpt lat="47.55701" lon="-2.30203">
        <ele>49.8</ele>
        <time>2025-01-16T11:59:42Z</time>
      </trkpt>
      <trkpt lat="47.557" lon="-2.30201">
        <ele>49.8</ele>
        <time>2025-01-16T11:59:43Z</time>
      </trkpt>
      <trkpt lat="47.55699" lon="-2.302">
        <ele>49.9</ele>
        <time>2025-01-16T11:59:44Z</time>
      </trkpt>
      <trkpt lat="47.55698" lon="-2.30199">
        <ele>49.9</ele>
        <time>2025-01-16T11:59:45Z</time>
      </trkpt>
      <trkpt lat="47.55697" lon="-2.30198">
        <ele>49.9</ele>
        <time>2025-01-16T11:59:46Z</time>
      </trkpt>
      <trkpt lat="47.55696" lon="-2.30197">
        <ele>50</ele>
        <time>2025-01-16T11:59:47Z</time>
      </trkpt>
      <trkpt lat="47.55694" lon="-2.30196">
        <ele>50.1</ele>
        <time>2025-01-16T11:59:48Z</time>
      </trkpt>
      <trkpt lat="47.55693" lon="-2.30196">
        <ele>50.2</ele>
        <time>2025-01-16T11:59:49Z</time>
      </trkpt>
      <trkpt lat="47.55692" lon="-2.30196">
        <ele>50.2</ele>
        <time>2025-01-16T11:59:50Z</time>
      </trkpt>
      <trkpt lat="47.55691" lon="-2.30196">
        <ele>50.3</ele>
        <time>2025-01-16T11:59:51Z</time>
      </trkpt>
      <trkpt lat="47.55689" lon="-2.30195">
        <ele>50.4</ele>
        <time>2025-01-16T11:59:52Z</time>
      </trkpt>
      <trkpt lat="47.55688" lon="-2.30195">
        <ele>50.5</ele>
        <time>2025-01-16T11:59:53Z</time>
      </trkpt>
      <trkpt lat="47.55687" lon="-2.30194">
        <ele>50.5</ele>
        <time>2025-01-16T11:59:54Z</time>
      </trkpt>
      <trkpt lat="47.55686" lon="-2.30194">
        <ele>50.6</ele>
        <time>2025-01-16T11:59:55Z</time>
      </trkpt>
      <trkpt lat="47.55685" lon="-2.30194">
        <ele>50.7</ele>
        <time>2025-01-16T11:59:56Z</time>
      </trkpt>
      <trkpt lat="47.55684" lon="-2.30194">
        <ele>50.7</ele>
        <time>2025-01-16T11:59:57Z</time>
      </trkpt>
      <trkpt lat="47.55683" lon="-2.30195">
        <ele>50.8</ele>
        <time>2025-01-16T11:59:58Z</time>
      </trkpt>
      <trkpt lat="47.55682" lon="-2.30195">
        <ele>50.9</ele>
        <time>2025-01-16T11:59:59Z</time>
      </trkpt>
      <trkpt lat="47.55681" lon="-2.30195">
        <ele>51</ele>
        <time>2025-01-16T12:00:00Z</time>
      </trkpt>
      <trkpt lat="47.5568" lon="-2.30196">
        <ele>51.1</ele>
        <time>2025-01-16T12:00:01Z</time>
      </trkpt>
      <trkpt lat="47.55678" lon="-2.30197">
        <ele>51.3</ele>
        <time>2025-01-16T12:00:02Z</time>
      </trkpt>
      <trkpt lat="47.55677" lon="-2.30198">
        <ele>51.4</ele>
        <time>2025-01-16T12:00:03Z</time>
      </trkpt>
      <trkpt lat="47.55676" lon="-2.30199">
        <ele>51.5</ele>
        <time>2025-01-16T12:00:04Z</time>
      </trkpt>
      <trkpt lat="47.55675" lon="-2.30199">
        <ele>51.6</ele>
        <time>2025-01-16T12:00:05Z</time>
      </trkpt>
      <trkpt lat="47.55674" lon="-2.302">
        <ele>51.7</ele>
        <time>2025-01-16T12:00:06Z</time>
      </trkpt>
      <trkpt lat="47.55673" lon="-2.30201">
        <ele>51.8</ele>
        <time>2025-01-16T12:00:07Z</time>
      </trkpt>
      <trkpt lat="47.55672" lon="-2.30202">
        <ele>51.9</ele>
        <time>2025-01-16T12:00:08Z</time>
      </trkpt>
      <trkpt lat="47.55671" lon="-2.30203">
        <ele>52</ele>
        <time>2025-01-16T12:00:09Z</time>
      </trkpt>
      <trkpt lat="47.5567" lon="-2.30204">
        <ele>52.1</ele>
        <time>2025-01-16T12:00:10Z</time>
      </trkpt>
      <trkpt lat="47.55668" lon="-2.30206">
        <ele>52.3</ele>
        <time>2025-01-16T12:00:11Z</time>
      </trkpt>
      <trkpt lat="47.55667" lon="-2.30207">
        <ele>52.4</ele>
        <time>2025-01-16T12:00:12Z</time>
      </trkpt>
      <trkpt lat="47.55666" lon="-2.30208">
        <ele>52.5</ele>
        <time>2025-01-16T12:00:13Z</time>
      </trkpt>
      <trkpt lat="47.55665" lon="-2.30209">
        <ele>52.5</ele>
        <time>2025-01-16T12:00:14Z</time>
      </trkpt>
      <trkpt lat="47.55664" lon="-2.3021">
        <ele>52.5</ele>
        <time>2025-01-16T12:00:15Z</time>
      </trkpt>
      <trkpt lat="47.55663" lon="-2.30211">
        <ele>52.5</ele>
        <time>2025-01-16T12:00:16Z</time>
      </trkpt>
      <trkpt lat="47.55662" lon="-2.30212">
        <ele>52.6</ele>
        <time>2025-01-16T12:00:17Z</time>
      </trkpt>
      <trkpt lat="47.5566" lon="-2.30213">
        <ele>52.6</ele>
        <time>2025-01-16T12:00:18Z</time>
      </trkpt>
      <trkpt lat="47.55658" lon="-2.30215">
        <ele>52.7</ele>
        <time>2025-01-16T12:00:19Z</time>
      </trkpt>
      <trkpt lat="47.55657" lon="-2.30216">
        <ele>52.7</ele>
        <time>2025-01-16T12:00:20Z</time>
      </trkpt>
      <trkpt lat="47.55656" lon="-2.30217">
        <ele>52.7</ele>
        <time>2025-01-16T12:00:21Z</time>
      </trkpt>
      <trkpt lat="47.55655" lon="-2.30217">
        <ele>52.7</ele>
        <time>2025-01-16T12:00:22Z</time>
      </trkpt>
      <trkpt lat="47.55654" lon="-2.30218">
        <ele>52.8</ele>
        <time>2025-01-16T12:00:23Z</time>
      </trkpt>
      <trkpt lat="47.55653" lon="-2.30218">
        <ele>52.8</ele>
        <time>2025-01-16T12:00:24Z</time>
      </trkpt>
      <trkpt lat="47.55652" lon="-2.30218">
        <ele>52.8</ele>
        <time>2025-01-16T12:00:25Z</time>
      </trkpt>
      <trkpt lat="47.55651" lon="-2.30219">
        <ele>52.8</ele>
        <time>2025-01-16T12:00:26Z</time>
      </trkpt>
      <trkpt lat="47.5565" lon="-2.30219">
        <ele>52.8</ele>
        <time>2025-01-16T12:00:27Z</time>
      </trkpt>
      <trkpt lat="47.55649" lon="-2.30219">
        <ele>52.8</ele>
        <time>2025-01-16T12:00:28Z</time>
      </trkpt>
      <trkpt lat="47.55648" lon="-2.3022">
        <ele>52.9</ele>
        <time>2025-01-16T12:00:29Z</time>
      </trkpt>
      <trkpt lat="47.55646" lon="-2.30221">
        <ele>52.9</ele>
        <time>2025-01-16T12:00:30Z</time>
      </trkpt>
      <trkpt lat="47.55645" lon="-2.30222">
        <ele>53</ele>
        <time>2025-01-16T12:00:31Z</time>
      </trkpt>
      <trkpt lat="47.55643" lon="-2.30223">
        <ele>53</ele>
        <time>2025-01-16T12:00:32Z</time>
      </trkpt>
      <trkpt lat="47.55642" lon="-2.30224">
        <ele>53.1</ele>
        <time>2025-01-16T12:00:33Z</time>
      </trkpt>
      <trkpt lat="47.55641" lon="-2.30225">
        <ele>53.1</ele>
        <time>2025-01-16T12:00:34Z</time>
      </trkpt>
      <trkpt lat="47.5564" lon="-2.30226">
        <ele>53.1</ele>
        <time>2025-01-16T12:00:35Z</time>
      </trkpt>
      <trkpt lat="47.55639" lon="-2.30227">
        <ele>53.2</ele>
        <time>2025-01-16T12:00:36Z</time>
      </trkpt>
      <trkpt lat="47.55638" lon="-2.30228">
        <ele>53.2</ele>
        <time>2025-01-16T12:00:37Z</time>
      </trkpt>
      <trkpt lat="47.55637" lon="-2.30229">
        <ele>53.1</ele>
        <time>2025-01-16T12:00:38Z</time>
      </trkpt>
      <trkpt lat="47.55636" lon="-2.30229">
        <ele>53.1</ele>
        <time>2025-01-16T12:00:39Z</time>
      </trkpt>
      <trkpt lat="47.55635" lon="-2.3023">
        <ele>53</ele>
        <time>2025-01-16T12:00:40Z</time>
      </trkpt>
      <trkpt lat="47.55634" lon="-2.3023">
        <ele>53</ele>
        <time>2025-01-16T12:00:41Z</time>
      </trkpt>
      <trkpt lat="47.55632" lon="-2.30232">
        <ele>52.9</ele>
        <time>2025-01-16T12:00:42Z</time>
      </trkpt>
      <trkpt lat="47.55631" lon="-2.30233">
        <ele>52.9</ele>
        <time>2025-01-16T12:00:43Z</time>
      </trkpt>
      <trkpt lat="47.5563" lon="-2.30234">
        <ele>52.9</ele>
        <time>2025-01-16T12:00:44Z</time>
      </trkpt>
      <trkpt lat="47.55629" lon="-2.30234">
        <ele>52.9</ele>
        <time>2025-01-16T12:00:45Z</time>
      </trkpt>
      <trkpt lat="47.55628" lon="-2.30235">
        <ele>52.9</ele>
        <time>2025-01-16T12:00:46Z</time>
      </trkpt>
      <trkpt lat="47.55627" lon="-2.30235">
        <ele>52.8</ele>
        <time>2025-01-16T12:00:47Z</time>
      </trkpt>
      <trkpt lat="47.55626" lon="-2.30236">
        <ele>52.8</ele>
        <time>2025-01-16T12:00:48Z</time>
      </trkpt>
      <trkpt lat="47.55625" lon="-2.30236">
        <ele>52.7</ele>
        <time>2025-01-16T12:00:49Z</time>
      </trkpt>
      <trkpt lat="47.55624" lon="-2.30237">
        <ele>52.7</ele>
        <time>2025-01-16T12:00:50Z</time>
      </trkpt>
      <trkpt lat="47.55623" lon="-2.30238">
        <ele>52.7</ele>
        <time>2025-01-16T12:00:51Z</time>
      </trkpt>
      <trkpt lat="47.55622" lon="-2.30238">
        <ele>52.7</ele>
        <time>2025-01-16T12:00:52Z</time>
      </trkpt>
      <trkpt lat="47.5562" lon="-2.30239">
        <ele>52.7</ele>
        <time>2025-01-16T12:00:53Z</time>
      </trkpt>
      <trkpt lat="47.55619" lon="-2.3024">
        <ele>52.7</ele>
        <time>2025-01-16T12:00:54Z</time>
      </trkpt>
      <trkpt lat="47.55618" lon="-2.3024">
        <ele>52.6</ele>
        <time>2025-01-16T12:00:55Z</time>
      </trkpt>
      <trkpt lat="47.55617" lon="-2.30241">
        <ele>52.6</ele>
        <time>2025-01-16T12:00:56Z</time>
      </trkpt>
      <trkpt lat="47.55616" lon="-2.30241">
        <ele>52.6</ele>
        <time>2025-01-16T12:00:57Z</time>
      </trkpt>
      <trkpt lat="47.55615" lon="-2.30242">
        <ele>52.6</ele>
        <time>2025-01-16T12:00:58Z</time>
      </trkpt>
      <trkpt lat="47.55614" lon="-2.30242">
        <ele>52.6</ele>
        <time>2025-01-16T12:00:59Z</time>
      </trkpt>
      <trkpt lat="47.55613" lon="-2.30243">
        <ele>52.6</ele>
        <time>2025-01-16T12:01:00Z</time>
      </trkpt>
      <trkpt lat="47.55612" lon="-2.30243">
        <ele>52.5</ele>
        <time>2025-01-16T12:01:01Z</time>
      </trkpt>
      <trkpt lat="47.55611" lon="-2.30244">
        <ele>52.5</ele>
        <time>2025-01-16T12:01:02Z</time>
      </trkpt>
      <trkpt lat="47.5561" lon="-2.30246">
        <ele>52.4</ele>
        <time>2025-01-16T12:01:03Z</time>
      </trkpt>
      <trkpt lat="47.55609" lon="-2.30247">
        <ele>52.3</ele>
        <time>2025-01-16T12:01:04Z</time>
      </trkpt>
      <trkpt lat="47.55608" lon="-2.30249">
        <ele>52.2</ele>
        <time>2025-01-16T12:01:05Z</time>
      </trkpt>
      <trkpt lat="47.55608" lon="-2.3025">
        <ele>52.3</ele>
        <time>2025-01-16T12:01:06Z</time>
      </trkpt>
      <trkpt lat="47.55608" lon="-2.30252">
        <ele>52.5</ele>
        <time>2025-01-16T12:01:07Z</time>
      </trkpt>
      <trkpt lat="47.55607" lon="-2.30254">
        <ele>52.5</ele>
        <time>2025-01-16T12:01:08Z</time>
      </trkpt>
      <trkpt lat="47.55607" lon="-2.30256">
        <ele>52.6</ele>
        <time>2025-01-16T12:01:09Z</time>
      </trkpt>
      <trkpt lat="47.55607" lon="-2.30259">
        <ele>52.9</ele>
        <time>2025-01-16T12:01:10Z</time>
      </trkpt>
      <trkpt lat="47.55607" lon="-2.30261">
        <ele>53.1</ele>
        <time>2025-01-16T12:01:11Z</time>
      </trkpt>
      <trkpt lat="47.55606" lon="-2.30262">
        <ele>53</ele>
        <time>2025-01-16T12:01:12Z</time>
      </trkpt>
      <trkpt lat="47.55606" lon="-2.30262">
        <ele>53</ele>
        <time>2025-01-16T12:01:13Z</time>
      </trkpt>
      <trkpt lat="47.55606" lon="-2.30262">
        <ele>53</ele>
        <time>2025-01-16T12:01:14Z</time>
      </trkpt>
      <trkpt lat="47.55607" lon="-2.30262">
        <ele>53.2</ele>
        <time>2025-01-16T12:01:15Z</time>
      </trkpt>
      <trkpt lat="47.55607" lon="-2.30262">
        <ele>53.2</ele>
        <time>2025-01-16T12:01:16Z</time>
      </trkpt>
      <trkpt lat="47.55607" lon="-2.30264">
        <ele>53.3</ele>
        <time>2025-01-16T12:01:17Z</time>
      </trkpt>
      <trkpt lat="47.55607" lon="-2.30264">
        <ele>53.3</ele>
        <time>2025-01-16T12:01:18Z</time>
      </trkpt>
      <trkpt lat="47.55606" lon="-2.30265">
        <ele>53.3</ele>
        <time>2025-01-16T12:01:19Z</time>
      </trkpt>
      <trkpt lat="47.55606" lon="-2.30266">
        <ele>53.4</ele>
        <time>2025-01-16T12:01:20Z</time>
      </trkpt>
      <trkpt lat="47.55606" lon="-2.30267">
        <ele>53.5</ele>
        <time>2025-01-16T12:01:21Z</time>
      </trkpt>
      <trkpt lat="47.55606" lon="-2.30269">
        <ele>53.6</ele>
        <time>2025-01-16T12:01:22Z</time>
      </trkpt>
      <trkpt lat="47.55606" lon="-2.3027">
        <ele>53.7</ele>
        <time>2025-01-16T12:01:23Z</time>
      </trkpt>
      <trkpt lat="47.55606" lon="-2.30272">
        <ele>53.9</ele>
        <time>2025-01-16T12:01:24Z</time>
      </trkpt>
      <trkpt lat="47.55605" lon="-2.30274">
        <ele>54</ele>
        <time>2025-01-16T12:01:25Z</time>
      </trkpt>
      <trkpt lat="47.55605" lon="-2.30276">
        <ele>54.2</ele>
        <time>2025-01-16T12:01:26Z</time>
      </trkpt>
      <trkpt lat="47.55605" lon="-2.30278">
        <ele>54.4</ele>
        <time>2025-01-16T12:01:27Z</time>
      </trkpt>
      <trkpt lat="47.55605" lon="-2.30278">
        <ele>54.4</ele>
        <time>2025-01-16T12:01:28Z</time>
      </trkpt>
      <trkpt lat="47.55605" lon="-2.3028">
        <ele>54.5</ele>
        <time>2025-01-16T12:01:29Z</time>
      </trkpt>
      <trkpt lat="47.55605" lon="-2.30282">
        <ele>54.6</ele>
        <time>2025-01-16T12:01:30Z</time>
      </trkpt>
      <trkpt lat="47.55605" lon="-2.30283">
        <ele>54.7</ele>
        <time>2025-01-16T12:01:31Z</time>
      </trkpt>
      <trkpt lat="47.55605" lon="-2.30285">
        <ele>54.9</ele>
        <time>2025-01-16T12:01:32Z</time>
      </trkpt>
      <trkpt lat="47.55605" lon="-2.30287">
        <ele>55</ele>
        <time>2025-01-16T12:01:33Z</time>
      </trkpt>
      <trkpt lat="47.55605" lon="-2.30289">
        <ele>55.1</ele>
        <time>2025-01-16T12:01:34Z</time>
      </trkpt>
      <trkpt lat="47.55605" lon="-2.30291">
        <ele>55.3</ele>
        <time>2025-01-16T12:01:35Z</time>
      </trkpt>
      <trkpt lat="47.55605" lon="-2.30292">
        <ele>55.4</ele>
        <time>2025-01-16T12:01:36Z</time>
      </trkpt>
      <trkpt lat="47.55604" lon="-2.30294">
        <ele>55.4</ele>
        <time>2025-01-16T12:01:37Z</time>
      </trkpt>
      <trkpt lat="47.55604" lon="-2.30295">
        <ele>55.5</ele>
        <time>2025-01-16T12:01:38Z</time>
      </trkpt>
      <trkpt lat="47.55604" lon="-2.30297">
        <ele>55.6</ele>
        <time>2025-01-16T12:01:39Z</time>
      </trkpt>
      <trkpt lat="47.55604" lon="-2.30297">
        <ele>55.6</ele>
        <time>2025-01-16T12:01:40Z</time>
      </trkpt>
      <trkpt lat="47.55604" lon="-2.30298">
        <ele>55.7</ele>
        <time>2025-01-16T12:01:41Z</time>
      </trkpt>
      <trkpt lat="47.55604" lon="-2.30299">
        <ele>55.8</ele>
        <time>2025-01-16T12:01:42Z</time>
      </trkpt>
      <trkpt lat="47.55604" lon="-2.30301">
        <ele>55.9</ele>
        <time>2025-01-16T12:01:43Z</time>
      </trkpt>
      <trkpt lat="47.55604" lon="-2.30303">
        <ele>56</ele>
        <time>2025-01-16T12:01:44Z</time>
      </trkpt>
      <trkpt lat="47.55604" lon="-2.30305">
        <ele>56.2</ele>
        <time>2025-01-16T12:01:45Z</time>
      </trkpt>
      <trkpt lat="47.55604" lon="-2.30306">
        <ele>56.3</ele>
        <time>2025-01-16T12:01:46Z</time>
      </trkpt>
      <trkpt lat="47.55604" lon="-2.30306">
        <ele>56.3</ele>
        <time>2025-01-16T12:01:47Z</time>
      </trkpt>
      <trkpt lat="47.55604" lon="-2.30307">
        <ele>56.3</ele>
        <time>2025-01-16T12:01:48Z</time>
      </trkpt>
      <trkpt lat="47.55604" lon="-2.30308">
        <ele>56.4</ele>
        <time>2025-01-16T12:01:49Z</time>
      </trkpt>
      <trkpt lat="47.55604" lon="-2.3031">
        <ele>56.6</ele>
        <time>2025-01-16T12:01:50Z</time>
      </trkpt>
      <trkpt lat="47.55604" lon="-2.30312">
        <ele>56.7</ele>
        <time>2025-01-16T12:01:51Z</time>
      </trkpt>
      <trkpt lat="47.55604" lon="-2.30314">
        <ele>56.8</ele>
        <time>2025-01-16T12:01:52Z</time>
      </trkpt>
      <trkpt lat="47.55604" lon="-2.30316">
        <ele>57</ele>
        <time>2025-01-16T12:01:53Z</time>
      </trkpt>
      <trkpt lat="47.55604" lon="-2.30317">
        <ele>57.1</ele>
        <time>2025-01-16T12:01:54Z</time>
      </trkpt>
      <trkpt lat="47.55604" lon="-2.3032">
        <ele>57.3</ele>
        <time>2025-01-16T12:01:55Z</time>
      </trkpt>
      <trkpt lat="47.55604" lon="-2.30321">
        <ele>57.3</ele>
        <time>2025-01-16T12:01:56Z</time>
      </trkpt>
      <trkpt lat="47.55604" lon="-2.30323">
        <ele>57.5</ele>
        <time>2025-01-16T12:01:57Z</time>
      </trkpt>
      <trkpt lat="47.55604" lon="-2.30324">
        <ele>57.6</ele>
        <time>2025-01-16T12:01:58Z</time>
      </trkpt>
      <trkpt lat="47.55604" lon="-2.30325">
        <ele>57.6</ele>
        <time>2025-01-16T12:01:59Z</time>
      </trkpt>
      <trkpt lat="47.55604" lon="-2.30327">
        <ele>57.8</ele>
        <time>2025-01-16T12:02:00Z</time>
      </trkpt>
      <trkpt lat="47.55604" lon="-2.30328">
        <ele>57.8</ele>
        <time>2025-01-16T12:02:01Z</time>
      </trkpt>
      <trkpt lat="47.55604" lon="-2.30329">
        <ele>57.9</ele>
        <time>2025-01-16T12:02:02Z</time>
      </trkpt>
      <trkpt lat="47.55605" lon="-2.30331">
        <ele>58.2</ele>
        <time>2025-01-16T12:02:03Z</time>
      </trkpt>
      <trkpt lat="47.55605" lon="-2.30332">
        <ele>58.2</ele>
        <time>2025-01-16T12:02:04Z</time>
      </trkpt>
      <trkpt lat="47.55605" lon="-2.30333">
        <ele>58.3</ele>
        <time>2025-01-16T12:02:05Z</time>
      </trkpt>
      <trkpt lat="47.55605" lon="-2.30335">
        <ele>58.4</ele>
        <time>2025-01-16T12:02:06Z</time>
      </trkpt>
      <trkpt lat="47.55605" lon="-2.30336">
        <ele>58.4</ele>
        <time>2025-01-16T12:02:07Z</time>
      </trkpt>
      <trkpt lat="47.55605" lon="-2.30339">
        <ele>58.5</ele>
        <time>2025-01-16T12:02:08Z</time>
      </trkpt>
      <trkpt lat="47.55605" lon="-2.3034">
        <ele>58.6</ele>
        <time>2025-01-16T12:02:09Z</time>
      </trkpt>
      <trkpt lat="47.55605" lon="-2.30342">
        <ele>58.7</ele>
        <time>2025-01-16T12:02:10Z</time>
      </trkpt>
      <trkpt lat="47.55605" lon="-2.30343">
        <ele>58.7</ele>
        <time>2025-01-16T12:02:11Z</time>
      </trkpt>
      <trkpt lat="47.55605" lon="-2.30345">
        <ele>58.8</ele>
        <time>2025-01-16T12:02:12Z</time>
      </trkpt>
      <trkpt lat="47.55605" lon="-2.30347">
        <ele>58.8</ele>
        <time>2025-01-16T12:02:13Z</time>
      </trkpt>
      <trkpt lat="47.55605" lon="-2.30349">
        <ele>58.9</ele>
        <time>2025-01-16T12:02:14Z</time>
      </trkpt>
      <trkpt lat="47.55605" lon="-2.3035">
        <ele>58.9</ele>
        <time>2025-01-16T12:02:15Z</time>
      </trkpt>
      <trkpt lat="47.55605" lon="-2.30352">
        <ele>59</ele>
        <time>2025-01-16T12:02:16Z</time>
      </trkpt>
      <trkpt lat="47.55606" lon="-2.30355">
        <ele>59.2</ele>
        <time>2025-01-16T12:02:17Z</time>
      </trkpt>
      <trkpt lat="47.55606" lon="-2.30357">
        <ele>59.3</ele>
        <time>2025-01-16T12:02:18Z</time>
      </trkpt>
      <trkpt lat="47.55606" lon="-2.30358">
        <ele>59.3</ele>
        <time>2025-01-16T12:02:19Z</time>
      </trkpt>
      <trkpt lat="47.55606" lon="-2.3036">
        <ele>59.4</ele>
        <time>2025-01-16T12:02:20Z</time>
      </trkpt>
      <trkpt lat="47.55606" lon="-2.30361">
        <ele>59.4</ele>
        <time>2025-01-16T12:02:21Z</time>
      </trkpt>
      <trkpt lat="47.55606" lon="-2.30363">
        <ele>59.5</ele>
        <time>2025-01-16T12:02:22Z</time>
      </trkpt>
      <trkpt lat="47.55606" lon="-2.30365">
        <ele>59.6</ele>
        <time>2025-01-16T12:02:23Z</time>
      </trkpt>
      <trkpt lat="47.55606" lon="-2.30366">
        <ele>59.6</ele>
        <time>2025-01-16T12:02:24Z</time>
      </trkpt>
      <trkpt lat="47.55606" lon="-2.30367">
        <ele>59.7</ele>
        <time>2025-01-16T12:02:25Z</time>
      </trkpt>
      <trkpt lat="47.55607" lon="-2.30369">
        <ele>59.8</ele>
        <time>2025-01-16T12:02:26Z</time>
      </trkpt>
      <trkpt lat="47.55607" lon="-2.30371">
        <ele>59.9</ele>
        <time>2025-01-16T12:02:27Z</time>
      </trkpt>
      <trkpt lat="47.55607" lon="-2.30372">
        <ele>59.9</ele>
        <time>2025-01-16T12:02:28Z</time>
      </trkpt>
      <trkpt lat="47.55607" lon="-2.30372">
        <ele>59.9</ele>
        <time>2025-01-16T12:02:29Z</time>
      </trkpt>
      <trkpt lat="47.55608" lon="-2.30374">
        <ele>60.1</ele>
        <time>2025-01-16T12:02:30Z</time>
      </trkpt>
      <trkpt lat="47.55608" lon="-2.30377">
        <ele>60.2</ele>
        <time>2025-01-16T12:02:31Z</time>
      </trkpt>
      <trkpt lat="47.55608" lon="-2.30379">
        <ele>60.3</ele>
        <time>2025-01-16T12:02:32Z</time>
      </trkpt>
      <trkpt lat="47.55609" lon="-2.30381">
        <ele>60.5</ele>
        <time>2025-01-16T12:02:33Z</time>
      </trkpt>
      <trkpt lat="47.55609" lon="-2.30383">
        <ele>60.6</ele>
        <time>2025-01-16T12:02:34Z</time>
      </trkpt>
      <trkpt lat="47.55609" lon="-2.30385">
        <ele>60.6</ele>
        <time>2025-01-16T12:02:35Z</time>
      </trkpt>
      <trkpt lat="47.55609" lon="-2.30387">
        <ele>60.7</ele>
        <time>2025-01-16T12:02:36Z</time>
      </trkpt>
      <trkpt lat="47.55609" lon="-2.30388">
        <ele>60.7</ele>
        <time>2025-01-16T12:02:37Z</time>
      </trkpt>
      <trkpt lat="47.55609" lon="-2.3039">
        <ele>60.8</ele>
        <time>2025-01-16T12:02:38Z</time>
      </trkpt>
      <trkpt lat="47.5561" lon="-2.30392">
        <ele>60.9</ele>
        <time>2025-01-16T12:02:39Z</time>
      </trkpt>
      <trkpt lat="47.5561" lon="-2.30394">
        <ele>60.9</ele>
        <time>2025-01-16T12:02:40Z</time>
      </trkpt>
      <trkpt lat="47.5561" lon="-2.30394">
        <ele>60.9</ele>
        <time>2025-01-16T12:02:41Z</time>
      </trkpt>
      <trkpt lat="47.5561" lon="-2.30394">
        <ele>60.9</ele>
        <time>2025-01-16T12:02:42Z</time>
      </trkpt>
      <trkpt lat="47.55609" lon="-2.30394">
        <ele>60.8</ele>
        <time>2025-01-16T12:02:43Z</time>
      </trkpt>
      <trkpt lat="47.5561" lon="-2.30395">
        <ele>60.9</ele>
        <time>2025-01-16T12:02:44Z</time>
      </trkpt>
      <trkpt lat="47.5561" lon="-2.30397">
        <ele>60.9</ele>
        <time>2025-01-16T12:02:45Z</time>
      </trkpt>
      <trkpt lat="47.55611" lon="-2.30399">
        <ele>61</ele>
        <time>2025-01-16T12:02:46Z</time>
      </trkpt>
      <trkpt lat="47.55611" lon="-2.30401">
        <ele>61</ele>
        <time>2025-01-16T12:02:47Z</time>
      </trkpt>
      <trkpt lat="47.55612" lon="-2.30403">
        <ele>61</ele>
        <time>2025-01-16T12:02:48Z</time>
      </trkpt>
      <trkpt lat="47.55613" lon="-2.30406">
        <ele>61</ele>
        <time>2025-01-16T12:02:49Z</time>
      </trkpt>
      <trkpt lat="47.55614" lon="-2.30408">
        <ele>61</ele>
        <time>2025-01-16T12:02:50Z</time>
      </trkpt>
      <trkpt lat="47.55615" lon="-2.30409">
        <ele>61</ele>
        <time>2025-01-16T12:02:51Z</time>
      </trkpt>
      <trkpt lat="47.55616" lon="-2.30412">
        <ele>61</ele>
        <time>2025-01-16T12:02:52Z</time>
      </trkpt>
      <trkpt lat="47.55616" lon="-2.30414">
        <ele>61</ele>
        <time>2025-01-16T12:02:53Z</time>
      </trkpt>
      <trkpt lat="47.55617" lon="-2.30416">
        <ele>61</ele>
        <time>2025-01-16T12:02:54Z</time>
      </trkpt>
      <trkpt lat="47.55617" lon="-2.30417">
        <ele>61</ele>
        <time>2025-01-16T12:02:55Z</time>
      </trkpt>
      <trkpt lat="47.55618" lon="-2.3042">
        <ele>61</ele>
        <time>2025-01-16T12:02:56Z</time>
      </trkpt>
      <trkpt lat="47.55619" lon="-2.30422">
        <ele>61</ele>
        <time>2025-01-16T12:02:57Z</time>
      </trkpt>
      <trkpt lat="47.55619" lon="-2.30424">
        <ele>61</ele>
        <time>2025-01-16T12:02:58Z</time>
      </trkpt>
      <trkpt lat="47.5562" lon="-2.30425">
        <ele>61</ele>
        <time>2025-01-16T12:02:59Z</time>
      </trkpt>
      <trkpt lat="47.5562" lon="-2.30427">
        <ele>61</ele>
        <time>2025-01-16T12:03:00Z</time>
      </trkpt>
      <trkpt lat="47.5562" lon="-2.30429">
        <ele>61</ele>
        <time>2025-01-16T12:03:01Z</time>
      </trkpt>
      <trkpt lat="47.55621" lon="-2.3043">
        <ele>61</ele>
        <time>2025-01-16T12:03:02Z</time>
      </trkpt>
      <trkpt lat="47.55621" lon="-2.30432">
        <ele>61</ele>
        <time>2025-01-16T12:03:03Z</time>
      </trkpt>
      <trkpt lat="47.55622" lon="-2.30434">
        <ele>61</ele>
        <time>2025-01-16T12:03:04Z</time>
      </trkpt>
      <trkpt lat="47.55623" lon="-2.30436">
        <ele>61</ele>
        <time>2025-01-16T12:03:05Z</time>
      </trkpt>
      <trkpt lat="47.55623" lon="-2.30437">
        <ele>61</ele>
        <time>2025-01-16T12:03:06Z</time>
      </trkpt>
      <trkpt lat="47.55624" lon="-2.30439">
        <ele>61</ele>
        <time>2025-01-16T12:03:07Z</time>
      </trkpt>
      <trkpt lat="47.55625" lon="-2.30441">
        <ele>61</ele>
        <time>2025-01-16T12:03:08Z</time>
      </trkpt>
      <trkpt lat="47.55626" lon="-2.30442">
        <ele>61</ele>
        <time>2025-01-16T12:03:09Z</time>
      </trkpt>
      <trkpt lat="47.55626" lon="-2.30444">
        <ele>61</ele>
        <time>2025-01-16T12:03:10Z</time>
      </trkpt>
      <trkpt lat="47.55626" lon="-2.30445">
        <ele>61</ele>
        <time>2025-01-16T12:03:11Z</time>
      </trkpt>
      <trkpt lat="47.55626" lon="-2.30447">
        <ele>61</ele>
        <time>2025-01-16T12:03:12Z</time>
      </trkpt>
      <trkpt lat="47.55627" lon="-2.30448">
        <ele>61.1</ele>
        <time>2025-01-16T12:03:13Z</time>
      </trkpt>
      <trkpt lat="47.55628" lon="-2.30449">
        <ele>61.1</ele>
        <time>2025-01-16T12:03:14Z</time>
      </trkpt>
      <trkpt lat="47.55628" lon="-2.30451">
        <ele>61.1</ele>
        <time>2025-01-16T12:03:15Z</time>
      </trkpt>
      <trkpt lat="47.55629" lon="-2.30452">
        <ele>61.2</ele>
        <time>2025-01-16T12:03:16Z</time>
      </trkpt>
      <trkpt lat="47.5563" lon="-2.30453">
        <ele>61.2</ele>
        <time>2025-01-16T12:03:17Z</time>
      </trkpt>
      <trkpt lat="47.55631" lon="-2.30455">
        <ele>61.3</ele>
        <time>2025-01-16T12:03:18Z</time>
      </trkpt>
      <trkpt lat="47.55632" lon="-2.30457">
        <ele>61.3</ele>
        <time>2025-01-16T12:03:19Z</time>
      </trkpt>
      <trkpt lat="47.55632" lon="-2.30459">
        <ele>61.4</ele>
        <time>2025-01-16T12:03:20Z</time>
      </trkpt>
      <trkpt lat="47.55633" lon="-2.30461">
        <ele>61.5</ele>
        <time>2025-01-16T12:03:21Z</time>
      </trkpt>
      <trkpt lat="47.55634" lon="-2.30463">
        <ele>61.6</ele>
        <time>2025-01-16T12:03:22Z</time>
      </trkpt>
      <trkpt lat="47.55634" lon="-2.30464">
        <ele>61.6</ele>
        <time>2025-01-16T12:03:23Z</time>
      </trkpt>
      <trkpt lat="47.55635" lon="-2.30466">
        <ele>61.7</ele>
        <time>2025-01-16T12:03:24Z</time>
      </trkpt>
      <trkpt lat="47.55636" lon="-2.30467">
        <ele>61.7</ele>
        <time>2025-01-16T12:03:25Z</time>
      </trkpt>
      <trkpt lat="47.55637" lon="-2.30468">
        <ele>61.8</ele>
        <time>2025-01-16T12:03:26Z</time>
      </trkpt>
      <trkpt lat="47.55638" lon="-2.3047">
        <ele>61.9</ele>
        <time>2025-01-16T12:03:27Z</time>
      </trkpt>
      <trkpt lat="47.55638" lon="-2.30471">
        <ele>61.9</ele>
        <time>2025-01-16T12:03:28Z</time>
      </trkpt>
      <trkpt lat="47.55639" lon="-2.30472">
        <ele>62</ele>
        <time>2025-01-16T12:03:29Z</time>
      </trkpt>
      <trkpt lat="47.55639" lon="-2.30473">
        <ele>62</ele>
        <time>2025-01-16T12:03:30Z</time>
      </trkpt>
      <trkpt lat="47.5564" lon="-2.30475">
        <ele>61.9</ele>
        <time>2025-01-16T12:03:31Z</time>
      </trkpt>
      <trkpt lat="47.5564" lon="-2.30477">
        <ele>61.8</ele>
        <time>2025-01-16T12:03:32Z</time>
      </trkpt>
      <trkpt lat="47.55641" lon="-2.30478">
        <ele>61.8</ele>
        <time>2025-01-16T12:03:33Z</time>
      </trkpt>
      <trkpt lat="47.55641" lon="-2.3048">
        <ele>61.8</ele>
        <time>2025-01-16T12:03:34Z</time>
      </trkpt>
      <trkpt lat="47.55641" lon="-2.30483">
        <ele>61.7</ele>
        <time>2025-01-16T12:03:35Z</time>
      </trkpt>
      <trkpt lat="47.55641" lon="-2.30485">
        <ele>61.6</ele>
        <time>2025-01-16T12:03:36Z</time>
      </trkpt>
      <trkpt lat="47.55642" lon="-2.30486">
        <ele>61.6</ele>
        <time>2025-01-16T12:03:37Z</time>
      </trkpt>
      <trkpt lat="47.55642" lon="-2.30488">
        <ele>61.6</ele>
        <time>2025-01-16T12:03:38Z</time>
      </trkpt>
      <trkpt lat="47.55643" lon="-2.30489">
        <ele>61.6</ele>
        <time>2025-01-16T12:03:39Z</time>
      </trkpt>
      <trkpt lat="47.55643" lon="-2.30491">
        <ele>61.5</ele>
        <time>2025-01-16T12:03:40Z</time>
      </trkpt>
      <trkpt lat="47.55644" lon="-2.30493">
        <ele>61.5</ele>
        <time>2025-01-16T12:03:41Z</time>
      </trkpt>
      <trkpt lat="47.55645" lon="-2.30494">
        <ele>61.6</ele>
        <time>2025-01-16T12:03:42Z</time>
      </trkpt>
      <trkpt lat="47.55646" lon="-2.30496">
        <ele>61.6</ele>
        <time>2025-01-16T12:03:43Z</time>
      </trkpt>
      <trkpt lat="47.55646" lon="-2.30497">
        <ele>61.6</ele>
        <time>2025-01-16T12:03:44Z</time>
      </trkpt>
      <trkpt lat="47.55647" lon="-2.30498">
        <ele>61.6</ele>
        <time>2025-01-16T12:03:45Z</time>
      </trkpt>
      <trkpt lat="47.55648" lon="-2.305">
        <ele>61.7</ele>
        <time>2025-01-16T12:03:46Z</time>
      </trkpt>
      <trkpt lat="47.55649" lon="-2.30501">
        <ele>61.8</ele>
        <time>2025-01-16T12:03:47Z</time>
      </trkpt>
      <trkpt lat="47.5565" lon="-2.30502">
        <ele>61.9</ele>
        <time>2025-01-16T12:03:48Z</time>
      </trkpt>
      <trkpt lat="47.55651" lon="-2.30504">
        <ele>62</ele>
        <time>2025-01-16T12:03:49Z</time>
      </trkpt>
      <trkpt lat="47.55651" lon="-2.30505">
        <ele>62.1</ele>
        <time>2025-01-16T12:03:50Z</time>
      </trkpt>
      <trkpt lat="47.55652" lon="-2.30506">
        <ele>62.2</ele>
        <time>2025-01-16T12:03:51Z</time>
      </trkpt>
      <trkpt lat="47.55653" lon="-2.30506">
        <ele>62.2</ele>
        <time>2025-01-16T12:03:52Z</time>
      </trkpt>
      <trkpt lat="47.55654" lon="-2.30507">
        <ele>62.3</ele>
        <time>2025-01-16T12:03:53Z</time>
      </trkpt>
      <trkpt lat="47.55654" lon="-2.30508">
        <ele>62.4</ele>
        <time>2025-01-16T12:03:54Z</time>
      </trkpt>
      <trkpt lat="47.55655" lon="-2.30509">
        <ele>62.5</ele>
        <time>2025-01-16T12:03:55Z</time>
      </trkpt>
      <trkpt lat="47.55656" lon="-2.30511">
        <ele>62.6</ele>
        <time>2025-01-16T12:03:56Z</time>
      </trkpt>
      <trkpt lat="47.55656" lon="-2.30512">
        <ele>62.7</ele>
        <time>2025-01-16T12:03:57Z</time>
      </trkpt>
      <trkpt lat="47.55657" lon="-2.30513">
        <ele>62.8</ele>
        <time>2025-01-16T12:03:58Z</time>
      </trkpt>
      <trkpt lat="47.55658" lon="-2.30514">
        <ele>62.9</ele>
        <time>2025-01-16T12:03:59Z</time>
      </trkpt>
      <trkpt lat="47.55659" lon="-2.30516">
        <ele>63</ele>
        <time>2025-01-16T12:04:00Z</time>
      </trkpt>
      <trkpt lat="47.55659" lon="-2.30517">
        <ele>63.1</ele>
        <time>2025-01-16T12:04:01Z</time>
      </trkpt>
      <trkpt lat="47.55659" lon="-2.30519">
        <ele>63.1</ele>
        <time>2025-01-16T12:04:02Z</time>
      </trkpt>
      <trkpt lat="47.5566" lon="-2.3052">
        <ele>63.2</ele>
        <time>2025-01-16T12:04:03Z</time>
      </trkpt>
      <trkpt lat="47.55661" lon="-2.30522">
        <ele>63.4</ele>
        <time>2025-01-16T12:04:04Z</time>
      </trkpt>
      <trkpt lat="47.55663" lon="-2.30524">
        <ele>63.6</ele>
        <time>2025-01-16T12:04:05Z</time>
      </trkpt>
      <trkpt lat="47.55664" lon="-2.30526">
        <ele>63.7</ele>
        <time>2025-01-16T12:04:06Z</time>
      </trkpt>
      <trkpt lat="47.55664" lon="-2.30527">
        <ele>63.8</ele>
        <time>2025-01-16T12:04:07Z</time>
      </trkpt>
      <trkpt lat="47.55665" lon="-2.30528">
        <ele>63.9</ele>
        <time>2025-01-16T12:04:08Z</time>
      </trkpt>
      <trkpt lat="47.55666" lon="-2.3053">
        <ele>64.1</ele>
        <time>2025-01-16T12:04:09Z</time>
      </trkpt>
      <trkpt lat="47.55666" lon="-2.30531">
        <ele>64.2</ele>
        <time>2025-01-16T12:04:10Z</time>
      </trkpt>
      <trkpt lat="47.55667" lon="-2.30532">
        <ele>64.3</ele>
        <time>2025-01-16T12:04:11Z</time>
      </trkpt>
      <trkpt lat="47.55667" lon="-2.30533">
        <ele>64.4</ele>
        <time>2025-01-16T12:04:12Z</time>
      </trkpt>
      <trkpt lat="47.55668" lon="-2.30534">
        <ele>64.5</ele>
        <time>2025-01-16T12:04:13Z</time>
      </trkpt>
      <trkpt lat="47.55668" lon="-2.30535">
        <ele>64.6</ele>
        <time>2025-01-16T12:04:14Z</time>
      </trkpt>
      <trkpt lat="47.55669" lon="-2.30536">
        <ele>64.7</ele>
        <time>2025-01-16T12:04:15Z</time>
      </trkpt>
      <trkpt lat="47.5567" lon="-2.30537">
        <ele>64.8</ele>
        <time>2025-01-16T12:04:16Z</time>
      </trkpt>
      <trkpt lat="47.55671" lon="-2.30538">
        <ele>64.9</ele>
        <time>2025-01-16T12:04:17Z</time>
      </trkpt>
      <trkpt lat="47.55671" lon="-2.30539">
        <ele>65</ele>
        <time>2025-01-16T12:04:18Z</time>
      </trkpt>
      <trkpt lat="47.55672" lon="-2.3054">
        <ele>65.1</ele>
        <time>2025-01-16T12:04:19Z</time>
      </trkpt>
      <trkpt lat="47.55672" lon="-2.30541">
        <ele>65.1</ele>
        <time>2025-01-16T12:04:20Z</time>
      </trkpt>
      <trkpt lat="47.55673" lon="-2.30542">
        <ele>65.3</ele>
        <time>2025-01-16T12:04:21Z</time>
      </trkpt>
      <trkpt lat="47.55673" lon="-2.30544">
        <ele>65.4</ele>
        <time>2025-01-16T12:04:22Z</time>
      </trkpt>
      <trkpt lat="47.55674" lon="-2.30545">
        <ele>65.5</ele>
        <time>2025-01-16T12:04:23Z</time>
      </trkpt>
      <trkpt lat="47.55674" lon="-2.30545">
        <ele>65.5</ele>
        <time>2025-01-16T12:04:24Z</time>
      </trkpt>
      <trkpt lat="47.55674" lon="-2.30547">
        <ele>65.6</ele>
        <time>2025-01-16T12:04:25Z</time>
      </trkpt>
      <trkpt lat="47.55674" lon="-2.30547">
        <ele>65.6</ele>
        <time>2025-01-16T12:04:26Z</time>
      </trkpt>
      <trkpt lat="47.55674" lon="-2.30548">
        <ele>65.7</ele>
        <time>2025-01-16T12:04:27Z</time>
      </trkpt>
      <trkpt lat="47.55674" lon="-2.3055">
        <ele>65.9</ele>
        <time>2025-01-16T12:04:28Z</time>
      </trkpt>
      <trkpt lat="47.55674" lon="-2.30551">
        <ele>65.9</ele>
        <time>2025-01-16T12:04:29Z</time>
      </trkpt>
      <trkpt lat="47.55675" lon="-2.30553">
        <ele>66.1</ele>
        <time>2025-01-16T12:04:30Z</time>
      </trkpt>
      <trkpt lat="47.55675" lon="-2.30555">
        <ele>66.3</ele>
        <time>2025-01-16T12:04:31Z</time>
      </trkpt>
      <trkpt lat="47.55675" lon="-2.30557">
        <ele>66.4</ele>
        <time>2025-01-16T12:04:32Z</time>
      </trkpt>
      <trkpt lat="47.55675" lon="-2.30559">
        <ele>66.5</ele>
        <time>2025-01-16T12:04:33Z</time>
      </trkpt>
      <trkpt lat="47.55675" lon="-2.3056">
        <ele>66.5</ele>
        <time>2025-01-16T12:04:34Z</time>
      </trkpt>
      <trkpt lat="47.55675" lon="-2.30562">
        <ele>66.6</ele>
        <time>2025-01-16T12:04:35Z</time>
      </trkpt>
      <trkpt lat="47.55676" lon="-2.30563">
        <ele>66.7</ele>
        <time>2025-01-16T12:04:36Z</time>
      </trkpt>
      <trkpt lat="47.55676" lon="-2.30565">
        <ele>66.8</ele>
        <time>2025-01-16T12:04:37Z</time>
      </trkpt>
      <trkpt lat="47.55677" lon="-2.30567">
        <ele>66.9</ele>
        <time>2025-01-16T12:04:38Z</time>
      </trkpt>
      <trkpt lat="47.55678" lon="-2.30568">
        <ele>67</ele>
        <time>2025-01-16T12:04:39Z</time>
      </trkpt>
      <trkpt lat="47.55679" lon="-2.30569">
        <ele>67.1</ele>
        <time>2025-01-16T12:04:40Z</time>
      </trkpt>
      <trkpt lat="47.55679" lon="-2.30571">
        <ele>67.2</ele>
        <time>2025-01-16T12:04:41Z</time>
      </trkpt>
      <trkpt lat="47.5568" lon="-2.30572">
        <ele>67.4</ele>
        <time>2025-01-16T12:04:42Z</time>
      </trkpt>
      <trkpt lat="47.5568" lon="-2.30574">
        <ele>67.5</ele>
        <time>2025-01-16T12:04:43Z</time>
      </trkpt>
      <trkpt lat="47.55681" lon="-2.30576">
        <ele>67.6</ele>
        <time>2025-01-16T12:04:44Z</time>
      </trkpt>
      <trkpt lat="47.55681" lon="-2.30577">
        <ele>67.7</ele>
        <time>2025-01-16T12:04:45Z</time>
      </trkpt>
      <trkpt lat="47.55681" lon="-2.30579">
        <ele>67.8</ele>
        <time>2025-01-16T12:04:46Z</time>
      </trkpt>
      <trkpt lat="47.55682" lon="-2.3058">
        <ele>67.9</ele>
        <time>2025-01-16T12:04:47Z</time>
      </trkpt>
      <trkpt lat="47.55682" lon="-2.30581">
        <ele>68</ele>
        <time>2025-01-16T12:04:48Z</time>
      </trkpt>
      <trkpt lat="47.55682" lon="-2.30582">
        <ele>68</ele>
        <time>2025-01-16T12:04:49Z</time>
      </trkpt>
      <trkpt lat="47.55682" lon="-2.30584">
        <ele>68.1</ele>
        <time>2025-01-16T12:04:50Z</time>
      </trkpt>
      <trkpt lat="47.55682" lon="-2.30587">
        <ele>68.3</ele>
        <time>2025-01-16T12:04:51Z</time>
      </trkpt>
      <trkpt lat="47.55682" lon="-2.30588">
        <ele>68.3</ele>
        <time>2025-01-16T12:04:52Z</time>
      </trkpt>
      <trkpt lat="47.55682" lon="-2.3059">
        <ele>68.5</ele>
        <time>2025-01-16T12:04:53Z</time>
      </trkpt>
      <trkpt lat="47.55682" lon="-2.30591">
        <ele>68.5</ele>
        <time>2025-01-16T12:04:54Z</time>
      </trkpt>
      <trkpt lat="47.55682" lon="-2.30592">
        <ele>68.6</ele>
        <time>2025-01-16T12:04:55Z</time>
      </trkpt>
      <trkpt lat="47.55683" lon="-2.30594">
        <ele>68.7</ele>
        <time>2025-01-16T12:04:56Z</time>
      </trkpt>
      <trkpt lat="47.55683" lon="-2.30595">
        <ele>68.8</ele>
        <time>2025-01-16T12:04:57Z</time>
      </trkpt>
      <trkpt lat="47.55684" lon="-2.30597">
        <ele>68.9</ele>
        <time>2025-01-16T12:04:58Z</time>
      </trkpt>
      <trkpt lat="47.55685" lon="-2.30599">
        <ele>69.1</ele>
        <time>2025-01-16T12:04:59Z</time>
      </trkpt>
      <trkpt lat="47.55686" lon="-2.30601">
        <ele>69.2</ele>
        <time>2025-01-16T12:05:00Z</time>
      </trkpt>
      <trkpt lat="47.55687" lon="-2.30603">
        <ele>69.4</ele>
        <time>2025-01-16T12:05:01Z</time>
      </trkpt>
      <trkpt lat="47.55687" lon="-2.30604">
        <ele>69.4</ele>
        <time>2025-01-16T12:05:02Z</time>
      </trkpt>
      <trkpt lat="47.55688" lon="-2.30605">
        <ele>69.5</ele>
        <time>2025-01-16T12:05:03Z</time>
      </trkpt>
      <trkpt lat="47.55688" lon="-2.30606">
        <ele>69.5</ele>
        <time>2025-01-16T12:05:04Z</time>
      </trkpt>
      <trkpt lat="47.55688" lon="-2.30607">
        <ele>69.6</ele>
        <time>2025-01-16T12:05:05Z</time>
      </trkpt>
      <trkpt lat="47.55689" lon="-2.30609">
        <ele>69.7</ele>
        <time>2025-01-16T12:05:06Z</time>
      </trkpt>
      <trkpt lat="47.5569" lon="-2.30611">
        <ele>69.8</ele>
        <time>2025-01-16T12:05:07Z</time>
      </trkpt>
      <trkpt lat="47.5569" lon="-2.30612">
        <ele>69.9</ele>
        <time>2025-01-16T12:05:08Z</time>
      </trkpt>
      <trkpt lat="47.5569" lon="-2.30614">
        <ele>69.9</ele>
        <time>2025-01-16T12:05:09Z</time>
      </trkpt>
      <trkpt lat="47.55691" lon="-2.30617">
        <ele>70.1</ele>
        <time>2025-01-16T12:05:10Z</time>
      </trkpt>
      <trkpt lat="47.55692" lon="-2.30619">
        <ele>70.2</ele>
        <time>2025-01-16T12:05:11Z</time>
      </trkpt>
      <trkpt lat="47.55692" lon="-2.30621">
        <ele>70.3</ele>
        <time>2025-01-16T12:05:12Z</time>
      </trkpt>
      <trkpt lat="47.55693" lon="-2.30622">
        <ele>70.3</ele>
        <time>2025-01-16T12:05:13Z</time>
      </trkpt>
      <trkpt lat="47.55693" lon="-2.30623">
        <ele>70.4</ele>
        <time>2025-01-16T12:05:14Z</time>
      </trkpt>
      <trkpt lat="47.55694" lon="-2.30625">
        <ele>70.5</ele>
        <time>2025-01-16T12:05:15Z</time>
      </trkpt>
      <trkpt lat="47.55695" lon="-2.30626">
        <ele>70.6</ele>
        <time>2025-01-16T12:05:16Z</time>
      </trkpt>
      <trkpt lat="47.55695" lon="-2.30628">
        <ele>70.6</ele>
        <time>2025-01-16T12:05:17Z</time>
      </trkpt>
      <trkpt lat="47.55696" lon="-2.30629">
        <ele>70.7</ele>
        <time>2025-01-16T12:05:18Z</time>
      </trkpt>
      <trkpt lat="47.55696" lon="-2.30631">
        <ele>70.8</ele>
        <time>2025-01-16T12:05:19Z</time>
      </trkpt>
      <trkpt lat="47.55696" lon="-2.30632">
        <ele>70.8</ele>
        <time>2025-01-16T12:05:20Z</time>
      </trkpt>
      <trkpt lat="47.55697" lon="-2.30634">
        <ele>70.9</ele>
        <time>2025-01-16T12:05:21Z</time>
      </trkpt>
      <trkpt lat="47.55697" lon="-2.30636">
        <ele>71</ele>
        <time>2025-01-16T12:05:22Z</time>
      </trkpt>
      <trkpt lat="47.55697" lon="-2.30638">
        <ele>71.1</ele>
        <time>2025-01-16T12:05:23Z</time>
      </trkpt>
      <trkpt lat="47.55698" lon="-2.3064">
        <ele>71.2</ele>
        <time>2025-01-16T12:05:24Z</time>
      </trkpt>
      <trkpt lat="47.55699" lon="-2.30643">
        <ele>71.3</ele>
        <time>2025-01-16T12:05:25Z</time>
      </trkpt>
      <trkpt lat="47.557" lon="-2.30644">
        <ele>71.3</ele>
        <time>2025-01-16T12:05:26Z</time>
      </trkpt>
      <trkpt lat="47.55701" lon="-2.30645">
        <ele>71.4</ele>
        <time>2025-01-16T12:05:27Z</time>
      </trkpt>
      <trkpt lat="47.55702" lon="-2.30646">
        <ele>71.5</ele>
        <time>2025-01-16T12:05:28Z</time>
      </trkpt>
      <trkpt lat="47.55703" lon="-2.30647">
        <ele>71.5</ele>
        <time>2025-01-16T12:05:29Z</time>
      </trkpt>
      <trkpt lat="47.55703" lon="-2.30648">
        <ele>71.5</ele>
        <time>2025-01-16T12:05:30Z</time>
      </trkpt>
      <trkpt lat="47.55704" lon="-2.3065">
        <ele>71.6</ele>
        <time>2025-01-16T12:05:31Z</time>
      </trkpt>
      <trkpt lat="47.55704" lon="-2.30651">
        <ele>71.6</ele>
        <time>2025-01-16T12:05:32Z</time>
      </trkpt>
      <trkpt lat="47.55705" lon="-2.30654">
        <ele>71.7</ele>
        <time>2025-01-16T12:05:33Z</time>
      </trkpt>
      <trkpt lat="47.55705" lon="-2.30655">
        <ele>71.7</ele>
        <time>2025-01-16T12:05:34Z</time>
      </trkpt>
      <trkpt lat="47.55705" lon="-2.30656">
        <ele>71.8</ele>
        <time>2025-01-16T12:05:35Z</time>
      </trkpt>
      <trkpt lat="47.55705" lon="-2.30657">
        <ele>71.8</ele>
        <time>2025-01-16T12:05:36Z</time>
      </trkpt>
      <trkpt lat="47.55706" lon="-2.30658">
        <ele>71.8</ele>
        <time>2025-01-16T12:05:37Z</time>
      </trkpt>
      <trkpt lat="47.55707" lon="-2.3066">
        <ele>71.9</ele>
        <time>2025-01-16T12:05:38Z</time>
      </trkpt>
      <trkpt lat="47.55707" lon="-2.30661">
        <ele>71.9</ele>
        <time>2025-01-16T12:05:39Z</time>
      </trkpt>
      <trkpt lat="47.55707" lon="-2.30663">
        <ele>71.9</ele>
        <time>2025-01-16T12:05:40Z</time>
      </trkpt>
      <trkpt lat="47.55707" lon="-2.30664">
        <ele>71.9</ele>
        <time>2025-01-16T12:05:41Z</time>
      </trkpt>
      <trkpt lat="47.55708" lon="-2.30666">
        <ele>72</ele>
        <time>2025-01-16T12:05:42Z</time>
      </trkpt>
      <trkpt lat="47.55708" lon="-2.30668">
        <ele>72</ele>
        <time>2025-01-16T12:05:43Z</time>
      </trkpt>
      <trkpt lat="47.55709" lon="-2.30669">
        <ele>72</ele>
        <time>2025-01-16T12:05:44Z</time>
      </trkpt>
      <trkpt lat="47.55709" lon="-2.3067">
        <ele>71.9</ele>
        <time>2025-01-16T12:05:45Z</time>
      </trkpt>
      <trkpt lat="47.5571" lon="-2.30672">
        <ele>71.9</ele>
        <time>2025-01-16T12:05:46Z</time>
      </trkpt>
      <trkpt lat="47.55711" lon="-2.30674">
        <ele>71.8</ele>
        <time>2025-01-16T12:05:47Z</time>
      </trkpt>
      <trkpt lat="47.55712" lon="-2.30676">
        <ele>71.8</ele>
        <time>2025-01-16T12:05:48Z</time>
      </trkpt>
      <trkpt lat="47.55713" lon="-2.30678">
        <ele>71.7</ele>
        <time>2025-01-16T12:05:49Z</time>
      </trkpt>
      <trkpt lat="47.55714" lon="-2.3068">
        <ele>71.7</ele>
        <time>2025-01-16T12:05:50Z</time>
      </trkpt>
      <trkpt lat="47.55714" lon="-2.30682">
        <ele>71.6</ele>
        <time>2025-01-16T12:05:51Z</time>
      </trkpt>
      <trkpt lat="47.55714" lon="-2.30684">
        <ele>71.6</ele>
        <time>2025-01-16T12:05:52Z</time>
      </trkpt>
      <trkpt lat="47.55715" lon="-2.30686">
        <ele>71.5</ele>
        <time>2025-01-16T12:05:53Z</time>
      </trkpt>
      <trkpt lat="47.55716" lon="-2.30687">
        <ele>71.4</ele>
        <time>2025-01-16T12:05:54Z</time>
      </trkpt>
      <trkpt lat="47.55717" lon="-2.30688">
        <ele>71.4</ele>
        <time>2025-01-16T12:05:55Z</time>
      </trkpt>
      <trkpt lat="47.55717" lon="-2.3069">
        <ele>71.3</ele>
        <time>2025-01-16T12:05:56Z</time>
      </trkpt>
      <trkpt lat="47.55718" lon="-2.30691">
        <ele>71.3</ele>
        <time>2025-01-16T12:05:57Z</time>
      </trkpt>
      <trkpt lat="47.55719" lon="-2.30693">
        <ele>71.2</ele>
        <time>2025-01-16T12:05:58Z</time>
      </trkpt>
      <trkpt lat="47.5572" lon="-2.30695">
        <ele>71.1</ele>
        <time>2025-01-16T12:05:59Z</time>
      </trkpt>
      <trkpt lat="47.55721" lon="-2.30696">
        <ele>71</ele>
        <time>2025-01-16T12:06:00Z</time>
      </trkpt>
      <trkpt lat="47.55722" lon="-2.30698">
        <ele>71</ele>
        <time>2025-01-16T12:06:01Z</time>
      </trkpt>
      <trkpt lat="47.55723" lon="-2.30699">
        <ele>71</ele>
        <time>2025-01-16T12:06:02Z</time>
      </trkpt>
      <trkpt lat="47.55723" lon="-2.30701">
        <ele>71</ele>
        <time>2025-01-16T12:06:03Z</time>
      </trkpt>
      <trkpt lat="47.55723" lon="-2.30702">
        <ele>71</ele>
        <time>2025-01-16T12:06:04Z</time>
      </trkpt>
      <trkpt lat="47.55723" lon="-2.30703">
        <ele>71</ele>
        <time>2025-01-16T12:06:05Z</time>
      </trkpt>
      <trkpt lat="47.55723" lon="-2.30704">
        <ele>71</ele>
        <time>2025-01-16T12:06:06Z</time>
      </trkpt>
      <trkpt lat="47.55723" lon="-2.30705">
        <ele>71</ele>
        <time>2025-01-16T12:06:07Z</time>
      </trkpt>
      <trkpt lat="47.55723" lon="-2.30707">
        <ele>71</ele>
        <time>2025-01-16T12:06:08Z</time>
      </trkpt>
      <trkpt lat="47.55724" lon="-2.30709">
        <ele>71</ele>
        <time>2025-01-16T12:06:09Z</time>
      </trkpt>
      <trkpt lat="47.55725" lon="-2.30711">
        <ele>70.9</ele>
        <time>2025-01-16T12:06:10Z</time>
      </trkpt>
      <trkpt lat="47.55727" lon="-2.30712">
        <ele>70.9</ele>
        <time>2025-01-16T12:06:11Z</time>
      </trkpt>
      <trkpt lat="47.55727" lon="-2.30715">
        <ele>70.9</ele>
        <time>2025-01-16T12:06:12Z</time>
      </trkpt>
      <trkpt lat="47.55728" lon="-2.30718">
        <ele>70.8</ele>
        <time>2025-01-16T12:06:13Z</time>
      </trkpt>
      <trkpt lat="47.55727" lon="-2.3072">
        <ele>70.8</ele>
        <time>2025-01-16T12:06:14Z</time>
      </trkpt>
      <trkpt lat="47.55727" lon="-2.30722">
        <ele>70.8</ele>
        <time>2025-01-16T12:06:15Z</time>
      </trkpt>
      <trkpt lat="47.55727" lon="-2.30723">
        <ele>70.8</ele>
        <time>2025-01-16T12:06:16Z</time>
      </trkpt>
      <trkpt lat="47.55727" lon="-2.30724">
        <ele>70.8</ele>
        <time>2025-01-16T12:06:17Z</time>
      </trkpt>
      <trkpt lat="47.55727" lon="-2.30726">
        <ele>70.7</ele>
        <time>2025-01-16T12:06:18Z</time>
      </trkpt>
      <trkpt lat="47.55728" lon="-2.30728">
        <ele>70.5</ele>
        <time>2025-01-16T12:06:19Z</time>
      </trkpt>
      <trkpt lat="47.55728" lon="-2.3073">
        <ele>70.5</ele>
        <time>2025-01-16T12:06:20Z</time>
      </trkpt>
      <trkpt lat="47.55728" lon="-2.30733">
        <ele>70.3</ele>
        <time>2025-01-16T12:06:21Z</time>
      </trkpt>
      <trkpt lat="47.55728" lon="-2.30735">
        <ele>70.2</ele>
        <time>2025-01-16T12:06:22Z</time>
      </trkpt>
      <trkpt lat="47.55728" lon="-2.30737">
        <ele>70.1</ele>
        <time>2025-01-16T12:06:23Z</time>
      </trkpt>
      <trkpt lat="47.55728" lon="-2.30739">
        <ele>70.1</ele>
        <time>2025-01-16T12:06:24Z</time>
      </trkpt>
      <trkpt lat="47.55728" lon="-2.3074">
        <ele>70</ele>
        <time>2025-01-16T12:06:25Z</time>
      </trkpt>
      <trkpt lat="47.55729" lon="-2.30741">
        <ele>69.9</ele>
        <time>2025-01-16T12:06:26Z</time>
      </trkpt>
      <trkpt lat="47.55728" lon="-2.30741">
        <ele>70</ele>
        <time>2025-01-16T12:06:27Z</time>
      </trkpt>
      <trkpt lat="47.55728" lon="-2.30742">
        <ele>69.9</ele>
        <time>2025-01-16T12:06:28Z</time>
      </trkpt>
      <trkpt lat="47.55728" lon="-2.30744">
        <ele>69.8</ele>
        <time>2025-01-16T12:06:29Z</time>
      </trkpt>
      <trkpt lat="47.55728" lon="-2.30746">
        <ele>69.8</ele>
        <time>2025-01-16T12:06:30Z</time>
      </trkpt>
      <trkpt lat="47.55728" lon="-2.30748">
        <ele>69.7</ele>
        <time>2025-01-16T12:06:31Z</time>
      </trkpt>
      <trkpt lat="47.55728" lon="-2.3075">
        <ele>69.6</ele>
        <time>2025-01-16T12:06:32Z</time>
      </trkpt>
      <trkpt lat="47.55727" lon="-2.30752">
        <ele>69.6</ele>
        <time>2025-01-16T12:06:33Z</time>
      </trkpt>
      <trkpt lat="47.55727" lon="-2.30754">
        <ele>69.5</ele>
        <time>2025-01-16T12:06:34Z</time>
      </trkpt>
      <trkpt lat="47.55726" lon="-2.30755">
        <ele>69.6</ele>
        <time>2025-01-16T12:06:35Z</time>
      </trkpt>
      <trkpt lat="47.55726" lon="-2.30757">
        <ele>69.5</ele>
        <time>2025-01-16T12:06:36Z</time>
      </trkpt>
      <trkpt lat="47.55726" lon="-2.30758">
        <ele>69.5</ele>
        <time>2025-01-16T12:06:37Z</time>
      </trkpt>
      <trkpt lat="47.55726" lon="-2.3076">
        <ele>69.4</ele>
        <time>2025-01-16T12:06:38Z</time>
      </trkpt>
      <trkpt lat="47.55726" lon="-2.30762">
        <ele>69.4</ele>
        <time>2025-01-16T12:06:39Z</time>
      </trkpt>
      <trkpt lat="47.55726" lon="-2.30764">
        <ele>69.3</ele>
        <time>2025-01-16T12:06:40Z</time>
      </trkpt>
      <trkpt lat="47.55726" lon="-2.30766">
        <ele>69.2</ele>
        <time>2025-01-16T12:06:41Z</time>
      </trkpt>
      <trkpt lat="47.55726" lon="-2.30768">
        <ele>69.2</ele>
        <time>2025-01-16T12:06:42Z</time>
      </trkpt>
      <trkpt lat="47.55726" lon="-2.30769">
        <ele>69.1</ele>
        <time>2025-01-16T12:06:43Z</time>
      </trkpt>
      <trkpt lat="47.55725" lon="-2.30771">
        <ele>69.1</ele>
        <time>2025-01-16T12:06:44Z</time>
      </trkpt>
      <trkpt lat="47.55725" lon="-2.30773">
        <ele>69.1</ele>
        <time>2025-01-16T12:06:45Z</time>
      </trkpt>
      <trkpt lat="47.55725" lon="-2.30776">
        <ele>69</ele>
        <time>2025-01-16T12:06:46Z</time>
      </trkpt>
      <trkpt lat="47.55724" lon="-2.30778">
        <ele>68.9</ele>
        <time>2025-01-16T12:06:47Z</time>
      </trkpt>
      <trkpt lat="47.55724" lon="-2.3078">
        <ele>68.9</ele>
        <time>2025-01-16T12:06:48Z</time>
      </trkpt>
      <trkpt lat="47.55724" lon="-2.30782">
        <ele>68.9</ele>
        <time>2025-01-16T12:06:49Z</time>
      </trkpt>
      <trkpt lat="47.55724" lon="-2.30784">
        <ele>68.9</ele>
        <time>2025-01-16T12:06:50Z</time>
      </trkpt>
      <trkpt lat="47.55724" lon="-2.30786">
        <ele>68.9</ele>
        <time>2025-01-16T12:06:51Z</time>
      </trkpt>
      <trkpt lat="47.55724" lon="-2.30788">
        <ele>68.9</ele>
        <time>2025-01-16T12:06:52Z</time>
      </trkpt>
      <trkpt lat="47.55724" lon="-2.3079">
        <ele>68.9</ele>
        <time>2025-01-16T12:06:53Z</time>
      </trkpt>
      <trkpt lat="47.55724" lon="-2.30791">
        <ele>68.9</ele>
        <time>2025-01-16T12:06:54Z</time>
      </trkpt>
      <trkpt lat="47.55723" lon="-2.30793">
        <ele>69</ele>
        <time>2025-01-16T12:06:55Z</time>
      </trkpt>
      <trkpt lat="47.55723" lon="-2.30795">
        <ele>69</ele>
        <time>2025-01-16T12:06:56Z</time>
      </trkpt>
      <trkpt lat="47.55724" lon="-2.30797">
        <ele>68.9</ele>
        <time>2025-01-16T12:06:57Z</time>
      </trkpt>
      <trkpt lat="47.55724" lon="-2.30798">
        <ele>68.9</ele>
        <time>2025-01-16T12:06:58Z</time>
      </trkpt>
      <trkpt lat="47.55724" lon="-2.308">
        <ele>68.9</ele>
        <time>2025-01-16T12:06:59Z</time>
      </trkpt>
      <trkpt lat="47.55725" lon="-2.30801">
        <ele>68.8</ele>
        <time>2025-01-16T12:07:00Z</time>
      </trkpt>
      <trkpt lat="47.55725" lon="-2.30802">
        <ele>68.8</ele>
        <time>2025-01-16T12:07:01Z</time>
      </trkpt>
      <trkpt lat="47.55725" lon="-2.30805">
        <ele>68.8</ele>
        <time>2025-01-16T12:07:02Z</time>
      </trkpt>
      <trkpt lat="47.55725" lon="-2.30807">
        <ele>68.7</ele>
        <time>2025-01-16T12:07:03Z</time>
      </trkpt>
      <trkpt lat="47.55725" lon="-2.30809">
        <ele>68.7</ele>
        <time>2025-01-16T12:07:04Z</time>
      </trkpt>
      <trkpt lat="47.55726" lon="-2.3081">
        <ele>68.6</ele>
        <time>2025-01-16T12:07:05Z</time>
      </trkpt>
      <trkpt lat="47.55726" lon="-2.30812">
        <ele>68.5</ele>
        <time>2025-01-16T12:07:06Z</time>
      </trkpt>
      <trkpt lat="47.55726" lon="-2.30814">
        <ele>68.4</ele>
        <time>2025-01-16T12:07:07Z</time>
      </trkpt>
      <trkpt lat="47.55726" lon="-2.30815">
        <ele>68.4</ele>
        <time>2025-01-16T12:07:08Z</time>
      </trkpt>
      <trkpt lat="47.55727" lon="-2.30817">
        <ele>68.2</ele>
        <time>2025-01-16T12:07:09Z</time>
      </trkpt>
      <trkpt lat="47.55727" lon="-2.30818">
        <ele>68.2</ele>
        <time>2025-01-16T12:07:10Z</time>
      </trkpt>
      <trkpt lat="47.55727" lon="-2.30819">
        <ele>68.2</ele>
        <time>2025-01-16T12:07:11Z</time>
      </trkpt>
      <trkpt lat="47.55727" lon="-2.30821">
        <ele>68.1</ele>
        <time>2025-01-16T12:07:12Z</time>
      </trkpt>
      <trkpt lat="47.55727" lon="-2.30822">
        <ele>68.1</ele>
        <time>2025-01-16T12:07:13Z</time>
      </trkpt>
      <trkpt lat="47.55727" lon="-2.30823">
        <ele>68</ele>
        <time>2025-01-16T12:07:14Z</time>
      </trkpt>
      <trkpt lat="47.55727" lon="-2.30825">
        <ele>68</ele>
        <time>2025-01-16T12:07:15Z</time>
      </trkpt>
      <trkpt lat="47.55727" lon="-2.30827">
        <ele>67.9</ele>
        <time>2025-01-16T12:07:16Z</time>
      </trkpt>
      <trkpt lat="47.55728" lon="-2.30829">
        <ele>67.7</ele>
        <time>2025-01-16T12:07:17Z</time>
      </trkpt>
      <trkpt lat="47.55728" lon="-2.30831">
        <ele>67.7</ele>
        <time>2025-01-16T12:07:18Z</time>
      </trkpt>
      <trkpt lat="47.55728" lon="-2.30832">
        <ele>67.6</ele>
        <time>2025-01-16T12:07:19Z</time>
      </trkpt>
      <trkpt lat="47.55728" lon="-2.30834">
        <ele>67.5</ele>
        <time>2025-01-16T12:07:20Z</time>
      </trkpt>
      <trkpt lat="47.55728" lon="-2.30835">
        <ele>67.5</ele>
        <time>2025-01-16T12:07:21Z</time>
      </trkpt>
      <trkpt lat="47.55728" lon="-2.30837">
        <ele>67.3</ele>
        <time>2025-01-16T12:07:22Z</time>
      </trkpt>
      <trkpt lat="47.55728" lon="-2.30838">
        <ele>67.3</ele>
        <time>2025-01-16T12:07:23Z</time>
      </trkpt>
      <trkpt lat="47.55728" lon="-2.3084">
        <ele>67.2</ele>
        <time>2025-01-16T12:07:24Z</time>
      </trkpt>
      <trkpt lat="47.55728" lon="-2.30841">
        <ele>67.1</ele>
        <time>2025-01-16T12:07:25Z</time>
      </trkpt>
      <trkpt lat="47.55728" lon="-2.30843">
        <ele>67</ele>
        <time>2025-01-16T12:07:26Z</time>
      </trkpt>
      <trkpt lat="47.55728" lon="-2.30844">
        <ele>66.9</ele>
        <time>2025-01-16T12:07:27Z</time>
      </trkpt>
      <trkpt lat="47.55728" lon="-2.30846">
        <ele>66.8</ele>
        <time>2025-01-16T12:07:28Z</time>
      </trkpt>
      <trkpt lat="47.55728" lon="-2.30847">
        <ele>66.7</ele>
        <time>2025-01-16T12:07:29Z</time>
      </trkpt>
      <trkpt lat="47.55728" lon="-2.30849">
        <ele>66.6</ele>
        <time>2025-01-16T12:07:30Z</time>
      </trkpt>
      <trkpt lat="47.55728" lon="-2.30851">
        <ele>66.4</ele>
        <time>2025-01-16T12:07:31Z</time>
      </trkpt>
      <trkpt lat="47.55728" lon="-2.30853">
        <ele>66.3</ele>
        <time>2025-01-16T12:07:32Z</time>
      </trkpt>
      <trkpt lat="47.55728" lon="-2.30854">
        <ele>66.3</ele>
        <time>2025-01-16T12:07:33Z</time>
      </trkpt>
      <trkpt lat="47.55728" lon="-2.30854">
        <ele>66.3</ele>
        <time>2025-01-16T12:07:34Z</time>
      </trkpt>
      <trkpt lat="47.55728" lon="-2.30856">
        <ele>66.1</ele>
        <time>2025-01-16T12:07:35Z</time>
      </trkpt>
      <trkpt lat="47.55727" lon="-2.30857">
        <ele>66.1</ele>
        <time>2025-01-16T12:07:36Z</time>
      </trkpt>
      <trkpt lat="47.55727" lon="-2.30859">
        <ele>66</ele>
        <time>2025-01-16T12:07:37Z</time>
      </trkpt>
      <trkpt lat="47.55728" lon="-2.3086">
        <ele>65.9</ele>
        <time>2025-01-16T12:07:38Z</time>
      </trkpt>
      <trkpt lat="47.55728" lon="-2.30862">
        <ele>65.8</ele>
        <time>2025-01-16T12:07:39Z</time>
      </trkpt>
      <trkpt lat="47.55728" lon="-2.30864">
        <ele>65.7</ele>
        <time>2025-01-16T12:07:40Z</time>
      </trkpt>
      <trkpt lat="47.55728" lon="-2.30866">
        <ele>65.7</ele>
        <time>2025-01-16T12:07:41Z</time>
      </trkpt>
      <trkpt lat="47.55729" lon="-2.30867">
        <ele>65.6</ele>
        <time>2025-01-16T12:07:42Z</time>
      </trkpt>
      <trkpt lat="47.55729" lon="-2.30869">
        <ele>65.5</ele>
        <time>2025-01-16T12:07:43Z</time>
      </trkpt>
      <trkpt lat="47.5573" lon="-2.30872">
        <ele>65.4</ele>
        <time>2025-01-16T12:07:44Z</time>
      </trkpt>
      <trkpt lat="47.5573" lon="-2.30874">
        <ele>65.4</ele>
        <time>2025-01-16T12:07:45Z</time>
      </trkpt>
      <trkpt lat="47.5573" lon="-2.30876">
        <ele>65.3</ele>
        <time>2025-01-16T12:07:46Z</time>
      </trkpt>
      <trkpt lat="47.5573" lon="-2.30878">
        <ele>65.3</ele>
        <time>2025-01-16T12:07:47Z</time>
      </trkpt>
      <trkpt lat="47.55731" lon="-2.3088">
        <ele>65.2</ele>
        <time>2025-01-16T12:07:48Z</time>
      </trkpt>
      <trkpt lat="47.55731" lon="-2.30881">
        <ele>65.2</ele>
        <time>2025-01-16T12:07:49Z</time>
      </trkpt>
      <trkpt lat="47.55731" lon="-2.30882">
        <ele>65.2</ele>
        <time>2025-01-16T12:07:50Z</time>
      </trkpt>
      <trkpt lat="47.55731" lon="-2.30883">
        <ele>65.1</ele>
        <time>2025-01-16T12:07:51Z</time>
      </trkpt>
      <trkpt lat="47.55731" lon="-2.30884">
        <ele>65.1</ele>
        <time>2025-01-16T12:07:52Z</time>
      </trkpt>
      <trkpt lat="47.55731" lon="-2.30885">
        <ele>65.1</ele>
        <time>2025-01-16T12:07:53Z</time>
      </trkpt>
      <trkpt lat="47.55731" lon="-2.30888">
        <ele>65</ele>
        <time>2025-01-16T12:07:54Z</time>
      </trkpt>
      <trkpt lat="47.55731" lon="-2.3089">
        <ele>64.9</ele>
        <time>2025-01-16T12:07:55Z</time>
      </trkpt>
      <trkpt lat="47.55732" lon="-2.30892">
        <ele>64.8</ele>
        <time>2025-01-16T12:07:56Z</time>
      </trkpt>
      <trkpt lat="47.55732" lon="-2.30895">
        <ele>64.6</ele>
        <time>2025-01-16T12:07:57Z</time>
      </trkpt>
      <trkpt lat="47.55732" lon="-2.30897">
        <ele>64.5</ele>
        <time>2025-01-16T12:07:58Z</time>
      </trkpt>
      <trkpt lat="47.55733" lon="-2.30899">
        <ele>64.4</ele>
        <time>2025-01-16T12:07:59Z</time>
      </trkpt>
      <trkpt lat="47.55733" lon="-2.309">
        <ele>64.4</ele>
        <time>2025-01-16T12:08:00Z</time>
      </trkpt>
      <trkpt lat="47.55733" lon="-2.30903">
        <ele>64.2</ele>
        <time>2025-01-16T12:08:01Z</time>
      </trkpt>
      <trkpt lat="47.55733" lon="-2.30905">
        <ele>64.1</ele>
        <time>2025-01-16T12:08:02Z</time>
      </trkpt>
      <trkpt lat="47.55733" lon="-2.30906">
        <ele>64</ele>
        <time>2025-01-16T12:08:03Z</time>
      </trkpt>
      <trkpt lat="47.55733" lon="-2.30908">
        <ele>63.9</ele>
        <time>2025-01-16T12:08:04Z</time>
      </trkpt>
      <trkpt lat="47.55733" lon="-2.30911">
        <ele>63.7</ele>
        <time>2025-01-16T12:08:05Z</time>
      </trkpt>
      <trkpt lat="47.55733" lon="-2.30914">
        <ele>63.5</ele>
        <time>2025-01-16T12:08:06Z</time>
      </trkpt>
      <trkpt lat="47.55732" lon="-2.30917">
        <ele>63.3</ele>
        <time>2025-01-16T12:08:07Z</time>
      </trkpt>
      <trkpt lat="47.55732" lon="-2.30919">
        <ele>63.2</ele>
        <time>2025-01-16T12:08:08Z</time>
      </trkpt>
      <trkpt lat="47.55732" lon="-2.30921">
        <ele>63.1</ele>
        <time>2025-01-16T12:08:09Z</time>
      </trkpt>
      <trkpt lat="47.55731" lon="-2.30923">
        <ele>63</ele>
        <time>2025-01-16T12:08:10Z</time>
      </trkpt>
      <trkpt lat="47.55731" lon="-2.30924">
        <ele>63</ele>
        <time>2025-01-16T12:08:11Z</time>
      </trkpt>
      <trkpt lat="47.5573" lon="-2.30925">
        <ele>62.8</ele>
        <time>2025-01-16T12:08:12Z</time>
      </trkpt>
      <trkpt lat="47.55729" lon="-2.30926">
        <ele>62.7</ele>
        <time>2025-01-16T12:08:13Z</time>
      </trkpt>
      <trkpt lat="47.55728" lon="-2.30928">
        <ele>62.6</ele>
        <time>2025-01-16T12:08:14Z</time>
      </trkpt>
      <trkpt lat="47.55727" lon="-2.30929">
        <ele>62.4</ele>
        <time>2025-01-16T12:08:15Z</time>
      </trkpt>
      <trkpt lat="47.55726" lon="-2.3093">
        <ele>62.3</ele>
        <time>2025-01-16T12:08:16Z</time>
      </trkpt>
      <trkpt lat="47.55725" lon="-2.30931">
        <ele>62.2</ele>
        <time>2025-01-16T12:08:17Z</time>
      </trkpt>
      <trkpt lat="47.55723" lon="-2.30932">
        <ele>62</ele>
        <time>2025-01-16T12:08:18Z</time>
      </trkpt>
      <trkpt lat="47.55722" lon="-2.30933">
        <ele>61.8</ele>
        <time>2025-01-16T12:08:19Z</time>
      </trkpt>
      <trkpt lat="47.55723" lon="-2.30933">
        <ele>61.9</ele>
        <time>2025-01-16T12:08:20Z</time>
      </trkpt>
      <trkpt lat="47.55722" lon="-2.30934">
        <ele>61.8</ele>
        <time>2025-01-16T12:08:21Z</time>
      </trkpt>
      <trkpt lat="47.55721" lon="-2.30935">
        <ele>61.7</ele>
        <time>2025-01-16T12:08:22Z</time>
      </trkpt>
      <trkpt lat="47.5572" lon="-2.30936">
        <ele>61.7</ele>
        <time>2025-01-16T12:08:23Z</time>
      </trkpt>
      <trkpt lat="47.55719" lon="-2.30937">
        <ele>61.6</ele>
        <time>2025-01-16T12:08:24Z</time>
      </trkpt>
      <trkpt lat="47.55718" lon="-2.30938">
        <ele>61.5</ele>
        <time>2025-01-16T12:08:25Z</time>
      </trkpt>
      <trkpt lat="47.55717" lon="-2.30938">
        <ele>61.6</ele>
        <time>2025-01-16T12:08:26Z</time>
      </trkpt>
      <trkpt lat="47.55716" lon="-2.30939">
        <ele>61.5</ele>
        <time>2025-01-16T12:08:27Z</time>
      </trkpt>
      <trkpt lat="47.55715" lon="-2.3094">
        <ele>61.4</ele>
        <time>2025-01-16T12:08:28Z</time>
      </trkpt>
      <trkpt lat="47.55715" lon="-2.30941">
        <ele>61.3</ele>
        <time>2025-01-16T12:08:29Z</time>
      </trkpt>
      <trkpt lat="47.55714" lon="-2.30942">
        <ele>61.2</ele>
        <time>2025-01-16T12:08:30Z</time>
      </trkpt>
      <trkpt lat="47.55713" lon="-2.30942">
        <ele>61.2</ele>
        <time>2025-01-16T12:08:31Z</time>
      </trkpt>
      <trkpt lat="47.55712" lon="-2.30943">
        <ele>61.1</ele>
        <time>2025-01-16T12:08:32Z</time>
      </trkpt>
      <trkpt lat="47.55711" lon="-2.30943">
        <ele>61.1</ele>
        <time>2025-01-16T12:08:33Z</time>
      </trkpt>
      <trkpt lat="47.55709" lon="-2.30944">
        <ele>61</ele>
        <time>2025-01-16T12:08:34Z</time>
      </trkpt>
      <trkpt lat="47.55708" lon="-2.30945">
        <ele>61</ele>
        <time>2025-01-16T12:08:35Z</time>
      </trkpt>
      <trkpt lat="47.55707" lon="-2.30946">
        <ele>60.9</ele>
        <time>2025-01-16T12:08:36Z</time>
      </trkpt>
      <trkpt lat="47.55705" lon="-2.30948">
        <ele>60.8</ele>
        <time>2025-01-16T12:08:37Z</time>
      </trkpt>
      <trkpt lat="47.55704" lon="-2.30949">
        <ele>60.7</ele>
        <time>2025-01-16T12:08:38Z</time>
      </trkpt>
      <trkpt lat="47.55702" lon="-2.3095">
        <ele>60.6</ele>
        <time>2025-01-16T12:08:39Z</time>
      </trkpt>
      <trkpt lat="47.55701" lon="-2.3095">
        <ele>60.6</ele>
        <time>2025-01-16T12:08:40Z</time>
      </trkpt>
      <trkpt lat="47.55701" lon="-2.3095">
        <ele>60.6</ele>
        <time>2025-01-16T12:08:41Z</time>
      </trkpt>
      <trkpt lat="47.557" lon="-2.30949">
        <ele>60.6</ele>
        <time>2025-01-16T12:08:42Z</time>
      </trkpt>
      <trkpt lat="47.55699" lon="-2.30949">
        <ele>60.6</ele>
        <time>2025-01-16T12:08:43Z</time>
      </trkpt>
      <trkpt lat="47.55698" lon="-2.30949">
        <ele>60.6</ele>
        <time>2025-01-16T12:08:44Z</time>
      </trkpt>
      <trkpt lat="47.55697" lon="-2.30949">
        <ele>60.6</ele>
        <time>2025-01-16T12:08:45Z</time>
      </trkpt>
      <trkpt lat="47.55697" lon="-2.30949">
        <ele>60.6</ele>
        <time>2025-01-16T12:08:46Z</time>
      </trkpt>
      <trkpt lat="47.55696" lon="-2.30949">
        <ele>60.5</ele>
        <time>2025-01-16T12:08:47Z</time>
      </trkpt>
      <trkpt lat="47.55695" lon="-2.3095">
        <ele>60.4</ele>
        <time>2025-01-16T12:08:48Z</time>
      </trkpt>
      <trkpt lat="47.55693" lon="-2.3095">
        <ele>60.4</ele>
        <time>2025-01-16T12:08:49Z</time>
      </trkpt>
      <trkpt lat="47.55692" lon="-2.3095">
        <ele>60.4</ele>
        <time>2025-01-16T12:08:50Z</time>
      </trkpt>
      <trkpt lat="47.55691" lon="-2.30951">
        <ele>60.3</ele>
        <time>2025-01-16T12:08:51Z</time>
      </trkpt>
      <trkpt lat="47.55689" lon="-2.30952">
        <ele>60.1</ele>
        <time>2025-01-16T12:08:52Z</time>
      </trkpt>
      <trkpt lat="47.55688" lon="-2.30953">
        <ele>60</ele>
        <time>2025-01-16T12:08:53Z</time>
      </trkpt>
      <trkpt lat="47.55686" lon="-2.30953">
        <ele>60</ele>
        <time>2025-01-16T12:08:54Z</time>
      </trkpt>
      <trkpt lat="47.55685" lon="-2.30953">
        <ele>60</ele>
        <time>2025-01-16T12:08:55Z</time>
      </trkpt>
      <trkpt lat="47.55683" lon="-2.30953">
        <ele>59.9</ele>
        <time>2025-01-16T12:08:56Z</time>
      </trkpt>
      <trkpt lat="47.55682" lon="-2.30953">
        <ele>59.9</ele>
        <time>2025-01-16T12:08:57Z</time>
      </trkpt>
      <trkpt lat="47.55681" lon="-2.30953">
        <ele>59.9</ele>
        <time>2025-01-16T12:08:58Z</time>
      </trkpt>
      <trkpt lat="47.5568" lon="-2.30953">
        <ele>59.9</ele>
        <time>2025-01-16T12:08:59Z</time>
      </trkpt>
      <trkpt lat="47.55679" lon="-2.30953">
        <ele>59.9</ele>
        <time>2025-01-16T12:09:00Z</time>
      </trkpt>
      <trkpt lat="47.55678" lon="-2.30954">
        <ele>59.8</ele>
        <time>2025-01-16T12:09:01Z</time>
      </trkpt>
      <trkpt lat="47.55677" lon="-2.30954">
        <ele>59.8</ele>
        <time>2025-01-16T12:09:02Z</time>
      </trkpt>
      <trkpt lat="47.55676" lon="-2.30953">
        <ele>59.9</ele>
        <time>2025-01-16T12:09:03Z</time>
      </trkpt>
      <trkpt lat="47.55675" lon="-2.30953">
        <ele>59.9</ele>
        <time>2025-01-16T12:09:04Z</time>
      </trkpt>
      <trkpt lat="47.55674" lon="-2.30952">
        <ele>60</ele>
        <time>2025-01-16T12:09:05Z</time>
      </trkpt>
      <trkpt lat="47.55673" lon="-2.30952">
        <ele>60</ele>
        <time>2025-01-16T12:09:06Z</time>
      </trkpt>
      <trkpt lat="47.55672" lon="-2.30952">
        <ele>60</ele>
        <time>2025-01-16T12:09:07Z</time>
      </trkpt>
      <trkpt lat="47.55671" lon="-2.30952">
        <ele>60</ele>
        <time>2025-01-16T12:09:08Z</time>
      </trkpt>
      <trkpt lat="47.5567" lon="-2.30952">
        <ele>59.9</ele>
        <time>2025-01-16T12:09:09Z</time>
      </trkpt>
      <trkpt lat="47.55669" lon="-2.30952">
        <ele>59.9</ele>
        <time>2025-01-16T12:09:10Z</time>
      </trkpt>
      <trkpt lat="47.55668" lon="-2.30952">
        <ele>59.9</ele>
        <time>2025-01-16T12:09:11Z</time>
      </trkpt>
      <trkpt lat="47.55667" lon="-2.30952">
        <ele>59.9</ele>
        <time>2025-01-16T12:09:12Z</time>
      </trkpt>
      <trkpt lat="47.55667" lon="-2.30952">
        <ele>59.9</ele>
        <time>2025-01-16T12:09:13Z</time>
      </trkpt>
      <trkpt lat="47.55666" lon="-2.30952">
        <ele>59.8</ele>
        <time>2025-01-16T12:09:14Z</time>
      </trkpt>
      <trkpt lat="47.55665" lon="-2.30951">
        <ele>59.8</ele>
        <time>2025-01-16T12:09:15Z</time>
      </trkpt>
      <trkpt lat="47.55663" lon="-2.30951">
        <ele>59.6</ele>
        <time>2025-01-16T12:09:16Z</time>
      </trkpt>
      <trkpt lat="47.55662" lon="-2.30952">
        <ele>59.3</ele>
        <time>2025-01-16T12:09:17Z</time>
      </trkpt>
      <trkpt lat="47.55661" lon="-2.30952">
        <ele>59.2</ele>
        <time>2025-01-16T12:09:18Z</time>
      </trkpt>
      <trkpt lat="47.5566" lon="-2.30951">
        <ele>59.2</ele>
        <time>2025-01-16T12:09:19Z</time>
      </trkpt>
      <trkpt lat="47.55659" lon="-2.30951">
        <ele>59</ele>
        <time>2025-01-16T12:09:20Z</time>
      </trkpt>
      <trkpt lat="47.55658" lon="-2.30951">
        <ele>58.9</ele>
        <time>2025-01-16T12:09:21Z</time>
      </trkpt>
      <trkpt lat="47.55657" lon="-2.3095">
        <ele>58.9</ele>
        <time>2025-01-16T12:09:22Z</time>
      </trkpt>
      <trkpt lat="47.55656" lon="-2.30949">
        <ele>58.9</ele>
        <time>2025-01-16T12:09:23Z</time>
      </trkpt>
      <trkpt lat="47.55656" lon="-2.30949">
        <ele>58.9</ele>
        <time>2025-01-16T12:09:24Z</time>
      </trkpt>
      <trkpt lat="47.55655" lon="-2.30949">
        <ele>58.7</ele>
        <time>2025-01-16T12:09:25Z</time>
      </trkpt>
      <trkpt lat="47.55654" lon="-2.30948">
        <ele>58.7</ele>
        <time>2025-01-16T12:09:26Z</time>
      </trkpt>
      <trkpt lat="47.55653" lon="-2.30948">
        <ele>58.6</ele>
        <time>2025-01-16T12:09:27Z</time>
      </trkpt>
      <trkpt lat="47.55652" lon="-2.30947">
        <ele>58.6</ele>
        <time>2025-01-16T12:09:28Z</time>
      </trkpt>
      <trkpt lat="47.55651" lon="-2.30947">
        <ele>58.4</ele>
        <time>2025-01-16T12:09:29Z</time>
      </trkpt>
      <trkpt lat="47.55649" lon="-2.30946">
        <ele>58.3</ele>
        <time>2025-01-16T12:09:30Z</time>
      </trkpt>
      <trkpt lat="47.55648" lon="-2.30946">
        <ele>58.1</ele>
        <time>2025-01-16T12:09:31Z</time>
      </trkpt>
      <trkpt lat="47.55646" lon="-2.30946">
        <ele>57.8</ele>
        <time>2025-01-16T12:09:32Z</time>
      </trkpt>
      <trkpt lat="47.55645" lon="-2.30945">
        <ele>57.8</ele>
        <time>2025-01-16T12:09:33Z</time>
      </trkpt>
      <trkpt lat="47.55644" lon="-2.30945">
        <ele>57.7</ele>
        <time>2025-01-16T12:09:34Z</time>
      </trkpt>
      <trkpt lat="47.55643" lon="-2.30945">
        <ele>57.5</ele>
        <time>2025-01-16T12:09:35Z</time>
      </trkpt>
      <trkpt lat="47.55642" lon="-2.30945">
        <ele>57.4</ele>
        <time>2025-01-16T12:09:36Z</time>
      </trkpt>
      <trkpt lat="47.55641" lon="-2.30945">
        <ele>57.2</ele>
        <time>2025-01-16T12:09:37Z</time>
      </trkpt>
      <trkpt lat="47.5564" lon="-2.30945">
        <ele>57.1</ele>
        <time>2025-01-16T12:09:38Z</time>
      </trkpt>
      <trkpt lat="47.55638" lon="-2.30945">
        <ele>56.7</ele>
        <time>2025-01-16T12:09:39Z</time>
      </trkpt>
      <trkpt lat="47.55637" lon="-2.30945">
        <ele>56.5</ele>
        <time>2025-01-16T12:09:40Z</time>
      </trkpt>
      <trkpt lat="47.55636" lon="-2.30945">
        <ele>56.2</ele>
        <time>2025-01-16T12:09:41Z</time>
      </trkpt>
      <trkpt lat="47.55634" lon="-2.30945">
        <ele>55.7</ele>
        <time>2025-01-16T12:09:42Z</time>
      </trkpt>
      <trkpt lat="47.55633" lon="-2.30945">
        <ele>55.5</ele>
        <time>2025-01-16T12:09:43Z</time>
      </trkpt>
      <trkpt lat="47.55631" lon="-2.30944">
        <ele>55.1</ele>
        <time>2025-01-16T12:09:44Z</time>
      </trkpt>
      <trkpt lat="47.5563" lon="-2.30944">
        <ele>54.8</ele>
        <time>2025-01-16T12:09:45Z</time>
      </trkpt>
      <trkpt lat="47.55629" lon="-2.30943">
        <ele>54.6</ele>
        <time>2025-01-16T12:09:46Z</time>
      </trkpt>
      <trkpt lat="47.55627" lon="-2.30942">
        <ele>54.2</ele>
        <time>2025-01-16T12:09:47Z</time>
      </trkpt>
      <trkpt lat="47.55626" lon="-2.30941">
        <ele>54.1</ele>
        <time>2025-01-16T12:09:48Z</time>
      </trkpt>
      <trkpt lat="47.55625" lon="-2.3094">
        <ele>53.9</ele>
        <time>2025-01-16T12:09:49Z</time>
      </trkpt>
      <trkpt lat="47.55624" lon="-2.30939">
        <ele>53.7</ele>
        <time>2025-01-16T12:09:50Z</time>
      </trkpt>
      <trkpt lat="47.55623" lon="-2.30938">
        <ele>53.6</ele>
        <time>2025-01-16T12:09:51Z</time>
      </trkpt>
      <trkpt lat="47.55622" lon="-2.30937">
        <ele>53.4</ele>
        <time>2025-01-16T12:09:52Z</time>
      </trkpt>
      <trkpt lat="47.55622" lon="-2.30936">
        <ele>53.5</ele>
        <time>2025-01-16T12:09:53Z</time>
      </trkpt>
      <trkpt lat="47.55622" lon="-2.30936">
        <ele>53.5</ele>
        <time>2025-01-16T12:09:54Z</time>
      </trkpt>
      <trkpt lat="47.55621" lon="-2.30936">
        <ele>53.2</ele>
        <time>2025-01-16T12:09:55Z</time>
      </trkpt>
      <trkpt lat="47.55621" lon="-2.30935">
        <ele>53.3</ele>
        <time>2025-01-16T12:09:56Z</time>
      </trkpt>
      <trkpt lat="47.55621" lon="-2.30935">
        <ele>53.3</ele>
        <time>2025-01-16T12:09:57Z</time>
      </trkpt>
      <trkpt lat="47.55621" lon="-2.30935">
        <ele>53.3</ele>
        <time>2025-01-16T12:09:58Z</time>
      </trkpt>
      <trkpt lat="47.55621" lon="-2.30935">
        <ele>53.3</ele>
        <time>2025-01-16T12:09:59Z</time>
      </trkpt>
      <trkpt lat="47.5562" lon="-2.30934">
        <ele>53.1</ele>
        <time>2025-01-16T12:10:00Z</time>
      </trkpt>
      <trkpt lat="47.5562" lon="-2.30934">
        <ele>53.1</ele>
        <time>2025-01-16T12:10:01Z</time>
      </trkpt>
      <trkpt lat="47.55619" lon="-2.30933">
        <ele>52.9</ele>
        <time>2025-01-16T12:10:02Z</time>
      </trkpt>
      <trkpt lat="47.55618" lon="-2.30932">
        <ele>52.7</ele>
        <time>2025-01-16T12:10:03Z</time>
      </trkpt>
      <trkpt lat="47.55617" lon="-2.3093">
        <ele>52.6</ele>
        <time>2025-01-16T12:10:04Z</time>
      </trkpt>
      <trkpt lat="47.55616" lon="-2.30929">
        <ele>52.4</ele>
        <time>2025-01-16T12:10:05Z</time>
      </trkpt>
      <trkpt lat="47.55616" lon="-2.30927">
        <ele>52.6</ele>
        <time>2025-01-16T12:10:06Z</time>
      </trkpt>
      <trkpt lat="47.55614" lon="-2.30926">
        <ele>52.1</ele>
        <time>2025-01-16T12:10:07Z</time>
      </trkpt>
      <trkpt lat="47.55614" lon="-2.30924">
        <ele>52.3</ele>
        <time>2025-01-16T12:10:08Z</time>
      </trkpt>
      <trkpt lat="47.55612" lon="-2.30922">
        <ele>51.9</ele>
        <time>2025-01-16T12:10:09Z</time>
      </trkpt>
      <trkpt lat="47.55611" lon="-2.3092">
        <ele>51.7</ele>
        <time>2025-01-16T12:10:10Z</time>
      </trkpt>
      <trkpt lat="47.55611" lon="-2.30918">
        <ele>51.9</ele>
        <time>2025-01-16T12:10:11Z</time>
      </trkpt>
      <trkpt lat="47.5561" lon="-2.30917">
        <ele>51.5</ele>
        <time>2025-01-16T12:10:12Z</time>
      </trkpt>
      <trkpt lat="47.55609" lon="-2.30916">
        <ele>51.1</ele>
        <time>2025-01-16T12:10:13Z</time>
      </trkpt>
      <trkpt lat="47.55607" lon="-2.30914">
        <ele>50.3</ele>
        <time>2025-01-16T12:10:14Z</time>
      </trkpt>
      <trkpt lat="47.55606" lon="-2.30913">
        <ele>49.9</ele>
        <time>2025-01-16T12:10:15Z</time>
      </trkpt>
      <trkpt lat="47.55606" lon="-2.30912">
        <ele>49.9</ele>
        <time>2025-01-16T12:10:16Z</time>
      </trkpt>
      <trkpt lat="47.55605" lon="-2.30911">
        <ele>49.5</ele>
        <time>2025-01-16T12:10:17Z</time>
      </trkpt>
      <trkpt lat="47.55605" lon="-2.30909">
        <ele>49.7</ele>
        <time>2025-01-16T12:10:18Z</time>
      </trkpt>
      <trkpt lat="47.55604" lon="-2.30907">
        <ele>49.4</ele>
        <time>2025-01-16T12:10:19Z</time>
      </trkpt>
      <trkpt lat="47.55604" lon="-2.30905">
        <ele>49.5</ele>
        <time>2025-01-16T12:10:20Z</time>
      </trkpt>
      <trkpt lat="47.55603" lon="-2.30903">
        <ele>49.2</ele>
        <time>2025-01-16T12:10:21Z</time>
      </trkpt>
      <trkpt lat="47.55603" lon="-2.309">
        <ele>49.4</ele>
        <time>2025-01-16T12:10:22Z</time>
      </trkpt>
      <trkpt lat="47.55603" lon="-2.30897">
        <ele>49.6</ele>
        <time>2025-01-16T12:10:23Z</time>
      </trkpt>
      <trkpt lat="47.55603" lon="-2.30895">
        <ele>49.8</ele>
        <time>2025-01-16T12:10:24Z</time>
      </trkpt>
      <trkpt lat="47.55602" lon="-2.30893">
        <ele>49.4</ele>
        <time>2025-01-16T12:10:25Z</time>
      </trkpt>
      <trkpt lat="47.55602" lon="-2.30891">
        <ele>49.6</ele>
        <time>2025-01-16T12:10:26Z</time>
      </trkpt>
      <trkpt lat="47.55602" lon="-2.30889">
        <ele>49.7</ele>
        <time>2025-01-16T12:10:27Z</time>
      </trkpt>
      <trkpt lat="47.55601" lon="-2.30886">
        <ele>49.3</ele>
        <time>2025-01-16T12:10:28Z</time>
      </trkpt>
      <trkpt lat="47.55601" lon="-2.30884">
        <ele>49.4</ele>
        <time>2025-01-16T12:10:29Z</time>
      </trkpt>
      <trkpt lat="47.55601" lon="-2.30882">
        <ele>49.4</ele>
        <time>2025-01-16T12:10:30Z</time>
      </trkpt>
      <trkpt lat="47.556" lon="-2.3088">
        <ele>49.1</ele>
        <time>2025-01-16T12:10:31Z</time>
      </trkpt>
      <trkpt lat="47.556" lon="-2.30878">
        <ele>49.1</ele>
        <time>2025-01-16T12:10:32Z</time>
      </trkpt>
      <trkpt lat="47.55599" lon="-2.30876">
        <ele>48.7</ele>
        <time>2025-01-16T12:10:33Z</time>
      </trkpt>
      <trkpt lat="47.55599" lon="-2.30874">
        <ele>48.8</ele>
        <time>2025-01-16T12:10:34Z</time>
      </trkpt>
      <trkpt lat="47.55599" lon="-2.30872">
        <ele>48.9</ele>
        <time>2025-01-16T12:10:35Z</time>
      </trkpt>
      <trkpt lat="47.55598" lon="-2.3087">
        <ele>48.5</ele>
        <time>2025-01-16T12:10:36Z</time>
      </trkpt>
      <trkpt lat="47.55598" lon="-2.30869">
        <ele>48.5</ele>
        <time>2025-01-16T12:10:37Z</time>
      </trkpt>
      <trkpt lat="47.55597" lon="-2.30867">
        <ele>48.2</ele>
        <time>2025-01-16T12:10:38Z</time>
      </trkpt>
      <trkpt lat="47.55597" lon="-2.30865">
        <ele>48.3</ele>
        <time>2025-01-16T12:10:39Z</time>
      </trkpt>
      <trkpt lat="47.55597" lon="-2.30863">
        <ele>48.3</ele>
        <time>2025-01-16T12:10:40Z</time>
      </trkpt>
      <trkpt lat="47.55597" lon="-2.30862">
        <ele>48.4</ele>
        <time>2025-01-16T12:10:41Z</time>
      </trkpt>
      <trkpt lat="47.55597" lon="-2.3086">
        <ele>48.5</ele>
        <time>2025-01-16T12:10:42Z</time>
      </trkpt>
      <trkpt lat="47.55597" lon="-2.30858">
        <ele>48.5</ele>
        <time>2025-01-16T12:10:43Z</time>
      </trkpt>
      <trkpt lat="47.55597" lon="-2.30857">
        <ele>48.6</ele>
        <time>2025-01-16T12:10:44Z</time>
      </trkpt>
      <trkpt lat="47.55597" lon="-2.30855">
        <ele>48.6</ele>
        <time>2025-01-16T12:10:45Z</time>
      </trkpt>
      <trkpt lat="47.55596" lon="-2.30853">
        <ele>48.3</ele>
        <time>2025-01-16T12:10:46Z</time>
      </trkpt>
      <trkpt lat="47.55596" lon="-2.30851">
        <ele>48.4</ele>
        <time>2025-01-16T12:10:47Z</time>
      </trkpt>
      <trkpt lat="47.55595" lon="-2.30849">
        <ele>48.1</ele>
        <time>2025-01-16T12:10:48Z</time>
      </trkpt>
      <trkpt lat="47.55595" lon="-2.30848">
        <ele>48.1</ele>
        <time>2025-01-16T12:10:49Z</time>
      </trkpt>
      <trkpt lat="47.55594" lon="-2.30846">
        <ele>47.8</ele>
        <time>2025-01-16T12:10:50Z</time>
      </trkpt>
      <trkpt lat="47.55594" lon="-2.30844">
        <ele>47.8</ele>
        <time>2025-01-16T12:10:51Z</time>
      </trkpt>
      <trkpt lat="47.55593" lon="-2.30843">
        <ele>47.5</ele>
        <time>2025-01-16T12:10:52Z</time>
      </trkpt>
      <trkpt lat="47.55593" lon="-2.30842">
        <ele>47.5</ele>
        <time>2025-01-16T12:10:53Z</time>
      </trkpt>
      <trkpt lat="47.55593" lon="-2.3084">
        <ele>47.6</ele>
        <time>2025-01-16T12:10:54Z</time>
      </trkpt>
      <trkpt lat="47.55593" lon="-2.30839">
        <ele>47.6</ele>
        <time>2025-01-16T12:10:55Z</time>
      </trkpt>
      <trkpt lat="47.55592" lon="-2.30837">
        <ele>47.3</ele>
        <time>2025-01-16T12:10:56Z</time>
      </trkpt>
      <trkpt lat="47.55592" lon="-2.30835">
        <ele>47.4</ele>
        <time>2025-01-16T12:10:57Z</time>
      </trkpt>
      <trkpt lat="47.55592" lon="-2.30833">
        <ele>47.4</ele>
        <time>2025-01-16T12:10:58Z</time>
      </trkpt>
      <trkpt lat="47.55592" lon="-2.30832">
        <ele>47.4</ele>
        <time>2025-01-16T12:10:59Z</time>
      </trkpt>
      <trkpt lat="47.55592" lon="-2.3083">
        <ele>47.4</ele>
        <time>2025-01-16T12:11:00Z</time>
      </trkpt>
      <trkpt lat="47.55593" lon="-2.30829">
        <ele>47.8</ele>
        <time>2025-01-16T12:11:01Z</time>
      </trkpt>
      <trkpt lat="47.55593" lon="-2.30827">
        <ele>47.8</ele>
        <time>2025-01-16T12:11:02Z</time>
      </trkpt>
      <trkpt lat="47.55594" lon="-2.30826">
        <ele>48.2</ele>
        <time>2025-01-16T12:11:03Z</time>
      </trkpt>
      <trkpt lat="47.55594" lon="-2.30824">
        <ele>48.2</ele>
        <time>2025-01-16T12:11:04Z</time>
      </trkpt>
      <trkpt lat="47.55594" lon="-2.30822">
        <ele>48.2</ele>
        <time>2025-01-16T12:11:05Z</time>
      </trkpt>
      <trkpt lat="47.55593" lon="-2.3082">
        <ele>47.8</ele>
        <time>2025-01-16T12:11:06Z</time>
      </trkpt>
      <trkpt lat="47.55593" lon="-2.30818">
        <ele>47.8</ele>
        <time>2025-01-16T12:11:07Z</time>
      </trkpt>
      <trkpt lat="47.55593" lon="-2.30817">
        <ele>47.8</ele>
        <time>2025-01-16T12:11:08Z</time>
      </trkpt>
      <trkpt lat="47.55593" lon="-2.30815">
        <ele>47.8</ele>
        <time>2025-01-16T12:11:09Z</time>
      </trkpt>
      <trkpt lat="47.55592" lon="-2.30813">
        <ele>47.4</ele>
        <time>2025-01-16T12:11:10Z</time>
      </trkpt>
      <trkpt lat="47.55592" lon="-2.30811">
        <ele>47.4</ele>
        <time>2025-01-16T12:11:11Z</time>
      </trkpt>
      <trkpt lat="47.55591" lon="-2.3081">
        <ele>47</ele>
        <time>2025-01-16T12:11:12Z</time>
      </trkpt>
      <trkpt lat="47.55591" lon="-2.30808">
        <ele>47</ele>
        <time>2025-01-16T12:11:13Z</time>
      </trkpt>
      <trkpt lat="47.5559" lon="-2.30806">
        <ele>46.6</ele>
        <time>2025-01-16T12:11:14Z</time>
      </trkpt>
      <trkpt lat="47.5559" lon="-2.30804">
        <ele>46.7</ele>
        <time>2025-01-16T12:11:15Z</time>
      </trkpt>
      <trkpt lat="47.5559" lon="-2.30802">
        <ele>46.8</ele>
        <time>2025-01-16T12:11:16Z</time>
      </trkpt>
      <trkpt lat="47.5559" lon="-2.30801">
        <ele>46.8</ele>
        <time>2025-01-16T12:11:17Z</time>
      </trkpt>
      <trkpt lat="47.55589" lon="-2.308">
        <ele>46.4</ele>
        <time>2025-01-16T12:11:18Z</time>
      </trkpt>
      <trkpt lat="47.55589" lon="-2.30799">
        <ele>46.5</ele>
        <time>2025-01-16T12:11:19Z</time>
      </trkpt>
      <trkpt lat="47.55589" lon="-2.30797">
        <ele>46.6</ele>
        <time>2025-01-16T12:11:20Z</time>
      </trkpt>
      <trkpt lat="47.55589" lon="-2.30796">
        <ele>46.6</ele>
        <time>2025-01-16T12:11:21Z</time>
      </trkpt>
      <trkpt lat="47.55588" lon="-2.30795">
        <ele>46.2</ele>
        <time>2025-01-16T12:11:22Z</time>
      </trkpt>
      <trkpt lat="47.55588" lon="-2.30794">
        <ele>46.3</ele>
        <time>2025-01-16T12:11:23Z</time>
      </trkpt>
      <trkpt lat="47.55587" lon="-2.30792">
        <ele>45.9</ele>
        <time>2025-01-16T12:11:24Z</time>
      </trkpt>
      <trkpt lat="47.55586" lon="-2.3079">
        <ele>45.6</ele>
        <time>2025-01-16T12:11:25Z</time>
      </trkpt>
      <trkpt lat="47.55585" lon="-2.30789">
        <ele>45.3</ele>
        <time>2025-01-16T12:11:26Z</time>
      </trkpt>
      <trkpt lat="47.55585" lon="-2.30787">
        <ele>45.3</ele>
        <time>2025-01-16T12:11:27Z</time>
      </trkpt>
      <trkpt lat="47.55584" lon="-2.30786">
        <ele>45</ele>
        <time>2025-01-16T12:11:28Z</time>
      </trkpt>
      <trkpt lat="47.55584" lon="-2.30785">
        <ele>45</ele>
        <time>2025-01-16T12:11:29Z</time>
      </trkpt>
      <trkpt lat="47.55583" lon="-2.30783">
        <ele>44.7</ele>
        <time>2025-01-16T12:11:30Z</time>
      </trkpt>
      <trkpt lat="47.55583" lon="-2.30781">
        <ele>44.7</ele>
        <time>2025-01-16T12:11:31Z</time>
      </trkpt>
      <trkpt lat="47.55582" lon="-2.3078">
        <ele>44.3</ele>
        <time>2025-01-16T12:11:32Z</time>
      </trkpt>
      <trkpt lat="47.55581" lon="-2.30778">
        <ele>43.9</ele>
        <time>2025-01-16T12:11:33Z</time>
      </trkpt>
      <trkpt lat="47.55581" lon="-2.30777">
        <ele>44</ele>
        <time>2025-01-16T12:11:34Z</time>
      </trkpt>
      <trkpt lat="47.5558" lon="-2.30775">
        <ele>43.8</ele>
        <time>2025-01-16T12:11:35Z</time>
      </trkpt>
      <trkpt lat="47.5558" lon="-2.30774">
        <ele>44</ele>
        <time>2025-01-16T12:11:36Z</time>
      </trkpt>
      <trkpt lat="47.55579" lon="-2.30772">
        <ele>43.8</ele>
        <time>2025-01-16T12:11:37Z</time>
      </trkpt>
      <trkpt lat="47.55578" lon="-2.3077">
        <ele>43.6</ele>
        <time>2025-01-16T12:11:38Z</time>
      </trkpt>
      <trkpt lat="47.55578" lon="-2.30769">
        <ele>43.8</ele>
        <time>2025-01-16T12:11:39Z</time>
      </trkpt>
      <trkpt lat="47.55577" lon="-2.30768">
        <ele>43.4</ele>
        <time>2025-01-16T12:11:40Z</time>
      </trkpt>
      <trkpt lat="47.55576" lon="-2.30767">
        <ele>43.1</ele>
        <time>2025-01-16T12:11:41Z</time>
      </trkpt>
      <trkpt lat="47.55575" lon="-2.30766">
        <ele>42.8</ele>
        <time>2025-01-16T12:11:42Z</time>
      </trkpt>
      <trkpt lat="47.55574" lon="-2.30765">
        <ele>42.5</ele>
        <time>2025-01-16T12:11:43Z</time>
      </trkpt>
      <trkpt lat="47.55573" lon="-2.30763">
        <ele>42.3</ele>
        <time>2025-01-16T12:11:44Z</time>
      </trkpt>
      <trkpt lat="47.55572" lon="-2.30762">
        <ele>42</ele>
        <time>2025-01-16T12:11:45Z</time>
      </trkpt>
      <trkpt lat="47.55571" lon="-2.3076">
        <ele>41.8</ele>
        <time>2025-01-16T12:11:46Z</time>
      </trkpt>
      <trkpt lat="47.55569" lon="-2.30759">
        <ele>41</ele>
        <time>2025-01-16T12:11:47Z</time>
      </trkpt>
      <trkpt lat="47.55568" lon="-2.30758">
        <ele>40.7</ele>
        <time>2025-01-16T12:11:48Z</time>
      </trkpt>
      <trkpt lat="47.55567" lon="-2.30757">
        <ele>40.3</ele>
        <time>2025-01-16T12:11:49Z</time>
      </trkpt>
      <trkpt lat="47.55566" lon="-2.30755">
        <ele>40.2</ele>
        <time>2025-01-16T12:11:50Z</time>
      </trkpt>
      <trkpt lat="47.55565" lon="-2.30754">
        <ele>39.8</ele>
        <time>2025-01-16T12:11:51Z</time>
      </trkpt>
      <trkpt lat="47.55564" lon="-2.30753">
        <ele>39.5</ele>
        <time>2025-01-16T12:11:52Z</time>
      </trkpt>
      <trkpt lat="47.55563" lon="-2.30751">
        <ele>39.3</ele>
        <time>2025-01-16T12:11:53Z</time>
      </trkpt>
      <trkpt lat="47.55562" lon="-2.3075">
        <ele>39</ele>
        <time>2025-01-16T12:11:54Z</time>
      </trkpt>
      <trkpt lat="47.55561" lon="-2.30749">
        <ele>38.6</ele>
        <time>2025-01-16T12:11:55Z</time>
      </trkpt>
      <trkpt lat="47.5556" lon="-2.30748">
        <ele>38.2</ele>
        <time>2025-01-16T12:11:56Z</time>
      </trkpt>
      <trkpt lat="47.55559" lon="-2.30747">
        <ele>37.9</ele>
        <time>2025-01-16T12:11:57Z</time>
      </trkpt>
      <trkpt lat="47.55559" lon="-2.30746">
        <ele>37.9</ele>
        <time>2025-01-16T12:11:58Z</time>
      </trkpt>
      <trkpt lat="47.55559" lon="-2.30745">
        <ele>38</ele>
        <time>2025-01-16T12:11:59Z</time>
      </trkpt>
      <trkpt lat="47.55558" lon="-2.30743">
        <ele>37.7</ele>
        <time>2025-01-16T12:12:00Z</time>
      </trkpt>
      <trkpt lat="47.55558" lon="-2.30742">
        <ele>37.8</ele>
        <time>2025-01-16T12:12:01Z</time>
      </trkpt>
      <trkpt lat="47.55557" lon="-2.3074">
        <ele>37.4</ele>
        <time>2025-01-16T12:12:02Z</time>
      </trkpt>
      <trkpt lat="47.55556" lon="-2.30738">
        <ele>37.1</ele>
        <time>2025-01-16T12:12:03Z</time>
      </trkpt>
      <trkpt lat="47.55555" lon="-2.30736">
        <ele>36.8</ele>
        <time>2025-01-16T12:12:04Z</time>
      </trkpt>
      <trkpt lat="47.55554" lon="-2.30734">
        <ele>36.5</ele>
        <time>2025-01-16T12:12:05Z</time>
      </trkpt>
      <trkpt lat="47.55553" lon="-2.30732">
        <ele>36.2</ele>
        <time>2025-01-16T12:12:06Z</time>
      </trkpt>
      <trkpt lat="47.55552" lon="-2.3073">
        <ele>36</ele>
        <time>2025-01-16T12:12:07Z</time>
      </trkpt>
      <trkpt lat="47.55552" lon="-2.30729">
        <ele>36.1</ele>
        <time>2025-01-16T12:12:08Z</time>
      </trkpt>
      <trkpt lat="47.55551" lon="-2.30727">
        <ele>35.9</ele>
        <time>2025-01-16T12:12:09Z</time>
      </trkpt>
      <trkpt lat="47.5555" lon="-2.30726">
        <ele>35.6</ele>
        <time>2025-01-16T12:12:10Z</time>
      </trkpt>
      <trkpt lat="47.55549" lon="-2.30725">
        <ele>35.3</ele>
        <time>2025-01-16T12:12:11Z</time>
      </trkpt>
      <trkpt lat="47.55549" lon="-2.30724">
        <ele>35.5</ele>
        <time>2025-01-16T12:12:12Z</time>
      </trkpt>
      <trkpt lat="47.55548" lon="-2.30723">
        <ele>35.2</ele>
        <time>2025-01-16T12:12:13Z</time>
      </trkpt>
      <trkpt lat="47.55547" lon="-2.30721">
        <ele>35</ele>
        <time>2025-01-16T12:12:14Z</time>
      </trkpt>
      <trkpt lat="47.55546" lon="-2.30719">
        <ele>34.9</ele>
        <time>2025-01-16T12:12:15Z</time>
      </trkpt>
      <trkpt lat="47.55545" lon="-2.30718">
        <ele>34.6</ele>
        <time>2025-01-16T12:12:16Z</time>
      </trkpt>
      <trkpt lat="47.55544" lon="-2.30716">
        <ele>34.4</ele>
        <time>2025-01-16T12:12:17Z</time>
      </trkpt>
      <trkpt lat="47.55544" lon="-2.30715">
        <ele>34.5</ele>
        <time>2025-01-16T12:12:18Z</time>
      </trkpt>
      <trkpt lat="47.55543" lon="-2.30713">
        <ele>34.3</ele>
        <time>2025-01-16T12:12:19Z</time>
      </trkpt>
      <trkpt lat="47.55544" lon="-2.30711">
        <ele>34.9</ele>
        <time>2025-01-16T12:12:20Z</time>
      </trkpt>
      <trkpt lat="47.55543" lon="-2.3071">
        <ele>34.6</ele>
        <time>2025-01-16T12:12:21Z</time>
      </trkpt>
      <trkpt lat="47.55543" lon="-2.30708">
        <ele>34.8</ele>
        <time>2025-01-16T12:12:22Z</time>
      </trkpt>
      <trkpt lat="47.55543" lon="-2.30707">
        <ele>34.9</ele>
        <time>2025-01-16T12:12:23Z</time>
      </trkpt>
      <trkpt lat="47.55543" lon="-2.30705">
        <ele>35.1</ele>
        <time>2025-01-16T12:12:24Z</time>
      </trkpt>
      <trkpt lat="47.55542" lon="-2.30704">
        <ele>34.8</ele>
        <time>2025-01-16T12:12:25Z</time>
      </trkpt>
      <trkpt lat="47.55542" lon="-2.30703">
        <ele>34.9</ele>
        <time>2025-01-16T12:12:26Z</time>
      </trkpt>
      <trkpt lat="47.55542" lon="-2.30701">
        <ele>35</ele>
        <time>2025-01-16T12:12:27Z</time>
      </trkpt>
      <trkpt lat="47.55543" lon="-2.307">
        <ele>35.5</ele>
        <time>2025-01-16T12:12:28Z</time>
      </trkpt>
      <trkpt lat="47.55543" lon="-2.30698">
        <ele>35.7</ele>
        <time>2025-01-16T12:12:29Z</time>
      </trkpt>
      <trkpt lat="47.55543" lon="-2.30696">
        <ele>35.9</ele>
        <time>2025-01-16T12:12:30Z</time>
      </trkpt>
      <trkpt lat="47.55543" lon="-2.30695">
        <ele>36</ele>
        <time>2025-01-16T12:12:31Z</time>
      </trkpt>
      <trkpt lat="47.55544" lon="-2.30693">
        <ele>36.5</ele>
        <time>2025-01-16T12:12:32Z</time>
      </trkpt>
      <trkpt lat="47.55543" lon="-2.3069">
        <ele>36.3</ele>
        <time>2025-01-16T12:12:33Z</time>
      </trkpt>
      <trkpt lat="47.55543" lon="-2.30689">
        <ele>36.3</ele>
        <time>2025-01-16T12:12:34Z</time>
      </trkpt>
      <trkpt lat="47.55542" lon="-2.30686">
        <ele>36.1</ele>
        <time>2025-01-16T12:12:35Z</time>
      </trkpt>
      <trkpt lat="47.55542" lon="-2.30684">
        <ele>36.2</ele>
        <time>2025-01-16T12:12:36Z</time>
      </trkpt>
      <trkpt lat="47.55542" lon="-2.30682">
        <ele>36.3</ele>
        <time>2025-01-16T12:12:37Z</time>
      </trkpt>
      <trkpt lat="47.55541" lon="-2.3068">
        <ele>36</ele>
        <time>2025-01-16T12:12:38Z</time>
      </trkpt>
      <trkpt lat="47.55541" lon="-2.30678">
        <ele>36.1</ele>
        <time>2025-01-16T12:12:39Z</time>
      </trkpt>
      <trkpt lat="47.55541" lon="-2.30676">
        <ele>36.2</ele>
        <time>2025-01-16T12:12:40Z</time>
      </trkpt>
      <trkpt lat="47.55541" lon="-2.30674">
        <ele>36.3</ele>
        <time>2025-01-16T12:12:41Z</time>
      </trkpt>
      <trkpt lat="47.55541" lon="-2.30673">
        <ele>36.4</ele>
        <time>2025-01-16T12:12:42Z</time>
      </trkpt>
      <trkpt lat="47.5554" lon="-2.30671">
        <ele>36.1</ele>
        <time>2025-01-16T12:12:43Z</time>
      </trkpt>
      <trkpt lat="47.5554" lon="-2.3067">
        <ele>36.1</ele>
        <time>2025-01-16T12:12:44Z</time>
      </trkpt>
      <trkpt lat="47.5554" lon="-2.30669">
        <ele>36.2</ele>
        <time>2025-01-16T12:12:45Z</time>
      </trkpt>
      <trkpt lat="47.5554" lon="-2.30667">
        <ele>36.3</ele>
        <time>2025-01-16T12:12:46Z</time>
      </trkpt>
      <trkpt lat="47.5554" lon="-2.30666">
        <ele>36.3</ele>
        <time>2025-01-16T12:12:47Z</time>
      </trkpt>
      <trkpt lat="47.5554" lon="-2.30664">
        <ele>36.3</ele>
        <time>2025-01-16T12:12:48Z</time>
      </trkpt>
      <trkpt lat="47.5554" lon="-2.30662">
        <ele>36.4</ele>
        <time>2025-01-16T12:12:49Z</time>
      </trkpt>
      <trkpt lat="47.55539" lon="-2.3066">
        <ele>35.9</ele>
        <time>2025-01-16T12:12:50Z</time>
      </trkpt>
      <trkpt lat="47.55539" lon="-2.30659">
        <ele>36</ele>
        <time>2025-01-16T12:12:51Z</time>
      </trkpt>
      <trkpt lat="47.55539" lon="-2.30657">
        <ele>36</ele>
        <time>2025-01-16T12:12:52Z</time>
      </trkpt>
      <trkpt lat="47.55538" lon="-2.30655">
        <ele>35.6</ele>
        <time>2025-01-16T12:12:53Z</time>
      </trkpt>
      <trkpt lat="47.55537" lon="-2.30653">
        <ele>35.1</ele>
        <time>2025-01-16T12:12:54Z</time>
      </trkpt>
      <trkpt lat="47.55536" lon="-2.30652">
        <ele>34.7</ele>
        <time>2025-01-16T12:12:55Z</time>
      </trkpt>
      <trkpt lat="47.55536" lon="-2.30652">
        <ele>34.7</ele>
        <time>2025-01-16T12:12:56Z</time>
      </trkpt>
      <trkpt lat="47.55535" lon="-2.30651">
        <ele>34.3</ele>
        <time>2025-01-16T12:12:57Z</time>
      </trkpt>
      <trkpt lat="47.55534" lon="-2.3065">
        <ele>33.8</ele>
        <time>2025-01-16T12:12:58Z</time>
      </trkpt>
      <trkpt lat="47.55533" lon="-2.30648">
        <ele>33.4</ele>
        <time>2025-01-16T12:12:59Z</time>
      </trkpt>
      <trkpt lat="47.55532" lon="-2.30647">
        <ele>32.9</ele>
        <time>2025-01-16T12:13:00Z</time>
      </trkpt>
      <trkpt lat="47.55532" lon="-2.30646">
        <ele>32.9</ele>
        <time>2025-01-16T12:13:01Z</time>
      </trkpt>
      <trkpt lat="47.55531" lon="-2.30644">
        <ele>32.5</ele>
        <time>2025-01-16T12:13:02Z</time>
      </trkpt>
      <trkpt lat="47.5553" lon="-2.30643">
        <ele>32</ele>
        <time>2025-01-16T12:13:03Z</time>
      </trkpt>
      <trkpt lat="47.55529" lon="-2.30642">
        <ele>31.6</ele>
        <time>2025-01-16T12:13:04Z</time>
      </trkpt>
      <trkpt lat="47.55528" lon="-2.3064">
        <ele>31.1</ele>
        <time>2025-01-16T12:13:05Z</time>
      </trkpt>
      <trkpt lat="47.55527" lon="-2.30639">
        <ele>30.8</ele>
        <time>2025-01-16T12:13:06Z</time>
      </trkpt>
      <trkpt lat="47.55526" lon="-2.30638">
        <ele>30.5</ele>
        <time>2025-01-16T12:13:07Z</time>
      </trkpt>
      <trkpt lat="47.55525" lon="-2.30637">
        <ele>30.3</ele>
        <time>2025-01-16T12:13:08Z</time>
      </trkpt>
      <trkpt lat="47.55525" lon="-2.30636">
        <ele>30.3</ele>
        <time>2025-01-16T12:13:09Z</time>
      </trkpt>
      <trkpt lat="47.55525" lon="-2.30635">
        <ele>30.3</ele>
        <time>2025-01-16T12:13:10Z</time>
      </trkpt>
      <trkpt lat="47.55524" lon="-2.30634">
        <ele>30.1</ele>
        <time>2025-01-16T12:13:11Z</time>
      </trkpt>
      <trkpt lat="47.55524" lon="-2.30633">
        <ele>30.1</ele>
        <time>2025-01-16T12:13:12Z</time>
      </trkpt>
      <trkpt lat="47.55523" lon="-2.30631">
        <ele>29.9</ele>
        <time>2025-01-16T12:13:13Z</time>
      </trkpt>
      <trkpt lat="47.55522" lon="-2.3063">
        <ele>29.6</ele>
        <time>2025-01-16T12:13:14Z</time>
      </trkpt>
      <trkpt lat="47.55522" lon="-2.30629">
        <ele>29.6</ele>
        <time>2025-01-16T12:13:15Z</time>
      </trkpt>
      <trkpt lat="47.55521" lon="-2.30627">
        <ele>29.4</ele>
        <time>2025-01-16T12:13:16Z</time>
      </trkpt>
      <trkpt lat="47.5552" lon="-2.30626">
        <ele>29.1</ele>
        <time>2025-01-16T12:13:17Z</time>
      </trkpt>
      <trkpt lat="47.5552" lon="-2.30624">
        <ele>29.1</ele>
        <time>2025-01-16T12:13:18Z</time>
      </trkpt>
      <trkpt lat="47.55518" lon="-2.30623">
        <ele>28.6</ele>
        <time>2025-01-16T12:13:19Z</time>
      </trkpt>
      <trkpt lat="47.55518" lon="-2.30621">
        <ele>28.6</ele>
        <time>2025-01-16T12:13:20Z</time>
      </trkpt>
      <trkpt lat="47.55517" lon="-2.3062">
        <ele>28.3</ele>
        <time>2025-01-16T12:13:21Z</time>
      </trkpt>
      <trkpt lat="47.55517" lon="-2.30619">
        <ele>28.3</ele>
        <time>2025-01-16T12:13:22Z</time>
      </trkpt>
      <trkpt lat="47.55516" lon="-2.30617">
        <ele>28.1</ele>
        <time>2025-01-16T12:13:23Z</time>
      </trkpt>
      <trkpt lat="47.55516" lon="-2.30615">
        <ele>28.1</ele>
        <time>2025-01-16T12:13:24Z</time>
      </trkpt>
      <trkpt lat="47.55515" lon="-2.30613">
        <ele>27.8</ele>
        <time>2025-01-16T12:13:25Z</time>
      </trkpt>
      <trkpt lat="47.55515" lon="-2.30612">
        <ele>27.8</ele>
        <time>2025-01-16T12:13:26Z</time>
      </trkpt>
      <trkpt lat="47.55514" lon="-2.30611">
        <ele>27.5</ele>
        <time>2025-01-16T12:13:27Z</time>
      </trkpt>
      <trkpt lat="47.55514" lon="-2.3061">
        <ele>27.5</ele>
        <time>2025-01-16T12:13:28Z</time>
      </trkpt>
      <trkpt lat="47.55514" lon="-2.30608">
        <ele>27.5</ele>
        <time>2025-01-16T12:13:29Z</time>
      </trkpt>
      <trkpt lat="47.55514" lon="-2.30607">
        <ele>27.5</ele>
        <time>2025-01-16T12:13:30Z</time>
      </trkpt>
      <trkpt lat="47.55513" lon="-2.30606">
        <ele>27.1</ele>
        <time>2025-01-16T12:13:31Z</time>
      </trkpt>
      <trkpt lat="47.55513" lon="-2.30604">
        <ele>27.1</ele>
        <time>2025-01-16T12:13:32Z</time>
      </trkpt>
      <trkpt lat="47.55513" lon="-2.30603">
        <ele>27.1</ele>
        <time>2025-01-16T12:13:33Z</time>
      </trkpt>
      <trkpt lat="47.55513" lon="-2.30602">
        <ele>27</ele>
        <time>2025-01-16T12:13:34Z</time>
      </trkpt>
      <trkpt lat="47.55513" lon="-2.30601">
        <ele>27</ele>
        <time>2025-01-16T12:13:35Z</time>
      </trkpt>
      <trkpt lat="47.55513" lon="-2.306">
        <ele>27</ele>
        <time>2025-01-16T12:13:36Z</time>
      </trkpt>
      <trkpt lat="47.55513" lon="-2.30598">
        <ele>27</ele>
        <time>2025-01-16T12:13:37Z</time>
      </trkpt>
      <trkpt lat="47.55513" lon="-2.30597">
        <ele>26.9</ele>
        <time>2025-01-16T12:13:38Z</time>
      </trkpt>
      <trkpt lat="47.55513" lon="-2.30596">
        <ele>26.9</ele>
        <time>2025-01-16T12:13:39Z</time>
      </trkpt>
      <trkpt lat="47.55512" lon="-2.30595">
        <ele>26.6</ele>
        <time>2025-01-16T12:13:40Z</time>
      </trkpt>
      <trkpt lat="47.5551" lon="-2.30594">
        <ele>25.8</ele>
        <time>2025-01-16T12:13:41Z</time>
      </trkpt>
      <trkpt lat="47.55509" lon="-2.30593">
        <ele>25.5</ele>
        <time>2025-01-16T12:13:42Z</time>
      </trkpt>
      <trkpt lat="47.55508" lon="-2.30592">
        <ele>25.1</ele>
        <time>2025-01-16T12:13:43Z</time>
      </trkpt>
      <trkpt lat="47.55508" lon="-2.30592">
        <ele>25.1</ele>
        <time>2025-01-16T12:13:44Z</time>
      </trkpt>
      <trkpt lat="47.55508" lon="-2.30592">
        <ele>25.1</ele>
        <time>2025-01-16T12:13:45Z</time>
      </trkpt>
      <trkpt lat="47.55507" lon="-2.30591">
        <ele>24.7</ele>
        <time>2025-01-16T12:13:46Z</time>
      </trkpt>
      <trkpt lat="47.55507" lon="-2.30591">
        <ele>24.7</ele>
        <time>2025-01-16T12:13:47Z</time>
      </trkpt>
      <trkpt lat="47.55506" lon="-2.3059">
        <ele>24.3</ele>
        <time>2025-01-16T12:13:48Z</time>
      </trkpt>
      <trkpt lat="47.55505" lon="-2.30589">
        <ele>24</ele>
        <time>2025-01-16T12:13:49Z</time>
      </trkpt>
      <trkpt lat="47.55504" lon="-2.30587">
        <ele>23.6</ele>
        <time>2025-01-16T12:13:50Z</time>
      </trkpt>
      <trkpt lat="47.55502" lon="-2.30586">
        <ele>22.8</ele>
        <time>2025-01-16T12:13:51Z</time>
      </trkpt>
      <trkpt lat="47.55501" lon="-2.30584">
        <ele>22.4</ele>
        <time>2025-01-16T12:13:52Z</time>
      </trkpt>
      <trkpt lat="47.555" lon="-2.30582">
        <ele>22</ele>
        <time>2025-01-16T12:13:53Z</time>
      </trkpt>
      <trkpt lat="47.55498" lon="-2.3058">
        <ele>21.4</ele>
        <time>2025-01-16T12:13:54Z</time>
      </trkpt>
      <trkpt lat="47.55497" lon="-2.30579">
        <ele>21.1</ele>
        <time>2025-01-16T12:13:55Z</time>
      </trkpt>
      <trkpt lat="47.55496" lon="-2.30577">
        <ele>20.8</ele>
        <time>2025-01-16T12:13:56Z</time>
      </trkpt>
      <trkpt lat="47.55495" lon="-2.30575">
        <ele>20.6</ele>
        <time>2025-01-16T12:13:57Z</time>
      </trkpt>
      <trkpt lat="47.55494" lon="-2.30573">
        <ele>20.3</ele>
        <time>2025-01-16T12:13:58Z</time>
      </trkpt>
      <trkpt lat="47.55493" lon="-2.30571">
        <ele>20</ele>
        <time>2025-01-16T12:13:59Z</time>
      </trkpt>
      <trkpt lat="47.55492" lon="-2.30569">
        <ele>19.7</ele>
        <time>2025-01-16T12:14:00Z</time>
      </trkpt>
      <trkpt lat="47.55491" lon="-2.30568">
        <ele>19.4</ele>
        <time>2025-01-16T12:14:01Z</time>
      </trkpt>
      <trkpt lat="47.5549" lon="-2.30566">
        <ele>19.1</ele>
        <time>2025-01-16T12:14:02Z</time>
      </trkpt>
      <trkpt lat="47.55489" lon="-2.30565">
        <ele>18.8</ele>
        <time>2025-01-16T12:14:03Z</time>
      </trkpt>
      <trkpt lat="47.55488" lon="-2.30563">
        <ele>18.5</ele>
        <time>2025-01-16T12:14:04Z</time>
      </trkpt>
      <trkpt lat="47.55487" lon="-2.30562">
        <ele>18.3</ele>
        <time>2025-01-16T12:14:05Z</time>
      </trkpt>
      <trkpt lat="47.55486" lon="-2.3056">
        <ele>18</ele>
        <time>2025-01-16T12:14:06Z</time>
      </trkpt>
      <trkpt lat="47.55486" lon="-2.30558">
        <ele>18</ele>
        <time>2025-01-16T12:14:07Z</time>
      </trkpt>
      <trkpt lat="47.55485" lon="-2.30556">
        <ele>17.7</ele>
        <time>2025-01-16T12:14:08Z</time>
      </trkpt>
      <trkpt lat="47.55484" lon="-2.30554">
        <ele>17.4</ele>
        <time>2025-01-16T12:14:09Z</time>
      </trkpt>
      <trkpt lat="47.55484" lon="-2.30553">
        <ele>17.4</ele>
        <time>2025-01-16T12:14:10Z</time>
      </trkpt>
      <trkpt lat="47.55484" lon="-2.30551">
        <ele>17.4</ele>
        <time>2025-01-16T12:14:11Z</time>
      </trkpt>
      <trkpt lat="47.55484" lon="-2.30549">
        <ele>17.4</ele>
        <time>2025-01-16T12:14:12Z</time>
      </trkpt>
      <trkpt lat="47.55484" lon="-2.30547">
        <ele>17.4</ele>
        <time>2025-01-16T12:14:13Z</time>
      </trkpt>
      <trkpt lat="47.55484" lon="-2.30546">
        <ele>17.4</ele>
        <time>2025-01-16T12:14:14Z</time>
      </trkpt>
      <trkpt lat="47.55484" lon="-2.30544">
        <ele>17.4</ele>
        <time>2025-01-16T12:14:15Z</time>
      </trkpt>
      <trkpt lat="47.55483" lon="-2.30543">
        <ele>17.1</ele>
        <time>2025-01-16T12:14:16Z</time>
      </trkpt>
      <trkpt lat="47.55482" lon="-2.30541">
        <ele>16.8</ele>
        <time>2025-01-16T12:14:17Z</time>
      </trkpt>
      <trkpt lat="47.55482" lon="-2.30539">
        <ele>16.8</ele>
        <time>2025-01-16T12:14:18Z</time>
      </trkpt>
      <trkpt lat="47.55481" lon="-2.30537">
        <ele>16.5</ele>
        <time>2025-01-16T12:14:19Z</time>
      </trkpt>
      <trkpt lat="47.5548" lon="-2.30535">
        <ele>16.2</ele>
        <time>2025-01-16T12:14:20Z</time>
      </trkpt>
      <trkpt lat="47.5548" lon="-2.30533">
        <ele>16.2</ele>
        <time>2025-01-16T12:14:21Z</time>
      </trkpt>
      <trkpt lat="47.5548" lon="-2.3053">
        <ele>16.2</ele>
        <time>2025-01-16T12:14:22Z</time>
      </trkpt>
      <trkpt lat="47.5548" lon="-2.30528">
        <ele>16.2</ele>
        <time>2025-01-16T12:14:23Z</time>
      </trkpt>
      <trkpt lat="47.5548" lon="-2.30526">
        <ele>16.2</ele>
        <time>2025-01-16T12:14:24Z</time>
      </trkpt>
      <trkpt lat="47.55481" lon="-2.30524">
        <ele>16.5</ele>
        <time>2025-01-16T12:14:25Z</time>
      </trkpt>
      <trkpt lat="47.55481" lon="-2.30522">
        <ele>16.5</ele>
        <time>2025-01-16T12:14:26Z</time>
      </trkpt>
      <trkpt lat="47.55481" lon="-2.3052">
        <ele>16.4</ele>
        <time>2025-01-16T12:14:27Z</time>
      </trkpt>
      <trkpt lat="47.55481" lon="-2.30518">
        <ele>16.4</ele>
        <time>2025-01-16T12:14:28Z</time>
      </trkpt>
      <trkpt lat="47.55481" lon="-2.30517">
        <ele>16.4</ele>
        <time>2025-01-16T12:14:29Z</time>
      </trkpt>
      <trkpt lat="47.55481" lon="-2.30515">
        <ele>16.4</ele>
        <time>2025-01-16T12:14:30Z</time>
      </trkpt>
      <trkpt lat="47.55481" lon="-2.30513">
        <ele>16.3</ele>
        <time>2025-01-16T12:14:31Z</time>
      </trkpt>
      <trkpt lat="47.55481" lon="-2.30512">
        <ele>16.3</ele>
        <time>2025-01-16T12:14:32Z</time>
      </trkpt>
      <trkpt lat="47.55481" lon="-2.30512">
        <ele>16.3</ele>
        <time>2025-01-16T12:14:33Z</time>
      </trkpt>
      <trkpt lat="47.55481" lon="-2.30511">
        <ele>16.3</ele>
        <time>2025-01-16T12:14:34Z</time>
      </trkpt>
      <trkpt lat="47.55481" lon="-2.30509">
        <ele>16.3</ele>
        <time>2025-01-16T12:14:35Z</time>
      </trkpt>
      <trkpt lat="47.55481" lon="-2.30507">
        <ele>16.3</ele>
        <time>2025-01-16T12:14:36Z</time>
      </trkpt>
      <trkpt lat="47.55481" lon="-2.30506">
        <ele>16.2</ele>
        <time>2025-01-16T12:14:37Z</time>
      </trkpt>
      <trkpt lat="47.55481" lon="-2.30504">
        <ele>16.2</ele>
        <time>2025-01-16T12:14:38Z</time>
      </trkpt>
      <trkpt lat="47.5548" lon="-2.30503">
        <ele>15.8</ele>
        <time>2025-01-16T12:14:39Z</time>
      </trkpt>
      <trkpt lat="47.5548" lon="-2.30501">
        <ele>15.8</ele>
        <time>2025-01-16T12:14:40Z</time>
      </trkpt>
      <trkpt lat="47.5548" lon="-2.30499">
        <ele>15.7</ele>
        <time>2025-01-16T12:14:41Z</time>
      </trkpt>
      <trkpt lat="47.55479" lon="-2.30497">
        <ele>15.3</ele>
        <time>2025-01-16T12:14:42Z</time>
      </trkpt>
      <trkpt lat="47.55479" lon="-2.30496">
        <ele>15.2</ele>
        <time>2025-01-16T12:14:43Z</time>
      </trkpt>
      <trkpt lat="47.55479" lon="-2.30495">
        <ele>15.2</ele>
        <time>2025-01-16T12:14:44Z</time>
      </trkpt>
      <trkpt lat="47.55479" lon="-2.30494">
        <ele>15.1</ele>
        <time>2025-01-16T12:14:45Z</time>
      </trkpt>
      <trkpt lat="47.55479" lon="-2.30492">
        <ele>15</ele>
        <time>2025-01-16T12:14:46Z</time>
      </trkpt>
      <trkpt lat="47.55479" lon="-2.3049">
        <ele>14.9</ele>
        <time>2025-01-16T12:14:47Z</time>
      </trkpt>
      <trkpt lat="47.55479" lon="-2.30488">
        <ele>14.8</ele>
        <time>2025-01-16T12:14:48Z</time>
      </trkpt>
      <trkpt lat="47.5548" lon="-2.30486">
        <ele>15.1</ele>
        <time>2025-01-16T12:14:49Z</time>
      </trkpt>
      <trkpt lat="47.55479" lon="-2.30485">
        <ele>14.6</ele>
        <time>2025-01-16T12:14:50Z</time>
      </trkpt>
      <trkpt lat="47.55479" lon="-2.30483">
        <ele>14.5</ele>
        <time>2025-01-16T12:14:51Z</time>
      </trkpt>
      <trkpt lat="47.55479" lon="-2.30482">
        <ele>14.5</ele>
        <time>2025-01-16T12:14:52Z</time>
      </trkpt>
      <trkpt lat="47.55479" lon="-2.3048">
        <ele>14.4</ele>
        <time>2025-01-16T12:14:53Z</time>
      </trkpt>
      <trkpt lat="47.55479" lon="-2.30478">
        <ele>14.2</ele>
        <time>2025-01-16T12:14:54Z</time>
      </trkpt>
      <trkpt lat="47.55479" lon="-2.30476">
        <ele>14.1</ele>
        <time>2025-01-16T12:14:55Z</time>
      </trkpt>
      <trkpt lat="47.55479" lon="-2.30475">
        <ele>14.1</ele>
        <time>2025-01-16T12:14:56Z</time>
      </trkpt>
      <trkpt lat="47.55479" lon="-2.30473">
        <ele>14</ele>
        <time>2025-01-16T12:14:57Z</time>
      </trkpt>
      <trkpt lat="47.55479" lon="-2.30472">
        <ele>13.9</ele>
        <time>2025-01-16T12:14:58Z</time>
      </trkpt>
      <trkpt lat="47.55479" lon="-2.30471">
        <ele>13.9</ele>
        <time>2025-01-16T12:14:59Z</time>
      </trkpt>
      <trkpt lat="47.55478" lon="-2.30469">
        <ele>13.4</ele>
        <time>2025-01-16T12:15:00Z</time>
      </trkpt>
      <trkpt lat="47.55477" lon="-2.30467">
        <ele>12.9</ele>
        <time>2025-01-16T12:15:01Z</time>
      </trkpt>
      <trkpt lat="47.55477" lon="-2.30466">
        <ele>12.9</ele>
        <time>2025-01-16T12:15:02Z</time>
      </trkpt>
      <trkpt lat="47.55476" lon="-2.30464">
        <ele>12.4</ele>
        <time>2025-01-16T12:15:03Z</time>
      </trkpt>
      <trkpt lat="47.55475" lon="-2.30463">
        <ele>11.9</ele>
        <time>2025-01-16T12:15:04Z</time>
      </trkpt>
      <trkpt lat="47.55475" lon="-2.30461">
        <ele>11.8</ele>
        <time>2025-01-16T12:15:05Z</time>
      </trkpt>
      <trkpt lat="47.55475" lon="-2.3046">
        <ele>11.8</ele>
        <time>2025-01-16T12:15:06Z</time>
      </trkpt>
      <trkpt lat="47.55475" lon="-2.30459">
        <ele>11.8</ele>
        <time>2025-01-16T12:15:07Z</time>
      </trkpt>
      <trkpt lat="47.55474" lon="-2.30457">
        <ele>11.3</ele>
        <time>2025-01-16T12:15:08Z</time>
      </trkpt>
      <trkpt lat="47.55475" lon="-2.30457">
        <ele>11.7</ele>
        <time>2025-01-16T12:15:09Z</time>
      </trkpt>
      <trkpt lat="47.55475" lon="-2.30456">
        <ele>11.7</ele>
        <time>2025-01-16T12:15:10Z</time>
      </trkpt>
      <trkpt lat="47.55474" lon="-2.30454">
        <ele>11.2</ele>
        <time>2025-01-16T12:15:11Z</time>
      </trkpt>
      <trkpt lat="47.55474" lon="-2.30453">
        <ele>11.1</ele>
        <time>2025-01-16T12:15:12Z</time>
      </trkpt>
      <trkpt lat="47.55473" lon="-2.30451">
        <ele>10.6</ele>
        <time>2025-01-16T12:15:13Z</time>
      </trkpt>
      <trkpt lat="47.55473" lon="-2.3045">
        <ele>10.6</ele>
        <time>2025-01-16T12:15:14Z</time>
      </trkpt>
      <trkpt lat="47.55473" lon="-2.30448">
        <ele>10.5</ele>
        <time>2025-01-16T12:15:15Z</time>
      </trkpt>
      <trkpt lat="47.55473" lon="-2.30447">
        <ele>10.5</ele>
        <time>2025-01-16T12:15:16Z</time>
      </trkpt>
      <trkpt lat="47.55473" lon="-2.30446">
        <ele>10.4</ele>
        <time>2025-01-16T12:15:17Z</time>
      </trkpt>
      <trkpt lat="47.55473" lon="-2.30444">
        <ele>10.3</ele>
        <time>2025-01-16T12:15:18Z</time>
      </trkpt>
      <trkpt lat="47.55474" lon="-2.30442">
        <ele>10.7</ele>
        <time>2025-01-16T12:15:19Z</time>
      </trkpt>
      <trkpt lat="47.55473" lon="-2.30441">
        <ele>10.1</ele>
        <time>2025-01-16T12:15:20Z</time>
      </trkpt>
      <trkpt lat="47.55473" lon="-2.30439">
        <ele>10</ele>
        <time>2025-01-16T12:15:21Z</time>
      </trkpt>
      <trkpt lat="47.55472" lon="-2.30437">
        <ele>9.4</ele>
        <time>2025-01-16T12:15:22Z</time>
      </trkpt>
      <trkpt lat="47.55471" lon="-2.30436">
        <ele>9.1</ele>
        <time>2025-01-16T12:15:23Z</time>
      </trkpt>
      <trkpt lat="47.5547" lon="-2.30434">
        <ele>8.7</ele>
        <time>2025-01-16T12:15:24Z</time>
      </trkpt>
      <trkpt lat="47.5547" lon="-2.30433">
        <ele>8.7</ele>
        <time>2025-01-16T12:15:25Z</time>
      </trkpt>
      <trkpt lat="47.55469" lon="-2.30432">
        <ele>8.4</ele>
        <time>2025-01-16T12:15:26Z</time>
      </trkpt>
      <trkpt lat="47.55469" lon="-2.3043">
        <ele>8.3</ele>
        <time>2025-01-16T12:15:27Z</time>
      </trkpt>
      <trkpt lat="47.55468" lon="-2.3043">
        <ele>8.1</ele>
        <time>2025-01-16T12:15:28Z</time>
      </trkpt>
      <trkpt lat="47.55467" lon="-2.3043">
        <ele>7.8</ele>
        <time>2025-01-16T12:15:29Z</time>
      </trkpt>
      <trkpt lat="47.55466" lon="-2.3043">
        <ele>7.6</ele>
        <time>2025-01-16T12:15:30Z</time>
      </trkpt>
      <trkpt lat="47.55465" lon="-2.3043">
        <ele>7.4</ele>
        <time>2025-01-16T12:15:31Z</time>
      </trkpt>
      <trkpt lat="47.55464" lon="-2.30431">
        <ele>7.2</ele>
        <time>2025-01-16T12:15:32Z</time>
      </trkpt>
      <trkpt lat="47.55463" lon="-2.30431">
        <ele>7</ele>
        <time>2025-01-16T12:15:33Z</time>
      </trkpt>
      <trkpt lat="47.55463" lon="-2.30432">
        <ele>7.1</ele>
        <time>2025-01-16T12:15:34Z</time>
      </trkpt>
      <trkpt lat="47.55462" lon="-2.30434">
        <ele>6.9</ele>
        <time>2025-01-16T12:15:35Z</time>
      </trkpt>
      <trkpt lat="47.55462" lon="-2.30435">
        <ele>7</ele>
        <time>2025-01-16T12:15:36Z</time>
      </trkpt>
      <trkpt lat="47.55462" lon="-2.30436">
        <ele>7</ele>
        <time>2025-01-16T12:15:37Z</time>
      </trkpt>
      <trkpt lat="47.55461" lon="-2.30438">
        <ele>6.9</ele>
        <time>2025-01-16T12:15:38Z</time>
      </trkpt>
      <trkpt lat="47.55461" lon="-2.30439">
        <ele>6.9</ele>
        <time>2025-01-16T12:15:39Z</time>
      </trkpt>
      <trkpt lat="47.5546" lon="-2.30441">
        <ele>6.8</ele>
        <time>2025-01-16T12:15:40Z</time>
      </trkpt>
      <trkpt lat="47.5546" lon="-2.30443">
        <ele>6.9</ele>
        <time>2025-01-16T12:15:41Z</time>
      </trkpt>
      <trkpt lat="47.55459" lon="-2.30445">
        <ele>6.7</ele>
        <time>2025-01-16T12:15:42Z</time>
      </trkpt>
      <trkpt lat="47.55459" lon="-2.30447">
        <ele>6.8</ele>
        <time>2025-01-16T12:15:43Z</time>
      </trkpt>
      <trkpt lat="47.55458" lon="-2.30448">
        <ele>6.5</ele>
        <time>2025-01-16T12:15:44Z</time>
      </trkpt>
      <trkpt lat="47.55457" lon="-2.3045">
        <ele>6.4</ele>
        <time>2025-01-16T12:15:45Z</time>
      </trkpt>
      <trkpt lat="47.55457" lon="-2.30452">
        <ele>6.4</ele>
        <time>2025-01-16T12:15:46Z</time>
      </trkpt>
      <trkpt lat="47.55456" lon="-2.30454">
        <ele>6.3</ele>
        <time>2025-01-16T12:15:47Z</time>
      </trkpt>
      <trkpt lat="47.55455" lon="-2.30456">
        <ele>6.1</ele>
        <time>2025-01-16T12:15:48Z</time>
      </trkpt>
      <trkpt lat="47.55455" lon="-2.30457">
        <ele>6.1</ele>
        <time>2025-01-16T12:15:49Z</time>
      </trkpt>
      <trkpt lat="47.55455" lon="-2.30459">
        <ele>6.2</ele>
        <time>2025-01-16T12:15:50Z</time>
      </trkpt>
      <trkpt lat="47.55455" lon="-2.3046">
        <ele>6.2</ele>
        <time>2025-01-16T12:15:51Z</time>
      </trkpt>
      <trkpt lat="47.55455" lon="-2.30461">
        <ele>6.3</ele>
        <time>2025-01-16T12:15:52Z</time>
      </trkpt>
      <trkpt lat="47.55454" lon="-2.30461">
        <ele>6</ele>
        <time>2025-01-16T12:15:53Z</time>
      </trkpt>
      <trkpt lat="47.55454" lon="-2.30463">
        <ele>6.1</ele>
        <time>2025-01-16T12:15:54Z</time>
      </trkpt>
      <trkpt lat="47.55453" lon="-2.30463">
        <ele>5.8</ele>
        <time>2025-01-16T12:15:55Z</time>
      </trkpt>
      <trkpt lat="47.55453" lon="-2.30462">
        <ele>5.8</ele>
        <time>2025-01-16T12:15:56Z</time>
      </trkpt>
      <trkpt lat="47.55453" lon="-2.30462">
        <ele>5.8</ele>
        <time>2025-01-16T12:15:57Z</time>
      </trkpt>
      <trkpt lat="47.55453" lon="-2.30462">
        <ele>5.8</ele>
        <time>2025-01-16T12:15:58Z</time>
      </trkpt>
      <trkpt lat="47.55453" lon="-2.30462">
        <ele>5.8</ele>
        <time>2025-01-16T12:15:59Z</time>
      </trkpt>
      <trkpt lat="47.55453" lon="-2.30462">
        <ele>5.8</ele>
        <time>2025-01-16T12:16:00Z</time>
      </trkpt>
      <trkpt lat="47.55453" lon="-2.30462">
        <ele>5.8</ele>
        <time>2025-01-16T12:16:01Z</time>
      </trkpt>
      <trkpt lat="47.55453" lon="-2.30462">
        <ele>5.8</ele>
        <time>2025-01-16T12:16:02Z</time>
      </trkpt>
      <trkpt lat="47.55454" lon="-2.30462">
        <ele>6</ele>
        <time>2025-01-16T12:16:03Z</time>
      </trkpt>
      <trkpt lat="47.55454" lon="-2.30462">
        <ele>6</ele>
        <time>2025-01-16T12:16:04Z</time>
      </trkpt>
      <trkpt lat="47.55454" lon="-2.30462">
        <ele>6</ele>
        <time>2025-01-16T12:16:05Z</time>
      </trkpt>
      <trkpt lat="47.55454" lon="-2.30462">
        <ele>6</ele>
        <time>2025-01-16T12:16:06Z</time>
      </trkpt>
      <trkpt lat="47.55453" lon="-2.30462">
        <ele>5.8</ele>
        <time>2025-01-16T12:16:07Z</time>
      </trkpt>
      <trkpt lat="47.55453" lon="-2.30462">
        <ele>5.8</ele>
        <time>2025-01-16T12:16:08Z</time>
      </trkpt>
      <trkpt lat="47.55453" lon="-2.30462">
        <ele>5.8</ele>
        <time>2025-01-16T12:16:09Z</time>
      </trkpt>
      <trkpt lat="47.55453" lon="-2.30462">
        <ele>5.8</ele>
        <time>2025-01-16T12:16:10Z</time>
      </trkpt>
      <trkpt lat="47.55453" lon="-2.30462">
        <ele>5.8</ele>
        <time>2025-01-16T12:16:11Z</time>
      </trkpt>
      <trkpt lat="47.55453" lon="-2.30462">
        <ele>5.8</ele>
        <time>2025-01-16T12:16:12Z</time>
      </trkpt>
      <trkpt lat="47.55453" lon="-2.30462">
        <ele>5.8</ele>
        <time>2025-01-16T12:16:13Z</time>
      </trkpt>
      <trkpt lat="47.55452" lon="-2.30463">
        <ele>5.6</ele>
        <time>2025-01-16T12:16:14Z</time>
      </trkpt>
      <trkpt lat="47.55452" lon="-2.30463">
        <ele>5.6</ele>
        <time>2025-01-16T12:16:15Z</time>
      </trkpt>
      <trkpt lat="47.55452" lon="-2.30463">
        <ele>5.6</ele>
        <time>2025-01-16T12:16:16Z</time>
      </trkpt>
      <trkpt lat="47.55452" lon="-2.30463">
        <ele>5.6</ele>
        <time>2025-01-16T12:16:17Z</time>
      </trkpt>
      <trkpt lat="47.55452" lon="-2.30462">
        <ele>5.5</ele>
        <time>2025-01-16T12:16:18Z</time>
      </trkpt>
      <trkpt lat="47.55452" lon="-2.30462">
        <ele>5.5</ele>
        <time>2025-01-16T12:16:19Z</time>
      </trkpt>
      <trkpt lat="47.55452" lon="-2.30462">
        <ele>5.5</ele>
        <time>2025-01-16T12:16:20Z</time>
      </trkpt>
      <trkpt lat="47.55452" lon="-2.30462">
        <ele>5.5</ele>
        <time>2025-01-16T12:16:21Z</time>
      </trkpt>
      <trkpt lat="47.55452" lon="-2.30462">
        <ele>5.5</ele>
        <time>2025-01-16T12:16:22Z</time>
      </trkpt>
      <trkpt lat="47.55452" lon="-2.30462">
        <ele>5.5</ele>
        <time>2025-01-16T12:16:23Z</time>
      </trkpt>
      <trkpt lat="47.55452" lon="-2.30462">
        <ele>5.5</ele>
        <time>2025-01-16T12:16:24Z</time>
      </trkpt>
      <trkpt lat="47.55452" lon="-2.30463">
        <ele>5.6</ele>
        <time>2025-01-16T12:16:25Z</time>
      </trkpt>
      <trkpt lat="47.55452" lon="-2.30465">
        <ele>5.6</ele>
        <time>2025-01-16T12:16:26Z</time>
      </trkpt>
      <trkpt lat="47.55452" lon="-2.30467">
        <ele>5.7</ele>
        <time>2025-01-16T12:16:27Z</time>
      </trkpt>
      <trkpt lat="47.55452" lon="-2.30469">
        <ele>5.8</ele>
        <time>2025-01-16T12:16:28Z</time>
      </trkpt>
      <trkpt lat="47.55452" lon="-2.30472">
        <ele>5.9</ele>
        <time>2025-01-16T12:16:29Z</time>
      </trkpt>
      <trkpt lat="47.55453" lon="-2.30475">
        <ele>6.2</ele>
        <time>2025-01-16T12:16:30Z</time>
      </trkpt>
      <trkpt lat="47.55454" lon="-2.30476">
        <ele>6.5</ele>
        <time>2025-01-16T12:16:31Z</time>
      </trkpt>
      <trkpt lat="47.55454" lon="-2.30478">
        <ele>6.6</ele>
        <time>2025-01-16T12:16:32Z</time>
      </trkpt>
      <trkpt lat="47.55454" lon="-2.3048">
        <ele>6.6</ele>
        <time>2025-01-16T12:16:33Z</time>
      </trkpt>
      <trkpt lat="47.55454" lon="-2.30482">
        <ele>6.7</ele>
        <time>2025-01-16T12:16:34Z</time>
      </trkpt>
      <trkpt lat="47.55454" lon="-2.30484">
        <ele>6.7</ele>
        <time>2025-01-16T12:16:35Z</time>
      </trkpt>
      <trkpt lat="47.55453" lon="-2.30486">
        <ele>6.5</ele>
        <time>2025-01-16T12:16:36Z</time>
      </trkpt>
      <trkpt lat="47.55452" lon="-2.30488">
        <ele>6.2</ele>
        <time>2025-01-16T12:16:37Z</time>
      </trkpt>
      <trkpt lat="47.55452" lon="-2.3049">
        <ele>6.3</ele>
        <time>2025-01-16T12:16:38Z</time>
      </trkpt>
      <trkpt lat="47.55451" lon="-2.30492">
        <ele>6</ele>
        <time>2025-01-16T12:16:39Z</time>
      </trkpt>
      <trkpt lat="47.55451" lon="-2.30493">
        <ele>6</ele>
        <time>2025-01-16T12:16:40Z</time>
      </trkpt>
      <trkpt lat="47.5545" lon="-2.30495">
        <ele>5.7</ele>
        <time>2025-01-16T12:16:41Z</time>
      </trkpt>
      <trkpt lat="47.5545" lon="-2.30497">
        <ele>5.8</ele>
        <time>2025-01-16T12:16:42Z</time>
      </trkpt>
      <trkpt lat="47.55449" lon="-2.30499">
        <ele>5.5</ele>
        <time>2025-01-16T12:16:43Z</time>
      </trkpt>
      <trkpt lat="47.55448" lon="-2.30501">
        <ele>5.2</ele>
        <time>2025-01-16T12:16:44Z</time>
      </trkpt>
      <trkpt lat="47.55448" lon="-2.30502">
        <ele>5.2</ele>
        <time>2025-01-16T12:16:45Z</time>
      </trkpt>
      <trkpt lat="47.55448" lon="-2.30503">
        <ele>5.2</ele>
        <time>2025-01-16T12:16:46Z</time>
      </trkpt>
      <trkpt lat="47.55448" lon="-2.30504">
        <ele>5.2</ele>
        <time>2025-01-16T12:16:47Z</time>
      </trkpt>
      <trkpt lat="47.55447" lon="-2.30506">
        <ele>4.8</ele>
        <time>2025-01-16T12:16:48Z</time>
      </trkpt>
      <trkpt lat="47.55447" lon="-2.30508">
        <ele>4.9</ele>
        <time>2025-01-16T12:16:49Z</time>
      </trkpt>
      <trkpt lat="47.55447" lon="-2.3051">
        <ele>4.9</ele>
        <time>2025-01-16T12:16:50Z</time>
      </trkpt>
      <trkpt lat="47.55447" lon="-2.30512">
        <ele>4.9</ele>
        <time>2025-01-16T12:16:51Z</time>
      </trkpt>
      <trkpt lat="47.55446" lon="-2.30515">
        <ele>4.5</ele>
        <time>2025-01-16T12:16:52Z</time>
      </trkpt>
      <trkpt lat="47.55446" lon="-2.30517">
        <ele>4.5</ele>
        <time>2025-01-16T12:16:53Z</time>
      </trkpt>
      <trkpt lat="47.55446" lon="-2.30519">
        <ele>4.5</ele>
        <time>2025-01-16T12:16:54Z</time>
      </trkpt>
      <trkpt lat="47.55446" lon="-2.30521">
        <ele>4.5</ele>
        <time>2025-01-16T12:16:55Z</time>
      </trkpt>
      <trkpt lat="47.55446" lon="-2.30523">
        <ele>4.6</ele>
        <time>2025-01-16T12:16:56Z</time>
      </trkpt>
      <trkpt lat="47.55445" lon="-2.30525">
        <ele>4.2</ele>
        <time>2025-01-16T12:16:57Z</time>
      </trkpt>
      <trkpt lat="47.55445" lon="-2.30526">
        <ele>4.2</ele>
        <time>2025-01-16T12:16:58Z</time>
      </trkpt>
      <trkpt lat="47.55445" lon="-2.30527">
        <ele>4.2</ele>
        <time>2025-01-16T12:16:59Z</time>
      </trkpt>
      <trkpt lat="47.55445" lon="-2.30528">
        <ele>4.2</ele>
        <time>2025-01-16T12:17:00Z</time>
      </trkpt>
      <trkpt lat="47.55446" lon="-2.30529">
        <ele>4.6</ele>
        <time>2025-01-16T12:17:01Z</time>
      </trkpt>
      <trkpt lat="47.55446" lon="-2.3053">
        <ele>4.6</ele>
        <time>2025-01-16T12:17:02Z</time>
      </trkpt>
      <trkpt lat="47.55446" lon="-2.30531">
        <ele>4.6</ele>
        <time>2025-01-16T12:17:03Z</time>
      </trkpt>
      <trkpt lat="47.55446" lon="-2.30533">
        <ele>4.6</ele>
        <time>2025-01-16T12:17:04Z</time>
      </trkpt>
      <trkpt lat="47.55447" lon="-2.30536">
        <ele>4.9</ele>
        <time>2025-01-16T12:17:05Z</time>
      </trkpt>
      <trkpt lat="47.55447" lon="-2.30538">
        <ele>4.9</ele>
        <time>2025-01-16T12:17:06Z</time>
      </trkpt>
      <trkpt lat="47.55447" lon="-2.3054">
        <ele>4.9</ele>
        <time>2025-01-16T12:17:07Z</time>
      </trkpt>
      <trkpt lat="47.55447" lon="-2.30542">
        <ele>4.9</ele>
        <time>2025-01-16T12:17:08Z</time>
      </trkpt>
      <trkpt lat="47.55447" lon="-2.30544">
        <ele>4.9</ele>
        <time>2025-01-16T12:17:09Z</time>
      </trkpt>
      <trkpt lat="47.55447" lon="-2.30547">
        <ele>4.9</ele>
        <time>2025-01-16T12:17:10Z</time>
      </trkpt>
      <trkpt lat="47.55446" lon="-2.30549">
        <ele>4.6</ele>
        <time>2025-01-16T12:17:11Z</time>
      </trkpt>
      <trkpt lat="47.55446" lon="-2.30552">
        <ele>4.6</ele>
        <time>2025-01-16T12:17:12Z</time>
      </trkpt>
      <trkpt lat="47.55446" lon="-2.30554">
        <ele>4.6</ele>
        <time>2025-01-16T12:17:13Z</time>
      </trkpt>
      <trkpt lat="47.55445" lon="-2.30556">
        <ele>4.2</ele>
        <time>2025-01-16T12:17:14Z</time>
      </trkpt>
      <trkpt lat="47.55445" lon="-2.30558">
        <ele>4.2</ele>
        <time>2025-01-16T12:17:15Z</time>
      </trkpt>
      <trkpt lat="47.55445" lon="-2.30559">
        <ele>4.2</ele>
        <time>2025-01-16T12:17:16Z</time>
      </trkpt>
      <trkpt lat="47.55445" lon="-2.30561">
        <ele>4.2</ele>
        <time>2025-01-16T12:17:17Z</time>
      </trkpt>
      <trkpt lat="47.55445" lon="-2.30563">
        <ele>4.2</ele>
        <time>2025-01-16T12:17:18Z</time>
      </trkpt>
      <trkpt lat="47.55444" lon="-2.30565">
        <ele>4</ele>
        <time>2025-01-16T12:17:19Z</time>
      </trkpt>
      <trkpt lat="47.55444" lon="-2.30567">
        <ele>4</ele>
        <time>2025-01-16T12:17:20Z</time>
      </trkpt>
      <trkpt lat="47.55444" lon="-2.30568">
        <ele>4</ele>
        <time>2025-01-16T12:17:21Z</time>
      </trkpt>
      <trkpt lat="47.55444" lon="-2.30569">
        <ele>4</ele>
        <time>2025-01-16T12:17:22Z</time>
      </trkpt>
      <trkpt lat="47.55445" lon="-2.3057">
        <ele>4.2</ele>
        <time>2025-01-16T12:17:23Z</time>
      </trkpt>
      <trkpt lat="47.55446" lon="-2.3057">
        <ele>4.6</ele>
        <time>2025-01-16T12:17:24Z</time>
      </trkpt>
      <trkpt lat="47.55446" lon="-2.3057">
        <ele>4.6</ele>
        <time>2025-01-16T12:17:25Z</time>
      </trkpt>
      <trkpt lat="47.55446" lon="-2.3057">
        <ele>4.6</ele>
        <time>2025-01-16T12:17:26Z</time>
      </trkpt>
      <trkpt lat="47.55447" lon="-2.30571">
        <ele>4.9</ele>
        <time>2025-01-16T12:17:27Z</time>
      </trkpt>
      <trkpt lat="47.55448" lon="-2.30572">
        <ele>5.3</ele>
        <time>2025-01-16T12:17:28Z</time>
      </trkpt>
      <trkpt lat="47.55448" lon="-2.30573">
        <ele>5.3</ele>
        <time>2025-01-16T12:17:29Z</time>
      </trkpt>
      <trkpt lat="47.55448" lon="-2.30574">
        <ele>5.3</ele>
        <time>2025-01-16T12:17:30Z</time>
      </trkpt>
      <trkpt lat="47.55448" lon="-2.30576">
        <ele>5.3</ele>
        <time>2025-01-16T12:17:31Z</time>
      </trkpt>
      <trkpt lat="47.55448" lon="-2.30579">
        <ele>5.3</ele>
        <time>2025-01-16T12:17:32Z</time>
      </trkpt>
      <trkpt lat="47.55448" lon="-2.30581">
        <ele>5.3</ele>
        <time>2025-01-16T12:17:33Z</time>
      </trkpt>
      <trkpt lat="47.55447" lon="-2.30583">
        <ele>4.9</ele>
        <time>2025-01-16T12:17:34Z</time>
      </trkpt>
      <trkpt lat="47.55447" lon="-2.30585">
        <ele>4.9</ele>
        <time>2025-01-16T12:17:35Z</time>
      </trkpt>
      <trkpt lat="47.55447" lon="-2.30587">
        <ele>4.9</ele>
        <time>2025-01-16T12:17:36Z</time>
      </trkpt>
      <trkpt lat="47.55447" lon="-2.3059">
        <ele>4.9</ele>
        <time>2025-01-16T12:17:37Z</time>
      </trkpt>
      <trkpt lat="47.55447" lon="-2.30591">
        <ele>4.9</ele>
        <time>2025-01-16T12:17:38Z</time>
      </trkpt>
      <trkpt lat="47.55448" lon="-2.30592">
        <ele>5.3</ele>
        <time>2025-01-16T12:17:39Z</time>
      </trkpt>
      <trkpt lat="47.55449" lon="-2.30594">
        <ele>5.6</ele>
        <time>2025-01-16T12:17:40Z</time>
      </trkpt>
      <trkpt lat="47.5545" lon="-2.30595">
        <ele>6</ele>
        <time>2025-01-16T12:17:41Z</time>
      </trkpt>
      <trkpt lat="47.5545" lon="-2.30597">
        <ele>6</ele>
        <time>2025-01-16T12:17:42Z</time>
      </trkpt>
      <trkpt lat="47.55449" lon="-2.306">
        <ele>5.6</ele>
        <time>2025-01-16T12:17:43Z</time>
      </trkpt>
      <trkpt lat="47.55449" lon="-2.30602">
        <ele>5.6</ele>
        <time>2025-01-16T12:17:44Z</time>
      </trkpt>
      <trkpt lat="47.5545" lon="-2.30604">
        <ele>6</ele>
        <time>2025-01-16T12:17:45Z</time>
      </trkpt>
      <trkpt lat="47.5545" lon="-2.30606">
        <ele>6</ele>
        <time>2025-01-16T12:17:46Z</time>
      </trkpt>
      <trkpt lat="47.5545" lon="-2.30607">
        <ele>6</ele>
        <time>2025-01-16T12:17:47Z</time>
      </trkpt>
      <trkpt lat="47.55451" lon="-2.30609">
        <ele>6.4</ele>
        <time>2025-01-16T12:17:48Z</time>
      </trkpt>
      <trkpt lat="47.55451" lon="-2.30611">
        <ele>6.4</ele>
        <time>2025-01-16T12:17:49Z</time>
      </trkpt>
      <trkpt lat="47.55451" lon="-2.30612">
        <ele>6.3</ele>
        <time>2025-01-16T12:17:50Z</time>
      </trkpt>
      <trkpt lat="47.55451" lon="-2.30614">
        <ele>6.3</ele>
        <time>2025-01-16T12:17:51Z</time>
      </trkpt>
      <trkpt lat="47.55452" lon="-2.30616">
        <ele>6.5</ele>
        <time>2025-01-16T12:17:52Z</time>
      </trkpt>
      <trkpt lat="47.55452" lon="-2.30619">
        <ele>6.4</ele>
        <time>2025-01-16T12:17:53Z</time>
      </trkpt>
      <trkpt lat="47.55452" lon="-2.30622">
        <ele>6.3</ele>
        <time>2025-01-16T12:17:54Z</time>
      </trkpt>
      <trkpt lat="47.55452" lon="-2.30624">
        <ele>6.3</ele>
        <time>2025-01-16T12:17:55Z</time>
      </trkpt>
      <trkpt lat="47.55453" lon="-2.30626">
        <ele>6.5</ele>
        <time>2025-01-16T12:17:56Z</time>
      </trkpt>
      <trkpt lat="47.55453" lon="-2.30627">
        <ele>6.5</ele>
        <time>2025-01-16T12:17:57Z</time>
      </trkpt>
      <trkpt lat="47.55453" lon="-2.30629">
        <ele>6.4</ele>
        <time>2025-01-16T12:17:58Z</time>
      </trkpt>
      <trkpt lat="47.55453" lon="-2.30631">
        <ele>6.4</ele>
        <time>2025-01-16T12:17:59Z</time>
      </trkpt>
      <trkpt lat="47.55454" lon="-2.30633">
        <ele>6.7</ele>
        <time>2025-01-16T12:18:00Z</time>
      </trkpt>
      <trkpt lat="47.55454" lon="-2.30635">
        <ele>6.6</ele>
        <time>2025-01-16T12:18:01Z</time>
      </trkpt>
      <trkpt lat="47.55455" lon="-2.30637">
        <ele>6.9</ele>
        <time>2025-01-16T12:18:02Z</time>
      </trkpt>
      <trkpt lat="47.55455" lon="-2.30639">
        <ele>6.8</ele>
        <time>2025-01-16T12:18:03Z</time>
      </trkpt>
      <trkpt lat="47.55456" lon="-2.30642">
        <ele>7.1</ele>
        <time>2025-01-16T12:18:04Z</time>
      </trkpt>
      <trkpt lat="47.55456" lon="-2.30645">
        <ele>7.1</ele>
        <time>2025-01-16T12:18:05Z</time>
      </trkpt>
      <trkpt lat="47.55456" lon="-2.30646">
        <ele>7.1</ele>
        <time>2025-01-16T12:18:06Z</time>
      </trkpt>
      <trkpt lat="47.55457" lon="-2.30648">
        <ele>7.4</ele>
        <time>2025-01-16T12:18:07Z</time>
      </trkpt>
      <trkpt lat="47.55457" lon="-2.30649">
        <ele>7.4</ele>
        <time>2025-01-16T12:18:08Z</time>
      </trkpt>
      <trkpt lat="47.55457" lon="-2.30651">
        <ele>7.3</ele>
        <time>2025-01-16T12:18:09Z</time>
      </trkpt>
      <trkpt lat="47.55458" lon="-2.30652">
        <ele>7.6</ele>
        <time>2025-01-16T12:18:10Z</time>
      </trkpt>
      <trkpt lat="47.55458" lon="-2.30653">
        <ele>7.6</ele>
        <time>2025-01-16T12:18:11Z</time>
      </trkpt>
      <trkpt lat="47.55458" lon="-2.30654">
        <ele>7.6</ele>
        <time>2025-01-16T12:18:12Z</time>
      </trkpt>
      <trkpt lat="47.55459" lon="-2.30656">
        <ele>7.9</ele>
        <time>2025-01-16T12:18:13Z</time>
      </trkpt>
      <trkpt lat="47.55459" lon="-2.30659">
        <ele>7.9</ele>
        <time>2025-01-16T12:18:14Z</time>
      </trkpt>
      <trkpt lat="47.55459" lon="-2.30661">
        <ele>7.8</ele>
        <time>2025-01-16T12:18:15Z</time>
      </trkpt>
      <trkpt lat="47.5546" lon="-2.30664">
        <ele>8.1</ele>
        <time>2025-01-16T12:18:16Z</time>
      </trkpt>
      <trkpt lat="47.5546" lon="-2.30666">
        <ele>8.1</ele>
        <time>2025-01-16T12:18:17Z</time>
      </trkpt>
      <trkpt lat="47.55461" lon="-2.30669">
        <ele>8.2</ele>
        <time>2025-01-16T12:18:18Z</time>
      </trkpt>
      <trkpt lat="47.5546" lon="-2.30671">
        <ele>7.8</ele>
        <time>2025-01-16T12:18:19Z</time>
      </trkpt>
      <trkpt lat="47.5546" lon="-2.30672">
        <ele>7.7</ele>
        <time>2025-01-16T12:18:20Z</time>
      </trkpt>
      <trkpt lat="47.5546" lon="-2.30672">
        <ele>7.7</ele>
        <time>2025-01-16T12:18:21Z</time>
      </trkpt>
      <trkpt lat="47.5546" lon="-2.30674">
        <ele>7.6</ele>
        <time>2025-01-16T12:18:22Z</time>
      </trkpt>
      <trkpt lat="47.5546" lon="-2.30675">
        <ele>7.5</ele>
        <time>2025-01-16T12:18:23Z</time>
      </trkpt>
      <trkpt lat="47.55461" lon="-2.30677">
        <ele>7.7</ele>
        <time>2025-01-16T12:18:24Z</time>
      </trkpt>
      <trkpt lat="47.55462" lon="-2.30679">
        <ele>7.8</ele>
        <time>2025-01-16T12:18:25Z</time>
      </trkpt>
      <trkpt lat="47.55462" lon="-2.30681">
        <ele>7.7</ele>
        <time>2025-01-16T12:18:26Z</time>
      </trkpt>
      <trkpt lat="47.55463" lon="-2.30683">
        <ele>7.8</ele>
        <time>2025-01-16T12:18:27Z</time>
      </trkpt>
      <trkpt lat="47.55462" lon="-2.30684">
        <ele>7.5</ele>
        <time>2025-01-16T12:18:28Z</time>
      </trkpt>
      <trkpt lat="47.55462" lon="-2.30684">
        <ele>7.5</ele>
        <time>2025-01-16T12:18:29Z</time>
      </trkpt>
      <trkpt lat="47.55462" lon="-2.30685">
        <ele>7.4</ele>
        <time>2025-01-16T12:18:30Z</time>
      </trkpt>
      <trkpt lat="47.55463" lon="-2.30686">
        <ele>7.6</ele>
        <time>2025-01-16T12:18:31Z</time>
      </trkpt>
      <trkpt lat="47.55463" lon="-2.30688">
        <ele>7.5</ele>
        <time>2025-01-16T12:18:32Z</time>
      </trkpt>
      <trkpt lat="47.55464" lon="-2.30689">
        <ele>7.6</ele>
        <time>2025-01-16T12:18:33Z</time>
      </trkpt>
      <trkpt lat="47.55464" lon="-2.3069">
        <ele>7.6</ele>
        <time>2025-01-16T12:18:34Z</time>
      </trkpt>
      <trkpt lat="47.55464" lon="-2.30692">
        <ele>7.4</ele>
        <time>2025-01-16T12:18:35Z</time>
      </trkpt>
      <trkpt lat="47.55465" lon="-2.30694">
        <ele>7.5</ele>
        <time>2025-01-16T12:18:36Z</time>
      </trkpt>
      <trkpt lat="47.55465" lon="-2.30695">
        <ele>7.4</ele>
        <time>2025-01-16T12:18:37Z</time>
      </trkpt>
      <trkpt lat="47.55466" lon="-2.30697">
        <ele>7.4</ele>
        <time>2025-01-16T12:18:38Z</time>
      </trkpt>
      <trkpt lat="47.55466" lon="-2.30698">
        <ele>7.3</ele>
        <time>2025-01-16T12:18:39Z</time>
      </trkpt>
      <trkpt lat="47.55467" lon="-2.307">
        <ele>7.2</ele>
        <time>2025-01-16T12:18:40Z</time>
      </trkpt>
      <trkpt lat="47.55467" lon="-2.30701">
        <ele>7.1</ele>
        <time>2025-01-16T12:18:41Z</time>
      </trkpt>
      <trkpt lat="47.55468" lon="-2.30702">
        <ele>7.2</ele>
        <time>2025-01-16T12:18:42Z</time>
      </trkpt>
      <trkpt lat="47.55468" lon="-2.30702">
        <ele>7.2</ele>
        <time>2025-01-16T12:18:43Z</time>
      </trkpt>
      <trkpt lat="47.55468" lon="-2.30703">
        <ele>7</ele>
        <time>2025-01-16T12:18:44Z</time>
      </trkpt>
      <trkpt lat="47.55469" lon="-2.30704">
        <ele>7.1</ele>
        <time>2025-01-16T12:18:45Z</time>
      </trkpt>
      <trkpt lat="47.5547" lon="-2.30705">
        <ele>7.1</ele>
        <time>2025-01-16T12:18:46Z</time>
      </trkpt>
      <trkpt lat="47.5547" lon="-2.30706">
        <ele>7</ele>
        <time>2025-01-16T12:18:47Z</time>
      </trkpt>
      <trkpt lat="47.5547" lon="-2.30707">
        <ele>6.9</ele>
        <time>2025-01-16T12:18:48Z</time>
      </trkpt>
      <trkpt lat="47.55471" lon="-2.30709">
        <ele>6.7</ele>
        <time>2025-01-16T12:18:49Z</time>
      </trkpt>
      <trkpt lat="47.55471" lon="-2.30711">
        <ele>6.5</ele>
        <time>2025-01-16T12:18:50Z</time>
      </trkpt>
      <trkpt lat="47.55472" lon="-2.30713">
        <ele>6.3</ele>
        <time>2025-01-16T12:18:51Z</time>
      </trkpt>
      <trkpt lat="47.55473" lon="-2.30715">
        <ele>6.3</ele>
        <time>2025-01-16T12:18:52Z</time>
      </trkpt>
      <trkpt lat="47.55473" lon="-2.30718">
        <ele>5.9</ele>
        <time>2025-01-16T12:18:53Z</time>
      </trkpt>
      <trkpt lat="47.55473" lon="-2.30719">
        <ele>5.7</ele>
        <time>2025-01-16T12:18:54Z</time>
      </trkpt>
      <trkpt lat="47.55474" lon="-2.30721">
        <ele>5.8</ele>
        <time>2025-01-16T12:18:55Z</time>
      </trkpt>
      <trkpt lat="47.55474" lon="-2.30722">
        <ele>5.7</ele>
        <time>2025-01-16T12:18:56Z</time>
      </trkpt>
      <trkpt lat="47.55474" lon="-2.30724">
        <ele>5.5</ele>
        <time>2025-01-16T12:18:57Z</time>
      </trkpt>
      <trkpt lat="47.55474" lon="-2.30726">
        <ele>5.3</ele>
        <time>2025-01-16T12:18:58Z</time>
      </trkpt>
      <trkpt lat="47.55474" lon="-2.30728">
        <ele>5.2</ele>
        <time>2025-01-16T12:18:59Z</time>
      </trkpt>
      <trkpt lat="47.55475" lon="-2.3073">
        <ele>5.3</ele>
        <time>2025-01-16T12:19:00Z</time>
      </trkpt>
      <trkpt lat="47.55476" lon="-2.30731">
        <ele>5.6</ele>
        <time>2025-01-16T12:19:01Z</time>
      </trkpt>
      <trkpt lat="47.55476" lon="-2.30733">
        <ele>5.4</ele>
        <time>2025-01-16T12:19:02Z</time>
      </trkpt>
      <trkpt lat="47.55477" lon="-2.30735">
        <ele>5.5</ele>
        <time>2025-01-16T12:19:03Z</time>
      </trkpt>
      <trkpt lat="47.55477" lon="-2.30737">
        <ele>5.3</ele>
        <time>2025-01-16T12:19:04Z</time>
      </trkpt>
      <trkpt lat="47.55478" lon="-2.30739">
        <ele>5.4</ele>
        <time>2025-01-16T12:19:05Z</time>
      </trkpt>
      <trkpt lat="47.55478" lon="-2.30741">
        <ele>5.2</ele>
        <time>2025-01-16T12:19:06Z</time>
      </trkpt>
      <trkpt lat="47.55478" lon="-2.30743">
        <ele>5</ele>
        <time>2025-01-16T12:19:07Z</time>
      </trkpt>
      <trkpt lat="47.55478" lon="-2.30745">
        <ele>4.8</ele>
        <time>2025-01-16T12:19:08Z</time>
      </trkpt>
      <trkpt lat="47.55479" lon="-2.30746">
        <ele>4.9</ele>
        <time>2025-01-16T12:19:09Z</time>
      </trkpt>
      <trkpt lat="47.55479" lon="-2.30747">
        <ele>4.8</ele>
        <time>2025-01-16T12:19:10Z</time>
      </trkpt>
      <trkpt lat="47.55479" lon="-2.30747">
        <ele>4.8</ele>
        <time>2025-01-16T12:19:11Z</time>
      </trkpt>
      <trkpt lat="47.55479" lon="-2.30747">
        <ele>4.8</ele>
        <time>2025-01-16T12:19:12Z</time>
      </trkpt>
      <trkpt lat="47.5548" lon="-2.30748">
        <ele>4.9</ele>
        <time>2025-01-16T12:19:13Z</time>
      </trkpt>
      <trkpt lat="47.5548" lon="-2.30748">
        <ele>4.9</ele>
        <time>2025-01-16T12:19:14Z</time>
      </trkpt>
      <trkpt lat="47.5548" lon="-2.30748">
        <ele>4.9</ele>
        <time>2025-01-16T12:19:15Z</time>
      </trkpt>
      <trkpt lat="47.5548" lon="-2.30748">
        <ele>4.9</ele>
        <time>2025-01-16T12:19:16Z</time>
      </trkpt>
      <trkpt lat="47.55481" lon="-2.30749">
        <ele>5</ele>
        <time>2025-01-16T12:19:17Z</time>
      </trkpt>
      <trkpt lat="47.55481" lon="-2.3075">
        <ele>4.9</ele>
        <time>2025-01-16T12:19:18Z</time>
      </trkpt>
      <trkpt lat="47.55482" lon="-2.30751">
        <ele>5.1</ele>
        <time>2025-01-16T12:19:19Z</time>
      </trkpt>
      <trkpt lat="47.55482" lon="-2.30752">
        <ele>5</ele>
        <time>2025-01-16T12:19:20Z</time>
      </trkpt>
      <trkpt lat="47.55483" lon="-2.30753">
        <ele>5.2</ele>
        <time>2025-01-16T12:19:21Z</time>
      </trkpt>
      <trkpt lat="47.55484" lon="-2.30754">
        <ele>5.3</ele>
        <time>2025-01-16T12:19:22Z</time>
      </trkpt>
      <trkpt lat="47.55485" lon="-2.30755">
        <ele>5.4</ele>
        <time>2025-01-16T12:19:23Z</time>
      </trkpt>
      <trkpt lat="47.55486" lon="-2.30756">
        <ele>5.5</ele>
        <time>2025-01-16T12:19:24Z</time>
      </trkpt>
      <trkpt lat="47.55487" lon="-2.30757">
        <ele>5.7</ele>
        <time>2025-01-16T12:19:25Z</time>
      </trkpt>
      <trkpt lat="47.55489" lon="-2.30759">
        <ele>5.8</ele>
        <time>2025-01-16T12:19:26Z</time>
      </trkpt>
      <trkpt lat="47.5549" lon="-2.3076">
        <ele>5.9</ele>
        <time>2025-01-16T12:19:27Z</time>
      </trkpt>
      <trkpt lat="47.55491" lon="-2.30762">
        <ele>5.9</ele>
        <time>2025-01-16T12:19:28Z</time>
      </trkpt>
      <trkpt lat="47.55492" lon="-2.30764">
        <ele>5.8</ele>
        <time>2025-01-16T12:19:29Z</time>
      </trkpt>
      <trkpt lat="47.55492" lon="-2.30764">
        <ele>5.8</ele>
        <time>2025-01-16T12:19:30Z</time>
      </trkpt>
      <trkpt lat="47.55492" lon="-2.30765">
        <ele>5.7</ele>
        <time>2025-01-16T12:19:31Z</time>
      </trkpt>
      <trkpt lat="47.55493" lon="-2.30766">
        <ele>5.8</ele>
        <time>2025-01-16T12:19:32Z</time>
      </trkpt>
      <trkpt lat="47.55494" lon="-2.30767">
        <ele>5.8</ele>
        <time>2025-01-16T12:19:33Z</time>
      </trkpt>
      <trkpt lat="47.55494" lon="-2.30768">
        <ele>5.7</ele>
        <time>2025-01-16T12:19:34Z</time>
      </trkpt>
      <trkpt lat="47.55495" lon="-2.30769">
        <ele>5.7</ele>
        <time>2025-01-16T12:19:35Z</time>
      </trkpt>
      <trkpt lat="47.55495" lon="-2.30771">
        <ele>5.4</ele>
        <time>2025-01-16T12:19:36Z</time>
      </trkpt>
      <trkpt lat="47.55496" lon="-2.30773">
        <ele>5.3</ele>
        <time>2025-01-16T12:19:37Z</time>
      </trkpt>
      <trkpt lat="47.55496" lon="-2.30775">
        <ele>5.1</ele>
        <time>2025-01-16T12:19:38Z</time>
      </trkpt>
      <trkpt lat="47.55497" lon="-2.30778">
        <ele>4.8</ele>
        <time>2025-01-16T12:19:39Z</time>
      </trkpt>
      <trkpt lat="47.55498" lon="-2.30779">
        <ele>4.8</ele>
        <time>2025-01-16T12:19:40Z</time>
      </trkpt>
      <trkpt lat="47.55499" lon="-2.30781">
        <ele>4.7</ele>
        <time>2025-01-16T12:19:41Z</time>
      </trkpt>
      <trkpt lat="47.555" lon="-2.30782">
        <ele>4.7</ele>
        <time>2025-01-16T12:19:42Z</time>
      </trkpt>
      <trkpt lat="47.55501" lon="-2.30783">
        <ele>5</ele>
        <time>2025-01-16T12:19:43Z</time>
      </trkpt>
      <trkpt lat="47.55502" lon="-2.30784">
        <ele>5.4</ele>
        <time>2025-01-16T12:19:44Z</time>
      </trkpt>
      <trkpt lat="47.55503" lon="-2.30786">
        <ele>5.7</ele>
        <time>2025-01-16T12:19:45Z</time>
      </trkpt>
      <trkpt lat="47.55503" lon="-2.30788">
        <ele>5.5</ele>
        <time>2025-01-16T12:19:46Z</time>
      </trkpt>
      <trkpt lat="47.55503" lon="-2.3079">
        <ele>5.4</ele>
        <time>2025-01-16T12:19:47Z</time>
      </trkpt>
      <trkpt lat="47.55504" lon="-2.30791">
        <ele>5.7</ele>
        <time>2025-01-16T12:19:48Z</time>
      </trkpt>
      <trkpt lat="47.55504" lon="-2.30794">
        <ele>5.5</ele>
        <time>2025-01-16T12:19:49Z</time>
      </trkpt>
      <trkpt lat="47.55504" lon="-2.30795">
        <ele>5.4</ele>
        <time>2025-01-16T12:19:50Z</time>
      </trkpt>
      <trkpt lat="47.55505" lon="-2.30797">
        <ele>5.7</ele>
        <time>2025-01-16T12:19:51Z</time>
      </trkpt>
      <trkpt lat="47.55505" lon="-2.308">
        <ele>5.4</ele>
        <time>2025-01-16T12:19:52Z</time>
      </trkpt>
      <trkpt lat="47.55507" lon="-2.30804">
        <ele>5.9</ele>
        <time>2025-01-16T12:19:53Z</time>
      </trkpt>
      <trkpt lat="47.55508" lon="-2.30805">
        <ele>6.2</ele>
        <time>2025-01-16T12:19:54Z</time>
      </trkpt>
      <trkpt lat="47.55509" lon="-2.30807">
        <ele>6.5</ele>
        <time>2025-01-16T12:19:55Z</time>
      </trkpt>
      <trkpt lat="47.55509" lon="-2.30808">
        <ele>6.5</ele>
        <time>2025-01-16T12:19:56Z</time>
      </trkpt>
      <trkpt lat="47.5551" lon="-2.30809">
        <ele>6.9</ele>
        <time>2025-01-16T12:19:57Z</time>
      </trkpt>
      <trkpt lat="47.5551" lon="-2.30811">
        <ele>6.8</ele>
        <time>2025-01-16T12:19:58Z</time>
      </trkpt>
      <trkpt lat="47.55511" lon="-2.30813">
        <ele>7.1</ele>
        <time>2025-01-16T12:19:59Z</time>
      </trkpt>
      <trkpt lat="47.55511" lon="-2.30814">
        <ele>7.1</ele>
        <time>2025-01-16T12:20:00Z</time>
      </trkpt>
      <trkpt lat="47.55512" lon="-2.30816">
        <ele>7.4</ele>
        <time>2025-01-16T12:20:01Z</time>
      </trkpt>
      <trkpt lat="47.55512" lon="-2.30818">
        <ele>7.4</ele>
        <time>2025-01-16T12:20:02Z</time>
      </trkpt>
      <trkpt lat="47.55512" lon="-2.30819">
        <ele>7.3</ele>
        <time>2025-01-16T12:20:03Z</time>
      </trkpt>
      <trkpt lat="47.55513" lon="-2.30821">
        <ele>7.6</ele>
        <time>2025-01-16T12:20:04Z</time>
      </trkpt>
      <trkpt lat="47.55514" lon="-2.30821">
        <ele>8</ele>
        <time>2025-01-16T12:20:05Z</time>
      </trkpt>
      <trkpt lat="47.55514" lon="-2.30822">
        <ele>7.9</ele>
        <time>2025-01-16T12:20:06Z</time>
      </trkpt>
      <trkpt lat="47.55515" lon="-2.30823">
        <ele>8.3</ele>
        <time>2025-01-16T12:20:07Z</time>
      </trkpt>
      <trkpt lat="47.55515" lon="-2.30825">
        <ele>8.2</ele>
        <time>2025-01-16T12:20:08Z</time>
      </trkpt>
      <trkpt lat="47.55515" lon="-2.30826">
        <ele>8.1</ele>
        <time>2025-01-16T12:20:09Z</time>
      </trkpt>
      <trkpt lat="47.55515" lon="-2.30827">
        <ele>8.1</ele>
        <time>2025-01-16T12:20:10Z</time>
      </trkpt>
      <trkpt lat="47.55516" lon="-2.30829">
        <ele>8.4</ele>
        <time>2025-01-16T12:20:11Z</time>
      </trkpt>
      <trkpt lat="47.55517" lon="-2.30831">
        <ele>8.6</ele>
        <time>2025-01-16T12:20:12Z</time>
      </trkpt>
      <trkpt lat="47.55517" lon="-2.30833">
        <ele>8.5</ele>
        <time>2025-01-16T12:20:13Z</time>
      </trkpt>
      <trkpt lat="47.55517" lon="-2.30835">
        <ele>8.5</ele>
        <time>2025-01-16T12:20:14Z</time>
      </trkpt>
      <trkpt lat="47.55518" lon="-2.30837">
        <ele>8.7</ele>
        <time>2025-01-16T12:20:15Z</time>
      </trkpt>
      <trkpt lat="47.55518" lon="-2.30838">
        <ele>8.7</ele>
        <time>2025-01-16T12:20:16Z</time>
      </trkpt>
      <trkpt lat="47.55518" lon="-2.3084">
        <ele>8.7</ele>
        <time>2025-01-16T12:20:17Z</time>
      </trkpt>
      <trkpt lat="47.55518" lon="-2.30842">
        <ele>8.6</ele>
        <time>2025-01-16T12:20:18Z</time>
      </trkpt>
      <trkpt lat="47.55518" lon="-2.30843">
        <ele>8.6</ele>
        <time>2025-01-16T12:20:19Z</time>
      </trkpt>
      <trkpt lat="47.55517" lon="-2.30844">
        <ele>8.3</ele>
        <time>2025-01-16T12:20:20Z</time>
      </trkpt>
      <trkpt lat="47.55517" lon="-2.30846">
        <ele>8.2</ele>
        <time>2025-01-16T12:20:21Z</time>
      </trkpt>
      <trkpt lat="47.55517" lon="-2.30849">
        <ele>8.2</ele>
        <time>2025-01-16T12:20:22Z</time>
      </trkpt>
      <trkpt lat="47.55517" lon="-2.30852">
        <ele>8.1</ele>
        <time>2025-01-16T12:20:23Z</time>
      </trkpt>
      <trkpt lat="47.55517" lon="-2.30855">
        <ele>8</ele>
        <time>2025-01-16T12:20:24Z</time>
      </trkpt>
      <trkpt lat="47.55517" lon="-2.30858">
        <ele>8</ele>
        <time>2025-01-16T12:20:25Z</time>
      </trkpt>
      <trkpt lat="47.55517" lon="-2.30861">
        <ele>7.9</ele>
        <time>2025-01-16T12:20:26Z</time>
      </trkpt>
      <trkpt lat="47.55517" lon="-2.30864">
        <ele>7.9</ele>
        <time>2025-01-16T12:20:27Z</time>
      </trkpt>
      <trkpt lat="47.55517" lon="-2.30867">
        <ele>7.9</ele>
        <time>2025-01-16T12:20:28Z</time>
      </trkpt>
      <trkpt lat="47.55517" lon="-2.3087">
        <ele>7.9</ele>
        <time>2025-01-16T12:20:29Z</time>
      </trkpt>
      <trkpt lat="47.55517" lon="-2.30873">
        <ele>7.9</ele>
        <time>2025-01-16T12:20:30Z</time>
      </trkpt>
      <trkpt lat="47.55517" lon="-2.30876">
        <ele>7.9</ele>
        <time>2025-01-16T12:20:31Z</time>
      </trkpt>
      <trkpt lat="47.55517" lon="-2.30879">
        <ele>7.9</ele>
        <time>2025-01-16T12:20:32Z</time>
      </trkpt>
      <trkpt lat="47.55517" lon="-2.30881">
        <ele>7.9</ele>
        <time>2025-01-16T12:20:33Z</time>
      </trkpt>
      <trkpt lat="47.55517" lon="-2.30883">
        <ele>7.9</ele>
        <time>2025-01-16T12:20:34Z</time>
      </trkpt>
      <trkpt lat="47.55518" lon="-2.30885">
        <ele>8.2</ele>
        <time>2025-01-16T12:20:35Z</time>
      </trkpt>
      <trkpt lat="47.55518" lon="-2.30886">
        <ele>8.2</ele>
        <time>2025-01-16T12:20:36Z</time>
      </trkpt>
      <trkpt lat="47.55519" lon="-2.30888">
        <ele>8.5</ele>
        <time>2025-01-16T12:20:37Z</time>
      </trkpt>
      <trkpt lat="47.55519" lon="-2.3089">
        <ele>8.4</ele>
        <time>2025-01-16T12:20:38Z</time>
      </trkpt>
      <trkpt lat="47.55519" lon="-2.30891">
        <ele>8.4</ele>
        <time>2025-01-16T12:20:39Z</time>
      </trkpt>
      <trkpt lat="47.55519" lon="-2.30893">
        <ele>8.4</ele>
        <time>2025-01-16T12:20:40Z</time>
      </trkpt>
      <trkpt lat="47.55519" lon="-2.30895">
        <ele>8.3</ele>
        <time>2025-01-16T12:20:41Z</time>
      </trkpt>
      <trkpt lat="47.55519" lon="-2.30896">
        <ele>8.3</ele>
        <time>2025-01-16T12:20:42Z</time>
      </trkpt>
      <trkpt lat="47.5552" lon="-2.30897">
        <ele>8.5</ele>
        <time>2025-01-16T12:20:43Z</time>
      </trkpt>
      <trkpt lat="47.5552" lon="-2.30899">
        <ele>8.5</ele>
        <time>2025-01-16T12:20:44Z</time>
      </trkpt>
      <trkpt lat="47.5552" lon="-2.30901">
        <ele>8.4</ele>
        <time>2025-01-16T12:20:45Z</time>
      </trkpt>
      <trkpt lat="47.5552" lon="-2.30903">
        <ele>8.4</ele>
        <time>2025-01-16T12:20:46Z</time>
      </trkpt>
      <trkpt lat="47.5552" lon="-2.30904">
        <ele>8.4</ele>
        <time>2025-01-16T12:20:47Z</time>
      </trkpt>
      <trkpt lat="47.55521" lon="-2.30906">
        <ele>8.6</ele>
        <time>2025-01-16T12:20:48Z</time>
      </trkpt>
      <trkpt lat="47.55521" lon="-2.30907">
        <ele>8.6</ele>
        <time>2025-01-16T12:20:49Z</time>
      </trkpt>
      <trkpt lat="47.55521" lon="-2.30909">
        <ele>8.5</ele>
        <time>2025-01-16T12:20:50Z</time>
      </trkpt>
      <trkpt lat="47.55521" lon="-2.3091">
        <ele>8.5</ele>
        <time>2025-01-16T12:20:51Z</time>
      </trkpt>
      <trkpt lat="47.5552" lon="-2.30912">
        <ele>8.2</ele>
        <time>2025-01-16T12:20:52Z</time>
      </trkpt>
      <trkpt lat="47.5552" lon="-2.30914">
        <ele>8.1</ele>
        <time>2025-01-16T12:20:53Z</time>
      </trkpt>
      <trkpt lat="47.5552" lon="-2.30915">
        <ele>8.1</ele>
        <time>2025-01-16T12:20:54Z</time>
      </trkpt>
      <trkpt lat="47.5552" lon="-2.30917">
        <ele>8</ele>
        <time>2025-01-16T12:20:55Z</time>
      </trkpt>
      <trkpt lat="47.5552" lon="-2.30918">
        <ele>8</ele>
        <time>2025-01-16T12:20:56Z</time>
      </trkpt>
      <trkpt lat="47.55519" lon="-2.3092">
        <ele>7.8</ele>
        <time>2025-01-16T12:20:57Z</time>
      </trkpt>
      <trkpt lat="47.5552" lon="-2.30921">
        <ele>8</ele>
        <time>2025-01-16T12:20:58Z</time>
      </trkpt>
      <trkpt lat="47.5552" lon="-2.30922">
        <ele>8</ele>
        <time>2025-01-16T12:20:59Z</time>
      </trkpt>
      <trkpt lat="47.5552" lon="-2.30924">
        <ele>8</ele>
        <time>2025-01-16T12:21:00Z</time>
      </trkpt>
      <trkpt lat="47.5552" lon="-2.30926">
        <ele>8</ele>
        <time>2025-01-16T12:21:01Z</time>
      </trkpt>
      <trkpt lat="47.5552" lon="-2.30928">
        <ele>8</ele>
        <time>2025-01-16T12:21:02Z</time>
      </trkpt>
      <trkpt lat="47.5552" lon="-2.30929">
        <ele>8</ele>
        <time>2025-01-16T12:21:03Z</time>
      </trkpt>
      <trkpt lat="47.55521" lon="-2.30931">
        <ele>8.3</ele>
        <time>2025-01-16T12:21:04Z</time>
      </trkpt>
      <trkpt lat="47.55521" lon="-2.30933">
        <ele>8.3</ele>
        <time>2025-01-16T12:21:05Z</time>
      </trkpt>
      <trkpt lat="47.55521" lon="-2.30934">
        <ele>8.3</ele>
        <time>2025-01-16T12:21:06Z</time>
      </trkpt>
      <trkpt lat="47.55522" lon="-2.30936">
        <ele>8.5</ele>
        <time>2025-01-16T12:21:07Z</time>
      </trkpt>
      <trkpt lat="47.55522" lon="-2.30937">
        <ele>8.5</ele>
        <time>2025-01-16T12:21:08Z</time>
      </trkpt>
      <trkpt lat="47.55522" lon="-2.30939">
        <ele>8.5</ele>
        <time>2025-01-16T12:21:09Z</time>
      </trkpt>
      <trkpt lat="47.55522" lon="-2.3094">
        <ele>8.5</ele>
        <time>2025-01-16T12:21:10Z</time>
      </trkpt>
      <trkpt lat="47.55522" lon="-2.30941">
        <ele>8.5</ele>
        <time>2025-01-16T12:21:11Z</time>
      </trkpt>
      <trkpt lat="47.55523" lon="-2.30942">
        <ele>8.8</ele>
        <time>2025-01-16T12:21:12Z</time>
      </trkpt>
      <trkpt lat="47.55523" lon="-2.30943">
        <ele>8.8</ele>
        <time>2025-01-16T12:21:13Z</time>
      </trkpt>
      <trkpt lat="47.55524" lon="-2.30944">
        <ele>9</ele>
        <time>2025-01-16T12:21:14Z</time>
      </trkpt>
      <trkpt lat="47.55525" lon="-2.30945">
        <ele>9.3</ele>
        <time>2025-01-16T12:21:15Z</time>
      </trkpt>
      <trkpt lat="47.55525" lon="-2.30947">
        <ele>9.1</ele>
        <time>2025-01-16T12:21:16Z</time>
      </trkpt>
      <trkpt lat="47.55525" lon="-2.30949">
        <ele>9</ele>
        <time>2025-01-16T12:21:17Z</time>
      </trkpt>
      <trkpt lat="47.55525" lon="-2.3095">
        <ele>8.9</ele>
        <time>2025-01-16T12:21:18Z</time>
      </trkpt>
      <trkpt lat="47.55525" lon="-2.30952">
        <ele>8.8</ele>
        <time>2025-01-16T12:21:19Z</time>
      </trkpt>
      <trkpt lat="47.55526" lon="-2.30953">
        <ele>9</ele>
        <time>2025-01-16T12:21:20Z</time>
      </trkpt>
      <trkpt lat="47.55526" lon="-2.30954">
        <ele>8.9</ele>
        <time>2025-01-16T12:21:21Z</time>
      </trkpt>
      <trkpt lat="47.55527" lon="-2.30955">
        <ele>9.1</ele>
        <time>2025-01-16T12:21:22Z</time>
      </trkpt>
      <trkpt lat="47.55528" lon="-2.30956">
        <ele>9.3</ele>
        <time>2025-01-16T12:21:23Z</time>
      </trkpt>
      <trkpt lat="47.55529" lon="-2.30957">
        <ele>9.7</ele>
        <time>2025-01-16T12:21:24Z</time>
      </trkpt>
      <trkpt lat="47.5553" lon="-2.30958">
        <ele>10.1</ele>
        <time>2025-01-16T12:21:25Z</time>
      </trkpt>
      <trkpt lat="47.5553" lon="-2.30958">
        <ele>10.1</ele>
        <time>2025-01-16T12:21:26Z</time>
      </trkpt>
      <trkpt lat="47.55532" lon="-2.30959">
        <ele>11.1</ele>
        <time>2025-01-16T12:21:27Z</time>
      </trkpt>
      <trkpt lat="47.55533" lon="-2.30959">
        <ele>11.6</ele>
        <time>2025-01-16T12:21:28Z</time>
      </trkpt>
      <trkpt lat="47.55533" lon="-2.3096">
        <ele>11.5</ele>
        <time>2025-01-16T12:21:29Z</time>
      </trkpt>
      <trkpt lat="47.55533" lon="-2.30961">
        <ele>11.4</ele>
        <time>2025-01-16T12:21:30Z</time>
      </trkpt>
      <trkpt lat="47.55533" lon="-2.30961">
        <ele>11.4</ele>
        <time>2025-01-16T12:21:31Z</time>
      </trkpt>
      <trkpt lat="47.55533" lon="-2.30962">
        <ele>11.4</ele>
        <time>2025-01-16T12:21:32Z</time>
      </trkpt>
      <trkpt lat="47.55533" lon="-2.30964">
        <ele>11.2</ele>
        <time>2025-01-16T12:21:33Z</time>
      </trkpt>
      <trkpt lat="47.55534" lon="-2.30966">
        <ele>11.6</ele>
        <time>2025-01-16T12:21:34Z</time>
      </trkpt>
      <trkpt lat="47.55534" lon="-2.30968">
        <ele>11.4</ele>
        <time>2025-01-16T12:21:35Z</time>
      </trkpt>
      <trkpt lat="47.55533" lon="-2.30969">
        <ele>10.9</ele>
        <time>2025-01-16T12:21:36Z</time>
      </trkpt>
      <trkpt lat="47.55533" lon="-2.30971">
        <ele>10.7</ele>
        <time>2025-01-16T12:21:37Z</time>
      </trkpt>
      <trkpt lat="47.55532" lon="-2.30973">
        <ele>10.1</ele>
        <time>2025-01-16T12:21:38Z</time>
      </trkpt>
      <trkpt lat="47.55532" lon="-2.30975">
        <ele>9.9</ele>
        <time>2025-01-16T12:21:39Z</time>
      </trkpt>
      <trkpt lat="47.55532" lon="-2.30977">
        <ele>9.8</ele>
        <time>2025-01-16T12:21:40Z</time>
      </trkpt>
      <trkpt lat="47.55533" lon="-2.30979">
        <ele>10.1</ele>
        <time>2025-01-16T12:21:41Z</time>
      </trkpt>
      <trkpt lat="47.55533" lon="-2.30981">
        <ele>9.9</ele>
        <time>2025-01-16T12:21:42Z</time>
      </trkpt>
      <trkpt lat="47.55534" lon="-2.30983">
        <ele>10.3</ele>
        <time>2025-01-16T12:21:43Z</time>
      </trkpt>
      <trkpt lat="47.55534" lon="-2.30985">
        <ele>10.1</ele>
        <time>2025-01-16T12:21:44Z</time>
      </trkpt>
      <trkpt lat="47.55534" lon="-2.30987">
        <ele>10</ele>
        <time>2025-01-16T12:21:45Z</time>
      </trkpt>
      <trkpt lat="47.55534" lon="-2.30989">
        <ele>9.8</ele>
        <time>2025-01-16T12:21:46Z</time>
      </trkpt>
      <trkpt lat="47.55534" lon="-2.30991">
        <ele>9.6</ele>
        <time>2025-01-16T12:21:47Z</time>
      </trkpt>
      <trkpt lat="47.55534" lon="-2.30992">
        <ele>9.6</ele>
        <time>2025-01-16T12:21:48Z</time>
      </trkpt>
      <trkpt lat="47.55534" lon="-2.30994">
        <ele>9.4</ele>
        <time>2025-01-16T12:21:49Z</time>
      </trkpt>
      <trkpt lat="47.55534" lon="-2.30996">
        <ele>9.2</ele>
        <time>2025-01-16T12:21:50Z</time>
      </trkpt>
      <trkpt lat="47.55534" lon="-2.31001">
        <ele>8.9</ele>
        <time>2025-01-16T12:21:51Z</time>
      </trkpt>
      <trkpt lat="47.55533" lon="-2.31004">
        <ele>8.3</ele>
        <time>2025-01-16T12:21:52Z</time>
      </trkpt>
      <trkpt lat="47.55532" lon="-2.31007">
        <ele>7.8</ele>
        <time>2025-01-16T12:21:53Z</time>
      </trkpt>
      <trkpt lat="47.55532" lon="-2.3101">
        <ele>7.8</ele>
        <time>2025-01-16T12:21:54Z</time>
      </trkpt>
      <trkpt lat="47.55532" lon="-2.31011">
        <ele>7.7</ele>
        <time>2025-01-16T12:21:55Z</time>
      </trkpt>
      <trkpt lat="47.55532" lon="-2.31013">
        <ele>7.7</ele>
        <time>2025-01-16T12:21:56Z</time>
      </trkpt>
      <trkpt lat="47.55531" lon="-2.31016">
        <ele>7.2</ele>
        <time>2025-01-16T12:21:57Z</time>
      </trkpt>
      <trkpt lat="47.55531" lon="-2.3102">
        <ele>7.2</ele>
        <time>2025-01-16T12:21:58Z</time>
      </trkpt>
      <trkpt lat="47.5553" lon="-2.31022">
        <ele>6.8</ele>
        <time>2025-01-16T12:21:59Z</time>
      </trkpt>
      <trkpt lat="47.5553" lon="-2.31024">
        <ele>6.8</ele>
        <time>2025-01-16T12:22:00Z</time>
      </trkpt>
      <trkpt lat="47.55529" lon="-2.31026">
        <ele>6.4</ele>
        <time>2025-01-16T12:22:01Z</time>
      </trkpt>
      <trkpt lat="47.55529" lon="-2.31028">
        <ele>6.4</ele>
        <time>2025-01-16T12:22:02Z</time>
      </trkpt>
      <trkpt lat="47.55529" lon="-2.3103">
        <ele>6.6</ele>
        <time>2025-01-16T12:22:03Z</time>
      </trkpt>
      <trkpt lat="47.55528" lon="-2.31032">
        <ele>6.4</ele>
        <time>2025-01-16T12:22:04Z</time>
      </trkpt>
      <trkpt lat="47.55528" lon="-2.31034">
        <ele>6.5</ele>
        <time>2025-01-16T12:22:05Z</time>
      </trkpt>
      <trkpt lat="47.55527" lon="-2.31035">
        <ele>6.4</ele>
        <time>2025-01-16T12:22:06Z</time>
      </trkpt>
      <trkpt lat="47.55526" lon="-2.31036">
        <ele>6.4</ele>
        <time>2025-01-16T12:22:07Z</time>
      </trkpt>
      <trkpt lat="47.55525" lon="-2.31038">
        <ele>6.4</ele>
        <time>2025-01-16T12:22:08Z</time>
      </trkpt>
      <trkpt lat="47.55525" lon="-2.31039">
        <ele>6.4</ele>
        <time>2025-01-16T12:22:09Z</time>
      </trkpt>
      <trkpt lat="47.55524" lon="-2.31041">
        <ele>6.4</ele>
        <time>2025-01-16T12:22:10Z</time>
      </trkpt>
      <trkpt lat="47.55523" lon="-2.31043">
        <ele>6.4</ele>
        <time>2025-01-16T12:22:11Z</time>
      </trkpt>
      <trkpt lat="47.55522" lon="-2.31045">
        <ele>6.4</ele>
        <time>2025-01-16T12:22:12Z</time>
      </trkpt>
      <trkpt lat="47.55521" lon="-2.31047">
        <ele>6.3</ele>
        <time>2025-01-16T12:22:13Z</time>
      </trkpt>
      <trkpt lat="47.55521" lon="-2.31049">
        <ele>6.4</ele>
        <time>2025-01-16T12:22:14Z</time>
      </trkpt>
      <trkpt lat="47.5552" lon="-2.3105">
        <ele>6.3</ele>
        <time>2025-01-16T12:22:15Z</time>
      </trkpt>
      <trkpt lat="47.55519" lon="-2.31052">
        <ele>6.2</ele>
        <time>2025-01-16T12:22:16Z</time>
      </trkpt>
      <trkpt lat="47.55519" lon="-2.31054">
        <ele>6.3</ele>
        <time>2025-01-16T12:22:17Z</time>
      </trkpt>
      <trkpt lat="47.55518" lon="-2.31056">
        <ele>6.3</ele>
        <time>2025-01-16T12:22:18Z</time>
      </trkpt>
      <trkpt lat="47.55518" lon="-2.31058">
        <ele>6.4</ele>
        <time>2025-01-16T12:22:19Z</time>
      </trkpt>
      <trkpt lat="47.55517" lon="-2.3106">
        <ele>6.3</ele>
        <time>2025-01-16T12:22:20Z</time>
      </trkpt>
      <trkpt lat="47.55516" lon="-2.31062">
        <ele>6.1</ele>
        <time>2025-01-16T12:22:21Z</time>
      </trkpt>
      <trkpt lat="47.55515" lon="-2.31064">
        <ele>6</ele>
        <time>2025-01-16T12:22:22Z</time>
      </trkpt>
      <trkpt lat="47.55515" lon="-2.31065">
        <ele>6.1</ele>
        <time>2025-01-16T12:22:23Z</time>
      </trkpt>
      <trkpt lat="47.55514" lon="-2.31067">
        <ele>5.9</ele>
        <time>2025-01-16T12:22:24Z</time>
      </trkpt>
      <trkpt lat="47.55514" lon="-2.31069">
        <ele>6</ele>
        <time>2025-01-16T12:22:25Z</time>
      </trkpt>
      <trkpt lat="47.55514" lon="-2.3107">
        <ele>6</ele>
        <time>2025-01-16T12:22:26Z</time>
      </trkpt>
      <trkpt lat="47.55513" lon="-2.31071">
        <ele>5.9</ele>
        <time>2025-01-16T12:22:27Z</time>
      </trkpt>
      <trkpt lat="47.55512" lon="-2.31072">
        <ele>5.7</ele>
        <time>2025-01-16T12:22:28Z</time>
      </trkpt>
      <trkpt lat="47.55512" lon="-2.31074">
        <ele>5.7</ele>
        <time>2025-01-16T12:22:29Z</time>
      </trkpt>
      <trkpt lat="47.55512" lon="-2.31077">
        <ele>5.8</ele>
        <time>2025-01-16T12:22:30Z</time>
      </trkpt>
      <trkpt lat="47.55512" lon="-2.31079">
        <ele>5.9</ele>
        <time>2025-01-16T12:22:31Z</time>
      </trkpt>
      <trkpt lat="47.55511" lon="-2.31081">
        <ele>5.7</ele>
        <time>2025-01-16T12:22:32Z</time>
      </trkpt>
      <trkpt lat="47.55511" lon="-2.31083">
        <ele>5.8</ele>
        <time>2025-01-16T12:22:33Z</time>
      </trkpt>
      <trkpt lat="47.55511" lon="-2.31085">
        <ele>5.8</ele>
        <time>2025-01-16T12:22:34Z</time>
      </trkpt>
      <trkpt lat="47.5551" lon="-2.31087">
        <ele>5.6</ele>
        <time>2025-01-16T12:22:35Z</time>
      </trkpt>
      <trkpt lat="47.5551" lon="-2.31088">
        <ele>5.6</ele>
        <time>2025-01-16T12:22:36Z</time>
      </trkpt>
      <trkpt lat="47.5551" lon="-2.3109">
        <ele>5.6</ele>
        <time>2025-01-16T12:22:37Z</time>
      </trkpt>
      <trkpt lat="47.5551" lon="-2.31092">
        <ele>5.6</ele>
        <time>2025-01-16T12:22:38Z</time>
      </trkpt>
      <trkpt lat="47.5551" lon="-2.31095">
        <ele>5.7</ele>
        <time>2025-01-16T12:22:39Z</time>
      </trkpt>
      <trkpt lat="47.5551" lon="-2.31097">
        <ele>5.7</ele>
        <time>2025-01-16T12:22:40Z</time>
      </trkpt>
      <trkpt lat="47.5551" lon="-2.31099">
        <ele>5.7</ele>
        <time>2025-01-16T12:22:41Z</time>
      </trkpt>
      <trkpt lat="47.5551" lon="-2.31101">
        <ele>5.7</ele>
        <time>2025-01-16T12:22:42Z</time>
      </trkpt>
      <trkpt lat="47.5551" lon="-2.31103">
        <ele>5.8</ele>
        <time>2025-01-16T12:22:43Z</time>
      </trkpt>
      <trkpt lat="47.5551" lon="-2.31105">
        <ele>5.8</ele>
        <time>2025-01-16T12:22:44Z</time>
      </trkpt>
      <trkpt lat="47.55511" lon="-2.31107">
        <ele>6.1</ele>
        <time>2025-01-16T12:22:45Z</time>
      </trkpt>
      <trkpt lat="47.55511" lon="-2.31108">
        <ele>6.1</ele>
        <time>2025-01-16T12:22:46Z</time>
      </trkpt>
      <trkpt lat="47.55512" lon="-2.31109">
        <ele>6.4</ele>
        <time>2025-01-16T12:22:47Z</time>
      </trkpt>
      <trkpt lat="47.55513" lon="-2.31111">
        <ele>6.7</ele>
        <time>2025-01-16T12:22:48Z</time>
      </trkpt>
      <trkpt lat="47.55513" lon="-2.31112">
        <ele>6.7</ele>
        <time>2025-01-16T12:22:49Z</time>
      </trkpt>
      <trkpt lat="47.55513" lon="-2.31114">
        <ele>6.7</ele>
        <time>2025-01-16T12:22:50Z</time>
      </trkpt>
      <trkpt lat="47.55513" lon="-2.31115">
        <ele>6.7</ele>
        <time>2025-01-16T12:22:51Z</time>
      </trkpt>
      <trkpt lat="47.55513" lon="-2.31117">
        <ele>6.6</ele>
        <time>2025-01-16T12:22:52Z</time>
      </trkpt>
      <trkpt lat="47.55513" lon="-2.31118">
        <ele>6.6</ele>
        <time>2025-01-16T12:22:53Z</time>
      </trkpt>
      <trkpt lat="47.55513" lon="-2.3112">
        <ele>6.6</ele>
        <time>2025-01-16T12:22:54Z</time>
      </trkpt>
      <trkpt lat="47.55513" lon="-2.31122">
        <ele>6.6</ele>
        <time>2025-01-16T12:22:55Z</time>
      </trkpt>
      <trkpt lat="47.55513" lon="-2.31125">
        <ele>6.5</ele>
        <time>2025-01-16T12:22:56Z</time>
      </trkpt>
      <trkpt lat="47.55513" lon="-2.31127">
        <ele>6.5</ele>
        <time>2025-01-16T12:22:57Z</time>
      </trkpt>
      <trkpt lat="47.55513" lon="-2.31128">
        <ele>6.5</ele>
        <time>2025-01-16T12:22:58Z</time>
      </trkpt>
      <trkpt lat="47.55514" lon="-2.31129">
        <ele>6.7</ele>
        <time>2025-01-16T12:22:59Z</time>
      </trkpt>
      <trkpt lat="47.55514" lon="-2.31131">
        <ele>6.7</ele>
        <time>2025-01-16T12:23:00Z</time>
      </trkpt>
      <trkpt lat="47.55515" lon="-2.31133">
        <ele>6.9</ele>
        <time>2025-01-16T12:23:01Z</time>
      </trkpt>
      <trkpt lat="47.55515" lon="-2.31134">
        <ele>6.9</ele>
        <time>2025-01-16T12:23:02Z</time>
      </trkpt>
      <trkpt lat="47.55515" lon="-2.31135">
        <ele>6.9</ele>
        <time>2025-01-16T12:23:03Z</time>
      </trkpt>
      <trkpt lat="47.55516" lon="-2.31137">
        <ele>7.1</ele>
        <time>2025-01-16T12:23:04Z</time>
      </trkpt>
      <trkpt lat="47.55517" lon="-2.31139">
        <ele>7.3</ele>
        <time>2025-01-16T12:23:05Z</time>
      </trkpt>
      <trkpt lat="47.55517" lon="-2.31141">
        <ele>7.2</ele>
        <time>2025-01-16T12:23:06Z</time>
      </trkpt>
      <trkpt lat="47.55518" lon="-2.31142">
        <ele>7.5</ele>
        <time>2025-01-16T12:23:07Z</time>
      </trkpt>
      <trkpt lat="47.55518" lon="-2.31145">
        <ele>7.4</ele>
        <time>2025-01-16T12:23:08Z</time>
      </trkpt>
      <trkpt lat="47.55518" lon="-2.31147">
        <ele>7.3</ele>
        <time>2025-01-16T12:23:09Z</time>
      </trkpt>
      <trkpt lat="47.55518" lon="-2.31149">
        <ele>7.3</ele>
        <time>2025-01-16T12:23:10Z</time>
      </trkpt>
      <trkpt lat="47.55518" lon="-2.31151">
        <ele>7.3</ele>
        <time>2025-01-16T12:23:11Z</time>
      </trkpt>
      <trkpt lat="47.55518" lon="-2.31153">
        <ele>7.2</ele>
        <time>2025-01-16T12:23:12Z</time>
      </trkpt>
      <trkpt lat="47.55519" lon="-2.31155">
        <ele>7.4</ele>
        <time>2025-01-16T12:23:13Z</time>
      </trkpt>
      <trkpt lat="47.55519" lon="-2.31157">
        <ele>7.3</ele>
        <time>2025-01-16T12:23:14Z</time>
      </trkpt>
      <trkpt lat="47.55519" lon="-2.31159">
        <ele>7.3</ele>
        <time>2025-01-16T12:23:15Z</time>
      </trkpt>
      <trkpt lat="47.55519" lon="-2.31161">
        <ele>7.2</ele>
        <time>2025-01-16T12:23:16Z</time>
      </trkpt>
      <trkpt lat="47.55519" lon="-2.31163">
        <ele>7.2</ele>
        <time>2025-01-16T12:23:17Z</time>
      </trkpt>
      <trkpt lat="47.55519" lon="-2.31165">
        <ele>7.1</ele>
        <time>2025-01-16T12:23:18Z</time>
      </trkpt>
      <trkpt lat="47.55519" lon="-2.31167">
        <ele>7.1</ele>
        <time>2025-01-16T12:23:19Z</time>
      </trkpt>
      <trkpt lat="47.55519" lon="-2.3117">
        <ele>6.8</ele>
        <time>2025-01-16T12:23:20Z</time>
      </trkpt>
      <trkpt lat="47.55519" lon="-2.31172">
        <ele>6.6</ele>
        <time>2025-01-16T12:23:21Z</time>
      </trkpt>
      <trkpt lat="47.55519" lon="-2.31174">
        <ele>6.4</ele>
        <time>2025-01-16T12:23:22Z</time>
      </trkpt>
      <trkpt lat="47.55519" lon="-2.31176">
        <ele>6.2</ele>
        <time>2025-01-16T12:23:23Z</time>
      </trkpt>
      <trkpt lat="47.55519" lon="-2.31178">
        <ele>6</ele>
        <time>2025-01-16T12:23:24Z</time>
      </trkpt>
      <trkpt lat="47.5552" lon="-2.3118">
        <ele>5.9</ele>
        <time>2025-01-16T12:23:25Z</time>
      </trkpt>
      <trkpt lat="47.5552" lon="-2.31182">
        <ele>5.7</ele>
        <time>2025-01-16T12:23:26Z</time>
      </trkpt>
      <trkpt lat="47.55521" lon="-2.31183">
        <ele>5.8</ele>
        <time>2025-01-16T12:23:27Z</time>
      </trkpt>
      <trkpt lat="47.55522" lon="-2.31184">
        <ele>5.8</ele>
        <time>2025-01-16T12:23:28Z</time>
      </trkpt>
      <trkpt lat="47.55522" lon="-2.31186">
        <ele>5.5</ele>
        <time>2025-01-16T12:23:29Z</time>
      </trkpt>
      <trkpt lat="47.55522" lon="-2.31187">
        <ele>5.4</ele>
        <time>2025-01-16T12:23:30Z</time>
      </trkpt>
      <trkpt lat="47.55523" lon="-2.31188">
        <ele>5.4</ele>
        <time>2025-01-16T12:23:31Z</time>
      </trkpt>
      <trkpt lat="47.55524" lon="-2.31189">
        <ele>5.4</ele>
        <time>2025-01-16T12:23:32Z</time>
      </trkpt>
      <trkpt lat="47.55525" lon="-2.3119">
        <ele>5.4</ele>
        <time>2025-01-16T12:23:33Z</time>
      </trkpt>
      <trkpt lat="47.55525" lon="-2.31191">
        <ele>5.2</ele>
        <time>2025-01-16T12:23:34Z</time>
      </trkpt>
      <trkpt lat="47.55526" lon="-2.31192">
        <ele>5.2</ele>
        <time>2025-01-16T12:23:35Z</time>
      </trkpt>
      <trkpt lat="47.55527" lon="-2.31193">
        <ele>5.1</ele>
        <time>2025-01-16T12:23:36Z</time>
      </trkpt>
      <trkpt lat="47.55527" lon="-2.31194">
        <ele>5</ele>
        <time>2025-01-16T12:23:37Z</time>
      </trkpt>
      <trkpt lat="47.55528" lon="-2.31195">
        <ele>5</ele>
        <time>2025-01-16T12:23:38Z</time>
      </trkpt>
      <trkpt lat="47.55528" lon="-2.31197">
        <ele>4.9</ele>
        <time>2025-01-16T12:23:39Z</time>
      </trkpt>
      <trkpt lat="47.55528" lon="-2.31198">
        <ele>4.8</ele>
        <time>2025-01-16T12:23:40Z</time>
      </trkpt>
      <trkpt lat="47.55528" lon="-2.31199">
        <ele>4.7</ele>
        <time>2025-01-16T12:23:41Z</time>
      </trkpt>
      <trkpt lat="47.55529" lon="-2.31201">
        <ele>4.9</ele>
        <time>2025-01-16T12:23:42Z</time>
      </trkpt>
      <trkpt lat="47.55529" lon="-2.31203">
        <ele>4.7</ele>
        <time>2025-01-16T12:23:43Z</time>
      </trkpt>
      <trkpt lat="47.55529" lon="-2.31203">
        <ele>4.7</ele>
        <time>2025-01-16T12:23:44Z</time>
      </trkpt>
      <trkpt lat="47.5553" lon="-2.31204">
        <ele>4.9</ele>
        <time>2025-01-16T12:23:45Z</time>
      </trkpt>
      <trkpt lat="47.5553" lon="-2.31205">
        <ele>4.9</ele>
        <time>2025-01-16T12:23:46Z</time>
      </trkpt>
      <trkpt lat="47.55531" lon="-2.31208">
        <ele>4.8</ele>
        <time>2025-01-16T12:23:47Z</time>
      </trkpt>
      <trkpt lat="47.55532" lon="-2.3121">
        <ele>4.9</ele>
        <time>2025-01-16T12:23:48Z</time>
      </trkpt>
      <trkpt lat="47.55533" lon="-2.31212">
        <ele>4.9</ele>
        <time>2025-01-16T12:23:49Z</time>
      </trkpt>
      <trkpt lat="47.55534" lon="-2.31213">
        <ele>5</ele>
        <time>2025-01-16T12:23:50Z</time>
      </trkpt>
      <trkpt lat="47.55535" lon="-2.31214">
        <ele>5.1</ele>
        <time>2025-01-16T12:23:51Z</time>
      </trkpt>
      <trkpt lat="47.55536" lon="-2.31214">
        <ele>5.3</ele>
        <time>2025-01-16T12:23:52Z</time>
      </trkpt>
      <trkpt lat="47.55538" lon="-2.31214">
        <ele>5.7</ele>
        <time>2025-01-16T12:23:53Z</time>
      </trkpt>
      <trkpt lat="47.55539" lon="-2.31215">
        <ele>5.8</ele>
        <time>2025-01-16T12:23:54Z</time>
      </trkpt>
      <trkpt lat="47.5554" lon="-2.31216">
        <ele>5.8</ele>
        <time>2025-01-16T12:23:55Z</time>
      </trkpt>
      <trkpt lat="47.55541" lon="-2.31219">
        <ele>5.5</ele>
        <time>2025-01-16T12:23:56Z</time>
      </trkpt>
      <trkpt lat="47.55542" lon="-2.31221">
        <ele>5.3</ele>
        <time>2025-01-16T12:23:57Z</time>
      </trkpt>
      <trkpt lat="47.55543" lon="-2.31222">
        <ele>5.2</ele>
        <time>2025-01-16T12:23:58Z</time>
      </trkpt>
      <trkpt lat="47.55543" lon="-2.31224">
        <ele>5.1</ele>
        <time>2025-01-16T12:23:59Z</time>
      </trkpt>
      <trkpt lat="47.55544" lon="-2.31225">
        <ele>5.1</ele>
        <time>2025-01-16T12:24:00Z</time>
      </trkpt>
      <trkpt lat="47.55544" lon="-2.31227">
        <ele>4.9</ele>
        <time>2025-01-16T12:24:01Z</time>
      </trkpt>
      <trkpt lat="47.55545" lon="-2.31228">
        <ele>5</ele>
        <time>2025-01-16T12:24:02Z</time>
      </trkpt>
      <trkpt lat="47.55546" lon="-2.31228">
        <ele>5.1</ele>
        <time>2025-01-16T12:24:03Z</time>
      </trkpt>
      <trkpt lat="47.55547" lon="-2.31229">
        <ele>5.1</ele>
        <time>2025-01-16T12:24:04Z</time>
      </trkpt>
      <trkpt lat="47.55547" lon="-2.3123">
        <ele>5</ele>
        <time>2025-01-16T12:24:05Z</time>
      </trkpt>
      <trkpt lat="47.55548" lon="-2.3123">
        <ele>5.1</ele>
        <time>2025-01-16T12:24:06Z</time>
      </trkpt>
      <trkpt lat="47.55549" lon="-2.31231">
        <ele>5.1</ele>
        <time>2025-01-16T12:24:07Z</time>
      </trkpt>
      <trkpt lat="47.5555" lon="-2.31232">
        <ele>5.1</ele>
        <time>2025-01-16T12:24:08Z</time>
      </trkpt>
      <trkpt lat="47.55551" lon="-2.31233">
        <ele>5</ele>
        <time>2025-01-16T12:24:09Z</time>
      </trkpt>
      <trkpt lat="47.55551" lon="-2.31234">
        <ele>4.9</ele>
        <time>2025-01-16T12:24:10Z</time>
      </trkpt>
      <trkpt lat="47.55552" lon="-2.31235">
        <ele>4.9</ele>
        <time>2025-01-16T12:24:11Z</time>
      </trkpt>
      <trkpt lat="47.55553" lon="-2.31236">
        <ele>4.8</ele>
        <time>2025-01-16T12:24:12Z</time>
      </trkpt>
      <trkpt lat="47.55553" lon="-2.31237">
        <ele>4.7</ele>
        <time>2025-01-16T12:24:13Z</time>
      </trkpt>
      <trkpt lat="47.55554" lon="-2.31238">
        <ele>4.6</ele>
        <time>2025-01-16T12:24:14Z</time>
      </trkpt>
      <trkpt lat="47.55555" lon="-2.31239">
        <ele>4.6</ele>
        <time>2025-01-16T12:24:15Z</time>
      </trkpt>
      <trkpt lat="47.55556" lon="-2.31241">
        <ele>4.5</ele>
        <time>2025-01-16T12:24:16Z</time>
      </trkpt>
      <trkpt lat="47.55557" lon="-2.31242">
        <ele>4.8</ele>
        <time>2025-01-16T12:24:17Z</time>
      </trkpt>
      <trkpt lat="47.55558" lon="-2.31244">
        <ele>4.9</ele>
        <time>2025-01-16T12:24:18Z</time>
      </trkpt>
      <trkpt lat="47.55558" lon="-2.31245">
        <ele>4.8</ele>
        <time>2025-01-16T12:24:19Z</time>
      </trkpt>
      <trkpt lat="47.55559" lon="-2.31245">
        <ele>5.2</ele>
        <time>2025-01-16T12:24:20Z</time>
      </trkpt>
      <trkpt lat="47.5556" lon="-2.31247">
        <ele>5.3</ele>
        <time>2025-01-16T12:24:21Z</time>
      </trkpt>
      <trkpt lat="47.55561" lon="-2.31248">
        <ele>5.5</ele>
        <time>2025-01-16T12:24:22Z</time>
      </trkpt>
      <trkpt lat="47.55562" lon="-2.3125">
        <ele>5.6</ele>
        <time>2025-01-16T12:24:23Z</time>
      </trkpt>
      <trkpt lat="47.55563" lon="-2.31252">
        <ele>5.9</ele>
        <time>2025-01-16T12:24:24Z</time>
      </trkpt>
      <trkpt lat="47.55564" lon="-2.31254">
        <ele>6.2</ele>
        <time>2025-01-16T12:24:25Z</time>
      </trkpt>
      <trkpt lat="47.55565" lon="-2.31257">
        <ele>6.4</ele>
        <time>2025-01-16T12:24:26Z</time>
      </trkpt>
      <trkpt lat="47.55566" lon="-2.31259">
        <ele>6.6</ele>
        <time>2025-01-16T12:24:27Z</time>
      </trkpt>
      <trkpt lat="47.55567" lon="-2.31262">
        <ele>6.8</ele>
        <time>2025-01-16T12:24:28Z</time>
      </trkpt>
      <trkpt lat="47.55568" lon="-2.31264">
        <ele>7</ele>
        <time>2025-01-16T12:24:29Z</time>
      </trkpt>
      <trkpt lat="47.55568" lon="-2.31266">
        <ele>6.9</ele>
        <time>2025-01-16T12:24:30Z</time>
      </trkpt>
      <trkpt lat="47.55568" lon="-2.31267">
        <ele>6.8</ele>
        <time>2025-01-16T12:24:31Z</time>
      </trkpt>
      <trkpt lat="47.55568" lon="-2.31268">
        <ele>6.8</ele>
        <time>2025-01-16T12:24:32Z</time>
      </trkpt>
      <trkpt lat="47.55569" lon="-2.3127">
        <ele>6.9</ele>
        <time>2025-01-16T12:24:33Z</time>
      </trkpt>
      <trkpt lat="47.55569" lon="-2.31271">
        <ele>6.9</ele>
        <time>2025-01-16T12:24:34Z</time>
      </trkpt>
      <trkpt lat="47.5557" lon="-2.31274">
        <ele>6.9</ele>
        <time>2025-01-16T12:24:35Z</time>
      </trkpt>
      <trkpt lat="47.5557" lon="-2.31275">
        <ele>6.8</ele>
        <time>2025-01-16T12:24:36Z</time>
      </trkpt>
      <trkpt lat="47.5557" lon="-2.31276">
        <ele>6.8</ele>
        <time>2025-01-16T12:24:37Z</time>
      </trkpt>
      <trkpt lat="47.5557" lon="-2.31278">
        <ele>6.6</ele>
        <time>2025-01-16T12:24:38Z</time>
      </trkpt>
      <trkpt lat="47.55571" lon="-2.3128">
        <ele>6.8</ele>
        <time>2025-01-16T12:24:39Z</time>
      </trkpt>
      <trkpt lat="47.55571" lon="-2.31281">
        <ele>6.8</ele>
        <time>2025-01-16T12:24:40Z</time>
      </trkpt>
      <trkpt lat="47.55572" lon="-2.31283">
        <ele>7</ele>
        <time>2025-01-16T12:24:41Z</time>
      </trkpt>
      <trkpt lat="47.55572" lon="-2.31285">
        <ele>7</ele>
        <time>2025-01-16T12:24:42Z</time>
      </trkpt>
      <trkpt lat="47.55572" lon="-2.31287">
        <ele>6.9</ele>
        <time>2025-01-16T12:24:43Z</time>
      </trkpt>
      <trkpt lat="47.55573" lon="-2.31289">
        <ele>7.1</ele>
        <time>2025-01-16T12:24:44Z</time>
      </trkpt>
      <trkpt lat="47.55573" lon="-2.31291">
        <ele>7.1</ele>
        <time>2025-01-16T12:24:45Z</time>
      </trkpt>
      <trkpt lat="47.55574" lon="-2.31294">
        <ele>7.3</ele>
        <time>2025-01-16T12:24:46Z</time>
      </trkpt>
      <trkpt lat="47.55575" lon="-2.31295">
        <ele>7.5</ele>
        <time>2025-01-16T12:24:47Z</time>
      </trkpt>
      <trkpt lat="47.55575" lon="-2.31297">
        <ele>7.4</ele>
        <time>2025-01-16T12:24:48Z</time>
      </trkpt>
      <trkpt lat="47.55576" lon="-2.31298">
        <ele>7.6</ele>
        <time>2025-01-16T12:24:49Z</time>
      </trkpt>
      <trkpt lat="47.55576" lon="-2.313">
        <ele>7.6</ele>
        <time>2025-01-16T12:24:50Z</time>
      </trkpt>
      <trkpt lat="47.55576" lon="-2.31302">
        <ele>7.5</ele>
        <time>2025-01-16T12:24:51Z</time>
      </trkpt>
      <trkpt lat="47.55576" lon="-2.31304">
        <ele>7.5</ele>
        <time>2025-01-16T12:24:52Z</time>
      </trkpt>
      <trkpt lat="47.55576" lon="-2.31305">
        <ele>7.4</ele>
        <time>2025-01-16T12:24:53Z</time>
      </trkpt>
      <trkpt lat="47.55575" lon="-2.31307">
        <ele>7.2</ele>
        <time>2025-01-16T12:24:54Z</time>
      </trkpt>
      <trkpt lat="47.55575" lon="-2.31309">
        <ele>7.3</ele>
        <time>2025-01-16T12:24:55Z</time>
      </trkpt>
      <trkpt lat="47.55574" lon="-2.31312">
        <ele>7.1</ele>
        <time>2025-01-16T12:24:56Z</time>
      </trkpt>
      <trkpt lat="47.55573" lon="-2.31314">
        <ele>7</ele>
        <time>2025-01-16T12:24:57Z</time>
      </trkpt>
      <trkpt lat="47.55572" lon="-2.31316">
        <ele>6.8</ele>
        <time>2025-01-16T12:24:58Z</time>
      </trkpt>
      <trkpt lat="47.55572" lon="-2.31317">
        <ele>6.8</ele>
        <time>2025-01-16T12:24:59Z</time>
      </trkpt>
      <trkpt lat="47.55571" lon="-2.31319">
        <ele>6.6</ele>
        <time>2025-01-16T12:25:00Z</time>
      </trkpt>
      <trkpt lat="47.5557" lon="-2.3132">
        <ele>6.4</ele>
        <time>2025-01-16T12:25:01Z</time>
      </trkpt>
      <trkpt lat="47.5557" lon="-2.31321">
        <ele>6.4</ele>
        <time>2025-01-16T12:25:02Z</time>
      </trkpt>
      <trkpt lat="47.5557" lon="-2.31323">
        <ele>6.4</ele>
        <time>2025-01-16T12:25:03Z</time>
      </trkpt>
      <trkpt lat="47.5557" lon="-2.31326">
        <ele>6.5</ele>
        <time>2025-01-16T12:25:04Z</time>
      </trkpt>
      <trkpt lat="47.5557" lon="-2.31328">
        <ele>6.5</ele>
        <time>2025-01-16T12:25:05Z</time>
      </trkpt>
      <trkpt lat="47.5557" lon="-2.3133">
        <ele>6.6</ele>
        <time>2025-01-16T12:25:06Z</time>
      </trkpt>
      <trkpt lat="47.5557" lon="-2.31332">
        <ele>6.6</ele>
        <time>2025-01-16T12:25:07Z</time>
      </trkpt>
      <trkpt lat="47.5557" lon="-2.31334">
        <ele>6.7</ele>
        <time>2025-01-16T12:25:08Z</time>
      </trkpt>
      <trkpt lat="47.5557" lon="-2.31335">
        <ele>6.7</ele>
        <time>2025-01-16T12:25:09Z</time>
      </trkpt>
      <trkpt lat="47.5557" lon="-2.31337">
        <ele>6.7</ele>
        <time>2025-01-16T12:25:10Z</time>
      </trkpt>
      <trkpt lat="47.55569" lon="-2.31338">
        <ele>6.5</ele>
        <time>2025-01-16T12:25:11Z</time>
      </trkpt>
      <trkpt lat="47.55569" lon="-2.3134">
        <ele>6.5</ele>
        <time>2025-01-16T12:25:12Z</time>
      </trkpt>
      <trkpt lat="47.55568" lon="-2.31341">
        <ele>6.3</ele>
        <time>2025-01-16T12:25:13Z</time>
      </trkpt>
      <trkpt lat="47.55567" lon="-2.31342">
        <ele>6</ele>
        <time>2025-01-16T12:25:14Z</time>
      </trkpt>
      <trkpt lat="47.55567" lon="-2.31344">
        <ele>6</ele>
        <time>2025-01-16T12:25:15Z</time>
      </trkpt>
      <trkpt lat="47.55567" lon="-2.31347">
        <ele>6.1</ele>
        <time>2025-01-16T12:25:16Z</time>
      </trkpt>
      <trkpt lat="47.55566" lon="-2.31349">
        <ele>5.8</ele>
        <time>2025-01-16T12:25:17Z</time>
      </trkpt>
      <trkpt lat="47.55566" lon="-2.31351">
        <ele>5.9</ele>
        <time>2025-01-16T12:25:18Z</time>
      </trkpt>
      <trkpt lat="47.55566" lon="-2.31353">
        <ele>5.9</ele>
        <time>2025-01-16T12:25:19Z</time>
      </trkpt>
      <trkpt lat="47.55566" lon="-2.31355">
        <ele>5.9</ele>
        <time>2025-01-16T12:25:20Z</time>
      </trkpt>
      <trkpt lat="47.55566" lon="-2.31357">
        <ele>6</ele>
        <time>2025-01-16T12:25:21Z</time>
      </trkpt>
      <trkpt lat="47.55566" lon="-2.31359">
        <ele>6</ele>
        <time>2025-01-16T12:25:22Z</time>
      </trkpt>
      <trkpt lat="47.55566" lon="-2.3136">
        <ele>6</ele>
        <time>2025-01-16T12:25:23Z</time>
      </trkpt>
      <trkpt lat="47.55566" lon="-2.31361">
        <ele>6</ele>
        <time>2025-01-16T12:25:24Z</time>
      </trkpt>
      <trkpt lat="47.55565" lon="-2.31362">
        <ele>5.8</ele>
        <time>2025-01-16T12:25:25Z</time>
      </trkpt>
      <trkpt lat="47.55565" lon="-2.31364">
        <ele>5.9</ele>
        <time>2025-01-16T12:25:26Z</time>
      </trkpt>
      <trkpt lat="47.55564" lon="-2.31366">
        <ele>5.7</ele>
        <time>2025-01-16T12:25:27Z</time>
      </trkpt>
      <trkpt lat="47.55564" lon="-2.31368">
        <ele>5.8</ele>
        <time>2025-01-16T12:25:28Z</time>
      </trkpt>
      <trkpt lat="47.55563" lon="-2.31369">
        <ele>5.5</ele>
        <time>2025-01-16T12:25:29Z</time>
      </trkpt>
      <trkpt lat="47.55563" lon="-2.31371">
        <ele>5.6</ele>
        <time>2025-01-16T12:25:30Z</time>
      </trkpt>
      <trkpt lat="47.55563" lon="-2.31372">
        <ele>5.6</ele>
        <time>2025-01-16T12:25:31Z</time>
      </trkpt>
      <trkpt lat="47.55563" lon="-2.31374">
        <ele>5.7</ele>
        <time>2025-01-16T12:25:32Z</time>
      </trkpt>
      <trkpt lat="47.55563" lon="-2.31377">
        <ele>5.9</ele>
        <time>2025-01-16T12:25:33Z</time>
      </trkpt>
      <trkpt lat="47.55562" lon="-2.31379">
        <ele>5.6</ele>
        <time>2025-01-16T12:25:34Z</time>
      </trkpt>
      <trkpt lat="47.55562" lon="-2.31381">
        <ele>5.7</ele>
        <time>2025-01-16T12:25:35Z</time>
      </trkpt>
      <trkpt lat="47.55562" lon="-2.31383">
        <ele>5.8</ele>
        <time>2025-01-16T12:25:36Z</time>
      </trkpt>
      <trkpt lat="47.55562" lon="-2.31384">
        <ele>5.9</ele>
        <time>2025-01-16T12:25:37Z</time>
      </trkpt>
      <trkpt lat="47.55562" lon="-2.31385">
        <ele>5.9</ele>
        <time>2025-01-16T12:25:38Z</time>
      </trkpt>
      <trkpt lat="47.55562" lon="-2.31386">
        <ele>6</ele>
        <time>2025-01-16T12:25:39Z</time>
      </trkpt>
      <trkpt lat="47.55562" lon="-2.31387">
        <ele>6</ele>
        <time>2025-01-16T12:25:40Z</time>
      </trkpt>
      <trkpt lat="47.55563" lon="-2.31387">
        <ele>6.3</ele>
        <time>2025-01-16T12:25:41Z</time>
      </trkpt>
      <trkpt lat="47.55563" lon="-2.31388">
        <ele>6.4</ele>
        <time>2025-01-16T12:25:42Z</time>
      </trkpt>
      <trkpt lat="47.55563" lon="-2.3139">
        <ele>6.5</ele>
        <time>2025-01-16T12:25:43Z</time>
      </trkpt>
      <trkpt lat="47.55563" lon="-2.31392">
        <ele>6.5</ele>
        <time>2025-01-16T12:25:44Z</time>
      </trkpt>
      <trkpt lat="47.55563" lon="-2.31393">
        <ele>6.6</ele>
        <time>2025-01-16T12:25:45Z</time>
      </trkpt>
      <trkpt lat="47.55563" lon="-2.31395">
        <ele>6.6</ele>
        <time>2025-01-16T12:25:46Z</time>
      </trkpt>
      <trkpt lat="47.55563" lon="-2.31396">
        <ele>6.7</ele>
        <time>2025-01-16T12:25:47Z</time>
      </trkpt>
      <trkpt lat="47.55563" lon="-2.31397">
        <ele>6.7</ele>
        <time>2025-01-16T12:25:48Z</time>
      </trkpt>
      <trkpt lat="47.55563" lon="-2.31399">
        <ele>6.8</ele>
        <time>2025-01-16T12:25:49Z</time>
      </trkpt>
      <trkpt lat="47.55564" lon="-2.314">
        <ele>7.1</ele>
        <time>2025-01-16T12:25:50Z</time>
      </trkpt>
      <trkpt lat="47.55564" lon="-2.31402">
        <ele>7.2</ele>
        <time>2025-01-16T12:25:51Z</time>
      </trkpt>
      <trkpt lat="47.55563" lon="-2.31404">
        <ele>7</ele>
        <time>2025-01-16T12:25:52Z</time>
      </trkpt>
      <trkpt lat="47.55563" lon="-2.31406">
        <ele>7</ele>
        <time>2025-01-16T12:25:53Z</time>
      </trkpt>
      <trkpt lat="47.55563" lon="-2.31408">
        <ele>7.1</ele>
        <time>2025-01-16T12:25:54Z</time>
      </trkpt>
      <trkpt lat="47.55563" lon="-2.3141">
        <ele>7.2</ele>
        <time>2025-01-16T12:25:55Z</time>
      </trkpt>
      <trkpt lat="47.55563" lon="-2.31412">
        <ele>7.2</ele>
        <time>2025-01-16T12:25:56Z</time>
      </trkpt>
      <trkpt lat="47.55562" lon="-2.31414">
        <ele>7</ele>
        <time>2025-01-16T12:25:57Z</time>
      </trkpt>
      <trkpt lat="47.55561" lon="-2.31416">
        <ele>6.7</ele>
        <time>2025-01-16T12:25:58Z</time>
      </trkpt>
      <trkpt lat="47.55561" lon="-2.31418">
        <ele>6.8</ele>
        <time>2025-01-16T12:25:59Z</time>
      </trkpt>
      <trkpt lat="47.55561" lon="-2.31421">
        <ele>7</ele>
        <time>2025-01-16T12:26:00Z</time>
      </trkpt>
      <trkpt lat="47.5556" lon="-2.31423">
        <ele>6.7</ele>
        <time>2025-01-16T12:26:01Z</time>
      </trkpt>
      <trkpt lat="47.5556" lon="-2.31426">
        <ele>6.8</ele>
        <time>2025-01-16T12:26:02Z</time>
      </trkpt>
      <trkpt lat="47.55559" lon="-2.31427">
        <ele>6.5</ele>
        <time>2025-01-16T12:26:03Z</time>
      </trkpt>
      <trkpt lat="47.55559" lon="-2.31428">
        <ele>6.6</ele>
        <time>2025-01-16T12:26:04Z</time>
      </trkpt>
      <trkpt lat="47.55559" lon="-2.31428">
        <ele>6.6</ele>
        <time>2025-01-16T12:26:05Z</time>
      </trkpt>
      <trkpt lat="47.55559" lon="-2.3143">
        <ele>6.7</ele>
        <time>2025-01-16T12:26:06Z</time>
      </trkpt>
      <trkpt lat="47.55559" lon="-2.31431">
        <ele>6.7</ele>
        <time>2025-01-16T12:26:07Z</time>
      </trkpt>
      <trkpt lat="47.55559" lon="-2.31432">
        <ele>6.7</ele>
        <time>2025-01-16T12:26:08Z</time>
      </trkpt>
      <trkpt lat="47.5556" lon="-2.31434">
        <ele>7.2</ele>
        <time>2025-01-16T12:26:09Z</time>
      </trkpt>
      <trkpt lat="47.55559" lon="-2.31435">
        <ele>6.9</ele>
        <time>2025-01-16T12:26:10Z</time>
      </trkpt>
      <trkpt lat="47.55559" lon="-2.31437">
        <ele>6.9</ele>
        <time>2025-01-16T12:26:11Z</time>
      </trkpt>
      <trkpt lat="47.55558" lon="-2.31439">
        <ele>6.7</ele>
        <time>2025-01-16T12:26:12Z</time>
      </trkpt>
      <trkpt lat="47.55558" lon="-2.31441">
        <ele>6.7</ele>
        <time>2025-01-16T12:26:13Z</time>
      </trkpt>
      <trkpt lat="47.55557" lon="-2.31443">
        <ele>6.5</ele>
        <time>2025-01-16T12:26:14Z</time>
      </trkpt>
      <trkpt lat="47.55557" lon="-2.31444">
        <ele>6.5</ele>
        <time>2025-01-16T12:26:15Z</time>
      </trkpt>
      <trkpt lat="47.55558" lon="-2.31446">
        <ele>6.8</ele>
        <time>2025-01-16T12:26:16Z</time>
      </trkpt>
      <trkpt lat="47.55558" lon="-2.31447">
        <ele>6.8</ele>
        <time>2025-01-16T12:26:17Z</time>
      </trkpt>
      <trkpt lat="47.55558" lon="-2.31449">
        <ele>6.7</ele>
        <time>2025-01-16T12:26:18Z</time>
      </trkpt>
      <trkpt lat="47.55558" lon="-2.31451">
        <ele>6.7</ele>
        <time>2025-01-16T12:26:19Z</time>
      </trkpt>
      <trkpt lat="47.55558" lon="-2.31452">
        <ele>6.7</ele>
        <time>2025-01-16T12:26:20Z</time>
      </trkpt>
      <trkpt lat="47.55558" lon="-2.31455">
        <ele>6.6</ele>
        <time>2025-01-16T12:26:21Z</time>
      </trkpt>
      <trkpt lat="47.55558" lon="-2.31457">
        <ele>6.5</ele>
        <time>2025-01-16T12:26:22Z</time>
      </trkpt>
      <trkpt lat="47.55558" lon="-2.31459">
        <ele>6.4</ele>
        <time>2025-01-16T12:26:23Z</time>
      </trkpt>
      <trkpt lat="47.55558" lon="-2.3146">
        <ele>6.4</ele>
        <time>2025-01-16T12:26:24Z</time>
      </trkpt>
      <trkpt lat="47.55558" lon="-2.31462">
        <ele>6.4</ele>
        <time>2025-01-16T12:26:25Z</time>
      </trkpt>
      <trkpt lat="47.55557" lon="-2.31464">
        <ele>5.9</ele>
        <time>2025-01-16T12:26:26Z</time>
      </trkpt>
      <trkpt lat="47.55557" lon="-2.31467">
        <ele>5.8</ele>
        <time>2025-01-16T12:26:27Z</time>
      </trkpt>
      <trkpt lat="47.55556" lon="-2.31469">
        <ele>5.3</ele>
        <time>2025-01-16T12:26:28Z</time>
      </trkpt>
      <trkpt lat="47.55556" lon="-2.3147">
        <ele>5.3</ele>
        <time>2025-01-16T12:26:29Z</time>
      </trkpt>
      <trkpt lat="47.55556" lon="-2.31471">
        <ele>5.2</ele>
        <time>2025-01-16T12:26:30Z</time>
      </trkpt>
      <trkpt lat="47.55555" lon="-2.31472">
        <ele>5</ele>
        <time>2025-01-16T12:26:31Z</time>
      </trkpt>
      <trkpt lat="47.55555" lon="-2.31474">
        <ele>5</ele>
        <time>2025-01-16T12:26:32Z</time>
      </trkpt>
      <trkpt lat="47.55555" lon="-2.31476">
        <ele>5</ele>
        <time>2025-01-16T12:26:33Z</time>
      </trkpt>
      <trkpt lat="47.55555" lon="-2.31477">
        <ele>5</ele>
        <time>2025-01-16T12:26:34Z</time>
      </trkpt>
      <trkpt lat="47.55555" lon="-2.31479">
        <ele>5</ele>
        <time>2025-01-16T12:26:35Z</time>
      </trkpt>
      <trkpt lat="47.55555" lon="-2.3148">
        <ele>5</ele>
        <time>2025-01-16T12:26:36Z</time>
      </trkpt>
      <trkpt lat="47.55555" lon="-2.31483">
        <ele>5</ele>
        <time>2025-01-16T12:26:37Z</time>
      </trkpt>
      <trkpt lat="47.55555" lon="-2.31485">
        <ele>5</ele>
        <time>2025-01-16T12:26:38Z</time>
      </trkpt>
      <trkpt lat="47.55555" lon="-2.31487">
        <ele>5</ele>
        <time>2025-01-16T12:26:39Z</time>
      </trkpt>
      <trkpt lat="47.55555" lon="-2.3149">
        <ele>5</ele>
        <time>2025-01-16T12:26:40Z</time>
      </trkpt>
      <trkpt lat="47.55555" lon="-2.31493">
        <ele>5</ele>
        <time>2025-01-16T12:26:41Z</time>
      </trkpt>
      <trkpt lat="47.55555" lon="-2.31495">
        <ele>5</ele>
        <time>2025-01-16T12:26:42Z</time>
      </trkpt>
      <trkpt lat="47.55555" lon="-2.31496">
        <ele>5</ele>
        <time>2025-01-16T12:26:43Z</time>
      </trkpt>
      <trkpt lat="47.55555" lon="-2.31499">
        <ele>5</ele>
        <time>2025-01-16T12:26:44Z</time>
      </trkpt>
      <trkpt lat="47.55556" lon="-2.31502">
        <ele>5.2</ele>
        <time>2025-01-16T12:26:45Z</time>
      </trkpt>
      <trkpt lat="47.55556" lon="-2.31505">
        <ele>5.2</ele>
        <time>2025-01-16T12:26:46Z</time>
      </trkpt>
      <trkpt lat="47.55556" lon="-2.31507">
        <ele>5.2</ele>
        <time>2025-01-16T12:26:47Z</time>
      </trkpt>
      <trkpt lat="47.55556" lon="-2.31509">
        <ele>5.2</ele>
        <time>2025-01-16T12:26:48Z</time>
      </trkpt>
      <trkpt lat="47.55556" lon="-2.31511">
        <ele>5.2</ele>
        <time>2025-01-16T12:26:49Z</time>
      </trkpt>
      <trkpt lat="47.55556" lon="-2.31513">
        <ele>5.2</ele>
        <time>2025-01-16T12:26:50Z</time>
      </trkpt>
      <trkpt lat="47.55556" lon="-2.31516">
        <ele>5.2</ele>
        <time>2025-01-16T12:26:51Z</time>
      </trkpt>
      <trkpt lat="47.55555" lon="-2.31518">
        <ele>5</ele>
        <time>2025-01-16T12:26:52Z</time>
      </trkpt>
      <trkpt lat="47.55555" lon="-2.3152">
        <ele>5</ele>
        <time>2025-01-16T12:26:53Z</time>
      </trkpt>
      <trkpt lat="47.55554" lon="-2.31523">
        <ele>4.9</ele>
        <time>2025-01-16T12:26:54Z</time>
      </trkpt>
      <trkpt lat="47.55554" lon="-2.31525">
        <ele>4.9</ele>
        <time>2025-01-16T12:26:55Z</time>
      </trkpt>
      <trkpt lat="47.55554" lon="-2.31525">
        <ele>4.9</ele>
        <time>2025-01-16T12:26:56Z</time>
      </trkpt>
      <trkpt lat="47.55554" lon="-2.31526">
        <ele>4.9</ele>
        <time>2025-01-16T12:26:57Z</time>
      </trkpt>
      <trkpt lat="47.55554" lon="-2.31529">
        <ele>4.9</ele>
        <time>2025-01-16T12:26:58Z</time>
      </trkpt>
      <trkpt lat="47.55554" lon="-2.31532">
        <ele>4.9</ele>
        <time>2025-01-16T12:26:59Z</time>
      </trkpt>
      <trkpt lat="47.55554" lon="-2.31535">
        <ele>4.9</ele>
        <time>2025-01-16T12:27:00Z</time>
      </trkpt>
      <trkpt lat="47.55554" lon="-2.31537">
        <ele>4.9</ele>
        <time>2025-01-16T12:27:01Z</time>
      </trkpt>
      <trkpt lat="47.55554" lon="-2.31539">
        <ele>4.9</ele>
        <time>2025-01-16T12:27:02Z</time>
      </trkpt>
      <trkpt lat="47.55554" lon="-2.31542">
        <ele>4.9</ele>
        <time>2025-01-16T12:27:03Z</time>
      </trkpt>
      <trkpt lat="47.55554" lon="-2.31544">
        <ele>4.9</ele>
        <time>2025-01-16T12:27:04Z</time>
      </trkpt>
      <trkpt lat="47.55555" lon="-2.31545">
        <ele>5</ele>
        <time>2025-01-16T12:27:05Z</time>
      </trkpt>
      <trkpt lat="47.55555" lon="-2.31546">
        <ele>5</ele>
        <time>2025-01-16T12:27:06Z</time>
      </trkpt>
      <trkpt lat="47.55555" lon="-2.31547">
        <ele>5</ele>
        <time>2025-01-16T12:27:07Z</time>
      </trkpt>
      <trkpt lat="47.55556" lon="-2.31548">
        <ele>5.1</ele>
        <time>2025-01-16T12:27:08Z</time>
      </trkpt>
      <trkpt lat="47.55556" lon="-2.31548">
        <ele>5.1</ele>
        <time>2025-01-16T12:27:09Z</time>
      </trkpt>
      <trkpt lat="47.55556" lon="-2.3155">
        <ele>5.1</ele>
        <time>2025-01-16T12:27:10Z</time>
      </trkpt>
      <trkpt lat="47.55557" lon="-2.31552">
        <ele>5.4</ele>
        <time>2025-01-16T12:27:11Z</time>
      </trkpt>
      <trkpt lat="47.55557" lon="-2.31553">
        <ele>5.4</ele>
        <time>2025-01-16T12:27:12Z</time>
      </trkpt>
      <trkpt lat="47.55557" lon="-2.31553">
        <ele>5.4</ele>
        <time>2025-01-16T12:27:13Z</time>
      </trkpt>
      <trkpt lat="47.55557" lon="-2.31554">
        <ele>5.4</ele>
        <time>2025-01-16T12:27:14Z</time>
      </trkpt>
      <trkpt lat="47.55557" lon="-2.31554">
        <ele>5.4</ele>
        <time>2025-01-16T12:27:15Z</time>
      </trkpt>
      <trkpt lat="47.55557" lon="-2.31554">
        <ele>5.4</ele>
        <time>2025-01-16T12:27:16Z</time>
      </trkpt>
      <trkpt lat="47.55557" lon="-2.31555">
        <ele>5.4</ele>
        <time>2025-01-16T12:27:17Z</time>
      </trkpt>
      <trkpt lat="47.55557" lon="-2.31555">
        <ele>5.4</ele>
        <time>2025-01-16T12:27:18Z</time>
      </trkpt>
      <trkpt lat="47.55557" lon="-2.31555">
        <ele>5.4</ele>
        <time>2025-01-16T12:27:19Z</time>
      </trkpt>
      <trkpt lat="47.55557" lon="-2.31555">
        <ele>5.4</ele>
        <time>2025-01-16T12:27:20Z</time>
      </trkpt>
      <trkpt lat="47.55557" lon="-2.31556">
        <ele>5.4</ele>
        <time>2025-01-16T12:27:21Z</time>
      </trkpt>
      <trkpt lat="47.55557" lon="-2.31556">
        <ele>5.4</ele>
        <time>2025-01-16T12:27:22Z</time>
      </trkpt>
      <trkpt lat="47.55557" lon="-2.31556">
        <ele>5.4</ele>
        <time>2025-01-16T12:27:23Z</time>
      </trkpt>
      <trkpt lat="47.55557" lon="-2.31557">
        <ele>5.4</ele>
        <time>2025-01-16T12:27:24Z</time>
      </trkpt>
      <trkpt lat="47.55557" lon="-2.31557">
        <ele>5.4</ele>
        <time>2025-01-16T12:27:25Z</time>
      </trkpt>
      <trkpt lat="47.55557" lon="-2.31559">
        <ele>5.3</ele>
        <time>2025-01-16T12:27:26Z</time>
      </trkpt>
      <trkpt lat="47.55557" lon="-2.31561">
        <ele>5.2</ele>
        <time>2025-01-16T12:27:27Z</time>
      </trkpt>
      <trkpt lat="47.55557" lon="-2.31563">
        <ele>5.1</ele>
        <time>2025-01-16T12:27:28Z</time>
      </trkpt>
      <trkpt lat="47.55558" lon="-2.31565">
        <ele>5.3</ele>
        <time>2025-01-16T12:27:29Z</time>
      </trkpt>
      <trkpt lat="47.55558" lon="-2.31567">
        <ele>5.3</ele>
        <time>2025-01-16T12:27:30Z</time>
      </trkpt>
      <trkpt lat="47.55558" lon="-2.31569">
        <ele>5.2</ele>
        <time>2025-01-16T12:27:31Z</time>
      </trkpt>
      <trkpt lat="47.55558" lon="-2.3157">
        <ele>5.1</ele>
        <time>2025-01-16T12:27:32Z</time>
      </trkpt>
      <trkpt lat="47.55559" lon="-2.31572">
        <ele>5.3</ele>
        <time>2025-01-16T12:27:33Z</time>
      </trkpt>
      <trkpt lat="47.5556" lon="-2.31574">
        <ele>5.5</ele>
        <time>2025-01-16T12:27:34Z</time>
      </trkpt>
      <trkpt lat="47.55561" lon="-2.31576">
        <ele>5.7</ele>
        <time>2025-01-16T12:27:35Z</time>
      </trkpt>
      <trkpt lat="47.55561" lon="-2.31577">
        <ele>5.6</ele>
        <time>2025-01-16T12:27:36Z</time>
      </trkpt>
      <trkpt lat="47.55562" lon="-2.31578">
        <ele>5.9</ele>
        <time>2025-01-16T12:27:37Z</time>
      </trkpt>
      <trkpt lat="47.55562" lon="-2.31579">
        <ele>5.8</ele>
        <time>2025-01-16T12:27:38Z</time>
      </trkpt>
      <trkpt lat="47.55563" lon="-2.3158">
        <ele>6</ele>
        <time>2025-01-16T12:27:39Z</time>
      </trkpt>
      <trkpt lat="47.55563" lon="-2.31581">
        <ele>6</ele>
        <time>2025-01-16T12:27:40Z</time>
      </trkpt>
      <trkpt lat="47.55563" lon="-2.31583">
        <ele>5.9</ele>
        <time>2025-01-16T12:27:41Z</time>
      </trkpt>
      <trkpt lat="47.55563" lon="-2.31584">
        <ele>5.9</ele>
        <time>2025-01-16T12:27:42Z</time>
      </trkpt>
      <trkpt lat="47.55564" lon="-2.31585">
        <ele>6.1</ele>
        <time>2025-01-16T12:27:43Z</time>
      </trkpt>
      <trkpt lat="47.55564" lon="-2.31587">
        <ele>6.2</ele>
        <time>2025-01-16T12:27:44Z</time>
      </trkpt>
      <trkpt lat="47.55564" lon="-2.31588">
        <ele>6.2</ele>
        <time>2025-01-16T12:27:45Z</time>
      </trkpt>
      <trkpt lat="47.55565" lon="-2.3159">
        <ele>6.5</ele>
        <time>2025-01-16T12:27:46Z</time>
      </trkpt>
      <trkpt lat="47.55565" lon="-2.31592">
        <ele>6.5</ele>
        <time>2025-01-16T12:27:47Z</time>
      </trkpt>
      <trkpt lat="47.55566" lon="-2.31593">
        <ele>6.8</ele>
        <time>2025-01-16T12:27:48Z</time>
      </trkpt>
      <trkpt lat="47.55567" lon="-2.31595">
        <ele>7.1</ele>
        <time>2025-01-16T12:27:49Z</time>
      </trkpt>
      <trkpt lat="47.55567" lon="-2.31596">
        <ele>7.1</ele>
        <time>2025-01-16T12:27:50Z</time>
      </trkpt>
      <trkpt lat="47.55568" lon="-2.31596">
        <ele>7.3</ele>
        <time>2025-01-16T12:27:51Z</time>
      </trkpt>
      <trkpt lat="47.55568" lon="-2.31597">
        <ele>7.4</ele>
        <time>2025-01-16T12:27:52Z</time>
      </trkpt>
      <trkpt lat="47.55568" lon="-2.31598">
        <ele>7.4</ele>
        <time>2025-01-16T12:27:53Z</time>
      </trkpt>
      <trkpt lat="47.55568" lon="-2.316">
        <ele>7.4</ele>
        <time>2025-01-16T12:27:54Z</time>
      </trkpt>
      <trkpt lat="47.55569" lon="-2.31601">
        <ele>7.7</ele>
        <time>2025-01-16T12:27:55Z</time>
      </trkpt>
      <trkpt lat="47.55569" lon="-2.31602">
        <ele>7.7</ele>
        <time>2025-01-16T12:27:56Z</time>
      </trkpt>
      <trkpt lat="47.55569" lon="-2.31604">
        <ele>7.7</ele>
        <time>2025-01-16T12:27:57Z</time>
      </trkpt>
      <trkpt lat="47.55569" lon="-2.31605">
        <ele>7.8</ele>
        <time>2025-01-16T12:27:58Z</time>
      </trkpt>
      <trkpt lat="47.5557" lon="-2.31606">
        <ele>8.1</ele>
        <time>2025-01-16T12:27:59Z</time>
      </trkpt>
      <trkpt lat="47.55571" lon="-2.31608">
        <ele>8.4</ele>
        <time>2025-01-16T12:28:00Z</time>
      </trkpt>
      <trkpt lat="47.55572" lon="-2.31611">
        <ele>8.7</ele>
        <time>2025-01-16T12:28:03Z</time>
      </trkpt>
      <trkpt lat="47.55572" lon="-2.31612">
        <ele>8.7</ele>
        <time>2025-01-16T12:28:04Z</time>
      </trkpt>
      <trkpt lat="47.55572" lon="-2.31613">
        <ele>8.6</ele>
        <time>2025-01-16T12:28:05Z</time>
      </trkpt>
      <trkpt lat="47.55572" lon="-2.31615">
        <ele>8.5</ele>
        <time>2025-01-16T12:28:06Z</time>
      </trkpt>
      <trkpt lat="47.55573" lon="-2.31615">
        <ele>8.8</ele>
        <time>2025-01-16T12:28:07Z</time>
      </trkpt>
      <trkpt lat="47.55573" lon="-2.31616">
        <ele>8.7</ele>
        <time>2025-01-16T12:28:08Z</time>
      </trkpt>
      <trkpt lat="47.55573" lon="-2.31618">
        <ele>8.6</ele>
        <time>2025-01-16T12:28:09Z</time>
      </trkpt>
      <trkpt lat="47.55573" lon="-2.31619">
        <ele>8.6</ele>
        <time>2025-01-16T12:28:10Z</time>
      </trkpt>
      <trkpt lat="47.55573" lon="-2.3162">
        <ele>8.5</ele>
        <time>2025-01-16T12:28:11Z</time>
      </trkpt>
      <trkpt lat="47.55573" lon="-2.31621">
        <ele>8.4</ele>
        <time>2025-01-16T12:28:12Z</time>
      </trkpt>
      <trkpt lat="47.55573" lon="-2.31622">
        <ele>8.4</ele>
        <time>2025-01-16T12:28:13Z</time>
      </trkpt>
      <trkpt lat="47.55574" lon="-2.31623">
        <ele>8.6</ele>
        <time>2025-01-16T12:28:14Z</time>
      </trkpt>
      <trkpt lat="47.55575" lon="-2.31624">
        <ele>8.8</ele>
        <time>2025-01-16T12:28:15Z</time>
      </trkpt>
      <trkpt lat="47.55576" lon="-2.31625">
        <ele>9</ele>
        <time>2025-01-16T12:28:16Z</time>
      </trkpt>
      <trkpt lat="47.55577" lon="-2.31626">
        <ele>9.2</ele>
        <time>2025-01-16T12:28:17Z</time>
      </trkpt>
      <trkpt lat="47.55578" lon="-2.31628">
        <ele>9.4</ele>
        <time>2025-01-16T12:28:18Z</time>
      </trkpt>
      <trkpt lat="47.55578" lon="-2.3163">
        <ele>9.2</ele>
        <time>2025-01-16T12:28:19Z</time>
      </trkpt>
      <trkpt lat="47.55579" lon="-2.31631">
        <ele>9.4</ele>
        <time>2025-01-16T12:28:20Z</time>
      </trkpt>
      <trkpt lat="47.55579" lon="-2.31632">
        <ele>9.4</ele>
        <time>2025-01-16T12:28:21Z</time>
      </trkpt>
      <trkpt lat="47.55579" lon="-2.31634">
        <ele>9.2</ele>
        <time>2025-01-16T12:28:22Z</time>
      </trkpt>
      <trkpt lat="47.55578" lon="-2.31635">
        <ele>8.9</ele>
        <time>2025-01-16T12:28:23Z</time>
      </trkpt>
      <trkpt lat="47.55578" lon="-2.31638">
        <ele>8.7</ele>
        <time>2025-01-16T12:28:24Z</time>
      </trkpt>
      <trkpt lat="47.55577" lon="-2.31641">
        <ele>8.3</ele>
        <time>2025-01-16T12:28:25Z</time>
      </trkpt>
      <trkpt lat="47.55577" lon="-2.31643">
        <ele>8.3</ele>
        <time>2025-01-16T12:28:26Z</time>
      </trkpt>
      <trkpt lat="47.55577" lon="-2.31644">
        <ele>8.3</ele>
        <time>2025-01-16T12:28:27Z</time>
      </trkpt>
      <trkpt lat="47.55577" lon="-2.31645">
        <ele>8.2</ele>
        <time>2025-01-16T12:28:28Z</time>
      </trkpt>
      <trkpt lat="47.55577" lon="-2.31647">
        <ele>8.2</ele>
        <time>2025-01-16T12:28:29Z</time>
      </trkpt>
      <trkpt lat="47.55577" lon="-2.31648">
        <ele>8.2</ele>
        <time>2025-01-16T12:28:30Z</time>
      </trkpt>
      <trkpt lat="47.55577" lon="-2.3165">
        <ele>8.1</ele>
        <time>2025-01-16T12:28:31Z</time>
      </trkpt>
      <trkpt lat="47.55577" lon="-2.31652">
        <ele>8</ele>
        <time>2025-01-16T12:28:32Z</time>
      </trkpt>
      <trkpt lat="47.55577" lon="-2.31654">
        <ele>8</ele>
        <time>2025-01-16T12:28:33Z</time>
      </trkpt>
      <trkpt lat="47.55577" lon="-2.31656">
        <ele>7.9</ele>
        <time>2025-01-16T12:28:34Z</time>
      </trkpt>
      <trkpt lat="47.55577" lon="-2.31658">
        <ele>7.9</ele>
        <time>2025-01-16T12:28:35Z</time>
      </trkpt>
      <trkpt lat="47.55578" lon="-2.31659">
        <ele>8.1</ele>
        <time>2025-01-16T12:28:36Z</time>
      </trkpt>
      <trkpt lat="47.55578" lon="-2.31662">
        <ele>8</ele>
        <time>2025-01-16T12:28:37Z</time>
      </trkpt>
      <trkpt lat="47.55579" lon="-2.31663">
        <ele>8.2</ele>
        <time>2025-01-16T12:28:38Z</time>
      </trkpt>
      <trkpt lat="47.55579" lon="-2.31665">
        <ele>8.1</ele>
        <time>2025-01-16T12:28:39Z</time>
      </trkpt>
      <trkpt lat="47.55579" lon="-2.31666">
        <ele>8.1</ele>
        <time>2025-01-16T12:28:40Z</time>
      </trkpt>
      <trkpt lat="47.5558" lon="-2.31668">
        <ele>8.2</ele>
        <time>2025-01-16T12:28:41Z</time>
      </trkpt>
      <trkpt lat="47.5558" lon="-2.3167">
        <ele>8.2</ele>
        <time>2025-01-16T12:28:42Z</time>
      </trkpt>
      <trkpt lat="47.55581" lon="-2.31671">
        <ele>8.4</ele>
        <time>2025-01-16T12:28:43Z</time>
      </trkpt>
      <trkpt lat="47.55581" lon="-2.31673">
        <ele>8.3</ele>
        <time>2025-01-16T12:28:44Z</time>
      </trkpt>
      <trkpt lat="47.55581" lon="-2.31674">
        <ele>8.3</ele>
        <time>2025-01-16T12:28:45Z</time>
      </trkpt>
      <trkpt lat="47.55581" lon="-2.31675">
        <ele>8.2</ele>
        <time>2025-01-16T12:28:46Z</time>
      </trkpt>
      <trkpt lat="47.55581" lon="-2.31677">
        <ele>8.2</ele>
        <time>2025-01-16T12:28:47Z</time>
      </trkpt>
      <trkpt lat="47.55581" lon="-2.31678">
        <ele>8.1</ele>
        <time>2025-01-16T12:28:48Z</time>
      </trkpt>
      <trkpt lat="47.55581" lon="-2.31679">
        <ele>8.1</ele>
        <time>2025-01-16T12:28:49Z</time>
      </trkpt>
      <trkpt lat="47.55581" lon="-2.3168">
        <ele>8.1</ele>
        <time>2025-01-16T12:28:50Z</time>
      </trkpt>
      <trkpt lat="47.55581" lon="-2.31681">
        <ele>8</ele>
        <time>2025-01-16T12:28:51Z</time>
      </trkpt>
      <trkpt lat="47.55581" lon="-2.31683">
        <ele>8</ele>
        <time>2025-01-16T12:28:52Z</time>
      </trkpt>
      <trkpt lat="47.55581" lon="-2.31685">
        <ele>7.9</ele>
        <time>2025-01-16T12:28:53Z</time>
      </trkpt>
      <trkpt lat="47.55581" lon="-2.31687">
        <ele>7.8</ele>
        <time>2025-01-16T12:28:54Z</time>
      </trkpt>
      <trkpt lat="47.55581" lon="-2.31689">
        <ele>7.8</ele>
        <time>2025-01-16T12:28:55Z</time>
      </trkpt>
      <trkpt lat="47.55581" lon="-2.31691">
        <ele>7.7</ele>
        <time>2025-01-16T12:28:56Z</time>
      </trkpt>
      <trkpt lat="47.55581" lon="-2.31692">
        <ele>7.7</ele>
        <time>2025-01-16T12:28:57Z</time>
      </trkpt>
      <trkpt lat="47.55581" lon="-2.31692">
        <ele>7.7</ele>
        <time>2025-01-16T12:28:58Z</time>
      </trkpt>
      <trkpt lat="47.55582" lon="-2.31693">
        <ele>7.8</ele>
        <time>2025-01-16T12:28:59Z</time>
      </trkpt>
      <trkpt lat="47.55582" lon="-2.31695">
        <ele>7.8</ele>
        <time>2025-01-16T12:29:00Z</time>
      </trkpt>
      <trkpt lat="47.55583" lon="-2.31696">
        <ele>7.9</ele>
        <time>2025-01-16T12:29:01Z</time>
      </trkpt>
      <trkpt lat="47.55583" lon="-2.31697">
        <ele>7.9</ele>
        <time>2025-01-16T12:29:02Z</time>
      </trkpt>
      <trkpt lat="47.55583" lon="-2.31698">
        <ele>7.9</ele>
        <time>2025-01-16T12:29:03Z</time>
      </trkpt>
      <trkpt lat="47.55583" lon="-2.317">
        <ele>7.9</ele>
        <time>2025-01-16T12:29:04Z</time>
      </trkpt>
      <trkpt lat="47.55583" lon="-2.31703">
        <ele>7.9</ele>
        <time>2025-01-16T12:29:05Z</time>
      </trkpt>
      <trkpt lat="47.55583" lon="-2.31707">
        <ele>7.9</ele>
        <time>2025-01-16T12:29:06Z</time>
      </trkpt>
      <trkpt lat="47.55584" lon="-2.31709">
        <ele>8.3</ele>
        <time>2025-01-16T12:29:07Z</time>
      </trkpt>
      <trkpt lat="47.55583" lon="-2.31712">
        <ele>7.9</ele>
        <time>2025-01-16T12:29:08Z</time>
      </trkpt>
      <trkpt lat="47.55583" lon="-2.31714">
        <ele>7.9</ele>
        <time>2025-01-16T12:29:09Z</time>
      </trkpt>
      <trkpt lat="47.55583" lon="-2.31717">
        <ele>7.9</ele>
        <time>2025-01-16T12:29:10Z</time>
      </trkpt>
      <trkpt lat="47.55583" lon="-2.31718">
        <ele>7.9</ele>
        <time>2025-01-16T12:29:11Z</time>
      </trkpt>
      <trkpt lat="47.55582" lon="-2.31721">
        <ele>7.8</ele>
        <time>2025-01-16T12:29:12Z</time>
      </trkpt>
      <trkpt lat="47.55582" lon="-2.31724">
        <ele>7.6</ele>
        <time>2025-01-16T12:29:13Z</time>
      </trkpt>
      <trkpt lat="47.55582" lon="-2.31727">
        <ele>7.4</ele>
        <time>2025-01-16T12:29:14Z</time>
      </trkpt>
      <trkpt lat="47.55582" lon="-2.31729">
        <ele>7.3</ele>
        <time>2025-01-16T12:29:15Z</time>
      </trkpt>
      <trkpt lat="47.55582" lon="-2.31731">
        <ele>7.2</ele>
        <time>2025-01-16T12:29:16Z</time>
      </trkpt>
      <trkpt lat="47.55582" lon="-2.31732">
        <ele>7.1</ele>
        <time>2025-01-16T12:29:17Z</time>
      </trkpt>
      <trkpt lat="47.55583" lon="-2.31734">
        <ele>7.1</ele>
        <time>2025-01-16T12:29:18Z</time>
      </trkpt>
      <trkpt lat="47.55583" lon="-2.31737">
        <ele>6.9</ele>
        <time>2025-01-16T12:29:19Z</time>
      </trkpt>
      <trkpt lat="47.55583" lon="-2.31739">
        <ele>6.7</ele>
        <time>2025-01-16T12:29:20Z</time>
      </trkpt>
      <trkpt lat="47.55584" lon="-2.31741">
        <ele>6.9</ele>
        <time>2025-01-16T12:29:21Z</time>
      </trkpt>
      <trkpt lat="47.55584" lon="-2.31743">
        <ele>6.8</ele>
        <time>2025-01-16T12:29:22Z</time>
      </trkpt>
      <trkpt lat="47.55585" lon="-2.31745">
        <ele>7</ele>
        <time>2025-01-16T12:29:23Z</time>
      </trkpt>
      <trkpt lat="47.55586" lon="-2.31747">
        <ele>7.3</ele>
        <time>2025-01-16T12:29:24Z</time>
      </trkpt>
      <trkpt lat="47.55586" lon="-2.31748">
        <ele>7.2</ele>
        <time>2025-01-16T12:29:25Z</time>
      </trkpt>
      <trkpt lat="47.55587" lon="-2.3175">
        <ele>7.5</ele>
        <time>2025-01-16T12:29:26Z</time>
      </trkpt>
      <trkpt lat="47.55587" lon="-2.31752">
        <ele>7.4</ele>
        <time>2025-01-16T12:29:27Z</time>
      </trkpt>
      <trkpt lat="47.55588" lon="-2.31754">
        <ele>7.8</ele>
        <time>2025-01-16T12:29:28Z</time>
      </trkpt>
      <trkpt lat="47.55588" lon="-2.31755">
        <ele>7.8</ele>
        <time>2025-01-16T12:29:29Z</time>
      </trkpt>
      <trkpt lat="47.55588" lon="-2.31757">
        <ele>7.8</ele>
        <time>2025-01-16T12:29:30Z</time>
      </trkpt>
      <trkpt lat="47.55589" lon="-2.31758">
        <ele>8.1</ele>
        <time>2025-01-16T12:29:31Z</time>
      </trkpt>
      <trkpt lat="47.55589" lon="-2.31759">
        <ele>8.1</ele>
        <time>2025-01-16T12:29:32Z</time>
      </trkpt>
      <trkpt lat="47.5559" lon="-2.3176">
        <ele>8.5</ele>
        <time>2025-01-16T12:29:33Z</time>
      </trkpt>
      <trkpt lat="47.5559" lon="-2.31762">
        <ele>8.4</ele>
        <time>2025-01-16T12:29:34Z</time>
      </trkpt>
      <trkpt lat="47.5559" lon="-2.31763">
        <ele>8.4</ele>
        <time>2025-01-16T12:29:35Z</time>
      </trkpt>
      <trkpt lat="47.5559" lon="-2.31765">
        <ele>8.4</ele>
        <time>2025-01-16T12:29:36Z</time>
      </trkpt>
      <trkpt lat="47.5559" lon="-2.31767">
        <ele>8.3</ele>
        <time>2025-01-16T12:29:37Z</time>
      </trkpt>
      <trkpt lat="47.5559" lon="-2.3177">
        <ele>8.3</ele>
        <time>2025-01-16T12:29:38Z</time>
      </trkpt>
      <trkpt lat="47.5559" lon="-2.31772">
        <ele>8.3</ele>
        <time>2025-01-16T12:29:39Z</time>
      </trkpt>
      <trkpt lat="47.5559" lon="-2.31775">
        <ele>8.2</ele>
        <time>2025-01-16T12:29:40Z</time>
      </trkpt>
      <trkpt lat="47.5559" lon="-2.31777">
        <ele>8.2</ele>
        <time>2025-01-16T12:29:41Z</time>
      </trkpt>
      <trkpt lat="47.5559" lon="-2.31779">
        <ele>8.1</ele>
        <time>2025-01-16T12:29:42Z</time>
      </trkpt>
      <trkpt lat="47.5559" lon="-2.31781">
        <ele>7.9</ele>
        <time>2025-01-16T12:29:43Z</time>
      </trkpt>
      <trkpt lat="47.55591" lon="-2.31783">
        <ele>8.1</ele>
        <time>2025-01-16T12:29:44Z</time>
      </trkpt>
      <trkpt lat="47.55591" lon="-2.31784">
        <ele>8</ele>
        <time>2025-01-16T12:29:45Z</time>
      </trkpt>
      <trkpt lat="47.55591" lon="-2.31786">
        <ele>7.9</ele>
        <time>2025-01-16T12:29:46Z</time>
      </trkpt>
      <trkpt lat="47.55591" lon="-2.31788">
        <ele>7.7</ele>
        <time>2025-01-16T12:29:47Z</time>
      </trkpt>
      <trkpt lat="47.55591" lon="-2.31789">
        <ele>7.7</ele>
        <time>2025-01-16T12:29:48Z</time>
      </trkpt>
      <trkpt lat="47.55591" lon="-2.3179">
        <ele>7.6</ele>
        <time>2025-01-16T12:29:49Z</time>
      </trkpt>
      <trkpt lat="47.55592" lon="-2.31791">
        <ele>7.9</ele>
        <time>2025-01-16T12:29:50Z</time>
      </trkpt>
      <trkpt lat="47.55592" lon="-2.31792">
        <ele>7.8</ele>
        <time>2025-01-16T12:29:51Z</time>
      </trkpt>
      <trkpt lat="47.55592" lon="-2.31793">
        <ele>7.7</ele>
        <time>2025-01-16T12:29:52Z</time>
      </trkpt>
      <trkpt lat="47.55593" lon="-2.31795">
        <ele>7.9</ele>
        <time>2025-01-16T12:29:53Z</time>
      </trkpt>
      <trkpt lat="47.55594" lon="-2.31796">
        <ele>8.1</ele>
        <time>2025-01-16T12:29:54Z</time>
      </trkpt>
      <trkpt lat="47.55595" lon="-2.31799">
        <ele>8.3</ele>
        <time>2025-01-16T12:29:55Z</time>
      </trkpt>
      <trkpt lat="47.55595" lon="-2.31801">
        <ele>8.1</ele>
        <time>2025-01-16T12:29:56Z</time>
      </trkpt>
      <trkpt lat="47.55595" lon="-2.31803">
        <ele>8</ele>
        <time>2025-01-16T12:29:57Z</time>
      </trkpt>
      <trkpt lat="47.55596" lon="-2.31804">
        <ele>8.2</ele>
        <time>2025-01-16T12:29:58Z</time>
      </trkpt>
      <trkpt lat="47.55595" lon="-2.31806">
        <ele>7.8</ele>
        <time>2025-01-16T12:29:59Z</time>
      </trkpt>
      <trkpt lat="47.55595" lon="-2.31808">
        <ele>7.9</ele>
        <time>2025-01-16T12:30:00Z</time>
      </trkpt>
      <trkpt lat="47.55595" lon="-2.31811">
        <ele>8</ele>
        <time>2025-01-16T12:30:01Z</time>
      </trkpt>
      <trkpt lat="47.55595" lon="-2.31812">
        <ele>8</ele>
        <time>2025-01-16T12:30:02Z</time>
      </trkpt>
      <trkpt lat="47.55595" lon="-2.31814">
        <ele>8.1</ele>
        <time>2025-01-16T12:30:03Z</time>
      </trkpt>
      <trkpt lat="47.55595" lon="-2.31816">
        <ele>8.2</ele>
        <time>2025-01-16T12:30:04Z</time>
      </trkpt>
      <trkpt lat="47.55595" lon="-2.31818">
        <ele>8.2</ele>
        <time>2025-01-16T12:30:05Z</time>
      </trkpt>
      <trkpt lat="47.55594" lon="-2.3182">
        <ele>8</ele>
        <time>2025-01-16T12:30:06Z</time>
      </trkpt>
      <trkpt lat="47.55594" lon="-2.31823">
        <ele>8.1</ele>
        <time>2025-01-16T12:30:07Z</time>
      </trkpt>
      <trkpt lat="47.55594" lon="-2.31825">
        <ele>8.2</ele>
        <time>2025-01-16T12:30:08Z</time>
      </trkpt>
      <trkpt lat="47.55593" lon="-2.31826">
        <ele>7.9</ele>
        <time>2025-01-16T12:30:09Z</time>
      </trkpt>
      <trkpt lat="47.55593" lon="-2.31828">
        <ele>7.9</ele>
        <time>2025-01-16T12:30:10Z</time>
      </trkpt>
      <trkpt lat="47.55592" lon="-2.31829">
        <ele>7.7</ele>
        <time>2025-01-16T12:30:11Z</time>
      </trkpt>
      <trkpt lat="47.55592" lon="-2.3183">
        <ele>7.7</ele>
        <time>2025-01-16T12:30:12Z</time>
      </trkpt>
      <trkpt lat="47.55591" lon="-2.31833">
        <ele>7.5</ele>
        <time>2025-01-16T12:30:13Z</time>
      </trkpt>
      <trkpt lat="47.5559" lon="-2.31835">
        <ele>7.2</ele>
        <time>2025-01-16T12:30:14Z</time>
      </trkpt>
      <trkpt lat="47.55589" lon="-2.31837">
        <ele>6.9</ele>
        <time>2025-01-16T12:30:15Z</time>
      </trkpt>
      <trkpt lat="47.55588" lon="-2.31839">
        <ele>6.5</ele>
        <time>2025-01-16T12:30:16Z</time>
      </trkpt>
      <trkpt lat="47.55588" lon="-2.31841">
        <ele>6.6</ele>
        <time>2025-01-16T12:30:17Z</time>
      </trkpt>
      <trkpt lat="47.55587" lon="-2.31843">
        <ele>6.2</ele>
        <time>2025-01-16T12:30:18Z</time>
      </trkpt>
      <trkpt lat="47.55587" lon="-2.31845">
        <ele>6.2</ele>
        <time>2025-01-16T12:30:19Z</time>
      </trkpt>
      <trkpt lat="47.55587" lon="-2.31846">
        <ele>6.2</ele>
        <time>2025-01-16T12:30:20Z</time>
      </trkpt>
      <trkpt lat="47.55587" lon="-2.31847">
        <ele>6.3</ele>
        <time>2025-01-16T12:30:21Z</time>
      </trkpt>
      <trkpt lat="47.55586" lon="-2.31849">
        <ele>5.9</ele>
        <time>2025-01-16T12:30:22Z</time>
      </trkpt>
      <trkpt lat="47.55586" lon="-2.31851">
        <ele>5.9</ele>
        <time>2025-01-16T12:30:23Z</time>
      </trkpt>
      <trkpt lat="47.55585" lon="-2.31853">
        <ele>5.6</ele>
        <time>2025-01-16T12:30:24Z</time>
      </trkpt>
      <trkpt lat="47.55585" lon="-2.31855">
        <ele>5.6</ele>
        <time>2025-01-16T12:30:25Z</time>
      </trkpt>
      <trkpt lat="47.55584" lon="-2.31857">
        <ele>5.2</ele>
        <time>2025-01-16T12:30:26Z</time>
      </trkpt>
      <trkpt lat="47.55584" lon="-2.31859">
        <ele>5.2</ele>
        <time>2025-01-16T12:30:27Z</time>
      </trkpt>
      <trkpt lat="47.55584" lon="-2.3186">
        <ele>5.2</ele>
        <time>2025-01-16T12:30:28Z</time>
      </trkpt>
      <trkpt lat="47.55584" lon="-2.31862">
        <ele>5.2</ele>
        <time>2025-01-16T12:30:29Z</time>
      </trkpt>
      <trkpt lat="47.55584" lon="-2.31863">
        <ele>5.2</ele>
        <time>2025-01-16T12:30:30Z</time>
      </trkpt>
      <trkpt lat="47.55583" lon="-2.31865">
        <ele>5</ele>
        <time>2025-01-16T12:30:31Z</time>
      </trkpt>
      <trkpt lat="47.55582" lon="-2.31866">
        <ele>4.9</ele>
        <time>2025-01-16T12:30:32Z</time>
      </trkpt>
      <trkpt lat="47.55582" lon="-2.31868">
        <ele>4.9</ele>
        <time>2025-01-16T12:30:33Z</time>
      </trkpt>
      <trkpt lat="47.55582" lon="-2.31869">
        <ele>4.9</ele>
        <time>2025-01-16T12:30:34Z</time>
      </trkpt>
      <trkpt lat="47.55581" lon="-2.3187">
        <ele>4.8</ele>
        <time>2025-01-16T12:30:35Z</time>
      </trkpt>
      <trkpt lat="47.55581" lon="-2.31871">
        <ele>4.8</ele>
        <time>2025-01-16T12:30:36Z</time>
      </trkpt>
      <trkpt lat="47.55582" lon="-2.31873">
        <ele>4.9</ele>
        <time>2025-01-16T12:30:37Z</time>
      </trkpt>
      <trkpt lat="47.55582" lon="-2.31874">
        <ele>4.9</ele>
        <time>2025-01-16T12:30:38Z</time>
      </trkpt>
      <trkpt lat="47.55583" lon="-2.31876">
        <ele>5</ele>
        <time>2025-01-16T12:30:39Z</time>
      </trkpt>
      <trkpt lat="47.55584" lon="-2.31877">
        <ele>5.2</ele>
        <time>2025-01-16T12:30:40Z</time>
      </trkpt>
      <trkpt lat="47.55584" lon="-2.31878">
        <ele>5.2</ele>
        <time>2025-01-16T12:30:41Z</time>
      </trkpt>
      <trkpt lat="47.55585" lon="-2.31879">
        <ele>5.6</ele>
        <time>2025-01-16T12:30:42Z</time>
      </trkpt>
      <trkpt lat="47.55585" lon="-2.3188">
        <ele>5.6</ele>
        <time>2025-01-16T12:30:43Z</time>
      </trkpt>
      <trkpt lat="47.55586" lon="-2.31881">
        <ele>6</ele>
        <time>2025-01-16T12:30:44Z</time>
      </trkpt>
      <trkpt lat="47.55587" lon="-2.31882">
        <ele>6.3</ele>
        <time>2025-01-16T12:30:45Z</time>
      </trkpt>
      <trkpt lat="47.55587" lon="-2.31883">
        <ele>6.3</ele>
        <time>2025-01-16T12:30:46Z</time>
      </trkpt>
      <trkpt lat="47.55588" lon="-2.31885">
        <ele>6.7</ele>
        <time>2025-01-16T12:30:47Z</time>
      </trkpt>
      <trkpt lat="47.55588" lon="-2.31886">
        <ele>6.7</ele>
        <time>2025-01-16T12:30:48Z</time>
      </trkpt>
      <trkpt lat="47.55588" lon="-2.31887">
        <ele>6.7</ele>
        <time>2025-01-16T12:30:49Z</time>
      </trkpt>
      <trkpt lat="47.55588" lon="-2.31888">
        <ele>6.7</ele>
        <time>2025-01-16T12:30:50Z</time>
      </trkpt>
      <trkpt lat="47.55588" lon="-2.31888">
        <ele>6.7</ele>
        <time>2025-01-16T12:30:51Z</time>
      </trkpt>
      <trkpt lat="47.55588" lon="-2.31888">
        <ele>6.7</ele>
        <time>2025-01-16T12:30:52Z</time>
      </trkpt>
      <trkpt lat="47.55588" lon="-2.3189">
        <ele>6.6</ele>
        <time>2025-01-16T12:30:53Z</time>
      </trkpt>
      <trkpt lat="47.55588" lon="-2.31892">
        <ele>6.6</ele>
        <time>2025-01-16T12:30:54Z</time>
      </trkpt>
      <trkpt lat="47.55589" lon="-2.31894">
        <ele>6.9</ele>
        <time>2025-01-16T12:30:55Z</time>
      </trkpt>
      <trkpt lat="47.55589" lon="-2.31896">
        <ele>6.8</ele>
        <time>2025-01-16T12:30:56Z</time>
      </trkpt>
      <trkpt lat="47.55589" lon="-2.31897">
        <ele>6.7</ele>
        <time>2025-01-16T12:30:57Z</time>
      </trkpt>
      <trkpt lat="47.55589" lon="-2.31899">
        <ele>6.7</ele>
        <time>2025-01-16T12:30:58Z</time>
      </trkpt>
      <trkpt lat="47.55589" lon="-2.31901">
        <ele>6.6</ele>
        <time>2025-01-16T12:30:59Z</time>
      </trkpt>
      <trkpt lat="47.55589" lon="-2.31903">
        <ele>6.5</ele>
        <time>2025-01-16T12:31:00Z</time>
      </trkpt>
      <trkpt lat="47.55589" lon="-2.31905">
        <ele>6.5</ele>
        <time>2025-01-16T12:31:01Z</time>
      </trkpt>
      <trkpt lat="47.55588" lon="-2.31908">
        <ele>6</ele>
        <time>2025-01-16T12:31:02Z</time>
      </trkpt>
      <trkpt lat="47.55588" lon="-2.3191">
        <ele>5.9</ele>
        <time>2025-01-16T12:31:03Z</time>
      </trkpt>
      <trkpt lat="47.55588" lon="-2.31912">
        <ele>5.8</ele>
        <time>2025-01-16T12:31:04Z</time>
      </trkpt>
      <trkpt lat="47.55588" lon="-2.31915">
        <ele>5.7</ele>
        <time>2025-01-16T12:31:05Z</time>
      </trkpt>
      <trkpt lat="47.55588" lon="-2.31917">
        <ele>5.7</ele>
        <time>2025-01-16T12:31:06Z</time>
      </trkpt>
      <trkpt lat="47.55588" lon="-2.3192">
        <ele>5.6</ele>
        <time>2025-01-16T12:31:07Z</time>
      </trkpt>
      <trkpt lat="47.55588" lon="-2.31922">
        <ele>5.6</ele>
        <time>2025-01-16T12:31:08Z</time>
      </trkpt>
      <trkpt lat="47.55587" lon="-2.31924">
        <ele>5.3</ele>
        <time>2025-01-16T12:31:09Z</time>
      </trkpt>
      <trkpt lat="47.55587" lon="-2.31926">
        <ele>5.2</ele>
        <time>2025-01-16T12:31:10Z</time>
      </trkpt>
      <trkpt lat="47.55587" lon="-2.31928">
        <ele>5.2</ele>
        <time>2025-01-16T12:31:11Z</time>
      </trkpt>
      <trkpt lat="47.55587" lon="-2.31929">
        <ele>5.2</ele>
        <time>2025-01-16T12:31:12Z</time>
      </trkpt>
      <trkpt lat="47.55588" lon="-2.3193">
        <ele>5.5</ele>
        <time>2025-01-16T12:31:13Z</time>
      </trkpt>
      <trkpt lat="47.55588" lon="-2.31931">
        <ele>5.5</ele>
        <time>2025-01-16T12:31:14Z</time>
      </trkpt>
      <trkpt lat="47.55588" lon="-2.31934">
        <ele>5.5</ele>
        <time>2025-01-16T12:31:15Z</time>
      </trkpt>
      <trkpt lat="47.55589" lon="-2.31935">
        <ele>5.8</ele>
        <time>2025-01-16T12:31:16Z</time>
      </trkpt>
      <trkpt lat="47.55589" lon="-2.31937">
        <ele>5.7</ele>
        <time>2025-01-16T12:31:17Z</time>
      </trkpt>
      <trkpt lat="47.55589" lon="-2.31939">
        <ele>5.7</ele>
        <time>2025-01-16T12:31:18Z</time>
      </trkpt>
      <trkpt lat="47.55589" lon="-2.31942">
        <ele>5.7</ele>
        <time>2025-01-16T12:31:19Z</time>
      </trkpt>
      <trkpt lat="47.55588" lon="-2.31944">
        <ele>5.3</ele>
        <time>2025-01-16T12:31:20Z</time>
      </trkpt>
      <trkpt lat="47.55588" lon="-2.31946">
        <ele>5.3</ele>
        <time>2025-01-16T12:31:21Z</time>
      </trkpt>
      <trkpt lat="47.55589" lon="-2.31949">
        <ele>5.6</ele>
        <time>2025-01-16T12:31:22Z</time>
      </trkpt>
      <trkpt lat="47.55589" lon="-2.31951">
        <ele>5.6</ele>
        <time>2025-01-16T12:31:23Z</time>
      </trkpt>
      <trkpt lat="47.55589" lon="-2.31952">
        <ele>5.6</ele>
        <time>2025-01-16T12:31:24Z</time>
      </trkpt>
      <trkpt lat="47.5559" lon="-2.31954">
        <ele>5.9</ele>
        <time>2025-01-16T12:31:25Z</time>
      </trkpt>
      <trkpt lat="47.5559" lon="-2.31955">
        <ele>5.9</ele>
        <time>2025-01-16T12:31:26Z</time>
      </trkpt>
      <trkpt lat="47.5559" lon="-2.31957">
        <ele>5.9</ele>
        <time>2025-01-16T12:31:27Z</time>
      </trkpt>
      <trkpt lat="47.55591" lon="-2.31959">
        <ele>6.2</ele>
        <time>2025-01-16T12:31:28Z</time>
      </trkpt>
      <trkpt lat="47.55591" lon="-2.31961">
        <ele>6.2</ele>
        <time>2025-01-16T12:31:29Z</time>
      </trkpt>
      <trkpt lat="47.55592" lon="-2.31962">
        <ele>6.5</ele>
        <time>2025-01-16T12:31:30Z</time>
      </trkpt>
      <trkpt lat="47.55592" lon="-2.31964">
        <ele>6.5</ele>
        <time>2025-01-16T12:31:31Z</time>
      </trkpt>
      <trkpt lat="47.55592" lon="-2.31965">
        <ele>6.5</ele>
        <time>2025-01-16T12:31:32Z</time>
      </trkpt>
      <trkpt lat="47.55593" lon="-2.31967">
        <ele>6.8</ele>
        <time>2025-01-16T12:31:33Z</time>
      </trkpt>
      <trkpt lat="47.55593" lon="-2.31969">
        <ele>6.8</ele>
        <time>2025-01-16T12:31:34Z</time>
      </trkpt>
      <trkpt lat="47.55593" lon="-2.31971">
        <ele>6.8</ele>
        <time>2025-01-16T12:31:35Z</time>
      </trkpt>
      <trkpt lat="47.55593" lon="-2.31973">
        <ele>6.8</ele>
        <time>2025-01-16T12:31:36Z</time>
      </trkpt>
      <trkpt lat="47.55593" lon="-2.31976">
        <ele>6.7</ele>
        <time>2025-01-16T12:31:37Z</time>
      </trkpt>
      <trkpt lat="47.55593" lon="-2.31978">
        <ele>6.7</ele>
        <time>2025-01-16T12:31:38Z</time>
      </trkpt>
      <trkpt lat="47.55593" lon="-2.3198">
        <ele>6.7</ele>
        <time>2025-01-16T12:31:39Z</time>
      </trkpt>
      <trkpt lat="47.55593" lon="-2.31982">
        <ele>6.7</ele>
        <time>2025-01-16T12:31:40Z</time>
      </trkpt>
      <trkpt lat="47.55593" lon="-2.31984">
        <ele>6.6</ele>
        <time>2025-01-16T12:31:41Z</time>
      </trkpt>
      <trkpt lat="47.55593" lon="-2.31986">
        <ele>6.6</ele>
        <time>2025-01-16T12:31:42Z</time>
      </trkpt>
      <trkpt lat="47.55593" lon="-2.31988">
        <ele>6.6</ele>
        <time>2025-01-16T12:31:43Z</time>
      </trkpt>
      <trkpt lat="47.55593" lon="-2.3199">
        <ele>6.6</ele>
        <time>2025-01-16T12:31:44Z</time>
      </trkpt>
      <trkpt lat="47.55593" lon="-2.31991">
        <ele>6.5</ele>
        <time>2025-01-16T12:31:45Z</time>
      </trkpt>
      <trkpt lat="47.55593" lon="-2.31993">
        <ele>6.5</ele>
        <time>2025-01-16T12:31:46Z</time>
      </trkpt>
      <trkpt lat="47.55593" lon="-2.31994">
        <ele>6.5</ele>
        <time>2025-01-16T12:31:47Z</time>
      </trkpt>
      <trkpt lat="47.55594" lon="-2.31994">
        <ele>6.8</ele>
        <time>2025-01-16T12:31:48Z</time>
      </trkpt>
      <trkpt lat="47.55595" lon="-2.31993">
        <ele>7</ele>
        <time>2025-01-16T12:31:49Z</time>
      </trkpt>
      <trkpt lat="47.55594" lon="-2.31995">
        <ele>6.8</ele>
        <time>2025-01-16T12:31:50Z</time>
      </trkpt>
      <trkpt lat="47.55594" lon="-2.31998">
        <ele>6.7</ele>
        <time>2025-01-16T12:31:51Z</time>
      </trkpt>
      <trkpt lat="47.55594" lon="-2.32001">
        <ele>6.7</ele>
        <time>2025-01-16T12:31:52Z</time>
      </trkpt>
      <trkpt lat="47.55594" lon="-2.32004">
        <ele>6.5</ele>
        <time>2025-01-16T12:31:53Z</time>
      </trkpt>
      <trkpt lat="47.55594" lon="-2.32007">
        <ele>6.4</ele>
        <time>2025-01-16T12:31:54Z</time>
      </trkpt>
      <trkpt lat="47.55594" lon="-2.3201">
        <ele>6.3</ele>
        <time>2025-01-16T12:31:55Z</time>
      </trkpt>
      <trkpt lat="47.55594" lon="-2.32012">
        <ele>6.3</ele>
        <time>2025-01-16T12:31:56Z</time>
      </trkpt>
      <trkpt lat="47.55594" lon="-2.32014">
        <ele>6.2</ele>
        <time>2025-01-16T12:31:57Z</time>
      </trkpt>
      <trkpt lat="47.55594" lon="-2.32016">
        <ele>6.1</ele>
        <time>2025-01-16T12:31:58Z</time>
      </trkpt>
      <trkpt lat="47.55594" lon="-2.32018">
        <ele>6</ele>
        <time>2025-01-16T12:31:59Z</time>
      </trkpt>
      <trkpt lat="47.55595" lon="-2.32019">
        <ele>6.3</ele>
        <time>2025-01-16T12:32:00Z</time>
      </trkpt>
      <trkpt lat="47.55595" lon="-2.32021">
        <ele>6.2</ele>
        <time>2025-01-16T12:32:01Z</time>
      </trkpt>
      <trkpt lat="47.55595" lon="-2.32023">
        <ele>6.1</ele>
        <time>2025-01-16T12:32:02Z</time>
      </trkpt>
      <trkpt lat="47.55595" lon="-2.32025">
        <ele>6</ele>
        <time>2025-01-16T12:32:03Z</time>
      </trkpt>
      <trkpt lat="47.55595" lon="-2.32027">
        <ele>6</ele>
        <time>2025-01-16T12:32:04Z</time>
      </trkpt>
      <trkpt lat="47.55595" lon="-2.32029">
        <ele>5.9</ele>
        <time>2025-01-16T12:32:05Z</time>
      </trkpt>
      <trkpt lat="47.55595" lon="-2.32031">
        <ele>6</ele>
        <time>2025-01-16T12:32:06Z</time>
      </trkpt>
      <trkpt lat="47.55595" lon="-2.32033">
        <ele>6</ele>
        <time>2025-01-16T12:32:07Z</time>
      </trkpt>
      <trkpt lat="47.55596" lon="-2.32035">
        <ele>6.2</ele>
        <time>2025-01-16T12:32:08Z</time>
      </trkpt>
      <trkpt lat="47.55596" lon="-2.32036">
        <ele>6.2</ele>
        <time>2025-01-16T12:32:09Z</time>
      </trkpt>
      <trkpt lat="47.55596" lon="-2.32038">
        <ele>6.2</ele>
        <time>2025-01-16T12:32:10Z</time>
      </trkpt>
      <trkpt lat="47.55597" lon="-2.32039">
        <ele>6.5</ele>
        <time>2025-01-16T12:32:11Z</time>
      </trkpt>
      <trkpt lat="47.55597" lon="-2.32041">
        <ele>6.5</ele>
        <time>2025-01-16T12:32:12Z</time>
      </trkpt>
      <trkpt lat="47.55597" lon="-2.32042">
        <ele>6.5</ele>
        <time>2025-01-16T12:32:13Z</time>
      </trkpt>
      <trkpt lat="47.55598" lon="-2.32044">
        <ele>6.7</ele>
        <time>2025-01-16T12:32:14Z</time>
      </trkpt>
      <trkpt lat="47.55598" lon="-2.32046">
        <ele>6.7</ele>
        <time>2025-01-16T12:32:15Z</time>
      </trkpt>
      <trkpt lat="47.55598" lon="-2.32048">
        <ele>6.7</ele>
        <time>2025-01-16T12:32:16Z</time>
      </trkpt>
      <trkpt lat="47.55598" lon="-2.32049">
        <ele>6.7</ele>
        <time>2025-01-16T12:32:17Z</time>
      </trkpt>
      <trkpt lat="47.55598" lon="-2.32051">
        <ele>6.6</ele>
        <time>2025-01-16T12:32:18Z</time>
      </trkpt>
      <trkpt lat="47.55598" lon="-2.32052">
        <ele>6.6</ele>
        <time>2025-01-16T12:32:19Z</time>
      </trkpt>
      <trkpt lat="47.55598" lon="-2.32054">
        <ele>6.6</ele>
        <time>2025-01-16T12:32:20Z</time>
      </trkpt>
      <trkpt lat="47.55599" lon="-2.32055">
        <ele>6.8</ele>
        <time>2025-01-16T12:32:21Z</time>
      </trkpt>
      <trkpt lat="47.55599" lon="-2.32056">
        <ele>6.8</ele>
        <time>2025-01-16T12:32:22Z</time>
      </trkpt>
      <trkpt lat="47.556" lon="-2.32057">
        <ele>6.9</ele>
        <time>2025-01-16T12:32:23Z</time>
      </trkpt>
      <trkpt lat="47.55601" lon="-2.32059">
        <ele>7.1</ele>
        <time>2025-01-16T12:32:24Z</time>
      </trkpt>
      <trkpt lat="47.55602" lon="-2.32061">
        <ele>7.2</ele>
        <time>2025-01-16T12:32:25Z</time>
      </trkpt>
      <trkpt lat="47.55602" lon="-2.32063">
        <ele>7.1</ele>
        <time>2025-01-16T12:32:26Z</time>
      </trkpt>
      <trkpt lat="47.55602" lon="-2.32065">
        <ele>7</ele>
        <time>2025-01-16T12:32:27Z</time>
      </trkpt>
      <trkpt lat="47.55603" lon="-2.32067">
        <ele>7.1</ele>
        <time>2025-01-16T12:32:28Z</time>
      </trkpt>
      <trkpt lat="47.55603" lon="-2.3207">
        <ele>7</ele>
        <time>2025-01-16T12:32:29Z</time>
      </trkpt>
      <trkpt lat="47.55603" lon="-2.32072">
        <ele>6.9</ele>
        <time>2025-01-16T12:32:30Z</time>
      </trkpt>
      <trkpt lat="47.55603" lon="-2.32075">
        <ele>6.8</ele>
        <time>2025-01-16T12:32:31Z</time>
      </trkpt>
      <trkpt lat="47.55603" lon="-2.32078">
        <ele>6.7</ele>
        <time>2025-01-16T12:32:32Z</time>
      </trkpt>
      <trkpt lat="47.55604" lon="-2.3208">
        <ele>6.8</ele>
        <time>2025-01-16T12:32:33Z</time>
      </trkpt>
      <trkpt lat="47.55604" lon="-2.32083">
        <ele>6.7</ele>
        <time>2025-01-16T12:32:34Z</time>
      </trkpt>
      <trkpt lat="47.55604" lon="-2.32085">
        <ele>6.6</ele>
        <time>2025-01-16T12:32:35Z</time>
      </trkpt>
      <trkpt lat="47.55604" lon="-2.32088">
        <ele>6.5</ele>
        <time>2025-01-16T12:32:36Z</time>
      </trkpt>
      <trkpt lat="47.55604" lon="-2.3209">
        <ele>6.4</ele>
        <time>2025-01-16T12:32:37Z</time>
      </trkpt>
      <trkpt lat="47.55604" lon="-2.32093">
        <ele>6.2</ele>
        <time>2025-01-16T12:32:38Z</time>
      </trkpt>
      <trkpt lat="47.55603" lon="-2.32095">
        <ele>5.9</ele>
        <time>2025-01-16T12:32:39Z</time>
      </trkpt>
      <trkpt lat="47.55603" lon="-2.32097">
        <ele>5.8</ele>
        <time>2025-01-16T12:32:40Z</time>
      </trkpt>
      <trkpt lat="47.55603" lon="-2.32098">
        <ele>5.8</ele>
        <time>2025-01-16T12:32:41Z</time>
      </trkpt>
      <trkpt lat="47.55603" lon="-2.321">
        <ele>5.7</ele>
        <time>2025-01-16T12:32:42Z</time>
      </trkpt>
      <trkpt lat="47.55602" lon="-2.32102">
        <ele>5.5</ele>
        <time>2025-01-16T12:32:43Z</time>
      </trkpt>
      <trkpt lat="47.55602" lon="-2.32104">
        <ele>5.4</ele>
        <time>2025-01-16T12:32:44Z</time>
      </trkpt>
      <trkpt lat="47.55602" lon="-2.32105">
        <ele>5.3</ele>
        <time>2025-01-16T12:32:45Z</time>
      </trkpt>
      <trkpt lat="47.55602" lon="-2.32106">
        <ele>5.3</ele>
        <time>2025-01-16T12:32:46Z</time>
      </trkpt>
      <trkpt lat="47.55602" lon="-2.32108">
        <ele>5.2</ele>
        <time>2025-01-16T12:32:47Z</time>
      </trkpt>
      <trkpt lat="47.55602" lon="-2.3211">
        <ele>5.1</ele>
        <time>2025-01-16T12:32:48Z</time>
      </trkpt>
      <trkpt lat="47.55602" lon="-2.32111">
        <ele>5</ele>
        <time>2025-01-16T12:32:49Z</time>
      </trkpt>
      <trkpt lat="47.55602" lon="-2.32113">
        <ele>5</ele>
        <time>2025-01-16T12:32:50Z</time>
      </trkpt>
      <trkpt lat="47.55601" lon="-2.32116">
        <ele>4.8</ele>
        <time>2025-01-16T12:32:51Z</time>
      </trkpt>
      <trkpt lat="47.55602" lon="-2.32118">
        <ele>4.8</ele>
        <time>2025-01-16T12:32:52Z</time>
      </trkpt>
      <trkpt lat="47.55603" lon="-2.3212">
        <ele>4.9</ele>
        <time>2025-01-16T12:32:53Z</time>
      </trkpt>
      <trkpt lat="47.55604" lon="-2.32123">
        <ele>4.9</ele>
        <time>2025-01-16T12:32:54Z</time>
      </trkpt>
      <trkpt lat="47.55605" lon="-2.32125">
        <ele>4.9</ele>
        <time>2025-01-16T12:32:55Z</time>
      </trkpt>
      <trkpt lat="47.55605" lon="-2.32127">
        <ele>4.9</ele>
        <time>2025-01-16T12:32:56Z</time>
      </trkpt>
      <trkpt lat="47.55605" lon="-2.32129">
        <ele>4.8</ele>
        <time>2025-01-16T12:32:57Z</time>
      </trkpt>
      <trkpt lat="47.55606" lon="-2.3213">
        <ele>4.9</ele>
        <time>2025-01-16T12:32:58Z</time>
      </trkpt>
      <trkpt lat="47.55606" lon="-2.32132">
        <ele>4.8</ele>
        <time>2025-01-16T12:32:59Z</time>
      </trkpt>
      <trkpt lat="47.55607" lon="-2.32133">
        <ele>4.9</ele>
        <time>2025-01-16T12:33:00Z</time>
      </trkpt>
      <trkpt lat="47.55608" lon="-2.32135">
        <ele>4.9</ele>
        <time>2025-01-16T12:33:01Z</time>
      </trkpt>
      <trkpt lat="47.55608" lon="-2.32136">
        <ele>4.9</ele>
        <time>2025-01-16T12:33:02Z</time>
      </trkpt>
      <trkpt lat="47.55609" lon="-2.32138">
        <ele>4.9</ele>
        <time>2025-01-16T12:33:03Z</time>
      </trkpt>
      <trkpt lat="47.5561" lon="-2.32139">
        <ele>4.9</ele>
        <time>2025-01-16T12:33:04Z</time>
      </trkpt>
      <trkpt lat="47.5561" lon="-2.3214">
        <ele>4.9</ele>
        <time>2025-01-16T12:33:05Z</time>
      </trkpt>
      <trkpt lat="47.55611" lon="-2.32141">
        <ele>4.9</ele>
        <time>2025-01-16T12:33:06Z</time>
      </trkpt>
      <trkpt lat="47.55612" lon="-2.32142">
        <ele>5.1</ele>
        <time>2025-01-16T12:33:07Z</time>
      </trkpt>
      <trkpt lat="47.55612" lon="-2.32143">
        <ele>5</ele>
        <time>2025-01-16T12:33:08Z</time>
      </trkpt>
      <trkpt lat="47.55613" lon="-2.32144">
        <ele>5.2</ele>
        <time>2025-01-16T12:33:09Z</time>
      </trkpt>
      <trkpt lat="47.55614" lon="-2.32145">
        <ele>5.4</ele>
        <time>2025-01-16T12:33:10Z</time>
      </trkpt>
      <trkpt lat="47.55614" lon="-2.32146">
        <ele>5.3</ele>
        <time>2025-01-16T12:33:11Z</time>
      </trkpt>
      <trkpt lat="47.55614" lon="-2.32146">
        <ele>5.3</ele>
        <time>2025-01-16T12:33:12Z</time>
      </trkpt>
      <trkpt lat="47.55615" lon="-2.32147">
        <ele>5.5</ele>
        <time>2025-01-16T12:33:13Z</time>
      </trkpt>
      <trkpt lat="47.55614" lon="-2.32148">
        <ele>5.3</ele>
        <time>2025-01-16T12:33:14Z</time>
      </trkpt>
      <trkpt lat="47.55614" lon="-2.32148">
        <ele>5.3</ele>
        <time>2025-01-16T12:33:15Z</time>
      </trkpt>
      <trkpt lat="47.55614" lon="-2.32149">
        <ele>5.2</ele>
        <time>2025-01-16T12:33:16Z</time>
      </trkpt>
      <trkpt lat="47.55614" lon="-2.32151">
        <ele>5.1</ele>
        <time>2025-01-16T12:33:17Z</time>
      </trkpt>
      <trkpt lat="47.55614" lon="-2.32152">
        <ele>5.1</ele>
        <time>2025-01-16T12:33:18Z</time>
      </trkpt>
      <trkpt lat="47.55613" lon="-2.32152">
        <ele>4.9</ele>
        <time>2025-01-16T12:33:19Z</time>
      </trkpt>
      <trkpt lat="47.55613" lon="-2.32153">
        <ele>4.9</ele>
        <time>2025-01-16T12:33:20Z</time>
      </trkpt>
      <trkpt lat="47.55613" lon="-2.32154">
        <ele>4.8</ele>
        <time>2025-01-16T12:33:21Z</time>
      </trkpt>
      <trkpt lat="47.55613" lon="-2.32155">
        <ele>4.8</ele>
        <time>2025-01-16T12:33:22Z</time>
      </trkpt>
      <trkpt lat="47.55613" lon="-2.32158">
        <ele>4.7</ele>
        <time>2025-01-16T12:33:23Z</time>
      </trkpt>
      <trkpt lat="47.55613" lon="-2.32161">
        <ele>4.6</ele>
        <time>2025-01-16T12:33:24Z</time>
      </trkpt>
      <trkpt lat="47.55614" lon="-2.32163">
        <ele>4.7</ele>
        <time>2025-01-16T12:33:25Z</time>
      </trkpt>
      <trkpt lat="47.55614" lon="-2.32166">
        <ele>4.5</ele>
        <time>2025-01-16T12:33:26Z</time>
      </trkpt>
      <trkpt lat="47.55615" lon="-2.32169">
        <ele>4.7</ele>
        <time>2025-01-16T12:33:27Z</time>
      </trkpt>
      <trkpt lat="47.55615" lon="-2.32172">
        <ele>4.7</ele>
        <time>2025-01-16T12:33:28Z</time>
      </trkpt>
      <trkpt lat="47.55616" lon="-2.32175">
        <ele>4.8</ele>
        <time>2025-01-16T12:33:29Z</time>
      </trkpt>
      <trkpt lat="47.55616" lon="-2.32177">
        <ele>4.8</ele>
        <time>2025-01-16T12:33:30Z</time>
      </trkpt>
      <trkpt lat="47.55617" lon="-2.3218">
        <ele>5</ele>
        <time>2025-01-16T12:33:31Z</time>
      </trkpt>
      <trkpt lat="47.55617" lon="-2.32181">
        <ele>5</ele>
        <time>2025-01-16T12:33:32Z</time>
      </trkpt>
      <trkpt lat="47.55617" lon="-2.32182">
        <ele>4.9</ele>
        <time>2025-01-16T12:33:33Z</time>
      </trkpt>
      <trkpt lat="47.55618" lon="-2.32183">
        <ele>5.1</ele>
        <time>2025-01-16T12:33:34Z</time>
      </trkpt>
      <trkpt lat="47.55618" lon="-2.32184">
        <ele>5.1</ele>
        <time>2025-01-16T12:33:35Z</time>
      </trkpt>
      <trkpt lat="47.55619" lon="-2.32186">
        <ele>5.2</ele>
        <time>2025-01-16T12:33:36Z</time>
      </trkpt>
      <trkpt lat="47.55619" lon="-2.32188">
        <ele>5.2</ele>
        <time>2025-01-16T12:33:37Z</time>
      </trkpt>
      <trkpt lat="47.5562" lon="-2.3219">
        <ele>5.3</ele>
        <time>2025-01-16T12:33:38Z</time>
      </trkpt>
      <trkpt lat="47.5562" lon="-2.32191">
        <ele>5.3</ele>
        <time>2025-01-16T12:33:39Z</time>
      </trkpt>
      <trkpt lat="47.5562" lon="-2.32193">
        <ele>5.3</ele>
        <time>2025-01-16T12:33:40Z</time>
      </trkpt>
      <trkpt lat="47.5562" lon="-2.32195">
        <ele>5.3</ele>
        <time>2025-01-16T12:33:41Z</time>
      </trkpt>
      <trkpt lat="47.55621" lon="-2.32196">
        <ele>5.4</ele>
        <time>2025-01-16T12:33:42Z</time>
      </trkpt>
      <trkpt lat="47.55621" lon="-2.32198">
        <ele>5.4</ele>
        <time>2025-01-16T12:33:43Z</time>
      </trkpt>
      <trkpt lat="47.55621" lon="-2.322">
        <ele>5.4</ele>
        <time>2025-01-16T12:33:44Z</time>
      </trkpt>
      <trkpt lat="47.55622" lon="-2.32202">
        <ele>5.5</ele>
        <time>2025-01-16T12:33:45Z</time>
      </trkpt>
      <trkpt lat="47.55622" lon="-2.32204">
        <ele>5.4</ele>
        <time>2025-01-16T12:33:46Z</time>
      </trkpt>
      <trkpt lat="47.55622" lon="-2.32206">
        <ele>5.4</ele>
        <time>2025-01-16T12:33:47Z</time>
      </trkpt>
      <trkpt lat="47.55622" lon="-2.32208">
        <ele>5.4</ele>
        <time>2025-01-16T12:33:48Z</time>
      </trkpt>
      <trkpt lat="47.55622" lon="-2.3221">
        <ele>5.3</ele>
        <time>2025-01-16T12:33:49Z</time>
      </trkpt>
      <trkpt lat="47.55622" lon="-2.32212">
        <ele>5.3</ele>
        <time>2025-01-16T12:33:50Z</time>
      </trkpt>
      <trkpt lat="47.55623" lon="-2.32213">
        <ele>5.4</ele>
        <time>2025-01-16T12:33:51Z</time>
      </trkpt>
      <trkpt lat="47.55623" lon="-2.32214">
        <ele>5.4</ele>
        <time>2025-01-16T12:33:52Z</time>
      </trkpt>
      <trkpt lat="47.55624" lon="-2.32215">
        <ele>5.5</ele>
        <time>2025-01-16T12:33:53Z</time>
      </trkpt>
      <trkpt lat="47.55625" lon="-2.32217">
        <ele>5.6</ele>
        <time>2025-01-16T12:33:54Z</time>
      </trkpt>
      <trkpt lat="47.55626" lon="-2.32219">
        <ele>5.7</ele>
        <time>2025-01-16T12:33:55Z</time>
      </trkpt>
      <trkpt lat="47.55627" lon="-2.32221">
        <ele>5.7</ele>
        <time>2025-01-16T12:33:56Z</time>
      </trkpt>
      <trkpt lat="47.55627" lon="-2.32223">
        <ele>5.7</ele>
        <time>2025-01-16T12:33:57Z</time>
      </trkpt>
      <trkpt lat="47.55628" lon="-2.32225">
        <ele>5.8</ele>
        <time>2025-01-16T12:33:58Z</time>
      </trkpt>
      <trkpt lat="47.55628" lon="-2.32227">
        <ele>5.7</ele>
        <time>2025-01-16T12:33:59Z</time>
      </trkpt>
      <trkpt lat="47.55629" lon="-2.32228">
        <ele>5.8</ele>
        <time>2025-01-16T12:34:00Z</time>
      </trkpt>
      <trkpt lat="47.55629" lon="-2.32229">
        <ele>5.8</ele>
        <time>2025-01-16T12:34:01Z</time>
      </trkpt>
      <trkpt lat="47.55629" lon="-2.3223">
        <ele>5.8</ele>
        <time>2025-01-16T12:34:02Z</time>
      </trkpt>
      <trkpt lat="47.5563" lon="-2.32231">
        <ele>5.8</ele>
        <time>2025-01-16T12:34:03Z</time>
      </trkpt>
      <trkpt lat="47.5563" lon="-2.32233">
        <ele>5.8</ele>
        <time>2025-01-16T12:34:04Z</time>
      </trkpt>
      <trkpt lat="47.55631" lon="-2.32234">
        <ele>5.8</ele>
        <time>2025-01-16T12:34:05Z</time>
      </trkpt>
      <trkpt lat="47.55632" lon="-2.32235">
        <ele>5.9</ele>
        <time>2025-01-16T12:34:06Z</time>
      </trkpt>
      <trkpt lat="47.55632" lon="-2.32236">
        <ele>5.9</ele>
        <time>2025-01-16T12:34:07Z</time>
      </trkpt>
      <trkpt lat="47.55633" lon="-2.32237">
        <ele>5.9</ele>
        <time>2025-01-16T12:34:08Z</time>
      </trkpt>
      <trkpt lat="47.55634" lon="-2.32239">
        <ele>6</ele>
        <time>2025-01-16T12:34:09Z</time>
      </trkpt>
      <trkpt lat="47.55634" lon="-2.3224">
        <ele>5.9</ele>
        <time>2025-01-16T12:34:10Z</time>
      </trkpt>
      <trkpt lat="47.55635" lon="-2.32242">
        <ele>6</ele>
        <time>2025-01-16T12:34:11Z</time>
      </trkpt>
      <trkpt lat="47.55636" lon="-2.32243">
        <ele>6</ele>
        <time>2025-01-16T12:34:12Z</time>
      </trkpt>
      <trkpt lat="47.55638" lon="-2.32244">
        <ele>6.1</ele>
        <time>2025-01-16T12:34:13Z</time>
      </trkpt>
      <trkpt lat="47.55639" lon="-2.32245">
        <ele>6.2</ele>
        <time>2025-01-16T12:34:14Z</time>
      </trkpt>
      <trkpt lat="47.5564" lon="-2.32247">
        <ele>6.2</ele>
        <time>2025-01-16T12:34:15Z</time>
      </trkpt>
      <trkpt lat="47.5564" lon="-2.32248">
        <ele>6.2</ele>
        <time>2025-01-16T12:34:16Z</time>
      </trkpt>
      <trkpt lat="47.55641" lon="-2.3225">
        <ele>6.2</ele>
        <time>2025-01-16T12:34:17Z</time>
      </trkpt>
      <trkpt lat="47.55641" lon="-2.32251">
        <ele>6.2</ele>
        <time>2025-01-16T12:34:18Z</time>
      </trkpt>
      <trkpt lat="47.55641" lon="-2.32252">
        <ele>6.1</ele>
        <time>2025-01-16T12:34:19Z</time>
      </trkpt>
      <trkpt lat="47.55642" lon="-2.32253">
        <ele>6.1</ele>
        <time>2025-01-16T12:34:20Z</time>
      </trkpt>
      <trkpt lat="47.55642" lon="-2.32255">
        <ele>6</ele>
        <time>2025-01-16T12:34:21Z</time>
      </trkpt>
      <trkpt lat="47.55643" lon="-2.32258">
        <ele>5.9</ele>
        <time>2025-01-16T12:34:22Z</time>
      </trkpt>
      <trkpt lat="47.55644" lon="-2.32259">
        <ele>5.9</ele>
        <time>2025-01-16T12:34:23Z</time>
      </trkpt>
      <trkpt lat="47.55644" lon="-2.32261">
        <ele>5.8</ele>
        <time>2025-01-16T12:34:24Z</time>
      </trkpt>
      <trkpt lat="47.55645" lon="-2.32263">
        <ele>5.7</ele>
        <time>2025-01-16T12:34:25Z</time>
      </trkpt>
      <trkpt lat="47.55646" lon="-2.32264">
        <ele>5.8</ele>
        <time>2025-01-16T12:34:26Z</time>
      </trkpt>
      <trkpt lat="47.55647" lon="-2.32265">
        <ele>5.8</ele>
        <time>2025-01-16T12:34:27Z</time>
      </trkpt>
      <trkpt lat="47.55647" lon="-2.32265">
        <ele>5.8</ele>
        <time>2025-01-16T12:34:28Z</time>
      </trkpt>
      <trkpt lat="47.55648" lon="-2.32266">
        <ele>5.8</ele>
        <time>2025-01-16T12:34:29Z</time>
      </trkpt>
      <trkpt lat="47.55649" lon="-2.32267">
        <ele>5.9</ele>
        <time>2025-01-16T12:34:30Z</time>
      </trkpt>
      <trkpt lat="47.5565" lon="-2.32269">
        <ele>5.8</ele>
        <time>2025-01-16T12:34:31Z</time>
      </trkpt>
      <trkpt lat="47.55651" lon="-2.3227">
        <ele>5.9</ele>
        <time>2025-01-16T12:34:32Z</time>
      </trkpt>
      <trkpt lat="47.55651" lon="-2.32271">
        <ele>5.8</ele>
        <time>2025-01-16T12:34:33Z</time>
      </trkpt>
      <trkpt lat="47.55652" lon="-2.32273">
        <ele>5.8</ele>
        <time>2025-01-16T12:34:34Z</time>
      </trkpt>
      <trkpt lat="47.55652" lon="-2.32275">
        <ele>5.6</ele>
        <time>2025-01-16T12:34:35Z</time>
      </trkpt>
      <trkpt lat="47.55653" lon="-2.32277">
        <ele>5.6</ele>
        <time>2025-01-16T12:34:36Z</time>
      </trkpt>
      <trkpt lat="47.55653" lon="-2.32279">
        <ele>5.5</ele>
        <time>2025-01-16T12:34:37Z</time>
      </trkpt>
      <trkpt lat="47.55655" lon="-2.32281">
        <ele>5.7</ele>
        <time>2025-01-16T12:34:38Z</time>
      </trkpt>
      <trkpt lat="47.55656" lon="-2.32283">
        <ele>5.7</ele>
        <time>2025-01-16T12:34:39Z</time>
      </trkpt>
      <trkpt lat="47.55657" lon="-2.32284">
        <ele>5.8</ele>
        <time>2025-01-16T12:34:40Z</time>
      </trkpt>
      <trkpt lat="47.55658" lon="-2.32286">
        <ele>5.9</ele>
        <time>2025-01-16T12:34:41Z</time>
      </trkpt>
      <trkpt lat="47.55659" lon="-2.32287">
        <ele>5.9</ele>
        <time>2025-01-16T12:34:42Z</time>
      </trkpt>
      <trkpt lat="47.5566" lon="-2.32288">
        <ele>6</ele>
        <time>2025-01-16T12:34:43Z</time>
      </trkpt>
      <trkpt lat="47.5566" lon="-2.32289">
        <ele>6</ele>
        <time>2025-01-16T12:34:44Z</time>
      </trkpt>
      <trkpt lat="47.55661" lon="-2.3229">
        <ele>6</ele>
        <time>2025-01-16T12:34:45Z</time>
      </trkpt>
      <trkpt lat="47.55662" lon="-2.3229">
        <ele>6.1</ele>
        <time>2025-01-16T12:34:46Z</time>
      </trkpt>
      <trkpt lat="47.55662" lon="-2.32291">
        <ele>6.1</ele>
        <time>2025-01-16T12:34:47Z</time>
      </trkpt>
      <trkpt lat="47.55663" lon="-2.32292">
        <ele>6.2</ele>
        <time>2025-01-16T12:34:48Z</time>
      </trkpt>
      <trkpt lat="47.55664" lon="-2.32294">
        <ele>6.2</ele>
        <time>2025-01-16T12:34:49Z</time>
      </trkpt>
      <trkpt lat="47.55664" lon="-2.32296">
        <ele>6.1</ele>
        <time>2025-01-16T12:34:50Z</time>
      </trkpt>
      <trkpt lat="47.55665" lon="-2.32298">
        <ele>6.1</ele>
        <time>2025-01-16T12:34:51Z</time>
      </trkpt>
      <trkpt lat="47.55665" lon="-2.323">
        <ele>6.1</ele>
        <time>2025-01-16T12:34:52Z</time>
      </trkpt>
      <trkpt lat="47.55666" lon="-2.32301">
        <ele>6.1</ele>
        <time>2025-01-16T12:34:53Z</time>
      </trkpt>
      <trkpt lat="47.55667" lon="-2.32303">
        <ele>6.2</ele>
        <time>2025-01-16T12:34:54Z</time>
      </trkpt>
      <trkpt lat="47.55668" lon="-2.32304">
        <ele>6.3</ele>
        <time>2025-01-16T12:34:55Z</time>
      </trkpt>
      <trkpt lat="47.55669" lon="-2.32305">
        <ele>6.4</ele>
        <time>2025-01-16T12:34:56Z</time>
      </trkpt>
      <trkpt lat="47.55669" lon="-2.32307">
        <ele>6.3</ele>
        <time>2025-01-16T12:34:57Z</time>
      </trkpt>
      <trkpt lat="47.5567" lon="-2.32308">
        <ele>6.4</ele>
        <time>2025-01-16T12:34:58Z</time>
      </trkpt>
      <trkpt lat="47.5567" lon="-2.3231">
        <ele>6.3</ele>
        <time>2025-01-16T12:34:59Z</time>
      </trkpt>
      <trkpt lat="47.55671" lon="-2.32311">
        <ele>6.4</ele>
        <time>2025-01-16T12:35:00Z</time>
      </trkpt>
      <trkpt lat="47.55672" lon="-2.3231">
        <ele>6.6</ele>
        <time>2025-01-16T12:35:01Z</time>
      </trkpt>
      <trkpt lat="47.55672" lon="-2.3231">
        <ele>6.6</ele>
        <time>2025-01-16T12:35:02Z</time>
      </trkpt>
      <trkpt lat="47.55672" lon="-2.32309">
        <ele>6.7</ele>
        <time>2025-01-16T12:35:03Z</time>
      </trkpt>
      <trkpt lat="47.55672" lon="-2.32308">
        <ele>6.8</ele>
        <time>2025-01-16T12:35:04Z</time>
      </trkpt>
      <trkpt lat="47.55672" lon="-2.32308">
        <ele>6.8</ele>
        <time>2025-01-16T12:35:05Z</time>
      </trkpt>
      <trkpt lat="47.55672" lon="-2.32307">
        <ele>6.9</ele>
        <time>2025-01-16T12:35:06Z</time>
      </trkpt>
      <trkpt lat="47.55672" lon="-2.32306">
        <ele>6.9</ele>
        <time>2025-01-16T12:35:07Z</time>
      </trkpt>
      <trkpt lat="47.55672" lon="-2.32306">
        <ele>6.9</ele>
        <time>2025-01-16T12:35:08Z</time>
      </trkpt>
      <trkpt lat="47.55672" lon="-2.32305">
        <ele>7</ele>
        <time>2025-01-16T12:35:09Z</time>
      </trkpt>
      <trkpt lat="47.55672" lon="-2.32305">
        <ele>7</ele>
        <time>2025-01-16T12:35:10Z</time>
      </trkpt>
      <trkpt lat="47.55672" lon="-2.32304">
        <ele>7</ele>
        <time>2025-01-16T12:35:11Z</time>
      </trkpt>
      <trkpt lat="47.55672" lon="-2.32304">
        <ele>7</ele>
        <time>2025-01-16T12:35:12Z</time>
      </trkpt>
      <trkpt lat="47.55672" lon="-2.32304">
        <ele>7</ele>
        <time>2025-01-16T12:35:13Z</time>
      </trkpt>
      <trkpt lat="47.55672" lon="-2.32304">
        <ele>7</ele>
        <time>2025-01-16T12:35:14Z</time>
      </trkpt>
      <trkpt lat="47.55672" lon="-2.32303">
        <ele>7.1</ele>
        <time>2025-01-16T12:35:15Z</time>
      </trkpt>
      <trkpt lat="47.55672" lon="-2.32301">
        <ele>7.1</ele>
        <time>2025-01-16T12:35:16Z</time>
      </trkpt>
      <trkpt lat="47.55672" lon="-2.32299">
        <ele>7.2</ele>
        <time>2025-01-16T12:35:17Z</time>
      </trkpt>
      <trkpt lat="47.55671" lon="-2.32296">
        <ele>7.1</ele>
        <time>2025-01-16T12:35:18Z</time>
      </trkpt>
      <trkpt lat="47.55671" lon="-2.32293">
        <ele>7.2</ele>
        <time>2025-01-16T12:35:19Z</time>
      </trkpt>
      <trkpt lat="47.5567" lon="-2.3229">
        <ele>7.2</ele>
        <time>2025-01-16T12:35:20Z</time>
      </trkpt>
      <trkpt lat="47.55669" lon="-2.32288">
        <ele>7.1</ele>
        <time>2025-01-16T12:35:21Z</time>
      </trkpt>
      <trkpt lat="47.55668" lon="-2.32286">
        <ele>6.9</ele>
        <time>2025-01-16T12:35:22Z</time>
      </trkpt>
      <trkpt lat="47.55668" lon="-2.32284">
        <ele>7</ele>
        <time>2025-01-16T12:35:23Z</time>
      </trkpt>
      <trkpt lat="47.55667" lon="-2.32281">
        <ele>6.9</ele>
        <time>2025-01-16T12:35:24Z</time>
      </trkpt>
      <trkpt lat="47.55667" lon="-2.32279">
        <ele>7</ele>
        <time>2025-01-16T12:35:25Z</time>
      </trkpt>
      <trkpt lat="47.55666" lon="-2.32275">
        <ele>7.1</ele>
        <time>2025-01-16T12:35:26Z</time>
      </trkpt>
      <trkpt lat="47.55666" lon="-2.32272">
        <ele>7.3</ele>
        <time>2025-01-16T12:35:27Z</time>
      </trkpt>
      <trkpt lat="47.55666" lon="-2.32271">
        <ele>7.4</ele>
        <time>2025-01-16T12:35:28Z</time>
      </trkpt>
      <trkpt lat="47.55665" lon="-2.3227">
        <ele>7.4</ele>
        <time>2025-01-16T12:35:29Z</time>
      </trkpt>
      <trkpt lat="47.55665" lon="-2.32269">
        <ele>7.5</ele>
        <time>2025-01-16T12:35:30Z</time>
      </trkpt>
      <trkpt lat="47.55665" lon="-2.32268">
        <ele>7.5</ele>
        <time>2025-01-16T12:35:31Z</time>
      </trkpt>
      <trkpt lat="47.55665" lon="-2.32267">
        <ele>7.6</ele>
        <time>2025-01-16T12:35:32Z</time>
      </trkpt>
      <trkpt lat="47.55664" lon="-2.32266">
        <ele>7.6</ele>
        <time>2025-01-16T12:35:33Z</time>
      </trkpt>
      <trkpt lat="47.55664" lon="-2.32265">
        <ele>7.6</ele>
        <time>2025-01-16T12:35:34Z</time>
      </trkpt>
      <trkpt lat="47.55664" lon="-2.32265">
        <ele>7.6</ele>
        <time>2025-01-16T12:35:35Z</time>
      </trkpt>
      <trkpt lat="47.55664" lon="-2.32264">
        <ele>7.7</ele>
        <time>2025-01-16T12:35:36Z</time>
      </trkpt>
      <trkpt lat="47.55663" lon="-2.32264">
        <ele>7.6</ele>
        <time>2025-01-16T12:35:37Z</time>
      </trkpt>
      <trkpt lat="47.55663" lon="-2.32263">
        <ele>7.7</ele>
        <time>2025-01-16T12:35:38Z</time>
      </trkpt>
      <trkpt lat="47.55663" lon="-2.32263">
        <ele>7.7</ele>
        <time>2025-01-16T12:35:39Z</time>
      </trkpt>
      <trkpt lat="47.55663" lon="-2.32263">
        <ele>7.7</ele>
        <time>2025-01-16T12:35:40Z</time>
      </trkpt>
      <trkpt lat="47.55663" lon="-2.32263">
        <ele>7.7</ele>
        <time>2025-01-16T12:35:41Z</time>
      </trkpt>
      <trkpt lat="47.55663" lon="-2.32262">
        <ele>7.7</ele>
        <time>2025-01-16T12:35:42Z</time>
      </trkpt>
      <trkpt lat="47.55664" lon="-2.32261">
        <ele>7.9</ele>
        <time>2025-01-16T12:35:43Z</time>
      </trkpt>
      <trkpt lat="47.55664" lon="-2.32259">
        <ele>8.1</ele>
        <time>2025-01-16T12:35:44Z</time>
      </trkpt>
      <trkpt lat="47.55665" lon="-2.32258">
        <ele>8.2</ele>
        <time>2025-01-16T12:35:45Z</time>
      </trkpt>
      <trkpt lat="47.55665" lon="-2.32256">
        <ele>8.4</ele>
        <time>2025-01-16T12:35:46Z</time>
      </trkpt>
      <trkpt lat="47.55665" lon="-2.32255">
        <ele>8.5</ele>
        <time>2025-01-16T12:35:47Z</time>
      </trkpt>
      <trkpt lat="47.55665" lon="-2.32253">
        <ele>8.6</ele>
        <time>2025-01-16T12:35:48Z</time>
      </trkpt>
      <trkpt lat="47.55666" lon="-2.32251">
        <ele>8.9</ele>
        <time>2025-01-16T12:35:49Z</time>
      </trkpt>
      <trkpt lat="47.55666" lon="-2.32249">
        <ele>9</ele>
        <time>2025-01-16T12:35:50Z</time>
      </trkpt>
      <trkpt lat="47.55665" lon="-2.32245">
        <ele>9.2</ele>
        <time>2025-01-16T12:35:51Z</time>
      </trkpt>
      <trkpt lat="47.55664" lon="-2.32243">
        <ele>9.2</ele>
        <time>2025-01-16T12:35:52Z</time>
      </trkpt>
      <trkpt lat="47.55664" lon="-2.32242">
        <ele>9.3</ele>
        <time>2025-01-16T12:35:53Z</time>
      </trkpt>
      <trkpt lat="47.55665" lon="-2.32241">
        <ele>9.4</ele>
        <time>2025-01-16T12:35:54Z</time>
      </trkpt>
      <trkpt lat="47.55665" lon="-2.3224">
        <ele>9.5</ele>
        <time>2025-01-16T12:35:55Z</time>
      </trkpt>
      <trkpt lat="47.55665" lon="-2.32239">
        <ele>9.6</ele>
        <time>2025-01-16T12:35:56Z</time>
      </trkpt>
      <trkpt lat="47.55665" lon="-2.32237">
        <ele>9.7</ele>
        <time>2025-01-16T12:35:57Z</time>
      </trkpt>
      <trkpt lat="47.55665" lon="-2.32235">
        <ele>9.9</ele>
        <time>2025-01-16T12:35:58Z</time>
      </trkpt>
      <trkpt lat="47.55665" lon="-2.32233">
        <ele>10</ele>
        <time>2025-01-16T12:35:59Z</time>
      </trkpt>
      <trkpt lat="47.55665" lon="-2.32232">
        <ele>10.1</ele>
        <time>2025-01-16T12:36:00Z</time>
      </trkpt>
      <trkpt lat="47.55665" lon="-2.32231">
        <ele>10.1</ele>
        <time>2025-01-16T12:36:01Z</time>
      </trkpt>
      <trkpt lat="47.55665" lon="-2.32229">
        <ele>10.3</ele>
        <time>2025-01-16T12:36:02Z</time>
      </trkpt>
      <trkpt lat="47.55665" lon="-2.32228">
        <ele>10.4</ele>
        <time>2025-01-16T12:36:03Z</time>
      </trkpt>
      <trkpt lat="47.55666" lon="-2.32226">
        <ele>10.6</ele>
        <time>2025-01-16T12:36:04Z</time>
      </trkpt>
      <trkpt lat="47.55666" lon="-2.32224">
        <ele>10.8</ele>
        <time>2025-01-16T12:36:05Z</time>
      </trkpt>
      <trkpt lat="47.55666" lon="-2.32222">
        <ele>10.9</ele>
        <time>2025-01-16T12:36:06Z</time>
      </trkpt>
      <trkpt lat="47.55667" lon="-2.32221">
        <ele>11.1</ele>
        <time>2025-01-16T12:36:07Z</time>
      </trkpt>
      <trkpt lat="47.55667" lon="-2.32219">
        <ele>11.2</ele>
        <time>2025-01-16T12:36:08Z</time>
      </trkpt>
      <trkpt lat="47.55668" lon="-2.32218">
        <ele>11.4</ele>
        <time>2025-01-16T12:36:09Z</time>
      </trkpt>
      <trkpt lat="47.55668" lon="-2.32216">
        <ele>11.5</ele>
        <time>2025-01-16T12:36:10Z</time>
      </trkpt>
      <trkpt lat="47.55669" lon="-2.32215">
        <ele>11.8</ele>
        <time>2025-01-16T12:36:11Z</time>
      </trkpt>
      <trkpt lat="47.5567" lon="-2.32213">
        <ele>12.1</ele>
        <time>2025-01-16T12:36:12Z</time>
      </trkpt>
      <trkpt lat="47.5567" lon="-2.32211">
        <ele>12.1</ele>
        <time>2025-01-16T12:36:13Z</time>
      </trkpt>
      <trkpt lat="47.55671" lon="-2.3221">
        <ele>12.4</ele>
        <time>2025-01-16T12:36:14Z</time>
      </trkpt>
      <trkpt lat="47.55671" lon="-2.32209">
        <ele>12.4</ele>
        <time>2025-01-16T12:36:15Z</time>
      </trkpt>
      <trkpt lat="47.5567" lon="-2.32207">
        <ele>12.3</ele>
        <time>2025-01-16T12:36:16Z</time>
      </trkpt>
      <trkpt lat="47.5567" lon="-2.32206">
        <ele>12.3</ele>
        <time>2025-01-16T12:36:17Z</time>
      </trkpt>
      <trkpt lat="47.55671" lon="-2.32203">
        <ele>12.6</ele>
        <time>2025-01-16T12:36:18Z</time>
      </trkpt>
      <trkpt lat="47.55671" lon="-2.32201">
        <ele>12.7</ele>
        <time>2025-01-16T12:36:19Z</time>
      </trkpt>
      <trkpt lat="47.55671" lon="-2.32199">
        <ele>12.8</ele>
        <time>2025-01-16T12:36:20Z</time>
      </trkpt>
      <trkpt lat="47.55672" lon="-2.32197">
        <ele>13.1</ele>
        <time>2025-01-16T12:36:21Z</time>
      </trkpt>
      <trkpt lat="47.55672" lon="-2.32195">
        <ele>13.1</ele>
        <time>2025-01-16T12:36:22Z</time>
      </trkpt>
      <trkpt lat="47.55672" lon="-2.32194">
        <ele>13.2</ele>
        <time>2025-01-16T12:36:23Z</time>
      </trkpt>
      <trkpt lat="47.55673" lon="-2.32192">
        <ele>13.5</ele>
        <time>2025-01-16T12:36:24Z</time>
      </trkpt>
      <trkpt lat="47.55673" lon="-2.32191">
        <ele>13.5</ele>
        <time>2025-01-16T12:36:25Z</time>
      </trkpt>
      <trkpt lat="47.55673" lon="-2.32189">
        <ele>13.6</ele>
        <time>2025-01-16T12:36:26Z</time>
      </trkpt>
      <trkpt lat="47.55673" lon="-2.32187">
        <ele>13.6</ele>
        <time>2025-01-16T12:36:27Z</time>
      </trkpt>
      <trkpt lat="47.55673" lon="-2.32186">
        <ele>13.7</ele>
        <time>2025-01-16T12:36:28Z</time>
      </trkpt>
      <trkpt lat="47.55673" lon="-2.32183">
        <ele>13.8</ele>
        <time>2025-01-16T12:36:29Z</time>
      </trkpt>
      <trkpt lat="47.55674" lon="-2.32181">
        <ele>14.1</ele>
        <time>2025-01-16T12:36:30Z</time>
      </trkpt>
      <trkpt lat="47.55674" lon="-2.32179">
        <ele>14.1</ele>
        <time>2025-01-16T12:36:31Z</time>
      </trkpt>
      <trkpt lat="47.55673" lon="-2.32175">
        <ele>14.1</ele>
        <time>2025-01-16T12:36:32Z</time>
      </trkpt>
      <trkpt lat="47.55673" lon="-2.32174">
        <ele>14.1</ele>
        <time>2025-01-16T12:36:33Z</time>
      </trkpt>
      <trkpt lat="47.55673" lon="-2.32173">
        <ele>14.1</ele>
        <time>2025-01-16T12:36:34Z</time>
      </trkpt>
      <trkpt lat="47.55673" lon="-2.32172">
        <ele>14.2</ele>
        <time>2025-01-16T12:36:35Z</time>
      </trkpt>
      <trkpt lat="47.55673" lon="-2.32171">
        <ele>14.2</ele>
        <time>2025-01-16T12:36:36Z</time>
      </trkpt>
      <trkpt lat="47.55673" lon="-2.32171">
        <ele>14.2</ele>
        <time>2025-01-16T12:36:37Z</time>
      </trkpt>
      <trkpt lat="47.55673" lon="-2.3217">
        <ele>14.2</ele>
        <time>2025-01-16T12:36:38Z</time>
      </trkpt>
      <trkpt lat="47.55673" lon="-2.3217">
        <ele>14.2</ele>
        <time>2025-01-16T12:36:39Z</time>
      </trkpt>
      <trkpt lat="47.55673" lon="-2.32169">
        <ele>14.3</ele>
        <time>2025-01-16T12:36:40Z</time>
      </trkpt>
      <trkpt lat="47.55673" lon="-2.32169">
        <ele>14.3</ele>
        <time>2025-01-16T12:36:41Z</time>
      </trkpt>
      <trkpt lat="47.55673" lon="-2.32169">
        <ele>14.3</ele>
        <time>2025-01-16T12:36:42Z</time>
      </trkpt>
      <trkpt lat="47.55673" lon="-2.32168">
        <ele>14.3</ele>
        <time>2025-01-16T12:36:43Z</time>
      </trkpt>
      <trkpt lat="47.55673" lon="-2.32168">
        <ele>14.3</ele>
        <time>2025-01-16T12:36:44Z</time>
      </trkpt>
      <trkpt lat="47.55673" lon="-2.32168">
        <ele>14.3</ele>
        <time>2025-01-16T12:36:45Z</time>
      </trkpt>
      <trkpt lat="47.55673" lon="-2.32168">
        <ele>14.3</ele>
        <time>2025-01-16T12:36:46Z</time>
      </trkpt>
      <trkpt lat="47.55673" lon="-2.32168">
        <ele>14.3</ele>
        <time>2025-01-16T12:36:47Z</time>
      </trkpt>
      <trkpt lat="47.55673" lon="-2.32168">
        <ele>14.3</ele>
        <time>2025-01-16T12:36:48Z</time>
      </trkpt>
      <trkpt lat="47.55674" lon="-2.32167">
        <ele>14.6</ele>
        <time>2025-01-16T12:36:49Z</time>
      </trkpt>
      <trkpt lat="47.55674" lon="-2.32165">
        <ele>14.7</ele>
        <time>2025-01-16T12:36:50Z</time>
      </trkpt>
      <trkpt lat="47.55674" lon="-2.32164">
        <ele>14.8</ele>
        <time>2025-01-16T12:36:51Z</time>
      </trkpt>
      <trkpt lat="47.55674" lon="-2.32161">
        <ele>14.9</ele>
        <time>2025-01-16T12:36:52Z</time>
      </trkpt>
      <trkpt lat="47.55674" lon="-2.32159">
        <ele>15.1</ele>
        <time>2025-01-16T12:36:53Z</time>
      </trkpt>
      <trkpt lat="47.55675" lon="-2.32158">
        <ele>15.3</ele>
        <time>2025-01-16T12:36:54Z</time>
      </trkpt>
      <trkpt lat="47.55675" lon="-2.32156">
        <ele>15.5</ele>
        <time>2025-01-16T12:36:55Z</time>
      </trkpt>
      <trkpt lat="47.55676" lon="-2.32155">
        <ele>15.7</ele>
        <time>2025-01-16T12:36:56Z</time>
      </trkpt>
      <trkpt lat="47.55677" lon="-2.32153">
        <ele>16</ele>
        <time>2025-01-16T12:36:57Z</time>
      </trkpt>
      <trkpt lat="47.55677" lon="-2.32151">
        <ele>16.2</ele>
        <time>2025-01-16T12:36:58Z</time>
      </trkpt>
      <trkpt lat="47.55677" lon="-2.32149">
        <ele>16.3</ele>
        <time>2025-01-16T12:36:59Z</time>
      </trkpt>
      <trkpt lat="47.55678" lon="-2.32147">
        <ele>16.6</ele>
        <time>2025-01-16T12:37:00Z</time>
      </trkpt>
      <trkpt lat="47.55678" lon="-2.32145">
        <ele>16.7</ele>
        <time>2025-01-16T12:37:01Z</time>
      </trkpt>
      <trkpt lat="47.55678" lon="-2.32143">
        <ele>16.8</ele>
        <time>2025-01-16T12:37:02Z</time>
      </trkpt>
      <trkpt lat="47.55678" lon="-2.32141">
        <ele>16.9</ele>
        <time>2025-01-16T12:37:03Z</time>
      </trkpt>
      <trkpt lat="47.55679" lon="-2.3214">
        <ele>17.2</ele>
        <time>2025-01-16T12:37:04Z</time>
      </trkpt>
      <trkpt lat="47.55679" lon="-2.32138">
        <ele>17.3</ele>
        <time>2025-01-16T12:37:05Z</time>
      </trkpt>
      <trkpt lat="47.55679" lon="-2.32136">
        <ele>17.5</ele>
        <time>2025-01-16T12:37:06Z</time>
      </trkpt>
      <trkpt lat="47.55679" lon="-2.32134">
        <ele>17.7</ele>
        <time>2025-01-16T12:37:07Z</time>
      </trkpt>
      <trkpt lat="47.55679" lon="-2.32133">
        <ele>17.7</ele>
        <time>2025-01-16T12:37:08Z</time>
      </trkpt>
      <trkpt lat="47.5568" lon="-2.32132">
        <ele>18</ele>
        <time>2025-01-16T12:37:09Z</time>
      </trkpt>
      <trkpt lat="47.5568" lon="-2.32131">
        <ele>18.1</ele>
        <time>2025-01-16T12:37:10Z</time>
      </trkpt>
      <trkpt lat="47.5568" lon="-2.3213">
        <ele>18.2</ele>
        <time>2025-01-16T12:37:11Z</time>
      </trkpt>
      <trkpt lat="47.55681" lon="-2.32128">
        <ele>18.6</ele>
        <time>2025-01-16T12:37:12Z</time>
      </trkpt>
      <trkpt lat="47.55682" lon="-2.32127">
        <ele>18.9</ele>
        <time>2025-01-16T12:37:13Z</time>
      </trkpt>
      <trkpt lat="47.55682" lon="-2.32127">
        <ele>18.9</ele>
        <time>2025-01-16T12:37:14Z</time>
      </trkpt>
      <trkpt lat="47.55682" lon="-2.32126">
        <ele>18.9</ele>
        <time>2025-01-16T12:37:15Z</time>
      </trkpt>
      <trkpt lat="47.55682" lon="-2.32125">
        <ele>19</ele>
        <time>2025-01-16T12:37:16Z</time>
      </trkpt>
      <trkpt lat="47.55682" lon="-2.32124">
        <ele>19.1</ele>
        <time>2025-01-16T12:37:17Z</time>
      </trkpt>
      <trkpt lat="47.55682" lon="-2.32124">
        <ele>19.1</ele>
        <time>2025-01-16T12:37:18Z</time>
      </trkpt>
      <trkpt lat="47.55682" lon="-2.32123">
        <ele>19.2</ele>
        <time>2025-01-16T12:37:19Z</time>
      </trkpt>
      <trkpt lat="47.55682" lon="-2.32122">
        <ele>19.3</ele>
        <time>2025-01-16T12:37:20Z</time>
      </trkpt>
      <trkpt lat="47.55682" lon="-2.32122">
        <ele>19.3</ele>
        <time>2025-01-16T12:37:21Z</time>
      </trkpt>
      <trkpt lat="47.55682" lon="-2.32121">
        <ele>19.4</ele>
        <time>2025-01-16T12:37:22Z</time>
      </trkpt>
      <trkpt lat="47.55682" lon="-2.32121">
        <ele>19.4</ele>
        <time>2025-01-16T12:37:23Z</time>
      </trkpt>
      <trkpt lat="47.55681" lon="-2.3212">
        <ele>19.3</ele>
        <time>2025-01-16T12:37:24Z</time>
      </trkpt>
      <trkpt lat="47.55681" lon="-2.3212">
        <ele>19.3</ele>
        <time>2025-01-16T12:37:25Z</time>
      </trkpt>
      <trkpt lat="47.55681" lon="-2.3212">
        <ele>19.3</ele>
        <time>2025-01-16T12:37:26Z</time>
      </trkpt>
      <trkpt lat="47.55681" lon="-2.3212">
        <ele>19.3</ele>
        <time>2025-01-16T12:37:27Z</time>
      </trkpt>
      <trkpt lat="47.55681" lon="-2.32119">
        <ele>19.4</ele>
        <time>2025-01-16T12:37:28Z</time>
      </trkpt>
      <trkpt lat="47.55682" lon="-2.32117">
        <ele>19.8</ele>
        <time>2025-01-16T12:37:29Z</time>
      </trkpt>
      <trkpt lat="47.55682" lon="-2.32116">
        <ele>19.9</ele>
        <time>2025-01-16T12:37:30Z</time>
      </trkpt>
      <trkpt lat="47.55682" lon="-2.32115">
        <ele>20</ele>
        <time>2025-01-16T12:37:31Z</time>
      </trkpt>
      <trkpt lat="47.55683" lon="-2.32114">
        <ele>20.3</ele>
        <time>2025-01-16T12:37:32Z</time>
      </trkpt>
      <trkpt lat="47.55683" lon="-2.32112">
        <ele>20.4</ele>
        <time>2025-01-16T12:37:33Z</time>
      </trkpt>
      <trkpt lat="47.55684" lon="-2.3211">
        <ele>20.8</ele>
        <time>2025-01-16T12:37:34Z</time>
      </trkpt>
      <trkpt lat="47.55685" lon="-2.32108">
        <ele>21.2</ele>
        <time>2025-01-16T12:37:35Z</time>
      </trkpt>
      <trkpt lat="47.55685" lon="-2.32106">
        <ele>21.3</ele>
        <time>2025-01-16T12:37:36Z</time>
      </trkpt>
      <trkpt lat="47.55685" lon="-2.32103">
        <ele>21.5</ele>
        <time>2025-01-16T12:37:37Z</time>
      </trkpt>
      <trkpt lat="47.55685" lon="-2.32101">
        <ele>21.7</ele>
        <time>2025-01-16T12:37:38Z</time>
      </trkpt>
      <trkpt lat="47.55686" lon="-2.32099">
        <ele>22</ele>
        <time>2025-01-16T12:37:39Z</time>
      </trkpt>
      <trkpt lat="47.55686" lon="-2.32097">
        <ele>22.2</ele>
        <time>2025-01-16T12:37:40Z</time>
      </trkpt>
      <trkpt lat="47.55686" lon="-2.32096">
        <ele>22.3</ele>
        <time>2025-01-16T12:37:41Z</time>
      </trkpt>
      <trkpt lat="47.55685" lon="-2.32094">
        <ele>22.2</ele>
        <time>2025-01-16T12:37:42Z</time>
      </trkpt>
      <trkpt lat="47.55685" lon="-2.32092">
        <ele>22.3</ele>
        <time>2025-01-16T12:37:43Z</time>
      </trkpt>
      <trkpt lat="47.55685" lon="-2.3209">
        <ele>22.5</ele>
        <time>2025-01-16T12:37:44Z</time>
      </trkpt>
      <trkpt lat="47.55685" lon="-2.32088">
        <ele>22.6</ele>
        <time>2025-01-16T12:37:45Z</time>
      </trkpt>
      <trkpt lat="47.55684" lon="-2.32085">
        <ele>22.6</ele>
        <time>2025-01-16T12:37:46Z</time>
      </trkpt>
      <trkpt lat="47.55684" lon="-2.32083">
        <ele>22.8</ele>
        <time>2025-01-16T12:37:47Z</time>
      </trkpt>
      <trkpt lat="47.55683" lon="-2.32081">
        <ele>22.6</ele>
        <time>2025-01-16T12:37:48Z</time>
      </trkpt>
      <trkpt lat="47.55682" lon="-2.32078">
        <ele>22.6</ele>
        <time>2025-01-16T12:37:49Z</time>
      </trkpt>
      <trkpt lat="47.55682" lon="-2.32077">
        <ele>22.6</ele>
        <time>2025-01-16T12:37:50Z</time>
      </trkpt>
      <trkpt lat="47.55681" lon="-2.32075">
        <ele>22.5</ele>
        <time>2025-01-16T12:37:51Z</time>
      </trkpt>
      <trkpt lat="47.55681" lon="-2.32073">
        <ele>22.6</ele>
        <time>2025-01-16T12:37:52Z</time>
      </trkpt>
      <trkpt lat="47.5568" lon="-2.32071">
        <ele>22.6</ele>
        <time>2025-01-16T12:37:53Z</time>
      </trkpt>
      <trkpt lat="47.5568" lon="-2.32069">
        <ele>22.7</ele>
        <time>2025-01-16T12:37:54Z</time>
      </trkpt>
      <trkpt lat="47.55679" lon="-2.32068">
        <ele>22.5</ele>
        <time>2025-01-16T12:37:55Z</time>
      </trkpt>
      <trkpt lat="47.55679" lon="-2.32066">
        <ele>22.6</ele>
        <time>2025-01-16T12:37:56Z</time>
      </trkpt>
      <trkpt lat="47.55677" lon="-2.32064">
        <ele>22.4</ele>
        <time>2025-01-16T12:37:57Z</time>
      </trkpt>
      <trkpt lat="47.55676" lon="-2.32062">
        <ele>22.3</ele>
        <time>2025-01-16T12:37:58Z</time>
      </trkpt>
      <trkpt lat="47.55675" lon="-2.32061">
        <ele>22.2</ele>
        <time>2025-01-16T12:37:59Z</time>
      </trkpt>
      <trkpt lat="47.55675" lon="-2.3206">
        <ele>22.2</ele>
        <time>2025-01-16T12:38:00Z</time>
      </trkpt>
      <trkpt lat="47.55674" lon="-2.3206">
        <ele>22</ele>
        <time>2025-01-16T12:38:01Z</time>
      </trkpt>
      <trkpt lat="47.55674" lon="-2.32059">
        <ele>22.1</ele>
        <time>2025-01-16T12:38:02Z</time>
      </trkpt>
      <trkpt lat="47.55674" lon="-2.32058">
        <ele>22.2</ele>
        <time>2025-01-16T12:38:03Z</time>
      </trkpt>
      <trkpt lat="47.55674" lon="-2.32058">
        <ele>22.2</ele>
        <time>2025-01-16T12:38:04Z</time>
      </trkpt>
      <trkpt lat="47.55674" lon="-2.32057">
        <ele>22.2</ele>
        <time>2025-01-16T12:38:05Z</time>
      </trkpt>
      <trkpt lat="47.55674" lon="-2.32057">
        <ele>22.2</ele>
        <time>2025-01-16T12:38:06Z</time>
      </trkpt>
      <trkpt lat="47.55674" lon="-2.32056">
        <ele>22.3</ele>
        <time>2025-01-16T12:38:07Z</time>
      </trkpt>
      <trkpt lat="47.55674" lon="-2.32054">
        <ele>22.4</ele>
        <time>2025-01-16T12:38:08Z</time>
      </trkpt>
      <trkpt lat="47.55673" lon="-2.32052">
        <ele>22.3</ele>
        <time>2025-01-16T12:38:09Z</time>
      </trkpt>
      <trkpt lat="47.55673" lon="-2.3205">
        <ele>22.4</ele>
        <time>2025-01-16T12:38:10Z</time>
      </trkpt>
      <trkpt lat="47.55673" lon="-2.32048">
        <ele>22.5</ele>
        <time>2025-01-16T12:38:11Z</time>
      </trkpt>
      <trkpt lat="47.55674" lon="-2.32046">
        <ele>22.8</ele>
        <time>2025-01-16T12:38:12Z</time>
      </trkpt>
      <trkpt lat="47.55673" lon="-2.32044">
        <ele>22.7</ele>
        <time>2025-01-16T12:38:13Z</time>
      </trkpt>
      <trkpt lat="47.55673" lon="-2.32043">
        <ele>22.7</ele>
        <time>2025-01-16T12:38:14Z</time>
      </trkpt>
      <trkpt lat="47.55672" lon="-2.3204">
        <ele>22.6</ele>
        <time>2025-01-16T12:38:15Z</time>
      </trkpt>
      <trkpt lat="47.55672" lon="-2.32038">
        <ele>22.7</ele>
        <time>2025-01-16T12:38:16Z</time>
      </trkpt>
      <trkpt lat="47.55672" lon="-2.32036">
        <ele>22.8</ele>
        <time>2025-01-16T12:38:17Z</time>
      </trkpt>
      <trkpt lat="47.55672" lon="-2.32035">
        <ele>22.8</ele>
        <time>2025-01-16T12:38:18Z</time>
      </trkpt>
      <trkpt lat="47.55672" lon="-2.32033">
        <ele>22.9</ele>
        <time>2025-01-16T12:38:19Z</time>
      </trkpt>
      <trkpt lat="47.55672" lon="-2.32032">
        <ele>23</ele>
        <time>2025-01-16T12:38:20Z</time>
      </trkpt>
      <trkpt lat="47.55672" lon="-2.32031">
        <ele>23</ele>
        <time>2025-01-16T12:38:21Z</time>
      </trkpt>
      <trkpt lat="47.55672" lon="-2.3203">
        <ele>23.1</ele>
        <time>2025-01-16T12:38:22Z</time>
      </trkpt>
      <trkpt lat="47.55672" lon="-2.32029">
        <ele>23.1</ele>
        <time>2025-01-16T12:38:23Z</time>
      </trkpt>
      <trkpt lat="47.55672" lon="-2.32027">
        <ele>23.2</ele>
        <time>2025-01-16T12:38:24Z</time>
      </trkpt>
      <trkpt lat="47.55672" lon="-2.32025">
        <ele>23.3</ele>
        <time>2025-01-16T12:38:25Z</time>
      </trkpt>
      <trkpt lat="47.55672" lon="-2.32023">
        <ele>23.4</ele>
        <time>2025-01-16T12:38:26Z</time>
      </trkpt>
      <trkpt lat="47.55672" lon="-2.32022">
        <ele>23.4</ele>
        <time>2025-01-16T12:38:27Z</time>
      </trkpt>
      <trkpt lat="47.55672" lon="-2.3202">
        <ele>23.5</ele>
        <time>2025-01-16T12:38:28Z</time>
      </trkpt>
      <trkpt lat="47.55672" lon="-2.32018">
        <ele>23.6</ele>
        <time>2025-01-16T12:38:29Z</time>
      </trkpt>
      <trkpt lat="47.55672" lon="-2.32017">
        <ele>23.6</ele>
        <time>2025-01-16T12:38:30Z</time>
      </trkpt>
      <trkpt lat="47.55672" lon="-2.32015">
        <ele>23.7</ele>
        <time>2025-01-16T12:38:31Z</time>
      </trkpt>
      <trkpt lat="47.55672" lon="-2.32013">
        <ele>23.8</ele>
        <time>2025-01-16T12:38:32Z</time>
      </trkpt>
      <trkpt lat="47.55672" lon="-2.3201">
        <ele>23.9</ele>
        <time>2025-01-16T12:38:33Z</time>
      </trkpt>
      <trkpt lat="47.55672" lon="-2.32008">
        <ele>24</ele>
        <time>2025-01-16T12:38:34Z</time>
      </trkpt>
      <trkpt lat="47.55672" lon="-2.32007">
        <ele>24</ele>
        <time>2025-01-16T12:38:35Z</time>
      </trkpt>
      <trkpt lat="47.55672" lon="-2.32005">
        <ele>24.1</ele>
        <time>2025-01-16T12:38:36Z</time>
      </trkpt>
      <trkpt lat="47.55672" lon="-2.32003">
        <ele>24.2</ele>
        <time>2025-01-16T12:38:37Z</time>
      </trkpt>
      <trkpt lat="47.55672" lon="-2.32">
        <ele>24.3</ele>
        <time>2025-01-16T12:38:38Z</time>
      </trkpt>
      <trkpt lat="47.55671" lon="-2.31999">
        <ele>24.1</ele>
        <time>2025-01-16T12:38:39Z</time>
      </trkpt>
      <trkpt lat="47.55671" lon="-2.31997">
        <ele>24.2</ele>
        <time>2025-01-16T12:38:40Z</time>
      </trkpt>
      <trkpt lat="47.55671" lon="-2.31995">
        <ele>24.2</ele>
        <time>2025-01-16T12:38:41Z</time>
      </trkpt>
      <trkpt lat="47.5567" lon="-2.31994">
        <ele>24</ele>
        <time>2025-01-16T12:38:42Z</time>
      </trkpt>
      <trkpt lat="47.5567" lon="-2.31992">
        <ele>24.1</ele>
        <time>2025-01-16T12:38:43Z</time>
      </trkpt>
      <trkpt lat="47.5567" lon="-2.3199">
        <ele>24.2</ele>
        <time>2025-01-16T12:38:44Z</time>
      </trkpt>
      <trkpt lat="47.55669" lon="-2.31988">
        <ele>24</ele>
        <time>2025-01-16T12:38:45Z</time>
      </trkpt>
      <trkpt lat="47.55669" lon="-2.31986">
        <ele>24</ele>
        <time>2025-01-16T12:38:46Z</time>
      </trkpt>
      <trkpt lat="47.55669" lon="-2.31985">
        <ele>24.1</ele>
        <time>2025-01-16T12:38:47Z</time>
      </trkpt>
      <trkpt lat="47.55669" lon="-2.31982">
        <ele>24.2</ele>
        <time>2025-01-16T12:38:48Z</time>
      </trkpt>
      <trkpt lat="47.55669" lon="-2.3198">
        <ele>24.2</ele>
        <time>2025-01-16T12:38:49Z</time>
      </trkpt>
      <trkpt lat="47.55669" lon="-2.31978">
        <ele>24.3</ele>
        <time>2025-01-16T12:38:50Z</time>
      </trkpt>
      <trkpt lat="47.55669" lon="-2.31976">
        <ele>24.4</ele>
        <time>2025-01-16T12:38:51Z</time>
      </trkpt>
      <trkpt lat="47.55669" lon="-2.31974">
        <ele>24.4</ele>
        <time>2025-01-16T12:38:52Z</time>
      </trkpt>
      <trkpt lat="47.55669" lon="-2.31972">
        <ele>24.5</ele>
        <time>2025-01-16T12:38:53Z</time>
      </trkpt>
      <trkpt lat="47.55669" lon="-2.31971">
        <ele>24.5</ele>
        <time>2025-01-16T12:38:54Z</time>
      </trkpt>
      <trkpt lat="47.55669" lon="-2.31969">
        <ele>24.5</ele>
        <time>2025-01-16T12:38:55Z</time>
      </trkpt>
      <trkpt lat="47.55668" lon="-2.31968">
        <ele>24.3</ele>
        <time>2025-01-16T12:38:56Z</time>
      </trkpt>
      <trkpt lat="47.55668" lon="-2.31966">
        <ele>24.3</ele>
        <time>2025-01-16T12:38:57Z</time>
      </trkpt>
      <trkpt lat="47.55668" lon="-2.31965">
        <ele>24.3</ele>
        <time>2025-01-16T12:38:58Z</time>
      </trkpt>
      <trkpt lat="47.55668" lon="-2.31963">
        <ele>24.3</ele>
        <time>2025-01-16T12:38:59Z</time>
      </trkpt>
      <trkpt lat="47.55668" lon="-2.31962">
        <ele>24.3</ele>
        <time>2025-01-16T12:39:00Z</time>
      </trkpt>
      <trkpt lat="47.55668" lon="-2.3196">
        <ele>24.3</ele>
        <time>2025-01-16T12:39:01Z</time>
      </trkpt>
      <trkpt lat="47.55668" lon="-2.31959">
        <ele>24.3</ele>
        <time>2025-01-16T12:39:02Z</time>
      </trkpt>
      <trkpt lat="47.55669" lon="-2.31957">
        <ele>24.6</ele>
        <time>2025-01-16T12:39:03Z</time>
      </trkpt>
      <trkpt lat="47.55669" lon="-2.31956">
        <ele>24.6</ele>
        <time>2025-01-16T12:39:04Z</time>
      </trkpt>
      <trkpt lat="47.55669" lon="-2.31954">
        <ele>24.6</ele>
        <time>2025-01-16T12:39:05Z</time>
      </trkpt>
      <trkpt lat="47.55669" lon="-2.31953">
        <ele>24.6</ele>
        <time>2025-01-16T12:39:06Z</time>
      </trkpt>
      <trkpt lat="47.55669" lon="-2.3195">
        <ele>24.6</ele>
        <time>2025-01-16T12:39:07Z</time>
      </trkpt>
      <trkpt lat="47.55669" lon="-2.31948">
        <ele>24.6</ele>
        <time>2025-01-16T12:39:08Z</time>
      </trkpt>
      <trkpt lat="47.55669" lon="-2.31945">
        <ele>24.6</ele>
        <time>2025-01-16T12:39:09Z</time>
      </trkpt>
      <trkpt lat="47.55668" lon="-2.31943">
        <ele>24.4</ele>
        <time>2025-01-16T12:39:10Z</time>
      </trkpt>
      <trkpt lat="47.55669" lon="-2.31941">
        <ele>24.8</ele>
        <time>2025-01-16T12:39:11Z</time>
      </trkpt>
      <trkpt lat="47.55669" lon="-2.31939">
        <ele>25</ele>
        <time>2025-01-16T12:39:12Z</time>
      </trkpt>
      <trkpt lat="47.5567" lon="-2.31937">
        <ele>25.3</ele>
        <time>2025-01-16T12:39:13Z</time>
      </trkpt>
      <trkpt lat="47.5567" lon="-2.31936">
        <ele>25.4</ele>
        <time>2025-01-16T12:39:14Z</time>
      </trkpt>
      <trkpt lat="47.5567" lon="-2.31935">
        <ele>25.5</ele>
        <time>2025-01-16T12:39:15Z</time>
      </trkpt>
      <trkpt lat="47.5567" lon="-2.31933">
        <ele>25.6</ele>
        <time>2025-01-16T12:39:16Z</time>
      </trkpt>
      <trkpt lat="47.5567" lon="-2.31931">
        <ele>25.7</ele>
        <time>2025-01-16T12:39:17Z</time>
      </trkpt>
      <trkpt lat="47.5567" lon="-2.3193">
        <ele>25.8</ele>
        <time>2025-01-16T12:39:18Z</time>
      </trkpt>
      <trkpt lat="47.55671" lon="-2.31928">
        <ele>26.2</ele>
        <time>2025-01-16T12:39:19Z</time>
      </trkpt>
      <trkpt lat="47.5567" lon="-2.31926">
        <ele>26.1</ele>
        <time>2025-01-16T12:39:20Z</time>
      </trkpt>
      <trkpt lat="47.5567" lon="-2.31924">
        <ele>26.2</ele>
        <time>2025-01-16T12:39:21Z</time>
      </trkpt>
      <trkpt lat="47.55671" lon="-2.31923">
        <ele>26.5</ele>
        <time>2025-01-16T12:39:22Z</time>
      </trkpt>
      <trkpt lat="47.5567" lon="-2.31921">
        <ele>26.4</ele>
        <time>2025-01-16T12:39:23Z</time>
      </trkpt>
      <trkpt lat="47.5567" lon="-2.3192">
        <ele>26.5</ele>
        <time>2025-01-16T12:39:24Z</time>
      </trkpt>
      <trkpt lat="47.5567" lon="-2.31919">
        <ele>26.6</ele>
        <time>2025-01-16T12:39:25Z</time>
      </trkpt>
      <trkpt lat="47.5567" lon="-2.31917">
        <ele>26.7</ele>
        <time>2025-01-16T12:39:26Z</time>
      </trkpt>
      <trkpt lat="47.5567" lon="-2.31916">
        <ele>26.8</ele>
        <time>2025-01-16T12:39:27Z</time>
      </trkpt>
      <trkpt lat="47.5567" lon="-2.31915">
        <ele>26.8</ele>
        <time>2025-01-16T12:39:28Z</time>
      </trkpt>
      <trkpt lat="47.55671" lon="-2.31914">
        <ele>27.1</ele>
        <time>2025-01-16T12:39:29Z</time>
      </trkpt>
      <trkpt lat="47.55671" lon="-2.31913">
        <ele>27.2</ele>
        <time>2025-01-16T12:39:30Z</time>
      </trkpt>
      <trkpt lat="47.55671" lon="-2.31912">
        <ele>27.3</ele>
        <time>2025-01-16T12:39:31Z</time>
      </trkpt>
      <trkpt lat="47.55671" lon="-2.31911">
        <ele>27.3</ele>
        <time>2025-01-16T12:39:32Z</time>
      </trkpt>
      <trkpt lat="47.55671" lon="-2.31909">
        <ele>27.5</ele>
        <time>2025-01-16T12:39:33Z</time>
      </trkpt>
      <trkpt lat="47.55671" lon="-2.31907">
        <ele>27.6</ele>
        <time>2025-01-16T12:39:34Z</time>
      </trkpt>
      <trkpt lat="47.55671" lon="-2.31905">
        <ele>27.8</ele>
        <time>2025-01-16T12:39:35Z</time>
      </trkpt>
      <trkpt lat="47.55671" lon="-2.31902">
        <ele>28</ele>
        <time>2025-01-16T12:39:36Z</time>
      </trkpt>
      <trkpt lat="47.5567" lon="-2.319">
        <ele>27.9</ele>
        <time>2025-01-16T12:39:37Z</time>
      </trkpt>
      <trkpt lat="47.5567" lon="-2.31899">
        <ele>28</ele>
        <time>2025-01-16T12:39:38Z</time>
      </trkpt>
      <trkpt lat="47.5567" lon="-2.31897">
        <ele>28.1</ele>
        <time>2025-01-16T12:39:39Z</time>
      </trkpt>
      <trkpt lat="47.55671" lon="-2.31896">
        <ele>28.4</ele>
        <time>2025-01-16T12:39:40Z</time>
      </trkpt>
      <trkpt lat="47.55671" lon="-2.31894">
        <ele>28.6</ele>
        <time>2025-01-16T12:39:41Z</time>
      </trkpt>
      <trkpt lat="47.55671" lon="-2.31893">
        <ele>28.6</ele>
        <time>2025-01-16T12:39:42Z</time>
      </trkpt>
      <trkpt lat="47.55671" lon="-2.31891">
        <ele>28.8</ele>
        <time>2025-01-16T12:39:43Z</time>
      </trkpt>
      <trkpt lat="47.55671" lon="-2.3189">
        <ele>28.9</ele>
        <time>2025-01-16T12:39:44Z</time>
      </trkpt>
      <trkpt lat="47.55672" lon="-2.31889">
        <ele>29.1</ele>
        <time>2025-01-16T12:39:45Z</time>
      </trkpt>
      <trkpt lat="47.55672" lon="-2.31888">
        <ele>29.2</ele>
        <time>2025-01-16T12:39:46Z</time>
      </trkpt>
      <trkpt lat="47.55672" lon="-2.31886">
        <ele>29.3</ele>
        <time>2025-01-16T12:39:47Z</time>
      </trkpt>
      <trkpt lat="47.55673" lon="-2.31885">
        <ele>29.5</ele>
        <time>2025-01-16T12:39:48Z</time>
      </trkpt>
      <trkpt lat="47.55673" lon="-2.31884">
        <ele>29.6</ele>
        <time>2025-01-16T12:39:49Z</time>
      </trkpt>
      <trkpt lat="47.55674" lon="-2.31882">
        <ele>29.9</ele>
        <time>2025-01-16T12:39:50Z</time>
      </trkpt>
      <trkpt lat="47.55674" lon="-2.31881">
        <ele>29.9</ele>
        <time>2025-01-16T12:39:51Z</time>
      </trkpt>
      <trkpt lat="47.55674" lon="-2.3188">
        <ele>30</ele>
        <time>2025-01-16T12:39:52Z</time>
      </trkpt>
      <trkpt lat="47.55674" lon="-2.31879">
        <ele>30</ele>
        <time>2025-01-16T12:39:53Z</time>
      </trkpt>
      <trkpt lat="47.55674" lon="-2.31878">
        <ele>30.1</ele>
        <time>2025-01-16T12:39:54Z</time>
      </trkpt>
      <trkpt lat="47.55675" lon="-2.31877">
        <ele>30.4</ele>
        <time>2025-01-16T12:39:55Z</time>
      </trkpt>
      <trkpt lat="47.55675" lon="-2.31876">
        <ele>30.4</ele>
        <time>2025-01-16T12:39:56Z</time>
      </trkpt>
      <trkpt lat="47.55675" lon="-2.31875">
        <ele>30.5</ele>
        <time>2025-01-16T12:39:57Z</time>
      </trkpt>
      <trkpt lat="47.55676" lon="-2.31874">
        <ele>30.7</ele>
        <time>2025-01-16T12:39:58Z</time>
      </trkpt>
      <trkpt lat="47.55677" lon="-2.31873">
        <ele>31</ele>
        <time>2025-01-16T12:39:59Z</time>
      </trkpt>
      <trkpt lat="47.55677" lon="-2.31872">
        <ele>31.1</ele>
        <time>2025-01-16T12:40:00Z</time>
      </trkpt>
      <trkpt lat="47.55677" lon="-2.3187">
        <ele>31.2</ele>
        <time>2025-01-16T12:40:01Z</time>
      </trkpt>
      <trkpt lat="47.55677" lon="-2.31868">
        <ele>31.3</ele>
        <time>2025-01-16T12:40:02Z</time>
      </trkpt>
      <trkpt lat="47.55677" lon="-2.31866">
        <ele>31.4</ele>
        <time>2025-01-16T12:40:03Z</time>
      </trkpt>
      <trkpt lat="47.55676" lon="-2.31863">
        <ele>31.3</ele>
        <time>2025-01-16T12:40:04Z</time>
      </trkpt>
      <trkpt lat="47.55675" lon="-2.31861">
        <ele>31.1</ele>
        <time>2025-01-16T12:40:05Z</time>
      </trkpt>
      <trkpt lat="47.55675" lon="-2.3186">
        <ele>31.1</ele>
        <time>2025-01-16T12:40:06Z</time>
      </trkpt>
      <trkpt lat="47.55675" lon="-2.31858">
        <ele>31.2</ele>
        <time>2025-01-16T12:40:07Z</time>
      </trkpt>
      <trkpt lat="47.55675" lon="-2.31856">
        <ele>31.3</ele>
        <time>2025-01-16T12:40:08Z</time>
      </trkpt>
      <trkpt lat="47.55675" lon="-2.31855">
        <ele>31.3</ele>
        <time>2025-01-16T12:40:09Z</time>
      </trkpt>
      <trkpt lat="47.55675" lon="-2.31855">
        <ele>31.3</ele>
        <time>2025-01-16T12:40:10Z</time>
      </trkpt>
      <trkpt lat="47.55676" lon="-2.31854">
        <ele>31.6</ele>
        <time>2025-01-16T12:40:11Z</time>
      </trkpt>
      <trkpt lat="47.55676" lon="-2.31854">
        <ele>31.6</ele>
        <time>2025-01-16T12:40:12Z</time>
      </trkpt>
      <trkpt lat="47.55676" lon="-2.31853">
        <ele>31.6</ele>
        <time>2025-01-16T12:40:13Z</time>
      </trkpt>
      <trkpt lat="47.55676" lon="-2.31851">
        <ele>31.7</ele>
        <time>2025-01-16T12:40:14Z</time>
      </trkpt>
      <trkpt lat="47.55676" lon="-2.3185">
        <ele>31.8</ele>
        <time>2025-01-16T12:40:15Z</time>
      </trkpt>
      <trkpt lat="47.55676" lon="-2.31848">
        <ele>31.8</ele>
        <time>2025-01-16T12:40:16Z</time>
      </trkpt>
      <trkpt lat="47.55676" lon="-2.31847">
        <ele>31.9</ele>
        <time>2025-01-16T12:40:17Z</time>
      </trkpt>
      <trkpt lat="47.55676" lon="-2.31846">
        <ele>31.9</ele>
        <time>2025-01-16T12:40:18Z</time>
      </trkpt>
      <trkpt lat="47.55676" lon="-2.31845">
        <ele>31.9</ele>
        <time>2025-01-16T12:40:19Z</time>
      </trkpt>
      <trkpt lat="47.55676" lon="-2.31843">
        <ele>32</ele>
        <time>2025-01-16T12:40:20Z</time>
      </trkpt>
      <trkpt lat="47.55677" lon="-2.31842">
        <ele>32.3</ele>
        <time>2025-01-16T12:40:21Z</time>
      </trkpt>
      <trkpt lat="47.55677" lon="-2.3184">
        <ele>32.4</ele>
        <time>2025-01-16T12:40:22Z</time>
      </trkpt>
      <trkpt lat="47.55677" lon="-2.31838">
        <ele>32.4</ele>
        <time>2025-01-16T12:40:23Z</time>
      </trkpt>
      <trkpt lat="47.55678" lon="-2.31837">
        <ele>32.7</ele>
        <time>2025-01-16T12:40:24Z</time>
      </trkpt>
      <trkpt lat="47.55678" lon="-2.31836">
        <ele>32.8</ele>
        <time>2025-01-16T12:40:25Z</time>
      </trkpt>
      <trkpt lat="47.55678" lon="-2.31834">
        <ele>32.8</ele>
        <time>2025-01-16T12:40:26Z</time>
      </trkpt>
      <trkpt lat="47.55678" lon="-2.31833">
        <ele>32.9</ele>
        <time>2025-01-16T12:40:27Z</time>
      </trkpt>
      <trkpt lat="47.55678" lon="-2.31832">
        <ele>32.9</ele>
        <time>2025-01-16T12:40:28Z</time>
      </trkpt>
      <trkpt lat="47.55678" lon="-2.31831">
        <ele>32.9</ele>
        <time>2025-01-16T12:40:29Z</time>
      </trkpt>
      <trkpt lat="47.55678" lon="-2.31828">
        <ele>32.9</ele>
        <time>2025-01-16T12:40:30Z</time>
      </trkpt>
      <trkpt lat="47.55678" lon="-2.31827">
        <ele>32.9</ele>
        <time>2025-01-16T12:40:31Z</time>
      </trkpt>
      <trkpt lat="47.55678" lon="-2.31826">
        <ele>33</ele>
        <time>2025-01-16T12:40:32Z</time>
      </trkpt>
      <trkpt lat="47.55678" lon="-2.31826">
        <ele>33</ele>
        <time>2025-01-16T12:40:33Z</time>
      </trkpt>
      <trkpt lat="47.55678" lon="-2.31825">
        <ele>33</ele>
        <time>2025-01-16T12:40:34Z</time>
      </trkpt>
      <trkpt lat="47.55677" lon="-2.31824">
        <ele>32.7</ele>
        <time>2025-01-16T12:40:35Z</time>
      </trkpt>
      <trkpt lat="47.55677" lon="-2.31824">
        <ele>32.7</ele>
        <time>2025-01-16T12:40:36Z</time>
      </trkpt>
      <trkpt lat="47.55677" lon="-2.31823">
        <ele>32.7</ele>
        <time>2025-01-16T12:40:37Z</time>
      </trkpt>
      <trkpt lat="47.55677" lon="-2.31822">
        <ele>32.8</ele>
        <time>2025-01-16T12:40:38Z</time>
      </trkpt>
      <trkpt lat="47.55677" lon="-2.31822">
        <ele>32.8</ele>
        <time>2025-01-16T12:40:39Z</time>
      </trkpt>
      <trkpt lat="47.55677" lon="-2.31822">
        <ele>32.8</ele>
        <time>2025-01-16T12:40:40Z</time>
      </trkpt>
      <trkpt lat="47.55677" lon="-2.31822">
        <ele>32.8</ele>
        <time>2025-01-16T12:40:41Z</time>
      </trkpt>
      <trkpt lat="47.55677" lon="-2.31821">
        <ele>32.8</ele>
        <time>2025-01-16T12:40:42Z</time>
      </trkpt>
      <trkpt lat="47.55677" lon="-2.31821">
        <ele>32.8</ele>
        <time>2025-01-16T12:40:43Z</time>
      </trkpt>
      <trkpt lat="47.55677" lon="-2.3182">
        <ele>32.8</ele>
        <time>2025-01-16T12:40:44Z</time>
      </trkpt>
      <trkpt lat="47.55677" lon="-2.31818">
        <ele>32.8</ele>
        <time>2025-01-16T12:40:45Z</time>
      </trkpt>
      <trkpt lat="47.55677" lon="-2.31816">
        <ele>32.8</ele>
        <time>2025-01-16T12:40:46Z</time>
      </trkpt>
      <trkpt lat="47.55678" lon="-2.31815">
        <ele>33.1</ele>
        <time>2025-01-16T12:40:47Z</time>
      </trkpt>
      <trkpt lat="47.55678" lon="-2.31813">
        <ele>33.2</ele>
        <time>2025-01-16T12:40:48Z</time>
      </trkpt>
      <trkpt lat="47.55678" lon="-2.31811">
        <ele>33.2</ele>
        <time>2025-01-16T12:40:49Z</time>
      </trkpt>
      <trkpt lat="47.55679" lon="-2.31809">
        <ele>33.5</ele>
        <time>2025-01-16T12:40:50Z</time>
      </trkpt>
      <trkpt lat="47.55679" lon="-2.31807">
        <ele>33.5</ele>
        <time>2025-01-16T12:40:51Z</time>
      </trkpt>
      <trkpt lat="47.55679" lon="-2.31806">
        <ele>33.5</ele>
        <time>2025-01-16T12:40:52Z</time>
      </trkpt>
      <trkpt lat="47.55679" lon="-2.31805">
        <ele>33.6</ele>
        <time>2025-01-16T12:40:53Z</time>
      </trkpt>
      <trkpt lat="47.55679" lon="-2.31804">
        <ele>33.6</ele>
        <time>2025-01-16T12:40:54Z</time>
      </trkpt>
      <trkpt lat="47.55679" lon="-2.31803">
        <ele>33.6</ele>
        <time>2025-01-16T12:40:55Z</time>
      </trkpt>
      <trkpt lat="47.55679" lon="-2.31802">
        <ele>33.7</ele>
        <time>2025-01-16T12:40:56Z</time>
      </trkpt>
      <trkpt lat="47.55679" lon="-2.31801">
        <ele>33.7</ele>
        <time>2025-01-16T12:40:57Z</time>
      </trkpt>
      <trkpt lat="47.5568" lon="-2.31799">
        <ele>34.1</ele>
        <time>2025-01-16T12:40:58Z</time>
      </trkpt>
      <trkpt lat="47.5568" lon="-2.31797">
        <ele>34.1</ele>
        <time>2025-01-16T12:40:59Z</time>
      </trkpt>
      <trkpt lat="47.55681" lon="-2.31796">
        <ele>34.5</ele>
        <time>2025-01-16T12:41:00Z</time>
      </trkpt>
      <trkpt lat="47.55681" lon="-2.31794">
        <ele>34.5</ele>
        <time>2025-01-16T12:41:01Z</time>
      </trkpt>
      <trkpt lat="47.55681" lon="-2.31792">
        <ele>34.6</ele>
        <time>2025-01-16T12:41:02Z</time>
      </trkpt>
      <trkpt lat="47.55681" lon="-2.3179">
        <ele>34.7</ele>
        <time>2025-01-16T12:41:03Z</time>
      </trkpt>
      <trkpt lat="47.55682" lon="-2.31788">
        <ele>35</ele>
        <time>2025-01-16T12:41:04Z</time>
      </trkpt>
      <trkpt lat="47.55682" lon="-2.31786">
        <ele>35.1</ele>
        <time>2025-01-16T12:41:05Z</time>
      </trkpt>
      <trkpt lat="47.55684" lon="-2.31785">
        <ele>35.7</ele>
        <time>2025-01-16T12:41:06Z</time>
      </trkpt>
      <trkpt lat="47.55685" lon="-2.31784">
        <ele>36.1</ele>
        <time>2025-01-16T12:41:07Z</time>
      </trkpt>
      <trkpt lat="47.55685" lon="-2.31783">
        <ele>36.1</ele>
        <time>2025-01-16T12:41:08Z</time>
      </trkpt>
      <trkpt lat="47.55686" lon="-2.31782">
        <ele>36.4</ele>
        <time>2025-01-16T12:41:09Z</time>
      </trkpt>
      <trkpt lat="47.55687" lon="-2.3178">
        <ele>36.8</ele>
        <time>2025-01-16T12:41:10Z</time>
      </trkpt>
      <trkpt lat="47.55688" lon="-2.31778">
        <ele>37.1</ele>
        <time>2025-01-16T12:41:11Z</time>
      </trkpt>
      <trkpt lat="47.55689" lon="-2.31776">
        <ele>37.6</ele>
        <time>2025-01-16T12:41:12Z</time>
      </trkpt>
      <trkpt lat="47.55689" lon="-2.31775">
        <ele>37.6</ele>
        <time>2025-01-16T12:41:13Z</time>
      </trkpt>
      <trkpt lat="47.55689" lon="-2.31774">
        <ele>37.7</ele>
        <time>2025-01-16T12:41:14Z</time>
      </trkpt>
      <trkpt lat="47.55689" lon="-2.31772">
        <ele>37.8</ele>
        <time>2025-01-16T12:41:15Z</time>
      </trkpt>
      <trkpt lat="47.55689" lon="-2.31769">
        <ele>38.1</ele>
        <time>2025-01-16T12:41:16Z</time>
      </trkpt>
      <trkpt lat="47.55689" lon="-2.31766">
        <ele>38.3</ele>
        <time>2025-01-16T12:41:17Z</time>
      </trkpt>
      <trkpt lat="47.55689" lon="-2.31763">
        <ele>38.5</ele>
        <time>2025-01-16T12:41:18Z</time>
      </trkpt>
      <trkpt lat="47.55689" lon="-2.31761">
        <ele>38.6</ele>
        <time>2025-01-16T12:41:19Z</time>
      </trkpt>
      <trkpt lat="47.55688" lon="-2.3176">
        <ele>38.4</ele>
        <time>2025-01-16T12:41:20Z</time>
      </trkpt>
      <trkpt lat="47.55688" lon="-2.31759">
        <ele>38.5</ele>
        <time>2025-01-16T12:41:21Z</time>
      </trkpt>
      <trkpt lat="47.55688" lon="-2.31758">
        <ele>38.6</ele>
        <time>2025-01-16T12:41:22Z</time>
      </trkpt>
      <trkpt lat="47.55688" lon="-2.31758">
        <ele>38.6</ele>
        <time>2025-01-16T12:41:23Z</time>
      </trkpt>
      <trkpt lat="47.55688" lon="-2.31757">
        <ele>38.6</ele>
        <time>2025-01-16T12:41:24Z</time>
      </trkpt>
      <trkpt lat="47.55687" lon="-2.31757">
        <ele>38.4</ele>
        <time>2025-01-16T12:41:25Z</time>
      </trkpt>
      <trkpt lat="47.55687" lon="-2.31756">
        <ele>38.4</ele>
        <time>2025-01-16T12:41:26Z</time>
      </trkpt>
      <trkpt lat="47.55687" lon="-2.31756">
        <ele>38.4</ele>
        <time>2025-01-16T12:41:27Z</time>
      </trkpt>
      <trkpt lat="47.55687" lon="-2.31756">
        <ele>38.4</ele>
        <time>2025-01-16T12:41:28Z</time>
      </trkpt>
      <trkpt lat="47.55687" lon="-2.31755">
        <ele>38.5</ele>
        <time>2025-01-16T12:41:29Z</time>
      </trkpt>
      <trkpt lat="47.55687" lon="-2.31755">
        <ele>38.5</ele>
        <time>2025-01-16T12:41:30Z</time>
      </trkpt>
      <trkpt lat="47.55687" lon="-2.31755">
        <ele>38.5</ele>
        <time>2025-01-16T12:41:31Z</time>
      </trkpt>
      <trkpt lat="47.55687" lon="-2.31755">
        <ele>38.5</ele>
        <time>2025-01-16T12:41:32Z</time>
      </trkpt>
      <trkpt lat="47.55687" lon="-2.31755">
        <ele>38.5</ele>
        <time>2025-01-16T12:41:33Z</time>
      </trkpt>
      <trkpt lat="47.55687" lon="-2.31755">
        <ele>38.5</ele>
        <time>2025-01-16T12:41:34Z</time>
      </trkpt>
      <trkpt lat="47.55687" lon="-2.31755">
        <ele>38.5</ele>
        <time>2025-01-16T12:41:35Z</time>
      </trkpt>
      <trkpt lat="47.55687" lon="-2.31755">
        <ele>38.5</ele>
        <time>2025-01-16T12:41:36Z</time>
      </trkpt>
      <trkpt lat="47.55687" lon="-2.31755">
        <ele>38.5</ele>
        <time>2025-01-16T12:41:37Z</time>
      </trkpt>
      <trkpt lat="47.55687" lon="-2.31755">
        <ele>38.5</ele>
        <time>2025-01-16T12:41:38Z</time>
      </trkpt>
      <trkpt lat="47.55687" lon="-2.31755">
        <ele>38.5</ele>
        <time>2025-01-16T12:41:39Z</time>
      </trkpt>
      <trkpt lat="47.55687" lon="-2.31755">
        <ele>38.5</ele>
        <time>2025-01-16T12:41:40Z</time>
      </trkpt>
      <trkpt lat="47.55687" lon="-2.31755">
        <ele>38.5</ele>
        <time>2025-01-16T12:41:41Z</time>
      </trkpt>
      <trkpt lat="47.55687" lon="-2.31755">
        <ele>38.5</ele>
        <time>2025-01-16T12:41:42Z</time>
      </trkpt>
      <trkpt lat="47.55687" lon="-2.31755">
        <ele>38.5</ele>
        <time>2025-01-16T12:41:43Z</time>
      </trkpt>
      <trkpt lat="47.55687" lon="-2.31753">
        <ele>38.6</ele>
        <time>2025-01-16T12:41:44Z</time>
      </trkpt>
      <trkpt lat="47.55687" lon="-2.31751">
        <ele>38.8</ele>
        <time>2025-01-16T12:41:45Z</time>
      </trkpt>
      <trkpt lat="47.55687" lon="-2.31748">
        <ele>39.1</ele>
        <time>2025-01-16T12:41:46Z</time>
      </trkpt>
      <trkpt lat="47.55687" lon="-2.31746">
        <ele>39.2</ele>
        <time>2025-01-16T12:41:47Z</time>
      </trkpt>
      <trkpt lat="47.55687" lon="-2.31744">
        <ele>39.4</ele>
        <time>2025-01-16T12:41:48Z</time>
      </trkpt>
      <trkpt lat="47.55687" lon="-2.31741">
        <ele>39.7</ele>
        <time>2025-01-16T12:41:49Z</time>
      </trkpt>
      <trkpt lat="47.55687" lon="-2.31739">
        <ele>39.9</ele>
        <time>2025-01-16T12:41:50Z</time>
      </trkpt>
      <trkpt lat="47.55687" lon="-2.31737">
        <ele>40.1</ele>
        <time>2025-01-16T12:41:51Z</time>
      </trkpt>
      <trkpt lat="47.55687" lon="-2.31734">
        <ele>40.4</ele>
        <time>2025-01-16T12:41:52Z</time>
      </trkpt>
      <trkpt lat="47.55687" lon="-2.31731">
        <ele>40.7</ele>
        <time>2025-01-16T12:41:53Z</time>
      </trkpt>
      <trkpt lat="47.55686" lon="-2.31729">
        <ele>40.6</ele>
        <time>2025-01-16T12:41:54Z</time>
      </trkpt>
      <trkpt lat="47.55687" lon="-2.31726">
        <ele>41.2</ele>
        <time>2025-01-16T12:41:55Z</time>
      </trkpt>
      <trkpt lat="47.55687" lon="-2.31725">
        <ele>41.3</ele>
        <time>2025-01-16T12:41:56Z</time>
      </trkpt>
      <trkpt lat="47.55686" lon="-2.31722">
        <ele>41.3</ele>
        <time>2025-01-16T12:41:57Z</time>
      </trkpt>
      <trkpt lat="47.55686" lon="-2.3172">
        <ele>41.4</ele>
        <time>2025-01-16T12:41:58Z</time>
      </trkpt>
      <trkpt lat="47.55686" lon="-2.31718">
        <ele>41.6</ele>
        <time>2025-01-16T12:41:59Z</time>
      </trkpt>
      <trkpt lat="47.55685" lon="-2.31716">
        <ele>41.4</ele>
        <time>2025-01-16T12:42:00Z</time>
      </trkpt>
      <trkpt lat="47.55685" lon="-2.31714">
        <ele>41.5</ele>
        <time>2025-01-16T12:42:01Z</time>
      </trkpt>
      <trkpt lat="47.55684" lon="-2.31713">
        <ele>41.3</ele>
        <time>2025-01-16T12:42:02Z</time>
      </trkpt>
      <trkpt lat="47.55684" lon="-2.31711">
        <ele>41.4</ele>
        <time>2025-01-16T12:42:03Z</time>
      </trkpt>
      <trkpt lat="47.55684" lon="-2.31709">
        <ele>41.6</ele>
        <time>2025-01-16T12:42:04Z</time>
      </trkpt>
      <trkpt lat="47.55684" lon="-2.31707">
        <ele>41.7</ele>
        <time>2025-01-16T12:42:05Z</time>
      </trkpt>
      <trkpt lat="47.55684" lon="-2.31705">
        <ele>41.9</ele>
        <time>2025-01-16T12:42:06Z</time>
      </trkpt>
      <trkpt lat="47.55684" lon="-2.31704">
        <ele>41.9</ele>
        <time>2025-01-16T12:42:07Z</time>
      </trkpt>
      <trkpt lat="47.55684" lon="-2.31703">
        <ele>42</ele>
        <time>2025-01-16T12:42:08Z</time>
      </trkpt>
      <trkpt lat="47.55684" lon="-2.31702">
        <ele>42.1</ele>
        <time>2025-01-16T12:42:09Z</time>
      </trkpt>
      <trkpt lat="47.55684" lon="-2.317">
        <ele>42.2</ele>
        <time>2025-01-16T12:42:10Z</time>
      </trkpt>
      <trkpt lat="47.55684" lon="-2.31699">
        <ele>42.3</ele>
        <time>2025-01-16T12:42:11Z</time>
      </trkpt>
      <trkpt lat="47.55684" lon="-2.31698">
        <ele>42.4</ele>
        <time>2025-01-16T12:42:12Z</time>
      </trkpt>
      <trkpt lat="47.55684" lon="-2.31696">
        <ele>42.5</ele>
        <time>2025-01-16T12:42:13Z</time>
      </trkpt>
      <trkpt lat="47.55684" lon="-2.31695">
        <ele>42.6</ele>
        <time>2025-01-16T12:42:14Z</time>
      </trkpt>
      <trkpt lat="47.55684" lon="-2.31694">
        <ele>42.6</ele>
        <time>2025-01-16T12:42:15Z</time>
      </trkpt>
      <trkpt lat="47.55684" lon="-2.31693">
        <ele>42.7</ele>
        <time>2025-01-16T12:42:16Z</time>
      </trkpt>
      <trkpt lat="47.55684" lon="-2.31691">
        <ele>42.7</ele>
        <time>2025-01-16T12:42:17Z</time>
      </trkpt>
      <trkpt lat="47.55684" lon="-2.31689">
        <ele>42.8</ele>
        <time>2025-01-16T12:42:18Z</time>
      </trkpt>
      <trkpt lat="47.55685" lon="-2.31687">
        <ele>43.2</ele>
        <time>2025-01-16T12:42:19Z</time>
      </trkpt>
      <trkpt lat="47.55686" lon="-2.31686">
        <ele>43.6</ele>
        <time>2025-01-16T12:42:20Z</time>
      </trkpt>
      <trkpt lat="47.55686" lon="-2.31684">
        <ele>43.6</ele>
        <time>2025-01-16T12:42:21Z</time>
      </trkpt>
      <trkpt lat="47.55686" lon="-2.31682">
        <ele>43.7</ele>
        <time>2025-01-16T12:42:22Z</time>
      </trkpt>
      <trkpt lat="47.55686" lon="-2.3168">
        <ele>43.8</ele>
        <time>2025-01-16T12:42:23Z</time>
      </trkpt>
      <trkpt lat="47.55686" lon="-2.31679">
        <ele>43.8</ele>
        <time>2025-01-16T12:42:24Z</time>
      </trkpt>
      <trkpt lat="47.55686" lon="-2.31678">
        <ele>43.9</ele>
        <time>2025-01-16T12:42:25Z</time>
      </trkpt>
      <trkpt lat="47.55685" lon="-2.31677">
        <ele>43.6</ele>
        <time>2025-01-16T12:42:26Z</time>
      </trkpt>
      <trkpt lat="47.55685" lon="-2.31676">
        <ele>43.6</ele>
        <time>2025-01-16T12:42:27Z</time>
      </trkpt>
      <trkpt lat="47.55685" lon="-2.31676">
        <ele>43.6</ele>
        <time>2025-01-16T12:42:28Z</time>
      </trkpt>
      <trkpt lat="47.55684" lon="-2.31675">
        <ele>43.3</ele>
        <time>2025-01-16T12:42:29Z</time>
      </trkpt>
      <trkpt lat="47.55684" lon="-2.31674">
        <ele>43.4</ele>
        <time>2025-01-16T12:42:30Z</time>
      </trkpt>
      <trkpt lat="47.55684" lon="-2.31674">
        <ele>43.4</ele>
        <time>2025-01-16T12:42:31Z</time>
      </trkpt>
      <trkpt lat="47.55684" lon="-2.31673">
        <ele>43.4</ele>
        <time>2025-01-16T12:42:32Z</time>
      </trkpt>
      <trkpt lat="47.55684" lon="-2.31671">
        <ele>43.5</ele>
        <time>2025-01-16T12:42:33Z</time>
      </trkpt>
      <trkpt lat="47.55685" lon="-2.3167">
        <ele>43.8</ele>
        <time>2025-01-16T12:42:34Z</time>
      </trkpt>
      <trkpt lat="47.55686" lon="-2.31668">
        <ele>44.2</ele>
        <time>2025-01-16T12:42:35Z</time>
      </trkpt>
      <trkpt lat="47.55686" lon="-2.31667">
        <ele>44.3</ele>
        <time>2025-01-16T12:42:36Z</time>
      </trkpt>
      <trkpt lat="47.55687" lon="-2.31665">
        <ele>44.6</ele>
        <time>2025-01-16T12:42:37Z</time>
      </trkpt>
      <trkpt lat="47.55687" lon="-2.31663">
        <ele>44.6</ele>
        <time>2025-01-16T12:42:38Z</time>
      </trkpt>
      <trkpt lat="47.55687" lon="-2.31661">
        <ele>44.6</ele>
        <time>2025-01-16T12:42:39Z</time>
      </trkpt>
      <trkpt lat="47.55688" lon="-2.31659">
        <ele>44.9</ele>
        <time>2025-01-16T12:42:40Z</time>
      </trkpt>
      <trkpt lat="47.55688" lon="-2.31657">
        <ele>44.9</ele>
        <time>2025-01-16T12:42:41Z</time>
      </trkpt>
      <trkpt lat="47.55689" lon="-2.31655">
        <ele>45.2</ele>
        <time>2025-01-16T12:42:42Z</time>
      </trkpt>
      <trkpt lat="47.5569" lon="-2.31654">
        <ele>45.6</ele>
        <time>2025-01-16T12:42:43Z</time>
      </trkpt>
      <trkpt lat="47.55691" lon="-2.31652">
        <ele>45.9</ele>
        <time>2025-01-16T12:42:44Z</time>
      </trkpt>
      <trkpt lat="47.55692" lon="-2.31651">
        <ele>46.2</ele>
        <time>2025-01-16T12:42:45Z</time>
      </trkpt>
      <trkpt lat="47.55692" lon="-2.3165">
        <ele>46.2</ele>
        <time>2025-01-16T12:42:46Z</time>
      </trkpt>
      <trkpt lat="47.55693" lon="-2.31648">
        <ele>46.5</ele>
        <time>2025-01-16T12:42:47Z</time>
      </trkpt>
      <trkpt lat="47.55694" lon="-2.31645">
        <ele>46.9</ele>
        <time>2025-01-16T12:42:48Z</time>
      </trkpt>
      <trkpt lat="47.55694" lon="-2.31644">
        <ele>46.9</ele>
        <time>2025-01-16T12:42:49Z</time>
      </trkpt>
      <trkpt lat="47.55695" lon="-2.31643">
        <ele>47.1</ele>
        <time>2025-01-16T12:42:50Z</time>
      </trkpt>
      <trkpt lat="47.55695" lon="-2.31642">
        <ele>47.1</ele>
        <time>2025-01-16T12:42:51Z</time>
      </trkpt>
      <trkpt lat="47.55696" lon="-2.31642">
        <ele>47.3</ele>
        <time>2025-01-16T12:42:52Z</time>
      </trkpt>
      <trkpt lat="47.55696" lon="-2.31642">
        <ele>47.3</ele>
        <time>2025-01-16T12:42:53Z</time>
      </trkpt>
      <trkpt lat="47.55697" lon="-2.31641">
        <ele>47.6</ele>
        <time>2025-01-16T12:42:54Z</time>
      </trkpt>
      <trkpt lat="47.55697" lon="-2.31641">
        <ele>47.6</ele>
        <time>2025-01-16T12:42:55Z</time>
      </trkpt>
      <trkpt lat="47.55697" lon="-2.31642">
        <ele>47.6</ele>
        <time>2025-01-16T12:42:56Z</time>
      </trkpt>
      <trkpt lat="47.55698" lon="-2.31642">
        <ele>47.8</ele>
        <time>2025-01-16T12:42:57Z</time>
      </trkpt>
      <trkpt lat="47.55698" lon="-2.31642">
        <ele>47.8</ele>
        <time>2025-01-16T12:42:58Z</time>
      </trkpt>
      <trkpt lat="47.55698" lon="-2.31642">
        <ele>47.8</ele>
        <time>2025-01-16T12:42:59Z</time>
      </trkpt>
      <trkpt lat="47.55698" lon="-2.31642">
        <ele>47.8</ele>
        <time>2025-01-16T12:43:00Z</time>
      </trkpt>
      <trkpt lat="47.55699" lon="-2.31643">
        <ele>48</ele>
        <time>2025-01-16T12:43:01Z</time>
      </trkpt>
      <trkpt lat="47.557" lon="-2.31644">
        <ele>48.2</ele>
        <time>2025-01-16T12:43:02Z</time>
      </trkpt>
      <trkpt lat="47.55701" lon="-2.31645">
        <ele>48.4</ele>
        <time>2025-01-16T12:43:03Z</time>
      </trkpt>
      <trkpt lat="47.55702" lon="-2.31646">
        <ele>48.6</ele>
        <time>2025-01-16T12:43:04Z</time>
      </trkpt>
      <trkpt lat="47.55702" lon="-2.31647">
        <ele>48.6</ele>
        <time>2025-01-16T12:43:05Z</time>
      </trkpt>
      <trkpt lat="47.55702" lon="-2.31647">
        <ele>48.6</ele>
        <time>2025-01-16T12:43:06Z</time>
      </trkpt>
      <trkpt lat="47.55702" lon="-2.31648">
        <ele>48.6</ele>
        <time>2025-01-16T12:43:07Z</time>
      </trkpt>
      <trkpt lat="47.55702" lon="-2.31648">
        <ele>48.6</ele>
        <time>2025-01-16T12:43:08Z</time>
      </trkpt>
      <trkpt lat="47.55702" lon="-2.31648">
        <ele>48.6</ele>
        <time>2025-01-16T12:43:09Z</time>
      </trkpt>
      <trkpt lat="47.55702" lon="-2.31647">
        <ele>48.6</ele>
        <time>2025-01-16T12:43:10Z</time>
      </trkpt>
      <trkpt lat="47.55701" lon="-2.31647">
        <ele>48.4</ele>
        <time>2025-01-16T12:43:11Z</time>
      </trkpt>
      <trkpt lat="47.55701" lon="-2.31647">
        <ele>48.4</ele>
        <time>2025-01-16T12:43:12Z</time>
      </trkpt>
      <trkpt lat="47.55701" lon="-2.31647">
        <ele>48.4</ele>
        <time>2025-01-16T12:43:13Z</time>
      </trkpt>
      <trkpt lat="47.557" lon="-2.31647">
        <ele>48.2</ele>
        <time>2025-01-16T12:43:14Z</time>
      </trkpt>
      <trkpt lat="47.557" lon="-2.31647">
        <ele>48.2</ele>
        <time>2025-01-16T12:43:15Z</time>
      </trkpt>
      <trkpt lat="47.557" lon="-2.31647">
        <ele>48.2</ele>
        <time>2025-01-16T12:43:16Z</time>
      </trkpt>
      <trkpt lat="47.557" lon="-2.31647">
        <ele>48.2</ele>
        <time>2025-01-16T12:43:17Z</time>
      </trkpt>
      <trkpt lat="47.55699" lon="-2.31647">
        <ele>48</ele>
        <time>2025-01-16T12:43:18Z</time>
      </trkpt>
      <trkpt lat="47.55699" lon="-2.31647">
        <ele>48</ele>
        <time>2025-01-16T12:43:19Z</time>
      </trkpt>
      <trkpt lat="47.55699" lon="-2.31648">
        <ele>48</ele>
        <time>2025-01-16T12:43:20Z</time>
      </trkpt>
      <trkpt lat="47.55699" lon="-2.31648">
        <ele>48</ele>
        <time>2025-01-16T12:43:21Z</time>
      </trkpt>
      <trkpt lat="47.55699" lon="-2.31648">
        <ele>48</ele>
        <time>2025-01-16T12:43:22Z</time>
      </trkpt>
      <trkpt lat="47.55699" lon="-2.31648">
        <ele>48</ele>
        <time>2025-01-16T12:43:23Z</time>
      </trkpt>
      <trkpt lat="47.55699" lon="-2.31648">
        <ele>48</ele>
        <time>2025-01-16T12:43:24Z</time>
      </trkpt>
      <trkpt lat="47.55699" lon="-2.31648">
        <ele>48</ele>
        <time>2025-01-16T12:43:25Z</time>
      </trkpt>
      <trkpt lat="47.55699" lon="-2.31648">
        <ele>48</ele>
        <time>2025-01-16T12:43:26Z</time>
      </trkpt>
      <trkpt lat="47.55699" lon="-2.31648">
        <ele>48</ele>
        <time>2025-01-16T12:43:27Z</time>
      </trkpt>
      <trkpt lat="47.55699" lon="-2.31648">
        <ele>48</ele>
        <time>2025-01-16T12:43:28Z</time>
      </trkpt>
      <trkpt lat="47.55699" lon="-2.31648">
        <ele>48</ele>
        <time>2025-01-16T12:43:29Z</time>
      </trkpt>
      <trkpt lat="47.55699" lon="-2.31648">
        <ele>48</ele>
        <time>2025-01-16T12:43:30Z</time>
      </trkpt>
      <trkpt lat="47.55699" lon="-2.31648">
        <ele>48</ele>
        <time>2025-01-16T12:43:31Z</time>
      </trkpt>
      <trkpt lat="47.55699" lon="-2.31648">
        <ele>48</ele>
        <time>2025-01-16T12:43:32Z</time>
      </trkpt>
      <trkpt lat="47.55699" lon="-2.31648">
        <ele>48</ele>
        <time>2025-01-16T12:43:33Z</time>
      </trkpt>
      <trkpt lat="47.55699" lon="-2.31648">
        <ele>48</ele>
        <time>2025-01-16T12:43:34Z</time>
      </trkpt>
      <trkpt lat="47.55699" lon="-2.31648">
        <ele>48</ele>
        <time>2025-01-16T12:43:35Z</time>
      </trkpt>
      <trkpt lat="47.55699" lon="-2.31648">
        <ele>48</ele>
        <time>2025-01-16T12:43:36Z</time>
      </trkpt>
      <trkpt lat="47.55699" lon="-2.31648">
        <ele>48</ele>
        <time>2025-01-16T12:43:37Z</time>
      </trkpt>
      <trkpt lat="47.55699" lon="-2.31648">
        <ele>48</ele>
        <time>2025-01-16T12:43:38Z</time>
      </trkpt>
      <trkpt lat="47.55699" lon="-2.31648">
        <ele>48</ele>
        <time>2025-01-16T12:43:39Z</time>
      </trkpt>
      <trkpt lat="47.55699" lon="-2.31648">
        <ele>48</ele>
        <time>2025-01-16T12:43:40Z</time>
      </trkpt>
      <trkpt lat="47.55698" lon="-2.31648">
        <ele>47.8</ele>
        <time>2025-01-16T12:43:41Z</time>
      </trkpt>
      <trkpt lat="47.55698" lon="-2.31648">
        <ele>47.8</ele>
        <time>2025-01-16T12:43:42Z</time>
      </trkpt>
      <trkpt lat="47.55698" lon="-2.31648">
        <ele>47.8</ele>
        <time>2025-01-16T12:43:43Z</time>
      </trkpt>
      <trkpt lat="47.55698" lon="-2.31648">
        <ele>47.8</ele>
        <time>2025-01-16T12:43:44Z</time>
      </trkpt>
      <trkpt lat="47.55698" lon="-2.31648">
        <ele>47.8</ele>
        <time>2025-01-16T12:43:45Z</time>
      </trkpt>
      <trkpt lat="47.55698" lon="-2.31648">
        <ele>47.8</ele>
        <time>2025-01-16T12:43:46Z</time>
      </trkpt>
      <trkpt lat="47.55698" lon="-2.31648">
        <ele>47.8</ele>
        <time>2025-01-16T12:43:47Z</time>
      </trkpt>
      <trkpt lat="47.55698" lon="-2.31648">
        <ele>47.8</ele>
        <time>2025-01-16T12:43:48Z</time>
      </trkpt>
      <trkpt lat="47.55698" lon="-2.31648">
        <ele>47.8</ele>
        <time>2025-01-16T12:43:49Z</time>
      </trkpt>
      <trkpt lat="47.55698" lon="-2.31648">
        <ele>47.8</ele>
        <time>2025-01-16T12:43:50Z</time>
      </trkpt>
      <trkpt lat="47.55698" lon="-2.31648">
        <ele>47.8</ele>
        <time>2025-01-16T12:43:51Z</time>
      </trkpt>
      <trkpt lat="47.55698" lon="-2.31648">
        <ele>47.8</ele>
        <time>2025-01-16T12:43:52Z</time>
      </trkpt>
      <trkpt lat="47.55698" lon="-2.31648">
        <ele>47.8</ele>
        <time>2025-01-16T12:43:53Z</time>
      </trkpt>
      <trkpt lat="47.55698" lon="-2.31648">
        <ele>47.8</ele>
        <time>2025-01-16T12:43:54Z</time>
      </trkpt>
      <trkpt lat="47.55698" lon="-2.31648">
        <ele>47.8</ele>
        <time>2025-01-16T12:43:55Z</time>
      </trkpt>
      <trkpt lat="47.55698" lon="-2.31648">
        <ele>47.8</ele>
        <time>2025-01-16T12:43:56Z</time>
      </trkpt>
      <trkpt lat="47.55698" lon="-2.31648">
        <ele>47.8</ele>
        <time>2025-01-16T12:43:57Z</time>
      </trkpt>
      <trkpt lat="47.55698" lon="-2.31648">
        <ele>47.8</ele>
        <time>2025-01-16T12:43:58Z</time>
      </trkpt>
      <trkpt lat="47.55698" lon="-2.31648">
        <ele>47.8</ele>
        <time>2025-01-16T12:43:59Z</time>
      </trkpt>
      <trkpt lat="47.55698" lon="-2.31648">
        <ele>47.8</ele>
        <time>2025-01-16T12:44:00Z</time>
      </trkpt>
      <trkpt lat="47.55698" lon="-2.31648">
        <ele>47.8</ele>
        <time>2025-01-16T12:44:01Z</time>
      </trkpt>
      <trkpt lat="47.55698" lon="-2.31648">
        <ele>47.8</ele>
        <time>2025-01-16T12:44:02Z</time>
      </trkpt>
      <trkpt lat="47.55698" lon="-2.31648">
        <ele>47.8</ele>
        <time>2025-01-16T12:44:03Z</time>
      </trkpt>
      <trkpt lat="47.55698" lon="-2.31648">
        <ele>47.8</ele>
        <time>2025-01-16T12:44:04Z</time>
      </trkpt>
      <trkpt lat="47.55699" lon="-2.31648">
        <ele>48</ele>
        <time>2025-01-16T12:44:05Z</time>
      </trkpt>
      <trkpt lat="47.55699" lon="-2.31648">
        <ele>48</ele>
        <time>2025-01-16T12:44:06Z</time>
      </trkpt>
      <trkpt lat="47.557" lon="-2.31648">
        <ele>48.2</ele>
        <time>2025-01-16T12:44:07Z</time>
      </trkpt>
      <trkpt lat="47.557" lon="-2.31648">
        <ele>48.2</ele>
        <time>2025-01-16T12:44:08Z</time>
      </trkpt>
      <trkpt lat="47.557" lon="-2.31649">
        <ele>48.2</ele>
        <time>2025-01-16T12:44:09Z</time>
      </trkpt>
      <trkpt lat="47.557" lon="-2.31649">
        <ele>48.2</ele>
        <time>2025-01-16T12:44:10Z</time>
      </trkpt>
      <trkpt lat="47.55701" lon="-2.31649">
        <ele>48.4</ele>
        <time>2025-01-16T12:44:11Z</time>
      </trkpt>
      <trkpt lat="47.557" lon="-2.31649">
        <ele>48.2</ele>
        <time>2025-01-16T12:44:12Z</time>
      </trkpt>
      <trkpt lat="47.557" lon="-2.31649">
        <ele>48.2</ele>
        <time>2025-01-16T12:44:13Z</time>
      </trkpt>
      <trkpt lat="47.557" lon="-2.31649">
        <ele>48.2</ele>
        <time>2025-01-16T12:44:14Z</time>
      </trkpt>
      <trkpt lat="47.55701" lon="-2.31649">
        <ele>48.4</ele>
        <time>2025-01-16T12:44:15Z</time>
      </trkpt>
      <trkpt lat="47.55701" lon="-2.3165">
        <ele>48.4</ele>
        <time>2025-01-16T12:44:16Z</time>
      </trkpt>
      <trkpt lat="47.55702" lon="-2.31651">
        <ele>48.6</ele>
        <time>2025-01-16T12:44:17Z</time>
      </trkpt>
      <trkpt lat="47.55703" lon="-2.31653">
        <ele>48.8</ele>
        <time>2025-01-16T12:44:18Z</time>
      </trkpt>
      <trkpt lat="47.55704" lon="-2.31654">
        <ele>49.1</ele>
        <time>2025-01-16T12:44:19Z</time>
      </trkpt>
      <trkpt lat="47.55705" lon="-2.31655">
        <ele>49.3</ele>
        <time>2025-01-16T12:44:20Z</time>
      </trkpt>
      <trkpt lat="47.55706" lon="-2.31657">
        <ele>49.5</ele>
        <time>2025-01-16T12:44:21Z</time>
      </trkpt>
      <trkpt lat="47.55707" lon="-2.31658">
        <ele>49.7</ele>
        <time>2025-01-16T12:44:22Z</time>
      </trkpt>
      <trkpt lat="47.55707" lon="-2.31658">
        <ele>49.7</ele>
        <time>2025-01-16T12:44:23Z</time>
      </trkpt>
      <trkpt lat="47.55708" lon="-2.31659">
        <ele>49.9</ele>
        <time>2025-01-16T12:44:24Z</time>
      </trkpt>
      <trkpt lat="47.55709" lon="-2.3166">
        <ele>50.1</ele>
        <time>2025-01-16T12:44:25Z</time>
      </trkpt>
      <trkpt lat="47.5571" lon="-2.31661">
        <ele>50.4</ele>
        <time>2025-01-16T12:44:26Z</time>
      </trkpt>
      <trkpt lat="47.5571" lon="-2.31662">
        <ele>50.4</ele>
        <time>2025-01-16T12:44:27Z</time>
      </trkpt>
      <trkpt lat="47.5571" lon="-2.31663">
        <ele>50.4</ele>
        <time>2025-01-16T12:44:28Z</time>
      </trkpt>
      <trkpt lat="47.55711" lon="-2.31665">
        <ele>50.6</ele>
        <time>2025-01-16T12:44:29Z</time>
      </trkpt>
      <trkpt lat="47.55711" lon="-2.31666">
        <ele>50.6</ele>
        <time>2025-01-16T12:44:30Z</time>
      </trkpt>
      <trkpt lat="47.55711" lon="-2.31667">
        <ele>50.6</ele>
        <time>2025-01-16T12:44:31Z</time>
      </trkpt>
      <trkpt lat="47.55712" lon="-2.31667">
        <ele>50.8</ele>
        <time>2025-01-16T12:44:32Z</time>
      </trkpt>
      <trkpt lat="47.55712" lon="-2.31668">
        <ele>50.7</ele>
        <time>2025-01-16T12:44:33Z</time>
      </trkpt>
      <trkpt lat="47.55713" lon="-2.31669">
        <ele>50.9</ele>
        <time>2025-01-16T12:44:34Z</time>
      </trkpt>
      <trkpt lat="47.55713" lon="-2.3167">
        <ele>50.9</ele>
        <time>2025-01-16T12:44:35Z</time>
      </trkpt>
      <trkpt lat="47.55714" lon="-2.3167">
        <ele>51.1</ele>
        <time>2025-01-16T12:44:36Z</time>
      </trkpt>
      <trkpt lat="47.55714" lon="-2.31671">
        <ele>51.1</ele>
        <time>2025-01-16T12:44:37Z</time>
      </trkpt>
      <trkpt lat="47.55714" lon="-2.31672">
        <ele>51</ele>
        <time>2025-01-16T12:44:38Z</time>
      </trkpt>
      <trkpt lat="47.55714" lon="-2.31672">
        <ele>51</ele>
        <time>2025-01-16T12:44:39Z</time>
      </trkpt>
      <trkpt lat="47.55714" lon="-2.31672">
        <ele>51</ele>
        <time>2025-01-16T12:44:40Z</time>
      </trkpt>
      <trkpt lat="47.55714" lon="-2.31672">
        <ele>51</ele>
        <time>2025-01-16T12:44:41Z</time>
      </trkpt>
      <trkpt lat="47.55714" lon="-2.31672">
        <ele>51</ele>
        <time>2025-01-16T12:44:42Z</time>
      </trkpt>
      <trkpt lat="47.55714" lon="-2.31672">
        <ele>51</ele>
        <time>2025-01-16T12:44:43Z</time>
      </trkpt>
      <trkpt lat="47.55714" lon="-2.31672">
        <ele>51</ele>
        <time>2025-01-16T12:44:44Z</time>
      </trkpt>
      <trkpt lat="47.55714" lon="-2.31673">
        <ele>51</ele>
        <time>2025-01-16T12:44:45Z</time>
      </trkpt>
      <trkpt lat="47.55714" lon="-2.31673">
        <ele>51</ele>
        <time>2025-01-16T12:44:46Z</time>
      </trkpt>
      <trkpt lat="47.55714" lon="-2.31673">
        <ele>51</ele>
        <time>2025-01-16T12:44:47Z</time>
      </trkpt>
      <trkpt lat="47.55714" lon="-2.31673">
        <ele>51</ele>
        <time>2025-01-16T12:44:48Z</time>
      </trkpt>
      <trkpt lat="47.55714" lon="-2.31673">
        <ele>51</ele>
        <time>2025-01-16T12:44:49Z</time>
      </trkpt>
      <trkpt lat="47.55714" lon="-2.31673">
        <ele>51</ele>
        <time>2025-01-16T12:44:50Z</time>
      </trkpt>
      <trkpt lat="47.55714" lon="-2.31673">
        <ele>51</ele>
        <time>2025-01-16T12:44:51Z</time>
      </trkpt>
      <trkpt lat="47.55714" lon="-2.31674">
        <ele>51</ele>
        <time>2025-01-16T12:44:52Z</time>
      </trkpt>
      <trkpt lat="47.55714" lon="-2.31674">
        <ele>51</ele>
        <time>2025-01-16T12:44:53Z</time>
      </trkpt>
      <trkpt lat="47.55714" lon="-2.31674">
        <ele>51</ele>
        <time>2025-01-16T12:44:54Z</time>
      </trkpt>
      <trkpt lat="47.55714" lon="-2.31674">
        <ele>51</ele>
        <time>2025-01-16T12:44:55Z</time>
      </trkpt>
      <trkpt lat="47.55714" lon="-2.31674">
        <ele>51</ele>
        <time>2025-01-16T12:44:56Z</time>
      </trkpt>
      <trkpt lat="47.55715" lon="-2.31674">
        <ele>51.2</ele>
        <time>2025-01-16T12:44:57Z</time>
      </trkpt>
      <trkpt lat="47.55715" lon="-2.31675">
        <ele>51.1</ele>
        <time>2025-01-16T12:44:58Z</time>
      </trkpt>
      <trkpt lat="47.55716" lon="-2.31675">
        <ele>51.4</ele>
        <time>2025-01-16T12:44:59Z</time>
      </trkpt>
      <trkpt lat="47.55716" lon="-2.31676">
        <ele>51.3</ele>
        <time>2025-01-16T12:45:00Z</time>
      </trkpt>
      <trkpt lat="47.55717" lon="-2.31677">
        <ele>51.5</ele>
        <time>2025-01-16T12:45:01Z</time>
      </trkpt>
      <trkpt lat="47.55717" lon="-2.31678">
        <ele>51.5</ele>
        <time>2025-01-16T12:45:02Z</time>
      </trkpt>
      <trkpt lat="47.55718" lon="-2.3168">
        <ele>51.6</ele>
        <time>2025-01-16T12:45:03Z</time>
      </trkpt>
      <trkpt lat="47.55719" lon="-2.31681">
        <ele>51.8</ele>
        <time>2025-01-16T12:45:04Z</time>
      </trkpt>
      <trkpt lat="47.55719" lon="-2.31683">
        <ele>51.7</ele>
        <time>2025-01-16T12:45:05Z</time>
      </trkpt>
      <trkpt lat="47.5572" lon="-2.31684">
        <ele>51.9</ele>
        <time>2025-01-16T12:45:06Z</time>
      </trkpt>
      <trkpt lat="47.5572" lon="-2.31686">
        <ele>51.8</ele>
        <time>2025-01-16T12:45:07Z</time>
      </trkpt>
      <trkpt lat="47.5572" lon="-2.31689">
        <ele>51.7</ele>
        <time>2025-01-16T12:45:08Z</time>
      </trkpt>
      <trkpt lat="47.5572" lon="-2.31691">
        <ele>51.6</ele>
        <time>2025-01-16T12:45:09Z</time>
      </trkpt>
      <trkpt lat="47.55721" lon="-2.31693">
        <ele>51.8</ele>
        <time>2025-01-16T12:45:10Z</time>
      </trkpt>
      <trkpt lat="47.55721" lon="-2.31694">
        <ele>51.8</ele>
        <time>2025-01-16T12:45:11Z</time>
      </trkpt>
      <trkpt lat="47.55722" lon="-2.31696">
        <ele>51.9</ele>
        <time>2025-01-16T12:45:12Z</time>
      </trkpt>
      <trkpt lat="47.55722" lon="-2.31697">
        <ele>51.9</ele>
        <time>2025-01-16T12:45:13Z</time>
      </trkpt>
      <trkpt lat="47.55723" lon="-2.31698">
        <ele>52.1</ele>
        <time>2025-01-16T12:45:14Z</time>
      </trkpt>
      <trkpt lat="47.55724" lon="-2.31699">
        <ele>52.3</ele>
        <time>2025-01-16T12:45:15Z</time>
      </trkpt>
      <trkpt lat="47.55725" lon="-2.317">
        <ele>52.5</ele>
        <time>2025-01-16T12:45:16Z</time>
      </trkpt>
      <trkpt lat="47.55725" lon="-2.31702">
        <ele>52.4</ele>
        <time>2025-01-16T12:45:17Z</time>
      </trkpt>
      <trkpt lat="47.55725" lon="-2.31703">
        <ele>52.4</ele>
        <time>2025-01-16T12:45:18Z</time>
      </trkpt>
      <trkpt lat="47.55726" lon="-2.31704">
        <ele>52.6</ele>
        <time>2025-01-16T12:45:19Z</time>
      </trkpt>
      <trkpt lat="47.55726" lon="-2.31705">
        <ele>52.5</ele>
        <time>2025-01-16T12:45:20Z</time>
      </trkpt>
      <trkpt lat="47.55726" lon="-2.31706">
        <ele>52.5</ele>
        <time>2025-01-16T12:45:21Z</time>
      </trkpt>
      <trkpt lat="47.55726" lon="-2.31708">
        <ele>52.4</ele>
        <time>2025-01-16T12:45:22Z</time>
      </trkpt>
      <trkpt lat="47.55727" lon="-2.31712">
        <ele>52.5</ele>
        <time>2025-01-16T12:45:23Z</time>
      </trkpt>
      <trkpt lat="47.55728" lon="-2.31714">
        <ele>52.6</ele>
        <time>2025-01-16T12:45:24Z</time>
      </trkpt>
      <trkpt lat="47.55729" lon="-2.31717">
        <ele>52.7</ele>
        <time>2025-01-16T12:45:25Z</time>
      </trkpt>
      <trkpt lat="47.5573" lon="-2.31719">
        <ele>52.8</ele>
        <time>2025-01-16T12:45:26Z</time>
      </trkpt>
      <trkpt lat="47.55731" lon="-2.31721">
        <ele>53</ele>
        <time>2025-01-16T12:45:27Z</time>
      </trkpt>
      <trkpt lat="47.55732" lon="-2.31723">
        <ele>53.1</ele>
        <time>2025-01-16T12:45:28Z</time>
      </trkpt>
      <trkpt lat="47.55733" lon="-2.31725">
        <ele>53.1</ele>
        <time>2025-01-16T12:45:29Z</time>
      </trkpt>
      <trkpt lat="47.55733" lon="-2.31728">
        <ele>52.9</ele>
        <time>2025-01-16T12:45:30Z</time>
      </trkpt>
      <trkpt lat="47.55733" lon="-2.3173">
        <ele>52.8</ele>
        <time>2025-01-16T12:45:31Z</time>
      </trkpt>
      <trkpt lat="47.55734" lon="-2.31731">
        <ele>52.9</ele>
        <time>2025-01-16T12:45:32Z</time>
      </trkpt>
      <trkpt lat="47.55734" lon="-2.31733">
        <ele>52.8</ele>
        <time>2025-01-16T12:45:33Z</time>
      </trkpt>
      <trkpt lat="47.55735" lon="-2.31734">
        <ele>52.9</ele>
        <time>2025-01-16T12:45:34Z</time>
      </trkpt>
      <trkpt lat="47.55735" lon="-2.31736">
        <ele>52.8</ele>
        <time>2025-01-16T12:45:35Z</time>
      </trkpt>
      <trkpt lat="47.55736" lon="-2.31737">
        <ele>52.9</ele>
        <time>2025-01-16T12:45:36Z</time>
      </trkpt>
      <trkpt lat="47.55736" lon="-2.31738">
        <ele>52.8</ele>
        <time>2025-01-16T12:45:37Z</time>
      </trkpt>
      <trkpt lat="47.55736" lon="-2.31739">
        <ele>52.8</ele>
        <time>2025-01-16T12:45:38Z</time>
      </trkpt>
      <trkpt lat="47.55736" lon="-2.3174">
        <ele>52.7</ele>
        <time>2025-01-16T12:45:39Z</time>
      </trkpt>
      <trkpt lat="47.55737" lon="-2.31741">
        <ele>52.8</ele>
        <time>2025-01-16T12:45:40Z</time>
      </trkpt>
      <trkpt lat="47.55737" lon="-2.31742">
        <ele>52.8</ele>
        <time>2025-01-16T12:45:41Z</time>
      </trkpt>
      <trkpt lat="47.55738" lon="-2.31742">
        <ele>53</ele>
        <time>2025-01-16T12:45:42Z</time>
      </trkpt>
      <trkpt lat="47.55739" lon="-2.31743">
        <ele>53.1</ele>
        <time>2025-01-16T12:45:43Z</time>
      </trkpt>
      <trkpt lat="47.5574" lon="-2.31743">
        <ele>53.3</ele>
        <time>2025-01-16T12:45:44Z</time>
      </trkpt>
      <trkpt lat="47.55741" lon="-2.31743">
        <ele>53.6</ele>
        <time>2025-01-16T12:45:45Z</time>
      </trkpt>
      <trkpt lat="47.55742" lon="-2.31744">
        <ele>53.7</ele>
        <time>2025-01-16T12:45:46Z</time>
      </trkpt>
      <trkpt lat="47.55743" lon="-2.31745">
        <ele>53.8</ele>
        <time>2025-01-16T12:45:47Z</time>
      </trkpt>
      <trkpt lat="47.55745" lon="-2.31746">
        <ele>54.2</ele>
        <time>2025-01-16T12:45:48Z</time>
      </trkpt>
      <trkpt lat="47.55745" lon="-2.31747">
        <ele>54.1</ele>
        <time>2025-01-16T12:45:49Z</time>
      </trkpt>
      <trkpt lat="47.55746" lon="-2.31748">
        <ele>54.3</ele>
        <time>2025-01-16T12:45:50Z</time>
      </trkpt>
      <trkpt lat="47.55747" lon="-2.31749">
        <ele>54.4</ele>
        <time>2025-01-16T12:45:51Z</time>
      </trkpt>
      <trkpt lat="47.55747" lon="-2.3175">
        <ele>54.4</ele>
        <time>2025-01-16T12:45:52Z</time>
      </trkpt>
      <trkpt lat="47.55748" lon="-2.31751">
        <ele>54.6</ele>
        <time>2025-01-16T12:45:53Z</time>
      </trkpt>
      <trkpt lat="47.55749" lon="-2.31752">
        <ele>54.8</ele>
        <time>2025-01-16T12:45:54Z</time>
      </trkpt>
      <trkpt lat="47.55749" lon="-2.31754">
        <ele>54.8</ele>
        <time>2025-01-16T12:45:55Z</time>
      </trkpt>
      <trkpt lat="47.55749" lon="-2.31755">
        <ele>54.8</ele>
        <time>2025-01-16T12:45:56Z</time>
      </trkpt>
      <trkpt lat="47.55749" lon="-2.31757">
        <ele>54.8</ele>
        <time>2025-01-16T12:45:57Z</time>
      </trkpt>
      <trkpt lat="47.5575" lon="-2.31759">
        <ele>55</ele>
        <time>2025-01-16T12:45:58Z</time>
      </trkpt>
      <trkpt lat="47.5575" lon="-2.3176">
        <ele>55</ele>
        <time>2025-01-16T12:45:59Z</time>
      </trkpt>
      <trkpt lat="47.55751" lon="-2.31762">
        <ele>55.2</ele>
        <time>2025-01-16T12:46:00Z</time>
      </trkpt>
      <trkpt lat="47.55751" lon="-2.31763">
        <ele>55.2</ele>
        <time>2025-01-16T12:46:01Z</time>
      </trkpt>
      <trkpt lat="47.55751" lon="-2.31763">
        <ele>55.2</ele>
        <time>2025-01-16T12:46:02Z</time>
      </trkpt>
      <trkpt lat="47.55752" lon="-2.31764">
        <ele>55.4</ele>
        <time>2025-01-16T12:46:03Z</time>
      </trkpt>
      <trkpt lat="47.55753" lon="-2.31766">
        <ele>55.6</ele>
        <time>2025-01-16T12:46:04Z</time>
      </trkpt>
      <trkpt lat="47.55753" lon="-2.31767">
        <ele>55.6</ele>
        <time>2025-01-16T12:46:05Z</time>
      </trkpt>
      <trkpt lat="47.55754" lon="-2.31768">
        <ele>55.9</ele>
        <time>2025-01-16T12:46:06Z</time>
      </trkpt>
      <trkpt lat="47.55755" lon="-2.31769">
        <ele>56.1</ele>
        <time>2025-01-16T12:46:07Z</time>
      </trkpt>
      <trkpt lat="47.55756" lon="-2.3177">
        <ele>56.3</ele>
        <time>2025-01-16T12:46:08Z</time>
      </trkpt>
      <trkpt lat="47.55756" lon="-2.31772">
        <ele>56.3</ele>
        <time>2025-01-16T12:46:09Z</time>
      </trkpt>
      <trkpt lat="47.55757" lon="-2.31774">
        <ele>56.5</ele>
        <time>2025-01-16T12:46:10Z</time>
      </trkpt>
      <trkpt lat="47.55757" lon="-2.31776">
        <ele>56.5</ele>
        <time>2025-01-16T12:46:11Z</time>
      </trkpt>
      <trkpt lat="47.55757" lon="-2.31778">
        <ele>56.5</ele>
        <time>2025-01-16T12:46:12Z</time>
      </trkpt>
      <trkpt lat="47.55758" lon="-2.31779">
        <ele>56.7</ele>
        <time>2025-01-16T12:46:13Z</time>
      </trkpt>
      <trkpt lat="47.55758" lon="-2.31781">
        <ele>56.7</ele>
        <time>2025-01-16T12:46:14Z</time>
      </trkpt>
      <trkpt lat="47.55758" lon="-2.31782">
        <ele>56.7</ele>
        <time>2025-01-16T12:46:15Z</time>
      </trkpt>
      <trkpt lat="47.55758" lon="-2.31784">
        <ele>56.7</ele>
        <time>2025-01-16T12:46:16Z</time>
      </trkpt>
      <trkpt lat="47.55759" lon="-2.31785">
        <ele>56.9</ele>
        <time>2025-01-16T12:46:17Z</time>
      </trkpt>
      <trkpt lat="47.55759" lon="-2.31787">
        <ele>56.9</ele>
        <time>2025-01-16T12:46:18Z</time>
      </trkpt>
      <trkpt lat="47.5576" lon="-2.31788">
        <ele>57.2</ele>
        <time>2025-01-16T12:46:19Z</time>
      </trkpt>
      <trkpt lat="47.5576" lon="-2.31789">
        <ele>57.2</ele>
        <time>2025-01-16T12:46:20Z</time>
      </trkpt>
      <trkpt lat="47.5576" lon="-2.31789">
        <ele>57.2</ele>
        <time>2025-01-16T12:46:21Z</time>
      </trkpt>
      <trkpt lat="47.5576" lon="-2.3179">
        <ele>57.2</ele>
        <time>2025-01-16T12:46:22Z</time>
      </trkpt>
      <trkpt lat="47.5576" lon="-2.3179">
        <ele>57.2</ele>
        <time>2025-01-16T12:46:23Z</time>
      </trkpt>
      <trkpt lat="47.55761" lon="-2.31791">
        <ele>57.4</ele>
        <time>2025-01-16T12:46:24Z</time>
      </trkpt>
      <trkpt lat="47.55762" lon="-2.31792">
        <ele>57.6</ele>
        <time>2025-01-16T12:46:25Z</time>
      </trkpt>
      <trkpt lat="47.55762" lon="-2.31793">
        <ele>57.6</ele>
        <time>2025-01-16T12:46:26Z</time>
      </trkpt>
      <trkpt lat="47.55763" lon="-2.31794">
        <ele>57.8</ele>
        <time>2025-01-16T12:46:27Z</time>
      </trkpt>
      <trkpt lat="47.55764" lon="-2.31795">
        <ele>58</ele>
        <time>2025-01-16T12:46:28Z</time>
      </trkpt>
      <trkpt lat="47.55764" lon="-2.31795">
        <ele>58</ele>
        <time>2025-01-16T12:46:29Z</time>
      </trkpt>
      <trkpt lat="47.55765" lon="-2.31796">
        <ele>58.2</ele>
        <time>2025-01-16T12:46:30Z</time>
      </trkpt>
      <trkpt lat="47.55766" lon="-2.31797">
        <ele>58.5</ele>
        <time>2025-01-16T12:46:31Z</time>
      </trkpt>
      <trkpt lat="47.55767" lon="-2.31799">
        <ele>58.7</ele>
        <time>2025-01-16T12:46:32Z</time>
      </trkpt>
      <trkpt lat="47.55767" lon="-2.31799">
        <ele>58.7</ele>
        <time>2025-01-16T12:46:33Z</time>
      </trkpt>
      <trkpt lat="47.55768" lon="-2.31799">
        <ele>58.9</ele>
        <time>2025-01-16T12:46:34Z</time>
      </trkpt>
      <trkpt lat="47.55768" lon="-2.31799">
        <ele>58.9</ele>
        <time>2025-01-16T12:46:35Z</time>
      </trkpt>
      <trkpt lat="47.55769" lon="-2.31799">
        <ele>59.1</ele>
        <time>2025-01-16T12:46:36Z</time>
      </trkpt>
      <trkpt lat="47.55769" lon="-2.31799">
        <ele>59.1</ele>
        <time>2025-01-16T12:46:37Z</time>
      </trkpt>
      <trkpt lat="47.5577" lon="-2.318">
        <ele>59.3</ele>
        <time>2025-01-16T12:46:38Z</time>
      </trkpt>
      <trkpt lat="47.55771" lon="-2.318">
        <ele>59.5</ele>
        <time>2025-01-16T12:46:39Z</time>
      </trkpt>
      <trkpt lat="47.55772" lon="-2.31801">
        <ele>59.8</ele>
        <time>2025-01-16T12:46:40Z</time>
      </trkpt>
      <trkpt lat="47.55773" lon="-2.31801">
        <ele>60</ele>
        <time>2025-01-16T12:46:41Z</time>
      </trkpt>
      <trkpt lat="47.55773" lon="-2.31801">
        <ele>60</ele>
        <time>2025-01-16T12:46:42Z</time>
      </trkpt>
      <trkpt lat="47.55773" lon="-2.31801">
        <ele>60</ele>
        <time>2025-01-16T12:46:43Z</time>
      </trkpt>
      <trkpt lat="47.55773" lon="-2.31801">
        <ele>60</ele>
        <time>2025-01-16T12:46:44Z</time>
      </trkpt>
      <trkpt lat="47.55774" lon="-2.31801">
        <ele>60.2</ele>
        <time>2025-01-16T12:46:45Z</time>
      </trkpt>
      <trkpt lat="47.55774" lon="-2.31801">
        <ele>60.2</ele>
        <time>2025-01-16T12:46:46Z</time>
      </trkpt>
      <trkpt lat="47.55774" lon="-2.31801">
        <ele>60.2</ele>
        <time>2025-01-16T12:46:47Z</time>
      </trkpt>
      <trkpt lat="47.55775" lon="-2.318">
        <ele>60.4</ele>
        <time>2025-01-16T12:46:48Z</time>
      </trkpt>
      <trkpt lat="47.55775" lon="-2.318">
        <ele>60.4</ele>
        <time>2025-01-16T12:46:49Z</time>
      </trkpt>
      <trkpt lat="47.55775" lon="-2.318">
        <ele>60.4</ele>
        <time>2025-01-16T12:46:50Z</time>
      </trkpt>
      <trkpt lat="47.55776" lon="-2.318">
        <ele>60.6</ele>
        <time>2025-01-16T12:46:51Z</time>
      </trkpt>
      <trkpt lat="47.55776" lon="-2.318">
        <ele>60.6</ele>
        <time>2025-01-16T12:46:52Z</time>
      </trkpt>
      <trkpt lat="47.55776" lon="-2.318">
        <ele>60.6</ele>
        <time>2025-01-16T12:46:53Z</time>
      </trkpt>
      <trkpt lat="47.55776" lon="-2.318">
        <ele>60.6</ele>
        <time>2025-01-16T12:46:54Z</time>
      </trkpt>
      <trkpt lat="47.55777" lon="-2.318">
        <ele>60.8</ele>
        <time>2025-01-16T12:46:55Z</time>
      </trkpt>
      <trkpt lat="47.55778" lon="-2.31801">
        <ele>61</ele>
        <time>2025-01-16T12:46:56Z</time>
      </trkpt>
      <trkpt lat="47.5578" lon="-2.31801">
        <ele>61.3</ele>
        <time>2025-01-16T12:46:57Z</time>
      </trkpt>
      <trkpt lat="47.55781" lon="-2.31802">
        <ele>61.5</ele>
        <time>2025-01-16T12:46:58Z</time>
      </trkpt>
      <trkpt lat="47.55783" lon="-2.31802">
        <ele>61.8</ele>
        <time>2025-01-16T12:46:59Z</time>
      </trkpt>
      <trkpt lat="47.55784" lon="-2.31803">
        <ele>61.9</ele>
        <time>2025-01-16T12:47:00Z</time>
      </trkpt>
      <trkpt lat="47.55786" lon="-2.31803">
        <ele>62.2</ele>
        <time>2025-01-16T12:47:01Z</time>
      </trkpt>
      <trkpt lat="47.55787" lon="-2.31803">
        <ele>62.3</ele>
        <time>2025-01-16T12:47:02Z</time>
      </trkpt>
      <trkpt lat="47.55789" lon="-2.31804">
        <ele>62.6</ele>
        <time>2025-01-16T12:47:03Z</time>
      </trkpt>
      <trkpt lat="47.5579" lon="-2.31803">
        <ele>62.8</ele>
        <time>2025-01-16T12:47:04Z</time>
      </trkpt>
      <trkpt lat="47.55791" lon="-2.31803">
        <ele>62.9</ele>
        <time>2025-01-16T12:47:05Z</time>
      </trkpt>
      <trkpt lat="47.55791" lon="-2.31803">
        <ele>62.9</ele>
        <time>2025-01-16T12:47:06Z</time>
      </trkpt>
      <trkpt lat="47.55792" lon="-2.31802">
        <ele>63</ele>
        <time>2025-01-16T12:47:07Z</time>
      </trkpt>
      <trkpt lat="47.55792" lon="-2.31802">
        <ele>63</ele>
        <time>2025-01-16T12:47:08Z</time>
      </trkpt>
      <trkpt lat="47.55793" lon="-2.31801">
        <ele>63.2</ele>
        <time>2025-01-16T12:47:09Z</time>
      </trkpt>
      <trkpt lat="47.55793" lon="-2.318">
        <ele>63.2</ele>
        <time>2025-01-16T12:47:10Z</time>
      </trkpt>
      <trkpt lat="47.55794" lon="-2.31799">
        <ele>63.3</ele>
        <time>2025-01-16T12:47:11Z</time>
      </trkpt>
      <trkpt lat="47.55796" lon="-2.31799">
        <ele>63.6</ele>
        <time>2025-01-16T12:47:12Z</time>
      </trkpt>
      <trkpt lat="47.55797" lon="-2.31799">
        <ele>63.8</ele>
        <time>2025-01-16T12:47:13Z</time>
      </trkpt>
      <trkpt lat="47.55798" lon="-2.31799">
        <ele>63.9</ele>
        <time>2025-01-16T12:47:14Z</time>
      </trkpt>
      <trkpt lat="47.558" lon="-2.31799">
        <ele>64.2</ele>
        <time>2025-01-16T12:47:15Z</time>
      </trkpt>
      <trkpt lat="47.55801" lon="-2.31799">
        <ele>64.3</ele>
        <time>2025-01-16T12:47:16Z</time>
      </trkpt>
      <trkpt lat="47.55802" lon="-2.31799">
        <ele>64.5</ele>
        <time>2025-01-16T12:47:17Z</time>
      </trkpt>
      <trkpt lat="47.55803" lon="-2.31798">
        <ele>64.6</ele>
        <time>2025-01-16T12:47:18Z</time>
      </trkpt>
      <trkpt lat="47.55804" lon="-2.31798">
        <ele>64.8</ele>
        <time>2025-01-16T12:47:19Z</time>
      </trkpt>
      <trkpt lat="47.55805" lon="-2.31798">
        <ele>64.9</ele>
        <time>2025-01-16T12:47:20Z</time>
      </trkpt>
      <trkpt lat="47.55806" lon="-2.31798">
        <ele>65</ele>
        <time>2025-01-16T12:47:21Z</time>
      </trkpt>
      <trkpt lat="47.55807" lon="-2.31799">
        <ele>65.1</ele>
        <time>2025-01-16T12:47:22Z</time>
      </trkpt>
      <trkpt lat="47.55808" lon="-2.31799">
        <ele>65.2</ele>
        <time>2025-01-16T12:47:23Z</time>
      </trkpt>
      <trkpt lat="47.55809" lon="-2.31799">
        <ele>65.3</ele>
        <time>2025-01-16T12:47:24Z</time>
      </trkpt>
      <trkpt lat="47.5581" lon="-2.31799">
        <ele>65.4</ele>
        <time>2025-01-16T12:47:25Z</time>
      </trkpt>
      <trkpt lat="47.55811" lon="-2.31799">
        <ele>65.4</ele>
        <time>2025-01-16T12:47:26Z</time>
      </trkpt>
      <trkpt lat="47.55812" lon="-2.31799">
        <ele>65.5</ele>
        <time>2025-01-16T12:47:27Z</time>
      </trkpt>
      <trkpt lat="47.55813" lon="-2.318">
        <ele>65.6</ele>
        <time>2025-01-16T12:47:28Z</time>
      </trkpt>
      <trkpt lat="47.55814" lon="-2.318">
        <ele>65.7</ele>
        <time>2025-01-16T12:47:29Z</time>
      </trkpt>
      <trkpt lat="47.55815" lon="-2.318">
        <ele>65.7</ele>
        <time>2025-01-16T12:47:30Z</time>
      </trkpt>
      <trkpt lat="47.55817" lon="-2.318">
        <ele>65.9</ele>
        <time>2025-01-16T12:47:31Z</time>
      </trkpt>
      <trkpt lat="47.55819" lon="-2.31801">
        <ele>66</ele>
        <time>2025-01-16T12:47:32Z</time>
      </trkpt>
      <trkpt lat="47.55821" lon="-2.31801">
        <ele>66.2</ele>
        <time>2025-01-16T12:47:33Z</time>
      </trkpt>
      <trkpt lat="47.55823" lon="-2.31801">
        <ele>66.4</ele>
        <time>2025-01-16T12:47:34Z</time>
      </trkpt>
      <trkpt lat="47.55825" lon="-2.31802">
        <ele>66.5</ele>
        <time>2025-01-16T12:47:35Z</time>
      </trkpt>
      <trkpt lat="47.55826" lon="-2.31802">
        <ele>66.6</ele>
        <time>2025-01-16T12:47:36Z</time>
      </trkpt>
      <trkpt lat="47.55828" lon="-2.31802">
        <ele>66.7</ele>
        <time>2025-01-16T12:47:37Z</time>
      </trkpt>
      <trkpt lat="47.55829" lon="-2.31802">
        <ele>66.8</ele>
        <time>2025-01-16T12:47:38Z</time>
      </trkpt>
      <trkpt lat="47.55831" lon="-2.31802">
        <ele>66.9</ele>
        <time>2025-01-16T12:47:39Z</time>
      </trkpt>
      <trkpt lat="47.55832" lon="-2.31801">
        <ele>67.1</ele>
        <time>2025-01-16T12:47:40Z</time>
      </trkpt>
      <trkpt lat="47.55833" lon="-2.31801">
        <ele>67.1</ele>
        <time>2025-01-16T12:47:41Z</time>
      </trkpt>
      <trkpt lat="47.55835" lon="-2.318">
        <ele>67.3</ele>
        <time>2025-01-16T12:47:42Z</time>
      </trkpt>
      <trkpt lat="47.55836" lon="-2.318">
        <ele>67.4</ele>
        <time>2025-01-16T12:47:43Z</time>
      </trkpt>
      <trkpt lat="47.55836" lon="-2.318">
        <ele>67.4</ele>
        <time>2025-01-16T12:47:44Z</time>
      </trkpt>
      <trkpt lat="47.55837" lon="-2.318">
        <ele>67.4</ele>
        <time>2025-01-16T12:47:45Z</time>
      </trkpt>
      <trkpt lat="47.55838" lon="-2.31799">
        <ele>67.5</ele>
        <time>2025-01-16T12:47:46Z</time>
      </trkpt>
      <trkpt lat="47.55839" lon="-2.31799">
        <ele>67.6</ele>
        <time>2025-01-16T12:47:47Z</time>
      </trkpt>
      <trkpt lat="47.5584" lon="-2.31799">
        <ele>67.7</ele>
        <time>2025-01-16T12:47:48Z</time>
      </trkpt>
      <trkpt lat="47.55841" lon="-2.31798">
        <ele>67.7</ele>
        <time>2025-01-16T12:47:49Z</time>
      </trkpt>
      <trkpt lat="47.55842" lon="-2.31798">
        <ele>67.8</ele>
        <time>2025-01-16T12:47:50Z</time>
      </trkpt>
      <trkpt lat="47.55843" lon="-2.31798">
        <ele>67.9</ele>
        <time>2025-01-16T12:47:51Z</time>
      </trkpt>
      <trkpt lat="47.55844" lon="-2.31798">
        <ele>67.9</ele>
        <time>2025-01-16T12:47:52Z</time>
      </trkpt>
      <trkpt lat="47.55845" lon="-2.31797">
        <ele>68</ele>
        <time>2025-01-16T12:47:53Z</time>
      </trkpt>
      <trkpt lat="47.55847" lon="-2.31797">
        <ele>68.1</ele>
        <time>2025-01-16T12:47:54Z</time>
      </trkpt>
      <trkpt lat="47.55848" lon="-2.31796">
        <ele>68.2</ele>
        <time>2025-01-16T12:47:55Z</time>
      </trkpt>
      <trkpt lat="47.5585" lon="-2.31796">
        <ele>68.3</ele>
        <time>2025-01-16T12:47:56Z</time>
      </trkpt>
      <trkpt lat="47.55851" lon="-2.31796">
        <ele>68.4</ele>
        <time>2025-01-16T12:47:57Z</time>
      </trkpt>
      <trkpt lat="47.55852" lon="-2.31796">
        <ele>68.5</ele>
        <time>2025-01-16T12:47:58Z</time>
      </trkpt>
      <trkpt lat="47.55853" lon="-2.31796">
        <ele>68.5</ele>
        <time>2025-01-16T12:47:59Z</time>
      </trkpt>
      <trkpt lat="47.55854" lon="-2.31796">
        <ele>68.6</ele>
        <time>2025-01-16T12:48:00Z</time>
      </trkpt>
      <trkpt lat="47.55856" lon="-2.31796">
        <ele>68.7</ele>
        <time>2025-01-16T12:48:01Z</time>
      </trkpt>
      <trkpt lat="47.55857" lon="-2.31796">
        <ele>68.8</ele>
        <time>2025-01-16T12:48:02Z</time>
      </trkpt>
      <trkpt lat="47.55858" lon="-2.31796">
        <ele>68.8</ele>
        <time>2025-01-16T12:48:03Z</time>
      </trkpt>
      <trkpt lat="47.5586" lon="-2.31796">
        <ele>68.9</ele>
        <time>2025-01-16T12:48:04Z</time>
      </trkpt>
      <trkpt lat="47.55861" lon="-2.31796">
        <ele>69</ele>
        <time>2025-01-16T12:48:05Z</time>
      </trkpt>
      <trkpt lat="47.55861" lon="-2.31795">
        <ele>69</ele>
        <time>2025-01-16T12:48:06Z</time>
      </trkpt>
      <trkpt lat="47.55862" lon="-2.31795">
        <ele>69</ele>
        <time>2025-01-16T12:48:07Z</time>
      </trkpt>
      <trkpt lat="47.55862" lon="-2.31795">
        <ele>69</ele>
        <time>2025-01-16T12:48:08Z</time>
      </trkpt>
      <trkpt lat="47.55863" lon="-2.31795">
        <ele>69</ele>
        <time>2025-01-16T12:48:09Z</time>
      </trkpt>
      <trkpt lat="47.55865" lon="-2.31795">
        <ele>69.1</ele>
        <time>2025-01-16T12:48:10Z</time>
      </trkpt>
      <trkpt lat="47.55866" lon="-2.31795">
        <ele>69.1</ele>
        <time>2025-01-16T12:48:11Z</time>
      </trkpt>
      <trkpt lat="47.55867" lon="-2.31795">
        <ele>69.1</ele>
        <time>2025-01-16T12:48:12Z</time>
      </trkpt>
      <trkpt lat="47.55868" lon="-2.31795">
        <ele>69.2</ele>
        <time>2025-01-16T12:48:13Z</time>
      </trkpt>
      <trkpt lat="47.55869" lon="-2.31795">
        <ele>69.2</ele>
        <time>2025-01-16T12:48:14Z</time>
      </trkpt>
      <trkpt lat="47.5587" lon="-2.31794">
        <ele>69.2</ele>
        <time>2025-01-16T12:48:15Z</time>
      </trkpt>
      <trkpt lat="47.55871" lon="-2.31794">
        <ele>69.2</ele>
        <time>2025-01-16T12:48:16Z</time>
      </trkpt>
      <trkpt lat="47.55872" lon="-2.31794">
        <ele>69.2</ele>
        <time>2025-01-16T12:48:17Z</time>
      </trkpt>
      <trkpt lat="47.55873" lon="-2.31794">
        <ele>69.2</ele>
        <time>2025-01-16T12:48:18Z</time>
      </trkpt>
      <trkpt lat="47.55874" lon="-2.31793">
        <ele>69.3</ele>
        <time>2025-01-16T12:48:19Z</time>
      </trkpt>
      <trkpt lat="47.55875" lon="-2.31793">
        <ele>69.3</ele>
        <time>2025-01-16T12:48:20Z</time>
      </trkpt>
      <trkpt lat="47.55877" lon="-2.31792">
        <ele>69.3</ele>
        <time>2025-01-16T12:48:21Z</time>
      </trkpt>
      <trkpt lat="47.55878" lon="-2.31792">
        <ele>69.3</ele>
        <time>2025-01-16T12:48:22Z</time>
      </trkpt>
      <trkpt lat="47.55879" lon="-2.31792">
        <ele>69.3</ele>
        <time>2025-01-16T12:48:23Z</time>
      </trkpt>
      <trkpt lat="47.5588" lon="-2.31792">
        <ele>69.3</ele>
        <time>2025-01-16T12:48:24Z</time>
      </trkpt>
      <trkpt lat="47.55881" lon="-2.31792">
        <ele>69.4</ele>
        <time>2025-01-16T12:48:25Z</time>
      </trkpt>
      <trkpt lat="47.55883" lon="-2.31792">
        <ele>69.4</ele>
        <time>2025-01-16T12:48:26Z</time>
      </trkpt>
      <trkpt lat="47.55884" lon="-2.31792">
        <ele>69.4</ele>
        <time>2025-01-16T12:48:27Z</time>
      </trkpt>
      <trkpt lat="47.55885" lon="-2.31791">
        <ele>69.4</ele>
        <time>2025-01-16T12:48:28Z</time>
      </trkpt>
      <trkpt lat="47.55885" lon="-2.31791">
        <ele>69.4</ele>
        <time>2025-01-16T12:48:29Z</time>
      </trkpt>
      <trkpt lat="47.55886" lon="-2.3179">
        <ele>69.4</ele>
        <time>2025-01-16T12:48:30Z</time>
      </trkpt>
      <trkpt lat="47.55887" lon="-2.3179">
        <ele>69.4</ele>
        <time>2025-01-16T12:48:31Z</time>
      </trkpt>
      <trkpt lat="47.55888" lon="-2.3179">
        <ele>69.4</ele>
        <time>2025-01-16T12:48:32Z</time>
      </trkpt>
      <trkpt lat="47.5589" lon="-2.3179">
        <ele>69.4</ele>
        <time>2025-01-16T12:48:33Z</time>
      </trkpt>
      <trkpt lat="47.55891" lon="-2.3179">
        <ele>69.4</ele>
        <time>2025-01-16T12:48:34Z</time>
      </trkpt>
      <trkpt lat="47.55893" lon="-2.3179">
        <ele>69.4</ele>
        <time>2025-01-16T12:48:35Z</time>
      </trkpt>
      <trkpt lat="47.55894" lon="-2.31789">
        <ele>69.3</ele>
        <time>2025-01-16T12:48:36Z</time>
      </trkpt>
      <trkpt lat="47.55896" lon="-2.31788">
        <ele>69.3</ele>
        <time>2025-01-16T12:48:37Z</time>
      </trkpt>
      <trkpt lat="47.55897" lon="-2.31788">
        <ele>69.3</ele>
        <time>2025-01-16T12:48:38Z</time>
      </trkpt>
      <trkpt lat="47.55898" lon="-2.31788">
        <ele>69.2</ele>
        <time>2025-01-16T12:48:39Z</time>
      </trkpt>
      <trkpt lat="47.55899" lon="-2.31788">
        <ele>69.2</ele>
        <time>2025-01-16T12:48:40Z</time>
      </trkpt>
      <trkpt lat="47.559" lon="-2.31787">
        <ele>69.2</ele>
        <time>2025-01-16T12:48:41Z</time>
      </trkpt>
      <trkpt lat="47.55902" lon="-2.31787">
        <ele>69.2</ele>
        <time>2025-01-16T12:48:42Z</time>
      </trkpt>
      <trkpt lat="47.55903" lon="-2.31787">
        <ele>69.2</ele>
        <time>2025-01-16T12:48:43Z</time>
      </trkpt>
      <trkpt lat="47.55905" lon="-2.31787">
        <ele>69.1</ele>
        <time>2025-01-16T12:48:44Z</time>
      </trkpt>
      <trkpt lat="47.55906" lon="-2.31787">
        <ele>69.1</ele>
        <time>2025-01-16T12:48:45Z</time>
      </trkpt>
      <trkpt lat="47.55908" lon="-2.31786">
        <ele>69.1</ele>
        <time>2025-01-16T12:48:46Z</time>
      </trkpt>
      <trkpt lat="47.55909" lon="-2.31786">
        <ele>69.1</ele>
        <time>2025-01-16T12:48:47Z</time>
      </trkpt>
      <trkpt lat="47.5591" lon="-2.31786">
        <ele>69.1</ele>
        <time>2025-01-16T12:48:48Z</time>
      </trkpt>
      <trkpt lat="47.55911" lon="-2.31785">
        <ele>69.1</ele>
        <time>2025-01-16T12:48:49Z</time>
      </trkpt>
      <trkpt lat="47.55912" lon="-2.31784">
        <ele>69</ele>
        <time>2025-01-16T12:48:50Z</time>
      </trkpt>
      <trkpt lat="47.55912" lon="-2.31784">
        <ele>69</ele>
        <time>2025-01-16T12:48:51Z</time>
      </trkpt>
      <trkpt lat="47.55912" lon="-2.31784">
        <ele>69</ele>
        <time>2025-01-16T12:48:52Z</time>
      </trkpt>
      <trkpt lat="47.55913" lon="-2.31783">
        <ele>69</ele>
        <time>2025-01-16T12:48:53Z</time>
      </trkpt>
      <trkpt lat="47.55915" lon="-2.31782">
        <ele>69</ele>
        <time>2025-01-16T12:48:54Z</time>
      </trkpt>
      <trkpt lat="47.55916" lon="-2.31782">
        <ele>69</ele>
        <time>2025-01-16T12:48:55Z</time>
      </trkpt>
      <trkpt lat="47.55917" lon="-2.31781">
        <ele>69</ele>
        <time>2025-01-16T12:48:56Z</time>
      </trkpt>
      <trkpt lat="47.55918" lon="-2.31781">
        <ele>68.9</ele>
        <time>2025-01-16T12:48:57Z</time>
      </trkpt>
      <trkpt lat="47.5592" lon="-2.3178">
        <ele>68.8</ele>
        <time>2025-01-16T12:48:58Z</time>
      </trkpt>
      <trkpt lat="47.55921" lon="-2.3178">
        <ele>68.7</ele>
        <time>2025-01-16T12:48:59Z</time>
      </trkpt>
      <trkpt lat="47.55922" lon="-2.3178">
        <ele>68.6</ele>
        <time>2025-01-16T12:49:00Z</time>
      </trkpt>
      <trkpt lat="47.55923" lon="-2.3178">
        <ele>68.6</ele>
        <time>2025-01-16T12:49:01Z</time>
      </trkpt>
      <trkpt lat="47.55925" lon="-2.3178">
        <ele>68.4</ele>
        <time>2025-01-16T12:49:02Z</time>
      </trkpt>
      <trkpt lat="47.55926" lon="-2.3178">
        <ele>68.4</ele>
        <time>2025-01-16T12:49:03Z</time>
      </trkpt>
      <trkpt lat="47.55928" lon="-2.3178">
        <ele>68.2</ele>
        <time>2025-01-16T12:49:04Z</time>
      </trkpt>
      <trkpt lat="47.55929" lon="-2.3178">
        <ele>68.1</ele>
        <time>2025-01-16T12:49:05Z</time>
      </trkpt>
      <trkpt lat="47.5593" lon="-2.3178">
        <ele>68.1</ele>
        <time>2025-01-16T12:49:06Z</time>
      </trkpt>
      <trkpt lat="47.55932" lon="-2.31779">
        <ele>67.9</ele>
        <time>2025-01-16T12:49:07Z</time>
      </trkpt>
      <trkpt lat="47.55933" lon="-2.31779">
        <ele>67.8</ele>
        <time>2025-01-16T12:49:08Z</time>
      </trkpt>
      <trkpt lat="47.55934" lon="-2.31779">
        <ele>67.8</ele>
        <time>2025-01-16T12:49:09Z</time>
      </trkpt>
      <trkpt lat="47.55935" lon="-2.31779">
        <ele>67.7</ele>
        <time>2025-01-16T12:49:10Z</time>
      </trkpt>
      <trkpt lat="47.55936" lon="-2.31779">
        <ele>67.6</ele>
        <time>2025-01-16T12:49:11Z</time>
      </trkpt>
      <trkpt lat="47.55938" lon="-2.31778">
        <ele>67.5</ele>
        <time>2025-01-16T12:49:12Z</time>
      </trkpt>
      <trkpt lat="47.55939" lon="-2.31778">
        <ele>67.4</ele>
        <time>2025-01-16T12:49:13Z</time>
      </trkpt>
      <trkpt lat="47.55939" lon="-2.31778">
        <ele>67.4</ele>
        <time>2025-01-16T12:49:14Z</time>
      </trkpt>
      <trkpt lat="47.5594" lon="-2.31777">
        <ele>67.3</ele>
        <time>2025-01-16T12:49:15Z</time>
      </trkpt>
      <trkpt lat="47.55942" lon="-2.31776">
        <ele>67.2</ele>
        <time>2025-01-16T12:49:16Z</time>
      </trkpt>
      <trkpt lat="47.55943" lon="-2.31776">
        <ele>67.1</ele>
        <time>2025-01-16T12:49:17Z</time>
      </trkpt>
      <trkpt lat="47.55943" lon="-2.31776">
        <ele>67.1</ele>
        <time>2025-01-16T12:49:18Z</time>
      </trkpt>
      <trkpt lat="47.55944" lon="-2.31776">
        <ele>67</ele>
        <time>2025-01-16T12:49:19Z</time>
      </trkpt>
      <trkpt lat="47.55946" lon="-2.31777">
        <ele>66.9</ele>
        <time>2025-01-16T12:49:20Z</time>
      </trkpt>
      <trkpt lat="47.55947" lon="-2.31778">
        <ele>66.8</ele>
        <time>2025-01-16T12:49:21Z</time>
      </trkpt>
      <trkpt lat="47.55948" lon="-2.31778">
        <ele>66.8</ele>
        <time>2025-01-16T12:49:22Z</time>
      </trkpt>
      <trkpt lat="47.5595" lon="-2.31779">
        <ele>66.6</ele>
        <time>2025-01-16T12:49:23Z</time>
      </trkpt>
      <trkpt lat="47.55952" lon="-2.3178">
        <ele>66.5</ele>
        <time>2025-01-16T12:49:24Z</time>
      </trkpt>
      <trkpt lat="47.55953" lon="-2.3178">
        <ele>66.4</ele>
        <time>2025-01-16T12:49:25Z</time>
      </trkpt>
      <trkpt lat="47.55955" lon="-2.31781">
        <ele>66.3</ele>
        <time>2025-01-16T12:49:26Z</time>
      </trkpt>
      <trkpt lat="47.55956" lon="-2.31782">
        <ele>66.3</ele>
        <time>2025-01-16T12:49:27Z</time>
      </trkpt>
      <trkpt lat="47.55958" lon="-2.31782">
        <ele>66.1</ele>
        <time>2025-01-16T12:49:28Z</time>
      </trkpt>
      <trkpt lat="47.5596" lon="-2.31783">
        <ele>66</ele>
        <time>2025-01-16T12:49:29Z</time>
      </trkpt>
      <trkpt lat="47.55961" lon="-2.31783">
        <ele>65.9</ele>
        <time>2025-01-16T12:49:30Z</time>
      </trkpt>
      <trkpt lat="47.55962" lon="-2.31783">
        <ele>65.8</ele>
        <time>2025-01-16T12:49:31Z</time>
      </trkpt>
      <trkpt lat="47.55963" lon="-2.31783">
        <ele>65.7</ele>
        <time>2025-01-16T12:49:32Z</time>
      </trkpt>
      <trkpt lat="47.55964" lon="-2.31783">
        <ele>65.6</ele>
        <time>2025-01-16T12:49:33Z</time>
      </trkpt>
      <trkpt lat="47.55965" lon="-2.31783">
        <ele>65.6</ele>
        <time>2025-01-16T12:49:34Z</time>
      </trkpt>
      <trkpt lat="47.55966" lon="-2.31783">
        <ele>65.5</ele>
        <time>2025-01-16T12:49:35Z</time>
      </trkpt>
      <trkpt lat="47.55967" lon="-2.31783">
        <ele>65.4</ele>
        <time>2025-01-16T12:49:36Z</time>
      </trkpt>
      <trkpt lat="47.55968" lon="-2.31782">
        <ele>65.3</ele>
        <time>2025-01-16T12:49:37Z</time>
      </trkpt>
      <trkpt lat="47.55969" lon="-2.31782">
        <ele>65.2</ele>
        <time>2025-01-16T12:49:38Z</time>
      </trkpt>
      <trkpt lat="47.5597" lon="-2.31783">
        <ele>65.2</ele>
        <time>2025-01-16T12:49:39Z</time>
      </trkpt>
      <trkpt lat="47.55972" lon="-2.31783">
        <ele>65</ele>
        <time>2025-01-16T12:49:40Z</time>
      </trkpt>
      <trkpt lat="47.55973" lon="-2.31783">
        <ele>64.9</ele>
        <time>2025-01-16T12:49:41Z</time>
      </trkpt>
      <trkpt lat="47.55974" lon="-2.31784">
        <ele>64.9</ele>
        <time>2025-01-16T12:49:42Z</time>
      </trkpt>
      <trkpt lat="47.55974" lon="-2.31784">
        <ele>64.9</ele>
        <time>2025-01-16T12:49:43Z</time>
      </trkpt>
      <trkpt lat="47.55975" lon="-2.31784">
        <ele>64.8</ele>
        <time>2025-01-16T12:49:44Z</time>
      </trkpt>
      <trkpt lat="47.55977" lon="-2.31784">
        <ele>64.7</ele>
        <time>2025-01-16T12:49:45Z</time>
      </trkpt>
      <trkpt lat="47.55978" lon="-2.31783">
        <ele>64.6</ele>
        <time>2025-01-16T12:49:46Z</time>
      </trkpt>
      <trkpt lat="47.55979" lon="-2.31783">
        <ele>64.5</ele>
        <time>2025-01-16T12:49:47Z</time>
      </trkpt>
      <trkpt lat="47.5598" lon="-2.31783">
        <ele>64.4</ele>
        <time>2025-01-16T12:49:48Z</time>
      </trkpt>
      <trkpt lat="47.55981" lon="-2.31783">
        <ele>64.4</ele>
        <time>2025-01-16T12:49:49Z</time>
      </trkpt>
      <trkpt lat="47.55983" lon="-2.31783">
        <ele>64.2</ele>
        <time>2025-01-16T12:49:50Z</time>
      </trkpt>
      <trkpt lat="47.55985" lon="-2.31783">
        <ele>64.1</ele>
        <time>2025-01-16T12:49:51Z</time>
      </trkpt>
      <trkpt lat="47.55987" lon="-2.31784">
        <ele>63.9</ele>
        <time>2025-01-16T12:49:52Z</time>
      </trkpt>
      <trkpt lat="47.55989" lon="-2.31784">
        <ele>63.8</ele>
        <time>2025-01-16T12:49:53Z</time>
      </trkpt>
      <trkpt lat="47.5599" lon="-2.31785">
        <ele>63.7</ele>
        <time>2025-01-16T12:49:54Z</time>
      </trkpt>
      <trkpt lat="47.55991" lon="-2.31785">
        <ele>63.6</ele>
        <time>2025-01-16T12:49:55Z</time>
      </trkpt>
      <trkpt lat="47.55993" lon="-2.31785">
        <ele>63.5</ele>
        <time>2025-01-16T12:49:56Z</time>
      </trkpt>
      <trkpt lat="47.55994" lon="-2.31785">
        <ele>63.4</ele>
        <time>2025-01-16T12:49:57Z</time>
      </trkpt>
      <trkpt lat="47.55994" lon="-2.31785">
        <ele>63.4</ele>
        <time>2025-01-16T12:49:58Z</time>
      </trkpt>
      <trkpt lat="47.55995" lon="-2.31785">
        <ele>63.4</ele>
        <time>2025-01-16T12:49:59Z</time>
      </trkpt>
      <trkpt lat="47.55996" lon="-2.31785">
        <ele>63.3</ele>
        <time>2025-01-16T12:50:00Z</time>
      </trkpt>
      <trkpt lat="47.55997" lon="-2.31785">
        <ele>63.2</ele>
        <time>2025-01-16T12:50:01Z</time>
      </trkpt>
      <trkpt lat="47.55998" lon="-2.31786">
        <ele>63.1</ele>
        <time>2025-01-16T12:50:02Z</time>
      </trkpt>
      <trkpt lat="47.55998" lon="-2.31786">
        <ele>63.1</ele>
        <time>2025-01-16T12:50:03Z</time>
      </trkpt>
      <trkpt lat="47.55999" lon="-2.31787">
        <ele>63.1</ele>
        <time>2025-01-16T12:50:04Z</time>
      </trkpt>
      <trkpt lat="47.56" lon="-2.31788">
        <ele>63</ele>
        <time>2025-01-16T12:50:05Z</time>
      </trkpt>
      <trkpt lat="47.56001" lon="-2.31789">
        <ele>62.9</ele>
        <time>2025-01-16T12:50:06Z</time>
      </trkpt>
      <trkpt lat="47.56002" lon="-2.31789">
        <ele>62.9</ele>
        <time>2025-01-16T12:50:07Z</time>
      </trkpt>
      <trkpt lat="47.56003" lon="-2.31789">
        <ele>62.8</ele>
        <time>2025-01-16T12:50:08Z</time>
      </trkpt>
      <trkpt lat="47.56005" lon="-2.3179">
        <ele>62.6</ele>
        <time>2025-01-16T12:50:09Z</time>
      </trkpt>
      <trkpt lat="47.56007" lon="-2.31791">
        <ele>62.5</ele>
        <time>2025-01-16T12:50:10Z</time>
      </trkpt>
      <trkpt lat="47.56009" lon="-2.31793">
        <ele>62.4</ele>
        <time>2025-01-16T12:50:11Z</time>
      </trkpt>
      <trkpt lat="47.56011" lon="-2.31794">
        <ele>62.2</ele>
        <time>2025-01-16T12:50:12Z</time>
      </trkpt>
      <trkpt lat="47.56014" lon="-2.31795">
        <ele>62</ele>
        <time>2025-01-16T12:50:13Z</time>
      </trkpt>
      <trkpt lat="47.56015" lon="-2.31796">
        <ele>61.9</ele>
        <time>2025-01-16T12:50:14Z</time>
      </trkpt>
      <trkpt lat="47.56017" lon="-2.31797">
        <ele>61.8</ele>
        <time>2025-01-16T12:50:15Z</time>
      </trkpt>
      <trkpt lat="47.56018" lon="-2.31798">
        <ele>61.7</ele>
        <time>2025-01-16T12:50:16Z</time>
      </trkpt>
      <trkpt lat="47.56019" lon="-2.318">
        <ele>61.6</ele>
        <time>2025-01-16T12:50:17Z</time>
      </trkpt>
      <trkpt lat="47.56019" lon="-2.31801">
        <ele>61.6</ele>
        <time>2025-01-16T12:50:18Z</time>
      </trkpt>
      <trkpt lat="47.5602" lon="-2.31802">
        <ele>61.6</ele>
        <time>2025-01-16T12:50:19Z</time>
      </trkpt>
      <trkpt lat="47.5602" lon="-2.31804">
        <ele>61.6</ele>
        <time>2025-01-16T12:50:20Z</time>
      </trkpt>
      <trkpt lat="47.56021" lon="-2.31805">
        <ele>61.5</ele>
        <time>2025-01-16T12:50:21Z</time>
      </trkpt>
      <trkpt lat="47.56021" lon="-2.31805">
        <ele>61.5</ele>
        <time>2025-01-16T12:50:22Z</time>
      </trkpt>
      <trkpt lat="47.56021" lon="-2.31807">
        <ele>61.5</ele>
        <time>2025-01-16T12:50:23Z</time>
      </trkpt>
      <trkpt lat="47.56021" lon="-2.31808">
        <ele>61.6</ele>
        <time>2025-01-16T12:50:24Z</time>
      </trkpt>
      <trkpt lat="47.56021" lon="-2.31808">
        <ele>61.6</ele>
        <time>2025-01-16T12:50:25Z</time>
      </trkpt>
      <trkpt lat="47.5602" lon="-2.31809">
        <ele>61.7</ele>
        <time>2025-01-16T12:50:26Z</time>
      </trkpt>
      <trkpt lat="47.5602" lon="-2.3181">
        <ele>61.7</ele>
        <time>2025-01-16T12:50:27Z</time>
      </trkpt>
      <trkpt lat="47.5602" lon="-2.3181">
        <ele>61.7</ele>
        <time>2025-01-16T12:50:28Z</time>
      </trkpt>
      <trkpt lat="47.5602" lon="-2.3181">
        <ele>61.7</ele>
        <time>2025-01-16T12:50:29Z</time>
      </trkpt>
      <trkpt lat="47.5602" lon="-2.3181">
        <ele>61.7</ele>
        <time>2025-01-16T12:50:30Z</time>
      </trkpt>
      <trkpt lat="47.5602" lon="-2.31811">
        <ele>61.8</ele>
        <time>2025-01-16T12:50:31Z</time>
      </trkpt>
      <trkpt lat="47.5602" lon="-2.31812">
        <ele>61.8</ele>
        <time>2025-01-16T12:50:32Z</time>
      </trkpt>
      <trkpt lat="47.56019" lon="-2.31813">
        <ele>61.9</ele>
        <time>2025-01-16T12:50:33Z</time>
      </trkpt>
      <trkpt lat="47.56019" lon="-2.31814">
        <ele>61.9</ele>
        <time>2025-01-16T12:50:34Z</time>
      </trkpt>
      <trkpt lat="47.56018" lon="-2.31815">
        <ele>62</ele>
        <time>2025-01-16T12:50:35Z</time>
      </trkpt>
      <trkpt lat="47.56018" lon="-2.31816">
        <ele>62.1</ele>
        <time>2025-01-16T12:50:36Z</time>
      </trkpt>
      <trkpt lat="47.56018" lon="-2.31817">
        <ele>62.1</ele>
        <time>2025-01-16T12:50:37Z</time>
      </trkpt>
      <trkpt lat="47.56018" lon="-2.31817">
        <ele>62.1</ele>
        <time>2025-01-16T12:50:38Z</time>
      </trkpt>
      <trkpt lat="47.56018" lon="-2.31817">
        <ele>62.1</ele>
        <time>2025-01-16T12:50:39Z</time>
      </trkpt>
      <trkpt lat="47.56018" lon="-2.31818">
        <ele>62.2</ele>
        <time>2025-01-16T12:50:40Z</time>
      </trkpt>
      <trkpt lat="47.56018" lon="-2.31819">
        <ele>62.2</ele>
        <time>2025-01-16T12:50:41Z</time>
      </trkpt>
      <trkpt lat="47.56017" lon="-2.31822">
        <ele>62.4</ele>
        <time>2025-01-16T12:50:42Z</time>
      </trkpt>
      <trkpt lat="47.56017" lon="-2.31823">
        <ele>62.4</ele>
        <time>2025-01-16T12:50:43Z</time>
      </trkpt>
      <trkpt lat="47.56017" lon="-2.31824">
        <ele>62.4</ele>
        <time>2025-01-16T12:50:44Z</time>
      </trkpt>
      <trkpt lat="47.56016" lon="-2.31827">
        <ele>62.6</ele>
        <time>2025-01-16T12:50:45Z</time>
      </trkpt>
      <trkpt lat="47.56016" lon="-2.31829">
        <ele>62.7</ele>
        <time>2025-01-16T12:50:46Z</time>
      </trkpt>
      <trkpt lat="47.56017" lon="-2.3183">
        <ele>62.7</ele>
        <time>2025-01-16T12:50:47Z</time>
      </trkpt>
      <trkpt lat="47.56017" lon="-2.31832">
        <ele>62.7</ele>
        <time>2025-01-16T12:50:48Z</time>
      </trkpt>
      <trkpt lat="47.56017" lon="-2.31834">
        <ele>62.8</ele>
        <time>2025-01-16T12:50:49Z</time>
      </trkpt>
      <trkpt lat="47.56017" lon="-2.31836">
        <ele>62.8</ele>
        <time>2025-01-16T12:50:50Z</time>
      </trkpt>
      <trkpt lat="47.56017" lon="-2.31838">
        <ele>62.8</ele>
        <time>2025-01-16T12:50:51Z</time>
      </trkpt>
      <trkpt lat="47.56017" lon="-2.31839">
        <ele>62.8</ele>
        <time>2025-01-16T12:50:52Z</time>
      </trkpt>
      <trkpt lat="47.56017" lon="-2.3184">
        <ele>62.8</ele>
        <time>2025-01-16T12:50:53Z</time>
      </trkpt>
      <trkpt lat="47.56017" lon="-2.31842">
        <ele>62.8</ele>
        <time>2025-01-16T12:50:54Z</time>
      </trkpt>
      <trkpt lat="47.56017" lon="-2.31844">
        <ele>62.8</ele>
        <time>2025-01-16T12:50:55Z</time>
      </trkpt>
      <trkpt lat="47.56017" lon="-2.31846">
        <ele>62.8</ele>
        <time>2025-01-16T12:50:56Z</time>
      </trkpt>
      <trkpt lat="47.56018" lon="-2.31848">
        <ele>62.7</ele>
        <time>2025-01-16T12:50:57Z</time>
      </trkpt>
      <trkpt lat="47.56018" lon="-2.31849">
        <ele>62.7</ele>
        <time>2025-01-16T12:50:58Z</time>
      </trkpt>
      <trkpt lat="47.56019" lon="-2.3185">
        <ele>62.6</ele>
        <time>2025-01-16T12:50:59Z</time>
      </trkpt>
      <trkpt lat="47.56019" lon="-2.31852">
        <ele>62.6</ele>
        <time>2025-01-16T12:51:00Z</time>
      </trkpt>
      <trkpt lat="47.5602" lon="-2.31854">
        <ele>62.6</ele>
        <time>2025-01-16T12:51:01Z</time>
      </trkpt>
      <trkpt lat="47.5602" lon="-2.31856">
        <ele>62.6</ele>
        <time>2025-01-16T12:51:02Z</time>
      </trkpt>
      <trkpt lat="47.5602" lon="-2.31857">
        <ele>62.6</ele>
        <time>2025-01-16T12:51:03Z</time>
      </trkpt>
      <trkpt lat="47.5602" lon="-2.31859">
        <ele>62.6</ele>
        <time>2025-01-16T12:51:04Z</time>
      </trkpt>
      <trkpt lat="47.56021" lon="-2.31861">
        <ele>62.5</ele>
        <time>2025-01-16T12:51:05Z</time>
      </trkpt>
      <trkpt lat="47.56021" lon="-2.31863">
        <ele>62.5</ele>
        <time>2025-01-16T12:51:06Z</time>
      </trkpt>
      <trkpt lat="47.5602" lon="-2.31863">
        <ele>62.6</ele>
        <time>2025-01-16T12:51:07Z</time>
      </trkpt>
      <trkpt lat="47.5602" lon="-2.31865">
        <ele>62.6</ele>
        <time>2025-01-16T12:51:08Z</time>
      </trkpt>
      <trkpt lat="47.5602" lon="-2.31865">
        <ele>62.6</ele>
        <time>2025-01-16T12:51:09Z</time>
      </trkpt>
      <trkpt lat="47.5602" lon="-2.31868">
        <ele>62.6</ele>
        <time>2025-01-16T12:51:10Z</time>
      </trkpt>
      <trkpt lat="47.56021" lon="-2.3187">
        <ele>62.6</ele>
        <time>2025-01-16T12:51:11Z</time>
      </trkpt>
      <trkpt lat="47.56021" lon="-2.31873">
        <ele>62.6</ele>
        <time>2025-01-16T12:51:12Z</time>
      </trkpt>
      <trkpt lat="47.56021" lon="-2.31874">
        <ele>62.6</ele>
        <time>2025-01-16T12:51:13Z</time>
      </trkpt>
      <trkpt lat="47.56021" lon="-2.31876">
        <ele>62.6</ele>
        <time>2025-01-16T12:51:14Z</time>
      </trkpt>
      <trkpt lat="47.56021" lon="-2.31879">
        <ele>62.6</ele>
        <time>2025-01-16T12:51:15Z</time>
      </trkpt>
      <trkpt lat="47.56021" lon="-2.31881">
        <ele>62.7</ele>
        <time>2025-01-16T12:51:16Z</time>
      </trkpt>
      <trkpt lat="47.56021" lon="-2.31883">
        <ele>62.7</ele>
        <time>2025-01-16T12:51:17Z</time>
      </trkpt>
      <trkpt lat="47.5602" lon="-2.31883">
        <ele>62.8</ele>
        <time>2025-01-16T12:51:18Z</time>
      </trkpt>
      <trkpt lat="47.5602" lon="-2.31886">
        <ele>62.8</ele>
        <time>2025-01-16T12:51:19Z</time>
      </trkpt>
      <trkpt lat="47.5602" lon="-2.31889">
        <ele>62.8</ele>
        <time>2025-01-16T12:51:20Z</time>
      </trkpt>
      <trkpt lat="47.56021" lon="-2.31892">
        <ele>62.8</ele>
        <time>2025-01-16T12:51:21Z</time>
      </trkpt>
      <trkpt lat="47.56021" lon="-2.31895">
        <ele>62.8</ele>
        <time>2025-01-16T12:51:22Z</time>
      </trkpt>
      <trkpt lat="47.56021" lon="-2.31898">
        <ele>62.9</ele>
        <time>2025-01-16T12:51:23Z</time>
      </trkpt>
      <trkpt lat="47.56021" lon="-2.31901">
        <ele>63</ele>
        <time>2025-01-16T12:51:24Z</time>
      </trkpt>
      <trkpt lat="47.56022" lon="-2.31904">
        <ele>62.9</ele>
        <time>2025-01-16T12:51:25Z</time>
      </trkpt>
      <trkpt lat="47.56022" lon="-2.31906">
        <ele>63</ele>
        <time>2025-01-16T12:51:26Z</time>
      </trkpt>
      <trkpt lat="47.56022" lon="-2.31909">
        <ele>63</ele>
        <time>2025-01-16T12:51:27Z</time>
      </trkpt>
      <trkpt lat="47.56022" lon="-2.31911">
        <ele>63.1</ele>
        <time>2025-01-16T12:51:28Z</time>
      </trkpt>
      <trkpt lat="47.56022" lon="-2.31914">
        <ele>63.2</ele>
        <time>2025-01-16T12:51:29Z</time>
      </trkpt>
      <trkpt lat="47.56022" lon="-2.31916">
        <ele>63.2</ele>
        <time>2025-01-16T12:51:30Z</time>
      </trkpt>
      <trkpt lat="47.56022" lon="-2.31918">
        <ele>63.2</ele>
        <time>2025-01-16T12:51:31Z</time>
      </trkpt>
      <trkpt lat="47.56022" lon="-2.31921">
        <ele>63.2</ele>
        <time>2025-01-16T12:51:32Z</time>
      </trkpt>
      <trkpt lat="47.56022" lon="-2.31924">
        <ele>63.2</ele>
        <time>2025-01-16T12:51:33Z</time>
      </trkpt>
      <trkpt lat="47.56022" lon="-2.31926">
        <ele>63.2</ele>
        <time>2025-01-16T12:51:34Z</time>
      </trkpt>
      <trkpt lat="47.56022" lon="-2.31928">
        <ele>63.2</ele>
        <time>2025-01-16T12:51:35Z</time>
      </trkpt>
      <trkpt lat="47.56022" lon="-2.31929">
        <ele>63.2</ele>
        <time>2025-01-16T12:51:36Z</time>
      </trkpt>
      <trkpt lat="47.56022" lon="-2.31931">
        <ele>63.2</ele>
        <time>2025-01-16T12:51:37Z</time>
      </trkpt>
      <trkpt lat="47.56022" lon="-2.31932">
        <ele>63.2</ele>
        <time>2025-01-16T12:51:38Z</time>
      </trkpt>
      <trkpt lat="47.56022" lon="-2.31933">
        <ele>63.2</ele>
        <time>2025-01-16T12:51:39Z</time>
      </trkpt>
      <trkpt lat="47.56022" lon="-2.31933">
        <ele>63.2</ele>
        <time>2025-01-16T12:51:40Z</time>
      </trkpt>
      <trkpt lat="47.56022" lon="-2.31934">
        <ele>63.2</ele>
        <time>2025-01-16T12:51:41Z</time>
      </trkpt>
      <trkpt lat="47.56022" lon="-2.31935">
        <ele>63.2</ele>
        <time>2025-01-16T12:51:42Z</time>
      </trkpt>
      <trkpt lat="47.56022" lon="-2.31937">
        <ele>63.2</ele>
        <time>2025-01-16T12:51:43Z</time>
      </trkpt>
      <trkpt lat="47.56022" lon="-2.31937">
        <ele>63.2</ele>
        <time>2025-01-16T12:51:44Z</time>
      </trkpt>
      <trkpt lat="47.56022" lon="-2.31939">
        <ele>63.2</ele>
        <time>2025-01-16T12:51:45Z</time>
      </trkpt>
      <trkpt lat="47.56022" lon="-2.31941">
        <ele>63.2</ele>
        <time>2025-01-16T12:51:46Z</time>
      </trkpt>
      <trkpt lat="47.56022" lon="-2.31942">
        <ele>63.2</ele>
        <time>2025-01-16T12:51:47Z</time>
      </trkpt>
      <trkpt lat="47.56022" lon="-2.31944">
        <ele>63.2</ele>
        <time>2025-01-16T12:51:48Z</time>
      </trkpt>
      <trkpt lat="47.56022" lon="-2.31946">
        <ele>63.2</ele>
        <time>2025-01-16T12:51:49Z</time>
      </trkpt>
      <trkpt lat="47.56022" lon="-2.31948">
        <ele>63.1</ele>
        <time>2025-01-16T12:51:50Z</time>
      </trkpt>
      <trkpt lat="47.56022" lon="-2.3195">
        <ele>63</ele>
        <time>2025-01-16T12:51:51Z</time>
      </trkpt>
      <trkpt lat="47.56022" lon="-2.31951">
        <ele>63</ele>
        <time>2025-01-16T12:51:52Z</time>
      </trkpt>
      <trkpt lat="47.56022" lon="-2.31952">
        <ele>63</ele>
        <time>2025-01-16T12:51:53Z</time>
      </trkpt>
      <trkpt lat="47.56022" lon="-2.31953">
        <ele>63</ele>
        <time>2025-01-16T12:51:54Z</time>
      </trkpt>
      <trkpt lat="47.56022" lon="-2.31955">
        <ele>62.9</ele>
        <time>2025-01-16T12:51:55Z</time>
      </trkpt>
      <trkpt lat="47.56022" lon="-2.31957">
        <ele>62.9</ele>
        <time>2025-01-16T12:51:56Z</time>
      </trkpt>
      <trkpt lat="47.56022" lon="-2.31958">
        <ele>62.8</ele>
        <time>2025-01-16T12:51:57Z</time>
      </trkpt>
      <trkpt lat="47.56022" lon="-2.3196">
        <ele>62.8</ele>
        <time>2025-01-16T12:51:58Z</time>
      </trkpt>
      <trkpt lat="47.56022" lon="-2.31962">
        <ele>62.7</ele>
        <time>2025-01-16T12:51:59Z</time>
      </trkpt>
      <trkpt lat="47.56022" lon="-2.31964">
        <ele>62.7</ele>
        <time>2025-01-16T12:52:00Z</time>
      </trkpt>
      <trkpt lat="47.56023" lon="-2.31966">
        <ele>62.5</ele>
        <time>2025-01-16T12:52:01Z</time>
      </trkpt>
      <trkpt lat="47.56023" lon="-2.31967">
        <ele>62.5</ele>
        <time>2025-01-16T12:52:02Z</time>
      </trkpt>
      <trkpt lat="47.56023" lon="-2.31969">
        <ele>62.4</ele>
        <time>2025-01-16T12:52:03Z</time>
      </trkpt>
      <trkpt lat="47.56022" lon="-2.3197">
        <ele>62.5</ele>
        <time>2025-01-16T12:52:04Z</time>
      </trkpt>
      <trkpt lat="47.56022" lon="-2.31972">
        <ele>62.4</ele>
        <time>2025-01-16T12:52:05Z</time>
      </trkpt>
      <trkpt lat="47.56022" lon="-2.31974">
        <ele>62.4</ele>
        <time>2025-01-16T12:52:06Z</time>
      </trkpt>
      <trkpt lat="47.56022" lon="-2.31976">
        <ele>62.4</ele>
        <time>2025-01-16T12:52:07Z</time>
      </trkpt>
      <trkpt lat="47.56022" lon="-2.31978">
        <ele>62.4</ele>
        <time>2025-01-16T12:52:08Z</time>
      </trkpt>
      <trkpt lat="47.56022" lon="-2.31979">
        <ele>62.4</ele>
        <time>2025-01-16T12:52:09Z</time>
      </trkpt>
      <trkpt lat="47.56023" lon="-2.31981">
        <ele>62.3</ele>
        <time>2025-01-16T12:52:10Z</time>
      </trkpt>
      <trkpt lat="47.56023" lon="-2.31983">
        <ele>62.3</ele>
        <time>2025-01-16T12:52:11Z</time>
      </trkpt>
      <trkpt lat="47.56023" lon="-2.31983">
        <ele>62.3</ele>
        <time>2025-01-16T12:52:12Z</time>
      </trkpt>
      <trkpt lat="47.56023" lon="-2.31985">
        <ele>62.3</ele>
        <time>2025-01-16T12:52:13Z</time>
      </trkpt>
      <trkpt lat="47.56023" lon="-2.31988">
        <ele>62.2</ele>
        <time>2025-01-16T12:52:14Z</time>
      </trkpt>
      <trkpt lat="47.56023" lon="-2.31991">
        <ele>62.2</ele>
        <time>2025-01-16T12:52:15Z</time>
      </trkpt>
      <trkpt lat="47.56023" lon="-2.31994">
        <ele>62.2</ele>
        <time>2025-01-16T12:52:16Z</time>
      </trkpt>
      <trkpt lat="47.56023" lon="-2.31996">
        <ele>62.2</ele>
        <time>2025-01-16T12:52:17Z</time>
      </trkpt>
      <trkpt lat="47.56023" lon="-2.31998">
        <ele>62.2</ele>
        <time>2025-01-16T12:52:18Z</time>
      </trkpt>
      <trkpt lat="47.56023" lon="-2.32">
        <ele>62.2</ele>
        <time>2025-01-16T12:52:19Z</time>
      </trkpt>
      <trkpt lat="47.56023" lon="-2.32002">
        <ele>62.2</ele>
        <time>2025-01-16T12:52:20Z</time>
      </trkpt>
      <trkpt lat="47.56023" lon="-2.32004">
        <ele>62.2</ele>
        <time>2025-01-16T12:52:21Z</time>
      </trkpt>
      <trkpt lat="47.56023" lon="-2.32006">
        <ele>62.2</ele>
        <time>2025-01-16T12:52:22Z</time>
      </trkpt>
      <trkpt lat="47.56023" lon="-2.32009">
        <ele>62.2</ele>
        <time>2025-01-16T12:52:23Z</time>
      </trkpt>
      <trkpt lat="47.56024" lon="-2.32011">
        <ele>62.1</ele>
        <time>2025-01-16T12:52:24Z</time>
      </trkpt>
      <trkpt lat="47.56024" lon="-2.32012">
        <ele>62.1</ele>
        <time>2025-01-16T12:52:25Z</time>
      </trkpt>
      <trkpt lat="47.56024" lon="-2.32013">
        <ele>62.1</ele>
        <time>2025-01-16T12:52:26Z</time>
      </trkpt>
      <trkpt lat="47.56024" lon="-2.32015">
        <ele>62.1</ele>
        <time>2025-01-16T12:52:27Z</time>
      </trkpt>
      <trkpt lat="47.56024" lon="-2.32017">
        <ele>62.1</ele>
        <time>2025-01-16T12:52:28Z</time>
      </trkpt>
      <trkpt lat="47.56024" lon="-2.32018">
        <ele>62.1</ele>
        <time>2025-01-16T12:52:29Z</time>
      </trkpt>
      <trkpt lat="47.56025" lon="-2.3202">
        <ele>62.1</ele>
        <time>2025-01-16T12:52:30Z</time>
      </trkpt>
      <trkpt lat="47.56025" lon="-2.32022">
        <ele>62.1</ele>
        <time>2025-01-16T12:52:31Z</time>
      </trkpt>
      <trkpt lat="47.56026" lon="-2.32023">
        <ele>62.1</ele>
        <time>2025-01-16T12:52:32Z</time>
      </trkpt>
      <trkpt lat="47.56026" lon="-2.32025">
        <ele>62.1</ele>
        <time>2025-01-16T12:52:33Z</time>
      </trkpt>
      <trkpt lat="47.56026" lon="-2.32027">
        <ele>62.1</ele>
        <time>2025-01-16T12:52:34Z</time>
      </trkpt>
      <trkpt lat="47.56026" lon="-2.32029">
        <ele>62.1</ele>
        <time>2025-01-16T12:52:35Z</time>
      </trkpt>
      <trkpt lat="47.56026" lon="-2.32031">
        <ele>62.2</ele>
        <time>2025-01-16T12:52:36Z</time>
      </trkpt>
      <trkpt lat="47.56027" lon="-2.32032">
        <ele>62.2</ele>
        <time>2025-01-16T12:52:37Z</time>
      </trkpt>
      <trkpt lat="47.56027" lon="-2.32032">
        <ele>62.2</ele>
        <time>2025-01-16T12:52:38Z</time>
      </trkpt>
      <trkpt lat="47.56028" lon="-2.32033">
        <ele>62.2</ele>
        <time>2025-01-16T12:52:39Z</time>
      </trkpt>
      <trkpt lat="47.56028" lon="-2.32034">
        <ele>62.2</ele>
        <time>2025-01-16T12:52:40Z</time>
      </trkpt>
      <trkpt lat="47.56029" lon="-2.32036">
        <ele>62.3</ele>
        <time>2025-01-16T12:52:41Z</time>
      </trkpt>
      <trkpt lat="47.56029" lon="-2.32037">
        <ele>62.3</ele>
        <time>2025-01-16T12:52:42Z</time>
      </trkpt>
      <trkpt lat="47.56029" lon="-2.32038">
        <ele>62.3</ele>
        <time>2025-01-16T12:52:43Z</time>
      </trkpt>
      <trkpt lat="47.56029" lon="-2.32038">
        <ele>62.3</ele>
        <time>2025-01-16T12:52:44Z</time>
      </trkpt>
      <trkpt lat="47.56029" lon="-2.32038">
        <ele>62.3</ele>
        <time>2025-01-16T12:52:45Z</time>
      </trkpt>
      <trkpt lat="47.56029" lon="-2.3204">
        <ele>62.4</ele>
        <time>2025-01-16T12:52:46Z</time>
      </trkpt>
      <trkpt lat="47.56029" lon="-2.32041">
        <ele>62.4</ele>
        <time>2025-01-16T12:52:47Z</time>
      </trkpt>
      <trkpt lat="47.56029" lon="-2.32042">
        <ele>62.5</ele>
        <time>2025-01-16T12:52:48Z</time>
      </trkpt>
      <trkpt lat="47.5603" lon="-2.32044">
        <ele>62.5</ele>
        <time>2025-01-16T12:52:49Z</time>
      </trkpt>
      <trkpt lat="47.5603" lon="-2.32046">
        <ele>62.6</ele>
        <time>2025-01-16T12:52:50Z</time>
      </trkpt>
      <trkpt lat="47.5603" lon="-2.32046">
        <ele>62.6</ele>
        <time>2025-01-16T12:52:51Z</time>
      </trkpt>
      <trkpt lat="47.5603" lon="-2.32047">
        <ele>62.6</ele>
        <time>2025-01-16T12:52:52Z</time>
      </trkpt>
      <trkpt lat="47.5603" lon="-2.32049">
        <ele>62.7</ele>
        <time>2025-01-16T12:52:53Z</time>
      </trkpt>
      <trkpt lat="47.5603" lon="-2.3205">
        <ele>62.7</ele>
        <time>2025-01-16T12:52:54Z</time>
      </trkpt>
      <trkpt lat="47.5603" lon="-2.32052">
        <ele>62.8</ele>
        <time>2025-01-16T12:52:55Z</time>
      </trkpt>
      <trkpt lat="47.5603" lon="-2.32054">
        <ele>62.9</ele>
        <time>2025-01-16T12:52:56Z</time>
      </trkpt>
      <trkpt lat="47.5603" lon="-2.32056">
        <ele>62.9</ele>
        <time>2025-01-16T12:52:57Z</time>
      </trkpt>
      <trkpt lat="47.5603" lon="-2.32059">
        <ele>62.9</ele>
        <time>2025-01-16T12:52:58Z</time>
      </trkpt>
      <trkpt lat="47.5603" lon="-2.32061">
        <ele>62.9</ele>
        <time>2025-01-16T12:52:59Z</time>
      </trkpt>
      <trkpt lat="47.5603" lon="-2.32061">
        <ele>62.9</ele>
        <time>2025-01-16T12:53:00Z</time>
      </trkpt>
      <trkpt lat="47.5603" lon="-2.32062">
        <ele>62.9</ele>
        <time>2025-01-16T12:53:01Z</time>
      </trkpt>
      <trkpt lat="47.5603" lon="-2.32062">
        <ele>62.9</ele>
        <time>2025-01-16T12:53:02Z</time>
      </trkpt>
      <trkpt lat="47.5603" lon="-2.32063">
        <ele>62.9</ele>
        <time>2025-01-16T12:53:03Z</time>
      </trkpt>
      <trkpt lat="47.5603" lon="-2.32066">
        <ele>62.9</ele>
        <time>2025-01-16T12:53:04Z</time>
      </trkpt>
      <trkpt lat="47.5603" lon="-2.32068">
        <ele>62.9</ele>
        <time>2025-01-16T12:53:05Z</time>
      </trkpt>
      <trkpt lat="47.5603" lon="-2.32069">
        <ele>62.9</ele>
        <time>2025-01-16T12:53:06Z</time>
      </trkpt>
      <trkpt lat="47.5603" lon="-2.32072">
        <ele>62.9</ele>
        <time>2025-01-16T12:53:07Z</time>
      </trkpt>
      <trkpt lat="47.56031" lon="-2.32075">
        <ele>62.9</ele>
        <time>2025-01-16T12:53:08Z</time>
      </trkpt>
      <trkpt lat="47.56031" lon="-2.32077">
        <ele>62.9</ele>
        <time>2025-01-16T12:53:09Z</time>
      </trkpt>
      <trkpt lat="47.56032" lon="-2.3208">
        <ele>62.8</ele>
        <time>2025-01-16T12:53:10Z</time>
      </trkpt>
      <trkpt lat="47.56033" lon="-2.32083">
        <ele>62.8</ele>
        <time>2025-01-16T12:53:11Z</time>
      </trkpt>
      <trkpt lat="47.56033" lon="-2.32085">
        <ele>62.8</ele>
        <time>2025-01-16T12:53:12Z</time>
      </trkpt>
      <trkpt lat="47.56034" lon="-2.32087">
        <ele>62.8</ele>
        <time>2025-01-16T12:53:13Z</time>
      </trkpt>
      <trkpt lat="47.56034" lon="-2.32089">
        <ele>62.8</ele>
        <time>2025-01-16T12:53:14Z</time>
      </trkpt>
      <trkpt lat="47.56034" lon="-2.32091">
        <ele>62.8</ele>
        <time>2025-01-16T12:53:15Z</time>
      </trkpt>
      <trkpt lat="47.56034" lon="-2.32093">
        <ele>62.9</ele>
        <time>2025-01-16T12:53:16Z</time>
      </trkpt>
      <trkpt lat="47.56034" lon="-2.32096">
        <ele>62.9</ele>
        <time>2025-01-16T12:53:17Z</time>
      </trkpt>
      <trkpt lat="47.56035" lon="-2.32098">
        <ele>62.9</ele>
        <time>2025-01-16T12:53:18Z</time>
      </trkpt>
      <trkpt lat="47.56035" lon="-2.321">
        <ele>62.9</ele>
        <time>2025-01-16T12:53:19Z</time>
      </trkpt>
      <trkpt lat="47.56035" lon="-2.32102">
        <ele>62.9</ele>
        <time>2025-01-16T12:53:20Z</time>
      </trkpt>
      <trkpt lat="47.56035" lon="-2.32104">
        <ele>62.9</ele>
        <time>2025-01-16T12:53:21Z</time>
      </trkpt>
      <trkpt lat="47.56035" lon="-2.32106">
        <ele>63</ele>
        <time>2025-01-16T12:53:22Z</time>
      </trkpt>
      <trkpt lat="47.56035" lon="-2.32108">
        <ele>63</ele>
        <time>2025-01-16T12:53:23Z</time>
      </trkpt>
      <trkpt lat="47.56035" lon="-2.32109">
        <ele>63</ele>
        <time>2025-01-16T12:53:24Z</time>
      </trkpt>
      <trkpt lat="47.56036" lon="-2.32111">
        <ele>63</ele>
        <time>2025-01-16T12:53:25Z</time>
      </trkpt>
      <trkpt lat="47.56036" lon="-2.32113">
        <ele>63</ele>
        <time>2025-01-16T12:53:26Z</time>
      </trkpt>
      <trkpt lat="47.56036" lon="-2.32113">
        <ele>63</ele>
        <time>2025-01-16T12:53:27Z</time>
      </trkpt>
      <trkpt lat="47.56036" lon="-2.32112">
        <ele>63</ele>
        <time>2025-01-16T12:53:28Z</time>
      </trkpt>
      <trkpt lat="47.56037" lon="-2.32112">
        <ele>63</ele>
        <time>2025-01-16T12:53:29Z</time>
      </trkpt>
      <trkpt lat="47.56036" lon="-2.32112">
        <ele>63</ele>
        <time>2025-01-16T12:53:30Z</time>
      </trkpt>
      <trkpt lat="47.56036" lon="-2.32113">
        <ele>63</ele>
        <time>2025-01-16T12:53:31Z</time>
      </trkpt>
      <trkpt lat="47.56035" lon="-2.32114">
        <ele>63.1</ele>
        <time>2025-01-16T12:53:32Z</time>
      </trkpt>
      <trkpt lat="47.56035" lon="-2.32114">
        <ele>63.1</ele>
        <time>2025-01-16T12:53:33Z</time>
      </trkpt>
      <trkpt lat="47.56035" lon="-2.32113">
        <ele>63.1</ele>
        <time>2025-01-16T12:53:34Z</time>
      </trkpt>
      <trkpt lat="47.56035" lon="-2.32114">
        <ele>63.1</ele>
        <time>2025-01-16T12:53:35Z</time>
      </trkpt>
      <trkpt lat="47.56035" lon="-2.32114">
        <ele>63.1</ele>
        <time>2025-01-16T12:53:36Z</time>
      </trkpt>
      <trkpt lat="47.56035" lon="-2.32114">
        <ele>63.1</ele>
        <time>2025-01-16T12:53:37Z</time>
      </trkpt>
      <trkpt lat="47.56034" lon="-2.32115">
        <ele>63.1</ele>
        <time>2025-01-16T12:53:38Z</time>
      </trkpt>
      <trkpt lat="47.56033" lon="-2.32117">
        <ele>63.2</ele>
        <time>2025-01-16T12:53:39Z</time>
      </trkpt>
      <trkpt lat="47.56033" lon="-2.32118">
        <ele>63.2</ele>
        <time>2025-01-16T12:53:40Z</time>
      </trkpt>
      <trkpt lat="47.56033" lon="-2.32118">
        <ele>63.2</ele>
        <time>2025-01-16T12:53:41Z</time>
      </trkpt>
      <trkpt lat="47.56033" lon="-2.32119">
        <ele>63.2</ele>
        <time>2025-01-16T12:53:42Z</time>
      </trkpt>
      <trkpt lat="47.56033" lon="-2.32122">
        <ele>63.3</ele>
        <time>2025-01-16T12:53:43Z</time>
      </trkpt>
      <trkpt lat="47.56032" lon="-2.32124">
        <ele>63.4</ele>
        <time>2025-01-16T12:53:44Z</time>
      </trkpt>
      <trkpt lat="47.56032" lon="-2.32126">
        <ele>63.5</ele>
        <time>2025-01-16T12:53:45Z</time>
      </trkpt>
      <trkpt lat="47.56032" lon="-2.32127">
        <ele>63.5</ele>
        <time>2025-01-16T12:53:46Z</time>
      </trkpt>
      <trkpt lat="47.56033" lon="-2.32129">
        <ele>63.5</ele>
        <time>2025-01-16T12:53:47Z</time>
      </trkpt>
      <trkpt lat="47.56033" lon="-2.32131">
        <ele>63.6</ele>
        <time>2025-01-16T12:53:48Z</time>
      </trkpt>
      <trkpt lat="47.56033" lon="-2.32132">
        <ele>63.6</ele>
        <time>2025-01-16T12:53:49Z</time>
      </trkpt>
      <trkpt lat="47.56032" lon="-2.32134">
        <ele>63.7</ele>
        <time>2025-01-16T12:53:50Z</time>
      </trkpt>
      <trkpt lat="47.56032" lon="-2.32137">
        <ele>63.8</ele>
        <time>2025-01-16T12:53:51Z</time>
      </trkpt>
      <trkpt lat="47.56032" lon="-2.3214">
        <ele>63.8</ele>
        <time>2025-01-16T12:53:52Z</time>
      </trkpt>
      <trkpt lat="47.56033" lon="-2.32143">
        <ele>63.7</ele>
        <time>2025-01-16T12:53:53Z</time>
      </trkpt>
      <trkpt lat="47.56033" lon="-2.32149">
        <ele>63.5</ele>
        <time>2025-01-16T12:53:54Z</time>
      </trkpt>
      <trkpt lat="47.56033" lon="-2.32151">
        <ele>63.5</ele>
        <time>2025-01-16T12:53:55Z</time>
      </trkpt>
      <trkpt lat="47.56034" lon="-2.32154">
        <ele>63.4</ele>
        <time>2025-01-16T12:53:56Z</time>
      </trkpt>
      <trkpt lat="47.56034" lon="-2.32156">
        <ele>63.3</ele>
        <time>2025-01-16T12:53:57Z</time>
      </trkpt>
      <trkpt lat="47.56033" lon="-2.32159">
        <ele>63.2</ele>
        <time>2025-01-16T12:53:58Z</time>
      </trkpt>
      <trkpt lat="47.56033" lon="-2.32161">
        <ele>63.2</ele>
        <time>2025-01-16T12:53:59Z</time>
      </trkpt>
      <trkpt lat="47.56033" lon="-2.32163">
        <ele>63.1</ele>
        <time>2025-01-16T12:54:00Z</time>
      </trkpt>
      <trkpt lat="47.56032" lon="-2.32164">
        <ele>63.1</ele>
        <time>2025-01-16T12:54:01Z</time>
      </trkpt>
      <trkpt lat="47.56032" lon="-2.32166">
        <ele>63</ele>
        <time>2025-01-16T12:54:02Z</time>
      </trkpt>
      <trkpt lat="47.56032" lon="-2.32168">
        <ele>63</ele>
        <time>2025-01-16T12:54:03Z</time>
      </trkpt>
      <trkpt lat="47.56031" lon="-2.32171">
        <ele>63</ele>
        <time>2025-01-16T12:54:04Z</time>
      </trkpt>
      <trkpt lat="47.5603" lon="-2.32173">
        <ele>63</ele>
        <time>2025-01-16T12:54:05Z</time>
      </trkpt>
      <trkpt lat="47.56029" lon="-2.32175">
        <ele>63</ele>
        <time>2025-01-16T12:54:06Z</time>
      </trkpt>
      <trkpt lat="47.56028" lon="-2.32176">
        <ele>63</ele>
        <time>2025-01-16T12:54:07Z</time>
      </trkpt>
      <trkpt lat="47.56028" lon="-2.32177">
        <ele>63</ele>
        <time>2025-01-16T12:54:08Z</time>
      </trkpt>
      <trkpt lat="47.56027" lon="-2.32179">
        <ele>63</ele>
        <time>2025-01-16T12:54:09Z</time>
      </trkpt>
      <trkpt lat="47.56026" lon="-2.3218">
        <ele>63</ele>
        <time>2025-01-16T12:54:10Z</time>
      </trkpt>
      <trkpt lat="47.56025" lon="-2.32182">
        <ele>63</ele>
        <time>2025-01-16T12:54:11Z</time>
      </trkpt>
      <trkpt lat="47.56024" lon="-2.32183">
        <ele>63.1</ele>
        <time>2025-01-16T12:54:12Z</time>
      </trkpt>
      <trkpt lat="47.56024" lon="-2.32184">
        <ele>63.1</ele>
        <time>2025-01-16T12:54:13Z</time>
      </trkpt>
      <trkpt lat="47.56022" lon="-2.32185">
        <ele>63.1</ele>
        <time>2025-01-16T12:54:14Z</time>
      </trkpt>
      <trkpt lat="47.56021" lon="-2.32187">
        <ele>63.1</ele>
        <time>2025-01-16T12:54:15Z</time>
      </trkpt>
      <trkpt lat="47.5602" lon="-2.32188">
        <ele>63.1</ele>
        <time>2025-01-16T12:54:16Z</time>
      </trkpt>
      <trkpt lat="47.56019" lon="-2.32189">
        <ele>63.1</ele>
        <time>2025-01-16T12:54:17Z</time>
      </trkpt>
      <trkpt lat="47.56017" lon="-2.32189">
        <ele>63.1</ele>
        <time>2025-01-16T12:54:18Z</time>
      </trkpt>
      <trkpt lat="47.56016" lon="-2.3219">
        <ele>63.1</ele>
        <time>2025-01-16T12:54:19Z</time>
      </trkpt>
      <trkpt lat="47.56015" lon="-2.32191">
        <ele>63.1</ele>
        <time>2025-01-16T12:54:20Z</time>
      </trkpt>
      <trkpt lat="47.56014" lon="-2.32193">
        <ele>63</ele>
        <time>2025-01-16T12:54:21Z</time>
      </trkpt>
      <trkpt lat="47.56013" lon="-2.32194">
        <ele>63</ele>
        <time>2025-01-16T12:54:22Z</time>
      </trkpt>
      <trkpt lat="47.56012" lon="-2.32194">
        <ele>63</ele>
        <time>2025-01-16T12:54:23Z</time>
      </trkpt>
      <trkpt lat="47.56011" lon="-2.32195">
        <ele>63</ele>
        <time>2025-01-16T12:54:24Z</time>
      </trkpt>
      <trkpt lat="47.5601" lon="-2.32195">
        <ele>63</ele>
        <time>2025-01-16T12:54:25Z</time>
      </trkpt>
      <trkpt lat="47.56009" lon="-2.32196">
        <ele>62.9</ele>
        <time>2025-01-16T12:54:26Z</time>
      </trkpt>
      <trkpt lat="47.56008" lon="-2.32196">
        <ele>62.9</ele>
        <time>2025-01-16T12:54:27Z</time>
      </trkpt>
      <trkpt lat="47.56007" lon="-2.32197">
        <ele>62.9</ele>
        <time>2025-01-16T12:54:28Z</time>
      </trkpt>
      <trkpt lat="47.56006" lon="-2.32197">
        <ele>62.9</ele>
        <time>2025-01-16T12:54:29Z</time>
      </trkpt>
      <trkpt lat="47.56005" lon="-2.32197">
        <ele>62.9</ele>
        <time>2025-01-16T12:54:30Z</time>
      </trkpt>
      <trkpt lat="47.56004" lon="-2.32197">
        <ele>62.9</ele>
        <time>2025-01-16T12:54:31Z</time>
      </trkpt>
      <trkpt lat="47.56003" lon="-2.32197">
        <ele>62.9</ele>
        <time>2025-01-16T12:54:32Z</time>
      </trkpt>
      <trkpt lat="47.56002" lon="-2.32197">
        <ele>62.9</ele>
        <time>2025-01-16T12:54:33Z</time>
      </trkpt>
      <trkpt lat="47.56001" lon="-2.32197">
        <ele>62.9</ele>
        <time>2025-01-16T12:54:34Z</time>
      </trkpt>
      <trkpt lat="47.56" lon="-2.32197">
        <ele>62.9</ele>
        <time>2025-01-16T12:54:35Z</time>
      </trkpt>
      <trkpt lat="47.56" lon="-2.32198">
        <ele>62.9</ele>
        <time>2025-01-16T12:54:36Z</time>
      </trkpt>
      <trkpt lat="47.55999" lon="-2.32198">
        <ele>62.9</ele>
        <time>2025-01-16T12:54:37Z</time>
      </trkpt>
      <trkpt lat="47.55998" lon="-2.32199">
        <ele>62.8</ele>
        <time>2025-01-16T12:54:38Z</time>
      </trkpt>
      <trkpt lat="47.55997" lon="-2.32199">
        <ele>62.8</ele>
        <time>2025-01-16T12:54:39Z</time>
      </trkpt>
      <trkpt lat="47.55996" lon="-2.32199">
        <ele>62.8</ele>
        <time>2025-01-16T12:54:40Z</time>
      </trkpt>
      <trkpt lat="47.55995" lon="-2.322">
        <ele>62.8</ele>
        <time>2025-01-16T12:54:41Z</time>
      </trkpt>
      <trkpt lat="47.55994" lon="-2.322">
        <ele>62.8</ele>
        <time>2025-01-16T12:54:42Z</time>
      </trkpt>
      <trkpt lat="47.55993" lon="-2.322">
        <ele>62.8</ele>
        <time>2025-01-16T12:54:43Z</time>
      </trkpt>
      <trkpt lat="47.55992" lon="-2.322">
        <ele>62.8</ele>
        <time>2025-01-16T12:54:44Z</time>
      </trkpt>
      <trkpt lat="47.55991" lon="-2.322">
        <ele>62.8</ele>
        <time>2025-01-16T12:54:45Z</time>
      </trkpt>
      <trkpt lat="47.5599" lon="-2.322">
        <ele>62.8</ele>
        <time>2025-01-16T12:54:46Z</time>
      </trkpt>
      <trkpt lat="47.55989" lon="-2.322">
        <ele>62.8</ele>
        <time>2025-01-16T12:54:47Z</time>
      </trkpt>
      <trkpt lat="47.55988" lon="-2.322">
        <ele>62.8</ele>
        <time>2025-01-16T12:54:48Z</time>
      </trkpt>
      <trkpt lat="47.55987" lon="-2.32199">
        <ele>62.8</ele>
        <time>2025-01-16T12:54:49Z</time>
      </trkpt>
      <trkpt lat="47.55987" lon="-2.32199">
        <ele>62.8</ele>
        <time>2025-01-16T12:54:50Z</time>
      </trkpt>
      <trkpt lat="47.55986" lon="-2.32199">
        <ele>62.8</ele>
        <time>2025-01-16T12:54:51Z</time>
      </trkpt>
      <trkpt lat="47.55985" lon="-2.322">
        <ele>62.8</ele>
        <time>2025-01-16T12:54:52Z</time>
      </trkpt>
      <trkpt lat="47.55984" lon="-2.322">
        <ele>62.8</ele>
        <time>2025-01-16T12:54:53Z</time>
      </trkpt>
      <trkpt lat="47.55983" lon="-2.322">
        <ele>62.8</ele>
        <time>2025-01-16T12:54:54Z</time>
      </trkpt>
      <trkpt lat="47.55982" lon="-2.322">
        <ele>62.8</ele>
        <time>2025-01-16T12:54:55Z</time>
      </trkpt>
      <trkpt lat="47.5598" lon="-2.322">
        <ele>62.8</ele>
        <time>2025-01-16T12:54:56Z</time>
      </trkpt>
      <trkpt lat="47.5598" lon="-2.322">
        <ele>62.8</ele>
        <time>2025-01-16T12:54:57Z</time>
      </trkpt>
      <trkpt lat="47.55979" lon="-2.322">
        <ele>62.8</ele>
        <time>2025-01-16T12:54:58Z</time>
      </trkpt>
      <trkpt lat="47.55978" lon="-2.32201">
        <ele>62.8</ele>
        <time>2025-01-16T12:54:59Z</time>
      </trkpt>
      <trkpt lat="47.55977" lon="-2.32201">
        <ele>62.8</ele>
        <time>2025-01-16T12:55:00Z</time>
      </trkpt>
      <trkpt lat="47.55976" lon="-2.32202">
        <ele>62.7</ele>
        <time>2025-01-16T12:55:01Z</time>
      </trkpt>
      <trkpt lat="47.55974" lon="-2.32202">
        <ele>62.7</ele>
        <time>2025-01-16T12:55:02Z</time>
      </trkpt>
      <trkpt lat="47.55973" lon="-2.32202">
        <ele>62.7</ele>
        <time>2025-01-16T12:55:03Z</time>
      </trkpt>
      <trkpt lat="47.55972" lon="-2.32203">
        <ele>62.7</ele>
        <time>2025-01-16T12:55:04Z</time>
      </trkpt>
      <trkpt lat="47.55971" lon="-2.32203">
        <ele>62.7</ele>
        <time>2025-01-16T12:55:05Z</time>
      </trkpt>
      <trkpt lat="47.55969" lon="-2.32203">
        <ele>62.7</ele>
        <time>2025-01-16T12:55:06Z</time>
      </trkpt>
      <trkpt lat="47.55968" lon="-2.32203">
        <ele>62.7</ele>
        <time>2025-01-16T12:55:07Z</time>
      </trkpt>
      <trkpt lat="47.55966" lon="-2.32204">
        <ele>62.7</ele>
        <time>2025-01-16T12:55:08Z</time>
      </trkpt>
      <trkpt lat="47.55965" lon="-2.32204">
        <ele>62.7</ele>
        <time>2025-01-16T12:55:09Z</time>
      </trkpt>
      <trkpt lat="47.55964" lon="-2.32204">
        <ele>62.7</ele>
        <time>2025-01-16T12:55:10Z</time>
      </trkpt>
      <trkpt lat="47.55963" lon="-2.32204">
        <ele>62.7</ele>
        <time>2025-01-16T12:55:11Z</time>
      </trkpt>
      <trkpt lat="47.55962" lon="-2.32205">
        <ele>62.6</ele>
        <time>2025-01-16T12:55:12Z</time>
      </trkpt>
      <trkpt lat="47.55961" lon="-2.32205">
        <ele>62.6</ele>
        <time>2025-01-16T12:55:13Z</time>
      </trkpt>
      <trkpt lat="47.5596" lon="-2.32205">
        <ele>62.6</ele>
        <time>2025-01-16T12:55:14Z</time>
      </trkpt>
      <trkpt lat="47.55959" lon="-2.32206">
        <ele>62.6</ele>
        <time>2025-01-16T12:55:15Z</time>
      </trkpt>
      <trkpt lat="47.55959" lon="-2.32206">
        <ele>62.6</ele>
        <time>2025-01-16T12:55:16Z</time>
      </trkpt>
      <trkpt lat="47.55959" lon="-2.32206">
        <ele>62.6</ele>
        <time>2025-01-16T12:55:17Z</time>
      </trkpt>
      <trkpt lat="47.55958" lon="-2.32206">
        <ele>62.6</ele>
        <time>2025-01-16T12:55:18Z</time>
      </trkpt>
      <trkpt lat="47.55958" lon="-2.32206">
        <ele>62.6</ele>
        <time>2025-01-16T12:55:19Z</time>
      </trkpt>
      <trkpt lat="47.55957" lon="-2.32207">
        <ele>62.5</ele>
        <time>2025-01-16T12:55:20Z</time>
      </trkpt>
      <trkpt lat="47.55957" lon="-2.32207">
        <ele>62.5</ele>
        <time>2025-01-16T12:55:21Z</time>
      </trkpt>
      <trkpt lat="47.55956" lon="-2.32207">
        <ele>62.5</ele>
        <time>2025-01-16T12:55:22Z</time>
      </trkpt>
      <trkpt lat="47.55955" lon="-2.32207">
        <ele>62.5</ele>
        <time>2025-01-16T12:55:23Z</time>
      </trkpt>
      <trkpt lat="47.55953" lon="-2.32207">
        <ele>62.5</ele>
        <time>2025-01-16T12:55:24Z</time>
      </trkpt>
      <trkpt lat="47.55952" lon="-2.32208">
        <ele>62.5</ele>
        <time>2025-01-16T12:55:25Z</time>
      </trkpt>
      <trkpt lat="47.5595" lon="-2.32208">
        <ele>62.5</ele>
        <time>2025-01-16T12:55:26Z</time>
      </trkpt>
      <trkpt lat="47.5595" lon="-2.32208">
        <ele>62.5</ele>
        <time>2025-01-16T12:55:27Z</time>
      </trkpt>
      <trkpt lat="47.55949" lon="-2.32208">
        <ele>62.5</ele>
        <time>2025-01-16T12:55:28Z</time>
      </trkpt>
      <trkpt lat="47.55949" lon="-2.32208">
        <ele>62.5</ele>
        <time>2025-01-16T12:55:29Z</time>
      </trkpt>
      <trkpt lat="47.55948" lon="-2.32209">
        <ele>62.5</ele>
        <time>2025-01-16T12:55:30Z</time>
      </trkpt>
      <trkpt lat="47.55946" lon="-2.32209">
        <ele>62.5</ele>
        <time>2025-01-16T12:55:31Z</time>
      </trkpt>
      <trkpt lat="47.55945" lon="-2.3221">
        <ele>62.4</ele>
        <time>2025-01-16T12:55:32Z</time>
      </trkpt>
      <trkpt lat="47.55944" lon="-2.32212">
        <ele>62.4</ele>
        <time>2025-01-16T12:55:33Z</time>
      </trkpt>
      <trkpt lat="47.55943" lon="-2.32213">
        <ele>62.3</ele>
        <time>2025-01-16T12:55:34Z</time>
      </trkpt>
      <trkpt lat="47.55942" lon="-2.32215">
        <ele>62.3</ele>
        <time>2025-01-16T12:55:35Z</time>
      </trkpt>
      <trkpt lat="47.55941" lon="-2.32216">
        <ele>62.2</ele>
        <time>2025-01-16T12:55:36Z</time>
      </trkpt>
      <trkpt lat="47.55941" lon="-2.32217">
        <ele>62.2</ele>
        <time>2025-01-16T12:55:37Z</time>
      </trkpt>
      <trkpt lat="47.55941" lon="-2.32216">
        <ele>62.2</ele>
        <time>2025-01-16T12:55:38Z</time>
      </trkpt>
      <trkpt lat="47.55942" lon="-2.32216">
        <ele>62.2</ele>
        <time>2025-01-16T12:55:39Z</time>
      </trkpt>
      <trkpt lat="47.55942" lon="-2.32216">
        <ele>62.2</ele>
        <time>2025-01-16T12:55:40Z</time>
      </trkpt>
      <trkpt lat="47.55942" lon="-2.32217">
        <ele>62.2</ele>
        <time>2025-01-16T12:55:41Z</time>
      </trkpt>
      <trkpt lat="47.55941" lon="-2.32217">
        <ele>62.2</ele>
        <time>2025-01-16T12:55:42Z</time>
      </trkpt>
      <trkpt lat="47.55941" lon="-2.32217">
        <ele>62.2</ele>
        <time>2025-01-16T12:55:43Z</time>
      </trkpt>
      <trkpt lat="47.55941" lon="-2.32217">
        <ele>62.2</ele>
        <time>2025-01-16T12:55:44Z</time>
      </trkpt>
      <trkpt lat="47.55941" lon="-2.32217">
        <ele>62.2</ele>
        <time>2025-01-16T12:55:45Z</time>
      </trkpt>
      <trkpt lat="47.55941" lon="-2.32217">
        <ele>62.2</ele>
        <time>2025-01-16T12:55:46Z</time>
      </trkpt>
      <trkpt lat="47.55941" lon="-2.32217">
        <ele>62.2</ele>
        <time>2025-01-16T12:55:47Z</time>
      </trkpt>
      <trkpt lat="47.55939" lon="-2.32218">
        <ele>62.2</ele>
        <time>2025-01-16T12:55:50Z</time>
      </trkpt>
      <trkpt lat="47.55939" lon="-2.32218">
        <ele>62.2</ele>
        <time>2025-01-16T12:55:51Z</time>
      </trkpt>
      <trkpt lat="47.55939" lon="-2.3222">
        <ele>62.1</ele>
        <time>2025-01-16T12:55:52Z</time>
      </trkpt>
      <trkpt lat="47.55939" lon="-2.32221">
        <ele>62</ele>
        <time>2025-01-16T12:55:53Z</time>
      </trkpt>
      <trkpt lat="47.55939" lon="-2.32222">
        <ele>62</ele>
        <time>2025-01-16T12:55:54Z</time>
      </trkpt>
      <trkpt lat="47.55939" lon="-2.32223">
        <ele>62</ele>
        <time>2025-01-16T12:55:55Z</time>
      </trkpt>
      <trkpt lat="47.55938" lon="-2.32224">
        <ele>61.9</ele>
        <time>2025-01-16T12:55:56Z</time>
      </trkpt>
      <trkpt lat="47.55938" lon="-2.32224">
        <ele>61.9</ele>
        <time>2025-01-16T12:55:57Z</time>
      </trkpt>
      <trkpt lat="47.55938" lon="-2.32224">
        <ele>61.9</ele>
        <time>2025-01-16T12:55:58Z</time>
      </trkpt>
      <trkpt lat="47.55938" lon="-2.32224">
        <ele>61.9</ele>
        <time>2025-01-16T12:55:59Z</time>
      </trkpt>
      <trkpt lat="47.55938" lon="-2.32225">
        <ele>61.9</ele>
        <time>2025-01-16T12:56:00Z</time>
      </trkpt>
      <trkpt lat="47.55938" lon="-2.32225">
        <ele>61.9</ele>
        <time>2025-01-16T12:56:01Z</time>
      </trkpt>
      <trkpt lat="47.55938" lon="-2.32226">
        <ele>61.9</ele>
        <time>2025-01-16T12:56:02Z</time>
      </trkpt>
      <trkpt lat="47.55939" lon="-2.32227">
        <ele>61.8</ele>
        <time>2025-01-16T12:56:03Z</time>
      </trkpt>
      <trkpt lat="47.55939" lon="-2.32229">
        <ele>61.8</ele>
        <time>2025-01-16T12:56:04Z</time>
      </trkpt>
      <trkpt lat="47.55939" lon="-2.32229">
        <ele>61.8</ele>
        <time>2025-01-16T12:56:05Z</time>
      </trkpt>
      <trkpt lat="47.55939" lon="-2.32229">
        <ele>61.8</ele>
        <time>2025-01-16T12:56:06Z</time>
      </trkpt>
      <trkpt lat="47.55939" lon="-2.3223">
        <ele>61.7</ele>
        <time>2025-01-16T12:56:07Z</time>
      </trkpt>
      <trkpt lat="47.55939" lon="-2.3223">
        <ele>61.7</ele>
        <time>2025-01-16T12:56:08Z</time>
      </trkpt>
      <trkpt lat="47.5594" lon="-2.3223">
        <ele>61.7</ele>
        <time>2025-01-16T12:56:09Z</time>
      </trkpt>
      <trkpt lat="47.5594" lon="-2.32231">
        <ele>61.7</ele>
        <time>2025-01-16T12:56:10Z</time>
      </trkpt>
      <trkpt lat="47.55941" lon="-2.32233">
        <ele>61.6</ele>
        <time>2025-01-16T12:56:11Z</time>
      </trkpt>
      <trkpt lat="47.55941" lon="-2.32234">
        <ele>61.6</ele>
        <time>2025-01-16T12:56:12Z</time>
      </trkpt>
      <trkpt lat="47.55942" lon="-2.32234">
        <ele>61.6</ele>
        <time>2025-01-16T12:56:13Z</time>
      </trkpt>
      <trkpt lat="47.55942" lon="-2.32233">
        <ele>61.6</ele>
        <time>2025-01-16T12:56:14Z</time>
      </trkpt>
      <trkpt lat="47.55942" lon="-2.32235">
        <ele>61.5</ele>
        <time>2025-01-16T12:56:15Z</time>
      </trkpt>
      <trkpt lat="47.55943" lon="-2.32236">
        <ele>61.5</ele>
        <time>2025-01-16T12:56:16Z</time>
      </trkpt>
      <trkpt lat="47.55944" lon="-2.32238">
        <ele>61.4</ele>
        <time>2025-01-16T12:56:17Z</time>
      </trkpt>
      <trkpt lat="47.55944" lon="-2.32239">
        <ele>61.4</ele>
        <time>2025-01-16T12:56:18Z</time>
      </trkpt>
      <trkpt lat="47.55945" lon="-2.3224">
        <ele>61.4</ele>
        <time>2025-01-16T12:56:19Z</time>
      </trkpt>
      <trkpt lat="47.55945" lon="-2.32241">
        <ele>61.3</ele>
        <time>2025-01-16T12:56:20Z</time>
      </trkpt>
      <trkpt lat="47.55945" lon="-2.32241">
        <ele>61.3</ele>
        <time>2025-01-16T12:56:21Z</time>
      </trkpt>
      <trkpt lat="47.55945" lon="-2.32241">
        <ele>61.3</ele>
        <time>2025-01-16T12:56:22Z</time>
      </trkpt>
      <trkpt lat="47.55945" lon="-2.32242">
        <ele>61.3</ele>
        <time>2025-01-16T12:56:23Z</time>
      </trkpt>
      <trkpt lat="47.55946" lon="-2.32247">
        <ele>61.1</ele>
        <time>2025-01-16T12:56:24Z</time>
      </trkpt>
      <trkpt lat="47.55947" lon="-2.32254">
        <ele>60.9</ele>
        <time>2025-01-16T12:56:25Z</time>
      </trkpt>
      <trkpt lat="47.55947" lon="-2.32257">
        <ele>60.7</ele>
        <time>2025-01-16T12:56:26Z</time>
      </trkpt>
      <trkpt lat="47.55948" lon="-2.3226">
        <ele>60.6</ele>
        <time>2025-01-16T12:56:27Z</time>
      </trkpt>
      <trkpt lat="47.55949" lon="-2.32262">
        <ele>60.6</ele>
        <time>2025-01-16T12:56:28Z</time>
      </trkpt>
      <trkpt lat="47.55949" lon="-2.32265">
        <ele>60.5</ele>
        <time>2025-01-16T12:56:29Z</time>
      </trkpt>
      <trkpt lat="47.5595" lon="-2.32267">
        <ele>60.4</ele>
        <time>2025-01-16T12:56:30Z</time>
      </trkpt>
      <trkpt lat="47.5595" lon="-2.32269">
        <ele>60.3</ele>
        <time>2025-01-16T12:56:31Z</time>
      </trkpt>
      <trkpt lat="47.5595" lon="-2.32271">
        <ele>60.2</ele>
        <time>2025-01-16T12:56:32Z</time>
      </trkpt>
      <trkpt lat="47.5595" lon="-2.32273">
        <ele>60.2</ele>
        <time>2025-01-16T12:56:33Z</time>
      </trkpt>
      <trkpt lat="47.5595" lon="-2.32275">
        <ele>60.1</ele>
        <time>2025-01-16T12:56:34Z</time>
      </trkpt>
      <trkpt lat="47.5595" lon="-2.32276">
        <ele>60.1</ele>
        <time>2025-01-16T12:56:35Z</time>
      </trkpt>
      <trkpt lat="47.55951" lon="-2.32278">
        <ele>60</ele>
        <time>2025-01-16T12:56:36Z</time>
      </trkpt>
      <trkpt lat="47.55951" lon="-2.32279">
        <ele>60</ele>
        <time>2025-01-16T12:56:37Z</time>
      </trkpt>
      <trkpt lat="47.55952" lon="-2.3228">
        <ele>59.9</ele>
        <time>2025-01-16T12:56:38Z</time>
      </trkpt>
      <trkpt lat="47.55952" lon="-2.32282">
        <ele>59.9</ele>
        <time>2025-01-16T12:56:39Z</time>
      </trkpt>
      <trkpt lat="47.55952" lon="-2.32284">
        <ele>59.8</ele>
        <time>2025-01-16T12:56:40Z</time>
      </trkpt>
      <trkpt lat="47.55952" lon="-2.32287">
        <ele>59.8</ele>
        <time>2025-01-16T12:56:41Z</time>
      </trkpt>
      <trkpt lat="47.55953" lon="-2.32289">
        <ele>59.7</ele>
        <time>2025-01-16T12:56:42Z</time>
      </trkpt>
      <trkpt lat="47.55953" lon="-2.3229">
        <ele>59.7</ele>
        <time>2025-01-16T12:56:43Z</time>
      </trkpt>
      <trkpt lat="47.55953" lon="-2.32292">
        <ele>59.6</ele>
        <time>2025-01-16T12:56:44Z</time>
      </trkpt>
      <trkpt lat="47.55953" lon="-2.32293">
        <ele>59.6</ele>
        <time>2025-01-16T12:56:45Z</time>
      </trkpt>
      <trkpt lat="47.55953" lon="-2.32294">
        <ele>59.6</ele>
        <time>2025-01-16T12:56:46Z</time>
      </trkpt>
      <trkpt lat="47.55953" lon="-2.32295">
        <ele>59.6</ele>
        <time>2025-01-16T12:56:47Z</time>
      </trkpt>
      <trkpt lat="47.55953" lon="-2.32296">
        <ele>59.5</ele>
        <time>2025-01-16T12:56:48Z</time>
      </trkpt>
      <trkpt lat="47.55953" lon="-2.32298">
        <ele>59.5</ele>
        <time>2025-01-16T12:56:49Z</time>
      </trkpt>
      <trkpt lat="47.55953" lon="-2.323">
        <ele>59.4</ele>
        <time>2025-01-16T12:56:50Z</time>
      </trkpt>
      <trkpt lat="47.55953" lon="-2.32302">
        <ele>59.4</ele>
        <time>2025-01-16T12:56:51Z</time>
      </trkpt>
      <trkpt lat="47.55954" lon="-2.32303">
        <ele>59.4</ele>
        <time>2025-01-16T12:56:52Z</time>
      </trkpt>
      <trkpt lat="47.55954" lon="-2.32305">
        <ele>59.4</ele>
        <time>2025-01-16T12:56:53Z</time>
      </trkpt>
      <trkpt lat="47.55954" lon="-2.32307">
        <ele>59.4</ele>
        <time>2025-01-16T12:56:54Z</time>
      </trkpt>
      <trkpt lat="47.55954" lon="-2.32308">
        <ele>59.4</ele>
        <time>2025-01-16T12:56:55Z</time>
      </trkpt>
      <trkpt lat="47.55955" lon="-2.32309">
        <ele>59.4</ele>
        <time>2025-01-16T12:56:56Z</time>
      </trkpt>
      <trkpt lat="47.55955" lon="-2.32311">
        <ele>59.5</ele>
        <time>2025-01-16T12:56:57Z</time>
      </trkpt>
      <trkpt lat="47.55956" lon="-2.32313">
        <ele>59.5</ele>
        <time>2025-01-16T12:56:58Z</time>
      </trkpt>
      <trkpt lat="47.55956" lon="-2.32315">
        <ele>59.6</ele>
        <time>2025-01-16T12:56:59Z</time>
      </trkpt>
      <trkpt lat="47.55956" lon="-2.32317">
        <ele>59.6</ele>
        <time>2025-01-16T12:57:00Z</time>
      </trkpt>
      <trkpt lat="47.55955" lon="-2.32317">
        <ele>59.5</ele>
        <time>2025-01-16T12:57:01Z</time>
      </trkpt>
      <trkpt lat="47.55956" lon="-2.32319">
        <ele>59.6</ele>
        <time>2025-01-16T12:57:02Z</time>
      </trkpt>
      <trkpt lat="47.55956" lon="-2.32319">
        <ele>59.6</ele>
        <time>2025-01-16T12:57:03Z</time>
      </trkpt>
      <trkpt lat="47.55956" lon="-2.32319">
        <ele>59.6</ele>
        <time>2025-01-16T12:57:04Z</time>
      </trkpt>
      <trkpt lat="47.55956" lon="-2.3232">
        <ele>59.6</ele>
        <time>2025-01-16T12:57:05Z</time>
      </trkpt>
      <trkpt lat="47.55957" lon="-2.32323">
        <ele>59.7</ele>
        <time>2025-01-16T12:57:06Z</time>
      </trkpt>
      <trkpt lat="47.55958" lon="-2.32325">
        <ele>59.8</ele>
        <time>2025-01-16T12:57:07Z</time>
      </trkpt>
      <trkpt lat="47.55958" lon="-2.32328">
        <ele>59.9</ele>
        <time>2025-01-16T12:57:08Z</time>
      </trkpt>
      <trkpt lat="47.55959" lon="-2.3233">
        <ele>60</ele>
        <time>2025-01-16T12:57:09Z</time>
      </trkpt>
      <trkpt lat="47.55959" lon="-2.32332">
        <ele>60</ele>
        <time>2025-01-16T12:57:10Z</time>
      </trkpt>
      <trkpt lat="47.5596" lon="-2.32334">
        <ele>60.1</ele>
        <time>2025-01-16T12:57:11Z</time>
      </trkpt>
      <trkpt lat="47.55961" lon="-2.32335">
        <ele>60.2</ele>
        <time>2025-01-16T12:57:12Z</time>
      </trkpt>
      <trkpt lat="47.55961" lon="-2.32336">
        <ele>60.2</ele>
        <time>2025-01-16T12:57:13Z</time>
      </trkpt>
      <trkpt lat="47.55961" lon="-2.32338">
        <ele>60.2</ele>
        <time>2025-01-16T12:57:14Z</time>
      </trkpt>
      <trkpt lat="47.55961" lon="-2.32338">
        <ele>60.2</ele>
        <time>2025-01-16T12:57:15Z</time>
      </trkpt>
      <trkpt lat="47.55962" lon="-2.3234">
        <ele>60.3</ele>
        <time>2025-01-16T12:57:16Z</time>
      </trkpt>
      <trkpt lat="47.55962" lon="-2.32341">
        <ele>60.3</ele>
        <time>2025-01-16T12:57:17Z</time>
      </trkpt>
      <trkpt lat="47.55963" lon="-2.32343">
        <ele>60.3</ele>
        <time>2025-01-16T12:57:18Z</time>
      </trkpt>
      <trkpt lat="47.55964" lon="-2.32344">
        <ele>60.4</ele>
        <time>2025-01-16T12:57:19Z</time>
      </trkpt>
      <trkpt lat="47.55964" lon="-2.32345">
        <ele>60.4</ele>
        <time>2025-01-16T12:57:20Z</time>
      </trkpt>
      <trkpt lat="47.55965" lon="-2.32347">
        <ele>60.5</ele>
        <time>2025-01-16T12:57:21Z</time>
      </trkpt>
      <trkpt lat="47.55966" lon="-2.32349">
        <ele>60.6</ele>
        <time>2025-01-16T12:57:22Z</time>
      </trkpt>
      <trkpt lat="47.55966" lon="-2.32352">
        <ele>60.6</ele>
        <time>2025-01-16T12:57:23Z</time>
      </trkpt>
      <trkpt lat="47.55967" lon="-2.32354">
        <ele>60.6</ele>
        <time>2025-01-16T12:57:24Z</time>
      </trkpt>
      <trkpt lat="47.55967" lon="-2.32356">
        <ele>60.6</ele>
        <time>2025-01-16T12:57:25Z</time>
      </trkpt>
      <trkpt lat="47.55968" lon="-2.32357">
        <ele>60.7</ele>
        <time>2025-01-16T12:57:26Z</time>
      </trkpt>
      <trkpt lat="47.55968" lon="-2.32357">
        <ele>60.7</ele>
        <time>2025-01-16T12:57:27Z</time>
      </trkpt>
      <trkpt lat="47.55968" lon="-2.32359">
        <ele>60.7</ele>
        <time>2025-01-16T12:57:28Z</time>
      </trkpt>
      <trkpt lat="47.55969" lon="-2.3236">
        <ele>60.8</ele>
        <time>2025-01-16T12:57:29Z</time>
      </trkpt>
      <trkpt lat="47.5597" lon="-2.32362">
        <ele>60.8</ele>
        <time>2025-01-16T12:57:30Z</time>
      </trkpt>
      <trkpt lat="47.5597" lon="-2.32364">
        <ele>60.7</ele>
        <time>2025-01-16T12:57:31Z</time>
      </trkpt>
      <trkpt lat="47.55971" lon="-2.32365">
        <ele>60.8</ele>
        <time>2025-01-16T12:57:32Z</time>
      </trkpt>
      <trkpt lat="47.55971" lon="-2.32367">
        <ele>60.7</ele>
        <time>2025-01-16T12:57:33Z</time>
      </trkpt>
      <trkpt lat="47.55971" lon="-2.32369">
        <ele>60.6</ele>
        <time>2025-01-16T12:57:34Z</time>
      </trkpt>
      <trkpt lat="47.55972" lon="-2.32371">
        <ele>60.6</ele>
        <time>2025-01-16T12:57:35Z</time>
      </trkpt>
      <trkpt lat="47.55972" lon="-2.32372">
        <ele>60.6</ele>
        <time>2025-01-16T12:57:36Z</time>
      </trkpt>
      <trkpt lat="47.55973" lon="-2.32374">
        <ele>60.6</ele>
        <time>2025-01-16T12:57:37Z</time>
      </trkpt>
      <trkpt lat="47.55973" lon="-2.32376">
        <ele>60.5</ele>
        <time>2025-01-16T12:57:38Z</time>
      </trkpt>
      <trkpt lat="47.55974" lon="-2.32377">
        <ele>60.5</ele>
        <time>2025-01-16T12:57:39Z</time>
      </trkpt>
      <trkpt lat="47.55974" lon="-2.32378">
        <ele>60.5</ele>
        <time>2025-01-16T12:57:40Z</time>
      </trkpt>
      <trkpt lat="47.55975" lon="-2.3238">
        <ele>60.4</ele>
        <time>2025-01-16T12:57:41Z</time>
      </trkpt>
      <trkpt lat="47.55975" lon="-2.32382">
        <ele>60.3</ele>
        <time>2025-01-16T12:57:42Z</time>
      </trkpt>
      <trkpt lat="47.55976" lon="-2.32383">
        <ele>60.3</ele>
        <time>2025-01-16T12:57:43Z</time>
      </trkpt>
      <trkpt lat="47.55976" lon="-2.32384">
        <ele>60.3</ele>
        <time>2025-01-16T12:57:44Z</time>
      </trkpt>
      <trkpt lat="47.55977" lon="-2.32385">
        <ele>60.3</ele>
        <time>2025-01-16T12:57:45Z</time>
      </trkpt>
      <trkpt lat="47.55977" lon="-2.32386">
        <ele>60.3</ele>
        <time>2025-01-16T12:57:46Z</time>
      </trkpt>
      <trkpt lat="47.55978" lon="-2.32387">
        <ele>60.3</ele>
        <time>2025-01-16T12:57:47Z</time>
      </trkpt>
      <trkpt lat="47.55979" lon="-2.32388">
        <ele>60.3</ele>
        <time>2025-01-16T12:57:48Z</time>
      </trkpt>
      <trkpt lat="47.5598" lon="-2.32388">
        <ele>60.3</ele>
        <time>2025-01-16T12:57:49Z</time>
      </trkpt>
      <trkpt lat="47.55981" lon="-2.32388">
        <ele>60.3</ele>
        <time>2025-01-16T12:57:50Z</time>
      </trkpt>
      <trkpt lat="47.55982" lon="-2.32389">
        <ele>60.3</ele>
        <time>2025-01-16T12:57:51Z</time>
      </trkpt>
      <trkpt lat="47.55983" lon="-2.32389">
        <ele>60.4</ele>
        <time>2025-01-16T12:57:52Z</time>
      </trkpt>
      <trkpt lat="47.55983" lon="-2.32389">
        <ele>60.4</ele>
        <time>2025-01-16T12:57:53Z</time>
      </trkpt>
      <trkpt lat="47.55984" lon="-2.32388">
        <ele>60.5</ele>
        <time>2025-01-16T12:57:54Z</time>
      </trkpt>
      <trkpt lat="47.55985" lon="-2.32387">
        <ele>60.5</ele>
        <time>2025-01-16T12:57:55Z</time>
      </trkpt>
      <trkpt lat="47.55986" lon="-2.32387">
        <ele>60.6</ele>
        <time>2025-01-16T12:57:56Z</time>
      </trkpt>
      <trkpt lat="47.55988" lon="-2.32386">
        <ele>60.7</ele>
        <time>2025-01-16T12:57:57Z</time>
      </trkpt>
      <trkpt lat="47.55989" lon="-2.32385">
        <ele>60.7</ele>
        <time>2025-01-16T12:57:58Z</time>
      </trkpt>
      <trkpt lat="47.5599" lon="-2.32385">
        <ele>60.8</ele>
        <time>2025-01-16T12:57:59Z</time>
      </trkpt>
      <trkpt lat="47.55991" lon="-2.32384">
        <ele>60.9</ele>
        <time>2025-01-16T12:58:00Z</time>
      </trkpt>
      <trkpt lat="47.55992" lon="-2.32383">
        <ele>60.9</ele>
        <time>2025-01-16T12:58:01Z</time>
      </trkpt>
      <trkpt lat="47.55993" lon="-2.32383">
        <ele>61</ele>
        <time>2025-01-16T12:58:02Z</time>
      </trkpt>
      <trkpt lat="47.55994" lon="-2.32382">
        <ele>61</ele>
        <time>2025-01-16T12:58:03Z</time>
      </trkpt>
      <trkpt lat="47.55995" lon="-2.32381">
        <ele>61.1</ele>
        <time>2025-01-16T12:58:04Z</time>
      </trkpt>
      <trkpt lat="47.55995" lon="-2.32381">
        <ele>61.1</ele>
        <time>2025-01-16T12:58:05Z</time>
      </trkpt>
      <trkpt lat="47.55996" lon="-2.32381">
        <ele>61.1</ele>
        <time>2025-01-16T12:58:06Z</time>
      </trkpt>
      <trkpt lat="47.55997" lon="-2.32381">
        <ele>61.2</ele>
        <time>2025-01-16T12:58:07Z</time>
      </trkpt>
      <trkpt lat="47.55998" lon="-2.32381">
        <ele>61.2</ele>
        <time>2025-01-16T12:58:08Z</time>
      </trkpt>
      <trkpt lat="47.55999" lon="-2.32381">
        <ele>61.2</ele>
        <time>2025-01-16T12:58:09Z</time>
      </trkpt>
      <trkpt lat="47.56" lon="-2.3238">
        <ele>61.3</ele>
        <time>2025-01-16T12:58:10Z</time>
      </trkpt>
      <trkpt lat="47.56001" lon="-2.32379">
        <ele>61.4</ele>
        <time>2025-01-16T12:58:11Z</time>
      </trkpt>
      <trkpt lat="47.56002" lon="-2.32379">
        <ele>61.4</ele>
        <time>2025-01-16T12:58:12Z</time>
      </trkpt>
      <trkpt lat="47.56003" lon="-2.32378">
        <ele>61.4</ele>
        <time>2025-01-16T12:58:13Z</time>
      </trkpt>
      <trkpt lat="47.56004" lon="-2.32377">
        <ele>61.4</ele>
        <time>2025-01-16T12:58:14Z</time>
      </trkpt>
      <trkpt lat="47.56005" lon="-2.32377">
        <ele>61.4</ele>
        <time>2025-01-16T12:58:15Z</time>
      </trkpt>
      <trkpt lat="47.56006" lon="-2.32377">
        <ele>61.4</ele>
        <time>2025-01-16T12:58:16Z</time>
      </trkpt>
      <trkpt lat="47.56007" lon="-2.32376">
        <ele>61.5</ele>
        <time>2025-01-16T12:58:17Z</time>
      </trkpt>
      <trkpt lat="47.56008" lon="-2.32375">
        <ele>61.5</ele>
        <time>2025-01-16T12:58:18Z</time>
      </trkpt>
      <trkpt lat="47.56009" lon="-2.32375">
        <ele>61.5</ele>
        <time>2025-01-16T12:58:19Z</time>
      </trkpt>
      <trkpt lat="47.5601" lon="-2.32374">
        <ele>61.5</ele>
        <time>2025-01-16T12:58:20Z</time>
      </trkpt>
      <trkpt lat="47.56011" lon="-2.32373">
        <ele>61.6</ele>
        <time>2025-01-16T12:58:21Z</time>
      </trkpt>
      <trkpt lat="47.56013" lon="-2.32372">
        <ele>61.6</ele>
        <time>2025-01-16T12:58:22Z</time>
      </trkpt>
      <trkpt lat="47.56014" lon="-2.32372">
        <ele>61.6</ele>
        <time>2025-01-16T12:58:23Z</time>
      </trkpt>
      <trkpt lat="47.56016" lon="-2.32371">
        <ele>61.6</ele>
        <time>2025-01-16T12:58:24Z</time>
      </trkpt>
      <trkpt lat="47.56016" lon="-2.3237">
        <ele>61.7</ele>
        <time>2025-01-16T12:58:25Z</time>
      </trkpt>
      <trkpt lat="47.56016" lon="-2.3237">
        <ele>61.7</ele>
        <time>2025-01-16T12:58:26Z</time>
      </trkpt>
      <trkpt lat="47.56016" lon="-2.32369">
        <ele>61.7</ele>
        <time>2025-01-16T12:58:27Z</time>
      </trkpt>
      <trkpt lat="47.56017" lon="-2.32368">
        <ele>61.8</ele>
        <time>2025-01-16T12:58:28Z</time>
      </trkpt>
      <trkpt lat="47.56017" lon="-2.32367">
        <ele>61.8</ele>
        <time>2025-01-16T12:58:29Z</time>
      </trkpt>
      <trkpt lat="47.56017" lon="-2.32367">
        <ele>61.8</ele>
        <time>2025-01-16T12:58:30Z</time>
      </trkpt>
      <trkpt lat="47.56018" lon="-2.32365">
        <ele>61.9</ele>
        <time>2025-01-16T12:58:32Z</time>
      </trkpt>
      <trkpt lat="47.5602" lon="-2.32364">
        <ele>61.9</ele>
        <time>2025-01-16T12:58:33Z</time>
      </trkpt>
      <trkpt lat="47.56021" lon="-2.32363">
        <ele>61.9</ele>
        <time>2025-01-16T12:58:34Z</time>
      </trkpt>
      <trkpt lat="47.56022" lon="-2.32362">
        <ele>62</ele>
        <time>2025-01-16T12:58:35Z</time>
      </trkpt>
      <trkpt lat="47.56023" lon="-2.32362">
        <ele>62</ele>
        <time>2025-01-16T12:58:36Z</time>
      </trkpt>
      <trkpt lat="47.56024" lon="-2.32361">
        <ele>62</ele>
        <time>2025-01-16T12:58:37Z</time>
      </trkpt>
      <trkpt lat="47.56026" lon="-2.32361">
        <ele>62</ele>
        <time>2025-01-16T12:58:38Z</time>
      </trkpt>
      <trkpt lat="47.56027" lon="-2.3236">
        <ele>62</ele>
        <time>2025-01-16T12:58:39Z</time>
      </trkpt>
      <trkpt lat="47.56029" lon="-2.3236">
        <ele>62</ele>
        <time>2025-01-16T12:58:40Z</time>
      </trkpt>
      <trkpt lat="47.5603" lon="-2.3236">
        <ele>62</ele>
        <time>2025-01-16T12:58:41Z</time>
      </trkpt>
      <trkpt lat="47.56032" lon="-2.3236">
        <ele>62</ele>
        <time>2025-01-16T12:58:42Z</time>
      </trkpt>
      <trkpt lat="47.56033" lon="-2.3236">
        <ele>62</ele>
        <time>2025-01-16T12:58:43Z</time>
      </trkpt>
      <trkpt lat="47.56035" lon="-2.3236">
        <ele>62</ele>
        <time>2025-01-16T12:58:44Z</time>
      </trkpt>
      <trkpt lat="47.56036" lon="-2.3236">
        <ele>62</ele>
        <time>2025-01-16T12:58:45Z</time>
      </trkpt>
      <trkpt lat="47.56038" lon="-2.32361">
        <ele>62</ele>
        <time>2025-01-16T12:58:46Z</time>
      </trkpt>
      <trkpt lat="47.56039" lon="-2.32361">
        <ele>62</ele>
        <time>2025-01-16T12:58:47Z</time>
      </trkpt>
      <trkpt lat="47.56041" lon="-2.32361">
        <ele>62</ele>
        <time>2025-01-16T12:58:48Z</time>
      </trkpt>
      <trkpt lat="47.56042" lon="-2.32361">
        <ele>62</ele>
        <time>2025-01-16T12:58:49Z</time>
      </trkpt>
      <trkpt lat="47.56043" lon="-2.32361">
        <ele>62</ele>
        <time>2025-01-16T12:58:50Z</time>
      </trkpt>
      <trkpt lat="47.56045" lon="-2.32361">
        <ele>62</ele>
        <time>2025-01-16T12:58:51Z</time>
      </trkpt>
      <trkpt lat="47.56046" lon="-2.32361">
        <ele>62</ele>
        <time>2025-01-16T12:58:52Z</time>
      </trkpt>
      <trkpt lat="47.56046" lon="-2.32361">
        <ele>62</ele>
        <time>2025-01-16T12:58:53Z</time>
      </trkpt>
      <trkpt lat="47.56047" lon="-2.32361">
        <ele>62</ele>
        <time>2025-01-16T12:58:54Z</time>
      </trkpt>
      <trkpt lat="47.56048" lon="-2.32361">
        <ele>62</ele>
        <time>2025-01-16T12:58:55Z</time>
      </trkpt>
      <trkpt lat="47.56049" lon="-2.32362">
        <ele>62</ele>
        <time>2025-01-16T12:58:56Z</time>
      </trkpt>
      <trkpt lat="47.5605" lon="-2.32363">
        <ele>61.9</ele>
        <time>2025-01-16T12:58:57Z</time>
      </trkpt>
      <trkpt lat="47.56051" lon="-2.32363">
        <ele>61.9</ele>
        <time>2025-01-16T12:58:58Z</time>
      </trkpt>
      <trkpt lat="47.56052" lon="-2.32363">
        <ele>61.9</ele>
        <time>2025-01-16T12:58:59Z</time>
      </trkpt>
      <trkpt lat="47.56054" lon="-2.32364">
        <ele>61.9</ele>
        <time>2025-01-16T12:59:00Z</time>
      </trkpt>
      <trkpt lat="47.56055" lon="-2.32364">
        <ele>61.9</ele>
        <time>2025-01-16T12:59:01Z</time>
      </trkpt>
      <trkpt lat="47.56056" lon="-2.32364">
        <ele>61.9</ele>
        <time>2025-01-16T12:59:02Z</time>
      </trkpt>
      <trkpt lat="47.56057" lon="-2.32364">
        <ele>61.8</ele>
        <time>2025-01-16T12:59:03Z</time>
      </trkpt>
      <trkpt lat="47.56059" lon="-2.32363">
        <ele>61.8</ele>
        <time>2025-01-16T12:59:04Z</time>
      </trkpt>
      <trkpt lat="47.5606" lon="-2.32363">
        <ele>61.8</ele>
        <time>2025-01-16T12:59:05Z</time>
      </trkpt>
      <trkpt lat="47.56062" lon="-2.32363">
        <ele>61.7</ele>
        <time>2025-01-16T12:59:06Z</time>
      </trkpt>
      <trkpt lat="47.56062" lon="-2.32362">
        <ele>61.7</ele>
        <time>2025-01-16T12:59:07Z</time>
      </trkpt>
      <trkpt lat="47.56063" lon="-2.32362">
        <ele>61.7</ele>
        <time>2025-01-16T12:59:08Z</time>
      </trkpt>
      <trkpt lat="47.56065" lon="-2.32362">
        <ele>61.6</ele>
        <time>2025-01-16T12:59:09Z</time>
      </trkpt>
      <trkpt lat="47.56066" lon="-2.32362">
        <ele>61.6</ele>
        <time>2025-01-16T12:59:10Z</time>
      </trkpt>
      <trkpt lat="47.56065" lon="-2.32363">
        <ele>61.6</ele>
        <time>2025-01-16T12:59:11Z</time>
      </trkpt>
      <trkpt lat="47.56066" lon="-2.32363">
        <ele>61.5</ele>
        <time>2025-01-16T12:59:12Z</time>
      </trkpt>
      <trkpt lat="47.56067" lon="-2.32363">
        <ele>61.5</ele>
        <time>2025-01-16T12:59:13Z</time>
      </trkpt>
      <trkpt lat="47.56069" lon="-2.32363">
        <ele>61.4</ele>
        <time>2025-01-16T12:59:14Z</time>
      </trkpt>
      <trkpt lat="47.5607" lon="-2.32363">
        <ele>61.4</ele>
        <time>2025-01-16T12:59:15Z</time>
      </trkpt>
      <trkpt lat="47.56071" lon="-2.32364">
        <ele>61.3</ele>
        <time>2025-01-16T12:59:16Z</time>
      </trkpt>
      <trkpt lat="47.56072" lon="-2.32364">
        <ele>61.2</ele>
        <time>2025-01-16T12:59:17Z</time>
      </trkpt>
      <trkpt lat="47.56073" lon="-2.32364">
        <ele>61.2</ele>
        <time>2025-01-16T12:59:18Z</time>
      </trkpt>
      <trkpt lat="47.56074" lon="-2.32364">
        <ele>61.2</ele>
        <time>2025-01-16T12:59:19Z</time>
      </trkpt>
      <trkpt lat="47.56076" lon="-2.32364">
        <ele>61.1</ele>
        <time>2025-01-16T12:59:20Z</time>
      </trkpt>
      <trkpt lat="47.56076" lon="-2.32365">
        <ele>61</ele>
        <time>2025-01-16T12:59:21Z</time>
      </trkpt>
      <trkpt lat="47.56077" lon="-2.32363">
        <ele>61.1</ele>
        <time>2025-01-16T12:59:22Z</time>
      </trkpt>
      <trkpt lat="47.56078" lon="-2.32362">
        <ele>61.1</ele>
        <time>2025-01-16T12:59:23Z</time>
      </trkpt>
      <trkpt lat="47.56079" lon="-2.32361">
        <ele>61.2</ele>
        <time>2025-01-16T12:59:24Z</time>
      </trkpt>
      <trkpt lat="47.56081" lon="-2.32361">
        <ele>61.1</ele>
        <time>2025-01-16T12:59:25Z</time>
      </trkpt>
      <trkpt lat="47.56082" lon="-2.32361">
        <ele>61.1</ele>
        <time>2025-01-16T12:59:26Z</time>
      </trkpt>
      <trkpt lat="47.56084" lon="-2.3236">
        <ele>61</ele>
        <time>2025-01-16T12:59:27Z</time>
      </trkpt>
      <trkpt lat="47.56086" lon="-2.32359">
        <ele>61.1</ele>
        <time>2025-01-16T12:59:28Z</time>
      </trkpt>
      <trkpt lat="47.56087" lon="-2.32358">
        <ele>61.1</ele>
        <time>2025-01-16T12:59:29Z</time>
      </trkpt>
      <trkpt lat="47.56088" lon="-2.32357">
        <ele>61.1</ele>
        <time>2025-01-16T12:59:30Z</time>
      </trkpt>
      <trkpt lat="47.56088" lon="-2.32355">
        <ele>61.2</ele>
        <time>2025-01-16T12:59:31Z</time>
      </trkpt>
      <trkpt lat="47.56089" lon="-2.32353">
        <ele>61.3</ele>
        <time>2025-01-16T12:59:32Z</time>
      </trkpt>
      <trkpt lat="47.5609" lon="-2.32352">
        <ele>61.3</ele>
        <time>2025-01-16T12:59:33Z</time>
      </trkpt>
      <trkpt lat="47.5609" lon="-2.32351">
        <ele>61.4</ele>
        <time>2025-01-16T12:59:34Z</time>
      </trkpt>
      <trkpt lat="47.56091" lon="-2.32349">
        <ele>61.4</ele>
        <time>2025-01-16T12:59:35Z</time>
      </trkpt>
      <trkpt lat="47.56091" lon="-2.32347">
        <ele>61.5</ele>
        <time>2025-01-16T12:59:36Z</time>
      </trkpt>
      <trkpt lat="47.56092" lon="-2.32346">
        <ele>61.5</ele>
        <time>2025-01-16T12:59:37Z</time>
      </trkpt>
      <trkpt lat="47.56092" lon="-2.32344">
        <ele>61.6</ele>
        <time>2025-01-16T12:59:38Z</time>
      </trkpt>
      <trkpt lat="47.56092" lon="-2.32343">
        <ele>61.7</ele>
        <time>2025-01-16T12:59:39Z</time>
      </trkpt>
      <trkpt lat="47.56093" lon="-2.32341">
        <ele>61.7</ele>
        <time>2025-01-16T12:59:40Z</time>
      </trkpt>
      <trkpt lat="47.56093" lon="-2.3234">
        <ele>61.8</ele>
        <time>2025-01-16T12:59:41Z</time>
      </trkpt>
      <trkpt lat="47.56093" lon="-2.32339">
        <ele>61.8</ele>
        <time>2025-01-16T12:59:42Z</time>
      </trkpt>
      <trkpt lat="47.56093" lon="-2.32337">
        <ele>61.9</ele>
        <time>2025-01-16T12:59:43Z</time>
      </trkpt>
      <trkpt lat="47.56093" lon="-2.32336">
        <ele>61.9</ele>
        <time>2025-01-16T12:59:44Z</time>
      </trkpt>
      <trkpt lat="47.56093" lon="-2.32334">
        <ele>62</ele>
        <time>2025-01-16T12:59:45Z</time>
      </trkpt>
      <trkpt lat="47.56093" lon="-2.32333">
        <ele>62</ele>
        <time>2025-01-16T12:59:46Z</time>
      </trkpt>
      <trkpt lat="47.56094" lon="-2.32332">
        <ele>62</ele>
        <time>2025-01-16T12:59:47Z</time>
      </trkpt>
      <trkpt lat="47.56094" lon="-2.3233">
        <ele>62</ele>
        <time>2025-01-16T12:59:48Z</time>
      </trkpt>
      <trkpt lat="47.56094" lon="-2.32329">
        <ele>62</ele>
        <time>2025-01-16T12:59:49Z</time>
      </trkpt>
      <trkpt lat="47.56095" lon="-2.32327">
        <ele>62</ele>
        <time>2025-01-16T12:59:50Z</time>
      </trkpt>
      <trkpt lat="47.56096" lon="-2.32326">
        <ele>62</ele>
        <time>2025-01-16T12:59:51Z</time>
      </trkpt>
      <trkpt lat="47.56096" lon="-2.32324">
        <ele>62</ele>
        <time>2025-01-16T12:59:52Z</time>
      </trkpt>
      <trkpt lat="47.56096" lon="-2.32323">
        <ele>62</ele>
        <time>2025-01-16T12:59:53Z</time>
      </trkpt>
      <trkpt lat="47.56096" lon="-2.32321">
        <ele>62</ele>
        <time>2025-01-16T12:59:54Z</time>
      </trkpt>
      <trkpt lat="47.56096" lon="-2.32319">
        <ele>62</ele>
        <time>2025-01-16T12:59:55Z</time>
      </trkpt>
      <trkpt lat="47.56096" lon="-2.32317">
        <ele>62</ele>
        <time>2025-01-16T12:59:56Z</time>
      </trkpt>
      <trkpt lat="47.56097" lon="-2.32315">
        <ele>62</ele>
        <time>2025-01-16T12:59:57Z</time>
      </trkpt>
      <trkpt lat="47.56097" lon="-2.32313">
        <ele>62</ele>
        <time>2025-01-16T12:59:58Z</time>
      </trkpt>
      <trkpt lat="47.56097" lon="-2.32311">
        <ele>62</ele>
        <time>2025-01-16T12:59:59Z</time>
      </trkpt>
      <trkpt lat="47.56097" lon="-2.32309">
        <ele>62</ele>
        <time>2025-01-16T13:00:00Z</time>
      </trkpt>
      <trkpt lat="47.56097" lon="-2.32308">
        <ele>62</ele>
        <time>2025-01-16T13:00:01Z</time>
      </trkpt>
      <trkpt lat="47.56097" lon="-2.32306">
        <ele>62</ele>
        <time>2025-01-16T13:00:02Z</time>
      </trkpt>
      <trkpt lat="47.56097" lon="-2.32304">
        <ele>62</ele>
        <time>2025-01-16T13:00:03Z</time>
      </trkpt>
      <trkpt lat="47.56097" lon="-2.32302">
        <ele>62</ele>
        <time>2025-01-16T13:00:04Z</time>
      </trkpt>
      <trkpt lat="47.56097" lon="-2.32299">
        <ele>62</ele>
        <time>2025-01-16T13:00:05Z</time>
      </trkpt>
      <trkpt lat="47.56097" lon="-2.32297">
        <ele>62</ele>
        <time>2025-01-16T13:00:06Z</time>
      </trkpt>
      <trkpt lat="47.56096" lon="-2.32295">
        <ele>62</ele>
        <time>2025-01-16T13:00:07Z</time>
      </trkpt>
      <trkpt lat="47.56096" lon="-2.32293">
        <ele>62</ele>
        <time>2025-01-16T13:00:08Z</time>
      </trkpt>
      <trkpt lat="47.56097" lon="-2.32292">
        <ele>62</ele>
        <time>2025-01-16T13:00:09Z</time>
      </trkpt>
      <trkpt lat="47.56097" lon="-2.3229">
        <ele>62</ele>
        <time>2025-01-16T13:00:10Z</time>
      </trkpt>
      <trkpt lat="47.56097" lon="-2.32288">
        <ele>62</ele>
        <time>2025-01-16T13:00:11Z</time>
      </trkpt>
      <trkpt lat="47.56098" lon="-2.32286">
        <ele>62</ele>
        <time>2025-01-16T13:00:12Z</time>
      </trkpt>
      <trkpt lat="47.56098" lon="-2.32285">
        <ele>62</ele>
        <time>2025-01-16T13:00:13Z</time>
      </trkpt>
      <trkpt lat="47.56098" lon="-2.32283">
        <ele>62</ele>
        <time>2025-01-16T13:00:14Z</time>
      </trkpt>
      <trkpt lat="47.56099" lon="-2.32282">
        <ele>62</ele>
        <time>2025-01-16T13:00:15Z</time>
      </trkpt>
      <trkpt lat="47.56099" lon="-2.3228">
        <ele>62</ele>
        <time>2025-01-16T13:00:16Z</time>
      </trkpt>
      <trkpt lat="47.561" lon="-2.32279">
        <ele>62</ele>
        <time>2025-01-16T13:00:17Z</time>
      </trkpt>
      <trkpt lat="47.561" lon="-2.32277">
        <ele>62</ele>
        <time>2025-01-16T13:00:18Z</time>
      </trkpt>
      <trkpt lat="47.56101" lon="-2.32275">
        <ele>62</ele>
        <time>2025-01-16T13:00:19Z</time>
      </trkpt>
      <trkpt lat="47.56101" lon="-2.32273">
        <ele>62</ele>
        <time>2025-01-16T13:00:20Z</time>
      </trkpt>
      <trkpt lat="47.56102" lon="-2.32272">
        <ele>62</ele>
        <time>2025-01-16T13:00:21Z</time>
      </trkpt>
      <trkpt lat="47.56102" lon="-2.3227">
        <ele>62</ele>
        <time>2025-01-16T13:00:22Z</time>
      </trkpt>
      <trkpt lat="47.56103" lon="-2.32269">
        <ele>62</ele>
        <time>2025-01-16T13:00:23Z</time>
      </trkpt>
      <trkpt lat="47.56103" lon="-2.32268">
        <ele>62</ele>
        <time>2025-01-16T13:00:24Z</time>
      </trkpt>
      <trkpt lat="47.56103" lon="-2.32266">
        <ele>62</ele>
        <time>2025-01-16T13:00:25Z</time>
      </trkpt>
      <trkpt lat="47.56103" lon="-2.32265">
        <ele>62</ele>
        <time>2025-01-16T13:00:26Z</time>
      </trkpt>
      <trkpt lat="47.56104" lon="-2.32264">
        <ele>62</ele>
        <time>2025-01-16T13:00:27Z</time>
      </trkpt>
      <trkpt lat="47.56104" lon="-2.32263">
        <ele>62</ele>
        <time>2025-01-16T13:00:28Z</time>
      </trkpt>
      <trkpt lat="47.56104" lon="-2.32261">
        <ele>62</ele>
        <time>2025-01-16T13:00:29Z</time>
      </trkpt>
      <trkpt lat="47.56104" lon="-2.3226">
        <ele>62</ele>
        <time>2025-01-16T13:00:30Z</time>
      </trkpt>
      <trkpt lat="47.56104" lon="-2.32258">
        <ele>62</ele>
        <time>2025-01-16T13:00:31Z</time>
      </trkpt>
      <trkpt lat="47.56104" lon="-2.32257">
        <ele>62</ele>
        <time>2025-01-16T13:00:32Z</time>
      </trkpt>
      <trkpt lat="47.56104" lon="-2.32255">
        <ele>62</ele>
        <time>2025-01-16T13:00:33Z</time>
      </trkpt>
      <trkpt lat="47.56104" lon="-2.32254">
        <ele>62</ele>
        <time>2025-01-16T13:00:34Z</time>
      </trkpt>
      <trkpt lat="47.56103" lon="-2.32252">
        <ele>62</ele>
        <time>2025-01-16T13:00:35Z</time>
      </trkpt>
      <trkpt lat="47.56103" lon="-2.3225">
        <ele>62</ele>
        <time>2025-01-16T13:00:36Z</time>
      </trkpt>
      <trkpt lat="47.56102" lon="-2.32249">
        <ele>62</ele>
        <time>2025-01-16T13:00:37Z</time>
      </trkpt>
      <trkpt lat="47.56102" lon="-2.32248">
        <ele>62</ele>
        <time>2025-01-16T13:00:38Z</time>
      </trkpt>
      <trkpt lat="47.56102" lon="-2.32247">
        <ele>62</ele>
        <time>2025-01-16T13:00:39Z</time>
      </trkpt>
      <trkpt lat="47.56102" lon="-2.32245">
        <ele>62</ele>
        <time>2025-01-16T13:00:40Z</time>
      </trkpt>
      <trkpt lat="47.56101" lon="-2.32243">
        <ele>62</ele>
        <time>2025-01-16T13:00:41Z</time>
      </trkpt>
      <trkpt lat="47.56101" lon="-2.32241">
        <ele>62</ele>
        <time>2025-01-16T13:00:42Z</time>
      </trkpt>
      <trkpt lat="47.56101" lon="-2.32239">
        <ele>62</ele>
        <time>2025-01-16T13:00:43Z</time>
      </trkpt>
      <trkpt lat="47.56101" lon="-2.32237">
        <ele>62</ele>
        <time>2025-01-16T13:00:44Z</time>
      </trkpt>
      <trkpt lat="47.56101" lon="-2.32236">
        <ele>62</ele>
        <time>2025-01-16T13:00:45Z</time>
      </trkpt>
      <trkpt lat="47.56101" lon="-2.32234">
        <ele>62</ele>
        <time>2025-01-16T13:00:46Z</time>
      </trkpt>
      <trkpt lat="47.56101" lon="-2.32232">
        <ele>62</ele>
        <time>2025-01-16T13:00:47Z</time>
      </trkpt>
      <trkpt lat="47.561" lon="-2.3223">
        <ele>62</ele>
        <time>2025-01-16T13:00:48Z</time>
      </trkpt>
      <trkpt lat="47.561" lon="-2.32228">
        <ele>62</ele>
        <time>2025-01-16T13:00:49Z</time>
      </trkpt>
      <trkpt lat="47.56099" lon="-2.32226">
        <ele>62</ele>
        <time>2025-01-16T13:00:50Z</time>
      </trkpt>
      <trkpt lat="47.56099" lon="-2.32224">
        <ele>62</ele>
        <time>2025-01-16T13:00:51Z</time>
      </trkpt>
      <trkpt lat="47.56098" lon="-2.32223">
        <ele>62</ele>
        <time>2025-01-16T13:00:52Z</time>
      </trkpt>
      <trkpt lat="47.56098" lon="-2.32221">
        <ele>62</ele>
        <time>2025-01-16T13:00:53Z</time>
      </trkpt>
      <trkpt lat="47.56098" lon="-2.3222">
        <ele>62</ele>
        <time>2025-01-16T13:00:54Z</time>
      </trkpt>
      <trkpt lat="47.56097" lon="-2.32218">
        <ele>62.1</ele>
        <time>2025-01-16T13:00:55Z</time>
      </trkpt>
      <trkpt lat="47.56097" lon="-2.32216">
        <ele>62.1</ele>
        <time>2025-01-16T13:00:56Z</time>
      </trkpt>
      <trkpt lat="47.56097" lon="-2.32214">
        <ele>62.2</ele>
        <time>2025-01-16T13:00:57Z</time>
      </trkpt>
      <trkpt lat="47.56097" lon="-2.32213">
        <ele>62.2</ele>
        <time>2025-01-16T13:00:58Z</time>
      </trkpt>
      <trkpt lat="47.56097" lon="-2.32212">
        <ele>62.2</ele>
        <time>2025-01-16T13:00:59Z</time>
      </trkpt>
      <trkpt lat="47.56097" lon="-2.3221">
        <ele>62.2</ele>
        <time>2025-01-16T13:01:00Z</time>
      </trkpt>
      <trkpt lat="47.56097" lon="-2.32208">
        <ele>62.3</ele>
        <time>2025-01-16T13:01:01Z</time>
      </trkpt>
      <trkpt lat="47.56097" lon="-2.32207">
        <ele>62.3</ele>
        <time>2025-01-16T13:01:02Z</time>
      </trkpt>
      <trkpt lat="47.56096" lon="-2.32205">
        <ele>62.3</ele>
        <time>2025-01-16T13:01:03Z</time>
      </trkpt>
      <trkpt lat="47.56096" lon="-2.32204">
        <ele>62.4</ele>
        <time>2025-01-16T13:01:04Z</time>
      </trkpt>
      <trkpt lat="47.56097" lon="-2.32202">
        <ele>62.4</ele>
        <time>2025-01-16T13:01:05Z</time>
      </trkpt>
      <trkpt lat="47.56097" lon="-2.32201">
        <ele>62.4</ele>
        <time>2025-01-16T13:01:06Z</time>
      </trkpt>
      <trkpt lat="47.56098" lon="-2.32201">
        <ele>62.4</ele>
        <time>2025-01-16T13:01:07Z</time>
      </trkpt>
      <trkpt lat="47.56098" lon="-2.322">
        <ele>62.4</ele>
        <time>2025-01-16T13:01:08Z</time>
      </trkpt>
      <trkpt lat="47.56099" lon="-2.32198">
        <ele>62.4</ele>
        <time>2025-01-16T13:01:09Z</time>
      </trkpt>
      <trkpt lat="47.56099" lon="-2.32197">
        <ele>62.4</ele>
        <time>2025-01-16T13:01:10Z</time>
      </trkpt>
      <trkpt lat="47.561" lon="-2.32196">
        <ele>62.4</ele>
        <time>2025-01-16T13:01:11Z</time>
      </trkpt>
      <trkpt lat="47.561" lon="-2.32195">
        <ele>62.4</ele>
        <time>2025-01-16T13:01:12Z</time>
      </trkpt>
      <trkpt lat="47.56101" lon="-2.32194">
        <ele>62.4</ele>
        <time>2025-01-16T13:01:13Z</time>
      </trkpt>
      <trkpt lat="47.56101" lon="-2.32194">
        <ele>62.4</ele>
        <time>2025-01-16T13:01:14Z</time>
      </trkpt>
      <trkpt lat="47.56102" lon="-2.32194">
        <ele>62.3</ele>
        <time>2025-01-16T13:01:15Z</time>
      </trkpt>
      <trkpt lat="47.56103" lon="-2.32194">
        <ele>62.3</ele>
        <time>2025-01-16T13:01:16Z</time>
      </trkpt>
      <trkpt lat="47.56103" lon="-2.32194">
        <ele>62.3</ele>
        <time>2025-01-16T13:01:17Z</time>
      </trkpt>
      <trkpt lat="47.56104" lon="-2.32194">
        <ele>62.3</ele>
        <time>2025-01-16T13:01:18Z</time>
      </trkpt>
      <trkpt lat="47.56104" lon="-2.32194">
        <ele>62.3</ele>
        <time>2025-01-16T13:01:19Z</time>
      </trkpt>
      <trkpt lat="47.56105" lon="-2.32194">
        <ele>62.2</ele>
        <time>2025-01-16T13:01:20Z</time>
      </trkpt>
      <trkpt lat="47.56105" lon="-2.32193">
        <ele>62.2</ele>
        <time>2025-01-16T13:01:21Z</time>
      </trkpt>
      <trkpt lat="47.56105" lon="-2.32193">
        <ele>62.2</ele>
        <time>2025-01-16T13:01:22Z</time>
      </trkpt>
      <trkpt lat="47.56107" lon="-2.32193">
        <ele>62.1</ele>
        <time>2025-01-16T13:01:23Z</time>
      </trkpt>
      <trkpt lat="47.56108" lon="-2.32192">
        <ele>62.1</ele>
        <time>2025-01-16T13:01:24Z</time>
      </trkpt>
      <trkpt lat="47.56109" lon="-2.32192">
        <ele>62.1</ele>
        <time>2025-01-16T13:01:25Z</time>
      </trkpt>
      <trkpt lat="47.56111" lon="-2.32192">
        <ele>62</ele>
        <time>2025-01-16T13:01:26Z</time>
      </trkpt>
      <trkpt lat="47.56113" lon="-2.32192">
        <ele>62</ele>
        <time>2025-01-16T13:01:27Z</time>
      </trkpt>
      <trkpt lat="47.56114" lon="-2.32192">
        <ele>62</ele>
        <time>2025-01-16T13:01:28Z</time>
      </trkpt>
      <trkpt lat="47.56116" lon="-2.32192">
        <ele>62</ele>
        <time>2025-01-16T13:01:29Z</time>
      </trkpt>
      <trkpt lat="47.56117" lon="-2.32192">
        <ele>62</ele>
        <time>2025-01-16T13:01:30Z</time>
      </trkpt>
      <trkpt lat="47.56119" lon="-2.32191">
        <ele>62</ele>
        <time>2025-01-16T13:01:31Z</time>
      </trkpt>
      <trkpt lat="47.5612" lon="-2.3219">
        <ele>62</ele>
        <time>2025-01-16T13:01:32Z</time>
      </trkpt>
      <trkpt lat="47.56121" lon="-2.32189">
        <ele>62</ele>
        <time>2025-01-16T13:01:33Z</time>
      </trkpt>
      <trkpt lat="47.56123" lon="-2.32188">
        <ele>62</ele>
        <time>2025-01-16T13:01:34Z</time>
      </trkpt>
      <trkpt lat="47.56124" lon="-2.32186">
        <ele>62</ele>
        <time>2025-01-16T13:01:35Z</time>
      </trkpt>
      <trkpt lat="47.56125" lon="-2.32184">
        <ele>62</ele>
        <time>2025-01-16T13:01:36Z</time>
      </trkpt>
      <trkpt lat="47.56126" lon="-2.32183">
        <ele>62</ele>
        <time>2025-01-16T13:01:37Z</time>
      </trkpt>
      <trkpt lat="47.56127" lon="-2.32181">
        <ele>62</ele>
        <time>2025-01-16T13:01:38Z</time>
      </trkpt>
      <trkpt lat="47.56128" lon="-2.32179">
        <ele>62</ele>
        <time>2025-01-16T13:01:39Z</time>
      </trkpt>
      <trkpt lat="47.56129" lon="-2.32178">
        <ele>62</ele>
        <time>2025-01-16T13:01:40Z</time>
      </trkpt>
      <trkpt lat="47.5613" lon="-2.32177">
        <ele>62</ele>
        <time>2025-01-16T13:01:41Z</time>
      </trkpt>
      <trkpt lat="47.56131" lon="-2.32176">
        <ele>62</ele>
        <time>2025-01-16T13:01:42Z</time>
      </trkpt>
      <trkpt lat="47.56132" lon="-2.32175">
        <ele>62</ele>
        <time>2025-01-16T13:01:43Z</time>
      </trkpt>
      <trkpt lat="47.56134" lon="-2.32174">
        <ele>62</ele>
        <time>2025-01-16T13:01:44Z</time>
      </trkpt>
      <trkpt lat="47.56135" lon="-2.32172">
        <ele>62</ele>
        <time>2025-01-16T13:01:45Z</time>
      </trkpt>
      <trkpt lat="47.56136" lon="-2.32171">
        <ele>62</ele>
        <time>2025-01-16T13:01:46Z</time>
      </trkpt>
      <trkpt lat="47.56136" lon="-2.3217">
        <ele>62</ele>
        <time>2025-01-16T13:01:47Z</time>
      </trkpt>
      <trkpt lat="47.56137" lon="-2.32169">
        <ele>62</ele>
        <time>2025-01-16T13:01:48Z</time>
      </trkpt>
      <trkpt lat="47.56138" lon="-2.32169">
        <ele>62</ele>
        <time>2025-01-16T13:01:49Z</time>
      </trkpt>
      <trkpt lat="47.56138" lon="-2.3217">
        <ele>62</ele>
        <time>2025-01-16T13:01:50Z</time>
      </trkpt>
      <trkpt lat="47.56139" lon="-2.3217">
        <ele>62</ele>
        <time>2025-01-16T13:01:51Z</time>
      </trkpt>
      <trkpt lat="47.56139" lon="-2.3217">
        <ele>62</ele>
        <time>2025-01-16T13:01:52Z</time>
      </trkpt>
      <trkpt lat="47.5614" lon="-2.3217">
        <ele>62</ele>
        <time>2025-01-16T13:01:53Z</time>
      </trkpt>
      <trkpt lat="47.5614" lon="-2.3217">
        <ele>62</ele>
        <time>2025-01-16T13:01:54Z</time>
      </trkpt>
      <trkpt lat="47.56141" lon="-2.3217">
        <ele>61.9</ele>
        <time>2025-01-16T13:01:55Z</time>
      </trkpt>
      <trkpt lat="47.56141" lon="-2.3217">
        <ele>61.9</ele>
        <time>2025-01-16T13:01:56Z</time>
      </trkpt>
      <trkpt lat="47.56142" lon="-2.3217">
        <ele>61.9</ele>
        <time>2025-01-16T13:01:57Z</time>
      </trkpt>
      <trkpt lat="47.56142" lon="-2.32171">
        <ele>61.9</ele>
        <time>2025-01-16T13:01:58Z</time>
      </trkpt>
      <trkpt lat="47.56143" lon="-2.32171">
        <ele>61.9</ele>
        <time>2025-01-16T13:01:59Z</time>
      </trkpt>
      <trkpt lat="47.56144" lon="-2.32171">
        <ele>61.8</ele>
        <time>2025-01-16T13:02:00Z</time>
      </trkpt>
      <trkpt lat="47.56145" lon="-2.32171">
        <ele>61.8</ele>
        <time>2025-01-16T13:02:01Z</time>
      </trkpt>
      <trkpt lat="47.56145" lon="-2.32171">
        <ele>61.8</ele>
        <time>2025-01-16T13:02:02Z</time>
      </trkpt>
      <trkpt lat="47.56146" lon="-2.32171">
        <ele>61.7</ele>
        <time>2025-01-16T13:02:03Z</time>
      </trkpt>
      <trkpt lat="47.56148" lon="-2.32171">
        <ele>61.7</ele>
        <time>2025-01-16T13:02:04Z</time>
      </trkpt>
      <trkpt lat="47.56149" lon="-2.32171">
        <ele>61.6</ele>
        <time>2025-01-16T13:02:05Z</time>
      </trkpt>
      <trkpt lat="47.5615" lon="-2.32171">
        <ele>61.6</ele>
        <time>2025-01-16T13:02:06Z</time>
      </trkpt>
      <trkpt lat="47.56152" lon="-2.32171">
        <ele>61.5</ele>
        <time>2025-01-16T13:02:07Z</time>
      </trkpt>
      <trkpt lat="47.56153" lon="-2.32171">
        <ele>61.5</ele>
        <time>2025-01-16T13:02:08Z</time>
      </trkpt>
      <trkpt lat="47.56155" lon="-2.32171">
        <ele>61.4</ele>
        <time>2025-01-16T13:02:09Z</time>
      </trkpt>
      <trkpt lat="47.56156" lon="-2.32172">
        <ele>61.4</ele>
        <time>2025-01-16T13:02:10Z</time>
      </trkpt>
      <trkpt lat="47.56158" lon="-2.32172">
        <ele>61.3</ele>
        <time>2025-01-16T13:02:11Z</time>
      </trkpt>
      <trkpt lat="47.5616" lon="-2.32173">
        <ele>61.2</ele>
        <time>2025-01-16T13:02:12Z</time>
      </trkpt>
      <trkpt lat="47.56162" lon="-2.32173">
        <ele>61.2</ele>
        <time>2025-01-16T13:02:13Z</time>
      </trkpt>
      <trkpt lat="47.56163" lon="-2.32172">
        <ele>61.1</ele>
        <time>2025-01-16T13:02:14Z</time>
      </trkpt>
      <trkpt lat="47.56165" lon="-2.32172">
        <ele>61.1</ele>
        <time>2025-01-16T13:02:15Z</time>
      </trkpt>
      <trkpt lat="47.56166" lon="-2.32172">
        <ele>61</ele>
        <time>2025-01-16T13:02:16Z</time>
      </trkpt>
      <trkpt lat="47.56168" lon="-2.32173">
        <ele>60.9</ele>
        <time>2025-01-16T13:02:17Z</time>
      </trkpt>
      <trkpt lat="47.56169" lon="-2.32173">
        <ele>60.8</ele>
        <time>2025-01-16T13:02:18Z</time>
      </trkpt>
      <trkpt lat="47.56171" lon="-2.32174">
        <ele>60.6</ele>
        <time>2025-01-16T13:02:19Z</time>
      </trkpt>
      <trkpt lat="47.56173" lon="-2.32174">
        <ele>60.5</ele>
        <time>2025-01-16T13:02:20Z</time>
      </trkpt>
      <trkpt lat="47.56174" lon="-2.32174">
        <ele>60.4</ele>
        <time>2025-01-16T13:02:21Z</time>
      </trkpt>
      <trkpt lat="47.56176" lon="-2.32174">
        <ele>60.2</ele>
        <time>2025-01-16T13:02:22Z</time>
      </trkpt>
      <trkpt lat="47.56177" lon="-2.32174">
        <ele>60.2</ele>
        <time>2025-01-16T13:02:23Z</time>
      </trkpt>
      <trkpt lat="47.56179" lon="-2.32174">
        <ele>60</ele>
        <time>2025-01-16T13:02:24Z</time>
      </trkpt>
      <trkpt lat="47.5618" lon="-2.32173">
        <ele>59.9</ele>
        <time>2025-01-16T13:02:25Z</time>
      </trkpt>
      <trkpt lat="47.56181" lon="-2.32173">
        <ele>59.9</ele>
        <time>2025-01-16T13:02:26Z</time>
      </trkpt>
      <trkpt lat="47.56182" lon="-2.32173">
        <ele>59.8</ele>
        <time>2025-01-16T13:02:27Z</time>
      </trkpt>
      <trkpt lat="47.56184" lon="-2.32172">
        <ele>59.6</ele>
        <time>2025-01-16T13:02:28Z</time>
      </trkpt>
      <trkpt lat="47.56184" lon="-2.32171">
        <ele>59.7</ele>
        <time>2025-01-16T13:02:29Z</time>
      </trkpt>
      <trkpt lat="47.56186" lon="-2.32169">
        <ele>59.5</ele>
        <time>2025-01-16T13:02:30Z</time>
      </trkpt>
      <trkpt lat="47.56187" lon="-2.32168">
        <ele>59.5</ele>
        <time>2025-01-16T13:02:31Z</time>
      </trkpt>
      <trkpt lat="47.56188" lon="-2.32167">
        <ele>59.5</ele>
        <time>2025-01-16T13:02:32Z</time>
      </trkpt>
      <trkpt lat="47.56188" lon="-2.32165">
        <ele>59.4</ele>
        <time>2025-01-16T13:02:33Z</time>
      </trkpt>
      <trkpt lat="47.56189" lon="-2.32164">
        <ele>59.3</ele>
        <time>2025-01-16T13:02:34Z</time>
      </trkpt>
      <trkpt lat="47.5619" lon="-2.32162">
        <ele>59.2</ele>
        <time>2025-01-16T13:02:35Z</time>
      </trkpt>
      <trkpt lat="47.5619" lon="-2.32161">
        <ele>59.1</ele>
        <time>2025-01-16T13:02:36Z</time>
      </trkpt>
      <trkpt lat="47.56191" lon="-2.3216">
        <ele>59</ele>
        <time>2025-01-16T13:02:37Z</time>
      </trkpt>
      <trkpt lat="47.56191" lon="-2.32158">
        <ele>59</ele>
        <time>2025-01-16T13:02:38Z</time>
      </trkpt>
      <trkpt lat="47.56191" lon="-2.32157">
        <ele>58.9</ele>
        <time>2025-01-16T13:02:39Z</time>
      </trkpt>
      <trkpt lat="47.56192" lon="-2.32156">
        <ele>58.8</ele>
        <time>2025-01-16T13:02:40Z</time>
      </trkpt>
      <trkpt lat="47.56192" lon="-2.32154">
        <ele>58.8</ele>
        <time>2025-01-16T13:02:41Z</time>
      </trkpt>
      <trkpt lat="47.56192" lon="-2.32152">
        <ele>58.7</ele>
        <time>2025-01-16T13:02:42Z</time>
      </trkpt>
      <trkpt lat="47.56192" lon="-2.32151">
        <ele>58.7</ele>
        <time>2025-01-16T13:02:43Z</time>
      </trkpt>
      <trkpt lat="47.56192" lon="-2.3215">
        <ele>58.6</ele>
        <time>2025-01-16T13:02:44Z</time>
      </trkpt>
      <trkpt lat="47.56192" lon="-2.32148">
        <ele>58.6</ele>
        <time>2025-01-16T13:02:45Z</time>
      </trkpt>
      <trkpt lat="47.56192" lon="-2.32146">
        <ele>58.5</ele>
        <time>2025-01-16T13:02:46Z</time>
      </trkpt>
      <trkpt lat="47.56192" lon="-2.32144">
        <ele>58.4</ele>
        <time>2025-01-16T13:02:47Z</time>
      </trkpt>
      <trkpt lat="47.56192" lon="-2.32142">
        <ele>58.4</ele>
        <time>2025-01-16T13:02:48Z</time>
      </trkpt>
      <trkpt lat="47.56191" lon="-2.3214">
        <ele>58.4</ele>
        <time>2025-01-16T13:02:49Z</time>
      </trkpt>
      <trkpt lat="47.56191" lon="-2.32139">
        <ele>58.4</ele>
        <time>2025-01-16T13:02:50Z</time>
      </trkpt>
      <trkpt lat="47.56191" lon="-2.32137">
        <ele>58.4</ele>
        <time>2025-01-16T13:02:51Z</time>
      </trkpt>
      <trkpt lat="47.5619" lon="-2.32134">
        <ele>58.5</ele>
        <time>2025-01-16T13:02:52Z</time>
      </trkpt>
      <trkpt lat="47.5619" lon="-2.32132">
        <ele>58.4</ele>
        <time>2025-01-16T13:02:53Z</time>
      </trkpt>
      <trkpt lat="47.5619" lon="-2.32131">
        <ele>58.4</ele>
        <time>2025-01-16T13:02:54Z</time>
      </trkpt>
      <trkpt lat="47.56189" lon="-2.3213">
        <ele>58.5</ele>
        <time>2025-01-16T13:02:55Z</time>
      </trkpt>
      <trkpt lat="47.56189" lon="-2.32128">
        <ele>58.5</ele>
        <time>2025-01-16T13:02:56Z</time>
      </trkpt>
      <trkpt lat="47.56189" lon="-2.32126">
        <ele>58.5</ele>
        <time>2025-01-16T13:02:57Z</time>
      </trkpt>
      <trkpt lat="47.56189" lon="-2.32124">
        <ele>58.5</ele>
        <time>2025-01-16T13:02:58Z</time>
      </trkpt>
      <trkpt lat="47.56189" lon="-2.32123">
        <ele>58.5</ele>
        <time>2025-01-16T13:02:59Z</time>
      </trkpt>
      <trkpt lat="47.56189" lon="-2.32121">
        <ele>58.5</ele>
        <time>2025-01-16T13:03:00Z</time>
      </trkpt>
      <trkpt lat="47.56189" lon="-2.32119">
        <ele>58.4</ele>
        <time>2025-01-16T13:03:01Z</time>
      </trkpt>
      <trkpt lat="47.56189" lon="-2.32117">
        <ele>58.4</ele>
        <time>2025-01-16T13:03:02Z</time>
      </trkpt>
      <trkpt lat="47.56189" lon="-2.32116">
        <ele>58.4</ele>
        <time>2025-01-16T13:03:03Z</time>
      </trkpt>
      <trkpt lat="47.56189" lon="-2.32114">
        <ele>58.4</ele>
        <time>2025-01-16T13:03:04Z</time>
      </trkpt>
      <trkpt lat="47.56189" lon="-2.32112">
        <ele>58.4</ele>
        <time>2025-01-16T13:03:05Z</time>
      </trkpt>
      <trkpt lat="47.56189" lon="-2.3211">
        <ele>58.4</ele>
        <time>2025-01-16T13:03:06Z</time>
      </trkpt>
      <trkpt lat="47.56188" lon="-2.32107">
        <ele>58.3</ele>
        <time>2025-01-16T13:03:07Z</time>
      </trkpt>
      <trkpt lat="47.56188" lon="-2.32105">
        <ele>58.2</ele>
        <time>2025-01-16T13:03:08Z</time>
      </trkpt>
      <trkpt lat="47.56188" lon="-2.32103">
        <ele>58.2</ele>
        <time>2025-01-16T13:03:09Z</time>
      </trkpt>
      <trkpt lat="47.56187" lon="-2.32101">
        <ele>58.2</ele>
        <time>2025-01-16T13:03:10Z</time>
      </trkpt>
      <trkpt lat="47.56187" lon="-2.32099">
        <ele>58.1</ele>
        <time>2025-01-16T13:03:11Z</time>
      </trkpt>
      <trkpt lat="47.56187" lon="-2.32097">
        <ele>58</ele>
        <time>2025-01-16T13:03:12Z</time>
      </trkpt>
      <trkpt lat="47.56187" lon="-2.32095">
        <ele>58</ele>
        <time>2025-01-16T13:03:13Z</time>
      </trkpt>
      <trkpt lat="47.56187" lon="-2.32094">
        <ele>57.9</ele>
        <time>2025-01-16T13:03:14Z</time>
      </trkpt>
      <trkpt lat="47.56187" lon="-2.32092">
        <ele>57.8</ele>
        <time>2025-01-16T13:03:15Z</time>
      </trkpt>
      <trkpt lat="47.56188" lon="-2.32091">
        <ele>57.7</ele>
        <time>2025-01-16T13:03:16Z</time>
      </trkpt>
      <trkpt lat="47.56188" lon="-2.3209">
        <ele>57.7</ele>
        <time>2025-01-16T13:03:17Z</time>
      </trkpt>
      <trkpt lat="47.56189" lon="-2.32088">
        <ele>57.6</ele>
        <time>2025-01-16T13:03:18Z</time>
      </trkpt>
      <trkpt lat="47.56189" lon="-2.32086">
        <ele>57.5</ele>
        <time>2025-01-16T13:03:19Z</time>
      </trkpt>
      <trkpt lat="47.56189" lon="-2.32084">
        <ele>57.4</ele>
        <time>2025-01-16T13:03:20Z</time>
      </trkpt>
      <trkpt lat="47.56189" lon="-2.32081">
        <ele>57.5</ele>
        <time>2025-01-16T13:03:21Z</time>
      </trkpt>
      <trkpt lat="47.56188" lon="-2.32079">
        <ele>57.6</ele>
        <time>2025-01-16T13:03:22Z</time>
      </trkpt>
      <trkpt lat="47.56188" lon="-2.32076">
        <ele>57.7</ele>
        <time>2025-01-16T13:03:23Z</time>
      </trkpt>
      <trkpt lat="47.56188" lon="-2.32074">
        <ele>57.8</ele>
        <time>2025-01-16T13:03:24Z</time>
      </trkpt>
      <trkpt lat="47.56188" lon="-2.32072">
        <ele>57.9</ele>
        <time>2025-01-16T13:03:25Z</time>
      </trkpt>
      <trkpt lat="47.56188" lon="-2.32069">
        <ele>58</ele>
        <time>2025-01-16T13:03:26Z</time>
      </trkpt>
      <trkpt lat="47.56188" lon="-2.32068">
        <ele>58</ele>
        <time>2025-01-16T13:03:27Z</time>
      </trkpt>
      <trkpt lat="47.56188" lon="-2.32066">
        <ele>58.1</ele>
        <time>2025-01-16T13:03:28Z</time>
      </trkpt>
      <trkpt lat="47.56187" lon="-2.32064">
        <ele>58.2</ele>
        <time>2025-01-16T13:03:29Z</time>
      </trkpt>
      <trkpt lat="47.56187" lon="-2.32062">
        <ele>58.3</ele>
        <time>2025-01-16T13:03:30Z</time>
      </trkpt>
      <trkpt lat="47.56187" lon="-2.3206">
        <ele>58.4</ele>
        <time>2025-01-16T13:03:31Z</time>
      </trkpt>
      <trkpt lat="47.56187" lon="-2.32058">
        <ele>58.4</ele>
        <time>2025-01-16T13:03:32Z</time>
      </trkpt>
      <trkpt lat="47.56186" lon="-2.32055">
        <ele>58.6</ele>
        <time>2025-01-16T13:03:33Z</time>
      </trkpt>
      <trkpt lat="47.56186" lon="-2.32053">
        <ele>58.7</ele>
        <time>2025-01-16T13:03:34Z</time>
      </trkpt>
      <trkpt lat="47.56186" lon="-2.32052">
        <ele>58.7</ele>
        <time>2025-01-16T13:03:35Z</time>
      </trkpt>
      <trkpt lat="47.56186" lon="-2.32051">
        <ele>58.7</ele>
        <time>2025-01-16T13:03:36Z</time>
      </trkpt>
      <trkpt lat="47.56186" lon="-2.32049">
        <ele>58.8</ele>
        <time>2025-01-16T13:03:37Z</time>
      </trkpt>
      <trkpt lat="47.56186" lon="-2.32047">
        <ele>58.8</ele>
        <time>2025-01-16T13:03:38Z</time>
      </trkpt>
      <trkpt lat="47.56186" lon="-2.32046">
        <ele>58.8</ele>
        <time>2025-01-16T13:03:39Z</time>
      </trkpt>
      <trkpt lat="47.56186" lon="-2.32045">
        <ele>58.9</ele>
        <time>2025-01-16T13:03:40Z</time>
      </trkpt>
      <trkpt lat="47.56186" lon="-2.32043">
        <ele>58.9</ele>
        <time>2025-01-16T13:03:41Z</time>
      </trkpt>
      <trkpt lat="47.56186" lon="-2.32042">
        <ele>58.9</ele>
        <time>2025-01-16T13:03:42Z</time>
      </trkpt>
      <trkpt lat="47.56185" lon="-2.3204">
        <ele>59</ele>
        <time>2025-01-16T13:03:43Z</time>
      </trkpt>
      <trkpt lat="47.56185" lon="-2.32038">
        <ele>59.1</ele>
        <time>2025-01-16T13:03:44Z</time>
      </trkpt>
      <trkpt lat="47.56185" lon="-2.32037">
        <ele>59.1</ele>
        <time>2025-01-16T13:03:45Z</time>
      </trkpt>
      <trkpt lat="47.56184" lon="-2.32035">
        <ele>59.2</ele>
        <time>2025-01-16T13:03:46Z</time>
      </trkpt>
      <trkpt lat="47.56184" lon="-2.32033">
        <ele>59.3</ele>
        <time>2025-01-16T13:03:47Z</time>
      </trkpt>
      <trkpt lat="47.56184" lon="-2.32031">
        <ele>59.3</ele>
        <time>2025-01-16T13:03:48Z</time>
      </trkpt>
      <trkpt lat="47.56184" lon="-2.3203">
        <ele>59.3</ele>
        <time>2025-01-16T13:03:49Z</time>
      </trkpt>
      <trkpt lat="47.56184" lon="-2.32028">
        <ele>59.4</ele>
        <time>2025-01-16T13:03:50Z</time>
      </trkpt>
      <trkpt lat="47.56184" lon="-2.32027">
        <ele>59.4</ele>
        <time>2025-01-16T13:03:51Z</time>
      </trkpt>
      <trkpt lat="47.56184" lon="-2.32025">
        <ele>59.4</ele>
        <time>2025-01-16T13:03:52Z</time>
      </trkpt>
      <trkpt lat="47.56184" lon="-2.32023">
        <ele>59.4</ele>
        <time>2025-01-16T13:03:53Z</time>
      </trkpt>
      <trkpt lat="47.56184" lon="-2.32022">
        <ele>59.4</ele>
        <time>2025-01-16T13:03:54Z</time>
      </trkpt>
      <trkpt lat="47.56184" lon="-2.3202">
        <ele>59.4</ele>
        <time>2025-01-16T13:03:55Z</time>
      </trkpt>
      <trkpt lat="47.56183" lon="-2.32018">
        <ele>59.4</ele>
        <time>2025-01-16T13:03:56Z</time>
      </trkpt>
      <trkpt lat="47.56183" lon="-2.32017">
        <ele>59.4</ele>
        <time>2025-01-16T13:03:57Z</time>
      </trkpt>
      <trkpt lat="47.56183" lon="-2.32015">
        <ele>59.4</ele>
        <time>2025-01-16T13:03:58Z</time>
      </trkpt>
      <trkpt lat="47.56183" lon="-2.32013">
        <ele>59.4</ele>
        <time>2025-01-16T13:03:59Z</time>
      </trkpt>
      <trkpt lat="47.56182" lon="-2.32012">
        <ele>59.4</ele>
        <time>2025-01-16T13:04:00Z</time>
      </trkpt>
      <trkpt lat="47.56182" lon="-2.3201">
        <ele>59.4</ele>
        <time>2025-01-16T13:04:01Z</time>
      </trkpt>
      <trkpt lat="47.56182" lon="-2.32008">
        <ele>59.4</ele>
        <time>2025-01-16T13:04:02Z</time>
      </trkpt>
      <trkpt lat="47.56182" lon="-2.32007">
        <ele>59.4</ele>
        <time>2025-01-16T13:04:03Z</time>
      </trkpt>
      <trkpt lat="47.56182" lon="-2.32006">
        <ele>59.4</ele>
        <time>2025-01-16T13:04:04Z</time>
      </trkpt>
      <trkpt lat="47.56182" lon="-2.32004">
        <ele>59.4</ele>
        <time>2025-01-16T13:04:05Z</time>
      </trkpt>
      <trkpt lat="47.56183" lon="-2.32003">
        <ele>59.4</ele>
        <time>2025-01-16T13:04:06Z</time>
      </trkpt>
      <trkpt lat="47.56183" lon="-2.32001">
        <ele>59.4</ele>
        <time>2025-01-16T13:04:07Z</time>
      </trkpt>
      <trkpt lat="47.56183" lon="-2.31999">
        <ele>59.4</ele>
        <time>2025-01-16T13:04:08Z</time>
      </trkpt>
      <trkpt lat="47.56183" lon="-2.31997">
        <ele>59.4</ele>
        <time>2025-01-16T13:04:09Z</time>
      </trkpt>
      <trkpt lat="47.56183" lon="-2.31996">
        <ele>59.4</ele>
        <time>2025-01-16T13:04:10Z</time>
      </trkpt>
      <trkpt lat="47.56182" lon="-2.31994">
        <ele>59.4</ele>
        <time>2025-01-16T13:04:11Z</time>
      </trkpt>
      <trkpt lat="47.56183" lon="-2.31991">
        <ele>59.3</ele>
        <time>2025-01-16T13:04:12Z</time>
      </trkpt>
      <trkpt lat="47.56183" lon="-2.3199">
        <ele>59.3</ele>
        <time>2025-01-16T13:04:13Z</time>
      </trkpt>
      <trkpt lat="47.56183" lon="-2.31988">
        <ele>59.2</ele>
        <time>2025-01-16T13:04:14Z</time>
      </trkpt>
      <trkpt lat="47.56183" lon="-2.31987">
        <ele>59.2</ele>
        <time>2025-01-16T13:04:15Z</time>
      </trkpt>
      <trkpt lat="47.56183" lon="-2.31985">
        <ele>59.2</ele>
        <time>2025-01-16T13:04:16Z</time>
      </trkpt>
      <trkpt lat="47.56182" lon="-2.31983">
        <ele>59.2</ele>
        <time>2025-01-16T13:04:17Z</time>
      </trkpt>
      <trkpt lat="47.56182" lon="-2.31981">
        <ele>59.1</ele>
        <time>2025-01-16T13:04:18Z</time>
      </trkpt>
      <trkpt lat="47.56182" lon="-2.31979">
        <ele>59.1</ele>
        <time>2025-01-16T13:04:19Z</time>
      </trkpt>
      <trkpt lat="47.56182" lon="-2.31977">
        <ele>59.1</ele>
        <time>2025-01-16T13:04:20Z</time>
      </trkpt>
      <trkpt lat="47.56182" lon="-2.31976">
        <ele>59.1</ele>
        <time>2025-01-16T13:04:21Z</time>
      </trkpt>
      <trkpt lat="47.56182" lon="-2.31974">
        <ele>59</ele>
        <time>2025-01-16T13:04:22Z</time>
      </trkpt>
      <trkpt lat="47.56181" lon="-2.31972">
        <ele>59</ele>
        <time>2025-01-16T13:04:23Z</time>
      </trkpt>
      <trkpt lat="47.56181" lon="-2.31969">
        <ele>59</ele>
        <time>2025-01-16T13:04:24Z</time>
      </trkpt>
      <trkpt lat="47.56181" lon="-2.31967">
        <ele>59</ele>
        <time>2025-01-16T13:04:25Z</time>
      </trkpt>
      <trkpt lat="47.56181" lon="-2.31965">
        <ele>59</ele>
        <time>2025-01-16T13:04:26Z</time>
      </trkpt>
      <trkpt lat="47.56181" lon="-2.31963">
        <ele>59</ele>
        <time>2025-01-16T13:04:27Z</time>
      </trkpt>
      <trkpt lat="47.56182" lon="-2.31962">
        <ele>59</ele>
        <time>2025-01-16T13:04:28Z</time>
      </trkpt>
      <trkpt lat="47.56182" lon="-2.3196">
        <ele>59</ele>
        <time>2025-01-16T13:04:29Z</time>
      </trkpt>
      <trkpt lat="47.56182" lon="-2.31959">
        <ele>59</ele>
        <time>2025-01-16T13:04:30Z</time>
      </trkpt>
      <trkpt lat="47.56182" lon="-2.31957">
        <ele>59</ele>
        <time>2025-01-16T13:04:31Z</time>
      </trkpt>
      <trkpt lat="47.56181" lon="-2.31955">
        <ele>59</ele>
        <time>2025-01-16T13:04:32Z</time>
      </trkpt>
      <trkpt lat="47.56181" lon="-2.31953">
        <ele>59</ele>
        <time>2025-01-16T13:04:33Z</time>
      </trkpt>
      <trkpt lat="47.56181" lon="-2.31952">
        <ele>59</ele>
        <time>2025-01-16T13:04:34Z</time>
      </trkpt>
      <trkpt lat="47.56181" lon="-2.31949">
        <ele>59</ele>
        <time>2025-01-16T13:04:35Z</time>
      </trkpt>
      <trkpt lat="47.56181" lon="-2.31947">
        <ele>59</ele>
        <time>2025-01-16T13:04:36Z</time>
      </trkpt>
      <trkpt lat="47.5618" lon="-2.31944">
        <ele>59</ele>
        <time>2025-01-16T13:04:37Z</time>
      </trkpt>
      <trkpt lat="47.5618" lon="-2.31942">
        <ele>59</ele>
        <time>2025-01-16T13:04:38Z</time>
      </trkpt>
      <trkpt lat="47.5618" lon="-2.3194">
        <ele>58.9</ele>
        <time>2025-01-16T13:04:39Z</time>
      </trkpt>
      <trkpt lat="47.5618" lon="-2.31938">
        <ele>58.9</ele>
        <time>2025-01-16T13:04:40Z</time>
      </trkpt>
      <trkpt lat="47.56179" lon="-2.31936">
        <ele>58.9</ele>
        <time>2025-01-16T13:04:41Z</time>
      </trkpt>
      <trkpt lat="47.56179" lon="-2.31934">
        <ele>58.8</ele>
        <time>2025-01-16T13:04:42Z</time>
      </trkpt>
      <trkpt lat="47.56179" lon="-2.31932">
        <ele>58.8</ele>
        <time>2025-01-16T13:04:43Z</time>
      </trkpt>
      <trkpt lat="47.56179" lon="-2.3193">
        <ele>58.8</ele>
        <time>2025-01-16T13:04:44Z</time>
      </trkpt>
      <trkpt lat="47.56178" lon="-2.31928">
        <ele>58.8</ele>
        <time>2025-01-16T13:04:45Z</time>
      </trkpt>
      <trkpt lat="47.56178" lon="-2.31926">
        <ele>58.7</ele>
        <time>2025-01-16T13:04:46Z</time>
      </trkpt>
      <trkpt lat="47.56178" lon="-2.31924">
        <ele>58.7</ele>
        <time>2025-01-16T13:04:47Z</time>
      </trkpt>
      <trkpt lat="47.56177" lon="-2.31923">
        <ele>58.7</ele>
        <time>2025-01-16T13:04:48Z</time>
      </trkpt>
      <trkpt lat="47.56177" lon="-2.31921">
        <ele>58.7</ele>
        <time>2025-01-16T13:04:49Z</time>
      </trkpt>
      <trkpt lat="47.56177" lon="-2.3192">
        <ele>58.7</ele>
        <time>2025-01-16T13:04:50Z</time>
      </trkpt>
      <trkpt lat="47.56177" lon="-2.31918">
        <ele>58.6</ele>
        <time>2025-01-16T13:04:51Z</time>
      </trkpt>
      <trkpt lat="47.56177" lon="-2.31916">
        <ele>58.6</ele>
        <time>2025-01-16T13:04:52Z</time>
      </trkpt>
      <trkpt lat="47.56177" lon="-2.31914">
        <ele>58.6</ele>
        <time>2025-01-16T13:04:53Z</time>
      </trkpt>
      <trkpt lat="47.56177" lon="-2.31913">
        <ele>58.5</ele>
        <time>2025-01-16T13:04:54Z</time>
      </trkpt>
      <trkpt lat="47.56178" lon="-2.31912">
        <ele>58.5</ele>
        <time>2025-01-16T13:04:55Z</time>
      </trkpt>
      <trkpt lat="47.56178" lon="-2.31911">
        <ele>58.5</ele>
        <time>2025-01-16T13:04:56Z</time>
      </trkpt>
      <trkpt lat="47.56178" lon="-2.31909">
        <ele>58.4</ele>
        <time>2025-01-16T13:04:57Z</time>
      </trkpt>
      <trkpt lat="47.56179" lon="-2.31907">
        <ele>58.4</ele>
        <time>2025-01-16T13:04:58Z</time>
      </trkpt>
      <trkpt lat="47.56179" lon="-2.31905">
        <ele>58.3</ele>
        <time>2025-01-16T13:04:59Z</time>
      </trkpt>
      <trkpt lat="47.56179" lon="-2.31903">
        <ele>58.3</ele>
        <time>2025-01-16T13:05:00Z</time>
      </trkpt>
      <trkpt lat="47.56179" lon="-2.31901">
        <ele>58.2</ele>
        <time>2025-01-16T13:05:01Z</time>
      </trkpt>
      <trkpt lat="47.5618" lon="-2.31899">
        <ele>58.2</ele>
        <time>2025-01-16T13:05:02Z</time>
      </trkpt>
      <trkpt lat="47.5618" lon="-2.31898">
        <ele>58.2</ele>
        <time>2025-01-16T13:05:03Z</time>
      </trkpt>
      <trkpt lat="47.56181" lon="-2.31897">
        <ele>58.1</ele>
        <time>2025-01-16T13:05:04Z</time>
      </trkpt>
      <trkpt lat="47.56182" lon="-2.31896">
        <ele>58.1</ele>
        <time>2025-01-16T13:05:05Z</time>
      </trkpt>
      <trkpt lat="47.56183" lon="-2.31895">
        <ele>58.1</ele>
        <time>2025-01-16T13:05:06Z</time>
      </trkpt>
      <trkpt lat="47.56184" lon="-2.31894">
        <ele>58.1</ele>
        <time>2025-01-16T13:05:07Z</time>
      </trkpt>
      <trkpt lat="47.56185" lon="-2.31893">
        <ele>58.1</ele>
        <time>2025-01-16T13:05:08Z</time>
      </trkpt>
      <trkpt lat="47.56186" lon="-2.31893">
        <ele>58</ele>
        <time>2025-01-16T13:05:09Z</time>
      </trkpt>
      <trkpt lat="47.56187" lon="-2.31892">
        <ele>58</ele>
        <time>2025-01-16T13:05:10Z</time>
      </trkpt>
      <trkpt lat="47.56188" lon="-2.31891">
        <ele>58</ele>
        <time>2025-01-16T13:05:11Z</time>
      </trkpt>
      <trkpt lat="47.56189" lon="-2.3189">
        <ele>58</ele>
        <time>2025-01-16T13:05:12Z</time>
      </trkpt>
      <trkpt lat="47.5619" lon="-2.3189">
        <ele>58</ele>
        <time>2025-01-16T13:05:13Z</time>
      </trkpt>
      <trkpt lat="47.56191" lon="-2.3189">
        <ele>58</ele>
        <time>2025-01-16T13:05:14Z</time>
      </trkpt>
      <trkpt lat="47.56193" lon="-2.3189">
        <ele>58</ele>
        <time>2025-01-16T13:05:15Z</time>
      </trkpt>
      <trkpt lat="47.56194" lon="-2.31891">
        <ele>58</ele>
        <time>2025-01-16T13:05:16Z</time>
      </trkpt>
      <trkpt lat="47.56195" lon="-2.31892">
        <ele>58</ele>
        <time>2025-01-16T13:05:17Z</time>
      </trkpt>
      <trkpt lat="47.56196" lon="-2.31892">
        <ele>58</ele>
        <time>2025-01-16T13:05:18Z</time>
      </trkpt>
      <trkpt lat="47.56197" lon="-2.31893">
        <ele>58</ele>
        <time>2025-01-16T13:05:19Z</time>
      </trkpt>
      <trkpt lat="47.56198" lon="-2.31893">
        <ele>58</ele>
        <time>2025-01-16T13:05:20Z</time>
      </trkpt>
      <trkpt lat="47.56199" lon="-2.31894">
        <ele>58</ele>
        <time>2025-01-16T13:05:21Z</time>
      </trkpt>
      <trkpt lat="47.562" lon="-2.31894">
        <ele>58</ele>
        <time>2025-01-16T13:05:22Z</time>
      </trkpt>
      <trkpt lat="47.56201" lon="-2.31894">
        <ele>58</ele>
        <time>2025-01-16T13:05:23Z</time>
      </trkpt>
      <trkpt lat="47.56203" lon="-2.31895">
        <ele>58.1</ele>
        <time>2025-01-16T13:05:24Z</time>
      </trkpt>
      <trkpt lat="47.56204" lon="-2.31895">
        <ele>58.1</ele>
        <time>2025-01-16T13:05:25Z</time>
      </trkpt>
      <trkpt lat="47.56205" lon="-2.31895">
        <ele>58.1</ele>
        <time>2025-01-16T13:05:26Z</time>
      </trkpt>
      <trkpt lat="47.56206" lon="-2.31895">
        <ele>58.1</ele>
        <time>2025-01-16T13:05:27Z</time>
      </trkpt>
      <trkpt lat="47.56207" lon="-2.31895">
        <ele>58.1</ele>
        <time>2025-01-16T13:05:28Z</time>
      </trkpt>
      <trkpt lat="47.56208" lon="-2.31896">
        <ele>58.1</ele>
        <time>2025-01-16T13:05:29Z</time>
      </trkpt>
      <trkpt lat="47.56209" lon="-2.31896">
        <ele>58.1</ele>
        <time>2025-01-16T13:05:30Z</time>
      </trkpt>
      <trkpt lat="47.5621" lon="-2.31896">
        <ele>58.1</ele>
        <time>2025-01-16T13:05:31Z</time>
      </trkpt>
      <trkpt lat="47.56211" lon="-2.31896">
        <ele>58.2</ele>
        <time>2025-01-16T13:05:32Z</time>
      </trkpt>
      <trkpt lat="47.56212" lon="-2.31896">
        <ele>58.2</ele>
        <time>2025-01-16T13:05:33Z</time>
      </trkpt>
      <trkpt lat="47.56214" lon="-2.31897">
        <ele>58.2</ele>
        <time>2025-01-16T13:05:34Z</time>
      </trkpt>
      <trkpt lat="47.56215" lon="-2.31897">
        <ele>58.2</ele>
        <time>2025-01-16T13:05:35Z</time>
      </trkpt>
      <trkpt lat="47.56216" lon="-2.31897">
        <ele>58.2</ele>
        <time>2025-01-16T13:05:36Z</time>
      </trkpt>
      <trkpt lat="47.56217" lon="-2.31898">
        <ele>58.3</ele>
        <time>2025-01-16T13:05:37Z</time>
      </trkpt>
      <trkpt lat="47.56218" lon="-2.31899">
        <ele>58.3</ele>
        <time>2025-01-16T13:05:38Z</time>
      </trkpt>
      <trkpt lat="47.56219" lon="-2.31899">
        <ele>58.3</ele>
        <time>2025-01-16T13:05:39Z</time>
      </trkpt>
      <trkpt lat="47.5622" lon="-2.319">
        <ele>58.4</ele>
        <time>2025-01-16T13:05:40Z</time>
      </trkpt>
      <trkpt lat="47.56222" lon="-2.31901">
        <ele>58.4</ele>
        <time>2025-01-16T13:05:41Z</time>
      </trkpt>
      <trkpt lat="47.56223" lon="-2.31901">
        <ele>58.5</ele>
        <time>2025-01-16T13:05:42Z</time>
      </trkpt>
      <trkpt lat="47.56225" lon="-2.31901">
        <ele>58.5</ele>
        <time>2025-01-16T13:05:43Z</time>
      </trkpt>
      <trkpt lat="47.56227" lon="-2.319">
        <ele>58.5</ele>
        <time>2025-01-16T13:05:44Z</time>
      </trkpt>
      <trkpt lat="47.56229" lon="-2.319">
        <ele>58.5</ele>
        <time>2025-01-16T13:05:45Z</time>
      </trkpt>
      <trkpt lat="47.5623" lon="-2.31899">
        <ele>58.5</ele>
        <time>2025-01-16T13:05:46Z</time>
      </trkpt>
      <trkpt lat="47.56232" lon="-2.31899">
        <ele>58.6</ele>
        <time>2025-01-16T13:05:47Z</time>
      </trkpt>
      <trkpt lat="47.56233" lon="-2.31898">
        <ele>58.6</ele>
        <time>2025-01-16T13:05:48Z</time>
      </trkpt>
      <trkpt lat="47.56234" lon="-2.31898">
        <ele>58.6</ele>
        <time>2025-01-16T13:05:49Z</time>
      </trkpt>
      <trkpt lat="47.56235" lon="-2.31897">
        <ele>58.6</ele>
        <time>2025-01-16T13:05:50Z</time>
      </trkpt>
      <trkpt lat="47.56236" lon="-2.31896">
        <ele>58.6</ele>
        <time>2025-01-16T13:05:51Z</time>
      </trkpt>
      <trkpt lat="47.56237" lon="-2.31894">
        <ele>58.6</ele>
        <time>2025-01-16T13:05:52Z</time>
      </trkpt>
      <trkpt lat="47.56237" lon="-2.31892">
        <ele>58.6</ele>
        <time>2025-01-16T13:05:53Z</time>
      </trkpt>
      <trkpt lat="47.56237" lon="-2.3189">
        <ele>58.6</ele>
        <time>2025-01-16T13:05:54Z</time>
      </trkpt>
      <trkpt lat="47.56237" lon="-2.31888">
        <ele>58.5</ele>
        <time>2025-01-16T13:05:55Z</time>
      </trkpt>
      <trkpt lat="47.56237" lon="-2.31887">
        <ele>58.5</ele>
        <time>2025-01-16T13:05:56Z</time>
      </trkpt>
      <trkpt lat="47.56237" lon="-2.31885">
        <ele>58.5</ele>
        <time>2025-01-16T13:05:57Z</time>
      </trkpt>
      <trkpt lat="47.56237" lon="-2.31885">
        <ele>58.5</ele>
        <time>2025-01-16T13:05:58Z</time>
      </trkpt>
      <trkpt lat="47.56237" lon="-2.31884">
        <ele>58.4</ele>
        <time>2025-01-16T13:05:59Z</time>
      </trkpt>
      <trkpt lat="47.56237" lon="-2.31882">
        <ele>58.4</ele>
        <time>2025-01-16T13:06:00Z</time>
      </trkpt>
      <trkpt lat="47.56237" lon="-2.3188">
        <ele>58.4</ele>
        <time>2025-01-16T13:06:01Z</time>
      </trkpt>
      <trkpt lat="47.56237" lon="-2.31878">
        <ele>58.3</ele>
        <time>2025-01-16T13:06:02Z</time>
      </trkpt>
      <trkpt lat="47.56237" lon="-2.31877">
        <ele>58.3</ele>
        <time>2025-01-16T13:06:03Z</time>
      </trkpt>
      <trkpt lat="47.56237" lon="-2.31875">
        <ele>58.3</ele>
        <time>2025-01-16T13:06:04Z</time>
      </trkpt>
      <trkpt lat="47.56238" lon="-2.31872">
        <ele>58.2</ele>
        <time>2025-01-16T13:06:05Z</time>
      </trkpt>
      <trkpt lat="47.56238" lon="-2.31871">
        <ele>58.2</ele>
        <time>2025-01-16T13:06:06Z</time>
      </trkpt>
      <trkpt lat="47.56238" lon="-2.31869">
        <ele>58.2</ele>
        <time>2025-01-16T13:06:07Z</time>
      </trkpt>
      <trkpt lat="47.56237" lon="-2.31868">
        <ele>58.1</ele>
        <time>2025-01-16T13:06:08Z</time>
      </trkpt>
      <trkpt lat="47.56237" lon="-2.31866">
        <ele>58.1</ele>
        <time>2025-01-16T13:06:09Z</time>
      </trkpt>
      <trkpt lat="47.56237" lon="-2.31865">
        <ele>58.1</ele>
        <time>2025-01-16T13:06:10Z</time>
      </trkpt>
      <trkpt lat="47.56237" lon="-2.31863">
        <ele>58</ele>
        <time>2025-01-16T13:06:11Z</time>
      </trkpt>
      <trkpt lat="47.56237" lon="-2.31861">
        <ele>58</ele>
        <time>2025-01-16T13:06:12Z</time>
      </trkpt>
      <trkpt lat="47.56237" lon="-2.31859">
        <ele>57.9</ele>
        <time>2025-01-16T13:06:13Z</time>
      </trkpt>
      <trkpt lat="47.56237" lon="-2.31857">
        <ele>57.9</ele>
        <time>2025-01-16T13:06:14Z</time>
      </trkpt>
      <trkpt lat="47.56237" lon="-2.31856">
        <ele>57.8</ele>
        <time>2025-01-16T13:06:15Z</time>
      </trkpt>
      <trkpt lat="47.56237" lon="-2.31855">
        <ele>57.8</ele>
        <time>2025-01-16T13:06:16Z</time>
      </trkpt>
      <trkpt lat="47.56236" lon="-2.31854">
        <ele>57.7</ele>
        <time>2025-01-16T13:06:17Z</time>
      </trkpt>
      <trkpt lat="47.56236" lon="-2.31853">
        <ele>57.7</ele>
        <time>2025-01-16T13:06:18Z</time>
      </trkpt>
      <trkpt lat="47.56236" lon="-2.31853">
        <ele>57.7</ele>
        <time>2025-01-16T13:06:19Z</time>
      </trkpt>
      <trkpt lat="47.56236" lon="-2.31853">
        <ele>57.7</ele>
        <time>2025-01-16T13:06:20Z</time>
      </trkpt>
      <trkpt lat="47.56235" lon="-2.31852">
        <ele>57.7</ele>
        <time>2025-01-16T13:06:21Z</time>
      </trkpt>
      <trkpt lat="47.56235" lon="-2.31852">
        <ele>57.7</ele>
        <time>2025-01-16T13:06:22Z</time>
      </trkpt>
      <trkpt lat="47.56235" lon="-2.31853">
        <ele>57.7</ele>
        <time>2025-01-16T13:06:23Z</time>
      </trkpt>
      <trkpt lat="47.56235" lon="-2.31853">
        <ele>57.7</ele>
        <time>2025-01-16T13:06:24Z</time>
      </trkpt>
      <trkpt lat="47.56235" lon="-2.31853">
        <ele>57.7</ele>
        <time>2025-01-16T13:06:25Z</time>
      </trkpt>
      <trkpt lat="47.56235" lon="-2.31854">
        <ele>57.7</ele>
        <time>2025-01-16T13:06:26Z</time>
      </trkpt>
      <trkpt lat="47.56235" lon="-2.31854">
        <ele>57.7</ele>
        <time>2025-01-16T13:06:27Z</time>
      </trkpt>
      <trkpt lat="47.56235" lon="-2.31854">
        <ele>57.7</ele>
        <time>2025-01-16T13:06:28Z</time>
      </trkpt>
      <trkpt lat="47.56235" lon="-2.31854">
        <ele>57.7</ele>
        <time>2025-01-16T13:06:29Z</time>
      </trkpt>
      <trkpt lat="47.56235" lon="-2.31854">
        <ele>57.7</ele>
        <time>2025-01-16T13:06:30Z</time>
      </trkpt>
      <trkpt lat="47.56235" lon="-2.31854">
        <ele>57.7</ele>
        <time>2025-01-16T13:06:31Z</time>
      </trkpt>
      <trkpt lat="47.56234" lon="-2.31854">
        <ele>57.7</ele>
        <time>2025-01-16T13:06:32Z</time>
      </trkpt>
      <trkpt lat="47.56234" lon="-2.31854">
        <ele>57.7</ele>
        <time>2025-01-16T13:06:33Z</time>
      </trkpt>
      <trkpt lat="47.56235" lon="-2.31853">
        <ele>57.7</ele>
        <time>2025-01-16T13:06:34Z</time>
      </trkpt>
      <trkpt lat="47.56235" lon="-2.31853">
        <ele>57.7</ele>
        <time>2025-01-16T13:06:35Z</time>
      </trkpt>
      <trkpt lat="47.56235" lon="-2.31853">
        <ele>57.7</ele>
        <time>2025-01-16T13:06:36Z</time>
      </trkpt>
      <trkpt lat="47.56235" lon="-2.31853">
        <ele>57.7</ele>
        <time>2025-01-16T13:06:37Z</time>
      </trkpt>
      <trkpt lat="47.56234" lon="-2.31852">
        <ele>57.7</ele>
        <time>2025-01-16T13:06:38Z</time>
      </trkpt>
      <trkpt lat="47.56234" lon="-2.31852">
        <ele>57.7</ele>
        <time>2025-01-16T13:06:39Z</time>
      </trkpt>
      <trkpt lat="47.56234" lon="-2.31852">
        <ele>57.7</ele>
        <time>2025-01-16T13:06:40Z</time>
      </trkpt>
      <trkpt lat="47.56234" lon="-2.31852">
        <ele>57.7</ele>
        <time>2025-01-16T13:06:41Z</time>
      </trkpt>
      <trkpt lat="47.56234" lon="-2.31852">
        <ele>57.7</ele>
        <time>2025-01-16T13:06:42Z</time>
      </trkpt>
      <trkpt lat="47.56234" lon="-2.31852">
        <ele>57.7</ele>
        <time>2025-01-16T13:06:43Z</time>
      </trkpt>
      <trkpt lat="47.56234" lon="-2.31852">
        <ele>57.7</ele>
        <time>2025-01-16T13:06:44Z</time>
      </trkpt>
      <trkpt lat="47.56234" lon="-2.31852">
        <ele>57.7</ele>
        <time>2025-01-16T13:06:45Z</time>
      </trkpt>
      <trkpt lat="47.56234" lon="-2.31852">
        <ele>57.7</ele>
        <time>2025-01-16T13:06:46Z</time>
      </trkpt>
      <trkpt lat="47.56234" lon="-2.31852">
        <ele>57.7</ele>
        <time>2025-01-16T13:06:47Z</time>
      </trkpt>
      <trkpt lat="47.56234" lon="-2.31852">
        <ele>57.7</ele>
        <time>2025-01-16T13:06:48Z</time>
      </trkpt>
      <trkpt lat="47.56234" lon="-2.31852">
        <ele>57.7</ele>
        <time>2025-01-16T13:06:49Z</time>
      </trkpt>
      <trkpt lat="47.56233" lon="-2.31852">
        <ele>57.7</ele>
        <time>2025-01-16T13:06:50Z</time>
      </trkpt>
      <trkpt lat="47.56234" lon="-2.31852">
        <ele>57.7</ele>
        <time>2025-01-16T13:06:51Z</time>
      </trkpt>
      <trkpt lat="47.56233" lon="-2.31852">
        <ele>57.7</ele>
        <time>2025-01-16T13:06:52Z</time>
      </trkpt>
      <trkpt lat="47.56234" lon="-2.31853">
        <ele>57.7</ele>
        <time>2025-01-16T13:06:53Z</time>
      </trkpt>
      <trkpt lat="47.56234" lon="-2.31854">
        <ele>57.7</ele>
        <time>2025-01-16T13:06:54Z</time>
      </trkpt>
      <trkpt lat="47.56235" lon="-2.31855">
        <ele>57.8</ele>
        <time>2025-01-16T13:06:55Z</time>
      </trkpt>
      <trkpt lat="47.56235" lon="-2.31856">
        <ele>57.8</ele>
        <time>2025-01-16T13:06:56Z</time>
      </trkpt>
      <trkpt lat="47.56235" lon="-2.31857">
        <ele>57.9</ele>
        <time>2025-01-16T13:06:57Z</time>
      </trkpt>
      <trkpt lat="47.56235" lon="-2.31858">
        <ele>57.9</ele>
        <time>2025-01-16T13:06:58Z</time>
      </trkpt>
      <trkpt lat="47.56235" lon="-2.31859">
        <ele>57.9</ele>
        <time>2025-01-16T13:06:59Z</time>
      </trkpt>
      <trkpt lat="47.56235" lon="-2.31861">
        <ele>58</ele>
        <time>2025-01-16T13:07:00Z</time>
      </trkpt>
      <trkpt lat="47.56235" lon="-2.31863">
        <ele>58</ele>
        <time>2025-01-16T13:07:01Z</time>
      </trkpt>
      <trkpt lat="47.56236" lon="-2.31864">
        <ele>58.1</ele>
        <time>2025-01-16T13:07:02Z</time>
      </trkpt>
      <trkpt lat="47.56236" lon="-2.31866">
        <ele>58.1</ele>
        <time>2025-01-16T13:07:03Z</time>
      </trkpt>
      <trkpt lat="47.56237" lon="-2.31868">
        <ele>58.1</ele>
        <time>2025-01-16T13:07:04Z</time>
      </trkpt>
      <trkpt lat="47.56237" lon="-2.31869">
        <ele>58.2</ele>
        <time>2025-01-16T13:07:05Z</time>
      </trkpt>
      <trkpt lat="47.56238" lon="-2.31871">
        <ele>58.2</ele>
        <time>2025-01-16T13:07:06Z</time>
      </trkpt>
      <trkpt lat="47.56239" lon="-2.31872">
        <ele>58.2</ele>
        <time>2025-01-16T13:07:07Z</time>
      </trkpt>
      <trkpt lat="47.56239" lon="-2.31873">
        <ele>58.3</ele>
        <time>2025-01-16T13:07:08Z</time>
      </trkpt>
      <trkpt lat="47.56239" lon="-2.31875">
        <ele>58.3</ele>
        <time>2025-01-16T13:07:09Z</time>
      </trkpt>
      <trkpt lat="47.56239" lon="-2.31877">
        <ele>58.3</ele>
        <time>2025-01-16T13:07:10Z</time>
      </trkpt>
      <trkpt lat="47.56239" lon="-2.31879">
        <ele>58.4</ele>
        <time>2025-01-16T13:07:11Z</time>
      </trkpt>
      <trkpt lat="47.56239" lon="-2.3188">
        <ele>58.4</ele>
        <time>2025-01-16T13:07:12Z</time>
      </trkpt>
      <trkpt lat="47.56239" lon="-2.31882">
        <ele>58.5</ele>
        <time>2025-01-16T13:07:13Z</time>
      </trkpt>
      <trkpt lat="47.56239" lon="-2.31885">
        <ele>58.5</ele>
        <time>2025-01-16T13:07:14Z</time>
      </trkpt>
      <trkpt lat="47.56238" lon="-2.31886">
        <ele>58.5</ele>
        <time>2025-01-16T13:07:15Z</time>
      </trkpt>
      <trkpt lat="47.56238" lon="-2.31889">
        <ele>58.6</ele>
        <time>2025-01-16T13:07:16Z</time>
      </trkpt>
      <trkpt lat="47.56238" lon="-2.31891">
        <ele>58.6</ele>
        <time>2025-01-16T13:07:17Z</time>
      </trkpt>
      <trkpt lat="47.56238" lon="-2.31893">
        <ele>58.6</ele>
        <time>2025-01-16T13:07:18Z</time>
      </trkpt>
      <trkpt lat="47.56237" lon="-2.31894">
        <ele>58.6</ele>
        <time>2025-01-16T13:07:19Z</time>
      </trkpt>
      <trkpt lat="47.56237" lon="-2.31896">
        <ele>58.7</ele>
        <time>2025-01-16T13:07:20Z</time>
      </trkpt>
      <trkpt lat="47.56236" lon="-2.31898">
        <ele>58.7</ele>
        <time>2025-01-16T13:07:21Z</time>
      </trkpt>
      <trkpt lat="47.56235" lon="-2.319">
        <ele>58.7</ele>
        <time>2025-01-16T13:07:22Z</time>
      </trkpt>
      <trkpt lat="47.56234" lon="-2.31901">
        <ele>58.7</ele>
        <time>2025-01-16T13:07:23Z</time>
      </trkpt>
      <trkpt lat="47.56233" lon="-2.31901">
        <ele>58.7</ele>
        <time>2025-01-16T13:07:24Z</time>
      </trkpt>
      <trkpt lat="47.56232" lon="-2.31901">
        <ele>58.6</ele>
        <time>2025-01-16T13:07:25Z</time>
      </trkpt>
      <trkpt lat="47.56231" lon="-2.31901">
        <ele>58.6</ele>
        <time>2025-01-16T13:07:26Z</time>
      </trkpt>
      <trkpt lat="47.5623" lon="-2.31901">
        <ele>58.6</ele>
        <time>2025-01-16T13:07:27Z</time>
      </trkpt>
      <trkpt lat="47.56228" lon="-2.31901">
        <ele>58.6</ele>
        <time>2025-01-16T13:07:28Z</time>
      </trkpt>
      <trkpt lat="47.56227" lon="-2.31901">
        <ele>58.5</ele>
        <time>2025-01-16T13:07:29Z</time>
      </trkpt>
      <trkpt lat="47.56226" lon="-2.31901">
        <ele>58.5</ele>
        <time>2025-01-16T13:07:30Z</time>
      </trkpt>
      <trkpt lat="47.56224" lon="-2.319">
        <ele>58.4</ele>
        <time>2025-01-16T13:07:31Z</time>
      </trkpt>
      <trkpt lat="47.56223" lon="-2.319">
        <ele>58.4</ele>
        <time>2025-01-16T13:07:32Z</time>
      </trkpt>
      <trkpt lat="47.56222" lon="-2.31899">
        <ele>58.4</ele>
        <time>2025-01-16T13:07:33Z</time>
      </trkpt>
      <trkpt lat="47.5622" lon="-2.31899">
        <ele>58.3</ele>
        <time>2025-01-16T13:07:34Z</time>
      </trkpt>
      <trkpt lat="47.56219" lon="-2.31899">
        <ele>58.3</ele>
        <time>2025-01-16T13:07:35Z</time>
      </trkpt>
      <trkpt lat="47.56218" lon="-2.31898">
        <ele>58.3</ele>
        <time>2025-01-16T13:07:36Z</time>
      </trkpt>
      <trkpt lat="47.56217" lon="-2.31898">
        <ele>58.3</ele>
        <time>2025-01-16T13:07:37Z</time>
      </trkpt>
      <trkpt lat="47.56215" lon="-2.31897">
        <ele>58.2</ele>
        <time>2025-01-16T13:07:38Z</time>
      </trkpt>
      <trkpt lat="47.56214" lon="-2.31897">
        <ele>58.2</ele>
        <time>2025-01-16T13:07:39Z</time>
      </trkpt>
      <trkpt lat="47.56213" lon="-2.31896">
        <ele>58.2</ele>
        <time>2025-01-16T13:07:40Z</time>
      </trkpt>
      <trkpt lat="47.56212" lon="-2.31895">
        <ele>58.1</ele>
        <time>2025-01-16T13:07:41Z</time>
      </trkpt>
      <trkpt lat="47.56211" lon="-2.31894">
        <ele>58.1</ele>
        <time>2025-01-16T13:07:42Z</time>
      </trkpt>
      <trkpt lat="47.56209" lon="-2.31893">
        <ele>58.1</ele>
        <time>2025-01-16T13:07:43Z</time>
      </trkpt>
      <trkpt lat="47.56208" lon="-2.31893">
        <ele>58.1</ele>
        <time>2025-01-16T13:07:44Z</time>
      </trkpt>
      <trkpt lat="47.56207" lon="-2.31893">
        <ele>58.1</ele>
        <time>2025-01-16T13:07:45Z</time>
      </trkpt>
      <trkpt lat="47.56206" lon="-2.31892">
        <ele>58</ele>
        <time>2025-01-16T13:07:46Z</time>
      </trkpt>
      <trkpt lat="47.56205" lon="-2.31892">
        <ele>58</ele>
        <time>2025-01-16T13:07:47Z</time>
      </trkpt>
      <trkpt lat="47.56203" lon="-2.31891">
        <ele>58</ele>
        <time>2025-01-16T13:07:48Z</time>
      </trkpt>
      <trkpt lat="47.56202" lon="-2.31891">
        <ele>58</ele>
        <time>2025-01-16T13:07:49Z</time>
      </trkpt>
      <trkpt lat="47.56201" lon="-2.31891">
        <ele>58</ele>
        <time>2025-01-16T13:07:50Z</time>
      </trkpt>
      <trkpt lat="47.562" lon="-2.3189">
        <ele>58</ele>
        <time>2025-01-16T13:07:51Z</time>
      </trkpt>
      <trkpt lat="47.56199" lon="-2.3189">
        <ele>58</ele>
        <time>2025-01-16T13:07:52Z</time>
      </trkpt>
      <trkpt lat="47.56197" lon="-2.31889">
        <ele>58</ele>
        <time>2025-01-16T13:07:53Z</time>
      </trkpt>
      <trkpt lat="47.56196" lon="-2.31889">
        <ele>58</ele>
        <time>2025-01-16T13:07:54Z</time>
      </trkpt>
      <trkpt lat="47.56195" lon="-2.31889">
        <ele>58</ele>
        <time>2025-01-16T13:07:55Z</time>
      </trkpt>
      <trkpt lat="47.56194" lon="-2.31889">
        <ele>58</ele>
        <time>2025-01-16T13:07:56Z</time>
      </trkpt>
      <trkpt lat="47.56193" lon="-2.31889">
        <ele>58</ele>
        <time>2025-01-16T13:07:57Z</time>
      </trkpt>
      <trkpt lat="47.56191" lon="-2.31889">
        <ele>58</ele>
        <time>2025-01-16T13:07:58Z</time>
      </trkpt>
      <trkpt lat="47.5619" lon="-2.31889">
        <ele>58</ele>
        <time>2025-01-16T13:07:59Z</time>
      </trkpt>
      <trkpt lat="47.56189" lon="-2.3189">
        <ele>58</ele>
        <time>2025-01-16T13:08:00Z</time>
      </trkpt>
      <trkpt lat="47.56188" lon="-2.3189">
        <ele>58</ele>
        <time>2025-01-16T13:08:01Z</time>
      </trkpt>
      <trkpt lat="47.56186" lon="-2.3189">
        <ele>58</ele>
        <time>2025-01-16T13:08:02Z</time>
      </trkpt>
      <trkpt lat="47.56185" lon="-2.31891">
        <ele>58</ele>
        <time>2025-01-16T13:08:03Z</time>
      </trkpt>
      <trkpt lat="47.56185" lon="-2.31891">
        <ele>58</ele>
        <time>2025-01-16T13:08:04Z</time>
      </trkpt>
      <trkpt lat="47.56184" lon="-2.31892">
        <ele>58</ele>
        <time>2025-01-16T13:08:05Z</time>
      </trkpt>
      <trkpt lat="47.56183" lon="-2.31893">
        <ele>58.1</ele>
        <time>2025-01-16T13:08:06Z</time>
      </trkpt>
      <trkpt lat="47.56182" lon="-2.31894">
        <ele>58.1</ele>
        <time>2025-01-16T13:08:07Z</time>
      </trkpt>
      <trkpt lat="47.56181" lon="-2.31896">
        <ele>58.1</ele>
        <time>2025-01-16T13:08:08Z</time>
      </trkpt>
      <trkpt lat="47.5618" lon="-2.31899">
        <ele>58.2</ele>
        <time>2025-01-16T13:08:09Z</time>
      </trkpt>
      <trkpt lat="47.56179" lon="-2.31901">
        <ele>58.2</ele>
        <time>2025-01-16T13:08:10Z</time>
      </trkpt>
      <trkpt lat="47.56179" lon="-2.31903">
        <ele>58.3</ele>
        <time>2025-01-16T13:08:11Z</time>
      </trkpt>
      <trkpt lat="47.56179" lon="-2.31905">
        <ele>58.3</ele>
        <time>2025-01-16T13:08:12Z</time>
      </trkpt>
      <trkpt lat="47.56178" lon="-2.31907">
        <ele>58.4</ele>
        <time>2025-01-16T13:08:13Z</time>
      </trkpt>
      <trkpt lat="47.56179" lon="-2.31908">
        <ele>58.4</ele>
        <time>2025-01-16T13:08:14Z</time>
      </trkpt>
      <trkpt lat="47.56179" lon="-2.3191">
        <ele>58.4</ele>
        <time>2025-01-16T13:08:15Z</time>
      </trkpt>
      <trkpt lat="47.56179" lon="-2.31912">
        <ele>58.5</ele>
        <time>2025-01-16T13:08:16Z</time>
      </trkpt>
      <trkpt lat="47.56179" lon="-2.31913">
        <ele>58.5</ele>
        <time>2025-01-16T13:08:17Z</time>
      </trkpt>
      <trkpt lat="47.56179" lon="-2.31915">
        <ele>58.5</ele>
        <time>2025-01-16T13:08:18Z</time>
      </trkpt>
      <trkpt lat="47.56179" lon="-2.31916">
        <ele>58.5</ele>
        <time>2025-01-16T13:08:19Z</time>
      </trkpt>
      <trkpt lat="47.5618" lon="-2.31917">
        <ele>58.5</ele>
        <time>2025-01-16T13:08:20Z</time>
      </trkpt>
      <trkpt lat="47.5618" lon="-2.31919">
        <ele>58.6</ele>
        <time>2025-01-16T13:08:21Z</time>
      </trkpt>
      <trkpt lat="47.5618" lon="-2.31921">
        <ele>58.6</ele>
        <time>2025-01-16T13:08:22Z</time>
      </trkpt>
      <trkpt lat="47.5618" lon="-2.31923">
        <ele>58.6</ele>
        <time>2025-01-16T13:08:23Z</time>
      </trkpt>
      <trkpt lat="47.56179" lon="-2.31925">
        <ele>58.7</ele>
        <time>2025-01-16T13:08:24Z</time>
      </trkpt>
      <trkpt lat="47.56179" lon="-2.31927">
        <ele>58.7</ele>
        <time>2025-01-16T13:08:25Z</time>
      </trkpt>
      <trkpt lat="47.56179" lon="-2.31929">
        <ele>58.8</ele>
        <time>2025-01-16T13:08:26Z</time>
      </trkpt>
      <trkpt lat="47.56179" lon="-2.31931">
        <ele>58.8</ele>
        <time>2025-01-16T13:08:27Z</time>
      </trkpt>
      <trkpt lat="47.56179" lon="-2.31933">
        <ele>58.8</ele>
        <time>2025-01-16T13:08:28Z</time>
      </trkpt>
      <trkpt lat="47.56179" lon="-2.31935">
        <ele>58.8</ele>
        <time>2025-01-16T13:08:29Z</time>
      </trkpt>
      <trkpt lat="47.56179" lon="-2.31937">
        <ele>58.9</ele>
        <time>2025-01-16T13:08:30Z</time>
      </trkpt>
      <trkpt lat="47.56179" lon="-2.31938">
        <ele>58.9</ele>
        <time>2025-01-16T13:08:31Z</time>
      </trkpt>
      <trkpt lat="47.56179" lon="-2.3194">
        <ele>58.9</ele>
        <time>2025-01-16T13:08:32Z</time>
      </trkpt>
      <trkpt lat="47.56179" lon="-2.31941">
        <ele>58.9</ele>
        <time>2025-01-16T13:08:33Z</time>
      </trkpt>
      <trkpt lat="47.56179" lon="-2.31943">
        <ele>59</ele>
        <time>2025-01-16T13:08:34Z</time>
      </trkpt>
      <trkpt lat="47.56179" lon="-2.31945">
        <ele>59</ele>
        <time>2025-01-16T13:08:35Z</time>
      </trkpt>
      <trkpt lat="47.56179" lon="-2.31946">
        <ele>59</ele>
        <time>2025-01-16T13:08:36Z</time>
      </trkpt>
      <trkpt lat="47.56179" lon="-2.31948">
        <ele>59</ele>
        <time>2025-01-16T13:08:37Z</time>
      </trkpt>
      <trkpt lat="47.5618" lon="-2.3195">
        <ele>59</ele>
        <time>2025-01-16T13:08:38Z</time>
      </trkpt>
      <trkpt lat="47.5618" lon="-2.31952">
        <ele>59</ele>
        <time>2025-01-16T13:08:39Z</time>
      </trkpt>
      <trkpt lat="47.5618" lon="-2.31953">
        <ele>59</ele>
        <time>2025-01-16T13:08:40Z</time>
      </trkpt>
      <trkpt lat="47.56181" lon="-2.31955">
        <ele>59</ele>
        <time>2025-01-16T13:08:41Z</time>
      </trkpt>
      <trkpt lat="47.56181" lon="-2.31957">
        <ele>59</ele>
        <time>2025-01-16T13:08:42Z</time>
      </trkpt>
      <trkpt lat="47.56181" lon="-2.31958">
        <ele>59</ele>
        <time>2025-01-16T13:08:43Z</time>
      </trkpt>
      <trkpt lat="47.56181" lon="-2.3196">
        <ele>59</ele>
        <time>2025-01-16T13:08:44Z</time>
      </trkpt>
      <trkpt lat="47.56181" lon="-2.31962">
        <ele>59</ele>
        <time>2025-01-16T13:08:45Z</time>
      </trkpt>
      <trkpt lat="47.56182" lon="-2.31964">
        <ele>59</ele>
        <time>2025-01-16T13:08:46Z</time>
      </trkpt>
      <trkpt lat="47.56182" lon="-2.31965">
        <ele>59</ele>
        <time>2025-01-16T13:08:47Z</time>
      </trkpt>
      <trkpt lat="47.56182" lon="-2.31967">
        <ele>59</ele>
        <time>2025-01-16T13:08:48Z</time>
      </trkpt>
      <trkpt lat="47.56182" lon="-2.31969">
        <ele>59</ele>
        <time>2025-01-16T13:08:49Z</time>
      </trkpt>
      <trkpt lat="47.56182" lon="-2.3197">
        <ele>59</ele>
        <time>2025-01-16T13:08:50Z</time>
      </trkpt>
      <trkpt lat="47.56182" lon="-2.31972">
        <ele>59</ele>
        <time>2025-01-16T13:08:51Z</time>
      </trkpt>
      <trkpt lat="47.56182" lon="-2.31973">
        <ele>59</ele>
        <time>2025-01-16T13:08:52Z</time>
      </trkpt>
      <trkpt lat="47.56182" lon="-2.31974">
        <ele>59</ele>
        <time>2025-01-16T13:08:53Z</time>
      </trkpt>
      <trkpt lat="47.56182" lon="-2.31976">
        <ele>59.1</ele>
        <time>2025-01-16T13:08:54Z</time>
      </trkpt>
      <trkpt lat="47.56182" lon="-2.31978">
        <ele>59.1</ele>
        <time>2025-01-16T13:08:55Z</time>
      </trkpt>
      <trkpt lat="47.56182" lon="-2.3198">
        <ele>59.1</ele>
        <time>2025-01-16T13:08:56Z</time>
      </trkpt>
      <trkpt lat="47.56182" lon="-2.31982">
        <ele>59.2</ele>
        <time>2025-01-16T13:08:57Z</time>
      </trkpt>
      <trkpt lat="47.56182" lon="-2.31984">
        <ele>59.2</ele>
        <time>2025-01-16T13:08:58Z</time>
      </trkpt>
      <trkpt lat="47.56182" lon="-2.31986">
        <ele>59.2</ele>
        <time>2025-01-16T13:08:59Z</time>
      </trkpt>
      <trkpt lat="47.56183" lon="-2.31987">
        <ele>59.2</ele>
        <time>2025-01-16T13:09:00Z</time>
      </trkpt>
      <trkpt lat="47.56183" lon="-2.31989">
        <ele>59.2</ele>
        <time>2025-01-16T13:09:01Z</time>
      </trkpt>
      <trkpt lat="47.56183" lon="-2.31991">
        <ele>59.3</ele>
        <time>2025-01-16T13:09:02Z</time>
      </trkpt>
      <trkpt lat="47.56183" lon="-2.31992">
        <ele>59.3</ele>
        <time>2025-01-16T13:09:03Z</time>
      </trkpt>
      <trkpt lat="47.56183" lon="-2.31994">
        <ele>59.3</ele>
        <time>2025-01-16T13:09:04Z</time>
      </trkpt>
      <trkpt lat="47.56183" lon="-2.31996">
        <ele>59.4</ele>
        <time>2025-01-16T13:09:05Z</time>
      </trkpt>
      <trkpt lat="47.56183" lon="-2.31997">
        <ele>59.4</ele>
        <time>2025-01-16T13:09:06Z</time>
      </trkpt>
      <trkpt lat="47.56183" lon="-2.31999">
        <ele>59.4</ele>
        <time>2025-01-16T13:09:07Z</time>
      </trkpt>
      <trkpt lat="47.56184" lon="-2.32001">
        <ele>59.4</ele>
        <time>2025-01-16T13:09:08Z</time>
      </trkpt>
      <trkpt lat="47.56184" lon="-2.32002">
        <ele>59.4</ele>
        <time>2025-01-16T13:09:09Z</time>
      </trkpt>
      <trkpt lat="47.56184" lon="-2.32004">
        <ele>59.4</ele>
        <time>2025-01-16T13:09:10Z</time>
      </trkpt>
      <trkpt lat="47.56184" lon="-2.32005">
        <ele>59.4</ele>
        <time>2025-01-16T13:09:11Z</time>
      </trkpt>
      <trkpt lat="47.56184" lon="-2.32006">
        <ele>59.4</ele>
        <time>2025-01-16T13:09:12Z</time>
      </trkpt>
      <trkpt lat="47.56185" lon="-2.32008">
        <ele>59.3</ele>
        <time>2025-01-16T13:09:13Z</time>
      </trkpt>
      <trkpt lat="47.56185" lon="-2.32009">
        <ele>59.3</ele>
        <time>2025-01-16T13:09:14Z</time>
      </trkpt>
      <trkpt lat="47.56185" lon="-2.32011">
        <ele>59.3</ele>
        <time>2025-01-16T13:09:15Z</time>
      </trkpt>
      <trkpt lat="47.56185" lon="-2.32013">
        <ele>59.3</ele>
        <time>2025-01-16T13:09:16Z</time>
      </trkpt>
      <trkpt lat="47.56185" lon="-2.32015">
        <ele>59.3</ele>
        <time>2025-01-16T13:09:17Z</time>
      </trkpt>
      <trkpt lat="47.56185" lon="-2.32016">
        <ele>59.3</ele>
        <time>2025-01-16T13:09:18Z</time>
      </trkpt>
      <trkpt lat="47.56185" lon="-2.32018">
        <ele>59.3</ele>
        <time>2025-01-16T13:09:19Z</time>
      </trkpt>
      <trkpt lat="47.56185" lon="-2.32019">
        <ele>59.3</ele>
        <time>2025-01-16T13:09:20Z</time>
      </trkpt>
      <trkpt lat="47.56186" lon="-2.32021">
        <ele>59.3</ele>
        <time>2025-01-16T13:09:21Z</time>
      </trkpt>
      <trkpt lat="47.56186" lon="-2.32023">
        <ele>59.3</ele>
        <time>2025-01-16T13:09:22Z</time>
      </trkpt>
      <trkpt lat="47.56186" lon="-2.32025">
        <ele>59.3</ele>
        <time>2025-01-16T13:09:23Z</time>
      </trkpt>
      <trkpt lat="47.56186" lon="-2.32028">
        <ele>59.3</ele>
        <time>2025-01-16T13:09:24Z</time>
      </trkpt>
      <trkpt lat="47.56186" lon="-2.32029">
        <ele>59.3</ele>
        <time>2025-01-16T13:09:25Z</time>
      </trkpt>
      <trkpt lat="47.56186" lon="-2.32031">
        <ele>59.2</ele>
        <time>2025-01-16T13:09:26Z</time>
      </trkpt>
      <trkpt lat="47.56186" lon="-2.32033">
        <ele>59.2</ele>
        <time>2025-01-16T13:09:27Z</time>
      </trkpt>
      <trkpt lat="47.56186" lon="-2.32033">
        <ele>59.2</ele>
        <time>2025-01-16T13:09:28Z</time>
      </trkpt>
      <trkpt lat="47.56186" lon="-2.32034">
        <ele>59.1</ele>
        <time>2025-01-16T13:09:29Z</time>
      </trkpt>
      <trkpt lat="47.56186" lon="-2.32036">
        <ele>59.1</ele>
        <time>2025-01-16T13:09:30Z</time>
      </trkpt>
      <trkpt lat="47.56186" lon="-2.32037">
        <ele>59.1</ele>
        <time>2025-01-16T13:09:31Z</time>
      </trkpt>
      <trkpt lat="47.56186" lon="-2.32038">
        <ele>59</ele>
        <time>2025-01-16T13:09:32Z</time>
      </trkpt>
      <trkpt lat="47.56186" lon="-2.32037">
        <ele>59.1</ele>
        <time>2025-01-16T13:09:33Z</time>
      </trkpt>
      <trkpt lat="47.56186" lon="-2.32039">
        <ele>59</ele>
        <time>2025-01-16T13:09:34Z</time>
      </trkpt>
      <trkpt lat="47.56186" lon="-2.32039">
        <ele>59</ele>
        <time>2025-01-16T13:09:35Z</time>
      </trkpt>
      <trkpt lat="47.56186" lon="-2.32041">
        <ele>59</ele>
        <time>2025-01-16T13:09:36Z</time>
      </trkpt>
      <trkpt lat="47.56187" lon="-2.32043">
        <ele>58.9</ele>
        <time>2025-01-16T13:09:37Z</time>
      </trkpt>
      <trkpt lat="47.56187" lon="-2.32045">
        <ele>58.8</ele>
        <time>2025-01-16T13:09:38Z</time>
      </trkpt>
      <trkpt lat="47.56187" lon="-2.32047">
        <ele>58.8</ele>
        <time>2025-01-16T13:09:39Z</time>
      </trkpt>
      <trkpt lat="47.56187" lon="-2.32046">
        <ele>58.8</ele>
        <time>2025-01-16T13:09:40Z</time>
      </trkpt>
      <trkpt lat="47.56187" lon="-2.32047">
        <ele>58.8</ele>
        <time>2025-01-16T13:09:41Z</time>
      </trkpt>
      <trkpt lat="47.56187" lon="-2.32051">
        <ele>58.7</ele>
        <time>2025-01-16T13:09:42Z</time>
      </trkpt>
      <trkpt lat="47.56188" lon="-2.32055">
        <ele>58.5</ele>
        <time>2025-01-16T13:09:43Z</time>
      </trkpt>
      <trkpt lat="47.56189" lon="-2.32057">
        <ele>58.3</ele>
        <time>2025-01-16T13:09:44Z</time>
      </trkpt>
      <trkpt lat="47.56189" lon="-2.32059">
        <ele>58.3</ele>
        <time>2025-01-16T13:09:45Z</time>
      </trkpt>
      <trkpt lat="47.56189" lon="-2.32061">
        <ele>58.2</ele>
        <time>2025-01-16T13:09:46Z</time>
      </trkpt>
      <trkpt lat="47.56189" lon="-2.32062">
        <ele>58.2</ele>
        <time>2025-01-16T13:09:47Z</time>
      </trkpt>
      <trkpt lat="47.56189" lon="-2.32064">
        <ele>58.1</ele>
        <time>2025-01-16T13:09:48Z</time>
      </trkpt>
      <trkpt lat="47.56189" lon="-2.32065">
        <ele>58.1</ele>
        <time>2025-01-16T13:09:49Z</time>
      </trkpt>
      <trkpt lat="47.56189" lon="-2.32067">
        <ele>58</ele>
        <time>2025-01-16T13:09:50Z</time>
      </trkpt>
      <trkpt lat="47.5619" lon="-2.32069">
        <ele>57.8</ele>
        <time>2025-01-16T13:09:51Z</time>
      </trkpt>
      <trkpt lat="47.5619" lon="-2.32071">
        <ele>57.8</ele>
        <time>2025-01-16T13:09:52Z</time>
      </trkpt>
      <trkpt lat="47.5619" lon="-2.32073">
        <ele>57.7</ele>
        <time>2025-01-16T13:09:53Z</time>
      </trkpt>
      <trkpt lat="47.5619" lon="-2.32075">
        <ele>57.6</ele>
        <time>2025-01-16T13:09:54Z</time>
      </trkpt>
      <trkpt lat="47.5619" lon="-2.32078">
        <ele>57.5</ele>
        <time>2025-01-16T13:09:55Z</time>
      </trkpt>
      <trkpt lat="47.5619" lon="-2.3208">
        <ele>57.4</ele>
        <time>2025-01-16T13:09:56Z</time>
      </trkpt>
      <trkpt lat="47.5619" lon="-2.32082">
        <ele>57.4</ele>
        <time>2025-01-16T13:09:57Z</time>
      </trkpt>
      <trkpt lat="47.5619" lon="-2.32084">
        <ele>57.3</ele>
        <time>2025-01-16T13:09:58Z</time>
      </trkpt>
      <trkpt lat="47.5619" lon="-2.32086">
        <ele>57.4</ele>
        <time>2025-01-16T13:09:59Z</time>
      </trkpt>
      <trkpt lat="47.5619" lon="-2.32087">
        <ele>57.5</ele>
        <time>2025-01-16T13:10:00Z</time>
      </trkpt>
      <trkpt lat="47.5619" lon="-2.32089">
        <ele>57.5</ele>
        <time>2025-01-16T13:10:01Z</time>
      </trkpt>
      <trkpt lat="47.5619" lon="-2.32091">
        <ele>57.6</ele>
        <time>2025-01-16T13:10:02Z</time>
      </trkpt>
      <trkpt lat="47.5619" lon="-2.32093">
        <ele>57.7</ele>
        <time>2025-01-16T13:10:03Z</time>
      </trkpt>
      <trkpt lat="47.5619" lon="-2.32095">
        <ele>57.7</ele>
        <time>2025-01-16T13:10:04Z</time>
      </trkpt>
      <trkpt lat="47.5619" lon="-2.32097">
        <ele>57.8</ele>
        <time>2025-01-16T13:10:05Z</time>
      </trkpt>
      <trkpt lat="47.5619" lon="-2.321">
        <ele>57.9</ele>
        <time>2025-01-16T13:10:06Z</time>
      </trkpt>
      <trkpt lat="47.5619" lon="-2.32102">
        <ele>58</ele>
        <time>2025-01-16T13:10:07Z</time>
      </trkpt>
      <trkpt lat="47.5619" lon="-2.32104">
        <ele>58.1</ele>
        <time>2025-01-16T13:10:08Z</time>
      </trkpt>
      <trkpt lat="47.5619" lon="-2.32105">
        <ele>58.1</ele>
        <time>2025-01-16T13:10:09Z</time>
      </trkpt>
      <trkpt lat="47.56191" lon="-2.32107">
        <ele>58.1</ele>
        <time>2025-01-16T13:10:10Z</time>
      </trkpt>
      <trkpt lat="47.56191" lon="-2.32109">
        <ele>58.2</ele>
        <time>2025-01-16T13:10:11Z</time>
      </trkpt>
      <trkpt lat="47.56191" lon="-2.32111">
        <ele>58.2</ele>
        <time>2025-01-16T13:10:12Z</time>
      </trkpt>
      <trkpt lat="47.56191" lon="-2.32112">
        <ele>58.3</ele>
        <time>2025-01-16T13:10:13Z</time>
      </trkpt>
      <trkpt lat="47.56192" lon="-2.32113">
        <ele>58.2</ele>
        <time>2025-01-16T13:10:14Z</time>
      </trkpt>
      <trkpt lat="47.56192" lon="-2.32115">
        <ele>58.2</ele>
        <time>2025-01-16T13:10:15Z</time>
      </trkpt>
      <trkpt lat="47.56192" lon="-2.32116">
        <ele>58.2</ele>
        <time>2025-01-16T13:10:16Z</time>
      </trkpt>
      <trkpt lat="47.56192" lon="-2.32118">
        <ele>58.2</ele>
        <time>2025-01-16T13:10:17Z</time>
      </trkpt>
      <trkpt lat="47.56192" lon="-2.32121">
        <ele>58.2</ele>
        <time>2025-01-16T13:10:18Z</time>
      </trkpt>
      <trkpt lat="47.56192" lon="-2.32121">
        <ele>58.2</ele>
        <time>2025-01-16T13:10:19Z</time>
      </trkpt>
      <trkpt lat="47.56192" lon="-2.32121">
        <ele>58.2</ele>
        <time>2025-01-16T13:10:20Z</time>
      </trkpt>
      <trkpt lat="47.56192" lon="-2.32122">
        <ele>58.2</ele>
        <time>2025-01-16T13:10:21Z</time>
      </trkpt>
      <trkpt lat="47.56192" lon="-2.32123">
        <ele>58.2</ele>
        <time>2025-01-16T13:10:22Z</time>
      </trkpt>
      <trkpt lat="47.56192" lon="-2.32125">
        <ele>58.2</ele>
        <time>2025-01-16T13:10:23Z</time>
      </trkpt>
      <trkpt lat="47.56193" lon="-2.32126">
        <ele>58.1</ele>
        <time>2025-01-16T13:10:24Z</time>
      </trkpt>
      <trkpt lat="47.56193" lon="-2.32127">
        <ele>58.1</ele>
        <time>2025-01-16T13:10:25Z</time>
      </trkpt>
      <trkpt lat="47.56194" lon="-2.32128">
        <ele>58</ele>
        <time>2025-01-16T13:10:26Z</time>
      </trkpt>
      <trkpt lat="47.56194" lon="-2.32131">
        <ele>58</ele>
        <time>2025-01-16T13:10:27Z</time>
      </trkpt>
      <trkpt lat="47.56194" lon="-2.32134">
        <ele>58</ele>
        <time>2025-01-16T13:10:28Z</time>
      </trkpt>
      <trkpt lat="47.56194" lon="-2.32136">
        <ele>58</ele>
        <time>2025-01-16T13:10:29Z</time>
      </trkpt>
      <trkpt lat="47.56195" lon="-2.32138">
        <ele>58</ele>
        <time>2025-01-16T13:10:30Z</time>
      </trkpt>
      <trkpt lat="47.56195" lon="-2.3214">
        <ele>58</ele>
        <time>2025-01-16T13:10:31Z</time>
      </trkpt>
      <trkpt lat="47.56195" lon="-2.32142">
        <ele>58.1</ele>
        <time>2025-01-16T13:10:32Z</time>
      </trkpt>
      <trkpt lat="47.56195" lon="-2.32145">
        <ele>58.2</ele>
        <time>2025-01-16T13:10:33Z</time>
      </trkpt>
      <trkpt lat="47.56196" lon="-2.32148">
        <ele>58.2</ele>
        <time>2025-01-16T13:10:34Z</time>
      </trkpt>
      <trkpt lat="47.56196" lon="-2.3215">
        <ele>58.3</ele>
        <time>2025-01-16T13:10:35Z</time>
      </trkpt>
      <trkpt lat="47.56196" lon="-2.32153">
        <ele>58.4</ele>
        <time>2025-01-16T13:10:36Z</time>
      </trkpt>
      <trkpt lat="47.56197" lon="-2.32156">
        <ele>58.4</ele>
        <time>2025-01-16T13:10:37Z</time>
      </trkpt>
      <trkpt lat="47.56197" lon="-2.32158">
        <ele>58.4</ele>
        <time>2025-01-16T13:10:38Z</time>
      </trkpt>
      <trkpt lat="47.56197" lon="-2.32159">
        <ele>58.5</ele>
        <time>2025-01-16T13:10:39Z</time>
      </trkpt>
      <trkpt lat="47.56197" lon="-2.32159">
        <ele>58.5</ele>
        <time>2025-01-16T13:10:40Z</time>
      </trkpt>
      <trkpt lat="47.56197" lon="-2.3216">
        <ele>58.5</ele>
        <time>2025-01-16T13:10:41Z</time>
      </trkpt>
      <trkpt lat="47.56197" lon="-2.32161">
        <ele>58.5</ele>
        <time>2025-01-16T13:10:42Z</time>
      </trkpt>
      <trkpt lat="47.56197" lon="-2.32163">
        <ele>58.6</ele>
        <time>2025-01-16T13:10:43Z</time>
      </trkpt>
      <trkpt lat="47.56196" lon="-2.32165">
        <ele>58.8</ele>
        <time>2025-01-16T13:10:44Z</time>
      </trkpt>
      <trkpt lat="47.56196" lon="-2.32167">
        <ele>58.8</ele>
        <time>2025-01-16T13:10:45Z</time>
      </trkpt>
      <trkpt lat="47.56195" lon="-2.32168">
        <ele>58.9</ele>
        <time>2025-01-16T13:10:46Z</time>
      </trkpt>
      <trkpt lat="47.56195" lon="-2.32169">
        <ele>58.9</ele>
        <time>2025-01-16T13:10:47Z</time>
      </trkpt>
      <trkpt lat="47.56195" lon="-2.32169">
        <ele>58.9</ele>
        <time>2025-01-16T13:10:48Z</time>
      </trkpt>
      <trkpt lat="47.56194" lon="-2.32171">
        <ele>58.9</ele>
        <time>2025-01-16T13:10:49Z</time>
      </trkpt>
      <trkpt lat="47.56194" lon="-2.32172">
        <ele>58.8</ele>
        <time>2025-01-16T13:10:50Z</time>
      </trkpt>
      <trkpt lat="47.56194" lon="-2.32173">
        <ele>58.8</ele>
        <time>2025-01-16T13:10:51Z</time>
      </trkpt>
      <trkpt lat="47.56194" lon="-2.32174">
        <ele>58.8</ele>
        <time>2025-01-16T13:10:52Z</time>
      </trkpt>
      <trkpt lat="47.56194" lon="-2.32174">
        <ele>58.8</ele>
        <time>2025-01-16T13:10:53Z</time>
      </trkpt>
      <trkpt lat="47.56194" lon="-2.32175">
        <ele>58.7</ele>
        <time>2025-01-16T13:10:54Z</time>
      </trkpt>
      <trkpt lat="47.56194" lon="-2.32176">
        <ele>58.7</ele>
        <time>2025-01-16T13:10:55Z</time>
      </trkpt>
      <trkpt lat="47.56194" lon="-2.32176">
        <ele>58.7</ele>
        <time>2025-01-16T13:10:56Z</time>
      </trkpt>
      <trkpt lat="47.56194" lon="-2.32178">
        <ele>58.6</ele>
        <time>2025-01-16T13:10:57Z</time>
      </trkpt>
      <trkpt lat="47.56194" lon="-2.32179">
        <ele>58.6</ele>
        <time>2025-01-16T13:10:58Z</time>
      </trkpt>
      <trkpt lat="47.56194" lon="-2.32181">
        <ele>58.5</ele>
        <time>2025-01-16T13:10:59Z</time>
      </trkpt>
      <trkpt lat="47.56194" lon="-2.32183">
        <ele>58.5</ele>
        <time>2025-01-16T13:11:00Z</time>
      </trkpt>
      <trkpt lat="47.56194" lon="-2.32184">
        <ele>58.4</ele>
        <time>2025-01-16T13:11:01Z</time>
      </trkpt>
      <trkpt lat="47.56193" lon="-2.32186">
        <ele>58.4</ele>
        <time>2025-01-16T13:11:02Z</time>
      </trkpt>
      <trkpt lat="47.56193" lon="-2.32187">
        <ele>58.4</ele>
        <time>2025-01-16T13:11:03Z</time>
      </trkpt>
      <trkpt lat="47.56193" lon="-2.32188">
        <ele>58.4</ele>
        <time>2025-01-16T13:11:04Z</time>
      </trkpt>
      <trkpt lat="47.56193" lon="-2.32189">
        <ele>58.3</ele>
        <time>2025-01-16T13:11:05Z</time>
      </trkpt>
      <trkpt lat="47.56194" lon="-2.32189">
        <ele>58.2</ele>
        <time>2025-01-16T13:11:06Z</time>
      </trkpt>
      <trkpt lat="47.56194" lon="-2.3219">
        <ele>58.2</ele>
        <time>2025-01-16T13:11:07Z</time>
      </trkpt>
      <trkpt lat="47.56195" lon="-2.32191">
        <ele>58.1</ele>
        <time>2025-01-16T13:11:08Z</time>
      </trkpt>
      <trkpt lat="47.56195" lon="-2.32192">
        <ele>58</ele>
        <time>2025-01-16T13:11:09Z</time>
      </trkpt>
      <trkpt lat="47.56196" lon="-2.32194">
        <ele>57.9</ele>
        <time>2025-01-16T13:11:10Z</time>
      </trkpt>
      <trkpt lat="47.56196" lon="-2.32195">
        <ele>57.9</ele>
        <time>2025-01-16T13:11:11Z</time>
      </trkpt>
      <trkpt lat="47.56196" lon="-2.32196">
        <ele>57.9</ele>
        <time>2025-01-16T13:11:12Z</time>
      </trkpt>
      <trkpt lat="47.56196" lon="-2.32196">
        <ele>57.9</ele>
        <time>2025-01-16T13:11:13Z</time>
      </trkpt>
      <trkpt lat="47.56196" lon="-2.32197">
        <ele>57.9</ele>
        <time>2025-01-16T13:11:14Z</time>
      </trkpt>
      <trkpt lat="47.56196" lon="-2.32198">
        <ele>57.9</ele>
        <time>2025-01-16T13:11:15Z</time>
      </trkpt>
      <trkpt lat="47.56196" lon="-2.32198">
        <ele>57.9</ele>
        <time>2025-01-16T13:11:16Z</time>
      </trkpt>
      <trkpt lat="47.56196" lon="-2.32199">
        <ele>57.9</ele>
        <time>2025-01-16T13:11:17Z</time>
      </trkpt>
      <trkpt lat="47.56196" lon="-2.322">
        <ele>57.9</ele>
        <time>2025-01-16T13:11:18Z</time>
      </trkpt>
      <trkpt lat="47.56197" lon="-2.32202">
        <ele>57.8</ele>
        <time>2025-01-16T13:11:19Z</time>
      </trkpt>
      <trkpt lat="47.56198" lon="-2.32204">
        <ele>57.7</ele>
        <time>2025-01-16T13:11:20Z</time>
      </trkpt>
      <trkpt lat="47.56198" lon="-2.32205">
        <ele>57.7</ele>
        <time>2025-01-16T13:11:21Z</time>
      </trkpt>
      <trkpt lat="47.56198" lon="-2.32207">
        <ele>57.7</ele>
        <time>2025-01-16T13:11:22Z</time>
      </trkpt>
      <trkpt lat="47.56198" lon="-2.32208">
        <ele>57.7</ele>
        <time>2025-01-16T13:11:23Z</time>
      </trkpt>
      <trkpt lat="47.56199" lon="-2.3221">
        <ele>57.6</ele>
        <time>2025-01-16T13:11:24Z</time>
      </trkpt>
      <trkpt lat="47.56199" lon="-2.32211">
        <ele>57.6</ele>
        <time>2025-01-16T13:11:25Z</time>
      </trkpt>
      <trkpt lat="47.562" lon="-2.32213">
        <ele>57.5</ele>
        <time>2025-01-16T13:11:26Z</time>
      </trkpt>
      <trkpt lat="47.562" lon="-2.32215">
        <ele>57.5</ele>
        <time>2025-01-16T13:11:27Z</time>
      </trkpt>
      <trkpt lat="47.56201" lon="-2.32216">
        <ele>57.3</ele>
        <time>2025-01-16T13:11:28Z</time>
      </trkpt>
      <trkpt lat="47.56202" lon="-2.32218">
        <ele>57.2</ele>
        <time>2025-01-16T13:11:29Z</time>
      </trkpt>
      <trkpt lat="47.56202" lon="-2.32219">
        <ele>57.2</ele>
        <time>2025-01-16T13:11:30Z</time>
      </trkpt>
      <trkpt lat="47.56203" lon="-2.3222">
        <ele>57.1</ele>
        <time>2025-01-16T13:11:31Z</time>
      </trkpt>
      <trkpt lat="47.56204" lon="-2.32222">
        <ele>57</ele>
        <time>2025-01-16T13:11:32Z</time>
      </trkpt>
      <trkpt lat="47.56204" lon="-2.32223">
        <ele>56.9</ele>
        <time>2025-01-16T13:11:33Z</time>
      </trkpt>
      <trkpt lat="47.56204" lon="-2.32224">
        <ele>56.9</ele>
        <time>2025-01-16T13:11:34Z</time>
      </trkpt>
      <trkpt lat="47.56205" lon="-2.32226">
        <ele>56.6</ele>
        <time>2025-01-16T13:11:35Z</time>
      </trkpt>
      <trkpt lat="47.56205" lon="-2.32227">
        <ele>56.6</ele>
        <time>2025-01-16T13:11:36Z</time>
      </trkpt>
      <trkpt lat="47.56205" lon="-2.32227">
        <ele>56.6</ele>
        <time>2025-01-16T13:11:37Z</time>
      </trkpt>
      <trkpt lat="47.56205" lon="-2.32229">
        <ele>56.5</ele>
        <time>2025-01-16T13:11:38Z</time>
      </trkpt>
      <trkpt lat="47.56206" lon="-2.32229">
        <ele>56.4</ele>
        <time>2025-01-16T13:11:39Z</time>
      </trkpt>
      <trkpt lat="47.56206" lon="-2.3223">
        <ele>56.3</ele>
        <time>2025-01-16T13:11:40Z</time>
      </trkpt>
      <trkpt lat="47.56206" lon="-2.3223">
        <ele>56.3</ele>
        <time>2025-01-16T13:11:41Z</time>
      </trkpt>
      <trkpt lat="47.56206" lon="-2.32231">
        <ele>56.3</ele>
        <time>2025-01-16T13:11:42Z</time>
      </trkpt>
      <trkpt lat="47.56206" lon="-2.32232">
        <ele>56.2</ele>
        <time>2025-01-16T13:11:43Z</time>
      </trkpt>
      <trkpt lat="47.56207" lon="-2.32234">
        <ele>56</ele>
        <time>2025-01-16T13:11:44Z</time>
      </trkpt>
      <trkpt lat="47.56208" lon="-2.32235">
        <ele>55.8</ele>
        <time>2025-01-16T13:11:45Z</time>
      </trkpt>
      <trkpt lat="47.56209" lon="-2.32235">
        <ele>55.7</ele>
        <time>2025-01-16T13:11:46Z</time>
      </trkpt>
      <trkpt lat="47.5621" lon="-2.32236">
        <ele>55.6</ele>
        <time>2025-01-16T13:11:47Z</time>
      </trkpt>
      <trkpt lat="47.56211" lon="-2.32236">
        <ele>55.5</ele>
        <time>2025-01-16T13:11:48Z</time>
      </trkpt>
      <trkpt lat="47.56211" lon="-2.32237">
        <ele>55.5</ele>
        <time>2025-01-16T13:11:49Z</time>
      </trkpt>
      <trkpt lat="47.56212" lon="-2.32239">
        <ele>55.3</ele>
        <time>2025-01-16T13:11:50Z</time>
      </trkpt>
      <trkpt lat="47.56212" lon="-2.3224">
        <ele>55.2</ele>
        <time>2025-01-16T13:11:51Z</time>
      </trkpt>
      <trkpt lat="47.56213" lon="-2.32241">
        <ele>55.1</ele>
        <time>2025-01-16T13:11:52Z</time>
      </trkpt>
      <trkpt lat="47.56213" lon="-2.32242">
        <ele>55</ele>
        <time>2025-01-16T13:11:53Z</time>
      </trkpt>
      <trkpt lat="47.56213" lon="-2.32244">
        <ele>55</ele>
        <time>2025-01-16T13:11:54Z</time>
      </trkpt>
      <trkpt lat="47.56214" lon="-2.32246">
        <ele>54.8</ele>
        <time>2025-01-16T13:11:55Z</time>
      </trkpt>
      <trkpt lat="47.56214" lon="-2.32247">
        <ele>54.7</ele>
        <time>2025-01-16T13:11:56Z</time>
      </trkpt>
      <trkpt lat="47.56214" lon="-2.32248">
        <ele>54.7</ele>
        <time>2025-01-16T13:11:57Z</time>
      </trkpt>
      <trkpt lat="47.56214" lon="-2.32249">
        <ele>54.6</ele>
        <time>2025-01-16T13:11:58Z</time>
      </trkpt>
      <trkpt lat="47.56214" lon="-2.3225">
        <ele>54.6</ele>
        <time>2025-01-16T13:11:59Z</time>
      </trkpt>
      <trkpt lat="47.56213" lon="-2.32251">
        <ele>54.6</ele>
        <time>2025-01-16T13:12:00Z</time>
      </trkpt>
      <trkpt lat="47.56213" lon="-2.32252">
        <ele>54.6</ele>
        <time>2025-01-16T13:12:01Z</time>
      </trkpt>
      <trkpt lat="47.56213" lon="-2.32253">
        <ele>54.5</ele>
        <time>2025-01-16T13:12:02Z</time>
      </trkpt>
      <trkpt lat="47.56213" lon="-2.32253">
        <ele>54.5</ele>
        <time>2025-01-16T13:12:03Z</time>
      </trkpt>
      <trkpt lat="47.56213" lon="-2.32254">
        <ele>54.5</ele>
        <time>2025-01-16T13:12:04Z</time>
      </trkpt>
      <trkpt lat="47.56213" lon="-2.32255">
        <ele>54.4</ele>
        <time>2025-01-16T13:12:05Z</time>
      </trkpt>
      <trkpt lat="47.56213" lon="-2.32256">
        <ele>54.4</ele>
        <time>2025-01-16T13:12:06Z</time>
      </trkpt>
      <trkpt lat="47.56213" lon="-2.32258">
        <ele>54.3</ele>
        <time>2025-01-16T13:12:07Z</time>
      </trkpt>
      <trkpt lat="47.56213" lon="-2.32259">
        <ele>54.2</ele>
        <time>2025-01-16T13:12:08Z</time>
      </trkpt>
      <trkpt lat="47.56213" lon="-2.3226">
        <ele>54.2</ele>
        <time>2025-01-16T13:12:09Z</time>
      </trkpt>
      <trkpt lat="47.56214" lon="-2.32262">
        <ele>54</ele>
        <time>2025-01-16T13:12:10Z</time>
      </trkpt>
      <trkpt lat="47.56214" lon="-2.32263">
        <ele>53.9</ele>
        <time>2025-01-16T13:12:11Z</time>
      </trkpt>
      <trkpt lat="47.56215" lon="-2.32264">
        <ele>53.8</ele>
        <time>2025-01-16T13:12:12Z</time>
      </trkpt>
      <trkpt lat="47.56215" lon="-2.32266">
        <ele>53.7</ele>
        <time>2025-01-16T13:12:13Z</time>
      </trkpt>
      <trkpt lat="47.56215" lon="-2.32267">
        <ele>53.6</ele>
        <time>2025-01-16T13:12:14Z</time>
      </trkpt>
      <trkpt lat="47.56215" lon="-2.32268">
        <ele>53.6</ele>
        <time>2025-01-16T13:12:15Z</time>
      </trkpt>
      <trkpt lat="47.56215" lon="-2.32268">
        <ele>53.6</ele>
        <time>2025-01-16T13:12:16Z</time>
      </trkpt>
      <trkpt lat="47.56215" lon="-2.32269">
        <ele>53.5</ele>
        <time>2025-01-16T13:12:17Z</time>
      </trkpt>
      <trkpt lat="47.56215" lon="-2.32269">
        <ele>53.5</ele>
        <time>2025-01-16T13:12:18Z</time>
      </trkpt>
      <trkpt lat="47.56216" lon="-2.32269">
        <ele>53.4</ele>
        <time>2025-01-16T13:12:19Z</time>
      </trkpt>
      <trkpt lat="47.56216" lon="-2.32269">
        <ele>53.4</ele>
        <time>2025-01-16T13:12:20Z</time>
      </trkpt>
      <trkpt lat="47.56216" lon="-2.3227">
        <ele>53.3</ele>
        <time>2025-01-16T13:12:21Z</time>
      </trkpt>
      <trkpt lat="47.56216" lon="-2.3227">
        <ele>53.3</ele>
        <time>2025-01-16T13:12:22Z</time>
      </trkpt>
      <trkpt lat="47.56216" lon="-2.32271">
        <ele>53.3</ele>
        <time>2025-01-16T13:12:23Z</time>
      </trkpt>
      <trkpt lat="47.56216" lon="-2.32271">
        <ele>53.3</ele>
        <time>2025-01-16T13:12:24Z</time>
      </trkpt>
      <trkpt lat="47.56216" lon="-2.32271">
        <ele>53.3</ele>
        <time>2025-01-16T13:12:25Z</time>
      </trkpt>
      <trkpt lat="47.56216" lon="-2.32271">
        <ele>53.3</ele>
        <time>2025-01-16T13:12:26Z</time>
      </trkpt>
      <trkpt lat="47.56216" lon="-2.32271">
        <ele>53.3</ele>
        <time>2025-01-16T13:12:27Z</time>
      </trkpt>
      <trkpt lat="47.56216" lon="-2.32271">
        <ele>53.3</ele>
        <time>2025-01-16T13:12:28Z</time>
      </trkpt>
      <trkpt lat="47.56216" lon="-2.32271">
        <ele>53.3</ele>
        <time>2025-01-16T13:12:29Z</time>
      </trkpt>
      <trkpt lat="47.56216" lon="-2.32272">
        <ele>53.2</ele>
        <time>2025-01-16T13:12:30Z</time>
      </trkpt>
      <trkpt lat="47.56216" lon="-2.32273">
        <ele>53.2</ele>
        <time>2025-01-16T13:12:31Z</time>
      </trkpt>
      <trkpt lat="47.56216" lon="-2.32274">
        <ele>53.1</ele>
        <time>2025-01-16T13:12:32Z</time>
      </trkpt>
      <trkpt lat="47.56217" lon="-2.32276">
        <ele>52.9</ele>
        <time>2025-01-16T13:12:33Z</time>
      </trkpt>
      <trkpt lat="47.56218" lon="-2.32279">
        <ele>52.5</ele>
        <time>2025-01-16T13:12:34Z</time>
      </trkpt>
      <trkpt lat="47.56219" lon="-2.32281">
        <ele>52.2</ele>
        <time>2025-01-16T13:12:35Z</time>
      </trkpt>
      <trkpt lat="47.5622" lon="-2.32282">
        <ele>52</ele>
        <time>2025-01-16T13:12:36Z</time>
      </trkpt>
      <trkpt lat="47.5622" lon="-2.32284">
        <ele>51.9</ele>
        <time>2025-01-16T13:12:37Z</time>
      </trkpt>
      <trkpt lat="47.5622" lon="-2.32286">
        <ele>51.8</ele>
        <time>2025-01-16T13:12:38Z</time>
      </trkpt>
      <trkpt lat="47.5622" lon="-2.3229">
        <ele>51.5</ele>
        <time>2025-01-16T13:12:39Z</time>
      </trkpt>
      <trkpt lat="47.5622" lon="-2.32292">
        <ele>51.3</ele>
        <time>2025-01-16T13:12:40Z</time>
      </trkpt>
      <trkpt lat="47.56221" lon="-2.32293">
        <ele>51.1</ele>
        <time>2025-01-16T13:12:41Z</time>
      </trkpt>
      <trkpt lat="47.56221" lon="-2.32295">
        <ele>51</ele>
        <time>2025-01-16T13:12:42Z</time>
      </trkpt>
      <trkpt lat="47.56221" lon="-2.32296">
        <ele>50.9</ele>
        <time>2025-01-16T13:12:43Z</time>
      </trkpt>
      <trkpt lat="47.56222" lon="-2.32296">
        <ele>50.7</ele>
        <time>2025-01-16T13:12:44Z</time>
      </trkpt>
      <trkpt lat="47.56222" lon="-2.32296">
        <ele>50.7</ele>
        <time>2025-01-16T13:12:45Z</time>
      </trkpt>
      <trkpt lat="47.56222" lon="-2.32296">
        <ele>50.7</ele>
        <time>2025-01-16T13:12:46Z</time>
      </trkpt>
      <trkpt lat="47.56223" lon="-2.32296">
        <ele>50.6</ele>
        <time>2025-01-16T13:12:47Z</time>
      </trkpt>
      <trkpt lat="47.56224" lon="-2.32297">
        <ele>50.5</ele>
        <time>2025-01-16T13:12:48Z</time>
      </trkpt>
      <trkpt lat="47.56225" lon="-2.32297">
        <ele>50.4</ele>
        <time>2025-01-16T13:12:49Z</time>
      </trkpt>
      <trkpt lat="47.56225" lon="-2.32297">
        <ele>50.4</ele>
        <time>2025-01-16T13:12:50Z</time>
      </trkpt>
      <trkpt lat="47.56225" lon="-2.32297">
        <ele>50.4</ele>
        <time>2025-01-16T13:12:51Z</time>
      </trkpt>
      <trkpt lat="47.56226" lon="-2.32296">
        <ele>50.5</ele>
        <time>2025-01-16T13:12:52Z</time>
      </trkpt>
      <trkpt lat="47.56226" lon="-2.32295">
        <ele>50.5</ele>
        <time>2025-01-16T13:12:53Z</time>
      </trkpt>
      <trkpt lat="47.56226" lon="-2.32294">
        <ele>50.6</ele>
        <time>2025-01-16T13:12:54Z</time>
      </trkpt>
      <trkpt lat="47.56226" lon="-2.32294">
        <ele>50.6</ele>
        <time>2025-01-16T13:12:55Z</time>
      </trkpt>
      <trkpt lat="47.56226" lon="-2.32292">
        <ele>50.8</ele>
        <time>2025-01-16T13:12:56Z</time>
      </trkpt>
      <trkpt lat="47.56227" lon="-2.32291">
        <ele>50.8</ele>
        <time>2025-01-16T13:12:57Z</time>
      </trkpt>
      <trkpt lat="47.56227" lon="-2.32289">
        <ele>51</ele>
        <time>2025-01-16T13:12:58Z</time>
      </trkpt>
      <trkpt lat="47.56227" lon="-2.32289">
        <ele>51</ele>
        <time>2025-01-16T13:12:59Z</time>
      </trkpt>
      <trkpt lat="47.56228" lon="-2.32288">
        <ele>51</ele>
        <time>2025-01-16T13:13:00Z</time>
      </trkpt>
      <trkpt lat="47.56228" lon="-2.32288">
        <ele>51</ele>
        <time>2025-01-16T13:13:01Z</time>
      </trkpt>
      <trkpt lat="47.56229" lon="-2.32287">
        <ele>51</ele>
        <time>2025-01-16T13:13:02Z</time>
      </trkpt>
      <trkpt lat="47.5623" lon="-2.32286">
        <ele>51</ele>
        <time>2025-01-16T13:13:03Z</time>
      </trkpt>
      <trkpt lat="47.56231" lon="-2.32286">
        <ele>51</ele>
        <time>2025-01-16T13:13:04Z</time>
      </trkpt>
      <trkpt lat="47.56232" lon="-2.32285">
        <ele>51</ele>
        <time>2025-01-16T13:13:05Z</time>
      </trkpt>
      <trkpt lat="47.56232" lon="-2.32285">
        <ele>51</ele>
        <time>2025-01-16T13:13:06Z</time>
      </trkpt>
      <trkpt lat="47.56234" lon="-2.32285">
        <ele>50.9</ele>
        <time>2025-01-16T13:13:07Z</time>
      </trkpt>
      <trkpt lat="47.56235" lon="-2.32285">
        <ele>50.9</ele>
        <time>2025-01-16T13:13:08Z</time>
      </trkpt>
      <trkpt lat="47.56236" lon="-2.32285">
        <ele>50.9</ele>
        <time>2025-01-16T13:13:09Z</time>
      </trkpt>
      <trkpt lat="47.56237" lon="-2.32284">
        <ele>50.9</ele>
        <time>2025-01-16T13:13:10Z</time>
      </trkpt>
      <trkpt lat="47.56239" lon="-2.32283">
        <ele>50.9</ele>
        <time>2025-01-16T13:13:11Z</time>
      </trkpt>
      <trkpt lat="47.5624" lon="-2.32282">
        <ele>51</ele>
        <time>2025-01-16T13:13:12Z</time>
      </trkpt>
      <trkpt lat="47.5624" lon="-2.32281">
        <ele>51.1</ele>
        <time>2025-01-16T13:13:13Z</time>
      </trkpt>
      <trkpt lat="47.56241" lon="-2.32281">
        <ele>51</ele>
        <time>2025-01-16T13:13:14Z</time>
      </trkpt>
      <trkpt lat="47.56241" lon="-2.32281">
        <ele>51</ele>
        <time>2025-01-16T13:13:15Z</time>
      </trkpt>
      <trkpt lat="47.56242" lon="-2.32281">
        <ele>51</ele>
        <time>2025-01-16T13:13:16Z</time>
      </trkpt>
      <trkpt lat="47.56242" lon="-2.32281">
        <ele>51</ele>
        <time>2025-01-16T13:13:17Z</time>
      </trkpt>
      <trkpt lat="47.56243" lon="-2.32282">
        <ele>50.8</ele>
        <time>2025-01-16T13:13:18Z</time>
      </trkpt>
      <trkpt lat="47.56244" lon="-2.32282">
        <ele>50.8</ele>
        <time>2025-01-16T13:13:19Z</time>
      </trkpt>
      <trkpt lat="47.56245" lon="-2.32282">
        <ele>50.8</ele>
        <time>2025-01-16T13:13:20Z</time>
      </trkpt>
      <trkpt lat="47.56246" lon="-2.32282">
        <ele>50.7</ele>
        <time>2025-01-16T13:13:21Z</time>
      </trkpt>
      <trkpt lat="47.56246" lon="-2.32282">
        <ele>50.7</ele>
        <time>2025-01-16T13:13:22Z</time>
      </trkpt>
      <trkpt lat="47.56247" lon="-2.32282">
        <ele>50.7</ele>
        <time>2025-01-16T13:13:23Z</time>
      </trkpt>
      <trkpt lat="47.56248" lon="-2.32282">
        <ele>50.6</ele>
        <time>2025-01-16T13:13:24Z</time>
      </trkpt>
      <trkpt lat="47.56249" lon="-2.32281">
        <ele>50.7</ele>
        <time>2025-01-16T13:13:25Z</time>
      </trkpt>
      <trkpt lat="47.56249" lon="-2.3228">
        <ele>50.8</ele>
        <time>2025-01-16T13:13:26Z</time>
      </trkpt>
      <trkpt lat="47.5625" lon="-2.3228">
        <ele>50.8</ele>
        <time>2025-01-16T13:13:27Z</time>
      </trkpt>
      <trkpt lat="47.56251" lon="-2.3228">
        <ele>50.7</ele>
        <time>2025-01-16T13:13:28Z</time>
      </trkpt>
      <trkpt lat="47.56252" lon="-2.3228">
        <ele>50.5</ele>
        <time>2025-01-16T13:13:29Z</time>
      </trkpt>
      <trkpt lat="47.56253" lon="-2.32279">
        <ele>50.5</ele>
        <time>2025-01-16T13:13:30Z</time>
      </trkpt>
      <trkpt lat="47.56254" lon="-2.32279">
        <ele>50.4</ele>
        <time>2025-01-16T13:13:31Z</time>
      </trkpt>
      <trkpt lat="47.56255" lon="-2.32278">
        <ele>50.4</ele>
        <time>2025-01-16T13:13:32Z</time>
      </trkpt>
      <trkpt lat="47.56256" lon="-2.32277">
        <ele>50.4</ele>
        <time>2025-01-16T13:13:33Z</time>
      </trkpt>
      <trkpt lat="47.56257" lon="-2.32277">
        <ele>50.3</ele>
        <time>2025-01-16T13:13:34Z</time>
      </trkpt>
      <trkpt lat="47.56258" lon="-2.32277">
        <ele>50.2</ele>
        <time>2025-01-16T13:13:35Z</time>
      </trkpt>
      <trkpt lat="47.56259" lon="-2.32276">
        <ele>50.1</ele>
        <time>2025-01-16T13:13:36Z</time>
      </trkpt>
      <trkpt lat="47.5626" lon="-2.32275">
        <ele>50.1</ele>
        <time>2025-01-16T13:13:37Z</time>
      </trkpt>
      <trkpt lat="47.56261" lon="-2.32273">
        <ele>50.1</ele>
        <time>2025-01-16T13:13:38Z</time>
      </trkpt>
      <trkpt lat="47.56262" lon="-2.32272">
        <ele>50</ele>
        <time>2025-01-16T13:13:39Z</time>
      </trkpt>
      <trkpt lat="47.56263" lon="-2.32271">
        <ele>50</ele>
        <time>2025-01-16T13:13:40Z</time>
      </trkpt>
      <trkpt lat="47.56265" lon="-2.3227">
        <ele>49.8</ele>
        <time>2025-01-16T13:13:41Z</time>
      </trkpt>
      <trkpt lat="47.56266" lon="-2.32268">
        <ele>49.8</ele>
        <time>2025-01-16T13:13:42Z</time>
      </trkpt>
      <trkpt lat="47.56267" lon="-2.32267">
        <ele>49.8</ele>
        <time>2025-01-16T13:13:43Z</time>
      </trkpt>
      <trkpt lat="47.56267" lon="-2.32266">
        <ele>49.8</ele>
        <time>2025-01-16T13:13:44Z</time>
      </trkpt>
      <trkpt lat="47.56269" lon="-2.32264">
        <ele>49.8</ele>
        <time>2025-01-16T13:13:45Z</time>
      </trkpt>
      <trkpt lat="47.56271" lon="-2.32262">
        <ele>49.7</ele>
        <time>2025-01-16T13:13:46Z</time>
      </trkpt>
      <trkpt lat="47.56273" lon="-2.32261">
        <ele>49.6</ele>
        <time>2025-01-16T13:13:47Z</time>
      </trkpt>
      <trkpt lat="47.56274" lon="-2.3226">
        <ele>49.6</ele>
        <time>2025-01-16T13:13:48Z</time>
      </trkpt>
      <trkpt lat="47.56275" lon="-2.32259">
        <ele>49.6</ele>
        <time>2025-01-16T13:13:49Z</time>
      </trkpt>
      <trkpt lat="47.56276" lon="-2.32258">
        <ele>49.6</ele>
        <time>2025-01-16T13:13:50Z</time>
      </trkpt>
      <trkpt lat="47.56277" lon="-2.32258">
        <ele>49.5</ele>
        <time>2025-01-16T13:13:51Z</time>
      </trkpt>
      <trkpt lat="47.56278" lon="-2.32257">
        <ele>49.5</ele>
        <time>2025-01-16T13:13:52Z</time>
      </trkpt>
      <trkpt lat="47.56279" lon="-2.32256">
        <ele>49.4</ele>
        <time>2025-01-16T13:13:53Z</time>
      </trkpt>
      <trkpt lat="47.5628" lon="-2.32255">
        <ele>49.4</ele>
        <time>2025-01-16T13:13:54Z</time>
      </trkpt>
      <trkpt lat="47.56281" lon="-2.32254">
        <ele>49.3</ele>
        <time>2025-01-16T13:13:55Z</time>
      </trkpt>
      <trkpt lat="47.56282" lon="-2.32253">
        <ele>49.3</ele>
        <time>2025-01-16T13:13:56Z</time>
      </trkpt>
      <trkpt lat="47.56283" lon="-2.32252">
        <ele>49.3</ele>
        <time>2025-01-16T13:13:57Z</time>
      </trkpt>
      <trkpt lat="47.56284" lon="-2.32251">
        <ele>49.2</ele>
        <time>2025-01-16T13:13:58Z</time>
      </trkpt>
      <trkpt lat="47.56286" lon="-2.3225">
        <ele>49.1</ele>
        <time>2025-01-16T13:13:59Z</time>
      </trkpt>
      <trkpt lat="47.56287" lon="-2.32248">
        <ele>49.1</ele>
        <time>2025-01-16T13:14:00Z</time>
      </trkpt>
      <trkpt lat="47.56287" lon="-2.32247">
        <ele>49.1</ele>
        <time>2025-01-16T13:14:01Z</time>
      </trkpt>
      <trkpt lat="47.56288" lon="-2.32246">
        <ele>49</ele>
        <time>2025-01-16T13:14:02Z</time>
      </trkpt>
      <trkpt lat="47.56289" lon="-2.32245">
        <ele>49</ele>
        <time>2025-01-16T13:14:03Z</time>
      </trkpt>
      <trkpt lat="47.5629" lon="-2.32243">
        <ele>48.9</ele>
        <time>2025-01-16T13:14:04Z</time>
      </trkpt>
      <trkpt lat="47.56291" lon="-2.32242">
        <ele>48.9</ele>
        <time>2025-01-16T13:14:05Z</time>
      </trkpt>
      <trkpt lat="47.56292" lon="-2.32241">
        <ele>48.8</ele>
        <time>2025-01-16T13:14:06Z</time>
      </trkpt>
      <trkpt lat="47.56293" lon="-2.32239">
        <ele>48.8</ele>
        <time>2025-01-16T13:14:07Z</time>
      </trkpt>
      <trkpt lat="47.56293" lon="-2.32238">
        <ele>48.8</ele>
        <time>2025-01-16T13:14:08Z</time>
      </trkpt>
      <trkpt lat="47.56294" lon="-2.32237">
        <ele>48.7</ele>
        <time>2025-01-16T13:14:09Z</time>
      </trkpt>
      <trkpt lat="47.56294" lon="-2.32236">
        <ele>48.8</ele>
        <time>2025-01-16T13:14:10Z</time>
      </trkpt>
      <trkpt lat="47.56295" lon="-2.32235">
        <ele>48.7</ele>
        <time>2025-01-16T13:14:11Z</time>
      </trkpt>
      <trkpt lat="47.56295" lon="-2.32233">
        <ele>48.8</ele>
        <time>2025-01-16T13:14:12Z</time>
      </trkpt>
      <trkpt lat="47.56295" lon="-2.32231">
        <ele>48.8</ele>
        <time>2025-01-16T13:14:13Z</time>
      </trkpt>
      <trkpt lat="47.56295" lon="-2.3223">
        <ele>48.9</ele>
        <time>2025-01-16T13:14:14Z</time>
      </trkpt>
      <trkpt lat="47.56295" lon="-2.32228">
        <ele>48.9</ele>
        <time>2025-01-16T13:14:15Z</time>
      </trkpt>
      <trkpt lat="47.56296" lon="-2.32227">
        <ele>48.9</ele>
        <time>2025-01-16T13:14:16Z</time>
      </trkpt>
      <trkpt lat="47.56296" lon="-2.32225">
        <ele>48.9</ele>
        <time>2025-01-16T13:14:17Z</time>
      </trkpt>
      <trkpt lat="47.56296" lon="-2.32223">
        <ele>49</ele>
        <time>2025-01-16T13:14:18Z</time>
      </trkpt>
      <trkpt lat="47.56296" lon="-2.32222">
        <ele>49</ele>
        <time>2025-01-16T13:14:19Z</time>
      </trkpt>
      <trkpt lat="47.56296" lon="-2.32219">
        <ele>48.9</ele>
        <time>2025-01-16T13:14:20Z</time>
      </trkpt>
      <trkpt lat="47.56295" lon="-2.32216">
        <ele>48.9</ele>
        <time>2025-01-16T13:14:21Z</time>
      </trkpt>
      <trkpt lat="47.56295" lon="-2.32214">
        <ele>48.8</ele>
        <time>2025-01-16T13:14:22Z</time>
      </trkpt>
      <trkpt lat="47.56295" lon="-2.32211">
        <ele>48.6</ele>
        <time>2025-01-16T13:14:23Z</time>
      </trkpt>
      <trkpt lat="47.56295" lon="-2.32208">
        <ele>48.5</ele>
        <time>2025-01-16T13:14:24Z</time>
      </trkpt>
      <trkpt lat="47.56295" lon="-2.32206">
        <ele>48.4</ele>
        <time>2025-01-16T13:14:25Z</time>
      </trkpt>
      <trkpt lat="47.56295" lon="-2.32204">
        <ele>48.3</ele>
        <time>2025-01-16T13:14:26Z</time>
      </trkpt>
      <trkpt lat="47.56295" lon="-2.32202">
        <ele>48.2</ele>
        <time>2025-01-16T13:14:27Z</time>
      </trkpt>
      <trkpt lat="47.56295" lon="-2.322">
        <ele>48.1</ele>
        <time>2025-01-16T13:14:28Z</time>
      </trkpt>
      <trkpt lat="47.56296" lon="-2.32199">
        <ele>47.9</ele>
        <time>2025-01-16T13:14:29Z</time>
      </trkpt>
      <trkpt lat="47.56296" lon="-2.32197">
        <ele>47.8</ele>
        <time>2025-01-16T13:14:30Z</time>
      </trkpt>
      <trkpt lat="47.56296" lon="-2.32196">
        <ele>47.8</ele>
        <time>2025-01-16T13:14:31Z</time>
      </trkpt>
      <trkpt lat="47.56297" lon="-2.32195">
        <ele>47.6</ele>
        <time>2025-01-16T13:14:32Z</time>
      </trkpt>
      <trkpt lat="47.56297" lon="-2.32193">
        <ele>47.5</ele>
        <time>2025-01-16T13:14:33Z</time>
      </trkpt>
      <trkpt lat="47.56297" lon="-2.32192">
        <ele>47.5</ele>
        <time>2025-01-16T13:14:34Z</time>
      </trkpt>
      <trkpt lat="47.56297" lon="-2.3219">
        <ele>47.4</ele>
        <time>2025-01-16T13:14:35Z</time>
      </trkpt>
      <trkpt lat="47.56297" lon="-2.32188">
        <ele>47.4</ele>
        <time>2025-01-16T13:14:36Z</time>
      </trkpt>
      <trkpt lat="47.56297" lon="-2.32186">
        <ele>47.3</ele>
        <time>2025-01-16T13:14:37Z</time>
      </trkpt>
      <trkpt lat="47.56297" lon="-2.32184">
        <ele>47.3</ele>
        <time>2025-01-16T13:14:38Z</time>
      </trkpt>
      <trkpt lat="47.56296" lon="-2.32183">
        <ele>47.4</ele>
        <time>2025-01-16T13:14:39Z</time>
      </trkpt>
      <trkpt lat="47.56296" lon="-2.32181">
        <ele>47.4</ele>
        <time>2025-01-16T13:14:40Z</time>
      </trkpt>
      <trkpt lat="47.56296" lon="-2.3218">
        <ele>47.4</ele>
        <time>2025-01-16T13:14:41Z</time>
      </trkpt>
      <trkpt lat="47.56296" lon="-2.32178">
        <ele>47.3</ele>
        <time>2025-01-16T13:14:42Z</time>
      </trkpt>
      <trkpt lat="47.56296" lon="-2.32176">
        <ele>47.3</ele>
        <time>2025-01-16T13:14:43Z</time>
      </trkpt>
      <trkpt lat="47.56296" lon="-2.32174">
        <ele>47.2</ele>
        <time>2025-01-16T13:14:44Z</time>
      </trkpt>
      <trkpt lat="47.56295" lon="-2.32173">
        <ele>47.4</ele>
        <time>2025-01-16T13:14:45Z</time>
      </trkpt>
      <trkpt lat="47.56295" lon="-2.32172">
        <ele>47.4</ele>
        <time>2025-01-16T13:14:46Z</time>
      </trkpt>
      <trkpt lat="47.56295" lon="-2.32171">
        <ele>47.4</ele>
        <time>2025-01-16T13:14:47Z</time>
      </trkpt>
      <trkpt lat="47.56295" lon="-2.3217">
        <ele>47.4</ele>
        <time>2025-01-16T13:14:48Z</time>
      </trkpt>
      <trkpt lat="47.56295" lon="-2.3217">
        <ele>47.4</ele>
        <time>2025-01-16T13:14:49Z</time>
      </trkpt>
      <trkpt lat="47.56295" lon="-2.32169">
        <ele>47.3</ele>
        <time>2025-01-16T13:14:50Z</time>
      </trkpt>
      <trkpt lat="47.56294" lon="-2.32169">
        <ele>47.5</ele>
        <time>2025-01-16T13:14:51Z</time>
      </trkpt>
      <trkpt lat="47.56294" lon="-2.32168">
        <ele>47.5</ele>
        <time>2025-01-16T13:14:52Z</time>
      </trkpt>
      <trkpt lat="47.56293" lon="-2.32167">
        <ele>47.7</ele>
        <time>2025-01-16T13:14:53Z</time>
      </trkpt>
      <trkpt lat="47.56293" lon="-2.32165">
        <ele>47.7</ele>
        <time>2025-01-16T13:14:54Z</time>
      </trkpt>
      <trkpt lat="47.56293" lon="-2.32164">
        <ele>47.6</ele>
        <time>2025-01-16T13:14:55Z</time>
      </trkpt>
      <trkpt lat="47.56293" lon="-2.32162">
        <ele>47.5</ele>
        <time>2025-01-16T13:14:56Z</time>
      </trkpt>
      <trkpt lat="47.56293" lon="-2.32161">
        <ele>47.5</ele>
        <time>2025-01-16T13:14:57Z</time>
      </trkpt>
      <trkpt lat="47.56292" lon="-2.3216">
        <ele>47.7</ele>
        <time>2025-01-16T13:14:58Z</time>
      </trkpt>
      <trkpt lat="47.56292" lon="-2.32159">
        <ele>47.7</ele>
        <time>2025-01-16T13:14:59Z</time>
      </trkpt>
      <trkpt lat="47.56292" lon="-2.32158">
        <ele>47.6</ele>
        <time>2025-01-16T13:15:00Z</time>
      </trkpt>
      <trkpt lat="47.56292" lon="-2.32157">
        <ele>47.6</ele>
        <time>2025-01-16T13:15:01Z</time>
      </trkpt>
      <trkpt lat="47.56292" lon="-2.32155">
        <ele>47.5</ele>
        <time>2025-01-16T13:15:02Z</time>
      </trkpt>
      <trkpt lat="47.56291" lon="-2.32154">
        <ele>47.7</ele>
        <time>2025-01-16T13:15:03Z</time>
      </trkpt>
      <trkpt lat="47.56292" lon="-2.32152">
        <ele>47.4</ele>
        <time>2025-01-16T13:15:04Z</time>
      </trkpt>
      <trkpt lat="47.56293" lon="-2.32151">
        <ele>47.1</ele>
        <time>2025-01-16T13:15:05Z</time>
      </trkpt>
      <trkpt lat="47.56294" lon="-2.32149">
        <ele>46.9</ele>
        <time>2025-01-16T13:15:06Z</time>
      </trkpt>
      <trkpt lat="47.56296" lon="-2.32148">
        <ele>46.4</ele>
        <time>2025-01-16T13:15:07Z</time>
      </trkpt>
      <trkpt lat="47.56297" lon="-2.32146">
        <ele>46.1</ele>
        <time>2025-01-16T13:15:08Z</time>
      </trkpt>
      <trkpt lat="47.56298" lon="-2.32145">
        <ele>45.9</ele>
        <time>2025-01-16T13:15:09Z</time>
      </trkpt>
      <trkpt lat="47.56298" lon="-2.32143">
        <ele>45.8</ele>
        <time>2025-01-16T13:15:10Z</time>
      </trkpt>
      <trkpt lat="47.56299" lon="-2.32141">
        <ele>45.5</ele>
        <time>2025-01-16T13:15:11Z</time>
      </trkpt>
      <trkpt lat="47.563" lon="-2.32139">
        <ele>45.2</ele>
        <time>2025-01-16T13:15:12Z</time>
      </trkpt>
      <trkpt lat="47.56301" lon="-2.32137">
        <ele>45</ele>
        <time>2025-01-16T13:15:13Z</time>
      </trkpt>
      <trkpt lat="47.56301" lon="-2.32135">
        <ele>45.1</ele>
        <time>2025-01-16T13:15:14Z</time>
      </trkpt>
      <trkpt lat="47.56302" lon="-2.32133">
        <ele>45</ele>
        <time>2025-01-16T13:15:15Z</time>
      </trkpt>
      <trkpt lat="47.56303" lon="-2.32131">
        <ele>44.8</ele>
        <time>2025-01-16T13:15:16Z</time>
      </trkpt>
      <trkpt lat="47.56304" lon="-2.3213">
        <ele>44.6</ele>
        <time>2025-01-16T13:15:17Z</time>
      </trkpt>
      <trkpt lat="47.56305" lon="-2.32128">
        <ele>44.5</ele>
        <time>2025-01-16T13:15:18Z</time>
      </trkpt>
      <trkpt lat="47.56306" lon="-2.32126">
        <ele>44.3</ele>
        <time>2025-01-16T13:15:19Z</time>
      </trkpt>
      <trkpt lat="47.56307" lon="-2.32124">
        <ele>44</ele>
        <time>2025-01-16T13:15:20Z</time>
      </trkpt>
      <trkpt lat="47.56308" lon="-2.32123">
        <ele>43.7</ele>
        <time>2025-01-16T13:15:21Z</time>
      </trkpt>
      <trkpt lat="47.56309" lon="-2.32121">
        <ele>43.5</ele>
        <time>2025-01-16T13:15:22Z</time>
      </trkpt>
      <trkpt lat="47.56309" lon="-2.32119">
        <ele>43.6</ele>
        <time>2025-01-16T13:15:23Z</time>
      </trkpt>
      <trkpt lat="47.56309" lon="-2.32118">
        <ele>43.6</ele>
        <time>2025-01-16T13:15:24Z</time>
      </trkpt>
      <trkpt lat="47.5631" lon="-2.32116">
        <ele>43.4</ele>
        <time>2025-01-16T13:15:25Z</time>
      </trkpt>
      <trkpt lat="47.5631" lon="-2.32115">
        <ele>43.4</ele>
        <time>2025-01-16T13:15:26Z</time>
      </trkpt>
      <trkpt lat="47.5631" lon="-2.32113">
        <ele>43.5</ele>
        <time>2025-01-16T13:15:27Z</time>
      </trkpt>
      <trkpt lat="47.5631" lon="-2.32111">
        <ele>43.6</ele>
        <time>2025-01-16T13:15:28Z</time>
      </trkpt>
      <trkpt lat="47.5631" lon="-2.3211">
        <ele>43.6</ele>
        <time>2025-01-16T13:15:29Z</time>
      </trkpt>
      <trkpt lat="47.56311" lon="-2.32109">
        <ele>43.3</ele>
        <time>2025-01-16T13:15:30Z</time>
      </trkpt>
      <trkpt lat="47.56311" lon="-2.32107">
        <ele>43.3</ele>
        <time>2025-01-16T13:15:31Z</time>
      </trkpt>
      <trkpt lat="47.56311" lon="-2.32106">
        <ele>43.3</ele>
        <time>2025-01-16T13:15:32Z</time>
      </trkpt>
      <trkpt lat="47.56312" lon="-2.32105">
        <ele>43</ele>
        <time>2025-01-16T13:15:33Z</time>
      </trkpt>
      <trkpt lat="47.56312" lon="-2.32103">
        <ele>43</ele>
        <time>2025-01-16T13:15:34Z</time>
      </trkpt>
      <trkpt lat="47.56312" lon="-2.32102">
        <ele>43.1</ele>
        <time>2025-01-16T13:15:35Z</time>
      </trkpt>
      <trkpt lat="47.56312" lon="-2.32101">
        <ele>43.1</ele>
        <time>2025-01-16T13:15:36Z</time>
      </trkpt>
      <trkpt lat="47.56313" lon="-2.32099">
        <ele>42.8</ele>
        <time>2025-01-16T13:15:37Z</time>
      </trkpt>
      <trkpt lat="47.56313" lon="-2.32096">
        <ele>42.9</ele>
        <time>2025-01-16T13:15:38Z</time>
      </trkpt>
      <trkpt lat="47.56314" lon="-2.32094">
        <ele>42.6</ele>
        <time>2025-01-16T13:15:39Z</time>
      </trkpt>
      <trkpt lat="47.56314" lon="-2.32093">
        <ele>42.7</ele>
        <time>2025-01-16T13:15:40Z</time>
      </trkpt>
      <trkpt lat="47.56315" lon="-2.32091">
        <ele>42.4</ele>
        <time>2025-01-16T13:15:41Z</time>
      </trkpt>
      <trkpt lat="47.56315" lon="-2.32089">
        <ele>42.5</ele>
        <time>2025-01-16T13:15:42Z</time>
      </trkpt>
      <trkpt lat="47.56315" lon="-2.32087">
        <ele>42.5</ele>
        <time>2025-01-16T13:15:43Z</time>
      </trkpt>
      <trkpt lat="47.56315" lon="-2.32086">
        <ele>42.6</ele>
        <time>2025-01-16T13:15:44Z</time>
      </trkpt>
      <trkpt lat="47.56317" lon="-2.32084">
        <ele>42.1</ele>
        <time>2025-01-16T13:15:45Z</time>
      </trkpt>
      <trkpt lat="47.56318" lon="-2.32083">
        <ele>41.9</ele>
        <time>2025-01-16T13:15:46Z</time>
      </trkpt>
      <trkpt lat="47.56319" lon="-2.32082">
        <ele>41.9</ele>
        <time>2025-01-16T13:15:47Z</time>
      </trkpt>
      <trkpt lat="47.5632" lon="-2.32081">
        <ele>41.8</ele>
        <time>2025-01-16T13:15:48Z</time>
      </trkpt>
      <trkpt lat="47.56321" lon="-2.32079">
        <ele>42</ele>
        <time>2025-01-16T13:15:49Z</time>
      </trkpt>
      <trkpt lat="47.56322" lon="-2.32078">
        <ele>41.9</ele>
        <time>2025-01-16T13:15:50Z</time>
      </trkpt>
      <trkpt lat="47.56323" lon="-2.32077">
        <ele>41.9</ele>
        <time>2025-01-16T13:15:51Z</time>
      </trkpt>
      <trkpt lat="47.56324" lon="-2.32076">
        <ele>41.8</ele>
        <time>2025-01-16T13:15:52Z</time>
      </trkpt>
      <trkpt lat="47.56325" lon="-2.32074">
        <ele>42</ele>
        <time>2025-01-16T13:15:53Z</time>
      </trkpt>
      <trkpt lat="47.56326" lon="-2.32073">
        <ele>42</ele>
        <time>2025-01-16T13:15:54Z</time>
      </trkpt>
      <trkpt lat="47.56327" lon="-2.32072">
        <ele>42</ele>
        <time>2025-01-16T13:15:55Z</time>
      </trkpt>
      <trkpt lat="47.56327" lon="-2.3207">
        <ele>42.4</ele>
        <time>2025-01-16T13:15:56Z</time>
      </trkpt>
      <trkpt lat="47.56328" lon="-2.32069">
        <ele>42.3</ele>
        <time>2025-01-16T13:15:57Z</time>
      </trkpt>
      <trkpt lat="47.56328" lon="-2.32068">
        <ele>42.6</ele>
        <time>2025-01-16T13:15:58Z</time>
      </trkpt>
      <trkpt lat="47.56328" lon="-2.32067">
        <ele>42.8</ele>
        <time>2025-01-16T13:15:59Z</time>
      </trkpt>
      <trkpt lat="47.56328" lon="-2.32065">
        <ele>43.2</ele>
        <time>2025-01-16T13:16:00Z</time>
      </trkpt>
      <trkpt lat="47.56328" lon="-2.32064">
        <ele>43.4</ele>
        <time>2025-01-16T13:16:01Z</time>
      </trkpt>
      <trkpt lat="47.56328" lon="-2.32064">
        <ele>43.4</ele>
        <time>2025-01-16T13:16:02Z</time>
      </trkpt>
      <trkpt lat="47.56329" lon="-2.32063">
        <ele>43.4</ele>
        <time>2025-01-16T13:16:03Z</time>
      </trkpt>
      <trkpt lat="47.56329" lon="-2.32061">
        <ele>43.8</ele>
        <time>2025-01-16T13:16:04Z</time>
      </trkpt>
      <trkpt lat="47.5633" lon="-2.3206">
        <ele>43.8</ele>
        <time>2025-01-16T13:16:05Z</time>
      </trkpt>
      <trkpt lat="47.5633" lon="-2.32057">
        <ele>44.4</ele>
        <time>2025-01-16T13:16:06Z</time>
      </trkpt>
      <trkpt lat="47.5633" lon="-2.32056">
        <ele>44.6</ele>
        <time>2025-01-16T13:16:07Z</time>
      </trkpt>
      <trkpt lat="47.5633" lon="-2.32055">
        <ele>44.8</ele>
        <time>2025-01-16T13:16:08Z</time>
      </trkpt>
      <trkpt lat="47.5633" lon="-2.32053">
        <ele>45.2</ele>
        <time>2025-01-16T13:16:09Z</time>
      </trkpt>
      <trkpt lat="47.5633" lon="-2.32052">
        <ele>45.3</ele>
        <time>2025-01-16T13:16:10Z</time>
      </trkpt>
      <trkpt lat="47.5633" lon="-2.3205">
        <ele>45.7</ele>
        <time>2025-01-16T13:16:11Z</time>
      </trkpt>
      <trkpt lat="47.5633" lon="-2.32048">
        <ele>46</ele>
        <time>2025-01-16T13:16:12Z</time>
      </trkpt>
      <trkpt lat="47.5633" lon="-2.32046">
        <ele>46.4</ele>
        <time>2025-01-16T13:16:13Z</time>
      </trkpt>
      <trkpt lat="47.5633" lon="-2.32044">
        <ele>46.7</ele>
        <time>2025-01-16T13:16:14Z</time>
      </trkpt>
      <trkpt lat="47.56331" lon="-2.32043">
        <ele>46.7</ele>
        <time>2025-01-16T13:16:15Z</time>
      </trkpt>
      <trkpt lat="47.56331" lon="-2.32041">
        <ele>47</ele>
        <time>2025-01-16T13:16:16Z</time>
      </trkpt>
      <trkpt lat="47.56332" lon="-2.3204">
        <ele>47</ele>
        <time>2025-01-16T13:16:17Z</time>
      </trkpt>
      <trkpt lat="47.56332" lon="-2.32038">
        <ele>47.4</ele>
        <time>2025-01-16T13:16:18Z</time>
      </trkpt>
      <trkpt lat="47.56333" lon="-2.32037">
        <ele>47.4</ele>
        <time>2025-01-16T13:16:19Z</time>
      </trkpt>
      <trkpt lat="47.56333" lon="-2.32035">
        <ele>47.8</ele>
        <time>2025-01-16T13:16:20Z</time>
      </trkpt>
      <trkpt lat="47.56334" lon="-2.32034">
        <ele>47.7</ele>
        <time>2025-01-16T13:16:21Z</time>
      </trkpt>
      <trkpt lat="47.56335" lon="-2.32032">
        <ele>47.7</ele>
        <time>2025-01-16T13:16:22Z</time>
      </trkpt>
      <trkpt lat="47.56336" lon="-2.32031">
        <ele>47.6</ele>
        <time>2025-01-16T13:16:23Z</time>
      </trkpt>
      <trkpt lat="47.56336" lon="-2.3203">
        <ele>47.7</ele>
        <time>2025-01-16T13:16:24Z</time>
      </trkpt>
      <trkpt lat="47.56337" lon="-2.32028">
        <ele>47.8</ele>
        <time>2025-01-16T13:16:25Z</time>
      </trkpt>
      <trkpt lat="47.56337" lon="-2.32027">
        <ele>47.9</ele>
        <time>2025-01-16T13:16:26Z</time>
      </trkpt>
      <trkpt lat="47.56337" lon="-2.32026">
        <ele>48.1</ele>
        <time>2025-01-16T13:16:27Z</time>
      </trkpt>
      <trkpt lat="47.56338" lon="-2.32024">
        <ele>48.1</ele>
        <time>2025-01-16T13:16:28Z</time>
      </trkpt>
      <trkpt lat="47.56338" lon="-2.32022">
        <ele>48.4</ele>
        <time>2025-01-16T13:16:29Z</time>
      </trkpt>
      <trkpt lat="47.56338" lon="-2.32021">
        <ele>48.5</ele>
        <time>2025-01-16T13:16:30Z</time>
      </trkpt>
      <trkpt lat="47.56337" lon="-2.3202">
        <ele>49</ele>
        <time>2025-01-16T13:16:31Z</time>
      </trkpt>
      <trkpt lat="47.56338" lon="-2.32019">
        <ele>48.9</ele>
        <time>2025-01-16T13:16:32Z</time>
      </trkpt>
      <trkpt lat="47.56338" lon="-2.32018">
        <ele>49</ele>
        <time>2025-01-16T13:16:33Z</time>
      </trkpt>
      <trkpt lat="47.56339" lon="-2.32017">
        <ele>48.9</ele>
        <time>2025-01-16T13:16:34Z</time>
      </trkpt>
      <trkpt lat="47.56339" lon="-2.32015">
        <ele>49.2</ele>
        <time>2025-01-16T13:16:35Z</time>
      </trkpt>
      <trkpt lat="47.5634" lon="-2.32014">
        <ele>49.1</ele>
        <time>2025-01-16T13:16:36Z</time>
      </trkpt>
      <trkpt lat="47.5634" lon="-2.32013">
        <ele>49.2</ele>
        <time>2025-01-16T13:16:37Z</time>
      </trkpt>
      <trkpt lat="47.5634" lon="-2.32012">
        <ele>49.4</ele>
        <time>2025-01-16T13:16:38Z</time>
      </trkpt>
      <trkpt lat="47.56341" lon="-2.3201">
        <ele>49.4</ele>
        <time>2025-01-16T13:16:39Z</time>
      </trkpt>
      <trkpt lat="47.56342" lon="-2.32008">
        <ele>49.5</ele>
        <time>2025-01-16T13:16:40Z</time>
      </trkpt>
      <trkpt lat="47.56343" lon="-2.32006">
        <ele>49.5</ele>
        <time>2025-01-16T13:16:41Z</time>
      </trkpt>
      <trkpt lat="47.56343" lon="-2.32005">
        <ele>49.7</ele>
        <time>2025-01-16T13:16:42Z</time>
      </trkpt>
      <trkpt lat="47.56343" lon="-2.32003">
        <ele>50.1</ele>
        <time>2025-01-16T13:16:43Z</time>
      </trkpt>
      <trkpt lat="47.56344" lon="-2.32002">
        <ele>50</ele>
        <time>2025-01-16T13:16:44Z</time>
      </trkpt>
      <trkpt lat="47.56344" lon="-2.32001">
        <ele>50.1</ele>
        <time>2025-01-16T13:16:45Z</time>
      </trkpt>
      <trkpt lat="47.56345" lon="-2.32">
        <ele>50.1</ele>
        <time>2025-01-16T13:16:46Z</time>
      </trkpt>
      <trkpt lat="47.56345" lon="-2.31998">
        <ele>50.3</ele>
        <time>2025-01-16T13:16:47Z</time>
      </trkpt>
      <trkpt lat="47.56346" lon="-2.31997">
        <ele>50.2</ele>
        <time>2025-01-16T13:16:48Z</time>
      </trkpt>
      <trkpt lat="47.56347" lon="-2.31996">
        <ele>50.1</ele>
        <time>2025-01-16T13:16:49Z</time>
      </trkpt>
      <trkpt lat="47.56347" lon="-2.31995">
        <ele>50.2</ele>
        <time>2025-01-16T13:16:50Z</time>
      </trkpt>
      <trkpt lat="47.56348" lon="-2.31994">
        <ele>50.1</ele>
        <time>2025-01-16T13:16:51Z</time>
      </trkpt>
      <trkpt lat="47.56349" lon="-2.31992">
        <ele>50.1</ele>
        <time>2025-01-16T13:16:52Z</time>
      </trkpt>
      <trkpt lat="47.5635" lon="-2.31991">
        <ele>50</ele>
        <time>2025-01-16T13:16:53Z</time>
      </trkpt>
      <trkpt lat="47.5635" lon="-2.31989">
        <ele>50.3</ele>
        <time>2025-01-16T13:16:54Z</time>
      </trkpt>
      <trkpt lat="47.5635" lon="-2.31988">
        <ele>50.4</ele>
        <time>2025-01-16T13:16:55Z</time>
      </trkpt>
      <trkpt lat="47.56351" lon="-2.31987">
        <ele>50.4</ele>
        <time>2025-01-16T13:16:56Z</time>
      </trkpt>
      <trkpt lat="47.56351" lon="-2.31986">
        <ele>50.5</ele>
        <time>2025-01-16T13:16:57Z</time>
      </trkpt>
      <trkpt lat="47.56352" lon="-2.31984">
        <ele>50.6</ele>
        <time>2025-01-16T13:16:58Z</time>
      </trkpt>
      <trkpt lat="47.56352" lon="-2.31982">
        <ele>50.9</ele>
        <time>2025-01-16T13:16:59Z</time>
      </trkpt>
      <trkpt lat="47.56353" lon="-2.31981">
        <ele>50.9</ele>
        <time>2025-01-16T13:17:00Z</time>
      </trkpt>
      <trkpt lat="47.56353" lon="-2.31979">
        <ele>51.2</ele>
        <time>2025-01-16T13:17:01Z</time>
      </trkpt>
      <trkpt lat="47.56354" lon="-2.31978">
        <ele>51.1</ele>
        <time>2025-01-16T13:17:02Z</time>
      </trkpt>
      <trkpt lat="47.56354" lon="-2.31976">
        <ele>51.4</ele>
        <time>2025-01-16T13:17:03Z</time>
      </trkpt>
      <trkpt lat="47.56354" lon="-2.31974">
        <ele>51.8</ele>
        <time>2025-01-16T13:17:04Z</time>
      </trkpt>
      <trkpt lat="47.56354" lon="-2.31972">
        <ele>52</ele>
        <time>2025-01-16T13:17:05Z</time>
      </trkpt>
      <trkpt lat="47.56355" lon="-2.31971">
        <ele>52</ele>
        <time>2025-01-16T13:17:06Z</time>
      </trkpt>
      <trkpt lat="47.56355" lon="-2.31969">
        <ele>52.2</ele>
        <time>2025-01-16T13:17:07Z</time>
      </trkpt>
      <trkpt lat="47.56356" lon="-2.31968">
        <ele>52.2</ele>
        <time>2025-01-16T13:17:08Z</time>
      </trkpt>
      <trkpt lat="47.56357" lon="-2.31967">
        <ele>52.1</ele>
        <time>2025-01-16T13:17:09Z</time>
      </trkpt>
      <trkpt lat="47.56358" lon="-2.31966">
        <ele>52.1</ele>
        <time>2025-01-16T13:17:10Z</time>
      </trkpt>
      <trkpt lat="47.56359" lon="-2.31965">
        <ele>52.1</ele>
        <time>2025-01-16T13:17:11Z</time>
      </trkpt>
      <trkpt lat="47.56359" lon="-2.31965">
        <ele>52.1</ele>
        <time>2025-01-16T13:17:12Z</time>
      </trkpt>
      <trkpt lat="47.5636" lon="-2.31963">
        <ele>52.1</ele>
        <time>2025-01-16T13:17:13Z</time>
      </trkpt>
      <trkpt lat="47.56361" lon="-2.31962">
        <ele>52.1</ele>
        <time>2025-01-16T13:17:14Z</time>
      </trkpt>
      <trkpt lat="47.56362" lon="-2.31961">
        <ele>51.9</ele>
        <time>2025-01-16T13:17:15Z</time>
      </trkpt>
      <trkpt lat="47.56363" lon="-2.3196">
        <ele>51.7</ele>
        <time>2025-01-16T13:17:16Z</time>
      </trkpt>
      <trkpt lat="47.56363" lon="-2.31959">
        <ele>51.8</ele>
        <time>2025-01-16T13:17:17Z</time>
      </trkpt>
      <trkpt lat="47.56364" lon="-2.31958">
        <ele>51.6</ele>
        <time>2025-01-16T13:17:18Z</time>
      </trkpt>
      <trkpt lat="47.56364" lon="-2.31957">
        <ele>51.7</ele>
        <time>2025-01-16T13:17:19Z</time>
      </trkpt>
      <trkpt lat="47.56366" lon="-2.31956">
        <ele>51.2</ele>
        <time>2025-01-16T13:17:20Z</time>
      </trkpt>
      <trkpt lat="47.56367" lon="-2.31954">
        <ele>51.1</ele>
        <time>2025-01-16T13:17:21Z</time>
      </trkpt>
      <trkpt lat="47.56368" lon="-2.31953">
        <ele>50.9</ele>
        <time>2025-01-16T13:17:22Z</time>
      </trkpt>
      <trkpt lat="47.56368" lon="-2.31953">
        <ele>50.9</ele>
        <time>2025-01-16T13:17:23Z</time>
      </trkpt>
      <trkpt lat="47.56369" lon="-2.31951">
        <ele>50.9</ele>
        <time>2025-01-16T13:17:24Z</time>
      </trkpt>
      <trkpt lat="47.5637" lon="-2.3195">
        <ele>50.7</ele>
        <time>2025-01-16T13:17:25Z</time>
      </trkpt>
      <trkpt lat="47.56371" lon="-2.31948">
        <ele>50.7</ele>
        <time>2025-01-16T13:17:26Z</time>
      </trkpt>
      <trkpt lat="47.56372" lon="-2.31946">
        <ele>50.7</ele>
        <time>2025-01-16T13:17:27Z</time>
      </trkpt>
      <trkpt lat="47.56373" lon="-2.31945">
        <ele>50.5</ele>
        <time>2025-01-16T13:17:28Z</time>
      </trkpt>
      <trkpt lat="47.56374" lon="-2.31944">
        <ele>50.3</ele>
        <time>2025-01-16T13:17:29Z</time>
      </trkpt>
      <trkpt lat="47.56374" lon="-2.31942">
        <ele>50.6</ele>
        <time>2025-01-16T13:17:30Z</time>
      </trkpt>
      <trkpt lat="47.56374" lon="-2.31941">
        <ele>50.7</ele>
        <time>2025-01-16T13:17:31Z</time>
      </trkpt>
      <trkpt lat="47.56374" lon="-2.31939">
        <ele>51</ele>
        <time>2025-01-16T13:17:32Z</time>
      </trkpt>
      <trkpt lat="47.56374" lon="-2.31937">
        <ele>51.2</ele>
        <time>2025-01-16T13:17:33Z</time>
      </trkpt>
      <trkpt lat="47.56374" lon="-2.31936">
        <ele>51.3</ele>
        <time>2025-01-16T13:17:34Z</time>
      </trkpt>
      <trkpt lat="47.56375" lon="-2.31934">
        <ele>51.3</ele>
        <time>2025-01-16T13:17:35Z</time>
      </trkpt>
      <trkpt lat="47.56376" lon="-2.31932">
        <ele>51.3</ele>
        <time>2025-01-16T13:17:36Z</time>
      </trkpt>
      <trkpt lat="47.56376" lon="-2.31931">
        <ele>51.5</ele>
        <time>2025-01-16T13:17:37Z</time>
      </trkpt>
      <trkpt lat="47.56377" lon="-2.31929">
        <ele>51.5</ele>
        <time>2025-01-16T13:17:38Z</time>
      </trkpt>
      <trkpt lat="47.56378" lon="-2.31927">
        <ele>51.5</ele>
        <time>2025-01-16T13:17:39Z</time>
      </trkpt>
      <trkpt lat="47.56378" lon="-2.31926">
        <ele>51.7</ele>
        <time>2025-01-16T13:17:40Z</time>
      </trkpt>
      <trkpt lat="47.56378" lon="-2.31924">
        <ele>52</ele>
        <time>2025-01-16T13:17:41Z</time>
      </trkpt>
      <trkpt lat="47.56379" lon="-2.31923">
        <ele>51.9</ele>
        <time>2025-01-16T13:17:42Z</time>
      </trkpt>
      <trkpt lat="47.56379" lon="-2.31922">
        <ele>52</ele>
        <time>2025-01-16T13:17:43Z</time>
      </trkpt>
      <trkpt lat="47.5638" lon="-2.31921">
        <ele>52</ele>
        <time>2025-01-16T13:17:44Z</time>
      </trkpt>
      <trkpt lat="47.56381" lon="-2.31919">
        <ele>52.1</ele>
        <time>2025-01-16T13:17:45Z</time>
      </trkpt>
      <trkpt lat="47.56381" lon="-2.31918">
        <ele>52.2</ele>
        <time>2025-01-16T13:17:46Z</time>
      </trkpt>
      <trkpt lat="47.56381" lon="-2.31916">
        <ele>52.5</ele>
        <time>2025-01-16T13:17:47Z</time>
      </trkpt>
      <trkpt lat="47.56382" lon="-2.31915">
        <ele>52.4</ele>
        <time>2025-01-16T13:17:48Z</time>
      </trkpt>
      <trkpt lat="47.56382" lon="-2.31914">
        <ele>52.5</ele>
        <time>2025-01-16T13:17:49Z</time>
      </trkpt>
      <trkpt lat="47.56383" lon="-2.31912">
        <ele>52.5</ele>
        <time>2025-01-16T13:17:50Z</time>
      </trkpt>
      <trkpt lat="47.56384" lon="-2.31911">
        <ele>52.4</ele>
        <time>2025-01-16T13:17:51Z</time>
      </trkpt>
      <trkpt lat="47.56384" lon="-2.31911">
        <ele>52.4</ele>
        <time>2025-01-16T13:17:52Z</time>
      </trkpt>
      <trkpt lat="47.56385" lon="-2.3191">
        <ele>52.4</ele>
        <time>2025-01-16T13:17:53Z</time>
      </trkpt>
      <trkpt lat="47.56386" lon="-2.31909">
        <ele>52.3</ele>
        <time>2025-01-16T13:17:54Z</time>
      </trkpt>
      <trkpt lat="47.56387" lon="-2.31908">
        <ele>52.2</ele>
        <time>2025-01-16T13:17:55Z</time>
      </trkpt>
      <trkpt lat="47.56389" lon="-2.31907">
        <ele>52</ele>
        <time>2025-01-16T13:17:56Z</time>
      </trkpt>
      <trkpt lat="47.5639" lon="-2.31905">
        <ele>52</ele>
        <time>2025-01-16T13:17:57Z</time>
      </trkpt>
      <trkpt lat="47.56391" lon="-2.31904">
        <ele>51.8</ele>
        <time>2025-01-16T13:17:58Z</time>
      </trkpt>
      <trkpt lat="47.56392" lon="-2.31904">
        <ele>51.6</ele>
        <time>2025-01-16T13:17:59Z</time>
      </trkpt>
      <trkpt lat="47.56392" lon="-2.31902">
        <ele>51.8</ele>
        <time>2025-01-16T13:18:00Z</time>
      </trkpt>
      <trkpt lat="47.56393" lon="-2.31901">
        <ele>51.7</ele>
        <time>2025-01-16T13:18:01Z</time>
      </trkpt>
      <trkpt lat="47.56394" lon="-2.319">
        <ele>51.5</ele>
        <time>2025-01-16T13:18:02Z</time>
      </trkpt>
      <trkpt lat="47.56395" lon="-2.319">
        <ele>51.3</ele>
        <time>2025-01-16T13:18:03Z</time>
      </trkpt>
      <trkpt lat="47.56397" lon="-2.31899">
        <ele>50.9</ele>
        <time>2025-01-16T13:18:04Z</time>
      </trkpt>
      <trkpt lat="47.56398" lon="-2.31898">
        <ele>50.8</ele>
        <time>2025-01-16T13:18:05Z</time>
      </trkpt>
      <trkpt lat="47.56399" lon="-2.31897">
        <ele>50.7</ele>
        <time>2025-01-16T13:18:06Z</time>
      </trkpt>
      <trkpt lat="47.564" lon="-2.31896">
        <ele>50.6</ele>
        <time>2025-01-16T13:18:07Z</time>
      </trkpt>
      <trkpt lat="47.564" lon="-2.31896">
        <ele>50.6</ele>
        <time>2025-01-16T13:18:08Z</time>
      </trkpt>
      <trkpt lat="47.56401" lon="-2.31896">
        <ele>50.4</ele>
        <time>2025-01-16T13:18:09Z</time>
      </trkpt>
      <trkpt lat="47.56402" lon="-2.31895">
        <ele>50.3</ele>
        <time>2025-01-16T13:18:10Z</time>
      </trkpt>
      <trkpt lat="47.56403" lon="-2.31894">
        <ele>50.2</ele>
        <time>2025-01-16T13:18:11Z</time>
      </trkpt>
      <trkpt lat="47.56404" lon="-2.31892">
        <ele>50.3</ele>
        <time>2025-01-16T13:18:12Z</time>
      </trkpt>
      <trkpt lat="47.56405" lon="-2.3189">
        <ele>50.4</ele>
        <time>2025-01-16T13:18:13Z</time>
      </trkpt>
      <trkpt lat="47.56407" lon="-2.31889">
        <ele>50.1</ele>
        <time>2025-01-16T13:18:14Z</time>
      </trkpt>
      <trkpt lat="47.56408" lon="-2.31887">
        <ele>50</ele>
        <time>2025-01-16T13:18:15Z</time>
      </trkpt>
      <trkpt lat="47.56409" lon="-2.31886">
        <ele>49.8</ele>
        <time>2025-01-16T13:18:16Z</time>
      </trkpt>
      <trkpt lat="47.5641" lon="-2.31884">
        <ele>49.7</ele>
        <time>2025-01-16T13:18:17Z</time>
      </trkpt>
      <trkpt lat="47.56411" lon="-2.31882">
        <ele>49.7</ele>
        <time>2025-01-16T13:18:18Z</time>
      </trkpt>
      <trkpt lat="47.56411" lon="-2.3188">
        <ele>49.8</ele>
        <time>2025-01-16T13:18:19Z</time>
      </trkpt>
      <trkpt lat="47.56411" lon="-2.31878">
        <ele>49.9</ele>
        <time>2025-01-16T13:18:20Z</time>
      </trkpt>
      <trkpt lat="47.56412" lon="-2.31877">
        <ele>49.8</ele>
        <time>2025-01-16T13:18:21Z</time>
      </trkpt>
      <trkpt lat="47.56412" lon="-2.31875">
        <ele>49.9</ele>
        <time>2025-01-16T13:18:22Z</time>
      </trkpt>
      <trkpt lat="47.56412" lon="-2.31873">
        <ele>50.1</ele>
        <time>2025-01-16T13:18:23Z</time>
      </trkpt>
      <trkpt lat="47.56412" lon="-2.31871">
        <ele>50.2</ele>
        <time>2025-01-16T13:18:24Z</time>
      </trkpt>
      <trkpt lat="47.56412" lon="-2.3187">
        <ele>50.3</ele>
        <time>2025-01-16T13:18:25Z</time>
      </trkpt>
      <trkpt lat="47.56412" lon="-2.31868">
        <ele>50.4</ele>
        <time>2025-01-16T13:18:26Z</time>
      </trkpt>
      <trkpt lat="47.56412" lon="-2.31866">
        <ele>50.5</ele>
        <time>2025-01-16T13:18:27Z</time>
      </trkpt>
      <trkpt lat="47.56412" lon="-2.31864">
        <ele>50.6</ele>
        <time>2025-01-16T13:18:28Z</time>
      </trkpt>
      <trkpt lat="47.56413" lon="-2.31863">
        <ele>50.5</ele>
        <time>2025-01-16T13:18:29Z</time>
      </trkpt>
      <trkpt lat="47.56413" lon="-2.31862">
        <ele>50.6</ele>
        <time>2025-01-16T13:18:30Z</time>
      </trkpt>
      <trkpt lat="47.56414" lon="-2.3186">
        <ele>50.6</ele>
        <time>2025-01-16T13:18:31Z</time>
      </trkpt>
      <trkpt lat="47.56414" lon="-2.31858">
        <ele>50.7</ele>
        <time>2025-01-16T13:18:32Z</time>
      </trkpt>
      <trkpt lat="47.56414" lon="-2.31857">
        <ele>50.7</ele>
        <time>2025-01-16T13:18:33Z</time>
      </trkpt>
      <trkpt lat="47.56414" lon="-2.31855">
        <ele>50.9</ele>
        <time>2025-01-16T13:18:34Z</time>
      </trkpt>
      <trkpt lat="47.56414" lon="-2.31854">
        <ele>50.9</ele>
        <time>2025-01-16T13:18:35Z</time>
      </trkpt>
      <trkpt lat="47.56414" lon="-2.31853">
        <ele>51</ele>
        <time>2025-01-16T13:18:36Z</time>
      </trkpt>
      <trkpt lat="47.56414" lon="-2.31852">
        <ele>51.1</ele>
        <time>2025-01-16T13:18:37Z</time>
      </trkpt>
      <trkpt lat="47.56415" lon="-2.3185">
        <ele>51.1</ele>
        <time>2025-01-16T13:18:38Z</time>
      </trkpt>
      <trkpt lat="47.56416" lon="-2.31848">
        <ele>51</ele>
        <time>2025-01-16T13:18:39Z</time>
      </trkpt>
      <trkpt lat="47.56417" lon="-2.31847">
        <ele>50.9</ele>
        <time>2025-01-16T13:18:40Z</time>
      </trkpt>
      <trkpt lat="47.56418" lon="-2.31846">
        <ele>50.6</ele>
        <time>2025-01-16T13:18:41Z</time>
      </trkpt>
      <trkpt lat="47.56419" lon="-2.31845">
        <ele>50.2</ele>
        <time>2025-01-16T13:18:42Z</time>
      </trkpt>
      <trkpt lat="47.56419" lon="-2.31843">
        <ele>50.4</ele>
        <time>2025-01-16T13:18:43Z</time>
      </trkpt>
      <trkpt lat="47.5642" lon="-2.31842">
        <ele>50.1</ele>
        <time>2025-01-16T13:18:44Z</time>
      </trkpt>
      <trkpt lat="47.56421" lon="-2.31841">
        <ele>49.7</ele>
        <time>2025-01-16T13:18:45Z</time>
      </trkpt>
      <trkpt lat="47.56423" lon="-2.3184">
        <ele>49</ele>
        <time>2025-01-16T13:18:46Z</time>
      </trkpt>
      <trkpt lat="47.56424" lon="-2.31839">
        <ele>48.7</ele>
        <time>2025-01-16T13:18:47Z</time>
      </trkpt>
      <trkpt lat="47.56425" lon="-2.31838">
        <ele>48.4</ele>
        <time>2025-01-16T13:18:48Z</time>
      </trkpt>
      <trkpt lat="47.56426" lon="-2.31836">
        <ele>48.1</ele>
        <time>2025-01-16T13:18:49Z</time>
      </trkpt>
      <trkpt lat="47.56427" lon="-2.31836">
        <ele>47.7</ele>
        <time>2025-01-16T13:18:50Z</time>
      </trkpt>
      <trkpt lat="47.56428" lon="-2.31836">
        <ele>47.3</ele>
        <time>2025-01-16T13:18:51Z</time>
      </trkpt>
      <trkpt lat="47.56429" lon="-2.31836">
        <ele>46.9</ele>
        <time>2025-01-16T13:18:52Z</time>
      </trkpt>
      <trkpt lat="47.5643" lon="-2.31835">
        <ele>46.6</ele>
        <time>2025-01-16T13:18:53Z</time>
      </trkpt>
      <trkpt lat="47.56431" lon="-2.31834">
        <ele>46.3</ele>
        <time>2025-01-16T13:18:54Z</time>
      </trkpt>
      <trkpt lat="47.56432" lon="-2.31833">
        <ele>45.9</ele>
        <time>2025-01-16T13:18:55Z</time>
      </trkpt>
      <trkpt lat="47.56433" lon="-2.31831">
        <ele>45.7</ele>
        <time>2025-01-16T13:18:56Z</time>
      </trkpt>
      <trkpt lat="47.56434" lon="-2.3183">
        <ele>45.3</ele>
        <time>2025-01-16T13:18:57Z</time>
      </trkpt>
      <trkpt lat="47.56435" lon="-2.31828">
        <ele>45.1</ele>
        <time>2025-01-16T13:18:58Z</time>
      </trkpt>
      <trkpt lat="47.56435" lon="-2.31826">
        <ele>45.2</ele>
        <time>2025-01-16T13:18:59Z</time>
      </trkpt>
      <trkpt lat="47.56436" lon="-2.31825">
        <ele>44.9</ele>
        <time>2025-01-16T13:19:00Z</time>
      </trkpt>
      <trkpt lat="47.56436" lon="-2.31824">
        <ele>44.9</ele>
        <time>2025-01-16T13:19:01Z</time>
      </trkpt>
      <trkpt lat="47.56437" lon="-2.31822">
        <ele>44.7</ele>
        <time>2025-01-16T13:19:02Z</time>
      </trkpt>
      <trkpt lat="47.56438" lon="-2.31821">
        <ele>44.3</ele>
        <time>2025-01-16T13:19:03Z</time>
      </trkpt>
      <trkpt lat="47.56439" lon="-2.31819">
        <ele>44.1</ele>
        <time>2025-01-16T13:19:04Z</time>
      </trkpt>
      <trkpt lat="47.56441" lon="-2.31817">
        <ele>43.5</ele>
        <time>2025-01-16T13:19:05Z</time>
      </trkpt>
      <trkpt lat="47.56441" lon="-2.31816">
        <ele>43.5</ele>
        <time>2025-01-16T13:19:06Z</time>
      </trkpt>
      <trkpt lat="47.56442" lon="-2.31814">
        <ele>43.3</ele>
        <time>2025-01-16T13:19:07Z</time>
      </trkpt>
      <trkpt lat="47.56444" lon="-2.31813">
        <ele>42.6</ele>
        <time>2025-01-16T13:19:08Z</time>
      </trkpt>
      <trkpt lat="47.56445" lon="-2.31811">
        <ele>42.5</ele>
        <time>2025-01-16T13:19:09Z</time>
      </trkpt>
      <trkpt lat="47.56446" lon="-2.3181">
        <ele>42.4</ele>
        <time>2025-01-16T13:19:10Z</time>
      </trkpt>
      <trkpt lat="47.56446" lon="-2.31809">
        <ele>42.5</ele>
        <time>2025-01-16T13:19:11Z</time>
      </trkpt>
      <trkpt lat="47.56447" lon="-2.31808">
        <ele>42.4</ele>
        <time>2025-01-16T13:19:12Z</time>
      </trkpt>
      <trkpt lat="47.56448" lon="-2.31807">
        <ele>42.3</ele>
        <time>2025-01-16T13:19:13Z</time>
      </trkpt>
      <trkpt lat="47.56448" lon="-2.31806">
        <ele>42.3</ele>
        <time>2025-01-16T13:19:14Z</time>
      </trkpt>
      <trkpt lat="47.56449" lon="-2.31805">
        <ele>42.3</ele>
        <time>2025-01-16T13:19:15Z</time>
      </trkpt>
      <trkpt lat="47.56449" lon="-2.31803">
        <ele>42.5</ele>
        <time>2025-01-16T13:19:16Z</time>
      </trkpt>
      <trkpt lat="47.5645" lon="-2.31801">
        <ele>42.6</ele>
        <time>2025-01-16T13:19:17Z</time>
      </trkpt>
      <trkpt lat="47.5645" lon="-2.318">
        <ele>42.7</ele>
        <time>2025-01-16T13:19:18Z</time>
      </trkpt>
      <trkpt lat="47.5645" lon="-2.31799">
        <ele>42.8</ele>
        <time>2025-01-16T13:19:19Z</time>
      </trkpt>
      <trkpt lat="47.5645" lon="-2.31798">
        <ele>42.9</ele>
        <time>2025-01-16T13:19:20Z</time>
      </trkpt>
      <trkpt lat="47.56451" lon="-2.31796">
        <ele>43</ele>
        <time>2025-01-16T13:19:21Z</time>
      </trkpt>
      <trkpt lat="47.56451" lon="-2.31795">
        <ele>43.1</ele>
        <time>2025-01-16T13:19:22Z</time>
      </trkpt>
      <trkpt lat="47.56451" lon="-2.31793">
        <ele>43.3</ele>
        <time>2025-01-16T13:19:23Z</time>
      </trkpt>
      <trkpt lat="47.56451" lon="-2.31791">
        <ele>43.5</ele>
        <time>2025-01-16T13:19:24Z</time>
      </trkpt>
      <trkpt lat="47.56451" lon="-2.3179">
        <ele>43.7</ele>
        <time>2025-01-16T13:19:25Z</time>
      </trkpt>
      <trkpt lat="47.5645" lon="-2.31789">
        <ele>44</ele>
        <time>2025-01-16T13:19:26Z</time>
      </trkpt>
      <trkpt lat="47.5645" lon="-2.31788">
        <ele>44.1</ele>
        <time>2025-01-16T13:19:27Z</time>
      </trkpt>
      <trkpt lat="47.56451" lon="-2.31786">
        <ele>44.1</ele>
        <time>2025-01-16T13:19:28Z</time>
      </trkpt>
      <trkpt lat="47.56451" lon="-2.31785">
        <ele>44.3</ele>
        <time>2025-01-16T13:19:29Z</time>
      </trkpt>
      <trkpt lat="47.56452" lon="-2.31783">
        <ele>44.2</ele>
        <time>2025-01-16T13:19:30Z</time>
      </trkpt>
      <trkpt lat="47.56453" lon="-2.31782">
        <ele>44.1</ele>
        <time>2025-01-16T13:19:31Z</time>
      </trkpt>
      <trkpt lat="47.56454" lon="-2.31779">
        <ele>44.1</ele>
        <time>2025-01-16T13:19:32Z</time>
      </trkpt>
      <trkpt lat="47.56457" lon="-2.31777">
        <ele>43.5</ele>
        <time>2025-01-16T13:19:33Z</time>
      </trkpt>
      <trkpt lat="47.56459" lon="-2.31775">
        <ele>43.1</ele>
        <time>2025-01-16T13:19:34Z</time>
      </trkpt>
      <trkpt lat="47.56461" lon="-2.31773">
        <ele>42.6</ele>
        <time>2025-01-16T13:19:35Z</time>
      </trkpt>
      <trkpt lat="47.56464" lon="-2.31772">
        <ele>41.8</ele>
        <time>2025-01-16T13:19:36Z</time>
      </trkpt>
      <trkpt lat="47.56467" lon="-2.3177">
        <ele>41.1</ele>
        <time>2025-01-16T13:19:37Z</time>
      </trkpt>
      <trkpt lat="47.56469" lon="-2.31769">
        <ele>40.6</ele>
        <time>2025-01-16T13:19:38Z</time>
      </trkpt>
      <trkpt lat="47.56472" lon="-2.31767">
        <ele>39.8</ele>
        <time>2025-01-16T13:19:39Z</time>
      </trkpt>
      <trkpt lat="47.56473" lon="-2.31765">
        <ele>39.9</ele>
        <time>2025-01-16T13:19:40Z</time>
      </trkpt>
      <trkpt lat="47.56474" lon="-2.31763">
        <ele>39.9</ele>
        <time>2025-01-16T13:19:41Z</time>
      </trkpt>
      <trkpt lat="47.56474" lon="-2.31761">
        <ele>40.1</ele>
        <time>2025-01-16T13:19:42Z</time>
      </trkpt>
      <trkpt lat="47.56474" lon="-2.31759">
        <ele>40.2</ele>
        <time>2025-01-16T13:19:43Z</time>
      </trkpt>
      <trkpt lat="47.56474" lon="-2.31757">
        <ele>40.3</ele>
        <time>2025-01-16T13:19:44Z</time>
      </trkpt>
      <trkpt lat="47.56474" lon="-2.31755">
        <ele>40.5</ele>
        <time>2025-01-16T13:19:45Z</time>
      </trkpt>
      <trkpt lat="47.56474" lon="-2.31753">
        <ele>40.6</ele>
        <time>2025-01-16T13:19:46Z</time>
      </trkpt>
      <trkpt lat="47.56475" lon="-2.31751">
        <ele>40.6</ele>
        <time>2025-01-16T13:19:47Z</time>
      </trkpt>
      <trkpt lat="47.56476" lon="-2.3175">
        <ele>40.6</ele>
        <time>2025-01-16T13:19:48Z</time>
      </trkpt>
      <trkpt lat="47.56476" lon="-2.31749">
        <ele>40.6</ele>
        <time>2025-01-16T13:19:49Z</time>
      </trkpt>
      <trkpt lat="47.56476" lon="-2.31747">
        <ele>40.7</ele>
        <time>2025-01-16T13:19:50Z</time>
      </trkpt>
      <trkpt lat="47.56475" lon="-2.31746">
        <ele>40.8</ele>
        <time>2025-01-16T13:19:51Z</time>
      </trkpt>
      <trkpt lat="47.56475" lon="-2.31744">
        <ele>40.9</ele>
        <time>2025-01-16T13:19:52Z</time>
      </trkpt>
      <trkpt lat="47.56474" lon="-2.31742">
        <ele>41.1</ele>
        <time>2025-01-16T13:19:53Z</time>
      </trkpt>
      <trkpt lat="47.56474" lon="-2.31741">
        <ele>41.1</ele>
        <time>2025-01-16T13:19:54Z</time>
      </trkpt>
      <trkpt lat="47.56473" lon="-2.31739">
        <ele>41.3</ele>
        <time>2025-01-16T13:19:55Z</time>
      </trkpt>
      <trkpt lat="47.56472" lon="-2.31737">
        <ele>41.5</ele>
        <time>2025-01-16T13:19:56Z</time>
      </trkpt>
      <trkpt lat="47.56471" lon="-2.31735">
        <ele>41.9</ele>
        <time>2025-01-16T13:19:57Z</time>
      </trkpt>
      <trkpt lat="47.5647" lon="-2.31733">
        <ele>42.3</ele>
        <time>2025-01-16T13:19:58Z</time>
      </trkpt>
      <trkpt lat="47.5647" lon="-2.31731">
        <ele>42.3</ele>
        <time>2025-01-16T13:19:59Z</time>
      </trkpt>
      <trkpt lat="47.56469" lon="-2.3173">
        <ele>42.7</ele>
        <time>2025-01-16T13:20:00Z</time>
      </trkpt>
      <trkpt lat="47.56468" lon="-2.31728">
        <ele>43</ele>
        <time>2025-01-16T13:20:01Z</time>
      </trkpt>
      <trkpt lat="47.56468" lon="-2.31726">
        <ele>43.1</ele>
        <time>2025-01-16T13:20:02Z</time>
      </trkpt>
      <trkpt lat="47.56467" lon="-2.31723">
        <ele>43.5</ele>
        <time>2025-01-16T13:20:03Z</time>
      </trkpt>
      <trkpt lat="47.56467" lon="-2.31722">
        <ele>43.5</ele>
        <time>2025-01-16T13:20:04Z</time>
      </trkpt>
      <trkpt lat="47.56467" lon="-2.3172">
        <ele>43.5</ele>
        <time>2025-01-16T13:20:05Z</time>
      </trkpt>
      <trkpt lat="47.56466" lon="-2.31718">
        <ele>43.8</ele>
        <time>2025-01-16T13:20:06Z</time>
      </trkpt>
      <trkpt lat="47.56466" lon="-2.31716">
        <ele>43.7</ele>
        <time>2025-01-16T13:20:07Z</time>
      </trkpt>
      <trkpt lat="47.56466" lon="-2.31714">
        <ele>43.7</ele>
        <time>2025-01-16T13:20:08Z</time>
      </trkpt>
      <trkpt lat="47.56465" lon="-2.31712">
        <ele>44</ele>
        <time>2025-01-16T13:20:09Z</time>
      </trkpt>
      <trkpt lat="47.56465" lon="-2.3171">
        <ele>44</ele>
        <time>2025-01-16T13:20:10Z</time>
      </trkpt>
      <trkpt lat="47.56465" lon="-2.31709">
        <ele>44</ele>
        <time>2025-01-16T13:20:11Z</time>
      </trkpt>
      <trkpt lat="47.56465" lon="-2.31707">
        <ele>43.9</ele>
        <time>2025-01-16T13:20:12Z</time>
      </trkpt>
      <trkpt lat="47.56466" lon="-2.31705">
        <ele>43.7</ele>
        <time>2025-01-16T13:20:13Z</time>
      </trkpt>
      <trkpt lat="47.56466" lon="-2.31704">
        <ele>43.6</ele>
        <time>2025-01-16T13:20:14Z</time>
      </trkpt>
      <trkpt lat="47.56466" lon="-2.31702">
        <ele>43.6</ele>
        <time>2025-01-16T13:20:15Z</time>
      </trkpt>
      <trkpt lat="47.56466" lon="-2.317">
        <ele>43.6</ele>
        <time>2025-01-16T13:20:16Z</time>
      </trkpt>
      <trkpt lat="47.56466" lon="-2.31699">
        <ele>43.6</ele>
        <time>2025-01-16T13:20:17Z</time>
      </trkpt>
      <trkpt lat="47.56465" lon="-2.31697">
        <ele>43.8</ele>
        <time>2025-01-16T13:20:18Z</time>
      </trkpt>
      <trkpt lat="47.56465" lon="-2.31695">
        <ele>43.8</ele>
        <time>2025-01-16T13:20:19Z</time>
      </trkpt>
      <trkpt lat="47.56465" lon="-2.31693">
        <ele>43.8</ele>
        <time>2025-01-16T13:20:20Z</time>
      </trkpt>
      <trkpt lat="47.56464" lon="-2.31692">
        <ele>44.1</ele>
        <time>2025-01-16T13:20:21Z</time>
      </trkpt>
      <trkpt lat="47.56464" lon="-2.31691">
        <ele>44.1</ele>
        <time>2025-01-16T13:20:22Z</time>
      </trkpt>
      <trkpt lat="47.56464" lon="-2.31689">
        <ele>44.1</ele>
        <time>2025-01-16T13:20:23Z</time>
      </trkpt>
      <trkpt lat="47.56463" lon="-2.31688">
        <ele>44.3</ele>
        <time>2025-01-16T13:20:24Z</time>
      </trkpt>
      <trkpt lat="47.56462" lon="-2.31687">
        <ele>44.5</ele>
        <time>2025-01-16T13:20:25Z</time>
      </trkpt>
      <trkpt lat="47.56462" lon="-2.31685">
        <ele>44.5</ele>
        <time>2025-01-16T13:20:26Z</time>
      </trkpt>
      <trkpt lat="47.56461" lon="-2.31684">
        <ele>44.7</ele>
        <time>2025-01-16T13:20:27Z</time>
      </trkpt>
      <trkpt lat="47.5646" lon="-2.31683">
        <ele>44.9</ele>
        <time>2025-01-16T13:20:28Z</time>
      </trkpt>
      <trkpt lat="47.5646" lon="-2.31682">
        <ele>44.9</ele>
        <time>2025-01-16T13:20:29Z</time>
      </trkpt>
      <trkpt lat="47.5646" lon="-2.31682">
        <ele>44.9</ele>
        <time>2025-01-16T13:20:30Z</time>
      </trkpt>
      <trkpt lat="47.56459" lon="-2.31681">
        <ele>45.1</ele>
        <time>2025-01-16T13:20:31Z</time>
      </trkpt>
      <trkpt lat="47.56459" lon="-2.31681">
        <ele>45.1</ele>
        <time>2025-01-16T13:20:32Z</time>
      </trkpt>
      <trkpt lat="47.56459" lon="-2.31681">
        <ele>45.1</ele>
        <time>2025-01-16T13:20:33Z</time>
      </trkpt>
      <trkpt lat="47.56459" lon="-2.3168">
        <ele>45.1</ele>
        <time>2025-01-16T13:20:34Z</time>
      </trkpt>
      <trkpt lat="47.56458" lon="-2.3168">
        <ele>45.3</ele>
        <time>2025-01-16T13:20:35Z</time>
      </trkpt>
      <trkpt lat="47.56458" lon="-2.3168">
        <ele>45.3</ele>
        <time>2025-01-16T13:20:36Z</time>
      </trkpt>
      <trkpt lat="47.56458" lon="-2.3168">
        <ele>45.3</ele>
        <time>2025-01-16T13:20:37Z</time>
      </trkpt>
      <trkpt lat="47.56458" lon="-2.3168">
        <ele>45.3</ele>
        <time>2025-01-16T13:20:38Z</time>
      </trkpt>
      <trkpt lat="47.56458" lon="-2.31679">
        <ele>45.3</ele>
        <time>2025-01-16T13:20:39Z</time>
      </trkpt>
      <trkpt lat="47.56457" lon="-2.31679">
        <ele>45.5</ele>
        <time>2025-01-16T13:20:40Z</time>
      </trkpt>
      <trkpt lat="47.56457" lon="-2.31679">
        <ele>45.5</ele>
        <time>2025-01-16T13:20:41Z</time>
      </trkpt>
      <trkpt lat="47.56457" lon="-2.31679">
        <ele>45.5</ele>
        <time>2025-01-16T13:20:42Z</time>
      </trkpt>
      <trkpt lat="47.56457" lon="-2.31679">
        <ele>45.5</ele>
        <time>2025-01-16T13:20:43Z</time>
      </trkpt>
      <trkpt lat="47.56457" lon="-2.31678">
        <ele>45.5</ele>
        <time>2025-01-16T13:20:44Z</time>
      </trkpt>
      <trkpt lat="47.56456" lon="-2.31675">
        <ele>45.6</ele>
        <time>2025-01-16T13:20:45Z</time>
      </trkpt>
      <trkpt lat="47.56456" lon="-2.31674">
        <ele>45.5</ele>
        <time>2025-01-16T13:20:46Z</time>
      </trkpt>
      <trkpt lat="47.56456" lon="-2.31672">
        <ele>45.5</ele>
        <time>2025-01-16T13:20:47Z</time>
      </trkpt>
      <trkpt lat="47.56455" lon="-2.3167">
        <ele>45.6</ele>
        <time>2025-01-16T13:20:48Z</time>
      </trkpt>
      <trkpt lat="47.56454" lon="-2.31668">
        <ele>45.7</ele>
        <time>2025-01-16T13:20:49Z</time>
      </trkpt>
      <trkpt lat="47.56453" lon="-2.31666">
        <ele>45.7</ele>
        <time>2025-01-16T13:20:50Z</time>
      </trkpt>
      <trkpt lat="47.56453" lon="-2.31666">
        <ele>45.7</ele>
        <time>2025-01-16T13:20:51Z</time>
      </trkpt>
      <trkpt lat="47.56452" lon="-2.31665">
        <ele>45.8</ele>
        <time>2025-01-16T13:20:52Z</time>
      </trkpt>
      <trkpt lat="47.56451" lon="-2.31663">
        <ele>45.9</ele>
        <time>2025-01-16T13:20:53Z</time>
      </trkpt>
      <trkpt lat="47.56451" lon="-2.31661">
        <ele>45.8</ele>
        <time>2025-01-16T13:20:54Z</time>
      </trkpt>
      <trkpt lat="47.5645" lon="-2.3166">
        <ele>45.9</ele>
        <time>2025-01-16T13:20:55Z</time>
      </trkpt>
      <trkpt lat="47.5645" lon="-2.31658">
        <ele>45.8</ele>
        <time>2025-01-16T13:20:56Z</time>
      </trkpt>
      <trkpt lat="47.5645" lon="-2.31656">
        <ele>45.7</ele>
        <time>2025-01-16T13:20:57Z</time>
      </trkpt>
      <trkpt lat="47.56449" lon="-2.31655">
        <ele>45.7</ele>
        <time>2025-01-16T13:20:58Z</time>
      </trkpt>
      <trkpt lat="47.56449" lon="-2.31653">
        <ele>45.6</ele>
        <time>2025-01-16T13:20:59Z</time>
      </trkpt>
      <trkpt lat="47.56449" lon="-2.31652">
        <ele>45.5</ele>
        <time>2025-01-16T13:21:00Z</time>
      </trkpt>
      <trkpt lat="47.56449" lon="-2.31651">
        <ele>45.5</ele>
        <time>2025-01-16T13:21:01Z</time>
      </trkpt>
      <trkpt lat="47.56449" lon="-2.3165">
        <ele>45.4</ele>
        <time>2025-01-16T13:21:02Z</time>
      </trkpt>
      <trkpt lat="47.56449" lon="-2.31649">
        <ele>45.4</ele>
        <time>2025-01-16T13:21:03Z</time>
      </trkpt>
      <trkpt lat="47.5645" lon="-2.31648">
        <ele>45.3</ele>
        <time>2025-01-16T13:21:04Z</time>
      </trkpt>
      <trkpt lat="47.56451" lon="-2.31647">
        <ele>45.1</ele>
        <time>2025-01-16T13:21:05Z</time>
      </trkpt>
      <trkpt lat="47.56451" lon="-2.31646">
        <ele>45.1</ele>
        <time>2025-01-16T13:21:06Z</time>
      </trkpt>
      <trkpt lat="47.56451" lon="-2.31644">
        <ele>45</ele>
        <time>2025-01-16T13:21:07Z</time>
      </trkpt>
      <trkpt lat="47.56452" lon="-2.31643">
        <ele>44.9</ele>
        <time>2025-01-16T13:21:08Z</time>
      </trkpt>
      <trkpt lat="47.56452" lon="-2.31641">
        <ele>44.8</ele>
        <time>2025-01-16T13:21:09Z</time>
      </trkpt>
      <trkpt lat="47.56453" lon="-2.3164">
        <ele>44.7</ele>
        <time>2025-01-16T13:21:10Z</time>
      </trkpt>
      <trkpt lat="47.56453" lon="-2.31639">
        <ele>44.7</ele>
        <time>2025-01-16T13:21:11Z</time>
      </trkpt>
      <trkpt lat="47.56454" lon="-2.31638">
        <ele>44.7</ele>
        <time>2025-01-16T13:21:12Z</time>
      </trkpt>
      <trkpt lat="47.56455" lon="-2.31638">
        <ele>44.7</ele>
        <time>2025-01-16T13:21:13Z</time>
      </trkpt>
      <trkpt lat="47.56456" lon="-2.31637">
        <ele>44.7</ele>
        <time>2025-01-16T13:21:14Z</time>
      </trkpt>
      <trkpt lat="47.56457" lon="-2.31636">
        <ele>44.8</ele>
        <time>2025-01-16T13:21:15Z</time>
      </trkpt>
      <trkpt lat="47.56459" lon="-2.31635">
        <ele>44.8</ele>
        <time>2025-01-16T13:21:16Z</time>
      </trkpt>
      <trkpt lat="47.56461" lon="-2.31634">
        <ele>44.8</ele>
        <time>2025-01-16T13:21:17Z</time>
      </trkpt>
      <trkpt lat="47.56461" lon="-2.31633">
        <ele>44.8</ele>
        <time>2025-01-16T13:21:18Z</time>
      </trkpt>
      <trkpt lat="47.56462" lon="-2.31632">
        <ele>44.9</ele>
        <time>2025-01-16T13:21:19Z</time>
      </trkpt>
      <trkpt lat="47.56463" lon="-2.31631">
        <ele>44.9</ele>
        <time>2025-01-16T13:21:20Z</time>
      </trkpt>
      <trkpt lat="47.56464" lon="-2.3163">
        <ele>44.9</ele>
        <time>2025-01-16T13:21:21Z</time>
      </trkpt>
      <trkpt lat="47.56465" lon="-2.31628">
        <ele>45</ele>
        <time>2025-01-16T13:21:22Z</time>
      </trkpt>
      <trkpt lat="47.56465" lon="-2.31627">
        <ele>45.1</ele>
        <time>2025-01-16T13:21:23Z</time>
      </trkpt>
      <trkpt lat="47.56466" lon="-2.31626">
        <ele>45.2</ele>
        <time>2025-01-16T13:21:24Z</time>
      </trkpt>
      <trkpt lat="47.56467" lon="-2.31625">
        <ele>45.2</ele>
        <time>2025-01-16T13:21:25Z</time>
      </trkpt>
      <trkpt lat="47.56468" lon="-2.31624">
        <ele>45.2</ele>
        <time>2025-01-16T13:21:26Z</time>
      </trkpt>
      <trkpt lat="47.56469" lon="-2.31624">
        <ele>45.2</ele>
        <time>2025-01-16T13:21:27Z</time>
      </trkpt>
      <trkpt lat="47.5647" lon="-2.31623">
        <ele>45.2</ele>
        <time>2025-01-16T13:21:28Z</time>
      </trkpt>
      <trkpt lat="47.56471" lon="-2.31623">
        <ele>45.2</ele>
        <time>2025-01-16T13:21:29Z</time>
      </trkpt>
      <trkpt lat="47.56472" lon="-2.31622">
        <ele>45.2</ele>
        <time>2025-01-16T13:21:30Z</time>
      </trkpt>
      <trkpt lat="47.56472" lon="-2.31621">
        <ele>45.3</ele>
        <time>2025-01-16T13:21:31Z</time>
      </trkpt>
      <trkpt lat="47.56474" lon="-2.3162">
        <ele>45.3</ele>
        <time>2025-01-16T13:21:32Z</time>
      </trkpt>
      <trkpt lat="47.56475" lon="-2.31619">
        <ele>45.3</ele>
        <time>2025-01-16T13:21:33Z</time>
      </trkpt>
      <trkpt lat="47.56476" lon="-2.31619">
        <ele>45.3</ele>
        <time>2025-01-16T13:21:34Z</time>
      </trkpt>
      <trkpt lat="47.56476" lon="-2.31618">
        <ele>45.4</ele>
        <time>2025-01-16T13:21:35Z</time>
      </trkpt>
      <trkpt lat="47.56477" lon="-2.31618">
        <ele>45.3</ele>
        <time>2025-01-16T13:21:36Z</time>
      </trkpt>
      <trkpt lat="47.56477" lon="-2.31617">
        <ele>45.4</ele>
        <time>2025-01-16T13:21:37Z</time>
      </trkpt>
      <trkpt lat="47.56478" lon="-2.31617">
        <ele>45.4</ele>
        <time>2025-01-16T13:21:38Z</time>
      </trkpt>
      <trkpt lat="47.56479" lon="-2.31616">
        <ele>45.4</ele>
        <time>2025-01-16T13:21:39Z</time>
      </trkpt>
      <trkpt lat="47.56479" lon="-2.31615">
        <ele>45.5</ele>
        <time>2025-01-16T13:21:40Z</time>
      </trkpt>
      <trkpt lat="47.56479" lon="-2.31615">
        <ele>45.5</ele>
        <time>2025-01-16T13:21:41Z</time>
      </trkpt>
      <trkpt lat="47.5648" lon="-2.31614">
        <ele>45.5</ele>
        <time>2025-01-16T13:21:42Z</time>
      </trkpt>
      <trkpt lat="47.56481" lon="-2.31613">
        <ele>45.5</ele>
        <time>2025-01-16T13:21:43Z</time>
      </trkpt>
      <trkpt lat="47.56482" lon="-2.31613">
        <ele>45.5</ele>
        <time>2025-01-16T13:21:44Z</time>
      </trkpt>
      <trkpt lat="47.56483" lon="-2.31612">
        <ele>45.5</ele>
        <time>2025-01-16T13:21:45Z</time>
      </trkpt>
      <trkpt lat="47.56483" lon="-2.31611">
        <ele>45.6</ele>
        <time>2025-01-16T13:21:46Z</time>
      </trkpt>
      <trkpt lat="47.56484" lon="-2.3161">
        <ele>45.7</ele>
        <time>2025-01-16T13:21:47Z</time>
      </trkpt>
      <trkpt lat="47.56484" lon="-2.3161">
        <ele>45.7</ele>
        <time>2025-01-16T13:21:48Z</time>
      </trkpt>
      <trkpt lat="47.56484" lon="-2.31609">
        <ele>45.7</ele>
        <time>2025-01-16T13:21:49Z</time>
      </trkpt>
      <trkpt lat="47.56485" lon="-2.31608">
        <ele>45.8</ele>
        <time>2025-01-16T13:21:50Z</time>
      </trkpt>
      <trkpt lat="47.56486" lon="-2.31607">
        <ele>45.8</ele>
        <time>2025-01-16T13:21:51Z</time>
      </trkpt>
      <trkpt lat="47.56487" lon="-2.31605">
        <ele>45.9</ele>
        <time>2025-01-16T13:21:52Z</time>
      </trkpt>
      <trkpt lat="47.56488" lon="-2.31605">
        <ele>45.9</ele>
        <time>2025-01-16T13:21:53Z</time>
      </trkpt>
      <trkpt lat="47.56489" lon="-2.31604">
        <ele>45.9</ele>
        <time>2025-01-16T13:21:54Z</time>
      </trkpt>
      <trkpt lat="47.5649" lon="-2.31602">
        <ele>46</ele>
        <time>2025-01-16T13:21:55Z</time>
      </trkpt>
      <trkpt lat="47.5649" lon="-2.31601">
        <ele>46.1</ele>
        <time>2025-01-16T13:21:56Z</time>
      </trkpt>
      <trkpt lat="47.56491" lon="-2.31599">
        <ele>46.2</ele>
        <time>2025-01-16T13:21:57Z</time>
      </trkpt>
      <trkpt lat="47.56492" lon="-2.31597">
        <ele>46.3</ele>
        <time>2025-01-16T13:21:58Z</time>
      </trkpt>
      <trkpt lat="47.56493" lon="-2.31596">
        <ele>46.3</ele>
        <time>2025-01-16T13:21:59Z</time>
      </trkpt>
      <trkpt lat="47.56494" lon="-2.31595">
        <ele>46.4</ele>
        <time>2025-01-16T13:22:00Z</time>
      </trkpt>
      <trkpt lat="47.56495" lon="-2.31593">
        <ele>46.5</ele>
        <time>2025-01-16T13:22:01Z</time>
      </trkpt>
      <trkpt lat="47.56497" lon="-2.31592">
        <ele>46.5</ele>
        <time>2025-01-16T13:22:02Z</time>
      </trkpt>
      <trkpt lat="47.56498" lon="-2.3159">
        <ele>46.6</ele>
        <time>2025-01-16T13:22:03Z</time>
      </trkpt>
      <trkpt lat="47.56499" lon="-2.31589">
        <ele>46.6</ele>
        <time>2025-01-16T13:22:04Z</time>
      </trkpt>
      <trkpt lat="47.565" lon="-2.31588">
        <ele>46.7</ele>
        <time>2025-01-16T13:22:05Z</time>
      </trkpt>
      <trkpt lat="47.56501" lon="-2.31587">
        <ele>46.7</ele>
        <time>2025-01-16T13:22:06Z</time>
      </trkpt>
      <trkpt lat="47.56502" lon="-2.31586">
        <ele>46.7</ele>
        <time>2025-01-16T13:22:07Z</time>
      </trkpt>
      <trkpt lat="47.56503" lon="-2.31585">
        <ele>46.8</ele>
        <time>2025-01-16T13:22:08Z</time>
      </trkpt>
      <trkpt lat="47.56504" lon="-2.31584">
        <ele>46.8</ele>
        <time>2025-01-16T13:22:09Z</time>
      </trkpt>
      <trkpt lat="47.56504" lon="-2.31583">
        <ele>46.9</ele>
        <time>2025-01-16T13:22:10Z</time>
      </trkpt>
      <trkpt lat="47.56504" lon="-2.31582">
        <ele>47</ele>
        <time>2025-01-16T13:22:11Z</time>
      </trkpt>
      <trkpt lat="47.56504" lon="-2.31581">
        <ele>47.1</ele>
        <time>2025-01-16T13:22:12Z</time>
      </trkpt>
      <trkpt lat="47.56504" lon="-2.3158">
        <ele>47.2</ele>
        <time>2025-01-16T13:22:13Z</time>
      </trkpt>
      <trkpt lat="47.56505" lon="-2.31579">
        <ele>47.3</ele>
        <time>2025-01-16T13:22:14Z</time>
      </trkpt>
      <trkpt lat="47.56506" lon="-2.31578">
        <ele>47.3</ele>
        <time>2025-01-16T13:22:15Z</time>
      </trkpt>
      <trkpt lat="47.56506" lon="-2.31578">
        <ele>47.3</ele>
        <time>2025-01-16T13:22:16Z</time>
      </trkpt>
      <trkpt lat="47.56507" lon="-2.31577">
        <ele>47.4</ele>
        <time>2025-01-16T13:22:17Z</time>
      </trkpt>
      <trkpt lat="47.56508" lon="-2.31576">
        <ele>47.4</ele>
        <time>2025-01-16T13:22:18Z</time>
      </trkpt>
      <trkpt lat="47.56508" lon="-2.31575">
        <ele>47.5</ele>
        <time>2025-01-16T13:22:19Z</time>
      </trkpt>
      <trkpt lat="47.56508" lon="-2.31574">
        <ele>47.6</ele>
        <time>2025-01-16T13:22:20Z</time>
      </trkpt>
      <trkpt lat="47.56508" lon="-2.31574">
        <ele>47.6</ele>
        <time>2025-01-16T13:22:21Z</time>
      </trkpt>
      <trkpt lat="47.56508" lon="-2.31573">
        <ele>47.7</ele>
        <time>2025-01-16T13:22:22Z</time>
      </trkpt>
      <trkpt lat="47.56507" lon="-2.31573">
        <ele>47.8</ele>
        <time>2025-01-16T13:22:23Z</time>
      </trkpt>
      <trkpt lat="47.56507" lon="-2.31572">
        <ele>47.9</ele>
        <time>2025-01-16T13:22:24Z</time>
      </trkpt>
      <trkpt lat="47.56507" lon="-2.3157">
        <ele>48.1</ele>
        <time>2025-01-16T13:22:25Z</time>
      </trkpt>
      <trkpt lat="47.56507" lon="-2.31569">
        <ele>48.2</ele>
        <time>2025-01-16T13:22:26Z</time>
      </trkpt>
      <trkpt lat="47.56507" lon="-2.31568">
        <ele>48.3</ele>
        <time>2025-01-16T13:22:27Z</time>
      </trkpt>
      <trkpt lat="47.56507" lon="-2.31567">
        <ele>48.4</ele>
        <time>2025-01-16T13:22:28Z</time>
      </trkpt>
      <trkpt lat="47.56508" lon="-2.31565">
        <ele>48.5</ele>
        <time>2025-01-16T13:22:29Z</time>
      </trkpt>
      <trkpt lat="47.56509" lon="-2.31564">
        <ele>48.5</ele>
        <time>2025-01-16T13:22:30Z</time>
      </trkpt>
      <trkpt lat="47.56509" lon="-2.31563">
        <ele>48.6</ele>
        <time>2025-01-16T13:22:31Z</time>
      </trkpt>
      <trkpt lat="47.5651" lon="-2.31561">
        <ele>48.8</ele>
        <time>2025-01-16T13:22:32Z</time>
      </trkpt>
      <trkpt lat="47.5651" lon="-2.3156">
        <ele>48.9</ele>
        <time>2025-01-16T13:22:33Z</time>
      </trkpt>
      <trkpt lat="47.56511" lon="-2.31559">
        <ele>48.9</ele>
        <time>2025-01-16T13:22:34Z</time>
      </trkpt>
      <trkpt lat="47.56512" lon="-2.31557">
        <ele>49</ele>
        <time>2025-01-16T13:22:35Z</time>
      </trkpt>
      <trkpt lat="47.56513" lon="-2.31556">
        <ele>49</ele>
        <time>2025-01-16T13:22:36Z</time>
      </trkpt>
      <trkpt lat="47.56514" lon="-2.31552">
        <ele>49.2</ele>
        <time>2025-01-16T13:22:39Z</time>
      </trkpt>
      <trkpt lat="47.56514" lon="-2.31551">
        <ele>49.2</ele>
        <time>2025-01-16T13:22:40Z</time>
      </trkpt>
      <trkpt lat="47.56515" lon="-2.31549">
        <ele>49.3</ele>
        <time>2025-01-16T13:22:41Z</time>
      </trkpt>
      <trkpt lat="47.56516" lon="-2.31548">
        <ele>49.3</ele>
        <time>2025-01-16T13:22:42Z</time>
      </trkpt>
      <trkpt lat="47.56516" lon="-2.31546">
        <ele>49.4</ele>
        <time>2025-01-16T13:22:43Z</time>
      </trkpt>
      <trkpt lat="47.56516" lon="-2.31545">
        <ele>49.4</ele>
        <time>2025-01-16T13:22:44Z</time>
      </trkpt>
      <trkpt lat="47.56517" lon="-2.31543">
        <ele>49.5</ele>
        <time>2025-01-16T13:22:45Z</time>
      </trkpt>
      <trkpt lat="47.56517" lon="-2.31542">
        <ele>49.6</ele>
        <time>2025-01-16T13:22:46Z</time>
      </trkpt>
      <trkpt lat="47.56517" lon="-2.31541">
        <ele>49.6</ele>
        <time>2025-01-16T13:22:47Z</time>
      </trkpt>
      <trkpt lat="47.56518" lon="-2.3154">
        <ele>49.6</ele>
        <time>2025-01-16T13:22:48Z</time>
      </trkpt>
      <trkpt lat="47.56518" lon="-2.31538">
        <ele>49.7</ele>
        <time>2025-01-16T13:22:49Z</time>
      </trkpt>
      <trkpt lat="47.56519" lon="-2.31537">
        <ele>49.8</ele>
        <time>2025-01-16T13:22:50Z</time>
      </trkpt>
      <trkpt lat="47.56519" lon="-2.31535">
        <ele>49.9</ele>
        <time>2025-01-16T13:22:51Z</time>
      </trkpt>
      <trkpt lat="47.56519" lon="-2.31534">
        <ele>49.9</ele>
        <time>2025-01-16T13:22:52Z</time>
      </trkpt>
      <trkpt lat="47.5652" lon="-2.31533">
        <ele>50</ele>
        <time>2025-01-16T13:22:53Z</time>
      </trkpt>
      <trkpt lat="47.5652" lon="-2.31531">
        <ele>50.1</ele>
        <time>2025-01-16T13:22:54Z</time>
      </trkpt>
      <trkpt lat="47.5652" lon="-2.3153">
        <ele>50.1</ele>
        <time>2025-01-16T13:22:55Z</time>
      </trkpt>
      <trkpt lat="47.56521" lon="-2.31528">
        <ele>50.2</ele>
        <time>2025-01-16T13:22:56Z</time>
      </trkpt>
      <trkpt lat="47.56521" lon="-2.31526">
        <ele>50.3</ele>
        <time>2025-01-16T13:22:57Z</time>
      </trkpt>
      <trkpt lat="47.56521" lon="-2.31525">
        <ele>50.3</ele>
        <time>2025-01-16T13:22:58Z</time>
      </trkpt>
      <trkpt lat="47.56521" lon="-2.31523">
        <ele>50.3</ele>
        <time>2025-01-16T13:22:59Z</time>
      </trkpt>
      <trkpt lat="47.56521" lon="-2.31522">
        <ele>50.3</ele>
        <time>2025-01-16T13:23:00Z</time>
      </trkpt>
      <trkpt lat="47.56521" lon="-2.31521">
        <ele>50.3</ele>
        <time>2025-01-16T13:23:01Z</time>
      </trkpt>
      <trkpt lat="47.56521" lon="-2.31519">
        <ele>50.3</ele>
        <time>2025-01-16T13:23:02Z</time>
      </trkpt>
      <trkpt lat="47.56521" lon="-2.31518">
        <ele>50.3</ele>
        <time>2025-01-16T13:23:03Z</time>
      </trkpt>
      <trkpt lat="47.56521" lon="-2.31516">
        <ele>50.3</ele>
        <time>2025-01-16T13:23:04Z</time>
      </trkpt>
      <trkpt lat="47.56521" lon="-2.31515">
        <ele>50.4</ele>
        <time>2025-01-16T13:23:05Z</time>
      </trkpt>
      <trkpt lat="47.56521" lon="-2.31514">
        <ele>50.4</ele>
        <time>2025-01-16T13:23:06Z</time>
      </trkpt>
      <trkpt lat="47.56521" lon="-2.31512">
        <ele>50.4</ele>
        <time>2025-01-16T13:23:07Z</time>
      </trkpt>
      <trkpt lat="47.56522" lon="-2.31511">
        <ele>50.3</ele>
        <time>2025-01-16T13:23:08Z</time>
      </trkpt>
      <trkpt lat="47.56522" lon="-2.31509">
        <ele>50.3</ele>
        <time>2025-01-16T13:23:09Z</time>
      </trkpt>
      <trkpt lat="47.56522" lon="-2.31507">
        <ele>50.4</ele>
        <time>2025-01-16T13:23:10Z</time>
      </trkpt>
      <trkpt lat="47.56522" lon="-2.31506">
        <ele>50.4</ele>
        <time>2025-01-16T13:23:11Z</time>
      </trkpt>
      <trkpt lat="47.56522" lon="-2.31505">
        <ele>50.4</ele>
        <time>2025-01-16T13:23:12Z</time>
      </trkpt>
      <trkpt lat="47.56523" lon="-2.31503">
        <ele>50.3</ele>
        <time>2025-01-16T13:23:13Z</time>
      </trkpt>
      <trkpt lat="47.56523" lon="-2.31502">
        <ele>50.3</ele>
        <time>2025-01-16T13:23:14Z</time>
      </trkpt>
      <trkpt lat="47.56523" lon="-2.315">
        <ele>50.3</ele>
        <time>2025-01-16T13:23:15Z</time>
      </trkpt>
      <trkpt lat="47.56523" lon="-2.31499">
        <ele>50.4</ele>
        <time>2025-01-16T13:23:16Z</time>
      </trkpt>
      <trkpt lat="47.56523" lon="-2.31498">
        <ele>50.4</ele>
        <time>2025-01-16T13:23:17Z</time>
      </trkpt>
      <trkpt lat="47.56523" lon="-2.31496">
        <ele>50.5</ele>
        <time>2025-01-16T13:23:18Z</time>
      </trkpt>
      <trkpt lat="47.56523" lon="-2.31495">
        <ele>50.5</ele>
        <time>2025-01-16T13:23:19Z</time>
      </trkpt>
      <trkpt lat="47.56523" lon="-2.31493">
        <ele>50.6</ele>
        <time>2025-01-16T13:23:20Z</time>
      </trkpt>
      <trkpt lat="47.56522" lon="-2.31492">
        <ele>50.6</ele>
        <time>2025-01-16T13:23:21Z</time>
      </trkpt>
      <trkpt lat="47.56522" lon="-2.3149">
        <ele>50.7</ele>
        <time>2025-01-16T13:23:22Z</time>
      </trkpt>
      <trkpt lat="47.56522" lon="-2.31489">
        <ele>50.7</ele>
        <time>2025-01-16T13:23:23Z</time>
      </trkpt>
      <trkpt lat="47.56522" lon="-2.31487">
        <ele>50.8</ele>
        <time>2025-01-16T13:23:24Z</time>
      </trkpt>
      <trkpt lat="47.56522" lon="-2.31485">
        <ele>50.8</ele>
        <time>2025-01-16T13:23:25Z</time>
      </trkpt>
      <trkpt lat="47.56522" lon="-2.31484">
        <ele>50.9</ele>
        <time>2025-01-16T13:23:26Z</time>
      </trkpt>
      <trkpt lat="47.56522" lon="-2.31483">
        <ele>50.9</ele>
        <time>2025-01-16T13:23:27Z</time>
      </trkpt>
      <trkpt lat="47.56522" lon="-2.31482">
        <ele>50.9</ele>
        <time>2025-01-16T13:23:28Z</time>
      </trkpt>
      <trkpt lat="47.56521" lon="-2.3148">
        <ele>51</ele>
        <time>2025-01-16T13:23:29Z</time>
      </trkpt>
      <trkpt lat="47.56521" lon="-2.31479">
        <ele>51.1</ele>
        <time>2025-01-16T13:23:30Z</time>
      </trkpt>
      <trkpt lat="47.56521" lon="-2.31478">
        <ele>51.1</ele>
        <time>2025-01-16T13:23:31Z</time>
      </trkpt>
      <trkpt lat="47.56522" lon="-2.31476">
        <ele>51.1</ele>
        <time>2025-01-16T13:23:32Z</time>
      </trkpt>
      <trkpt lat="47.56522" lon="-2.31475">
        <ele>51.1</ele>
        <time>2025-01-16T13:23:33Z</time>
      </trkpt>
      <trkpt lat="47.56522" lon="-2.31474">
        <ele>51.2</ele>
        <time>2025-01-16T13:23:34Z</time>
      </trkpt>
      <trkpt lat="47.56522" lon="-2.31473">
        <ele>51.2</ele>
        <time>2025-01-16T13:23:35Z</time>
      </trkpt>
      <trkpt lat="47.56523" lon="-2.31471">
        <ele>51.2</ele>
        <time>2025-01-16T13:23:36Z</time>
      </trkpt>
      <trkpt lat="47.56524" lon="-2.3147">
        <ele>51.2</ele>
        <time>2025-01-16T13:23:37Z</time>
      </trkpt>
      <trkpt lat="47.56524" lon="-2.31469">
        <ele>51.3</ele>
        <time>2025-01-16T13:23:38Z</time>
      </trkpt>
      <trkpt lat="47.56525" lon="-2.31468">
        <ele>51.3</ele>
        <time>2025-01-16T13:23:39Z</time>
      </trkpt>
      <trkpt lat="47.56526" lon="-2.31467">
        <ele>51.3</ele>
        <time>2025-01-16T13:23:40Z</time>
      </trkpt>
      <trkpt lat="47.56527" lon="-2.31466">
        <ele>51.3</ele>
        <time>2025-01-16T13:23:41Z</time>
      </trkpt>
      <trkpt lat="47.56528" lon="-2.31466">
        <ele>51.2</ele>
        <time>2025-01-16T13:23:42Z</time>
      </trkpt>
      <trkpt lat="47.56529" lon="-2.31465">
        <ele>51.2</ele>
        <time>2025-01-16T13:23:43Z</time>
      </trkpt>
      <trkpt lat="47.5653" lon="-2.31465">
        <ele>51.1</ele>
        <time>2025-01-16T13:23:44Z</time>
      </trkpt>
      <trkpt lat="47.56531" lon="-2.31465">
        <ele>51</ele>
        <time>2025-01-16T13:23:45Z</time>
      </trkpt>
      <trkpt lat="47.56532" lon="-2.31465">
        <ele>51</ele>
        <time>2025-01-16T13:23:46Z</time>
      </trkpt>
      <trkpt lat="47.56533" lon="-2.31465">
        <ele>50.9</ele>
        <time>2025-01-16T13:23:47Z</time>
      </trkpt>
      <trkpt lat="47.56534" lon="-2.31464">
        <ele>50.8</ele>
        <time>2025-01-16T13:23:48Z</time>
      </trkpt>
      <trkpt lat="47.56535" lon="-2.31464">
        <ele>50.8</ele>
        <time>2025-01-16T13:23:49Z</time>
      </trkpt>
      <trkpt lat="47.56536" lon="-2.31463">
        <ele>50.7</ele>
        <time>2025-01-16T13:23:50Z</time>
      </trkpt>
      <trkpt lat="47.56537" lon="-2.31463">
        <ele>50.7</ele>
        <time>2025-01-16T13:23:51Z</time>
      </trkpt>
      <trkpt lat="47.56538" lon="-2.31463">
        <ele>50.6</ele>
        <time>2025-01-16T13:23:52Z</time>
      </trkpt>
      <trkpt lat="47.56539" lon="-2.31463">
        <ele>50.5</ele>
        <time>2025-01-16T13:23:53Z</time>
      </trkpt>
      <trkpt lat="47.5654" lon="-2.31463">
        <ele>50.5</ele>
        <time>2025-01-16T13:23:54Z</time>
      </trkpt>
      <trkpt lat="47.56541" lon="-2.31463">
        <ele>50.4</ele>
        <time>2025-01-16T13:23:55Z</time>
      </trkpt>
      <trkpt lat="47.56543" lon="-2.31463">
        <ele>50.2</ele>
        <time>2025-01-16T13:23:56Z</time>
      </trkpt>
      <trkpt lat="47.56544" lon="-2.31464">
        <ele>50.1</ele>
        <time>2025-01-16T13:23:57Z</time>
      </trkpt>
      <trkpt lat="47.56545" lon="-2.31464">
        <ele>50.1</ele>
        <time>2025-01-16T13:23:58Z</time>
      </trkpt>
      <trkpt lat="47.56546" lon="-2.31463">
        <ele>50</ele>
        <time>2025-01-16T13:23:59Z</time>
      </trkpt>
      <trkpt lat="47.56548" lon="-2.31463">
        <ele>49.9</ele>
        <time>2025-01-16T13:24:00Z</time>
      </trkpt>
      <trkpt lat="47.56549" lon="-2.31463">
        <ele>49.8</ele>
        <time>2025-01-16T13:24:01Z</time>
      </trkpt>
      <trkpt lat="47.5655" lon="-2.31464">
        <ele>49.7</ele>
        <time>2025-01-16T13:24:02Z</time>
      </trkpt>
      <trkpt lat="47.56551" lon="-2.31464">
        <ele>49.6</ele>
        <time>2025-01-16T13:24:03Z</time>
      </trkpt>
      <trkpt lat="47.56552" lon="-2.31464">
        <ele>49.6</ele>
        <time>2025-01-16T13:24:04Z</time>
      </trkpt>
      <trkpt lat="47.56553" lon="-2.31464">
        <ele>49.5</ele>
        <time>2025-01-16T13:24:05Z</time>
      </trkpt>
      <trkpt lat="47.56554" lon="-2.31464">
        <ele>49.4</ele>
        <time>2025-01-16T13:24:06Z</time>
      </trkpt>
      <trkpt lat="47.56555" lon="-2.31464">
        <ele>49.3</ele>
        <time>2025-01-16T13:24:07Z</time>
      </trkpt>
      <trkpt lat="47.56557" lon="-2.31464">
        <ele>49.2</ele>
        <time>2025-01-16T13:24:08Z</time>
      </trkpt>
      <trkpt lat="47.56558" lon="-2.31464">
        <ele>49.1</ele>
        <time>2025-01-16T13:24:09Z</time>
      </trkpt>
      <trkpt lat="47.56559" lon="-2.31464">
        <ele>49</ele>
        <time>2025-01-16T13:24:10Z</time>
      </trkpt>
      <trkpt lat="47.5656" lon="-2.31464">
        <ele>49</ele>
        <time>2025-01-16T13:24:11Z</time>
      </trkpt>
      <trkpt lat="47.56562" lon="-2.31464">
        <ele>48.8</ele>
        <time>2025-01-16T13:24:12Z</time>
      </trkpt>
      <trkpt lat="47.56563" lon="-2.31464">
        <ele>48.8</ele>
        <time>2025-01-16T13:24:13Z</time>
      </trkpt>
      <trkpt lat="47.56563" lon="-2.31464">
        <ele>48.8</ele>
        <time>2025-01-16T13:24:14Z</time>
      </trkpt>
      <trkpt lat="47.56564" lon="-2.31464">
        <ele>48.7</ele>
        <time>2025-01-16T13:24:15Z</time>
      </trkpt>
      <trkpt lat="47.56565" lon="-2.31464">
        <ele>48.6</ele>
        <time>2025-01-16T13:24:16Z</time>
      </trkpt>
      <trkpt lat="47.56566" lon="-2.31465">
        <ele>48.5</ele>
        <time>2025-01-16T13:24:17Z</time>
      </trkpt>
      <trkpt lat="47.56566" lon="-2.31465">
        <ele>48.5</ele>
        <time>2025-01-16T13:24:18Z</time>
      </trkpt>
      <trkpt lat="47.56568" lon="-2.31465">
        <ele>48.4</ele>
        <time>2025-01-16T13:24:19Z</time>
      </trkpt>
      <trkpt lat="47.56569" lon="-2.31466">
        <ele>48.3</ele>
        <time>2025-01-16T13:24:20Z</time>
      </trkpt>
      <trkpt lat="47.5657" lon="-2.31466">
        <ele>48.2</ele>
        <time>2025-01-16T13:24:21Z</time>
      </trkpt>
      <trkpt lat="47.56571" lon="-2.31466">
        <ele>48.1</ele>
        <time>2025-01-16T13:24:22Z</time>
      </trkpt>
      <trkpt lat="47.56572" lon="-2.31466">
        <ele>48</ele>
        <time>2025-01-16T13:24:23Z</time>
      </trkpt>
      <trkpt lat="47.56574" lon="-2.31466">
        <ele>47.9</ele>
        <time>2025-01-16T13:24:24Z</time>
      </trkpt>
      <trkpt lat="47.56575" lon="-2.31467">
        <ele>47.8</ele>
        <time>2025-01-16T13:24:25Z</time>
      </trkpt>
      <trkpt lat="47.56576" lon="-2.31467">
        <ele>47.7</ele>
        <time>2025-01-16T13:24:26Z</time>
      </trkpt>
      <trkpt lat="47.56577" lon="-2.31467">
        <ele>47.6</ele>
        <time>2025-01-16T13:24:27Z</time>
      </trkpt>
      <trkpt lat="47.56578" lon="-2.31468">
        <ele>47.5</ele>
        <time>2025-01-16T13:24:28Z</time>
      </trkpt>
      <trkpt lat="47.56579" lon="-2.31468">
        <ele>47.5</ele>
        <time>2025-01-16T13:24:29Z</time>
      </trkpt>
      <trkpt lat="47.5658" lon="-2.31468">
        <ele>47.4</ele>
        <time>2025-01-16T13:24:30Z</time>
      </trkpt>
      <trkpt lat="47.56581" lon="-2.31468">
        <ele>47.3</ele>
        <time>2025-01-16T13:24:31Z</time>
      </trkpt>
      <trkpt lat="47.56583" lon="-2.31468">
        <ele>47.2</ele>
        <time>2025-01-16T13:24:32Z</time>
      </trkpt>
      <trkpt lat="47.56584" lon="-2.31469">
        <ele>47.1</ele>
        <time>2025-01-16T13:24:33Z</time>
      </trkpt>
      <trkpt lat="47.56585" lon="-2.31469">
        <ele>47</ele>
        <time>2025-01-16T13:24:34Z</time>
      </trkpt>
      <trkpt lat="47.56586" lon="-2.31469">
        <ele>46.9</ele>
        <time>2025-01-16T13:24:35Z</time>
      </trkpt>
      <trkpt lat="47.56587" lon="-2.31469">
        <ele>46.9</ele>
        <time>2025-01-16T13:24:36Z</time>
      </trkpt>
      <trkpt lat="47.56588" lon="-2.3147">
        <ele>46.7</ele>
        <time>2025-01-16T13:24:37Z</time>
      </trkpt>
      <trkpt lat="47.56589" lon="-2.3147">
        <ele>46.7</ele>
        <time>2025-01-16T13:24:38Z</time>
      </trkpt>
      <trkpt lat="47.5659" lon="-2.31471">
        <ele>46.6</ele>
        <time>2025-01-16T13:24:39Z</time>
      </trkpt>
      <trkpt lat="47.56591" lon="-2.31471">
        <ele>46.5</ele>
        <time>2025-01-16T13:24:40Z</time>
      </trkpt>
      <trkpt lat="47.56592" lon="-2.31471">
        <ele>46.4</ele>
        <time>2025-01-16T13:24:41Z</time>
      </trkpt>
      <trkpt lat="47.56593" lon="-2.31472">
        <ele>46.3</ele>
        <time>2025-01-16T13:24:42Z</time>
      </trkpt>
      <trkpt lat="47.56595" lon="-2.31472">
        <ele>46.2</ele>
        <time>2025-01-16T13:24:43Z</time>
      </trkpt>
      <trkpt lat="47.56596" lon="-2.31472">
        <ele>46.1</ele>
        <time>2025-01-16T13:24:44Z</time>
      </trkpt>
      <trkpt lat="47.56598" lon="-2.31472">
        <ele>46</ele>
        <time>2025-01-16T13:24:45Z</time>
      </trkpt>
      <trkpt lat="47.56599" lon="-2.31472">
        <ele>45.9</ele>
        <time>2025-01-16T13:24:46Z</time>
      </trkpt>
      <trkpt lat="47.566" lon="-2.31472">
        <ele>45.8</ele>
        <time>2025-01-16T13:24:47Z</time>
      </trkpt>
      <trkpt lat="47.56601" lon="-2.31472">
        <ele>45.7</ele>
        <time>2025-01-16T13:24:48Z</time>
      </trkpt>
      <trkpt lat="47.56602" lon="-2.31472">
        <ele>45.7</ele>
        <time>2025-01-16T13:24:49Z</time>
      </trkpt>
      <trkpt lat="47.56603" lon="-2.31473">
        <ele>45.6</ele>
        <time>2025-01-16T13:24:50Z</time>
      </trkpt>
      <trkpt lat="47.56605" lon="-2.31473">
        <ele>45.4</ele>
        <time>2025-01-16T13:24:51Z</time>
      </trkpt>
      <trkpt lat="47.56606" lon="-2.31474">
        <ele>45.3</ele>
        <time>2025-01-16T13:24:52Z</time>
      </trkpt>
      <trkpt lat="47.56608" lon="-2.31474">
        <ele>45.2</ele>
        <time>2025-01-16T13:24:53Z</time>
      </trkpt>
      <trkpt lat="47.5661" lon="-2.31474">
        <ele>45</ele>
        <time>2025-01-16T13:24:54Z</time>
      </trkpt>
      <trkpt lat="47.56611" lon="-2.31474">
        <ele>44.9</ele>
        <time>2025-01-16T13:24:55Z</time>
      </trkpt>
      <trkpt lat="47.56613" lon="-2.31474">
        <ele>44.9</ele>
        <time>2025-01-16T13:24:56Z</time>
      </trkpt>
      <trkpt lat="47.56614" lon="-2.31474">
        <ele>44.8</ele>
        <time>2025-01-16T13:24:57Z</time>
      </trkpt>
      <trkpt lat="47.56616" lon="-2.31474">
        <ele>44.8</ele>
        <time>2025-01-16T13:24:58Z</time>
      </trkpt>
      <trkpt lat="47.56617" lon="-2.31474">
        <ele>44.7</ele>
        <time>2025-01-16T13:24:59Z</time>
      </trkpt>
      <trkpt lat="47.56619" lon="-2.31475">
        <ele>44.6</ele>
        <time>2025-01-16T13:25:00Z</time>
      </trkpt>
      <trkpt lat="47.5662" lon="-2.31475">
        <ele>44.6</ele>
        <time>2025-01-16T13:25:01Z</time>
      </trkpt>
      <trkpt lat="47.56621" lon="-2.31475">
        <ele>44.6</ele>
        <time>2025-01-16T13:25:02Z</time>
      </trkpt>
      <trkpt lat="47.56622" lon="-2.31476">
        <ele>44.5</ele>
        <time>2025-01-16T13:25:03Z</time>
      </trkpt>
      <trkpt lat="47.56624" lon="-2.31477">
        <ele>44.4</ele>
        <time>2025-01-16T13:25:04Z</time>
      </trkpt>
      <trkpt lat="47.56625" lon="-2.31477">
        <ele>44.4</ele>
        <time>2025-01-16T13:25:05Z</time>
      </trkpt>
      <trkpt lat="47.56627" lon="-2.31478">
        <ele>44.3</ele>
        <time>2025-01-16T13:25:06Z</time>
      </trkpt>
      <trkpt lat="47.56628" lon="-2.31479">
        <ele>44.3</ele>
        <time>2025-01-16T13:25:07Z</time>
      </trkpt>
      <trkpt lat="47.56629" lon="-2.31479">
        <ele>44.3</ele>
        <time>2025-01-16T13:25:08Z</time>
      </trkpt>
      <trkpt lat="47.5663" lon="-2.3148">
        <ele>44.2</ele>
        <time>2025-01-16T13:25:09Z</time>
      </trkpt>
      <trkpt lat="47.56631" lon="-2.31481">
        <ele>44.2</ele>
        <time>2025-01-16T13:25:10Z</time>
      </trkpt>
      <trkpt lat="47.56632" lon="-2.31482">
        <ele>44.2</ele>
        <time>2025-01-16T13:25:11Z</time>
      </trkpt>
      <trkpt lat="47.56634" lon="-2.31483">
        <ele>44.1</ele>
        <time>2025-01-16T13:25:12Z</time>
      </trkpt>
      <trkpt lat="47.56635" lon="-2.31484">
        <ele>44.1</ele>
        <time>2025-01-16T13:25:13Z</time>
      </trkpt>
      <trkpt lat="47.56636" lon="-2.31485">
        <ele>44.1</ele>
        <time>2025-01-16T13:25:14Z</time>
      </trkpt>
      <trkpt lat="47.56637" lon="-2.31486">
        <ele>44</ele>
        <time>2025-01-16T13:25:15Z</time>
      </trkpt>
      <trkpt lat="47.56638" lon="-2.31487">
        <ele>44</ele>
        <time>2025-01-16T13:25:16Z</time>
      </trkpt>
      <trkpt lat="47.56639" lon="-2.31488">
        <ele>44</ele>
        <time>2025-01-16T13:25:17Z</time>
      </trkpt>
      <trkpt lat="47.5664" lon="-2.31489">
        <ele>44</ele>
        <time>2025-01-16T13:25:18Z</time>
      </trkpt>
      <trkpt lat="47.5664" lon="-2.31491">
        <ele>44</ele>
        <time>2025-01-16T13:25:19Z</time>
      </trkpt>
      <trkpt lat="47.56641" lon="-2.31492">
        <ele>44.1</ele>
        <time>2025-01-16T13:25:20Z</time>
      </trkpt>
      <trkpt lat="47.56642" lon="-2.31493">
        <ele>44.1</ele>
        <time>2025-01-16T13:25:21Z</time>
      </trkpt>
      <trkpt lat="47.56643" lon="-2.31495">
        <ele>44.1</ele>
        <time>2025-01-16T13:25:22Z</time>
      </trkpt>
      <trkpt lat="47.56644" lon="-2.31496">
        <ele>44.2</ele>
        <time>2025-01-16T13:25:23Z</time>
      </trkpt>
      <trkpt lat="47.56644" lon="-2.31497">
        <ele>44.2</ele>
        <time>2025-01-16T13:25:24Z</time>
      </trkpt>
      <trkpt lat="47.56645" lon="-2.31498">
        <ele>44.2</ele>
        <time>2025-01-16T13:25:25Z</time>
      </trkpt>
      <trkpt lat="47.56646" lon="-2.31499">
        <ele>44.3</ele>
        <time>2025-01-16T13:25:26Z</time>
      </trkpt>
      <trkpt lat="47.56647" lon="-2.315">
        <ele>44.3</ele>
        <time>2025-01-16T13:25:27Z</time>
      </trkpt>
      <trkpt lat="47.56648" lon="-2.31502">
        <ele>44.3</ele>
        <time>2025-01-16T13:25:28Z</time>
      </trkpt>
      <trkpt lat="47.56649" lon="-2.31503">
        <ele>44.3</ele>
        <time>2025-01-16T13:25:29Z</time>
      </trkpt>
      <trkpt lat="47.5665" lon="-2.31505">
        <ele>44.3</ele>
        <time>2025-01-16T13:25:30Z</time>
      </trkpt>
      <trkpt lat="47.56651" lon="-2.31506">
        <ele>44.3</ele>
        <time>2025-01-16T13:25:31Z</time>
      </trkpt>
      <trkpt lat="47.56652" lon="-2.31508">
        <ele>44.3</ele>
        <time>2025-01-16T13:25:32Z</time>
      </trkpt>
      <trkpt lat="47.56652" lon="-2.31509">
        <ele>44.3</ele>
        <time>2025-01-16T13:25:33Z</time>
      </trkpt>
      <trkpt lat="47.56653" lon="-2.31511">
        <ele>44.3</ele>
        <time>2025-01-16T13:25:34Z</time>
      </trkpt>
      <trkpt lat="47.56653" lon="-2.31513">
        <ele>44.3</ele>
        <time>2025-01-16T13:25:35Z</time>
      </trkpt>
      <trkpt lat="47.56654" lon="-2.31514">
        <ele>44.3</ele>
        <time>2025-01-16T13:25:36Z</time>
      </trkpt>
      <trkpt lat="47.56655" lon="-2.31516">
        <ele>44.2</ele>
        <time>2025-01-16T13:25:37Z</time>
      </trkpt>
      <trkpt lat="47.56655" lon="-2.31517">
        <ele>44.2</ele>
        <time>2025-01-16T13:25:38Z</time>
      </trkpt>
      <trkpt lat="47.56656" lon="-2.31519">
        <ele>44.2</ele>
        <time>2025-01-16T13:25:39Z</time>
      </trkpt>
      <trkpt lat="47.56657" lon="-2.3152">
        <ele>44.2</ele>
        <time>2025-01-16T13:25:40Z</time>
      </trkpt>
      <trkpt lat="47.56657" lon="-2.31522">
        <ele>44.1</ele>
        <time>2025-01-16T13:25:41Z</time>
      </trkpt>
      <trkpt lat="47.56658" lon="-2.31523">
        <ele>44.1</ele>
        <time>2025-01-16T13:25:42Z</time>
      </trkpt>
      <trkpt lat="47.56659" lon="-2.31524">
        <ele>44.1</ele>
        <time>2025-01-16T13:25:43Z</time>
      </trkpt>
      <trkpt lat="47.56659" lon="-2.31526">
        <ele>44</ele>
        <time>2025-01-16T13:25:44Z</time>
      </trkpt>
      <trkpt lat="47.5666" lon="-2.31527">
        <ele>44</ele>
        <time>2025-01-16T13:25:45Z</time>
      </trkpt>
      <trkpt lat="47.5666" lon="-2.31529">
        <ele>44</ele>
        <time>2025-01-16T13:25:46Z</time>
      </trkpt>
      <trkpt lat="47.56661" lon="-2.3153">
        <ele>44</ele>
        <time>2025-01-16T13:25:47Z</time>
      </trkpt>
      <trkpt lat="47.56661" lon="-2.31532">
        <ele>43.9</ele>
        <time>2025-01-16T13:25:48Z</time>
      </trkpt>
      <trkpt lat="47.56662" lon="-2.31533">
        <ele>43.9</ele>
        <time>2025-01-16T13:25:49Z</time>
      </trkpt>
      <trkpt lat="47.56663" lon="-2.31535">
        <ele>43.9</ele>
        <time>2025-01-16T13:25:50Z</time>
      </trkpt>
      <trkpt lat="47.56664" lon="-2.31536">
        <ele>43.9</ele>
        <time>2025-01-16T13:25:51Z</time>
      </trkpt>
      <trkpt lat="47.56664" lon="-2.31537">
        <ele>43.9</ele>
        <time>2025-01-16T13:25:52Z</time>
      </trkpt>
      <trkpt lat="47.56665" lon="-2.31539">
        <ele>44</ele>
        <time>2025-01-16T13:25:53Z</time>
      </trkpt>
      <trkpt lat="47.56666" lon="-2.31541">
        <ele>44</ele>
        <time>2025-01-16T13:25:54Z</time>
      </trkpt>
      <trkpt lat="47.56666" lon="-2.31543">
        <ele>44</ele>
        <time>2025-01-16T13:25:55Z</time>
      </trkpt>
      <trkpt lat="47.56667" lon="-2.31544">
        <ele>44</ele>
        <time>2025-01-16T13:25:56Z</time>
      </trkpt>
      <trkpt lat="47.56668" lon="-2.31546">
        <ele>44.1</ele>
        <time>2025-01-16T13:25:57Z</time>
      </trkpt>
      <trkpt lat="47.56668" lon="-2.31547">
        <ele>44.1</ele>
        <time>2025-01-16T13:25:58Z</time>
      </trkpt>
      <trkpt lat="47.56669" lon="-2.31549">
        <ele>44.2</ele>
        <time>2025-01-16T13:25:59Z</time>
      </trkpt>
      <trkpt lat="47.56669" lon="-2.31551">
        <ele>44.2</ele>
        <time>2025-01-16T13:26:00Z</time>
      </trkpt>
      <trkpt lat="47.5667" lon="-2.31552">
        <ele>44.2</ele>
        <time>2025-01-16T13:26:01Z</time>
      </trkpt>
      <trkpt lat="47.5667" lon="-2.31554">
        <ele>44.2</ele>
        <time>2025-01-16T13:26:02Z</time>
      </trkpt>
      <trkpt lat="47.56671" lon="-2.31555">
        <ele>44.3</ele>
        <time>2025-01-16T13:26:03Z</time>
      </trkpt>
      <trkpt lat="47.56671" lon="-2.31556">
        <ele>44.3</ele>
        <time>2025-01-16T13:26:04Z</time>
      </trkpt>
      <trkpt lat="47.56672" lon="-2.31558">
        <ele>44.3</ele>
        <time>2025-01-16T13:26:05Z</time>
      </trkpt>
      <trkpt lat="47.56672" lon="-2.3156">
        <ele>44.3</ele>
        <time>2025-01-16T13:26:06Z</time>
      </trkpt>
      <trkpt lat="47.56673" lon="-2.31562">
        <ele>44.3</ele>
        <time>2025-01-16T13:26:07Z</time>
      </trkpt>
      <trkpt lat="47.56674" lon="-2.31563">
        <ele>44.3</ele>
        <time>2025-01-16T13:26:08Z</time>
      </trkpt>
      <trkpt lat="47.56675" lon="-2.31565">
        <ele>44.4</ele>
        <time>2025-01-16T13:26:09Z</time>
      </trkpt>
      <trkpt lat="47.56675" lon="-2.31567">
        <ele>44.3</ele>
        <time>2025-01-16T13:26:10Z</time>
      </trkpt>
      <trkpt lat="47.56676" lon="-2.31568">
        <ele>44.4</ele>
        <time>2025-01-16T13:26:11Z</time>
      </trkpt>
      <trkpt lat="47.56677" lon="-2.3157">
        <ele>44.4</ele>
        <time>2025-01-16T13:26:12Z</time>
      </trkpt>
      <trkpt lat="47.56678" lon="-2.31571">
        <ele>44.5</ele>
        <time>2025-01-16T13:26:13Z</time>
      </trkpt>
      <trkpt lat="47.56679" lon="-2.31573">
        <ele>44.5</ele>
        <time>2025-01-16T13:26:14Z</time>
      </trkpt>
      <trkpt lat="47.5668" lon="-2.31574">
        <ele>44.6</ele>
        <time>2025-01-16T13:26:15Z</time>
      </trkpt>
      <trkpt lat="47.5668" lon="-2.31576">
        <ele>44.6</ele>
        <time>2025-01-16T13:26:16Z</time>
      </trkpt>
      <trkpt lat="47.5668" lon="-2.31576">
        <ele>44.6</ele>
        <time>2025-01-16T13:26:17Z</time>
      </trkpt>
      <trkpt lat="47.56681" lon="-2.31577">
        <ele>44.7</ele>
        <time>2025-01-16T13:26:18Z</time>
      </trkpt>
      <trkpt lat="47.56682" lon="-2.31579">
        <ele>44.7</ele>
        <time>2025-01-16T13:26:19Z</time>
      </trkpt>
      <trkpt lat="47.56682" lon="-2.31581">
        <ele>44.7</ele>
        <time>2025-01-16T13:26:20Z</time>
      </trkpt>
      <trkpt lat="47.56683" lon="-2.31582">
        <ele>44.8</ele>
        <time>2025-01-16T13:26:21Z</time>
      </trkpt>
      <trkpt lat="47.56683" lon="-2.31583">
        <ele>44.8</ele>
        <time>2025-01-16T13:26:22Z</time>
      </trkpt>
      <trkpt lat="47.56684" lon="-2.31584">
        <ele>44.8</ele>
        <time>2025-01-16T13:26:23Z</time>
      </trkpt>
      <trkpt lat="47.56685" lon="-2.31586">
        <ele>44.8</ele>
        <time>2025-01-16T13:26:24Z</time>
      </trkpt>
      <trkpt lat="47.56685" lon="-2.31587">
        <ele>44.7</ele>
        <time>2025-01-16T13:26:25Z</time>
      </trkpt>
      <trkpt lat="47.56686" lon="-2.31589">
        <ele>44.6</ele>
        <time>2025-01-16T13:26:26Z</time>
      </trkpt>
      <trkpt lat="47.56686" lon="-2.3159">
        <ele>44.5</ele>
        <time>2025-01-16T13:26:27Z</time>
      </trkpt>
      <trkpt lat="47.56687" lon="-2.31592">
        <ele>44.4</ele>
        <time>2025-01-16T13:26:28Z</time>
      </trkpt>
      <trkpt lat="47.56688" lon="-2.31594">
        <ele>44.3</ele>
        <time>2025-01-16T13:26:29Z</time>
      </trkpt>
      <trkpt lat="47.5669" lon="-2.31597">
        <ele>44.2</ele>
        <time>2025-01-16T13:26:30Z</time>
      </trkpt>
      <trkpt lat="47.56691" lon="-2.316">
        <ele>44</ele>
        <time>2025-01-16T13:26:31Z</time>
      </trkpt>
      <trkpt lat="47.56693" lon="-2.31602">
        <ele>43.9</ele>
        <time>2025-01-16T13:26:32Z</time>
      </trkpt>
      <trkpt lat="47.56694" lon="-2.31603">
        <ele>43.9</ele>
        <time>2025-01-16T13:26:33Z</time>
      </trkpt>
      <trkpt lat="47.56694" lon="-2.31604">
        <ele>43.7</ele>
        <time>2025-01-16T13:26:34Z</time>
      </trkpt>
      <trkpt lat="47.56695" lon="-2.31606">
        <ele>43.6</ele>
        <time>2025-01-16T13:26:35Z</time>
      </trkpt>
      <trkpt lat="47.56696" lon="-2.31609">
        <ele>43.3</ele>
        <time>2025-01-16T13:26:36Z</time>
      </trkpt>
      <trkpt lat="47.56697" lon="-2.31611">
        <ele>43.2</ele>
        <time>2025-01-16T13:26:37Z</time>
      </trkpt>
      <trkpt lat="47.56697" lon="-2.31612">
        <ele>43.2</ele>
        <time>2025-01-16T13:26:38Z</time>
      </trkpt>
      <trkpt lat="47.56698" lon="-2.31613">
        <ele>43.2</ele>
        <time>2025-01-16T13:26:39Z</time>
      </trkpt>
      <trkpt lat="47.56699" lon="-2.31615">
        <ele>43.3</ele>
        <time>2025-01-16T13:26:40Z</time>
      </trkpt>
      <trkpt lat="47.567" lon="-2.31617">
        <ele>43.3</ele>
        <time>2025-01-16T13:26:41Z</time>
      </trkpt>
      <trkpt lat="47.567" lon="-2.31618">
        <ele>43.3</ele>
        <time>2025-01-16T13:26:42Z</time>
      </trkpt>
      <trkpt lat="47.56701" lon="-2.31618">
        <ele>43.4</ele>
        <time>2025-01-16T13:26:43Z</time>
      </trkpt>
      <trkpt lat="47.56701" lon="-2.3162">
        <ele>43.3</ele>
        <time>2025-01-16T13:26:44Z</time>
      </trkpt>
      <trkpt lat="47.56702" lon="-2.31621">
        <ele>43.4</ele>
        <time>2025-01-16T13:26:45Z</time>
      </trkpt>
      <trkpt lat="47.56703" lon="-2.31623">
        <ele>43.4</ele>
        <time>2025-01-16T13:26:46Z</time>
      </trkpt>
      <trkpt lat="47.56704" lon="-2.31625">
        <ele>43.3</ele>
        <time>2025-01-16T13:26:47Z</time>
      </trkpt>
      <trkpt lat="47.56704" lon="-2.31627">
        <ele>43.3</ele>
        <time>2025-01-16T13:26:48Z</time>
      </trkpt>
      <trkpt lat="47.56705" lon="-2.31628">
        <ele>43.3</ele>
        <time>2025-01-16T13:26:49Z</time>
      </trkpt>
      <trkpt lat="47.56705" lon="-2.3163">
        <ele>43.2</ele>
        <time>2025-01-16T13:26:50Z</time>
      </trkpt>
      <trkpt lat="47.56706" lon="-2.31633">
        <ele>43.2</ele>
        <time>2025-01-16T13:26:51Z</time>
      </trkpt>
      <trkpt lat="47.56707" lon="-2.31635">
        <ele>43.1</ele>
        <time>2025-01-16T13:26:52Z</time>
      </trkpt>
      <trkpt lat="47.56708" lon="-2.31638">
        <ele>43</ele>
        <time>2025-01-16T13:26:53Z</time>
      </trkpt>
      <trkpt lat="47.56708" lon="-2.31639">
        <ele>43</ele>
        <time>2025-01-16T13:26:54Z</time>
      </trkpt>
      <trkpt lat="47.56708" lon="-2.31639">
        <ele>43</ele>
        <time>2025-01-16T13:26:55Z</time>
      </trkpt>
      <trkpt lat="47.56708" lon="-2.3164">
        <ele>43</ele>
        <time>2025-01-16T13:26:56Z</time>
      </trkpt>
      <trkpt lat="47.56708" lon="-2.31641">
        <ele>43</ele>
        <time>2025-01-16T13:26:57Z</time>
      </trkpt>
      <trkpt lat="47.56709" lon="-2.31642">
        <ele>43</ele>
        <time>2025-01-16T13:26:58Z</time>
      </trkpt>
      <trkpt lat="47.5671" lon="-2.31643">
        <ele>43</ele>
        <time>2025-01-16T13:26:59Z</time>
      </trkpt>
      <trkpt lat="47.56711" lon="-2.31644">
        <ele>43</ele>
        <time>2025-01-16T13:27:00Z</time>
      </trkpt>
      <trkpt lat="47.56711" lon="-2.31645">
        <ele>43</ele>
        <time>2025-01-16T13:27:01Z</time>
      </trkpt>
      <trkpt lat="47.56712" lon="-2.31646">
        <ele>43.1</ele>
        <time>2025-01-16T13:27:02Z</time>
      </trkpt>
      <trkpt lat="47.56713" lon="-2.31648">
        <ele>43.1</ele>
        <time>2025-01-16T13:27:03Z</time>
      </trkpt>
      <trkpt lat="47.56713" lon="-2.31649">
        <ele>43.1</ele>
        <time>2025-01-16T13:27:04Z</time>
      </trkpt>
      <trkpt lat="47.56714" lon="-2.31649">
        <ele>43.1</ele>
        <time>2025-01-16T13:27:05Z</time>
      </trkpt>
      <trkpt lat="47.56714" lon="-2.3165">
        <ele>43.2</ele>
        <time>2025-01-16T13:27:06Z</time>
      </trkpt>
      <trkpt lat="47.56715" lon="-2.3165">
        <ele>43.2</ele>
        <time>2025-01-16T13:27:07Z</time>
      </trkpt>
      <trkpt lat="47.56716" lon="-2.3165">
        <ele>43.2</ele>
        <time>2025-01-16T13:27:08Z</time>
      </trkpt>
      <trkpt lat="47.56716" lon="-2.3165">
        <ele>43.2</ele>
        <time>2025-01-16T13:27:09Z</time>
      </trkpt>
      <trkpt lat="47.56717" lon="-2.31651">
        <ele>43.3</ele>
        <time>2025-01-16T13:27:10Z</time>
      </trkpt>
      <trkpt lat="47.56718" lon="-2.31652">
        <ele>43.3</ele>
        <time>2025-01-16T13:27:11Z</time>
      </trkpt>
      <trkpt lat="47.56718" lon="-2.31654">
        <ele>43.4</ele>
        <time>2025-01-16T13:27:12Z</time>
      </trkpt>
      <trkpt lat="47.56719" lon="-2.31655">
        <ele>43.4</ele>
        <time>2025-01-16T13:27:13Z</time>
      </trkpt>
      <trkpt lat="47.5672" lon="-2.31657">
        <ele>43.5</ele>
        <time>2025-01-16T13:27:14Z</time>
      </trkpt>
      <trkpt lat="47.56721" lon="-2.31659">
        <ele>43.7</ele>
        <time>2025-01-16T13:27:15Z</time>
      </trkpt>
      <trkpt lat="47.56721" lon="-2.31661">
        <ele>43.7</ele>
        <time>2025-01-16T13:27:16Z</time>
      </trkpt>
      <trkpt lat="47.56722" lon="-2.31662">
        <ele>43.8</ele>
        <time>2025-01-16T13:27:17Z</time>
      </trkpt>
      <trkpt lat="47.56723" lon="-2.31663">
        <ele>43.9</ele>
        <time>2025-01-16T13:27:18Z</time>
      </trkpt>
      <trkpt lat="47.56724" lon="-2.31663">
        <ele>44</ele>
        <time>2025-01-16T13:27:19Z</time>
      </trkpt>
      <trkpt lat="47.56725" lon="-2.31665">
        <ele>44.1</ele>
        <time>2025-01-16T13:27:20Z</time>
      </trkpt>
      <trkpt lat="47.56726" lon="-2.31666">
        <ele>44.2</ele>
        <time>2025-01-16T13:27:21Z</time>
      </trkpt>
      <trkpt lat="47.56727" lon="-2.31667">
        <ele>44.4</ele>
        <time>2025-01-16T13:27:22Z</time>
      </trkpt>
      <trkpt lat="47.56728" lon="-2.31668">
        <ele>44.5</ele>
        <time>2025-01-16T13:27:23Z</time>
      </trkpt>
      <trkpt lat="47.56729" lon="-2.3167">
        <ele>44.6</ele>
        <time>2025-01-16T13:27:24Z</time>
      </trkpt>
      <trkpt lat="47.56729" lon="-2.31672">
        <ele>44.7</ele>
        <time>2025-01-16T13:27:25Z</time>
      </trkpt>
      <trkpt lat="47.5673" lon="-2.31673">
        <ele>44.8</ele>
        <time>2025-01-16T13:27:26Z</time>
      </trkpt>
      <trkpt lat="47.5673" lon="-2.31675">
        <ele>44.9</ele>
        <time>2025-01-16T13:27:27Z</time>
      </trkpt>
      <trkpt lat="47.56731" lon="-2.31676">
        <ele>45</ele>
        <time>2025-01-16T13:27:28Z</time>
      </trkpt>
      <trkpt lat="47.56731" lon="-2.31677">
        <ele>45</ele>
        <time>2025-01-16T13:27:29Z</time>
      </trkpt>
      <trkpt lat="47.56732" lon="-2.31679">
        <ele>45.1</ele>
        <time>2025-01-16T13:27:30Z</time>
      </trkpt>
      <trkpt lat="47.56733" lon="-2.3168">
        <ele>45.3</ele>
        <time>2025-01-16T13:27:31Z</time>
      </trkpt>
      <trkpt lat="47.56733" lon="-2.31682">
        <ele>45.3</ele>
        <time>2025-01-16T13:27:32Z</time>
      </trkpt>
      <trkpt lat="47.56733" lon="-2.31683">
        <ele>45.4</ele>
        <time>2025-01-16T13:27:33Z</time>
      </trkpt>
      <trkpt lat="47.56733" lon="-2.31683">
        <ele>45.4</ele>
        <time>2025-01-16T13:27:34Z</time>
      </trkpt>
      <trkpt lat="47.56733" lon="-2.31684">
        <ele>45.4</ele>
        <time>2025-01-16T13:27:35Z</time>
      </trkpt>
      <trkpt lat="47.56732" lon="-2.31684">
        <ele>45.3</ele>
        <time>2025-01-16T13:27:36Z</time>
      </trkpt>
      <trkpt lat="47.56732" lon="-2.31684">
        <ele>45.3</ele>
        <time>2025-01-16T13:27:37Z</time>
      </trkpt>
      <trkpt lat="47.56733" lon="-2.31685">
        <ele>45.4</ele>
        <time>2025-01-16T13:27:38Z</time>
      </trkpt>
      <trkpt lat="47.56734" lon="-2.31686">
        <ele>45.5</ele>
        <time>2025-01-16T13:27:39Z</time>
      </trkpt>
      <trkpt lat="47.56735" lon="-2.31687">
        <ele>45.7</ele>
        <time>2025-01-16T13:27:40Z</time>
      </trkpt>
      <trkpt lat="47.56735" lon="-2.31689">
        <ele>45.7</ele>
        <time>2025-01-16T13:27:41Z</time>
      </trkpt>
      <trkpt lat="47.56736" lon="-2.3169">
        <ele>45.8</ele>
        <time>2025-01-16T13:27:42Z</time>
      </trkpt>
      <trkpt lat="47.56736" lon="-2.31692">
        <ele>45.9</ele>
        <time>2025-01-16T13:27:43Z</time>
      </trkpt>
      <trkpt lat="47.56737" lon="-2.31694">
        <ele>46</ele>
        <time>2025-01-16T13:27:44Z</time>
      </trkpt>
      <trkpt lat="47.56738" lon="-2.31695">
        <ele>46.1</ele>
        <time>2025-01-16T13:27:45Z</time>
      </trkpt>
      <trkpt lat="47.56738" lon="-2.31697">
        <ele>46.2</ele>
        <time>2025-01-16T13:27:46Z</time>
      </trkpt>
      <trkpt lat="47.56739" lon="-2.31698">
        <ele>46.3</ele>
        <time>2025-01-16T13:27:47Z</time>
      </trkpt>
      <trkpt lat="47.5674" lon="-2.31699">
        <ele>46.3</ele>
        <time>2025-01-16T13:27:48Z</time>
      </trkpt>
      <trkpt lat="47.56741" lon="-2.31701">
        <ele>46.4</ele>
        <time>2025-01-16T13:27:49Z</time>
      </trkpt>
      <trkpt lat="47.56742" lon="-2.31702">
        <ele>46.5</ele>
        <time>2025-01-16T13:27:50Z</time>
      </trkpt>
      <trkpt lat="47.56743" lon="-2.31704">
        <ele>46.6</ele>
        <time>2025-01-16T13:27:51Z</time>
      </trkpt>
      <trkpt lat="47.56743" lon="-2.31705">
        <ele>46.6</ele>
        <time>2025-01-16T13:27:52Z</time>
      </trkpt>
      <trkpt lat="47.56744" lon="-2.31707">
        <ele>46.7</ele>
        <time>2025-01-16T13:27:53Z</time>
      </trkpt>
      <trkpt lat="47.56745" lon="-2.31708">
        <ele>46.7</ele>
        <time>2025-01-16T13:27:54Z</time>
      </trkpt>
      <trkpt lat="47.56746" lon="-2.31709">
        <ele>46.8</ele>
        <time>2025-01-16T13:27:55Z</time>
      </trkpt>
      <trkpt lat="47.56746" lon="-2.3171">
        <ele>46.8</ele>
        <time>2025-01-16T13:27:56Z</time>
      </trkpt>
      <trkpt lat="47.56747" lon="-2.31711">
        <ele>46.8</ele>
        <time>2025-01-16T13:27:57Z</time>
      </trkpt>
      <trkpt lat="47.56747" lon="-2.31713">
        <ele>46.9</ele>
        <time>2025-01-16T13:27:58Z</time>
      </trkpt>
      <trkpt lat="47.56748" lon="-2.31714">
        <ele>46.9</ele>
        <time>2025-01-16T13:27:59Z</time>
      </trkpt>
      <trkpt lat="47.56749" lon="-2.31715">
        <ele>47</ele>
        <time>2025-01-16T13:28:00Z</time>
      </trkpt>
      <trkpt lat="47.56749" lon="-2.31716">
        <ele>47</ele>
        <time>2025-01-16T13:28:01Z</time>
      </trkpt>
      <trkpt lat="47.5675" lon="-2.31717">
        <ele>47</ele>
        <time>2025-01-16T13:28:02Z</time>
      </trkpt>
      <trkpt lat="47.56751" lon="-2.31718">
        <ele>47.1</ele>
        <time>2025-01-16T13:28:03Z</time>
      </trkpt>
      <trkpt lat="47.56751" lon="-2.31719">
        <ele>47.1</ele>
        <time>2025-01-16T13:28:04Z</time>
      </trkpt>
      <trkpt lat="47.56752" lon="-2.31721">
        <ele>47.2</ele>
        <time>2025-01-16T13:28:05Z</time>
      </trkpt>
      <trkpt lat="47.56752" lon="-2.31722">
        <ele>47.2</ele>
        <time>2025-01-16T13:28:06Z</time>
      </trkpt>
      <trkpt lat="47.56753" lon="-2.31723">
        <ele>47.3</ele>
        <time>2025-01-16T13:28:07Z</time>
      </trkpt>
      <trkpt lat="47.56754" lon="-2.31724">
        <ele>47.5</ele>
        <time>2025-01-16T13:28:08Z</time>
      </trkpt>
      <trkpt lat="47.56754" lon="-2.31725">
        <ele>47.5</ele>
        <time>2025-01-16T13:28:09Z</time>
      </trkpt>
      <trkpt lat="47.56754" lon="-2.31727">
        <ele>47.6</ele>
        <time>2025-01-16T13:28:10Z</time>
      </trkpt>
      <trkpt lat="47.56755" lon="-2.31728">
        <ele>47.7</ele>
        <time>2025-01-16T13:28:11Z</time>
      </trkpt>
      <trkpt lat="47.56756" lon="-2.31729">
        <ele>47.8</ele>
        <time>2025-01-16T13:28:12Z</time>
      </trkpt>
      <trkpt lat="47.56756" lon="-2.31731">
        <ele>47.9</ele>
        <time>2025-01-16T13:28:13Z</time>
      </trkpt>
      <trkpt lat="47.56757" lon="-2.31732">
        <ele>48</ele>
        <time>2025-01-16T13:28:14Z</time>
      </trkpt>
      <trkpt lat="47.56758" lon="-2.31733">
        <ele>48.1</ele>
        <time>2025-01-16T13:28:15Z</time>
      </trkpt>
      <trkpt lat="47.56758" lon="-2.31734">
        <ele>48.2</ele>
        <time>2025-01-16T13:28:16Z</time>
      </trkpt>
      <trkpt lat="47.56759" lon="-2.31735">
        <ele>48.3</ele>
        <time>2025-01-16T13:28:17Z</time>
      </trkpt>
      <trkpt lat="47.5676" lon="-2.31737">
        <ele>48.4</ele>
        <time>2025-01-16T13:28:18Z</time>
      </trkpt>
      <trkpt lat="47.5676" lon="-2.31738">
        <ele>48.4</ele>
        <time>2025-01-16T13:28:19Z</time>
      </trkpt>
      <trkpt lat="47.56761" lon="-2.31739">
        <ele>48.6</ele>
        <time>2025-01-16T13:28:20Z</time>
      </trkpt>
      <trkpt lat="47.56762" lon="-2.3174">
        <ele>48.7</ele>
        <time>2025-01-16T13:28:21Z</time>
      </trkpt>
      <trkpt lat="47.56762" lon="-2.31741">
        <ele>48.7</ele>
        <time>2025-01-16T13:28:22Z</time>
      </trkpt>
      <trkpt lat="47.56763" lon="-2.31742">
        <ele>48.8</ele>
        <time>2025-01-16T13:28:23Z</time>
      </trkpt>
      <trkpt lat="47.56764" lon="-2.31744">
        <ele>48.9</ele>
        <time>2025-01-16T13:28:24Z</time>
      </trkpt>
      <trkpt lat="47.56765" lon="-2.31745">
        <ele>49</ele>
        <time>2025-01-16T13:28:25Z</time>
      </trkpt>
      <trkpt lat="47.56766" lon="-2.31747">
        <ele>49.1</ele>
        <time>2025-01-16T13:28:26Z</time>
      </trkpt>
      <trkpt lat="47.56766" lon="-2.31748">
        <ele>49.1</ele>
        <time>2025-01-16T13:28:27Z</time>
      </trkpt>
      <trkpt lat="47.56767" lon="-2.3175">
        <ele>49.2</ele>
        <time>2025-01-16T13:28:28Z</time>
      </trkpt>
      <trkpt lat="47.56768" lon="-2.31751">
        <ele>49.3</ele>
        <time>2025-01-16T13:28:29Z</time>
      </trkpt>
      <trkpt lat="47.56769" lon="-2.31752">
        <ele>49.4</ele>
        <time>2025-01-16T13:28:30Z</time>
      </trkpt>
      <trkpt lat="47.56769" lon="-2.31753">
        <ele>49.4</ele>
        <time>2025-01-16T13:28:31Z</time>
      </trkpt>
      <trkpt lat="47.5677" lon="-2.31755">
        <ele>49.6</ele>
        <time>2025-01-16T13:28:32Z</time>
      </trkpt>
      <trkpt lat="47.5677" lon="-2.31756">
        <ele>49.6</ele>
        <time>2025-01-16T13:28:33Z</time>
      </trkpt>
      <trkpt lat="47.56771" lon="-2.31758">
        <ele>49.7</ele>
        <time>2025-01-16T13:28:34Z</time>
      </trkpt>
      <trkpt lat="47.56772" lon="-2.31759">
        <ele>49.8</ele>
        <time>2025-01-16T13:28:35Z</time>
      </trkpt>
      <trkpt lat="47.56772" lon="-2.3176">
        <ele>49.9</ele>
        <time>2025-01-16T13:28:36Z</time>
      </trkpt>
      <trkpt lat="47.56773" lon="-2.31762">
        <ele>50</ele>
        <time>2025-01-16T13:28:37Z</time>
      </trkpt>
      <trkpt lat="47.56773" lon="-2.31763">
        <ele>50</ele>
        <time>2025-01-16T13:28:38Z</time>
      </trkpt>
      <trkpt lat="47.56773" lon="-2.31765">
        <ele>50.1</ele>
        <time>2025-01-16T13:28:39Z</time>
      </trkpt>
      <trkpt lat="47.56774" lon="-2.31767">
        <ele>50.3</ele>
        <time>2025-01-16T13:28:40Z</time>
      </trkpt>
      <trkpt lat="47.56774" lon="-2.31769">
        <ele>50.3</ele>
        <time>2025-01-16T13:28:41Z</time>
      </trkpt>
      <trkpt lat="47.56774" lon="-2.31771">
        <ele>50.4</ele>
        <time>2025-01-16T13:28:42Z</time>
      </trkpt>
      <trkpt lat="47.56774" lon="-2.31771">
        <ele>50.4</ele>
        <time>2025-01-16T13:28:43Z</time>
      </trkpt>
      <trkpt lat="47.56774" lon="-2.31771">
        <ele>50.4</ele>
        <time>2025-01-16T13:28:44Z</time>
      </trkpt>
      <trkpt lat="47.56774" lon="-2.31771">
        <ele>50.4</ele>
        <time>2025-01-16T13:28:45Z</time>
      </trkpt>
      <trkpt lat="47.56774" lon="-2.31773">
        <ele>50.4</ele>
        <time>2025-01-16T13:28:46Z</time>
      </trkpt>
      <trkpt lat="47.56774" lon="-2.31775">
        <ele>50.5</ele>
        <time>2025-01-16T13:28:47Z</time>
      </trkpt>
      <trkpt lat="47.56774" lon="-2.31777">
        <ele>50.6</ele>
        <time>2025-01-16T13:28:48Z</time>
      </trkpt>
      <trkpt lat="47.56774" lon="-2.31778">
        <ele>50.6</ele>
        <time>2025-01-16T13:28:49Z</time>
      </trkpt>
      <trkpt lat="47.56773" lon="-2.31781">
        <ele>50.4</ele>
        <time>2025-01-16T13:28:50Z</time>
      </trkpt>
      <trkpt lat="47.56773" lon="-2.31783">
        <ele>50.4</ele>
        <time>2025-01-16T13:28:51Z</time>
      </trkpt>
      <trkpt lat="47.56773" lon="-2.31784">
        <ele>50.3</ele>
        <time>2025-01-16T13:28:52Z</time>
      </trkpt>
      <trkpt lat="47.56773" lon="-2.31785">
        <ele>50.3</ele>
        <time>2025-01-16T13:28:53Z</time>
      </trkpt>
      <trkpt lat="47.56773" lon="-2.31787">
        <ele>50.3</ele>
        <time>2025-01-16T13:28:54Z</time>
      </trkpt>
      <trkpt lat="47.56772" lon="-2.31789">
        <ele>50.1</ele>
        <time>2025-01-16T13:28:55Z</time>
      </trkpt>
      <trkpt lat="47.56772" lon="-2.31792">
        <ele>50.1</ele>
        <time>2025-01-16T13:28:56Z</time>
      </trkpt>
      <trkpt lat="47.56772" lon="-2.31793">
        <ele>50.1</ele>
        <time>2025-01-16T13:28:57Z</time>
      </trkpt>
      <trkpt lat="47.56772" lon="-2.31795">
        <ele>50</ele>
        <time>2025-01-16T13:28:58Z</time>
      </trkpt>
      <trkpt lat="47.56772" lon="-2.31797">
        <ele>50</ele>
        <time>2025-01-16T13:28:59Z</time>
      </trkpt>
      <trkpt lat="47.56772" lon="-2.31798">
        <ele>50</ele>
        <time>2025-01-16T13:29:00Z</time>
      </trkpt>
      <trkpt lat="47.56771" lon="-2.318">
        <ele>49.9</ele>
        <time>2025-01-16T13:29:01Z</time>
      </trkpt>
      <trkpt lat="47.56771" lon="-2.31802">
        <ele>49.8</ele>
        <time>2025-01-16T13:29:02Z</time>
      </trkpt>
      <trkpt lat="47.5677" lon="-2.31804">
        <ele>49.7</ele>
        <time>2025-01-16T13:29:03Z</time>
      </trkpt>
      <trkpt lat="47.5677" lon="-2.31805">
        <ele>49.7</ele>
        <time>2025-01-16T13:29:04Z</time>
      </trkpt>
      <trkpt lat="47.56769" lon="-2.31807">
        <ele>49.8</ele>
        <time>2025-01-16T13:29:05Z</time>
      </trkpt>
      <trkpt lat="47.56768" lon="-2.31808">
        <ele>49.8</ele>
        <time>2025-01-16T13:29:06Z</time>
      </trkpt>
      <trkpt lat="47.56768" lon="-2.31809">
        <ele>49.8</ele>
        <time>2025-01-16T13:29:07Z</time>
      </trkpt>
      <trkpt lat="47.56767" lon="-2.31811">
        <ele>49.9</ele>
        <time>2025-01-16T13:29:08Z</time>
      </trkpt>
      <trkpt lat="47.56766" lon="-2.31812">
        <ele>49.8</ele>
        <time>2025-01-16T13:29:09Z</time>
      </trkpt>
      <trkpt lat="47.56765" lon="-2.31813">
        <ele>49.8</ele>
        <time>2025-01-16T13:29:10Z</time>
      </trkpt>
      <trkpt lat="47.56765" lon="-2.31814">
        <ele>49.9</ele>
        <time>2025-01-16T13:29:11Z</time>
      </trkpt>
      <trkpt lat="47.56764" lon="-2.31815">
        <ele>49.8</ele>
        <time>2025-01-16T13:29:12Z</time>
      </trkpt>
      <trkpt lat="47.56763" lon="-2.31817">
        <ele>49.9</ele>
        <time>2025-01-16T13:29:13Z</time>
      </trkpt>
      <trkpt lat="47.56763" lon="-2.31818">
        <ele>49.9</ele>
        <time>2025-01-16T13:29:14Z</time>
      </trkpt>
      <trkpt lat="47.56762" lon="-2.3182">
        <ele>49.9</ele>
        <time>2025-01-16T13:29:15Z</time>
      </trkpt>
      <trkpt lat="47.56761" lon="-2.31822">
        <ele>49.9</ele>
        <time>2025-01-16T13:29:16Z</time>
      </trkpt>
      <trkpt lat="47.56761" lon="-2.31824">
        <ele>49.9</ele>
        <time>2025-01-16T13:29:17Z</time>
      </trkpt>
      <trkpt lat="47.5676" lon="-2.31825">
        <ele>49.9</ele>
        <time>2025-01-16T13:29:18Z</time>
      </trkpt>
      <trkpt lat="47.5676" lon="-2.31826">
        <ele>49.9</ele>
        <time>2025-01-16T13:29:19Z</time>
      </trkpt>
      <trkpt lat="47.56759" lon="-2.31827">
        <ele>49.8</ele>
        <time>2025-01-16T13:29:20Z</time>
      </trkpt>
      <trkpt lat="47.56759" lon="-2.31828">
        <ele>49.8</ele>
        <time>2025-01-16T13:29:21Z</time>
      </trkpt>
      <trkpt lat="47.56758" lon="-2.3183">
        <ele>49.8</ele>
        <time>2025-01-16T13:29:22Z</time>
      </trkpt>
      <trkpt lat="47.56757" lon="-2.31831">
        <ele>49.7</ele>
        <time>2025-01-16T13:29:23Z</time>
      </trkpt>
      <trkpt lat="47.56756" lon="-2.31832">
        <ele>49.6</ele>
        <time>2025-01-16T13:29:24Z</time>
      </trkpt>
      <trkpt lat="47.56756" lon="-2.31833">
        <ele>49.6</ele>
        <time>2025-01-16T13:29:25Z</time>
      </trkpt>
      <trkpt lat="47.56755" lon="-2.31834">
        <ele>49.6</ele>
        <time>2025-01-16T13:29:26Z</time>
      </trkpt>
      <trkpt lat="47.56754" lon="-2.31836">
        <ele>49.5</ele>
        <time>2025-01-16T13:29:27Z</time>
      </trkpt>
      <trkpt lat="47.56753" lon="-2.31838">
        <ele>49.5</ele>
        <time>2025-01-16T13:29:28Z</time>
      </trkpt>
      <trkpt lat="47.56752" lon="-2.31839">
        <ele>49.4</ele>
        <time>2025-01-16T13:29:29Z</time>
      </trkpt>
      <trkpt lat="47.56751" lon="-2.3184">
        <ele>49.3</ele>
        <time>2025-01-16T13:29:30Z</time>
      </trkpt>
      <trkpt lat="47.5675" lon="-2.3184">
        <ele>49.2</ele>
        <time>2025-01-16T13:29:31Z</time>
      </trkpt>
      <trkpt lat="47.56749" lon="-2.3184">
        <ele>49.2</ele>
        <time>2025-01-16T13:29:32Z</time>
      </trkpt>
      <trkpt lat="47.56748" lon="-2.31841">
        <ele>49.3</ele>
        <time>2025-01-16T13:29:33Z</time>
      </trkpt>
      <trkpt lat="47.56746" lon="-2.31841">
        <ele>49.3</ele>
        <time>2025-01-16T13:29:34Z</time>
      </trkpt>
      <trkpt lat="47.56745" lon="-2.31842">
        <ele>49.3</ele>
        <time>2025-01-16T13:29:35Z</time>
      </trkpt>
      <trkpt lat="47.56744" lon="-2.31842">
        <ele>49.3</ele>
        <time>2025-01-16T13:29:36Z</time>
      </trkpt>
      <trkpt lat="47.56743" lon="-2.31842">
        <ele>49.3</ele>
        <time>2025-01-16T13:29:37Z</time>
      </trkpt>
      <trkpt lat="47.56742" lon="-2.31843">
        <ele>49.3</ele>
        <time>2025-01-16T13:29:38Z</time>
      </trkpt>
      <trkpt lat="47.56741" lon="-2.31843">
        <ele>49.3</ele>
        <time>2025-01-16T13:29:39Z</time>
      </trkpt>
      <trkpt lat="47.56739" lon="-2.31843">
        <ele>49.3</ele>
        <time>2025-01-16T13:29:40Z</time>
      </trkpt>
      <trkpt lat="47.56738" lon="-2.31844">
        <ele>49.4</ele>
        <time>2025-01-16T13:29:41Z</time>
      </trkpt>
      <trkpt lat="47.56737" lon="-2.31844">
        <ele>49.4</ele>
        <time>2025-01-16T13:29:42Z</time>
      </trkpt>
      <trkpt lat="47.56736" lon="-2.31844">
        <ele>49.4</ele>
        <time>2025-01-16T13:29:43Z</time>
      </trkpt>
      <trkpt lat="47.56734" lon="-2.31845">
        <ele>49.4</ele>
        <time>2025-01-16T13:29:44Z</time>
      </trkpt>
      <trkpt lat="47.56733" lon="-2.31845">
        <ele>49.4</ele>
        <time>2025-01-16T13:29:45Z</time>
      </trkpt>
      <trkpt lat="47.56731" lon="-2.31846">
        <ele>49.5</ele>
        <time>2025-01-16T13:29:46Z</time>
      </trkpt>
      <trkpt lat="47.5673" lon="-2.31847">
        <ele>49.5</ele>
        <time>2025-01-16T13:29:47Z</time>
      </trkpt>
      <trkpt lat="47.56728" lon="-2.31847">
        <ele>49.5</ele>
        <time>2025-01-16T13:29:48Z</time>
      </trkpt>
      <trkpt lat="47.56727" lon="-2.31848">
        <ele>49.5</ele>
        <time>2025-01-16T13:29:49Z</time>
      </trkpt>
      <trkpt lat="47.56725" lon="-2.31849">
        <ele>49.6</ele>
        <time>2025-01-16T13:29:50Z</time>
      </trkpt>
      <trkpt lat="47.56724" lon="-2.3185">
        <ele>49.6</ele>
        <time>2025-01-16T13:29:51Z</time>
      </trkpt>
      <trkpt lat="47.56724" lon="-2.31851">
        <ele>49.6</ele>
        <time>2025-01-16T13:29:52Z</time>
      </trkpt>
      <trkpt lat="47.56723" lon="-2.31852">
        <ele>49.7</ele>
        <time>2025-01-16T13:29:53Z</time>
      </trkpt>
      <trkpt lat="47.56723" lon="-2.31853">
        <ele>49.7</ele>
        <time>2025-01-16T13:29:54Z</time>
      </trkpt>
      <trkpt lat="47.56722" lon="-2.31854">
        <ele>49.7</ele>
        <time>2025-01-16T13:29:55Z</time>
      </trkpt>
      <trkpt lat="47.56721" lon="-2.31855">
        <ele>49.7</ele>
        <time>2025-01-16T13:29:56Z</time>
      </trkpt>
      <trkpt lat="47.5672" lon="-2.31856">
        <ele>49.7</ele>
        <time>2025-01-16T13:29:57Z</time>
      </trkpt>
      <trkpt lat="47.56719" lon="-2.31856">
        <ele>49.7</ele>
        <time>2025-01-16T13:29:58Z</time>
      </trkpt>
      <trkpt lat="47.56718" lon="-2.31857">
        <ele>49.7</ele>
        <time>2025-01-16T13:29:59Z</time>
      </trkpt>
      <trkpt lat="47.56717" lon="-2.31858">
        <ele>49.7</ele>
        <time>2025-01-16T13:30:00Z</time>
      </trkpt>
      <trkpt lat="47.56717" lon="-2.31859">
        <ele>49.7</ele>
        <time>2025-01-16T13:30:01Z</time>
      </trkpt>
      <trkpt lat="47.56716" lon="-2.3186">
        <ele>49.7</ele>
        <time>2025-01-16T13:30:02Z</time>
      </trkpt>
      <trkpt lat="47.56715" lon="-2.31862">
        <ele>49.8</ele>
        <time>2025-01-16T13:30:03Z</time>
      </trkpt>
      <trkpt lat="47.56714" lon="-2.31864">
        <ele>49.8</ele>
        <time>2025-01-16T13:30:04Z</time>
      </trkpt>
      <trkpt lat="47.56714" lon="-2.31865">
        <ele>49.8</ele>
        <time>2025-01-16T13:30:05Z</time>
      </trkpt>
      <trkpt lat="47.56713" lon="-2.31866">
        <ele>49.8</ele>
        <time>2025-01-16T13:30:06Z</time>
      </trkpt>
      <trkpt lat="47.56713" lon="-2.31867">
        <ele>49.9</ele>
        <time>2025-01-16T13:30:07Z</time>
      </trkpt>
      <trkpt lat="47.56712" lon="-2.31868">
        <ele>49.9</ele>
        <time>2025-01-16T13:30:08Z</time>
      </trkpt>
      <trkpt lat="47.56712" lon="-2.31869">
        <ele>49.9</ele>
        <time>2025-01-16T13:30:09Z</time>
      </trkpt>
      <trkpt lat="47.56711" lon="-2.3187">
        <ele>49.9</ele>
        <time>2025-01-16T13:30:10Z</time>
      </trkpt>
      <trkpt lat="47.5671" lon="-2.31871">
        <ele>49.9</ele>
        <time>2025-01-16T13:30:11Z</time>
      </trkpt>
      <trkpt lat="47.5671" lon="-2.31871">
        <ele>49.9</ele>
        <time>2025-01-16T13:30:12Z</time>
      </trkpt>
      <trkpt lat="47.56709" lon="-2.31872">
        <ele>49.9</ele>
        <time>2025-01-16T13:30:13Z</time>
      </trkpt>
      <trkpt lat="47.56708" lon="-2.31873">
        <ele>49.9</ele>
        <time>2025-01-16T13:30:14Z</time>
      </trkpt>
      <trkpt lat="47.56706" lon="-2.31873">
        <ele>49.8</ele>
        <time>2025-01-16T13:30:15Z</time>
      </trkpt>
      <trkpt lat="47.56705" lon="-2.31874">
        <ele>49.8</ele>
        <time>2025-01-16T13:30:16Z</time>
      </trkpt>
      <trkpt lat="47.56704" lon="-2.31874">
        <ele>49.8</ele>
        <time>2025-01-16T13:30:17Z</time>
      </trkpt>
      <trkpt lat="47.56703" lon="-2.31875">
        <ele>49.8</ele>
        <time>2025-01-16T13:30:18Z</time>
      </trkpt>
      <trkpt lat="47.56702" lon="-2.31875">
        <ele>49.8</ele>
        <time>2025-01-16T13:30:19Z</time>
      </trkpt>
      <trkpt lat="47.567" lon="-2.31876">
        <ele>49.7</ele>
        <time>2025-01-16T13:30:20Z</time>
      </trkpt>
      <trkpt lat="47.56699" lon="-2.31876">
        <ele>49.7</ele>
        <time>2025-01-16T13:30:21Z</time>
      </trkpt>
      <trkpt lat="47.56699" lon="-2.31877">
        <ele>49.7</ele>
        <time>2025-01-16T13:30:22Z</time>
      </trkpt>
      <trkpt lat="47.56698" lon="-2.31877">
        <ele>49.7</ele>
        <time>2025-01-16T13:30:23Z</time>
      </trkpt>
      <trkpt lat="47.56698" lon="-2.31878">
        <ele>49.7</ele>
        <time>2025-01-16T13:30:24Z</time>
      </trkpt>
      <trkpt lat="47.56698" lon="-2.31878">
        <ele>49.7</ele>
        <time>2025-01-16T13:30:25Z</time>
      </trkpt>
      <trkpt lat="47.56698" lon="-2.31878">
        <ele>49.7</ele>
        <time>2025-01-16T13:30:26Z</time>
      </trkpt>
      <trkpt lat="47.56698" lon="-2.31879">
        <ele>49.8</ele>
        <time>2025-01-16T13:30:27Z</time>
      </trkpt>
      <trkpt lat="47.56697" lon="-2.31879">
        <ele>49.7</ele>
        <time>2025-01-16T13:30:28Z</time>
      </trkpt>
      <trkpt lat="47.56697" lon="-2.3188">
        <ele>49.8</ele>
        <time>2025-01-16T13:30:29Z</time>
      </trkpt>
      <trkpt lat="47.56696" lon="-2.31881">
        <ele>49.8</ele>
        <time>2025-01-16T13:30:30Z</time>
      </trkpt>
      <trkpt lat="47.56696" lon="-2.31882">
        <ele>49.8</ele>
        <time>2025-01-16T13:30:31Z</time>
      </trkpt>
      <trkpt lat="47.56695" lon="-2.31883">
        <ele>49.8</ele>
        <time>2025-01-16T13:30:32Z</time>
      </trkpt>
      <trkpt lat="47.56695" lon="-2.31883">
        <ele>49.8</ele>
        <time>2025-01-16T13:30:33Z</time>
      </trkpt>
      <trkpt lat="47.56694" lon="-2.31885">
        <ele>49.8</ele>
        <time>2025-01-16T13:30:34Z</time>
      </trkpt>
      <trkpt lat="47.56694" lon="-2.31886">
        <ele>49.9</ele>
        <time>2025-01-16T13:30:35Z</time>
      </trkpt>
      <trkpt lat="47.56693" lon="-2.31886">
        <ele>49.8</ele>
        <time>2025-01-16T13:30:36Z</time>
      </trkpt>
      <trkpt lat="47.56692" lon="-2.31887">
        <ele>49.8</ele>
        <time>2025-01-16T13:30:37Z</time>
      </trkpt>
      <trkpt lat="47.56692" lon="-2.31888">
        <ele>49.9</ele>
        <time>2025-01-16T13:30:38Z</time>
      </trkpt>
      <trkpt lat="47.56692" lon="-2.31888">
        <ele>49.9</ele>
        <time>2025-01-16T13:30:39Z</time>
      </trkpt>
      <trkpt lat="47.56691" lon="-2.31889">
        <ele>49.9</ele>
        <time>2025-01-16T13:30:40Z</time>
      </trkpt>
      <trkpt lat="47.5669" lon="-2.3189">
        <ele>49.9</ele>
        <time>2025-01-16T13:30:41Z</time>
      </trkpt>
      <trkpt lat="47.5669" lon="-2.31891">
        <ele>49.9</ele>
        <time>2025-01-16T13:30:42Z</time>
      </trkpt>
      <trkpt lat="47.56689" lon="-2.31892">
        <ele>49.9</ele>
        <time>2025-01-16T13:30:43Z</time>
      </trkpt>
      <trkpt lat="47.56688" lon="-2.31892">
        <ele>49.9</ele>
        <time>2025-01-16T13:30:44Z</time>
      </trkpt>
      <trkpt lat="47.56687" lon="-2.31893">
        <ele>49.9</ele>
        <time>2025-01-16T13:30:45Z</time>
      </trkpt>
      <trkpt lat="47.56687" lon="-2.31893">
        <ele>49.9</ele>
        <time>2025-01-16T13:30:46Z</time>
      </trkpt>
      <trkpt lat="47.56685" lon="-2.31893">
        <ele>49.9</ele>
        <time>2025-01-16T13:30:47Z</time>
      </trkpt>
      <trkpt lat="47.56684" lon="-2.31894">
        <ele>49.9</ele>
        <time>2025-01-16T13:30:48Z</time>
      </trkpt>
      <trkpt lat="47.56683" lon="-2.31895">
        <ele>49.9</ele>
        <time>2025-01-16T13:30:49Z</time>
      </trkpt>
      <trkpt lat="47.56682" lon="-2.31896">
        <ele>49.9</ele>
        <time>2025-01-16T13:30:50Z</time>
      </trkpt>
      <trkpt lat="47.56681" lon="-2.31897">
        <ele>49.9</ele>
        <time>2025-01-16T13:30:51Z</time>
      </trkpt>
      <trkpt lat="47.56681" lon="-2.31898">
        <ele>50</ele>
        <time>2025-01-16T13:30:52Z</time>
      </trkpt>
      <trkpt lat="47.5668" lon="-2.31898">
        <ele>50</ele>
        <time>2025-01-16T13:30:53Z</time>
      </trkpt>
      <trkpt lat="47.56679" lon="-2.31899">
        <ele>50</ele>
        <time>2025-01-16T13:30:54Z</time>
      </trkpt>
      <trkpt lat="47.56678" lon="-2.31899">
        <ele>50</ele>
        <time>2025-01-16T13:30:55Z</time>
      </trkpt>
      <trkpt lat="47.56677" lon="-2.319">
        <ele>50</ele>
        <time>2025-01-16T13:30:56Z</time>
      </trkpt>
      <trkpt lat="47.56676" lon="-2.31901">
        <ele>50.1</ele>
        <time>2025-01-16T13:30:57Z</time>
      </trkpt>
      <trkpt lat="47.56675" lon="-2.31901">
        <ele>50</ele>
        <time>2025-01-16T13:30:58Z</time>
      </trkpt>
      <trkpt lat="47.56675" lon="-2.31901">
        <ele>50</ele>
        <time>2025-01-16T13:30:59Z</time>
      </trkpt>
      <trkpt lat="47.56675" lon="-2.31901">
        <ele>50</ele>
        <time>2025-01-16T13:31:00Z</time>
      </trkpt>
      <trkpt lat="47.56675" lon="-2.31901">
        <ele>50</ele>
        <time>2025-01-16T13:31:01Z</time>
      </trkpt>
      <trkpt lat="47.56675" lon="-2.319">
        <ele>50</ele>
        <time>2025-01-16T13:31:02Z</time>
      </trkpt>
      <trkpt lat="47.56675" lon="-2.319">
        <ele>50</ele>
        <time>2025-01-16T13:31:03Z</time>
      </trkpt>
      <trkpt lat="47.56675" lon="-2.31899">
        <ele>49.9</ele>
        <time>2025-01-16T13:31:04Z</time>
      </trkpt>
      <trkpt lat="47.56675" lon="-2.31899">
        <ele>49.9</ele>
        <time>2025-01-16T13:31:05Z</time>
      </trkpt>
      <trkpt lat="47.56675" lon="-2.31899">
        <ele>49.9</ele>
        <time>2025-01-16T13:31:06Z</time>
      </trkpt>
      <trkpt lat="47.56675" lon="-2.31899">
        <ele>49.9</ele>
        <time>2025-01-16T13:31:07Z</time>
      </trkpt>
      <trkpt lat="47.56675" lon="-2.31899">
        <ele>49.9</ele>
        <time>2025-01-16T13:31:08Z</time>
      </trkpt>
      <trkpt lat="47.56675" lon="-2.31899">
        <ele>49.9</ele>
        <time>2025-01-16T13:31:09Z</time>
      </trkpt>
      <trkpt lat="47.56675" lon="-2.31899">
        <ele>49.9</ele>
        <time>2025-01-16T13:31:10Z</time>
      </trkpt>
      <trkpt lat="47.56675" lon="-2.31899">
        <ele>49.9</ele>
        <time>2025-01-16T13:31:11Z</time>
      </trkpt>
      <trkpt lat="47.56675" lon="-2.31899">
        <ele>49.9</ele>
        <time>2025-01-16T13:31:12Z</time>
      </trkpt>
      <trkpt lat="47.56675" lon="-2.31899">
        <ele>49.9</ele>
        <time>2025-01-16T13:31:13Z</time>
      </trkpt>
      <trkpt lat="47.56675" lon="-2.31899">
        <ele>49.9</ele>
        <time>2025-01-16T13:31:14Z</time>
      </trkpt>
      <trkpt lat="47.56675" lon="-2.31899">
        <ele>49.9</ele>
        <time>2025-01-16T13:31:15Z</time>
      </trkpt>
      <trkpt lat="47.56675" lon="-2.31899">
        <ele>49.9</ele>
        <time>2025-01-16T13:31:16Z</time>
      </trkpt>
      <trkpt lat="47.56675" lon="-2.31899">
        <ele>49.9</ele>
        <time>2025-01-16T13:31:17Z</time>
      </trkpt>
      <trkpt lat="47.56675" lon="-2.31899">
        <ele>49.9</ele>
        <time>2025-01-16T13:31:18Z</time>
      </trkpt>
      <trkpt lat="47.56675" lon="-2.31899">
        <ele>49.9</ele>
        <time>2025-01-16T13:31:19Z</time>
      </trkpt>
      <trkpt lat="47.56675" lon="-2.31899">
        <ele>49.9</ele>
        <time>2025-01-16T13:31:20Z</time>
      </trkpt>
      <trkpt lat="47.56675" lon="-2.31899">
        <ele>49.9</ele>
        <time>2025-01-16T13:31:21Z</time>
      </trkpt>
      <trkpt lat="47.56675" lon="-2.31899">
        <ele>49.9</ele>
        <time>2025-01-16T13:31:22Z</time>
      </trkpt>
      <trkpt lat="47.56675" lon="-2.31899">
        <ele>49.9</ele>
        <time>2025-01-16T13:31:23Z</time>
      </trkpt>
      <trkpt lat="47.56675" lon="-2.31899">
        <ele>49.9</ele>
        <time>2025-01-16T13:31:24Z</time>
      </trkpt>
      <trkpt lat="47.56675" lon="-2.31899">
        <ele>49.9</ele>
        <time>2025-01-16T13:31:25Z</time>
      </trkpt>
      <trkpt lat="47.56675" lon="-2.31899">
        <ele>49.9</ele>
        <time>2025-01-16T13:31:26Z</time>
      </trkpt>
      <trkpt lat="47.56675" lon="-2.31899">
        <ele>49.9</ele>
        <time>2025-01-16T13:31:27Z</time>
      </trkpt>
      <trkpt lat="47.56675" lon="-2.31899">
        <ele>49.9</ele>
        <time>2025-01-16T13:31:28Z</time>
      </trkpt>
      <trkpt lat="47.56675" lon="-2.31899">
        <ele>49.9</ele>
        <time>2025-01-16T13:31:29Z</time>
      </trkpt>
      <trkpt lat="47.56675" lon="-2.31899">
        <ele>49.9</ele>
        <time>2025-01-16T13:31:30Z</time>
      </trkpt>
      <trkpt lat="47.56675" lon="-2.31899">
        <ele>49.9</ele>
        <time>2025-01-16T13:31:31Z</time>
      </trkpt>
      <trkpt lat="47.56675" lon="-2.31899">
        <ele>49.9</ele>
        <time>2025-01-16T13:31:32Z</time>
      </trkpt>
      <trkpt lat="47.56675" lon="-2.31899">
        <ele>49.9</ele>
        <time>2025-01-16T13:31:33Z</time>
      </trkpt>
      <trkpt lat="47.56675" lon="-2.31899">
        <ele>49.9</ele>
        <time>2025-01-16T13:31:34Z</time>
      </trkpt>
      <trkpt lat="47.56675" lon="-2.31899">
        <ele>49.9</ele>
        <time>2025-01-16T13:31:35Z</time>
      </trkpt>
      <trkpt lat="47.56675" lon="-2.31899">
        <ele>49.9</ele>
        <time>2025-01-16T13:31:36Z</time>
      </trkpt>
      <trkpt lat="47.56675" lon="-2.31899">
        <ele>49.9</ele>
        <time>2025-01-16T13:31:37Z</time>
      </trkpt>
      <trkpt lat="47.56675" lon="-2.31899">
        <ele>49.9</ele>
        <time>2025-01-16T13:31:38Z</time>
      </trkpt>
      <trkpt lat="47.56675" lon="-2.31899">
        <ele>49.9</ele>
        <time>2025-01-16T13:31:39Z</time>
      </trkpt>
      <trkpt lat="47.56675" lon="-2.31899">
        <ele>49.9</ele>
        <time>2025-01-16T13:31:40Z</time>
      </trkpt>
      <trkpt lat="47.56675" lon="-2.31899">
        <ele>49.9</ele>
        <time>2025-01-16T13:31:41Z</time>
      </trkpt>
      <trkpt lat="47.56675" lon="-2.31899">
        <ele>49.9</ele>
        <time>2025-01-16T13:31:42Z</time>
      </trkpt>
      <trkpt lat="47.56675" lon="-2.31899">
        <ele>49.9</ele>
        <time>2025-01-16T13:31:43Z</time>
      </trkpt>
      <trkpt lat="47.56675" lon="-2.31899">
        <ele>49.9</ele>
        <time>2025-01-16T13:31:44Z</time>
      </trkpt>
      <trkpt lat="47.56675" lon="-2.31899">
        <ele>49.9</ele>
        <time>2025-01-16T13:31:45Z</time>
      </trkpt>
      <trkpt lat="47.56675" lon="-2.31899">
        <ele>49.9</ele>
        <time>2025-01-16T13:31:46Z</time>
      </trkpt>
      <trkpt lat="47.56675" lon="-2.31899">
        <ele>49.9</ele>
        <time>2025-01-16T13:31:47Z</time>
      </trkpt>
      <trkpt lat="47.56675" lon="-2.31899">
        <ele>49.9</ele>
        <time>2025-01-16T13:31:48Z</time>
      </trkpt>
      <trkpt lat="47.56675" lon="-2.31899">
        <ele>49.9</ele>
        <time>2025-01-16T13:31:49Z</time>
      </trkpt>
      <trkpt lat="47.56675" lon="-2.31899">
        <ele>49.9</ele>
        <time>2025-01-16T13:31:50Z</time>
      </trkpt>
      <trkpt lat="47.56675" lon="-2.31899">
        <ele>49.9</ele>
        <time>2025-01-16T13:31:51Z</time>
      </trkpt>
      <trkpt lat="47.56675" lon="-2.31899">
        <ele>49.9</ele>
        <time>2025-01-16T13:31:52Z</time>
      </trkpt>
      <trkpt lat="47.56675" lon="-2.31899">
        <ele>49.9</ele>
        <time>2025-01-16T13:31:53Z</time>
      </trkpt>
      <trkpt lat="47.56675" lon="-2.31899">
        <ele>49.9</ele>
        <time>2025-01-16T13:31:54Z</time>
      </trkpt>
      <trkpt lat="47.56675" lon="-2.31899">
        <ele>49.9</ele>
        <time>2025-01-16T13:31:55Z</time>
      </trkpt>
      <trkpt lat="47.56675" lon="-2.31899">
        <ele>49.9</ele>
        <time>2025-01-16T13:31:56Z</time>
      </trkpt>
      <trkpt lat="47.56675" lon="-2.31899">
        <ele>49.9</ele>
        <time>2025-01-16T13:31:57Z</time>
      </trkpt>
      <trkpt lat="47.56675" lon="-2.31899">
        <ele>49.9</ele>
        <time>2025-01-16T13:31:58Z</time>
      </trkpt>
      <trkpt lat="47.56675" lon="-2.31899">
        <ele>49.9</ele>
        <time>2025-01-16T13:31:59Z</time>
      </trkpt>
      <trkpt lat="47.56675" lon="-2.31899">
        <ele>49.9</ele>
        <time>2025-01-16T13:32:00Z</time>
      </trkpt>
      <trkpt lat="47.56675" lon="-2.31899">
        <ele>49.9</ele>
        <time>2025-01-16T13:32:01Z</time>
      </trkpt>
      <trkpt lat="47.56675" lon="-2.31899">
        <ele>49.9</ele>
        <time>2025-01-16T13:32:02Z</time>
      </trkpt>
      <trkpt lat="47.56675" lon="-2.31899">
        <ele>49.9</ele>
        <time>2025-01-16T13:32:03Z</time>
      </trkpt>
      <trkpt lat="47.56675" lon="-2.31899">
        <ele>49.9</ele>
        <time>2025-01-16T13:32:04Z</time>
      </trkpt>
      <trkpt lat="47.56675" lon="-2.319">
        <ele>50</ele>
        <time>2025-01-16T13:32:05Z</time>
      </trkpt>
      <trkpt lat="47.56675" lon="-2.319">
        <ele>50</ele>
        <time>2025-01-16T13:32:06Z</time>
      </trkpt>
      <trkpt lat="47.56675" lon="-2.319">
        <ele>50</ele>
        <time>2025-01-16T13:32:07Z</time>
      </trkpt>
      <trkpt lat="47.56675" lon="-2.319">
        <ele>50</ele>
        <time>2025-01-16T13:32:08Z</time>
      </trkpt>
      <trkpt lat="47.56675" lon="-2.319">
        <ele>50</ele>
        <time>2025-01-16T13:32:09Z</time>
      </trkpt>
      <trkpt lat="47.56676" lon="-2.319">
        <ele>50</ele>
        <time>2025-01-16T13:32:10Z</time>
      </trkpt>
      <trkpt lat="47.56675" lon="-2.31901">
        <ele>50</ele>
        <time>2025-01-16T13:32:11Z</time>
      </trkpt>
      <trkpt lat="47.56675" lon="-2.31901">
        <ele>50</ele>
        <time>2025-01-16T13:32:12Z</time>
      </trkpt>
      <trkpt lat="47.56674" lon="-2.31902">
        <ele>50.1</ele>
        <time>2025-01-16T13:32:13Z</time>
      </trkpt>
      <trkpt lat="47.56673" lon="-2.31902">
        <ele>50.1</ele>
        <time>2025-01-16T13:32:14Z</time>
      </trkpt>
      <trkpt lat="47.56672" lon="-2.31903">
        <ele>50.1</ele>
        <time>2025-01-16T13:32:15Z</time>
      </trkpt>
      <trkpt lat="47.56671" lon="-2.31904">
        <ele>50.2</ele>
        <time>2025-01-16T13:32:16Z</time>
      </trkpt>
      <trkpt lat="47.56671" lon="-2.31904">
        <ele>50.2</ele>
        <time>2025-01-16T13:32:17Z</time>
      </trkpt>
      <trkpt lat="47.5667" lon="-2.31904">
        <ele>50.1</ele>
        <time>2025-01-16T13:32:18Z</time>
      </trkpt>
      <trkpt lat="47.56669" lon="-2.31905">
        <ele>50.2</ele>
        <time>2025-01-16T13:32:19Z</time>
      </trkpt>
      <trkpt lat="47.56668" lon="-2.31905">
        <ele>50.2</ele>
        <time>2025-01-16T13:32:20Z</time>
      </trkpt>
      <trkpt lat="47.56667" lon="-2.31905">
        <ele>50.2</ele>
        <time>2025-01-16T13:32:21Z</time>
      </trkpt>
      <trkpt lat="47.56666" lon="-2.31906">
        <ele>50.2</ele>
        <time>2025-01-16T13:32:22Z</time>
      </trkpt>
      <trkpt lat="47.56665" lon="-2.31906">
        <ele>50.2</ele>
        <time>2025-01-16T13:32:23Z</time>
      </trkpt>
      <trkpt lat="47.56664" lon="-2.31907">
        <ele>50.2</ele>
        <time>2025-01-16T13:32:24Z</time>
      </trkpt>
      <trkpt lat="47.56663" lon="-2.31907">
        <ele>50.2</ele>
        <time>2025-01-16T13:32:25Z</time>
      </trkpt>
      <trkpt lat="47.56662" lon="-2.31908">
        <ele>50.3</ele>
        <time>2025-01-16T13:32:26Z</time>
      </trkpt>
      <trkpt lat="47.56661" lon="-2.31909">
        <ele>50.3</ele>
        <time>2025-01-16T13:32:27Z</time>
      </trkpt>
      <trkpt lat="47.5666" lon="-2.31909">
        <ele>50.3</ele>
        <time>2025-01-16T13:32:28Z</time>
      </trkpt>
      <trkpt lat="47.56659" lon="-2.3191">
        <ele>50.3</ele>
        <time>2025-01-16T13:32:29Z</time>
      </trkpt>
      <trkpt lat="47.56657" lon="-2.31911">
        <ele>50.3</ele>
        <time>2025-01-16T13:32:30Z</time>
      </trkpt>
      <trkpt lat="47.56656" lon="-2.31912">
        <ele>50.3</ele>
        <time>2025-01-16T13:32:31Z</time>
      </trkpt>
      <trkpt lat="47.56655" lon="-2.31912">
        <ele>50.3</ele>
        <time>2025-01-16T13:32:32Z</time>
      </trkpt>
      <trkpt lat="47.56654" lon="-2.31912">
        <ele>50.3</ele>
        <time>2025-01-16T13:32:33Z</time>
      </trkpt>
      <trkpt lat="47.56653" lon="-2.31913">
        <ele>50.3</ele>
        <time>2025-01-16T13:32:34Z</time>
      </trkpt>
      <trkpt lat="47.56652" lon="-2.31913">
        <ele>50.3</ele>
        <time>2025-01-16T13:32:35Z</time>
      </trkpt>
      <trkpt lat="47.5665" lon="-2.31914">
        <ele>50.3</ele>
        <time>2025-01-16T13:32:36Z</time>
      </trkpt>
      <trkpt lat="47.56649" lon="-2.31914">
        <ele>50.2</ele>
        <time>2025-01-16T13:32:37Z</time>
      </trkpt>
      <trkpt lat="47.56648" lon="-2.31915">
        <ele>50.2</ele>
        <time>2025-01-16T13:32:38Z</time>
      </trkpt>
      <trkpt lat="47.56647" lon="-2.31915">
        <ele>50.2</ele>
        <time>2025-01-16T13:32:39Z</time>
      </trkpt>
      <trkpt lat="47.56646" lon="-2.31916">
        <ele>50.2</ele>
        <time>2025-01-16T13:32:40Z</time>
      </trkpt>
      <trkpt lat="47.56645" lon="-2.31916">
        <ele>50.2</ele>
        <time>2025-01-16T13:32:41Z</time>
      </trkpt>
      <trkpt lat="47.56644" lon="-2.31916">
        <ele>50.2</ele>
        <time>2025-01-16T13:32:42Z</time>
      </trkpt>
      <trkpt lat="47.56643" lon="-2.31915">
        <ele>50.1</ele>
        <time>2025-01-16T13:32:43Z</time>
      </trkpt>
      <trkpt lat="47.56641" lon="-2.31916">
        <ele>50.1</ele>
        <time>2025-01-16T13:32:44Z</time>
      </trkpt>
      <trkpt lat="47.5664" lon="-2.31917">
        <ele>50.1</ele>
        <time>2025-01-16T13:32:45Z</time>
      </trkpt>
      <trkpt lat="47.56639" lon="-2.31917">
        <ele>50</ele>
        <time>2025-01-16T13:32:46Z</time>
      </trkpt>
      <trkpt lat="47.56638" lon="-2.31918">
        <ele>50.1</ele>
        <time>2025-01-16T13:32:47Z</time>
      </trkpt>
      <trkpt lat="47.56637" lon="-2.31918">
        <ele>50.2</ele>
        <time>2025-01-16T13:32:48Z</time>
      </trkpt>
      <trkpt lat="47.56635" lon="-2.31919">
        <ele>50.3</ele>
        <time>2025-01-16T13:32:49Z</time>
      </trkpt>
      <trkpt lat="47.56634" lon="-2.31919">
        <ele>50.3</ele>
        <time>2025-01-16T13:32:50Z</time>
      </trkpt>
      <trkpt lat="47.56633" lon="-2.3192">
        <ele>50.5</ele>
        <time>2025-01-16T13:32:51Z</time>
      </trkpt>
      <trkpt lat="47.56632" lon="-2.3192">
        <ele>50.5</ele>
        <time>2025-01-16T13:32:52Z</time>
      </trkpt>
      <trkpt lat="47.56631" lon="-2.3192">
        <ele>50.5</ele>
        <time>2025-01-16T13:32:53Z</time>
      </trkpt>
      <trkpt lat="47.5663" lon="-2.31921">
        <ele>50.6</ele>
        <time>2025-01-16T13:32:54Z</time>
      </trkpt>
      <trkpt lat="47.56628" lon="-2.31921">
        <ele>50.7</ele>
        <time>2025-01-16T13:32:55Z</time>
      </trkpt>
      <trkpt lat="47.56627" lon="-2.31922">
        <ele>50.8</ele>
        <time>2025-01-16T13:32:56Z</time>
      </trkpt>
      <trkpt lat="47.56626" lon="-2.31922">
        <ele>50.8</ele>
        <time>2025-01-16T13:32:57Z</time>
      </trkpt>
      <trkpt lat="47.56625" lon="-2.31922">
        <ele>50.9</ele>
        <time>2025-01-16T13:32:58Z</time>
      </trkpt>
      <trkpt lat="47.56624" lon="-2.31922">
        <ele>50.9</ele>
        <time>2025-01-16T13:32:59Z</time>
      </trkpt>
      <trkpt lat="47.56623" lon="-2.31923">
        <ele>51</ele>
        <time>2025-01-16T13:33:00Z</time>
      </trkpt>
      <trkpt lat="47.56622" lon="-2.31923">
        <ele>51.1</ele>
        <time>2025-01-16T13:33:01Z</time>
      </trkpt>
      <trkpt lat="47.56621" lon="-2.31924">
        <ele>51.2</ele>
        <time>2025-01-16T13:33:02Z</time>
      </trkpt>
      <trkpt lat="47.5662" lon="-2.31924">
        <ele>51.2</ele>
        <time>2025-01-16T13:33:03Z</time>
      </trkpt>
      <trkpt lat="47.56619" lon="-2.31925">
        <ele>51.3</ele>
        <time>2025-01-16T13:33:04Z</time>
      </trkpt>
      <trkpt lat="47.56618" lon="-2.31925">
        <ele>51.4</ele>
        <time>2025-01-16T13:33:05Z</time>
      </trkpt>
      <trkpt lat="47.56616" lon="-2.31926">
        <ele>51.5</ele>
        <time>2025-01-16T13:33:06Z</time>
      </trkpt>
      <trkpt lat="47.56615" lon="-2.31926">
        <ele>51.5</ele>
        <time>2025-01-16T13:33:07Z</time>
      </trkpt>
      <trkpt lat="47.56614" lon="-2.31927">
        <ele>51.6</ele>
        <time>2025-01-16T13:33:08Z</time>
      </trkpt>
      <trkpt lat="47.56613" lon="-2.31928">
        <ele>51.7</ele>
        <time>2025-01-16T13:33:09Z</time>
      </trkpt>
      <trkpt lat="47.56612" lon="-2.31928">
        <ele>51.8</ele>
        <time>2025-01-16T13:33:10Z</time>
      </trkpt>
      <trkpt lat="47.56611" lon="-2.31929">
        <ele>51.9</ele>
        <time>2025-01-16T13:33:11Z</time>
      </trkpt>
      <trkpt lat="47.56609" lon="-2.3193">
        <ele>51.9</ele>
        <time>2025-01-16T13:33:12Z</time>
      </trkpt>
      <trkpt lat="47.56608" lon="-2.3193">
        <ele>51.9</ele>
        <time>2025-01-16T13:33:13Z</time>
      </trkpt>
      <trkpt lat="47.56607" lon="-2.3193">
        <ele>51.9</ele>
        <time>2025-01-16T13:33:14Z</time>
      </trkpt>
      <trkpt lat="47.56606" lon="-2.31931">
        <ele>51.9</ele>
        <time>2025-01-16T13:33:15Z</time>
      </trkpt>
      <trkpt lat="47.56605" lon="-2.31932">
        <ele>52</ele>
        <time>2025-01-16T13:33:16Z</time>
      </trkpt>
      <trkpt lat="47.56604" lon="-2.31933">
        <ele>52</ele>
        <time>2025-01-16T13:33:17Z</time>
      </trkpt>
      <trkpt lat="47.56603" lon="-2.31934">
        <ele>52.1</ele>
        <time>2025-01-16T13:33:18Z</time>
      </trkpt>
      <trkpt lat="47.56602" lon="-2.31935">
        <ele>52.1</ele>
        <time>2025-01-16T13:33:19Z</time>
      </trkpt>
      <trkpt lat="47.56601" lon="-2.31936">
        <ele>52.1</ele>
        <time>2025-01-16T13:33:20Z</time>
      </trkpt>
      <trkpt lat="47.566" lon="-2.31936">
        <ele>52.1</ele>
        <time>2025-01-16T13:33:21Z</time>
      </trkpt>
      <trkpt lat="47.56599" lon="-2.31936">
        <ele>52.1</ele>
        <time>2025-01-16T13:33:22Z</time>
      </trkpt>
      <trkpt lat="47.56599" lon="-2.31936">
        <ele>52.1</ele>
        <time>2025-01-16T13:33:23Z</time>
      </trkpt>
      <trkpt lat="47.56598" lon="-2.31936">
        <ele>52.1</ele>
        <time>2025-01-16T13:33:24Z</time>
      </trkpt>
      <trkpt lat="47.56597" lon="-2.31936">
        <ele>52</ele>
        <time>2025-01-16T13:33:25Z</time>
      </trkpt>
      <trkpt lat="47.56596" lon="-2.31937">
        <ele>52.1</ele>
        <time>2025-01-16T13:33:26Z</time>
      </trkpt>
      <trkpt lat="47.56594" lon="-2.31937">
        <ele>52</ele>
        <time>2025-01-16T13:33:27Z</time>
      </trkpt>
      <trkpt lat="47.56593" lon="-2.31938">
        <ele>52</ele>
        <time>2025-01-16T13:33:28Z</time>
      </trkpt>
      <trkpt lat="47.56592" lon="-2.31938">
        <ele>52</ele>
        <time>2025-01-16T13:33:29Z</time>
      </trkpt>
      <trkpt lat="47.56591" lon="-2.31939">
        <ele>52</ele>
        <time>2025-01-16T13:33:30Z</time>
      </trkpt>
      <trkpt lat="47.5659" lon="-2.31939">
        <ele>52</ele>
        <time>2025-01-16T13:33:31Z</time>
      </trkpt>
      <trkpt lat="47.56589" lon="-2.3194">
        <ele>52</ele>
        <time>2025-01-16T13:33:32Z</time>
      </trkpt>
      <trkpt lat="47.56589" lon="-2.31941">
        <ele>52.1</ele>
        <time>2025-01-16T13:33:33Z</time>
      </trkpt>
      <trkpt lat="47.56587" lon="-2.31942">
        <ele>52</ele>
        <time>2025-01-16T13:33:34Z</time>
      </trkpt>
      <trkpt lat="47.56586" lon="-2.31942">
        <ele>52</ele>
        <time>2025-01-16T13:33:35Z</time>
      </trkpt>
      <trkpt lat="47.56585" lon="-2.31943">
        <ele>52</ele>
        <time>2025-01-16T13:33:36Z</time>
      </trkpt>
      <trkpt lat="47.56584" lon="-2.31943">
        <ele>52</ele>
        <time>2025-01-16T13:33:37Z</time>
      </trkpt>
      <trkpt lat="47.56582" lon="-2.31944">
        <ele>51.9</ele>
        <time>2025-01-16T13:33:38Z</time>
      </trkpt>
      <trkpt lat="47.56581" lon="-2.31944">
        <ele>51.9</ele>
        <time>2025-01-16T13:33:39Z</time>
      </trkpt>
      <trkpt lat="47.5658" lon="-2.31945">
        <ele>51.9</ele>
        <time>2025-01-16T13:33:40Z</time>
      </trkpt>
      <trkpt lat="47.56579" lon="-2.31946">
        <ele>51.9</ele>
        <time>2025-01-16T13:33:41Z</time>
      </trkpt>
      <trkpt lat="47.56578" lon="-2.31947">
        <ele>51.9</ele>
        <time>2025-01-16T13:33:42Z</time>
      </trkpt>
      <trkpt lat="47.56577" lon="-2.31948">
        <ele>51.9</ele>
        <time>2025-01-16T13:33:43Z</time>
      </trkpt>
      <trkpt lat="47.56576" lon="-2.31948">
        <ele>51.9</ele>
        <time>2025-01-16T13:33:44Z</time>
      </trkpt>
      <trkpt lat="47.56575" lon="-2.31949">
        <ele>51.9</ele>
        <time>2025-01-16T13:33:45Z</time>
      </trkpt>
      <trkpt lat="47.56573" lon="-2.3195">
        <ele>51.8</ele>
        <time>2025-01-16T13:33:46Z</time>
      </trkpt>
      <trkpt lat="47.56572" lon="-2.3195">
        <ele>51.8</ele>
        <time>2025-01-16T13:33:47Z</time>
      </trkpt>
      <trkpt lat="47.56571" lon="-2.31952">
        <ele>51.8</ele>
        <time>2025-01-16T13:33:48Z</time>
      </trkpt>
      <trkpt lat="47.5657" lon="-2.31953">
        <ele>51.8</ele>
        <time>2025-01-16T13:33:49Z</time>
      </trkpt>
      <trkpt lat="47.56569" lon="-2.31954">
        <ele>51.8</ele>
        <time>2025-01-16T13:33:50Z</time>
      </trkpt>
      <trkpt lat="47.56568" lon="-2.31955">
        <ele>51.8</ele>
        <time>2025-01-16T13:33:51Z</time>
      </trkpt>
      <trkpt lat="47.56567" lon="-2.31956">
        <ele>51.8</ele>
        <time>2025-01-16T13:33:52Z</time>
      </trkpt>
      <trkpt lat="47.56566" lon="-2.31957">
        <ele>51.8</ele>
        <time>2025-01-16T13:33:53Z</time>
      </trkpt>
      <trkpt lat="47.56565" lon="-2.31958">
        <ele>51.8</ele>
        <time>2025-01-16T13:33:54Z</time>
      </trkpt>
      <trkpt lat="47.56564" lon="-2.31958">
        <ele>51.8</ele>
        <time>2025-01-16T13:33:55Z</time>
      </trkpt>
      <trkpt lat="47.56563" lon="-2.31959">
        <ele>51.8</ele>
        <time>2025-01-16T13:33:56Z</time>
      </trkpt>
      <trkpt lat="47.56563" lon="-2.31959">
        <ele>51.8</ele>
        <time>2025-01-16T13:33:57Z</time>
      </trkpt>
      <trkpt lat="47.56561" lon="-2.3196">
        <ele>51.8</ele>
        <time>2025-01-16T13:33:58Z</time>
      </trkpt>
      <trkpt lat="47.5656" lon="-2.31961">
        <ele>51.8</ele>
        <time>2025-01-16T13:33:59Z</time>
      </trkpt>
      <trkpt lat="47.56559" lon="-2.31962">
        <ele>51.8</ele>
        <time>2025-01-16T13:34:00Z</time>
      </trkpt>
      <trkpt lat="47.56558" lon="-2.31963">
        <ele>51.8</ele>
        <time>2025-01-16T13:34:01Z</time>
      </trkpt>
      <trkpt lat="47.56557" lon="-2.31964">
        <ele>51.8</ele>
        <time>2025-01-16T13:34:02Z</time>
      </trkpt>
      <trkpt lat="47.56557" lon="-2.31965">
        <ele>51.8</ele>
        <time>2025-01-16T13:34:03Z</time>
      </trkpt>
      <trkpt lat="47.56556" lon="-2.31965">
        <ele>51.8</ele>
        <time>2025-01-16T13:34:04Z</time>
      </trkpt>
      <trkpt lat="47.56555" lon="-2.31966">
        <ele>51.7</ele>
        <time>2025-01-16T13:34:05Z</time>
      </trkpt>
      <trkpt lat="47.56554" lon="-2.31966">
        <ele>51.7</ele>
        <time>2025-01-16T13:34:06Z</time>
      </trkpt>
      <trkpt lat="47.56553" lon="-2.31967">
        <ele>51.6</ele>
        <time>2025-01-16T13:34:07Z</time>
      </trkpt>
      <trkpt lat="47.56553" lon="-2.31967">
        <ele>51.6</ele>
        <time>2025-01-16T13:34:08Z</time>
      </trkpt>
      <trkpt lat="47.56552" lon="-2.31968">
        <ele>51.6</ele>
        <time>2025-01-16T13:34:09Z</time>
      </trkpt>
      <trkpt lat="47.56551" lon="-2.31969">
        <ele>51.6</ele>
        <time>2025-01-16T13:34:10Z</time>
      </trkpt>
      <trkpt lat="47.5655" lon="-2.3197">
        <ele>51.5</ele>
        <time>2025-01-16T13:34:11Z</time>
      </trkpt>
      <trkpt lat="47.56549" lon="-2.31972">
        <ele>51.5</ele>
        <time>2025-01-16T13:34:12Z</time>
      </trkpt>
      <trkpt lat="47.56548" lon="-2.31973">
        <ele>51.5</ele>
        <time>2025-01-16T13:34:13Z</time>
      </trkpt>
      <trkpt lat="47.56548" lon="-2.31974">
        <ele>51.6</ele>
        <time>2025-01-16T13:34:14Z</time>
      </trkpt>
      <trkpt lat="47.56547" lon="-2.31974">
        <ele>51.5</ele>
        <time>2025-01-16T13:34:15Z</time>
      </trkpt>
      <trkpt lat="47.56546" lon="-2.31975">
        <ele>51.5</ele>
        <time>2025-01-16T13:34:16Z</time>
      </trkpt>
      <trkpt lat="47.56545" lon="-2.31976">
        <ele>51.5</ele>
        <time>2025-01-16T13:34:17Z</time>
      </trkpt>
      <trkpt lat="47.56544" lon="-2.31977">
        <ele>51.4</ele>
        <time>2025-01-16T13:34:18Z</time>
      </trkpt>
      <trkpt lat="47.56543" lon="-2.31978">
        <ele>51.4</ele>
        <time>2025-01-16T13:34:19Z</time>
      </trkpt>
      <trkpt lat="47.56543" lon="-2.31978">
        <ele>51.4</ele>
        <time>2025-01-16T13:34:20Z</time>
      </trkpt>
      <trkpt lat="47.56542" lon="-2.31979">
        <ele>51.4</ele>
        <time>2025-01-16T13:34:21Z</time>
      </trkpt>
      <trkpt lat="47.56542" lon="-2.3198">
        <ele>51.4</ele>
        <time>2025-01-16T13:34:22Z</time>
      </trkpt>
      <trkpt lat="47.56541" lon="-2.3198">
        <ele>51.4</ele>
        <time>2025-01-16T13:34:23Z</time>
      </trkpt>
      <trkpt lat="47.5654" lon="-2.31982">
        <ele>51.4</ele>
        <time>2025-01-16T13:34:24Z</time>
      </trkpt>
      <trkpt lat="47.56539" lon="-2.31983">
        <ele>51.4</ele>
        <time>2025-01-16T13:34:25Z</time>
      </trkpt>
      <trkpt lat="47.56538" lon="-2.31985">
        <ele>51.4</ele>
        <time>2025-01-16T13:34:26Z</time>
      </trkpt>
      <trkpt lat="47.56537" lon="-2.31985">
        <ele>51.3</ele>
        <time>2025-01-16T13:34:27Z</time>
      </trkpt>
      <trkpt lat="47.56536" lon="-2.31986">
        <ele>51.2</ele>
        <time>2025-01-16T13:34:28Z</time>
      </trkpt>
      <trkpt lat="47.56535" lon="-2.31988">
        <ele>51.2</ele>
        <time>2025-01-16T13:34:29Z</time>
      </trkpt>
      <trkpt lat="47.56534" lon="-2.31989">
        <ele>51.2</ele>
        <time>2025-01-16T13:34:30Z</time>
      </trkpt>
      <trkpt lat="47.56534" lon="-2.31991">
        <ele>51.3</ele>
        <time>2025-01-16T13:34:31Z</time>
      </trkpt>
      <trkpt lat="47.56532" lon="-2.31993">
        <ele>51.2</ele>
        <time>2025-01-16T13:34:32Z</time>
      </trkpt>
      <trkpt lat="47.56532" lon="-2.31994">
        <ele>51.2</ele>
        <time>2025-01-16T13:34:33Z</time>
      </trkpt>
      <trkpt lat="47.5653" lon="-2.31996">
        <ele>51.1</ele>
        <time>2025-01-16T13:34:34Z</time>
      </trkpt>
      <trkpt lat="47.5653" lon="-2.31998">
        <ele>51.2</ele>
        <time>2025-01-16T13:34:35Z</time>
      </trkpt>
      <trkpt lat="47.56529" lon="-2.31999">
        <ele>51.1</ele>
        <time>2025-01-16T13:34:36Z</time>
      </trkpt>
      <trkpt lat="47.56528" lon="-2.32">
        <ele>51</ele>
        <time>2025-01-16T13:34:37Z</time>
      </trkpt>
      <trkpt lat="47.56527" lon="-2.32001">
        <ele>51</ele>
        <time>2025-01-16T13:34:38Z</time>
      </trkpt>
      <trkpt lat="47.56526" lon="-2.32002">
        <ele>51</ele>
        <time>2025-01-16T13:34:39Z</time>
      </trkpt>
      <trkpt lat="47.56525" lon="-2.32004">
        <ele>51.1</ele>
        <time>2025-01-16T13:34:40Z</time>
      </trkpt>
      <trkpt lat="47.56524" lon="-2.32005">
        <ele>51.1</ele>
        <time>2025-01-16T13:34:41Z</time>
      </trkpt>
      <trkpt lat="47.56523" lon="-2.32006">
        <ele>51.1</ele>
        <time>2025-01-16T13:34:42Z</time>
      </trkpt>
      <trkpt lat="47.56523" lon="-2.32008">
        <ele>51.2</ele>
        <time>2025-01-16T13:34:43Z</time>
      </trkpt>
      <trkpt lat="47.56522" lon="-2.32009">
        <ele>51.2</ele>
        <time>2025-01-16T13:34:44Z</time>
      </trkpt>
      <trkpt lat="47.56522" lon="-2.3201">
        <ele>51.3</ele>
        <time>2025-01-16T13:34:45Z</time>
      </trkpt>
      <trkpt lat="47.56521" lon="-2.32012">
        <ele>51.4</ele>
        <time>2025-01-16T13:34:46Z</time>
      </trkpt>
      <trkpt lat="47.5652" lon="-2.32013">
        <ele>51.4</ele>
        <time>2025-01-16T13:34:47Z</time>
      </trkpt>
      <trkpt lat="47.5652" lon="-2.32015">
        <ele>51.5</ele>
        <time>2025-01-16T13:34:48Z</time>
      </trkpt>
      <trkpt lat="47.5652" lon="-2.32016">
        <ele>51.6</ele>
        <time>2025-01-16T13:34:49Z</time>
      </trkpt>
      <trkpt lat="47.56519" lon="-2.32017">
        <ele>51.6</ele>
        <time>2025-01-16T13:34:50Z</time>
      </trkpt>
      <trkpt lat="47.56519" lon="-2.32019">
        <ele>51.7</ele>
        <time>2025-01-16T13:34:51Z</time>
      </trkpt>
      <trkpt lat="47.56518" lon="-2.3202">
        <ele>51.7</ele>
        <time>2025-01-16T13:34:52Z</time>
      </trkpt>
      <trkpt lat="47.56518" lon="-2.32022">
        <ele>51.9</ele>
        <time>2025-01-16T13:34:53Z</time>
      </trkpt>
      <trkpt lat="47.56517" lon="-2.32023">
        <ele>51.9</ele>
        <time>2025-01-16T13:34:54Z</time>
      </trkpt>
      <trkpt lat="47.56517" lon="-2.32025">
        <ele>52</ele>
        <time>2025-01-16T13:34:55Z</time>
      </trkpt>
      <trkpt lat="47.56517" lon="-2.32026">
        <ele>52.1</ele>
        <time>2025-01-16T13:34:56Z</time>
      </trkpt>
      <trkpt lat="47.56517" lon="-2.32028">
        <ele>52.2</ele>
        <time>2025-01-16T13:34:57Z</time>
      </trkpt>
      <trkpt lat="47.56517" lon="-2.32029">
        <ele>52.3</ele>
        <time>2025-01-16T13:34:58Z</time>
      </trkpt>
      <trkpt lat="47.56517" lon="-2.3203">
        <ele>52.4</ele>
        <time>2025-01-16T13:34:59Z</time>
      </trkpt>
      <trkpt lat="47.56517" lon="-2.32032">
        <ele>52.5</ele>
        <time>2025-01-16T13:35:00Z</time>
      </trkpt>
      <trkpt lat="47.56518" lon="-2.32033">
        <ele>52.7</ele>
        <time>2025-01-16T13:35:01Z</time>
      </trkpt>
      <trkpt lat="47.56518" lon="-2.32034">
        <ele>52.7</ele>
        <time>2025-01-16T13:35:02Z</time>
      </trkpt>
      <trkpt lat="47.56519" lon="-2.32035">
        <ele>52.9</ele>
        <time>2025-01-16T13:35:03Z</time>
      </trkpt>
      <trkpt lat="47.56519" lon="-2.32036">
        <ele>53</ele>
        <time>2025-01-16T13:35:04Z</time>
      </trkpt>
      <trkpt lat="47.5652" lon="-2.32037">
        <ele>53.1</ele>
        <time>2025-01-16T13:35:05Z</time>
      </trkpt>
      <trkpt lat="47.5652" lon="-2.32037">
        <ele>53.1</ele>
        <time>2025-01-16T13:35:06Z</time>
      </trkpt>
      <trkpt lat="47.5652" lon="-2.32038">
        <ele>53.2</ele>
        <time>2025-01-16T13:35:07Z</time>
      </trkpt>
      <trkpt lat="47.56521" lon="-2.32039">
        <ele>53.3</ele>
        <time>2025-01-16T13:35:08Z</time>
      </trkpt>
      <trkpt lat="47.56521" lon="-2.32041">
        <ele>53.5</ele>
        <time>2025-01-16T13:35:09Z</time>
      </trkpt>
      <trkpt lat="47.56522" lon="-2.32043">
        <ele>53.7</ele>
        <time>2025-01-16T13:35:10Z</time>
      </trkpt>
      <trkpt lat="47.56522" lon="-2.32044">
        <ele>53.8</ele>
        <time>2025-01-16T13:35:11Z</time>
      </trkpt>
      <trkpt lat="47.56522" lon="-2.32047">
        <ele>54</ele>
        <time>2025-01-16T13:35:12Z</time>
      </trkpt>
      <trkpt lat="47.56522" lon="-2.32049">
        <ele>54.1</ele>
        <time>2025-01-16T13:35:13Z</time>
      </trkpt>
      <trkpt lat="47.56522" lon="-2.3205">
        <ele>54.2</ele>
        <time>2025-01-16T13:35:14Z</time>
      </trkpt>
      <trkpt lat="47.56522" lon="-2.32051">
        <ele>54.3</ele>
        <time>2025-01-16T13:35:15Z</time>
      </trkpt>
      <trkpt lat="47.56523" lon="-2.32053">
        <ele>54.5</ele>
        <time>2025-01-16T13:35:16Z</time>
      </trkpt>
      <trkpt lat="47.56523" lon="-2.32054">
        <ele>54.5</ele>
        <time>2025-01-16T13:35:17Z</time>
      </trkpt>
      <trkpt lat="47.56523" lon="-2.32055">
        <ele>54.6</ele>
        <time>2025-01-16T13:35:18Z</time>
      </trkpt>
      <trkpt lat="47.56523" lon="-2.32056">
        <ele>54.7</ele>
        <time>2025-01-16T13:35:19Z</time>
      </trkpt>
      <trkpt lat="47.56523" lon="-2.32057">
        <ele>54.7</ele>
        <time>2025-01-16T13:35:20Z</time>
      </trkpt>
      <trkpt lat="47.56523" lon="-2.32057">
        <ele>54.7</ele>
        <time>2025-01-16T13:35:21Z</time>
      </trkpt>
      <trkpt lat="47.56524" lon="-2.32058">
        <ele>54.8</ele>
        <time>2025-01-16T13:35:22Z</time>
      </trkpt>
      <trkpt lat="47.56524" lon="-2.32059">
        <ele>54.9</ele>
        <time>2025-01-16T13:35:23Z</time>
      </trkpt>
      <trkpt lat="47.56524" lon="-2.32061">
        <ele>54.9</ele>
        <time>2025-01-16T13:35:24Z</time>
      </trkpt>
      <trkpt lat="47.56524" lon="-2.32062">
        <ele>55</ele>
        <time>2025-01-16T13:35:25Z</time>
      </trkpt>
      <trkpt lat="47.56525" lon="-2.32064">
        <ele>55.1</ele>
        <time>2025-01-16T13:35:26Z</time>
      </trkpt>
      <trkpt lat="47.56525" lon="-2.32065">
        <ele>55.1</ele>
        <time>2025-01-16T13:35:27Z</time>
      </trkpt>
      <trkpt lat="47.56525" lon="-2.32067">
        <ele>55.2</ele>
        <time>2025-01-16T13:35:28Z</time>
      </trkpt>
      <trkpt lat="47.56525" lon="-2.32068">
        <ele>55.2</ele>
        <time>2025-01-16T13:35:29Z</time>
      </trkpt>
      <trkpt lat="47.56526" lon="-2.3207">
        <ele>55.4</ele>
        <time>2025-01-16T13:35:30Z</time>
      </trkpt>
      <trkpt lat="47.56526" lon="-2.32072">
        <ele>55.5</ele>
        <time>2025-01-16T13:35:31Z</time>
      </trkpt>
      <trkpt lat="47.56526" lon="-2.32074">
        <ele>55.5</ele>
        <time>2025-01-16T13:35:32Z</time>
      </trkpt>
      <trkpt lat="47.56526" lon="-2.32075">
        <ele>55.6</ele>
        <time>2025-01-16T13:35:33Z</time>
      </trkpt>
      <trkpt lat="47.56527" lon="-2.32077">
        <ele>55.7</ele>
        <time>2025-01-16T13:35:34Z</time>
      </trkpt>
      <trkpt lat="47.56527" lon="-2.32078">
        <ele>55.8</ele>
        <time>2025-01-16T13:35:35Z</time>
      </trkpt>
      <trkpt lat="47.56527" lon="-2.3208">
        <ele>55.8</ele>
        <time>2025-01-16T13:35:36Z</time>
      </trkpt>
      <trkpt lat="47.56527" lon="-2.32082">
        <ele>55.9</ele>
        <time>2025-01-16T13:35:37Z</time>
      </trkpt>
      <trkpt lat="47.56528" lon="-2.32083">
        <ele>56</ele>
        <time>2025-01-16T13:35:38Z</time>
      </trkpt>
      <trkpt lat="47.56528" lon="-2.32085">
        <ele>56.1</ele>
        <time>2025-01-16T13:35:39Z</time>
      </trkpt>
      <trkpt lat="47.56528" lon="-2.32087">
        <ele>56.1</ele>
        <time>2025-01-16T13:35:40Z</time>
      </trkpt>
      <trkpt lat="47.56529" lon="-2.32089">
        <ele>56.2</ele>
        <time>2025-01-16T13:35:41Z</time>
      </trkpt>
      <trkpt lat="47.56529" lon="-2.3209">
        <ele>56.3</ele>
        <time>2025-01-16T13:35:42Z</time>
      </trkpt>
      <trkpt lat="47.56529" lon="-2.32091">
        <ele>56.3</ele>
        <time>2025-01-16T13:35:43Z</time>
      </trkpt>
      <trkpt lat="47.56529" lon="-2.32092">
        <ele>56.4</ele>
        <time>2025-01-16T13:35:44Z</time>
      </trkpt>
      <trkpt lat="47.56529" lon="-2.32093">
        <ele>56.4</ele>
        <time>2025-01-16T13:35:45Z</time>
      </trkpt>
      <trkpt lat="47.5653" lon="-2.32095">
        <ele>56.5</ele>
        <time>2025-01-16T13:35:46Z</time>
      </trkpt>
      <trkpt lat="47.5653" lon="-2.32096">
        <ele>56.5</ele>
        <time>2025-01-16T13:35:47Z</time>
      </trkpt>
      <trkpt lat="47.5653" lon="-2.32097">
        <ele>56.6</ele>
        <time>2025-01-16T13:35:48Z</time>
      </trkpt>
      <trkpt lat="47.5653" lon="-2.32099">
        <ele>56.6</ele>
        <time>2025-01-16T13:35:49Z</time>
      </trkpt>
      <trkpt lat="47.56531" lon="-2.321">
        <ele>56.7</ele>
        <time>2025-01-16T13:35:50Z</time>
      </trkpt>
      <trkpt lat="47.56531" lon="-2.32102">
        <ele>56.8</ele>
        <time>2025-01-16T13:35:51Z</time>
      </trkpt>
      <trkpt lat="47.56531" lon="-2.32103">
        <ele>56.8</ele>
        <time>2025-01-16T13:35:52Z</time>
      </trkpt>
      <trkpt lat="47.56531" lon="-2.32104">
        <ele>56.9</ele>
        <time>2025-01-16T13:35:53Z</time>
      </trkpt>
      <trkpt lat="47.56531" lon="-2.32106">
        <ele>56.9</ele>
        <time>2025-01-16T13:35:54Z</time>
      </trkpt>
      <trkpt lat="47.56532" lon="-2.32108">
        <ele>57</ele>
        <time>2025-01-16T13:35:55Z</time>
      </trkpt>
      <trkpt lat="47.56532" lon="-2.32109">
        <ele>57.1</ele>
        <time>2025-01-16T13:35:56Z</time>
      </trkpt>
      <trkpt lat="47.56532" lon="-2.32112">
        <ele>57.2</ele>
        <time>2025-01-16T13:35:57Z</time>
      </trkpt>
      <trkpt lat="47.56532" lon="-2.32114">
        <ele>57.3</ele>
        <time>2025-01-16T13:35:58Z</time>
      </trkpt>
      <trkpt lat="47.56533" lon="-2.32115">
        <ele>57.3</ele>
        <time>2025-01-16T13:35:59Z</time>
      </trkpt>
      <trkpt lat="47.56533" lon="-2.32116">
        <ele>57.4</ele>
        <time>2025-01-16T13:36:00Z</time>
      </trkpt>
      <trkpt lat="47.56533" lon="-2.32117">
        <ele>57.4</ele>
        <time>2025-01-16T13:36:01Z</time>
      </trkpt>
      <trkpt lat="47.56533" lon="-2.32119">
        <ele>57.5</ele>
        <time>2025-01-16T13:36:02Z</time>
      </trkpt>
      <trkpt lat="47.56534" lon="-2.3212">
        <ele>57.5</ele>
        <time>2025-01-16T13:36:03Z</time>
      </trkpt>
      <trkpt lat="47.56534" lon="-2.32122">
        <ele>57.6</ele>
        <time>2025-01-16T13:36:04Z</time>
      </trkpt>
      <trkpt lat="47.56534" lon="-2.32124">
        <ele>57.7</ele>
        <time>2025-01-16T13:36:05Z</time>
      </trkpt>
      <trkpt lat="47.56534" lon="-2.32126">
        <ele>57.8</ele>
        <time>2025-01-16T13:36:06Z</time>
      </trkpt>
      <trkpt lat="47.56534" lon="-2.32127">
        <ele>57.8</ele>
        <time>2025-01-16T13:36:07Z</time>
      </trkpt>
      <trkpt lat="47.56534" lon="-2.32129">
        <ele>57.9</ele>
        <time>2025-01-16T13:36:08Z</time>
      </trkpt>
      <trkpt lat="47.56535" lon="-2.32131">
        <ele>58</ele>
        <time>2025-01-16T13:36:09Z</time>
      </trkpt>
      <trkpt lat="47.56535" lon="-2.32132">
        <ele>58</ele>
        <time>2025-01-16T13:36:10Z</time>
      </trkpt>
      <trkpt lat="47.56535" lon="-2.32133">
        <ele>58</ele>
        <time>2025-01-16T13:36:11Z</time>
      </trkpt>
      <trkpt lat="47.56535" lon="-2.32134">
        <ele>58.1</ele>
        <time>2025-01-16T13:36:12Z</time>
      </trkpt>
      <trkpt lat="47.56535" lon="-2.32136">
        <ele>58.2</ele>
        <time>2025-01-16T13:36:13Z</time>
      </trkpt>
      <trkpt lat="47.56535" lon="-2.32138">
        <ele>58.2</ele>
        <time>2025-01-16T13:36:14Z</time>
      </trkpt>
      <trkpt lat="47.56536" lon="-2.3214">
        <ele>58.3</ele>
        <time>2025-01-16T13:36:15Z</time>
      </trkpt>
      <trkpt lat="47.56536" lon="-2.32143">
        <ele>58.3</ele>
        <time>2025-01-16T13:36:16Z</time>
      </trkpt>
      <trkpt lat="47.56537" lon="-2.32145">
        <ele>58.4</ele>
        <time>2025-01-16T13:36:17Z</time>
      </trkpt>
      <trkpt lat="47.56537" lon="-2.32146">
        <ele>58.4</ele>
        <time>2025-01-16T13:36:18Z</time>
      </trkpt>
      <trkpt lat="47.56537" lon="-2.32148">
        <ele>58.4</ele>
        <time>2025-01-16T13:36:19Z</time>
      </trkpt>
      <trkpt lat="47.56538" lon="-2.3215">
        <ele>58.5</ele>
        <time>2025-01-16T13:36:20Z</time>
      </trkpt>
      <trkpt lat="47.56538" lon="-2.32152">
        <ele>58.5</ele>
        <time>2025-01-16T13:36:21Z</time>
      </trkpt>
      <trkpt lat="47.56538" lon="-2.32153">
        <ele>58.6</ele>
        <time>2025-01-16T13:36:22Z</time>
      </trkpt>
      <trkpt lat="47.56539" lon="-2.32155">
        <ele>58.6</ele>
        <time>2025-01-16T13:36:23Z</time>
      </trkpt>
      <trkpt lat="47.56539" lon="-2.32156">
        <ele>58.7</ele>
        <time>2025-01-16T13:36:24Z</time>
      </trkpt>
      <trkpt lat="47.56539" lon="-2.32157">
        <ele>58.7</ele>
        <time>2025-01-16T13:36:25Z</time>
      </trkpt>
      <trkpt lat="47.56539" lon="-2.32159">
        <ele>58.7</ele>
        <time>2025-01-16T13:36:26Z</time>
      </trkpt>
      <trkpt lat="47.56539" lon="-2.32161">
        <ele>58.7</ele>
        <time>2025-01-16T13:36:27Z</time>
      </trkpt>
      <trkpt lat="47.56539" lon="-2.32162">
        <ele>58.7</ele>
        <time>2025-01-16T13:36:28Z</time>
      </trkpt>
      <trkpt lat="47.56539" lon="-2.32164">
        <ele>58.8</ele>
        <time>2025-01-16T13:36:29Z</time>
      </trkpt>
      <trkpt lat="47.56539" lon="-2.32166">
        <ele>58.8</ele>
        <time>2025-01-16T13:36:30Z</time>
      </trkpt>
      <trkpt lat="47.5654" lon="-2.32168">
        <ele>58.9</ele>
        <time>2025-01-16T13:36:31Z</time>
      </trkpt>
      <trkpt lat="47.5654" lon="-2.32168">
        <ele>58.9</ele>
        <time>2025-01-16T13:36:32Z</time>
      </trkpt>
      <trkpt lat="47.5654" lon="-2.32169">
        <ele>58.9</ele>
        <time>2025-01-16T13:36:33Z</time>
      </trkpt>
      <trkpt lat="47.5654" lon="-2.32171">
        <ele>58.9</ele>
        <time>2025-01-16T13:36:34Z</time>
      </trkpt>
      <trkpt lat="47.5654" lon="-2.32172">
        <ele>58.9</ele>
        <time>2025-01-16T13:36:35Z</time>
      </trkpt>
      <trkpt lat="47.5654" lon="-2.32174">
        <ele>58.9</ele>
        <time>2025-01-16T13:36:36Z</time>
      </trkpt>
      <trkpt lat="47.5654" lon="-2.32176">
        <ele>58.9</ele>
        <time>2025-01-16T13:36:37Z</time>
      </trkpt>
      <trkpt lat="47.5654" lon="-2.32178">
        <ele>58.9</ele>
        <time>2025-01-16T13:36:38Z</time>
      </trkpt>
      <trkpt lat="47.56541" lon="-2.32179">
        <ele>59</ele>
        <time>2025-01-16T13:36:39Z</time>
      </trkpt>
      <trkpt lat="47.56541" lon="-2.32181">
        <ele>59</ele>
        <time>2025-01-16T13:36:40Z</time>
      </trkpt>
      <trkpt lat="47.56541" lon="-2.32182">
        <ele>59</ele>
        <time>2025-01-16T13:36:41Z</time>
      </trkpt>
      <trkpt lat="47.56541" lon="-2.32184">
        <ele>59</ele>
        <time>2025-01-16T13:36:42Z</time>
      </trkpt>
      <trkpt lat="47.56541" lon="-2.32185">
        <ele>59</ele>
        <time>2025-01-16T13:36:43Z</time>
      </trkpt>
      <trkpt lat="47.56541" lon="-2.32186">
        <ele>59</ele>
        <time>2025-01-16T13:36:44Z</time>
      </trkpt>
      <trkpt lat="47.56541" lon="-2.32189">
        <ele>59</ele>
        <time>2025-01-16T13:36:45Z</time>
      </trkpt>
      <trkpt lat="47.56541" lon="-2.32191">
        <ele>59</ele>
        <time>2025-01-16T13:36:46Z</time>
      </trkpt>
      <trkpt lat="47.56541" lon="-2.32193">
        <ele>59</ele>
        <time>2025-01-16T13:36:47Z</time>
      </trkpt>
      <trkpt lat="47.5654" lon="-2.32195">
        <ele>58.9</ele>
        <time>2025-01-16T13:36:48Z</time>
      </trkpt>
      <trkpt lat="47.5654" lon="-2.32197">
        <ele>58.9</ele>
        <time>2025-01-16T13:36:49Z</time>
      </trkpt>
      <trkpt lat="47.5654" lon="-2.32199">
        <ele>58.9</ele>
        <time>2025-01-16T13:36:50Z</time>
      </trkpt>
      <trkpt lat="47.5654" lon="-2.32199">
        <ele>58.9</ele>
        <time>2025-01-16T13:36:51Z</time>
      </trkpt>
      <trkpt lat="47.5654" lon="-2.322">
        <ele>58.9</ele>
        <time>2025-01-16T13:36:52Z</time>
      </trkpt>
      <trkpt lat="47.5654" lon="-2.32202">
        <ele>58.9</ele>
        <time>2025-01-16T13:36:53Z</time>
      </trkpt>
      <trkpt lat="47.5654" lon="-2.32204">
        <ele>58.9</ele>
        <time>2025-01-16T13:36:54Z</time>
      </trkpt>
      <trkpt lat="47.5654" lon="-2.32205">
        <ele>58.9</ele>
        <time>2025-01-16T13:36:55Z</time>
      </trkpt>
      <trkpt lat="47.5654" lon="-2.32207">
        <ele>58.9</ele>
        <time>2025-01-16T13:36:56Z</time>
      </trkpt>
      <trkpt lat="47.5654" lon="-2.32209">
        <ele>58.9</ele>
        <time>2025-01-16T13:36:57Z</time>
      </trkpt>
      <trkpt lat="47.5654" lon="-2.32212">
        <ele>58.9</ele>
        <time>2025-01-16T13:36:58Z</time>
      </trkpt>
      <trkpt lat="47.5654" lon="-2.32213">
        <ele>58.9</ele>
        <time>2025-01-16T13:36:59Z</time>
      </trkpt>
      <trkpt lat="47.56539" lon="-2.32214">
        <ele>58.8</ele>
        <time>2025-01-16T13:37:00Z</time>
      </trkpt>
      <trkpt lat="47.56539" lon="-2.32216">
        <ele>58.8</ele>
        <time>2025-01-16T13:37:01Z</time>
      </trkpt>
      <trkpt lat="47.56539" lon="-2.32216">
        <ele>58.8</ele>
        <time>2025-01-16T13:37:02Z</time>
      </trkpt>
      <trkpt lat="47.5654" lon="-2.32216">
        <ele>58.9</ele>
        <time>2025-01-16T13:37:03Z</time>
      </trkpt>
      <trkpt lat="47.5654" lon="-2.32217">
        <ele>58.9</ele>
        <time>2025-01-16T13:37:04Z</time>
      </trkpt>
      <trkpt lat="47.5654" lon="-2.32219">
        <ele>58.9</ele>
        <time>2025-01-16T13:37:05Z</time>
      </trkpt>
      <trkpt lat="47.5654" lon="-2.32221">
        <ele>58.9</ele>
        <time>2025-01-16T13:37:06Z</time>
      </trkpt>
      <trkpt lat="47.5654" lon="-2.32223">
        <ele>58.9</ele>
        <time>2025-01-16T13:37:07Z</time>
      </trkpt>
      <trkpt lat="47.5654" lon="-2.32224">
        <ele>58.9</ele>
        <time>2025-01-16T13:37:08Z</time>
      </trkpt>
      <trkpt lat="47.56541" lon="-2.32225">
        <ele>59</ele>
        <time>2025-01-16T13:37:09Z</time>
      </trkpt>
      <trkpt lat="47.56541" lon="-2.32227">
        <ele>59</ele>
        <time>2025-01-16T13:37:10Z</time>
      </trkpt>
      <trkpt lat="47.56541" lon="-2.32229">
        <ele>59</ele>
        <time>2025-01-16T13:37:11Z</time>
      </trkpt>
      <trkpt lat="47.56542" lon="-2.32231">
        <ele>59</ele>
        <time>2025-01-16T13:37:12Z</time>
      </trkpt>
      <trkpt lat="47.56542" lon="-2.32232">
        <ele>59</ele>
        <time>2025-01-16T13:37:13Z</time>
      </trkpt>
      <trkpt lat="47.56542" lon="-2.32234">
        <ele>59</ele>
        <time>2025-01-16T13:37:14Z</time>
      </trkpt>
      <trkpt lat="47.56542" lon="-2.32235">
        <ele>59</ele>
        <time>2025-01-16T13:37:15Z</time>
      </trkpt>
      <trkpt lat="47.56542" lon="-2.32237">
        <ele>59</ele>
        <time>2025-01-16T13:37:16Z</time>
      </trkpt>
      <trkpt lat="47.56542" lon="-2.32239">
        <ele>59</ele>
        <time>2025-01-16T13:37:17Z</time>
      </trkpt>
      <trkpt lat="47.56542" lon="-2.32241">
        <ele>59</ele>
        <time>2025-01-16T13:37:18Z</time>
      </trkpt>
      <trkpt lat="47.56542" lon="-2.32243">
        <ele>59</ele>
        <time>2025-01-16T13:37:19Z</time>
      </trkpt>
      <trkpt lat="47.56542" lon="-2.32245">
        <ele>59</ele>
        <time>2025-01-16T13:37:20Z</time>
      </trkpt>
      <trkpt lat="47.56542" lon="-2.32247">
        <ele>59</ele>
        <time>2025-01-16T13:37:21Z</time>
      </trkpt>
      <trkpt lat="47.56542" lon="-2.3225">
        <ele>59</ele>
        <time>2025-01-16T13:37:22Z</time>
      </trkpt>
      <trkpt lat="47.56542" lon="-2.32254">
        <ele>59</ele>
        <time>2025-01-16T13:37:23Z</time>
      </trkpt>
      <trkpt lat="47.56543" lon="-2.32257">
        <ele>59.1</ele>
        <time>2025-01-16T13:37:24Z</time>
      </trkpt>
      <trkpt lat="47.56543" lon="-2.32259">
        <ele>59.1</ele>
        <time>2025-01-16T13:37:25Z</time>
      </trkpt>
      <trkpt lat="47.56543" lon="-2.32262">
        <ele>59.1</ele>
        <time>2025-01-16T13:37:26Z</time>
      </trkpt>
      <trkpt lat="47.56543" lon="-2.32265">
        <ele>59.1</ele>
        <time>2025-01-16T13:37:27Z</time>
      </trkpt>
      <trkpt lat="47.56543" lon="-2.32268">
        <ele>59.1</ele>
        <time>2025-01-16T13:37:28Z</time>
      </trkpt>
      <trkpt lat="47.56543" lon="-2.3227">
        <ele>59.1</ele>
        <time>2025-01-16T13:37:29Z</time>
      </trkpt>
      <trkpt lat="47.56543" lon="-2.32272">
        <ele>59.1</ele>
        <time>2025-01-16T13:37:30Z</time>
      </trkpt>
      <trkpt lat="47.56543" lon="-2.32274">
        <ele>59.1</ele>
        <time>2025-01-16T13:37:31Z</time>
      </trkpt>
      <trkpt lat="47.56543" lon="-2.32275">
        <ele>59.1</ele>
        <time>2025-01-16T13:37:32Z</time>
      </trkpt>
      <trkpt lat="47.56543" lon="-2.32277">
        <ele>59.1</ele>
        <time>2025-01-16T13:37:33Z</time>
      </trkpt>
      <trkpt lat="47.56543" lon="-2.32279">
        <ele>59.1</ele>
        <time>2025-01-16T13:37:34Z</time>
      </trkpt>
      <trkpt lat="47.56543" lon="-2.32281">
        <ele>59.2</ele>
        <time>2025-01-16T13:37:35Z</time>
      </trkpt>
      <trkpt lat="47.56543" lon="-2.32283">
        <ele>59.3</ele>
        <time>2025-01-16T13:37:36Z</time>
      </trkpt>
      <trkpt lat="47.56543" lon="-2.32285">
        <ele>59.4</ele>
        <time>2025-01-16T13:37:37Z</time>
      </trkpt>
      <trkpt lat="47.56543" lon="-2.32285">
        <ele>59.4</ele>
        <time>2025-01-16T13:37:38Z</time>
      </trkpt>
      <trkpt lat="47.56543" lon="-2.32287">
        <ele>59.4</ele>
        <time>2025-01-16T13:37:39Z</time>
      </trkpt>
      <trkpt lat="47.56543" lon="-2.32288">
        <ele>59.5</ele>
        <time>2025-01-16T13:37:40Z</time>
      </trkpt>
      <trkpt lat="47.56543" lon="-2.32288">
        <ele>59.5</ele>
        <time>2025-01-16T13:37:41Z</time>
      </trkpt>
      <trkpt lat="47.56543" lon="-2.32288">
        <ele>59.5</ele>
        <time>2025-01-16T13:37:42Z</time>
      </trkpt>
      <trkpt lat="47.56543" lon="-2.32288">
        <ele>59.5</ele>
        <time>2025-01-16T13:37:43Z</time>
      </trkpt>
      <trkpt lat="47.56542" lon="-2.3229">
        <ele>59.5</ele>
        <time>2025-01-16T13:37:44Z</time>
      </trkpt>
      <trkpt lat="47.56542" lon="-2.32293">
        <ele>59.6</ele>
        <time>2025-01-16T13:37:45Z</time>
      </trkpt>
      <trkpt lat="47.56542" lon="-2.32296">
        <ele>59.7</ele>
        <time>2025-01-16T13:37:46Z</time>
      </trkpt>
      <trkpt lat="47.56541" lon="-2.32298">
        <ele>59.7</ele>
        <time>2025-01-16T13:37:47Z</time>
      </trkpt>
      <trkpt lat="47.5654" lon="-2.32299">
        <ele>59.6</ele>
        <time>2025-01-16T13:37:48Z</time>
      </trkpt>
      <trkpt lat="47.5654" lon="-2.32302">
        <ele>59.8</ele>
        <time>2025-01-16T13:37:49Z</time>
      </trkpt>
      <trkpt lat="47.56539" lon="-2.32305">
        <ele>59.8</ele>
        <time>2025-01-16T13:37:50Z</time>
      </trkpt>
      <trkpt lat="47.56538" lon="-2.32308">
        <ele>59.8</ele>
        <time>2025-01-16T13:37:51Z</time>
      </trkpt>
      <trkpt lat="47.56537" lon="-2.3231">
        <ele>59.7</ele>
        <time>2025-01-16T13:37:52Z</time>
      </trkpt>
      <trkpt lat="47.56536" lon="-2.32311">
        <ele>59.7</ele>
        <time>2025-01-16T13:37:53Z</time>
      </trkpt>
      <trkpt lat="47.56536" lon="-2.32313">
        <ele>59.7</ele>
        <time>2025-01-16T13:37:54Z</time>
      </trkpt>
      <trkpt lat="47.56535" lon="-2.32314">
        <ele>59.6</ele>
        <time>2025-01-16T13:37:55Z</time>
      </trkpt>
      <trkpt lat="47.56534" lon="-2.32316">
        <ele>59.5</ele>
        <time>2025-01-16T13:37:56Z</time>
      </trkpt>
      <trkpt lat="47.56533" lon="-2.32318">
        <ele>59.5</ele>
        <time>2025-01-16T13:37:57Z</time>
      </trkpt>
      <trkpt lat="47.56532" lon="-2.32319">
        <ele>59.4</ele>
        <time>2025-01-16T13:37:58Z</time>
      </trkpt>
      <trkpt lat="47.56531" lon="-2.32321">
        <ele>59.3</ele>
        <time>2025-01-16T13:37:59Z</time>
      </trkpt>
      <trkpt lat="47.5653" lon="-2.32323">
        <ele>59.2</ele>
        <time>2025-01-16T13:38:00Z</time>
      </trkpt>
      <trkpt lat="47.56529" lon="-2.32324">
        <ele>59.1</ele>
        <time>2025-01-16T13:38:01Z</time>
      </trkpt>
      <trkpt lat="47.56529" lon="-2.32326">
        <ele>59.1</ele>
        <time>2025-01-16T13:38:02Z</time>
      </trkpt>
      <trkpt lat="47.56528" lon="-2.32328">
        <ele>59</ele>
        <time>2025-01-16T13:38:03Z</time>
      </trkpt>
      <trkpt lat="47.56527" lon="-2.32329">
        <ele>58.9</ele>
        <time>2025-01-16T13:38:04Z</time>
      </trkpt>
      <trkpt lat="47.56527" lon="-2.32331">
        <ele>58.9</ele>
        <time>2025-01-16T13:38:05Z</time>
      </trkpt>
      <trkpt lat="47.56526" lon="-2.32333">
        <ele>58.8</ele>
        <time>2025-01-16T13:38:06Z</time>
      </trkpt>
      <trkpt lat="47.56526" lon="-2.32336">
        <ele>58.8</ele>
        <time>2025-01-16T13:38:07Z</time>
      </trkpt>
      <trkpt lat="47.56525" lon="-2.32338">
        <ele>58.7</ele>
        <time>2025-01-16T13:38:08Z</time>
      </trkpt>
      <trkpt lat="47.56525" lon="-2.3234">
        <ele>58.7</ele>
        <time>2025-01-16T13:38:09Z</time>
      </trkpt>
      <trkpt lat="47.56525" lon="-2.32341">
        <ele>58.7</ele>
        <time>2025-01-16T13:38:10Z</time>
      </trkpt>
      <trkpt lat="47.56525" lon="-2.32342">
        <ele>58.7</ele>
        <time>2025-01-16T13:38:11Z</time>
      </trkpt>
      <trkpt lat="47.56525" lon="-2.32343">
        <ele>58.7</ele>
        <time>2025-01-16T13:38:12Z</time>
      </trkpt>
      <trkpt lat="47.56525" lon="-2.32344">
        <ele>58.7</ele>
        <time>2025-01-16T13:38:13Z</time>
      </trkpt>
      <trkpt lat="47.56525" lon="-2.32346">
        <ele>58.7</ele>
        <time>2025-01-16T13:38:14Z</time>
      </trkpt>
      <trkpt lat="47.56525" lon="-2.32348">
        <ele>58.7</ele>
        <time>2025-01-16T13:38:15Z</time>
      </trkpt>
      <trkpt lat="47.56525" lon="-2.3235">
        <ele>58.7</ele>
        <time>2025-01-16T13:38:16Z</time>
      </trkpt>
      <trkpt lat="47.56525" lon="-2.32352">
        <ele>58.7</ele>
        <time>2025-01-16T13:38:17Z</time>
      </trkpt>
      <trkpt lat="47.56525" lon="-2.32355">
        <ele>58.7</ele>
        <time>2025-01-16T13:38:18Z</time>
      </trkpt>
      <trkpt lat="47.56525" lon="-2.32356">
        <ele>58.7</ele>
        <time>2025-01-16T13:38:19Z</time>
      </trkpt>
      <trkpt lat="47.56525" lon="-2.32357">
        <ele>58.7</ele>
        <time>2025-01-16T13:38:20Z</time>
      </trkpt>
      <trkpt lat="47.56525" lon="-2.32358">
        <ele>58.7</ele>
        <time>2025-01-16T13:38:21Z</time>
      </trkpt>
      <trkpt lat="47.56525" lon="-2.3236">
        <ele>58.7</ele>
        <time>2025-01-16T13:38:22Z</time>
      </trkpt>
      <trkpt lat="47.56525" lon="-2.32362">
        <ele>58.7</ele>
        <time>2025-01-16T13:38:23Z</time>
      </trkpt>
      <trkpt lat="47.56525" lon="-2.32364">
        <ele>58.7</ele>
        <time>2025-01-16T13:38:24Z</time>
      </trkpt>
      <trkpt lat="47.56525" lon="-2.32366">
        <ele>58.7</ele>
        <time>2025-01-16T13:38:25Z</time>
      </trkpt>
      <trkpt lat="47.56525" lon="-2.32368">
        <ele>58.7</ele>
        <time>2025-01-16T13:38:26Z</time>
      </trkpt>
      <trkpt lat="47.56525" lon="-2.32369">
        <ele>58.7</ele>
        <time>2025-01-16T13:38:27Z</time>
      </trkpt>
      <trkpt lat="47.56524" lon="-2.32371">
        <ele>58.6</ele>
        <time>2025-01-16T13:38:28Z</time>
      </trkpt>
      <trkpt lat="47.56524" lon="-2.32372">
        <ele>58.6</ele>
        <time>2025-01-16T13:38:29Z</time>
      </trkpt>
      <trkpt lat="47.56524" lon="-2.32374">
        <ele>58.6</ele>
        <time>2025-01-16T13:38:30Z</time>
      </trkpt>
      <trkpt lat="47.56524" lon="-2.32374">
        <ele>58.6</ele>
        <time>2025-01-16T13:38:31Z</time>
      </trkpt>
      <trkpt lat="47.56523" lon="-2.32375">
        <ele>58.5</ele>
        <time>2025-01-16T13:38:32Z</time>
      </trkpt>
      <trkpt lat="47.56523" lon="-2.32377">
        <ele>58.5</ele>
        <time>2025-01-16T13:38:33Z</time>
      </trkpt>
      <trkpt lat="47.56522" lon="-2.32378">
        <ele>58.4</ele>
        <time>2025-01-16T13:38:34Z</time>
      </trkpt>
      <trkpt lat="47.56522" lon="-2.32379">
        <ele>58.4</ele>
        <time>2025-01-16T13:38:35Z</time>
      </trkpt>
      <trkpt lat="47.56522" lon="-2.32381">
        <ele>58.4</ele>
        <time>2025-01-16T13:38:36Z</time>
      </trkpt>
      <trkpt lat="47.56522" lon="-2.32382">
        <ele>58.4</ele>
        <time>2025-01-16T13:38:37Z</time>
      </trkpt>
      <trkpt lat="47.56521" lon="-2.32383">
        <ele>58.3</ele>
        <time>2025-01-16T13:38:38Z</time>
      </trkpt>
      <trkpt lat="47.56521" lon="-2.32384">
        <ele>58.3</ele>
        <time>2025-01-16T13:38:39Z</time>
      </trkpt>
      <trkpt lat="47.5652" lon="-2.32386">
        <ele>58.2</ele>
        <time>2025-01-16T13:38:40Z</time>
      </trkpt>
      <trkpt lat="47.5652" lon="-2.32387">
        <ele>58.2</ele>
        <time>2025-01-16T13:38:41Z</time>
      </trkpt>
      <trkpt lat="47.5652" lon="-2.32388">
        <ele>58.2</ele>
        <time>2025-01-16T13:38:42Z</time>
      </trkpt>
      <trkpt lat="47.5652" lon="-2.3239">
        <ele>58.2</ele>
        <time>2025-01-16T13:38:43Z</time>
      </trkpt>
      <trkpt lat="47.56519" lon="-2.32392">
        <ele>58.1</ele>
        <time>2025-01-16T13:38:44Z</time>
      </trkpt>
      <trkpt lat="47.56519" lon="-2.32393">
        <ele>58.1</ele>
        <time>2025-01-16T13:38:45Z</time>
      </trkpt>
      <trkpt lat="47.56519" lon="-2.32394">
        <ele>58.1</ele>
        <time>2025-01-16T13:38:46Z</time>
      </trkpt>
      <trkpt lat="47.56518" lon="-2.32395">
        <ele>57.9</ele>
        <time>2025-01-16T13:38:47Z</time>
      </trkpt>
      <trkpt lat="47.56518" lon="-2.32398">
        <ele>57.9</ele>
        <time>2025-01-16T13:38:48Z</time>
      </trkpt>
      <trkpt lat="47.56518" lon="-2.32399">
        <ele>57.9</ele>
        <time>2025-01-16T13:38:49Z</time>
      </trkpt>
      <trkpt lat="47.56517" lon="-2.32401">
        <ele>57.8</ele>
        <time>2025-01-16T13:38:50Z</time>
      </trkpt>
      <trkpt lat="47.56517" lon="-2.32402">
        <ele>57.8</ele>
        <time>2025-01-16T13:38:51Z</time>
      </trkpt>
      <trkpt lat="47.56517" lon="-2.32404">
        <ele>57.8</ele>
        <time>2025-01-16T13:38:52Z</time>
      </trkpt>
      <trkpt lat="47.56517" lon="-2.32406">
        <ele>57.8</ele>
        <time>2025-01-16T13:38:53Z</time>
      </trkpt>
      <trkpt lat="47.56517" lon="-2.32408">
        <ele>57.8</ele>
        <time>2025-01-16T13:38:54Z</time>
      </trkpt>
      <trkpt lat="47.56517" lon="-2.3241">
        <ele>57.8</ele>
        <time>2025-01-16T13:38:55Z</time>
      </trkpt>
      <trkpt lat="47.56517" lon="-2.32411">
        <ele>57.8</ele>
        <time>2025-01-16T13:38:56Z</time>
      </trkpt>
      <trkpt lat="47.56517" lon="-2.32413">
        <ele>57.8</ele>
        <time>2025-01-16T13:38:57Z</time>
      </trkpt>
      <trkpt lat="47.56517" lon="-2.32414">
        <ele>57.8</ele>
        <time>2025-01-16T13:38:58Z</time>
      </trkpt>
      <trkpt lat="47.56516" lon="-2.32416">
        <ele>57.7</ele>
        <time>2025-01-16T13:38:59Z</time>
      </trkpt>
      <trkpt lat="47.56516" lon="-2.32418">
        <ele>57.7</ele>
        <time>2025-01-16T13:39:00Z</time>
      </trkpt>
      <trkpt lat="47.56516" lon="-2.3242">
        <ele>57.7</ele>
        <time>2025-01-16T13:39:01Z</time>
      </trkpt>
      <trkpt lat="47.56516" lon="-2.32421">
        <ele>57.7</ele>
        <time>2025-01-16T13:39:02Z</time>
      </trkpt>
      <trkpt lat="47.56516" lon="-2.32422">
        <ele>57.7</ele>
        <time>2025-01-16T13:39:03Z</time>
      </trkpt>
      <trkpt lat="47.56515" lon="-2.32424">
        <ele>57.6</ele>
        <time>2025-01-16T13:39:04Z</time>
      </trkpt>
      <trkpt lat="47.56515" lon="-2.32426">
        <ele>57.6</ele>
        <time>2025-01-16T13:39:05Z</time>
      </trkpt>
      <trkpt lat="47.56515" lon="-2.32429">
        <ele>57.6</ele>
        <time>2025-01-16T13:39:06Z</time>
      </trkpt>
      <trkpt lat="47.56515" lon="-2.32431">
        <ele>57.6</ele>
        <time>2025-01-16T13:39:07Z</time>
      </trkpt>
      <trkpt lat="47.56515" lon="-2.32432">
        <ele>57.6</ele>
        <time>2025-01-16T13:39:08Z</time>
      </trkpt>
      <trkpt lat="47.56515" lon="-2.32435">
        <ele>57.6</ele>
        <time>2025-01-16T13:39:09Z</time>
      </trkpt>
      <trkpt lat="47.56515" lon="-2.32437">
        <ele>57.6</ele>
        <time>2025-01-16T13:39:10Z</time>
      </trkpt>
      <trkpt lat="47.56514" lon="-2.3244">
        <ele>57.5</ele>
        <time>2025-01-16T13:39:11Z</time>
      </trkpt>
      <trkpt lat="47.56514" lon="-2.32442">
        <ele>57.5</ele>
        <time>2025-01-16T13:39:12Z</time>
      </trkpt>
      <trkpt lat="47.56514" lon="-2.32444">
        <ele>57.5</ele>
        <time>2025-01-16T13:39:13Z</time>
      </trkpt>
      <trkpt lat="47.56514" lon="-2.32446">
        <ele>57.5</ele>
        <time>2025-01-16T13:39:14Z</time>
      </trkpt>
      <trkpt lat="47.56514" lon="-2.32449">
        <ele>57.5</ele>
        <time>2025-01-16T13:39:15Z</time>
      </trkpt>
      <trkpt lat="47.56514" lon="-2.32451">
        <ele>57.5</ele>
        <time>2025-01-16T13:39:16Z</time>
      </trkpt>
      <trkpt lat="47.56514" lon="-2.32454">
        <ele>57.5</ele>
        <time>2025-01-16T13:39:17Z</time>
      </trkpt>
      <trkpt lat="47.56514" lon="-2.32456">
        <ele>57.5</ele>
        <time>2025-01-16T13:39:18Z</time>
      </trkpt>
      <trkpt lat="47.56514" lon="-2.32458">
        <ele>57.5</ele>
        <time>2025-01-16T13:39:19Z</time>
      </trkpt>
      <trkpt lat="47.56515" lon="-2.3246">
        <ele>57.6</ele>
        <time>2025-01-16T13:39:20Z</time>
      </trkpt>
      <trkpt lat="47.56515" lon="-2.32462">
        <ele>57.6</ele>
        <time>2025-01-16T13:39:21Z</time>
      </trkpt>
      <trkpt lat="47.56514" lon="-2.32463">
        <ele>57.5</ele>
        <time>2025-01-16T13:39:22Z</time>
      </trkpt>
      <trkpt lat="47.56514" lon="-2.32464">
        <ele>57.5</ele>
        <time>2025-01-16T13:39:23Z</time>
      </trkpt>
      <trkpt lat="47.56514" lon="-2.32467">
        <ele>57.5</ele>
        <time>2025-01-16T13:39:24Z</time>
      </trkpt>
      <trkpt lat="47.56514" lon="-2.32468">
        <ele>57.5</ele>
        <time>2025-01-16T13:39:25Z</time>
      </trkpt>
      <trkpt lat="47.56514" lon="-2.32471">
        <ele>57.5</ele>
        <time>2025-01-16T13:39:26Z</time>
      </trkpt>
      <trkpt lat="47.56514" lon="-2.32472">
        <ele>57.5</ele>
        <time>2025-01-16T13:39:27Z</time>
      </trkpt>
      <trkpt lat="47.56514" lon="-2.32473">
        <ele>57.5</ele>
        <time>2025-01-16T13:39:28Z</time>
      </trkpt>
      <trkpt lat="47.56514" lon="-2.32473">
        <ele>57.5</ele>
        <time>2025-01-16T13:39:29Z</time>
      </trkpt>
      <trkpt lat="47.56514" lon="-2.32471">
        <ele>57.5</ele>
        <time>2025-01-16T13:39:30Z</time>
      </trkpt>
      <trkpt lat="47.56513" lon="-2.3247">
        <ele>57.4</ele>
        <time>2025-01-16T13:39:31Z</time>
      </trkpt>
      <trkpt lat="47.56513" lon="-2.32469">
        <ele>57.4</ele>
        <time>2025-01-16T13:39:32Z</time>
      </trkpt>
      <trkpt lat="47.56513" lon="-2.32467">
        <ele>57.4</ele>
        <time>2025-01-16T13:39:33Z</time>
      </trkpt>
      <trkpt lat="47.56513" lon="-2.32465">
        <ele>57.4</ele>
        <time>2025-01-16T13:39:34Z</time>
      </trkpt>
      <trkpt lat="47.56513" lon="-2.32463">
        <ele>57.4</ele>
        <time>2025-01-16T13:39:35Z</time>
      </trkpt>
      <trkpt lat="47.56512" lon="-2.32461">
        <ele>57.3</ele>
        <time>2025-01-16T13:39:36Z</time>
      </trkpt>
      <trkpt lat="47.56512" lon="-2.3246">
        <ele>57.3</ele>
        <time>2025-01-16T13:39:37Z</time>
      </trkpt>
      <trkpt lat="47.56511" lon="-2.32459">
        <ele>57.2</ele>
        <time>2025-01-16T13:39:38Z</time>
      </trkpt>
      <trkpt lat="47.56511" lon="-2.32458">
        <ele>57.2</ele>
        <time>2025-01-16T13:39:39Z</time>
      </trkpt>
      <trkpt lat="47.56511" lon="-2.32457">
        <ele>57.2</ele>
        <time>2025-01-16T13:39:40Z</time>
      </trkpt>
      <trkpt lat="47.56511" lon="-2.32456">
        <ele>57.2</ele>
        <time>2025-01-16T13:39:41Z</time>
      </trkpt>
      <trkpt lat="47.5651" lon="-2.32454">
        <ele>57.1</ele>
        <time>2025-01-16T13:39:42Z</time>
      </trkpt>
      <trkpt lat="47.5651" lon="-2.32452">
        <ele>57.1</ele>
        <time>2025-01-16T13:39:43Z</time>
      </trkpt>
      <trkpt lat="47.5651" lon="-2.3245">
        <ele>57.1</ele>
        <time>2025-01-16T13:39:44Z</time>
      </trkpt>
      <trkpt lat="47.5651" lon="-2.32448">
        <ele>57.1</ele>
        <time>2025-01-16T13:39:45Z</time>
      </trkpt>
      <trkpt lat="47.5651" lon="-2.32446">
        <ele>57.1</ele>
        <time>2025-01-16T13:39:46Z</time>
      </trkpt>
      <trkpt lat="47.5651" lon="-2.32444">
        <ele>57.1</ele>
        <time>2025-01-16T13:39:47Z</time>
      </trkpt>
      <trkpt lat="47.5651" lon="-2.32442">
        <ele>57.1</ele>
        <time>2025-01-16T13:39:48Z</time>
      </trkpt>
      <trkpt lat="47.5651" lon="-2.32441">
        <ele>57.1</ele>
        <time>2025-01-16T13:39:49Z</time>
      </trkpt>
      <trkpt lat="47.5651" lon="-2.32439">
        <ele>57.1</ele>
        <time>2025-01-16T13:39:50Z</time>
      </trkpt>
      <trkpt lat="47.56511" lon="-2.32438">
        <ele>57.2</ele>
        <time>2025-01-16T13:39:51Z</time>
      </trkpt>
      <trkpt lat="47.56511" lon="-2.32436">
        <ele>57.2</ele>
        <time>2025-01-16T13:39:52Z</time>
      </trkpt>
      <trkpt lat="47.56511" lon="-2.32435">
        <ele>57.2</ele>
        <time>2025-01-16T13:39:53Z</time>
      </trkpt>
      <trkpt lat="47.56511" lon="-2.32434">
        <ele>57.2</ele>
        <time>2025-01-16T13:39:54Z</time>
      </trkpt>
      <trkpt lat="47.56511" lon="-2.32433">
        <ele>57.2</ele>
        <time>2025-01-16T13:39:55Z</time>
      </trkpt>
      <trkpt lat="47.56511" lon="-2.32431">
        <ele>57.2</ele>
        <time>2025-01-16T13:39:56Z</time>
      </trkpt>
      <trkpt lat="47.56512" lon="-2.32429">
        <ele>57.3</ele>
        <time>2025-01-16T13:39:57Z</time>
      </trkpt>
      <trkpt lat="47.56512" lon="-2.32427">
        <ele>57.3</ele>
        <time>2025-01-16T13:39:58Z</time>
      </trkpt>
      <trkpt lat="47.56512" lon="-2.32425">
        <ele>57.3</ele>
        <time>2025-01-16T13:39:59Z</time>
      </trkpt>
      <trkpt lat="47.56512" lon="-2.32424">
        <ele>57.3</ele>
        <time>2025-01-16T13:40:00Z</time>
      </trkpt>
      <trkpt lat="47.56512" lon="-2.32423">
        <ele>57.3</ele>
        <time>2025-01-16T13:40:01Z</time>
      </trkpt>
      <trkpt lat="47.56512" lon="-2.32422">
        <ele>57.3</ele>
        <time>2025-01-16T13:40:02Z</time>
      </trkpt>
      <trkpt lat="47.56512" lon="-2.3242">
        <ele>57.3</ele>
        <time>2025-01-16T13:40:03Z</time>
      </trkpt>
      <trkpt lat="47.56512" lon="-2.32419">
        <ele>57.3</ele>
        <time>2025-01-16T13:40:04Z</time>
      </trkpt>
      <trkpt lat="47.56512" lon="-2.32417">
        <ele>57.3</ele>
        <time>2025-01-16T13:40:05Z</time>
      </trkpt>
      <trkpt lat="47.56512" lon="-2.32416">
        <ele>57.3</ele>
        <time>2025-01-16T13:40:06Z</time>
      </trkpt>
      <trkpt lat="47.56512" lon="-2.32414">
        <ele>57.3</ele>
        <time>2025-01-16T13:40:07Z</time>
      </trkpt>
      <trkpt lat="47.56512" lon="-2.32413">
        <ele>57.3</ele>
        <time>2025-01-16T13:40:08Z</time>
      </trkpt>
      <trkpt lat="47.56512" lon="-2.32412">
        <ele>57.3</ele>
        <time>2025-01-16T13:40:09Z</time>
      </trkpt>
      <trkpt lat="47.56512" lon="-2.32411">
        <ele>57.3</ele>
        <time>2025-01-16T13:40:10Z</time>
      </trkpt>
      <trkpt lat="47.56513" lon="-2.32409">
        <ele>57.4</ele>
        <time>2025-01-16T13:40:11Z</time>
      </trkpt>
      <trkpt lat="47.56513" lon="-2.32407">
        <ele>57.4</ele>
        <time>2025-01-16T13:40:12Z</time>
      </trkpt>
      <trkpt lat="47.56513" lon="-2.32405">
        <ele>57.4</ele>
        <time>2025-01-16T13:40:13Z</time>
      </trkpt>
      <trkpt lat="47.56513" lon="-2.32404">
        <ele>57.4</ele>
        <time>2025-01-16T13:40:14Z</time>
      </trkpt>
      <trkpt lat="47.56513" lon="-2.32403">
        <ele>57.4</ele>
        <time>2025-01-16T13:40:15Z</time>
      </trkpt>
      <trkpt lat="47.56512" lon="-2.32401">
        <ele>57.3</ele>
        <time>2025-01-16T13:40:16Z</time>
      </trkpt>
      <trkpt lat="47.56512" lon="-2.324">
        <ele>57.3</ele>
        <time>2025-01-16T13:40:17Z</time>
      </trkpt>
      <trkpt lat="47.56512" lon="-2.32398">
        <ele>57.3</ele>
        <time>2025-01-16T13:40:18Z</time>
      </trkpt>
      <trkpt lat="47.56512" lon="-2.32395">
        <ele>57.3</ele>
        <time>2025-01-16T13:40:19Z</time>
      </trkpt>
      <trkpt lat="47.56513" lon="-2.32393">
        <ele>57.4</ele>
        <time>2025-01-16T13:40:20Z</time>
      </trkpt>
      <trkpt lat="47.56513" lon="-2.32392">
        <ele>57.4</ele>
        <time>2025-01-16T13:40:21Z</time>
      </trkpt>
      <trkpt lat="47.56514" lon="-2.32392">
        <ele>57.5</ele>
        <time>2025-01-16T13:40:22Z</time>
      </trkpt>
      <trkpt lat="47.56514" lon="-2.3239">
        <ele>57.5</ele>
        <time>2025-01-16T13:40:23Z</time>
      </trkpt>
      <trkpt lat="47.56515" lon="-2.32389">
        <ele>57.6</ele>
        <time>2025-01-16T13:40:24Z</time>
      </trkpt>
      <trkpt lat="47.56516" lon="-2.32387">
        <ele>57.7</ele>
        <time>2025-01-16T13:40:25Z</time>
      </trkpt>
      <trkpt lat="47.56517" lon="-2.32385">
        <ele>57.8</ele>
        <time>2025-01-16T13:40:26Z</time>
      </trkpt>
      <trkpt lat="47.56519" lon="-2.32383">
        <ele>58.1</ele>
        <time>2025-01-16T13:40:27Z</time>
      </trkpt>
      <trkpt lat="47.56521" lon="-2.32382">
        <ele>58.3</ele>
        <time>2025-01-16T13:40:28Z</time>
      </trkpt>
      <trkpt lat="47.56523" lon="-2.32381">
        <ele>58.5</ele>
        <time>2025-01-16T13:40:29Z</time>
      </trkpt>
      <trkpt lat="47.56524" lon="-2.32381">
        <ele>58.6</ele>
        <time>2025-01-16T13:40:30Z</time>
      </trkpt>
      <trkpt lat="47.56526" lon="-2.32382">
        <ele>58.8</ele>
        <time>2025-01-16T13:40:31Z</time>
      </trkpt>
      <trkpt lat="47.56527" lon="-2.32382">
        <ele>58.9</ele>
        <time>2025-01-16T13:40:32Z</time>
      </trkpt>
      <trkpt lat="47.56528" lon="-2.32383">
        <ele>59</ele>
        <time>2025-01-16T13:40:33Z</time>
      </trkpt>
      <trkpt lat="47.56529" lon="-2.32384">
        <ele>59.1</ele>
        <time>2025-01-16T13:40:34Z</time>
      </trkpt>
      <trkpt lat="47.5653" lon="-2.32385">
        <ele>59.2</ele>
        <time>2025-01-16T13:40:35Z</time>
      </trkpt>
      <trkpt lat="47.56531" lon="-2.32387">
        <ele>59.3</ele>
        <time>2025-01-16T13:40:36Z</time>
      </trkpt>
      <trkpt lat="47.56532" lon="-2.32388">
        <ele>59.5</ele>
        <time>2025-01-16T13:40:37Z</time>
      </trkpt>
      <trkpt lat="47.56534" lon="-2.32389">
        <ele>59.7</ele>
        <time>2025-01-16T13:40:38Z</time>
      </trkpt>
      <trkpt lat="47.56535" lon="-2.32389">
        <ele>59.8</ele>
        <time>2025-01-16T13:40:39Z</time>
      </trkpt>
      <trkpt lat="47.56536" lon="-2.3239">
        <ele>59.9</ele>
        <time>2025-01-16T13:40:40Z</time>
      </trkpt>
      <trkpt lat="47.56537" lon="-2.32391">
        <ele>60</ele>
        <time>2025-01-16T13:40:41Z</time>
      </trkpt>
      <trkpt lat="47.56538" lon="-2.32392">
        <ele>60.1</ele>
        <time>2025-01-16T13:40:42Z</time>
      </trkpt>
      <trkpt lat="47.56539" lon="-2.32393">
        <ele>60.2</ele>
        <time>2025-01-16T13:40:43Z</time>
      </trkpt>
      <trkpt lat="47.5654" lon="-2.32394">
        <ele>60.3</ele>
        <time>2025-01-16T13:40:44Z</time>
      </trkpt>
      <trkpt lat="47.56541" lon="-2.32395">
        <ele>60.4</ele>
        <time>2025-01-16T13:40:45Z</time>
      </trkpt>
      <trkpt lat="47.56542" lon="-2.32396">
        <ele>60.5</ele>
        <time>2025-01-16T13:40:46Z</time>
      </trkpt>
      <trkpt lat="47.56543" lon="-2.32396">
        <ele>60.6</ele>
        <time>2025-01-16T13:40:47Z</time>
      </trkpt>
      <trkpt lat="47.56544" lon="-2.32397">
        <ele>60.8</ele>
        <time>2025-01-16T13:40:48Z</time>
      </trkpt>
      <trkpt lat="47.56545" lon="-2.32397">
        <ele>60.9</ele>
        <time>2025-01-16T13:40:49Z</time>
      </trkpt>
      <trkpt lat="47.56546" lon="-2.32398">
        <ele>61</ele>
        <time>2025-01-16T13:40:50Z</time>
      </trkpt>
      <trkpt lat="47.56547" lon="-2.32398">
        <ele>61.1</ele>
        <time>2025-01-16T13:40:51Z</time>
      </trkpt>
      <trkpt lat="47.56548" lon="-2.32398">
        <ele>61.2</ele>
        <time>2025-01-16T13:40:52Z</time>
      </trkpt>
      <trkpt lat="47.56549" lon="-2.32399">
        <ele>61.3</ele>
        <time>2025-01-16T13:40:53Z</time>
      </trkpt>
      <trkpt lat="47.5655" lon="-2.324">
        <ele>61.4</ele>
        <time>2025-01-16T13:40:54Z</time>
      </trkpt>
      <trkpt lat="47.56551" lon="-2.324">
        <ele>61.5</ele>
        <time>2025-01-16T13:40:55Z</time>
      </trkpt>
      <trkpt lat="47.56552" lon="-2.324">
        <ele>61.6</ele>
        <time>2025-01-16T13:40:56Z</time>
      </trkpt>
      <trkpt lat="47.56553" lon="-2.32401">
        <ele>61.7</ele>
        <time>2025-01-16T13:40:57Z</time>
      </trkpt>
      <trkpt lat="47.56555" lon="-2.32401">
        <ele>61.9</ele>
        <time>2025-01-16T13:40:58Z</time>
      </trkpt>
      <trkpt lat="47.56555" lon="-2.32402">
        <ele>61.9</ele>
        <time>2025-01-16T13:40:59Z</time>
      </trkpt>
      <trkpt lat="47.56556" lon="-2.32402">
        <ele>62</ele>
        <time>2025-01-16T13:41:00Z</time>
      </trkpt>
      <trkpt lat="47.56557" lon="-2.32402">
        <ele>62.1</ele>
        <time>2025-01-16T13:41:01Z</time>
      </trkpt>
      <trkpt lat="47.56558" lon="-2.32403">
        <ele>62.2</ele>
        <time>2025-01-16T13:41:02Z</time>
      </trkpt>
      <trkpt lat="47.56559" lon="-2.32403">
        <ele>62.2</ele>
        <time>2025-01-16T13:41:03Z</time>
      </trkpt>
      <trkpt lat="47.56561" lon="-2.32403">
        <ele>62.4</ele>
        <time>2025-01-16T13:41:04Z</time>
      </trkpt>
      <trkpt lat="47.56562" lon="-2.32404">
        <ele>62.5</ele>
        <time>2025-01-16T13:41:05Z</time>
      </trkpt>
      <trkpt lat="47.56564" lon="-2.32404">
        <ele>62.6</ele>
        <time>2025-01-16T13:41:06Z</time>
      </trkpt>
      <trkpt lat="47.56565" lon="-2.32405">
        <ele>62.7</ele>
        <time>2025-01-16T13:41:07Z</time>
      </trkpt>
      <trkpt lat="47.56566" lon="-2.32406">
        <ele>62.8</ele>
        <time>2025-01-16T13:41:08Z</time>
      </trkpt>
      <trkpt lat="47.56567" lon="-2.32406">
        <ele>62.8</ele>
        <time>2025-01-16T13:41:09Z</time>
      </trkpt>
      <trkpt lat="47.56568" lon="-2.32407">
        <ele>62.9</ele>
        <time>2025-01-16T13:41:10Z</time>
      </trkpt>
      <trkpt lat="47.56569" lon="-2.32408">
        <ele>63</ele>
        <time>2025-01-16T13:41:11Z</time>
      </trkpt>
      <trkpt lat="47.5657" lon="-2.32409">
        <ele>63</ele>
        <time>2025-01-16T13:41:12Z</time>
      </trkpt>
      <trkpt lat="47.56571" lon="-2.32409">
        <ele>63.1</ele>
        <time>2025-01-16T13:41:13Z</time>
      </trkpt>
      <trkpt lat="47.56572" lon="-2.3241">
        <ele>63.2</ele>
        <time>2025-01-16T13:41:14Z</time>
      </trkpt>
      <trkpt lat="47.56573" lon="-2.32411">
        <ele>63.3</ele>
        <time>2025-01-16T13:41:15Z</time>
      </trkpt>
      <trkpt lat="47.56574" lon="-2.32411">
        <ele>63.3</ele>
        <time>2025-01-16T13:41:16Z</time>
      </trkpt>
      <trkpt lat="47.56576" lon="-2.32412">
        <ele>63.5</ele>
        <time>2025-01-16T13:41:17Z</time>
      </trkpt>
      <trkpt lat="47.56577" lon="-2.32412">
        <ele>63.5</ele>
        <time>2025-01-16T13:41:18Z</time>
      </trkpt>
      <trkpt lat="47.56578" lon="-2.32412">
        <ele>63.6</ele>
        <time>2025-01-16T13:41:19Z</time>
      </trkpt>
      <trkpt lat="47.56579" lon="-2.32412">
        <ele>63.7</ele>
        <time>2025-01-16T13:41:20Z</time>
      </trkpt>
      <trkpt lat="47.5658" lon="-2.32413">
        <ele>63.8</ele>
        <time>2025-01-16T13:41:21Z</time>
      </trkpt>
      <trkpt lat="47.56581" lon="-2.32414">
        <ele>63.8</ele>
        <time>2025-01-16T13:41:22Z</time>
      </trkpt>
      <trkpt lat="47.56582" lon="-2.32415">
        <ele>63.9</ele>
        <time>2025-01-16T13:41:23Z</time>
      </trkpt>
      <trkpt lat="47.56582" lon="-2.32415">
        <ele>63.9</ele>
        <time>2025-01-16T13:41:24Z</time>
      </trkpt>
      <trkpt lat="47.56584" lon="-2.32415">
        <ele>64</ele>
        <time>2025-01-16T13:41:25Z</time>
      </trkpt>
      <trkpt lat="47.56585" lon="-2.32415">
        <ele>64.1</ele>
        <time>2025-01-16T13:41:26Z</time>
      </trkpt>
      <trkpt lat="47.56586" lon="-2.32416">
        <ele>64.2</ele>
        <time>2025-01-16T13:41:27Z</time>
      </trkpt>
      <trkpt lat="47.56587" lon="-2.32416">
        <ele>64.3</ele>
        <time>2025-01-16T13:41:28Z</time>
      </trkpt>
      <trkpt lat="47.56588" lon="-2.32417">
        <ele>64.3</ele>
        <time>2025-01-16T13:41:29Z</time>
      </trkpt>
      <trkpt lat="47.56589" lon="-2.32417">
        <ele>64.4</ele>
        <time>2025-01-16T13:41:30Z</time>
      </trkpt>
      <trkpt lat="47.5659" lon="-2.32417">
        <ele>64.5</ele>
        <time>2025-01-16T13:41:31Z</time>
      </trkpt>
      <trkpt lat="47.56592" lon="-2.32417">
        <ele>64.6</ele>
        <time>2025-01-16T13:41:32Z</time>
      </trkpt>
      <trkpt lat="47.56593" lon="-2.32417">
        <ele>64.7</ele>
        <time>2025-01-16T13:41:33Z</time>
      </trkpt>
      <trkpt lat="47.56594" lon="-2.32417">
        <ele>64.8</ele>
        <time>2025-01-16T13:41:34Z</time>
      </trkpt>
      <trkpt lat="47.56595" lon="-2.32417">
        <ele>64.8</ele>
        <time>2025-01-16T13:41:35Z</time>
      </trkpt>
      <trkpt lat="47.56596" lon="-2.32417">
        <ele>64.9</ele>
        <time>2025-01-16T13:41:36Z</time>
      </trkpt>
      <trkpt lat="47.56597" lon="-2.32417">
        <ele>65</ele>
        <time>2025-01-16T13:41:37Z</time>
      </trkpt>
      <trkpt lat="47.56598" lon="-2.32417">
        <ele>65.1</ele>
        <time>2025-01-16T13:41:38Z</time>
      </trkpt>
      <trkpt lat="47.56599" lon="-2.32417">
        <ele>65.1</ele>
        <time>2025-01-16T13:41:39Z</time>
      </trkpt>
      <trkpt lat="47.566" lon="-2.32417">
        <ele>65.2</ele>
        <time>2025-01-16T13:41:40Z</time>
      </trkpt>
      <trkpt lat="47.56602" lon="-2.32417">
        <ele>65.3</ele>
        <time>2025-01-16T13:41:41Z</time>
      </trkpt>
      <trkpt lat="47.56602" lon="-2.32417">
        <ele>65.3</ele>
        <time>2025-01-16T13:41:42Z</time>
      </trkpt>
      <trkpt lat="47.56603" lon="-2.32417">
        <ele>65.4</ele>
        <time>2025-01-16T13:41:43Z</time>
      </trkpt>
      <trkpt lat="47.56604" lon="-2.32417">
        <ele>65.5</ele>
        <time>2025-01-16T13:41:44Z</time>
      </trkpt>
      <trkpt lat="47.56606" lon="-2.32416">
        <ele>65.6</ele>
        <time>2025-01-16T13:41:45Z</time>
      </trkpt>
      <trkpt lat="47.56607" lon="-2.32416">
        <ele>65.7</ele>
        <time>2025-01-16T13:41:46Z</time>
      </trkpt>
      <trkpt lat="47.56608" lon="-2.32416">
        <ele>65.8</ele>
        <time>2025-01-16T13:41:47Z</time>
      </trkpt>
      <trkpt lat="47.5661" lon="-2.32416">
        <ele>65.9</ele>
        <time>2025-01-16T13:41:48Z</time>
      </trkpt>
      <trkpt lat="47.56611" lon="-2.32416">
        <ele>66</ele>
        <time>2025-01-16T13:41:49Z</time>
      </trkpt>
      <trkpt lat="47.56612" lon="-2.32416">
        <ele>66</ele>
        <time>2025-01-16T13:41:50Z</time>
      </trkpt>
      <trkpt lat="47.56613" lon="-2.32416">
        <ele>66.1</ele>
        <time>2025-01-16T13:41:51Z</time>
      </trkpt>
      <trkpt lat="47.56614" lon="-2.32416">
        <ele>66.1</ele>
        <time>2025-01-16T13:41:52Z</time>
      </trkpt>
      <trkpt lat="47.56615" lon="-2.32416">
        <ele>66.1</ele>
        <time>2025-01-16T13:41:53Z</time>
      </trkpt>
      <trkpt lat="47.56616" lon="-2.32416">
        <ele>66.2</ele>
        <time>2025-01-16T13:41:54Z</time>
      </trkpt>
      <trkpt lat="47.56617" lon="-2.32416">
        <ele>66.2</ele>
        <time>2025-01-16T13:41:55Z</time>
      </trkpt>
      <trkpt lat="47.56618" lon="-2.32416">
        <ele>66.2</ele>
        <time>2025-01-16T13:41:56Z</time>
      </trkpt>
      <trkpt lat="47.5662" lon="-2.32416">
        <ele>66.3</ele>
        <time>2025-01-16T13:41:57Z</time>
      </trkpt>
      <trkpt lat="47.5662" lon="-2.32417">
        <ele>66.3</ele>
        <time>2025-01-16T13:41:58Z</time>
      </trkpt>
      <trkpt lat="47.56622" lon="-2.32417">
        <ele>66.4</ele>
        <time>2025-01-16T13:41:59Z</time>
      </trkpt>
      <trkpt lat="47.56623" lon="-2.32417">
        <ele>66.4</ele>
        <time>2025-01-16T13:42:00Z</time>
      </trkpt>
      <trkpt lat="47.56624" lon="-2.32417">
        <ele>66.5</ele>
        <time>2025-01-16T13:42:01Z</time>
      </trkpt>
      <trkpt lat="47.56625" lon="-2.32418">
        <ele>66.5</ele>
        <time>2025-01-16T13:42:02Z</time>
      </trkpt>
      <trkpt lat="47.56626" lon="-2.32418">
        <ele>66.5</ele>
        <time>2025-01-16T13:42:03Z</time>
      </trkpt>
      <trkpt lat="47.56627" lon="-2.32418">
        <ele>66.6</ele>
        <time>2025-01-16T13:42:04Z</time>
      </trkpt>
      <trkpt lat="47.56628" lon="-2.32418">
        <ele>66.6</ele>
        <time>2025-01-16T13:42:05Z</time>
      </trkpt>
      <trkpt lat="47.5663" lon="-2.32419">
        <ele>66.7</ele>
        <time>2025-01-16T13:42:06Z</time>
      </trkpt>
      <trkpt lat="47.56631" lon="-2.32419">
        <ele>66.7</ele>
        <time>2025-01-16T13:42:07Z</time>
      </trkpt>
      <trkpt lat="47.56633" lon="-2.3242">
        <ele>66.8</ele>
        <time>2025-01-16T13:42:08Z</time>
      </trkpt>
      <trkpt lat="47.56634" lon="-2.3242">
        <ele>66.8</ele>
        <time>2025-01-16T13:42:09Z</time>
      </trkpt>
      <trkpt lat="47.56635" lon="-2.3242">
        <ele>66.9</ele>
        <time>2025-01-16T13:42:10Z</time>
      </trkpt>
      <trkpt lat="47.56636" lon="-2.3242">
        <ele>66.9</ele>
        <time>2025-01-16T13:42:11Z</time>
      </trkpt>
      <trkpt lat="47.56638" lon="-2.3242">
        <ele>67</ele>
        <time>2025-01-16T13:42:12Z</time>
      </trkpt>
      <trkpt lat="47.56639" lon="-2.3242">
        <ele>67</ele>
        <time>2025-01-16T13:42:13Z</time>
      </trkpt>
      <trkpt lat="47.5664" lon="-2.3242">
        <ele>67</ele>
        <time>2025-01-16T13:42:14Z</time>
      </trkpt>
      <trkpt lat="47.56641" lon="-2.3242">
        <ele>67.1</ele>
        <time>2025-01-16T13:42:15Z</time>
      </trkpt>
      <trkpt lat="47.56642" lon="-2.3242">
        <ele>67.1</ele>
        <time>2025-01-16T13:42:16Z</time>
      </trkpt>
      <trkpt lat="47.56643" lon="-2.3242">
        <ele>67.1</ele>
        <time>2025-01-16T13:42:17Z</time>
      </trkpt>
      <trkpt lat="47.56644" lon="-2.3242">
        <ele>67.2</ele>
        <time>2025-01-16T13:42:18Z</time>
      </trkpt>
      <trkpt lat="47.56645" lon="-2.32421">
        <ele>67.2</ele>
        <time>2025-01-16T13:42:19Z</time>
      </trkpt>
      <trkpt lat="47.56646" lon="-2.32421">
        <ele>67.3</ele>
        <time>2025-01-16T13:42:20Z</time>
      </trkpt>
      <trkpt lat="47.56648" lon="-2.32421">
        <ele>67.3</ele>
        <time>2025-01-16T13:42:21Z</time>
      </trkpt>
      <trkpt lat="47.56649" lon="-2.32422">
        <ele>67.4</ele>
        <time>2025-01-16T13:42:22Z</time>
      </trkpt>
      <trkpt lat="47.5665" lon="-2.32422">
        <ele>67.4</ele>
        <time>2025-01-16T13:42:23Z</time>
      </trkpt>
      <trkpt lat="47.56652" lon="-2.32422">
        <ele>67.5</ele>
        <time>2025-01-16T13:42:24Z</time>
      </trkpt>
      <trkpt lat="47.56653" lon="-2.32422">
        <ele>67.5</ele>
        <time>2025-01-16T13:42:25Z</time>
      </trkpt>
      <trkpt lat="47.56654" lon="-2.32423">
        <ele>67.5</ele>
        <time>2025-01-16T13:42:26Z</time>
      </trkpt>
      <trkpt lat="47.56655" lon="-2.32423">
        <ele>67.6</ele>
        <time>2025-01-16T13:42:27Z</time>
      </trkpt>
      <trkpt lat="47.56656" lon="-2.32424">
        <ele>67.6</ele>
        <time>2025-01-16T13:42:28Z</time>
      </trkpt>
      <trkpt lat="47.56657" lon="-2.32424">
        <ele>67.7</ele>
        <time>2025-01-16T13:42:29Z</time>
      </trkpt>
      <trkpt lat="47.56658" lon="-2.32424">
        <ele>67.7</ele>
        <time>2025-01-16T13:42:30Z</time>
      </trkpt>
      <trkpt lat="47.56659" lon="-2.32424">
        <ele>67.7</ele>
        <time>2025-01-16T13:42:31Z</time>
      </trkpt>
      <trkpt lat="47.56661" lon="-2.32425">
        <ele>67.8</ele>
        <time>2025-01-16T13:42:32Z</time>
      </trkpt>
      <trkpt lat="47.56662" lon="-2.32425">
        <ele>67.8</ele>
        <time>2025-01-16T13:42:33Z</time>
      </trkpt>
      <trkpt lat="47.56663" lon="-2.32425">
        <ele>67.9</ele>
        <time>2025-01-16T13:42:34Z</time>
      </trkpt>
      <trkpt lat="47.56665" lon="-2.32425">
        <ele>67.9</ele>
        <time>2025-01-16T13:42:35Z</time>
      </trkpt>
      <trkpt lat="47.56666" lon="-2.32425">
        <ele>68</ele>
        <time>2025-01-16T13:42:36Z</time>
      </trkpt>
      <trkpt lat="47.56667" lon="-2.32425">
        <ele>68</ele>
        <time>2025-01-16T13:42:37Z</time>
      </trkpt>
      <trkpt lat="47.56668" lon="-2.32425">
        <ele>68</ele>
        <time>2025-01-16T13:42:38Z</time>
      </trkpt>
      <trkpt lat="47.56669" lon="-2.32425">
        <ele>68</ele>
        <time>2025-01-16T13:42:39Z</time>
      </trkpt>
      <trkpt lat="47.56671" lon="-2.32425">
        <ele>68</ele>
        <time>2025-01-16T13:42:40Z</time>
      </trkpt>
      <trkpt lat="47.56672" lon="-2.32424">
        <ele>68.1</ele>
        <time>2025-01-16T13:42:41Z</time>
      </trkpt>
      <trkpt lat="47.56673" lon="-2.32424">
        <ele>68.1</ele>
        <time>2025-01-16T13:42:42Z</time>
      </trkpt>
      <trkpt lat="47.56675" lon="-2.32425">
        <ele>68.1</ele>
        <time>2025-01-16T13:42:43Z</time>
      </trkpt>
      <trkpt lat="47.56676" lon="-2.32425">
        <ele>68.1</ele>
        <time>2025-01-16T13:42:44Z</time>
      </trkpt>
      <trkpt lat="47.56677" lon="-2.32425">
        <ele>68.1</ele>
        <time>2025-01-16T13:42:45Z</time>
      </trkpt>
      <trkpt lat="47.56678" lon="-2.32425">
        <ele>68.1</ele>
        <time>2025-01-16T13:42:46Z</time>
      </trkpt>
      <trkpt lat="47.56679" lon="-2.32425">
        <ele>68.1</ele>
        <time>2025-01-16T13:42:47Z</time>
      </trkpt>
      <trkpt lat="47.5668" lon="-2.32425">
        <ele>68.1</ele>
        <time>2025-01-16T13:42:48Z</time>
      </trkpt>
      <trkpt lat="47.56682" lon="-2.32425">
        <ele>68.2</ele>
        <time>2025-01-16T13:42:49Z</time>
      </trkpt>
      <trkpt lat="47.56683" lon="-2.32426">
        <ele>68.2</ele>
        <time>2025-01-16T13:42:50Z</time>
      </trkpt>
      <trkpt lat="47.56685" lon="-2.32426">
        <ele>68.2</ele>
        <time>2025-01-16T13:42:51Z</time>
      </trkpt>
      <trkpt lat="47.56686" lon="-2.32426">
        <ele>68.2</ele>
        <time>2025-01-16T13:42:52Z</time>
      </trkpt>
      <trkpt lat="47.56687" lon="-2.32426">
        <ele>68.2</ele>
        <time>2025-01-16T13:42:53Z</time>
      </trkpt>
      <trkpt lat="47.56688" lon="-2.32426">
        <ele>68.3</ele>
        <time>2025-01-16T13:42:54Z</time>
      </trkpt>
      <trkpt lat="47.56689" lon="-2.32427">
        <ele>68.3</ele>
        <time>2025-01-16T13:42:55Z</time>
      </trkpt>
      <trkpt lat="47.5669" lon="-2.32427">
        <ele>68.3</ele>
        <time>2025-01-16T13:42:56Z</time>
      </trkpt>
      <trkpt lat="47.56692" lon="-2.32428">
        <ele>68.4</ele>
        <time>2025-01-16T13:42:57Z</time>
      </trkpt>
      <trkpt lat="47.56693" lon="-2.32429">
        <ele>68.4</ele>
        <time>2025-01-16T13:42:58Z</time>
      </trkpt>
      <trkpt lat="47.56694" lon="-2.32429">
        <ele>68.4</ele>
        <time>2025-01-16T13:42:59Z</time>
      </trkpt>
      <trkpt lat="47.56695" lon="-2.3243">
        <ele>68.5</ele>
        <time>2025-01-16T13:43:00Z</time>
      </trkpt>
      <trkpt lat="47.56696" lon="-2.32431">
        <ele>68.5</ele>
        <time>2025-01-16T13:43:01Z</time>
      </trkpt>
      <trkpt lat="47.56697" lon="-2.32432">
        <ele>68.6</ele>
        <time>2025-01-16T13:43:02Z</time>
      </trkpt>
      <trkpt lat="47.56698" lon="-2.32433">
        <ele>68.6</ele>
        <time>2025-01-16T13:43:03Z</time>
      </trkpt>
      <trkpt lat="47.567" lon="-2.32433">
        <ele>68.7</ele>
        <time>2025-01-16T13:43:04Z</time>
      </trkpt>
      <trkpt lat="47.56701" lon="-2.32434">
        <ele>68.7</ele>
        <time>2025-01-16T13:43:05Z</time>
      </trkpt>
      <trkpt lat="47.56702" lon="-2.32435">
        <ele>68.8</ele>
        <time>2025-01-16T13:43:06Z</time>
      </trkpt>
      <trkpt lat="47.56703" lon="-2.32436">
        <ele>68.8</ele>
        <time>2025-01-16T13:43:07Z</time>
      </trkpt>
      <trkpt lat="47.56704" lon="-2.32437">
        <ele>68.8</ele>
        <time>2025-01-16T13:43:08Z</time>
      </trkpt>
      <trkpt lat="47.56704" lon="-2.32438">
        <ele>68.8</ele>
        <time>2025-01-16T13:43:09Z</time>
      </trkpt>
      <trkpt lat="47.56705" lon="-2.32439">
        <ele>68.9</ele>
        <time>2025-01-16T13:43:10Z</time>
      </trkpt>
      <trkpt lat="47.56705" lon="-2.3244">
        <ele>68.9</ele>
        <time>2025-01-16T13:43:11Z</time>
      </trkpt>
      <trkpt lat="47.56706" lon="-2.32441">
        <ele>68.9</ele>
        <time>2025-01-16T13:43:12Z</time>
      </trkpt>
      <trkpt lat="47.56707" lon="-2.32442">
        <ele>69</ele>
        <time>2025-01-16T13:43:13Z</time>
      </trkpt>
      <trkpt lat="47.56708" lon="-2.32443">
        <ele>69</ele>
        <time>2025-01-16T13:43:14Z</time>
      </trkpt>
      <trkpt lat="47.56709" lon="-2.32443">
        <ele>69</ele>
        <time>2025-01-16T13:43:15Z</time>
      </trkpt>
      <trkpt lat="47.56709" lon="-2.32444">
        <ele>69</ele>
        <time>2025-01-16T13:43:16Z</time>
      </trkpt>
      <trkpt lat="47.56709" lon="-2.32445">
        <ele>69</ele>
        <time>2025-01-16T13:43:17Z</time>
      </trkpt>
      <trkpt lat="47.5671" lon="-2.32447">
        <ele>69</ele>
        <time>2025-01-16T13:43:18Z</time>
      </trkpt>
      <trkpt lat="47.56712" lon="-2.32448">
        <ele>69</ele>
        <time>2025-01-16T13:43:19Z</time>
      </trkpt>
      <trkpt lat="47.56713" lon="-2.32449">
        <ele>69</ele>
        <time>2025-01-16T13:43:20Z</time>
      </trkpt>
      <trkpt lat="47.56714" lon="-2.3245">
        <ele>69</ele>
        <time>2025-01-16T13:43:21Z</time>
      </trkpt>
      <trkpt lat="47.56715" lon="-2.32451">
        <ele>69</ele>
        <time>2025-01-16T13:43:22Z</time>
      </trkpt>
      <trkpt lat="47.56716" lon="-2.32452">
        <ele>69</ele>
        <time>2025-01-16T13:43:23Z</time>
      </trkpt>
      <trkpt lat="47.56717" lon="-2.32453">
        <ele>69</ele>
        <time>2025-01-16T13:43:24Z</time>
      </trkpt>
      <trkpt lat="47.56718" lon="-2.32454">
        <ele>69</ele>
        <time>2025-01-16T13:43:25Z</time>
      </trkpt>
      <trkpt lat="47.56719" lon="-2.32455">
        <ele>69</ele>
        <time>2025-01-16T13:43:26Z</time>
      </trkpt>
      <trkpt lat="47.5672" lon="-2.32456">
        <ele>69</ele>
        <time>2025-01-16T13:43:27Z</time>
      </trkpt>
      <trkpt lat="47.56721" lon="-2.32457">
        <ele>69</ele>
        <time>2025-01-16T13:43:28Z</time>
      </trkpt>
      <trkpt lat="47.56722" lon="-2.32458">
        <ele>69</ele>
        <time>2025-01-16T13:43:29Z</time>
      </trkpt>
      <trkpt lat="47.56724" lon="-2.3246">
        <ele>69.1</ele>
        <time>2025-01-16T13:43:30Z</time>
      </trkpt>
      <trkpt lat="47.56725" lon="-2.32461">
        <ele>69.1</ele>
        <time>2025-01-16T13:43:31Z</time>
      </trkpt>
      <trkpt lat="47.56726" lon="-2.32462">
        <ele>69.1</ele>
        <time>2025-01-16T13:43:32Z</time>
      </trkpt>
      <trkpt lat="47.56727" lon="-2.32463">
        <ele>69.2</ele>
        <time>2025-01-16T13:43:33Z</time>
      </trkpt>
      <trkpt lat="47.56728" lon="-2.32464">
        <ele>69.2</ele>
        <time>2025-01-16T13:43:34Z</time>
      </trkpt>
      <trkpt lat="47.56729" lon="-2.32465">
        <ele>69.2</ele>
        <time>2025-01-16T13:43:35Z</time>
      </trkpt>
      <trkpt lat="47.56731" lon="-2.32466">
        <ele>69.3</ele>
        <time>2025-01-16T13:43:36Z</time>
      </trkpt>
      <trkpt lat="47.56732" lon="-2.32467">
        <ele>69.4</ele>
        <time>2025-01-16T13:43:37Z</time>
      </trkpt>
      <trkpt lat="47.56733" lon="-2.32468">
        <ele>69.4</ele>
        <time>2025-01-16T13:43:38Z</time>
      </trkpt>
      <trkpt lat="47.56734" lon="-2.32468">
        <ele>69.4</ele>
        <time>2025-01-16T13:43:39Z</time>
      </trkpt>
      <trkpt lat="47.56736" lon="-2.32469">
        <ele>69.5</ele>
        <time>2025-01-16T13:43:40Z</time>
      </trkpt>
      <trkpt lat="47.56736" lon="-2.3247">
        <ele>69.5</ele>
        <time>2025-01-16T13:43:41Z</time>
      </trkpt>
      <trkpt lat="47.56737" lon="-2.3247">
        <ele>69.5</ele>
        <time>2025-01-16T13:43:42Z</time>
      </trkpt>
      <trkpt lat="47.56739" lon="-2.32471">
        <ele>69.6</ele>
        <time>2025-01-16T13:43:43Z</time>
      </trkpt>
      <trkpt lat="47.5674" lon="-2.32471">
        <ele>69.6</ele>
        <time>2025-01-16T13:43:44Z</time>
      </trkpt>
      <trkpt lat="47.56741" lon="-2.32471">
        <ele>69.7</ele>
        <time>2025-01-16T13:43:45Z</time>
      </trkpt>
      <trkpt lat="47.56742" lon="-2.32471">
        <ele>69.7</ele>
        <time>2025-01-16T13:43:46Z</time>
      </trkpt>
      <trkpt lat="47.56743" lon="-2.32471">
        <ele>69.7</ele>
        <time>2025-01-16T13:43:47Z</time>
      </trkpt>
      <trkpt lat="47.56744" lon="-2.32471">
        <ele>69.8</ele>
        <time>2025-01-16T13:43:48Z</time>
      </trkpt>
      <trkpt lat="47.56745" lon="-2.32472">
        <ele>69.8</ele>
        <time>2025-01-16T13:43:49Z</time>
      </trkpt>
      <trkpt lat="47.56747" lon="-2.32472">
        <ele>69.9</ele>
        <time>2025-01-16T13:43:50Z</time>
      </trkpt>
      <trkpt lat="47.56748" lon="-2.32473">
        <ele>69.9</ele>
        <time>2025-01-16T13:43:51Z</time>
      </trkpt>
      <trkpt lat="47.56749" lon="-2.32474">
        <ele>70</ele>
        <time>2025-01-16T13:43:52Z</time>
      </trkpt>
      <trkpt lat="47.56749" lon="-2.32475">
        <ele>70</ele>
        <time>2025-01-16T13:43:53Z</time>
      </trkpt>
      <trkpt lat="47.5675" lon="-2.32475">
        <ele>70</ele>
        <time>2025-01-16T13:43:54Z</time>
      </trkpt>
      <trkpt lat="47.5675" lon="-2.32476">
        <ele>70</ele>
        <time>2025-01-16T13:43:55Z</time>
      </trkpt>
      <trkpt lat="47.56751" lon="-2.32477">
        <ele>70</ele>
        <time>2025-01-16T13:43:56Z</time>
      </trkpt>
      <trkpt lat="47.56751" lon="-2.32478">
        <ele>70</ele>
        <time>2025-01-16T13:43:57Z</time>
      </trkpt>
      <trkpt lat="47.56752" lon="-2.32479">
        <ele>70</ele>
        <time>2025-01-16T13:43:58Z</time>
      </trkpt>
      <trkpt lat="47.56754" lon="-2.32479">
        <ele>70</ele>
        <time>2025-01-16T13:43:59Z</time>
      </trkpt>
      <trkpt lat="47.56755" lon="-2.32479">
        <ele>70</ele>
        <time>2025-01-16T13:44:00Z</time>
      </trkpt>
      <trkpt lat="47.56756" lon="-2.3248">
        <ele>70</ele>
        <time>2025-01-16T13:44:01Z</time>
      </trkpt>
      <trkpt lat="47.56758" lon="-2.3248">
        <ele>70</ele>
        <time>2025-01-16T13:44:02Z</time>
      </trkpt>
      <trkpt lat="47.56759" lon="-2.32481">
        <ele>70</ele>
        <time>2025-01-16T13:44:03Z</time>
      </trkpt>
      <trkpt lat="47.5676" lon="-2.32482">
        <ele>70</ele>
        <time>2025-01-16T13:44:04Z</time>
      </trkpt>
      <trkpt lat="47.56761" lon="-2.32483">
        <ele>70</ele>
        <time>2025-01-16T13:44:05Z</time>
      </trkpt>
      <trkpt lat="47.56761" lon="-2.32484">
        <ele>70</ele>
        <time>2025-01-16T13:44:06Z</time>
      </trkpt>
      <trkpt lat="47.56762" lon="-2.32485">
        <ele>70</ele>
        <time>2025-01-16T13:44:07Z</time>
      </trkpt>
      <trkpt lat="47.56763" lon="-2.32485">
        <ele>70</ele>
        <time>2025-01-16T13:44:08Z</time>
      </trkpt>
      <trkpt lat="47.56764" lon="-2.32486">
        <ele>70</ele>
        <time>2025-01-16T13:44:09Z</time>
      </trkpt>
      <trkpt lat="47.56764" lon="-2.32486">
        <ele>70</ele>
        <time>2025-01-16T13:44:10Z</time>
      </trkpt>
      <trkpt lat="47.56765" lon="-2.32486">
        <ele>70</ele>
        <time>2025-01-16T13:44:11Z</time>
      </trkpt>
      <trkpt lat="47.56766" lon="-2.32487">
        <ele>70</ele>
        <time>2025-01-16T13:44:12Z</time>
      </trkpt>
      <trkpt lat="47.56767" lon="-2.32488">
        <ele>70</ele>
        <time>2025-01-16T13:44:13Z</time>
      </trkpt>
      <trkpt lat="47.56768" lon="-2.32489">
        <ele>70</ele>
        <time>2025-01-16T13:44:14Z</time>
      </trkpt>
      <trkpt lat="47.56769" lon="-2.3249">
        <ele>70</ele>
        <time>2025-01-16T13:44:15Z</time>
      </trkpt>
      <trkpt lat="47.5677" lon="-2.32491">
        <ele>70</ele>
        <time>2025-01-16T13:44:16Z</time>
      </trkpt>
      <trkpt lat="47.56771" lon="-2.32492">
        <ele>70</ele>
        <time>2025-01-16T13:44:17Z</time>
      </trkpt>
      <trkpt lat="47.56772" lon="-2.32493">
        <ele>70</ele>
        <time>2025-01-16T13:44:18Z</time>
      </trkpt>
      <trkpt lat="47.56774" lon="-2.32494">
        <ele>70</ele>
        <time>2025-01-16T13:44:19Z</time>
      </trkpt>
      <trkpt lat="47.56775" lon="-2.32495">
        <ele>70</ele>
        <time>2025-01-16T13:44:20Z</time>
      </trkpt>
      <trkpt lat="47.56776" lon="-2.32496">
        <ele>70</ele>
        <time>2025-01-16T13:44:21Z</time>
      </trkpt>
      <trkpt lat="47.56777" lon="-2.32497">
        <ele>70</ele>
        <time>2025-01-16T13:44:22Z</time>
      </trkpt>
      <trkpt lat="47.56779" lon="-2.32497">
        <ele>70</ele>
        <time>2025-01-16T13:44:23Z</time>
      </trkpt>
      <trkpt lat="47.5678" lon="-2.32499">
        <ele>70</ele>
        <time>2025-01-16T13:44:24Z</time>
      </trkpt>
      <trkpt lat="47.56781" lon="-2.32499">
        <ele>70</ele>
        <time>2025-01-16T13:44:25Z</time>
      </trkpt>
      <trkpt lat="47.56782" lon="-2.325">
        <ele>70</ele>
        <time>2025-01-16T13:44:26Z</time>
      </trkpt>
      <trkpt lat="47.56784" lon="-2.325">
        <ele>70</ele>
        <time>2025-01-16T13:44:27Z</time>
      </trkpt>
      <trkpt lat="47.56785" lon="-2.325">
        <ele>70</ele>
        <time>2025-01-16T13:44:28Z</time>
      </trkpt>
      <trkpt lat="47.56786" lon="-2.325">
        <ele>70</ele>
        <time>2025-01-16T13:44:29Z</time>
      </trkpt>
      <trkpt lat="47.56786" lon="-2.325">
        <ele>70</ele>
        <time>2025-01-16T13:44:30Z</time>
      </trkpt>
      <trkpt lat="47.56787" lon="-2.32501">
        <ele>70</ele>
        <time>2025-01-16T13:44:31Z</time>
      </trkpt>
      <trkpt lat="47.56788" lon="-2.32501">
        <ele>70</ele>
        <time>2025-01-16T13:44:32Z</time>
      </trkpt>
      <trkpt lat="47.56789" lon="-2.32501">
        <ele>70</ele>
        <time>2025-01-16T13:44:33Z</time>
      </trkpt>
      <trkpt lat="47.5679" lon="-2.32502">
        <ele>70</ele>
        <time>2025-01-16T13:44:34Z</time>
      </trkpt>
      <trkpt lat="47.56791" lon="-2.32503">
        <ele>70</ele>
        <time>2025-01-16T13:44:35Z</time>
      </trkpt>
      <trkpt lat="47.56792" lon="-2.32505">
        <ele>70</ele>
        <time>2025-01-16T13:44:36Z</time>
      </trkpt>
      <trkpt lat="47.56793" lon="-2.32506">
        <ele>70</ele>
        <time>2025-01-16T13:44:37Z</time>
      </trkpt>
      <trkpt lat="47.56794" lon="-2.32507">
        <ele>70</ele>
        <time>2025-01-16T13:44:38Z</time>
      </trkpt>
      <trkpt lat="47.56795" lon="-2.32507">
        <ele>70</ele>
        <time>2025-01-16T13:44:39Z</time>
      </trkpt>
      <trkpt lat="47.56796" lon="-2.32508">
        <ele>70</ele>
        <time>2025-01-16T13:44:40Z</time>
      </trkpt>
      <trkpt lat="47.56797" lon="-2.32509">
        <ele>70</ele>
        <time>2025-01-16T13:44:41Z</time>
      </trkpt>
      <trkpt lat="47.56798" lon="-2.3251">
        <ele>70</ele>
        <time>2025-01-16T13:44:42Z</time>
      </trkpt>
      <trkpt lat="47.56799" lon="-2.32511">
        <ele>70</ele>
        <time>2025-01-16T13:44:43Z</time>
      </trkpt>
      <trkpt lat="47.568" lon="-2.32512">
        <ele>70</ele>
        <time>2025-01-16T13:44:44Z</time>
      </trkpt>
      <trkpt lat="47.56801" lon="-2.32514">
        <ele>70</ele>
        <time>2025-01-16T13:44:45Z</time>
      </trkpt>
      <trkpt lat="47.56802" lon="-2.32515">
        <ele>70</ele>
        <time>2025-01-16T13:44:46Z</time>
      </trkpt>
      <trkpt lat="47.56804" lon="-2.32517">
        <ele>70</ele>
        <time>2025-01-16T13:44:47Z</time>
      </trkpt>
      <trkpt lat="47.56805" lon="-2.32519">
        <ele>70</ele>
        <time>2025-01-16T13:44:48Z</time>
      </trkpt>
      <trkpt lat="47.56806" lon="-2.3252">
        <ele>70</ele>
        <time>2025-01-16T13:44:49Z</time>
      </trkpt>
      <trkpt lat="47.56807" lon="-2.32522">
        <ele>70</ele>
        <time>2025-01-16T13:44:50Z</time>
      </trkpt>
      <trkpt lat="47.56808" lon="-2.32523">
        <ele>70</ele>
        <time>2025-01-16T13:44:51Z</time>
      </trkpt>
      <trkpt lat="47.5681" lon="-2.32524">
        <ele>70</ele>
        <time>2025-01-16T13:44:52Z</time>
      </trkpt>
      <trkpt lat="47.56811" lon="-2.32525">
        <ele>70</ele>
        <time>2025-01-16T13:44:53Z</time>
      </trkpt>
      <trkpt lat="47.56813" lon="-2.32526">
        <ele>70</ele>
        <time>2025-01-16T13:44:54Z</time>
      </trkpt>
      <trkpt lat="47.56814" lon="-2.32526">
        <ele>70</ele>
        <time>2025-01-16T13:44:55Z</time>
      </trkpt>
      <trkpt lat="47.56814" lon="-2.32527">
        <ele>70</ele>
        <time>2025-01-16T13:44:56Z</time>
      </trkpt>
      <trkpt lat="47.56815" lon="-2.32528">
        <ele>70</ele>
        <time>2025-01-16T13:44:57Z</time>
      </trkpt>
      <trkpt lat="47.56816" lon="-2.32529">
        <ele>70</ele>
        <time>2025-01-16T13:44:58Z</time>
      </trkpt>
      <trkpt lat="47.56817" lon="-2.32531">
        <ele>70.1</ele>
        <time>2025-01-16T13:44:59Z</time>
      </trkpt>
      <trkpt lat="47.56819" lon="-2.32532">
        <ele>70.1</ele>
        <time>2025-01-16T13:45:00Z</time>
      </trkpt>
      <trkpt lat="47.5682" lon="-2.32533">
        <ele>70.1</ele>
        <time>2025-01-16T13:45:01Z</time>
      </trkpt>
      <trkpt lat="47.56821" lon="-2.32534">
        <ele>70.1</ele>
        <time>2025-01-16T13:45:02Z</time>
      </trkpt>
      <trkpt lat="47.56822" lon="-2.32535">
        <ele>70.1</ele>
        <time>2025-01-16T13:45:03Z</time>
      </trkpt>
      <trkpt lat="47.56822" lon="-2.32537">
        <ele>70.1</ele>
        <time>2025-01-16T13:45:04Z</time>
      </trkpt>
      <trkpt lat="47.56823" lon="-2.32538">
        <ele>70.1</ele>
        <time>2025-01-16T13:45:05Z</time>
      </trkpt>
      <trkpt lat="47.56824" lon="-2.32538">
        <ele>70.1</ele>
        <time>2025-01-16T13:45:06Z</time>
      </trkpt>
      <trkpt lat="47.56824" lon="-2.3254">
        <ele>70.1</ele>
        <time>2025-01-16T13:45:07Z</time>
      </trkpt>
      <trkpt lat="47.56825" lon="-2.3254">
        <ele>70.1</ele>
        <time>2025-01-16T13:45:08Z</time>
      </trkpt>
      <trkpt lat="47.56825" lon="-2.32541">
        <ele>70.1</ele>
        <time>2025-01-16T13:45:09Z</time>
      </trkpt>
      <trkpt lat="47.56826" lon="-2.32542">
        <ele>70.1</ele>
        <time>2025-01-16T13:45:10Z</time>
      </trkpt>
      <trkpt lat="47.56827" lon="-2.32543">
        <ele>70.1</ele>
        <time>2025-01-16T13:45:11Z</time>
      </trkpt>
      <trkpt lat="47.56828" lon="-2.32544">
        <ele>70.1</ele>
        <time>2025-01-16T13:45:12Z</time>
      </trkpt>
      <trkpt lat="47.56829" lon="-2.32545">
        <ele>70.1</ele>
        <time>2025-01-16T13:45:13Z</time>
      </trkpt>
      <trkpt lat="47.56831" lon="-2.32545">
        <ele>70.1</ele>
        <time>2025-01-16T13:45:14Z</time>
      </trkpt>
      <trkpt lat="47.56832" lon="-2.32546">
        <ele>70</ele>
        <time>2025-01-16T13:45:15Z</time>
      </trkpt>
      <trkpt lat="47.56833" lon="-2.32546">
        <ele>70</ele>
        <time>2025-01-16T13:45:16Z</time>
      </trkpt>
      <trkpt lat="47.56834" lon="-2.32547">
        <ele>70</ele>
        <time>2025-01-16T13:45:17Z</time>
      </trkpt>
      <trkpt lat="47.56835" lon="-2.32548">
        <ele>70</ele>
        <time>2025-01-16T13:45:18Z</time>
      </trkpt>
      <trkpt lat="47.56836" lon="-2.32549">
        <ele>70</ele>
        <time>2025-01-16T13:45:19Z</time>
      </trkpt>
      <trkpt lat="47.56837" lon="-2.3255">
        <ele>70</ele>
        <time>2025-01-16T13:45:20Z</time>
      </trkpt>
      <trkpt lat="47.56838" lon="-2.32551">
        <ele>70</ele>
        <time>2025-01-16T13:45:21Z</time>
      </trkpt>
      <trkpt lat="47.56839" lon="-2.32552">
        <ele>70</ele>
        <time>2025-01-16T13:45:22Z</time>
      </trkpt>
      <trkpt lat="47.56839" lon="-2.32553">
        <ele>70</ele>
        <time>2025-01-16T13:45:23Z</time>
      </trkpt>
      <trkpt lat="47.5684" lon="-2.32554">
        <ele>70</ele>
        <time>2025-01-16T13:45:24Z</time>
      </trkpt>
      <trkpt lat="47.56841" lon="-2.32555">
        <ele>70</ele>
        <time>2025-01-16T13:45:25Z</time>
      </trkpt>
      <trkpt lat="47.56842" lon="-2.32556">
        <ele>70</ele>
        <time>2025-01-16T13:45:26Z</time>
      </trkpt>
      <trkpt lat="47.56843" lon="-2.32557">
        <ele>70.1</ele>
        <time>2025-01-16T13:45:27Z</time>
      </trkpt>
      <trkpt lat="47.56844" lon="-2.32558">
        <ele>70.1</ele>
        <time>2025-01-16T13:45:28Z</time>
      </trkpt>
      <trkpt lat="47.56844" lon="-2.32559">
        <ele>70.1</ele>
        <time>2025-01-16T13:45:29Z</time>
      </trkpt>
      <trkpt lat="47.56845" lon="-2.32559">
        <ele>70.1</ele>
        <time>2025-01-16T13:45:30Z</time>
      </trkpt>
      <trkpt lat="47.56846" lon="-2.32561">
        <ele>70.2</ele>
        <time>2025-01-16T13:45:31Z</time>
      </trkpt>
      <trkpt lat="47.56847" lon="-2.32562">
        <ele>70.2</ele>
        <time>2025-01-16T13:45:32Z</time>
      </trkpt>
      <trkpt lat="47.56848" lon="-2.32562">
        <ele>70.2</ele>
        <time>2025-01-16T13:45:33Z</time>
      </trkpt>
      <trkpt lat="47.56849" lon="-2.32563">
        <ele>70.3</ele>
        <time>2025-01-16T13:45:34Z</time>
      </trkpt>
      <trkpt lat="47.5685" lon="-2.32564">
        <ele>70.3</ele>
        <time>2025-01-16T13:45:35Z</time>
      </trkpt>
      <trkpt lat="47.56851" lon="-2.32564">
        <ele>70.3</ele>
        <time>2025-01-16T13:45:36Z</time>
      </trkpt>
      <trkpt lat="47.56853" lon="-2.32564">
        <ele>70.3</ele>
        <time>2025-01-16T13:45:37Z</time>
      </trkpt>
      <trkpt lat="47.56853" lon="-2.32564">
        <ele>70.3</ele>
        <time>2025-01-16T13:45:38Z</time>
      </trkpt>
      <trkpt lat="47.56853" lon="-2.32564">
        <ele>70.3</ele>
        <time>2025-01-16T13:45:39Z</time>
      </trkpt>
      <trkpt lat="47.56853" lon="-2.32564">
        <ele>70.3</ele>
        <time>2025-01-16T13:45:40Z</time>
      </trkpt>
      <trkpt lat="47.56852" lon="-2.32565">
        <ele>70.3</ele>
        <time>2025-01-16T13:45:41Z</time>
      </trkpt>
      <trkpt lat="47.56853" lon="-2.32565">
        <ele>70.3</ele>
        <time>2025-01-16T13:45:42Z</time>
      </trkpt>
      <trkpt lat="47.56854" lon="-2.32564">
        <ele>70.3</ele>
        <time>2025-01-16T13:45:43Z</time>
      </trkpt>
      <trkpt lat="47.56854" lon="-2.32564">
        <ele>70.3</ele>
        <time>2025-01-16T13:45:44Z</time>
      </trkpt>
      <trkpt lat="47.56854" lon="-2.32564">
        <ele>70.3</ele>
        <time>2025-01-16T13:45:45Z</time>
      </trkpt>
      <trkpt lat="47.56854" lon="-2.32564">
        <ele>70.3</ele>
        <time>2025-01-16T13:45:46Z</time>
      </trkpt>
      <trkpt lat="47.56854" lon="-2.32564">
        <ele>70.3</ele>
        <time>2025-01-16T13:45:47Z</time>
      </trkpt>
      <trkpt lat="47.56855" lon="-2.32563">
        <ele>70.3</ele>
        <time>2025-01-16T13:45:51Z</time>
      </trkpt>
      <trkpt lat="47.56855" lon="-2.32563">
        <ele>70.3</ele>
        <time>2025-01-16T13:45:52Z</time>
      </trkpt>
      <trkpt lat="47.56855" lon="-2.32564">
        <ele>70.3</ele>
        <time>2025-01-16T13:45:53Z</time>
      </trkpt>
      <trkpt lat="47.56855" lon="-2.32564">
        <ele>70.3</ele>
        <time>2025-01-16T13:45:54Z</time>
      </trkpt>
      <trkpt lat="47.56854" lon="-2.32564">
        <ele>70.3</ele>
        <time>2025-01-16T13:45:55Z</time>
      </trkpt>
      <trkpt lat="47.56854" lon="-2.32563">
        <ele>70.3</ele>
        <time>2025-01-16T13:45:56Z</time>
      </trkpt>
      <trkpt lat="47.56854" lon="-2.32563">
        <ele>70.3</ele>
        <time>2025-01-16T13:45:57Z</time>
      </trkpt>
      <trkpt lat="47.56854" lon="-2.32563">
        <ele>70.3</ele>
        <time>2025-01-16T13:45:58Z</time>
      </trkpt>
      <trkpt lat="47.56854" lon="-2.32563">
        <ele>70.3</ele>
        <time>2025-01-16T13:45:59Z</time>
      </trkpt>
      <trkpt lat="47.56854" lon="-2.32563">
        <ele>70.3</ele>
        <time>2025-01-16T13:46:00Z</time>
      </trkpt>
      <trkpt lat="47.56855" lon="-2.32563">
        <ele>70.3</ele>
        <time>2025-01-16T13:46:01Z</time>
      </trkpt>
      <trkpt lat="47.56856" lon="-2.32564">
        <ele>70.3</ele>
        <time>2025-01-16T13:46:02Z</time>
      </trkpt>
      <trkpt lat="47.56857" lon="-2.32564">
        <ele>70.3</ele>
        <time>2025-01-16T13:46:03Z</time>
      </trkpt>
      <trkpt lat="47.56858" lon="-2.32565">
        <ele>70.3</ele>
        <time>2025-01-16T13:46:04Z</time>
      </trkpt>
      <trkpt lat="47.56859" lon="-2.32565">
        <ele>70.3</ele>
        <time>2025-01-16T13:46:05Z</time>
      </trkpt>
      <trkpt lat="47.5686" lon="-2.32565">
        <ele>70.3</ele>
        <time>2025-01-16T13:46:06Z</time>
      </trkpt>
      <trkpt lat="47.56861" lon="-2.32565">
        <ele>70.3</ele>
        <time>2025-01-16T13:46:07Z</time>
      </trkpt>
      <trkpt lat="47.56862" lon="-2.32566">
        <ele>70.4</ele>
        <time>2025-01-16T13:46:08Z</time>
      </trkpt>
      <trkpt lat="47.56864" lon="-2.32566">
        <ele>70.4</ele>
        <time>2025-01-16T13:46:09Z</time>
      </trkpt>
      <trkpt lat="47.56865" lon="-2.32566">
        <ele>70.4</ele>
        <time>2025-01-16T13:46:10Z</time>
      </trkpt>
      <trkpt lat="47.56866" lon="-2.32566">
        <ele>70.4</ele>
        <time>2025-01-16T13:46:11Z</time>
      </trkpt>
      <trkpt lat="47.56867" lon="-2.32565">
        <ele>70.3</ele>
        <time>2025-01-16T13:46:12Z</time>
      </trkpt>
      <trkpt lat="47.56868" lon="-2.32566">
        <ele>70.4</ele>
        <time>2025-01-16T13:46:13Z</time>
      </trkpt>
      <trkpt lat="47.56869" lon="-2.32566">
        <ele>70.4</ele>
        <time>2025-01-16T13:46:14Z</time>
      </trkpt>
      <trkpt lat="47.5687" lon="-2.32566">
        <ele>70.4</ele>
        <time>2025-01-16T13:46:15Z</time>
      </trkpt>
      <trkpt lat="47.56871" lon="-2.32566">
        <ele>70.4</ele>
        <time>2025-01-16T13:46:16Z</time>
      </trkpt>
      <trkpt lat="47.56873" lon="-2.32567">
        <ele>70.4</ele>
        <time>2025-01-16T13:46:17Z</time>
      </trkpt>
      <trkpt lat="47.56874" lon="-2.32568">
        <ele>70.4</ele>
        <time>2025-01-16T13:46:18Z</time>
      </trkpt>
      <trkpt lat="47.56875" lon="-2.32568">
        <ele>70.4</ele>
        <time>2025-01-16T13:46:19Z</time>
      </trkpt>
      <trkpt lat="47.56876" lon="-2.32568">
        <ele>70.4</ele>
        <time>2025-01-16T13:46:20Z</time>
      </trkpt>
      <trkpt lat="47.56877" lon="-2.32568">
        <ele>70.4</ele>
        <time>2025-01-16T13:46:21Z</time>
      </trkpt>
      <trkpt lat="47.56878" lon="-2.32568">
        <ele>70.4</ele>
        <time>2025-01-16T13:46:22Z</time>
      </trkpt>
      <trkpt lat="47.5688" lon="-2.32568">
        <ele>70.4</ele>
        <time>2025-01-16T13:46:23Z</time>
      </trkpt>
      <trkpt lat="47.56881" lon="-2.32568">
        <ele>70.4</ele>
        <time>2025-01-16T13:46:24Z</time>
      </trkpt>
      <trkpt lat="47.56883" lon="-2.32568">
        <ele>70.4</ele>
        <time>2025-01-16T13:46:25Z</time>
      </trkpt>
      <trkpt lat="47.56884" lon="-2.32568">
        <ele>70.4</ele>
        <time>2025-01-16T13:46:26Z</time>
      </trkpt>
      <trkpt lat="47.56885" lon="-2.32568">
        <ele>70.4</ele>
        <time>2025-01-16T13:46:27Z</time>
      </trkpt>
      <trkpt lat="47.56887" lon="-2.32568">
        <ele>70.4</ele>
        <time>2025-01-16T13:46:28Z</time>
      </trkpt>
      <trkpt lat="47.56888" lon="-2.32568">
        <ele>70.4</ele>
        <time>2025-01-16T13:46:29Z</time>
      </trkpt>
      <trkpt lat="47.56889" lon="-2.32568">
        <ele>70.4</ele>
        <time>2025-01-16T13:46:30Z</time>
      </trkpt>
      <trkpt lat="47.5689" lon="-2.32568">
        <ele>70.4</ele>
        <time>2025-01-16T13:46:31Z</time>
      </trkpt>
      <trkpt lat="47.56892" lon="-2.32568">
        <ele>70.4</ele>
        <time>2025-01-16T13:46:32Z</time>
      </trkpt>
      <trkpt lat="47.56893" lon="-2.32568">
        <ele>70.4</ele>
        <time>2025-01-16T13:46:33Z</time>
      </trkpt>
      <trkpt lat="47.56894" lon="-2.32568">
        <ele>70.4</ele>
        <time>2025-01-16T13:46:34Z</time>
      </trkpt>
      <trkpt lat="47.56896" lon="-2.32568">
        <ele>70.4</ele>
        <time>2025-01-16T13:46:35Z</time>
      </trkpt>
      <trkpt lat="47.56898" lon="-2.32568">
        <ele>70.4</ele>
        <time>2025-01-16T13:46:36Z</time>
      </trkpt>
      <trkpt lat="47.569" lon="-2.32567">
        <ele>70.4</ele>
        <time>2025-01-16T13:46:37Z</time>
      </trkpt>
      <trkpt lat="47.56901" lon="-2.32567">
        <ele>70.4</ele>
        <time>2025-01-16T13:46:38Z</time>
      </trkpt>
      <trkpt lat="47.56903" lon="-2.32567">
        <ele>70.4</ele>
        <time>2025-01-16T13:46:39Z</time>
      </trkpt>
      <trkpt lat="47.56904" lon="-2.32567">
        <ele>70.4</ele>
        <time>2025-01-16T13:46:40Z</time>
      </trkpt>
      <trkpt lat="47.56905" lon="-2.32567">
        <ele>70.4</ele>
        <time>2025-01-16T13:46:41Z</time>
      </trkpt>
      <trkpt lat="47.56906" lon="-2.32566">
        <ele>70.4</ele>
        <time>2025-01-16T13:46:42Z</time>
      </trkpt>
      <trkpt lat="47.56907" lon="-2.32566">
        <ele>70.4</ele>
        <time>2025-01-16T13:46:43Z</time>
      </trkpt>
      <trkpt lat="47.56908" lon="-2.32566">
        <ele>70.4</ele>
        <time>2025-01-16T13:46:44Z</time>
      </trkpt>
      <trkpt lat="47.56909" lon="-2.32565">
        <ele>70.3</ele>
        <time>2025-01-16T13:46:45Z</time>
      </trkpt>
      <trkpt lat="47.56911" lon="-2.32565">
        <ele>70.3</ele>
        <time>2025-01-16T13:46:46Z</time>
      </trkpt>
      <trkpt lat="47.56911" lon="-2.32565">
        <ele>70.3</ele>
        <time>2025-01-16T13:46:47Z</time>
      </trkpt>
      <trkpt lat="47.56912" lon="-2.32565">
        <ele>70.3</ele>
        <time>2025-01-16T13:46:48Z</time>
      </trkpt>
      <trkpt lat="47.56914" lon="-2.32564">
        <ele>70.3</ele>
        <time>2025-01-16T13:46:49Z</time>
      </trkpt>
      <trkpt lat="47.56915" lon="-2.32564">
        <ele>70.3</ele>
        <time>2025-01-16T13:46:50Z</time>
      </trkpt>
      <trkpt lat="47.56916" lon="-2.32564">
        <ele>70.3</ele>
        <time>2025-01-16T13:46:51Z</time>
      </trkpt>
      <trkpt lat="47.56917" lon="-2.32563">
        <ele>70.3</ele>
        <time>2025-01-16T13:46:52Z</time>
      </trkpt>
      <trkpt lat="47.56919" lon="-2.32563">
        <ele>70.2</ele>
        <time>2025-01-16T13:46:53Z</time>
      </trkpt>
      <trkpt lat="47.5692" lon="-2.32563">
        <ele>70.1</ele>
        <time>2025-01-16T13:46:54Z</time>
      </trkpt>
      <trkpt lat="47.56922" lon="-2.32563">
        <ele>70.1</ele>
        <time>2025-01-16T13:46:55Z</time>
      </trkpt>
      <trkpt lat="47.56923" lon="-2.32562">
        <ele>70</ele>
        <time>2025-01-16T13:46:56Z</time>
      </trkpt>
      <trkpt lat="47.56925" lon="-2.32562">
        <ele>69.9</ele>
        <time>2025-01-16T13:46:57Z</time>
      </trkpt>
      <trkpt lat="47.56927" lon="-2.32562">
        <ele>69.9</ele>
        <time>2025-01-16T13:46:58Z</time>
      </trkpt>
      <trkpt lat="47.56928" lon="-2.32561">
        <ele>69.8</ele>
        <time>2025-01-16T13:46:59Z</time>
      </trkpt>
      <trkpt lat="47.5693" lon="-2.32561">
        <ele>69.7</ele>
        <time>2025-01-16T13:47:00Z</time>
      </trkpt>
      <trkpt lat="47.56931" lon="-2.3256">
        <ele>69.6</ele>
        <time>2025-01-16T13:47:01Z</time>
      </trkpt>
      <trkpt lat="47.56933" lon="-2.3256">
        <ele>69.6</ele>
        <time>2025-01-16T13:47:02Z</time>
      </trkpt>
      <trkpt lat="47.56934" lon="-2.32559">
        <ele>69.5</ele>
        <time>2025-01-16T13:47:03Z</time>
      </trkpt>
      <trkpt lat="47.56936" lon="-2.32559">
        <ele>69.4</ele>
        <time>2025-01-16T13:47:04Z</time>
      </trkpt>
      <trkpt lat="47.56937" lon="-2.32559">
        <ele>69.4</ele>
        <time>2025-01-16T13:47:05Z</time>
      </trkpt>
      <trkpt lat="47.56938" lon="-2.32558">
        <ele>69.3</ele>
        <time>2025-01-16T13:47:06Z</time>
      </trkpt>
      <trkpt lat="47.56939" lon="-2.32558">
        <ele>69.3</ele>
        <time>2025-01-16T13:47:07Z</time>
      </trkpt>
      <trkpt lat="47.5694" lon="-2.32557">
        <ele>69.2</ele>
        <time>2025-01-16T13:47:08Z</time>
      </trkpt>
      <trkpt lat="47.56941" lon="-2.32557">
        <ele>69.2</ele>
        <time>2025-01-16T13:47:09Z</time>
      </trkpt>
      <trkpt lat="47.56942" lon="-2.32556">
        <ele>69.1</ele>
        <time>2025-01-16T13:47:10Z</time>
      </trkpt>
      <trkpt lat="47.56943" lon="-2.32556">
        <ele>69.1</ele>
        <time>2025-01-16T13:47:11Z</time>
      </trkpt>
      <trkpt lat="47.56945" lon="-2.32555">
        <ele>69</ele>
        <time>2025-01-16T13:47:12Z</time>
      </trkpt>
      <trkpt lat="47.56945" lon="-2.32555">
        <ele>69</ele>
        <time>2025-01-16T13:47:13Z</time>
      </trkpt>
      <trkpt lat="47.56946" lon="-2.32554">
        <ele>69</ele>
        <time>2025-01-16T13:47:14Z</time>
      </trkpt>
      <trkpt lat="47.56947" lon="-2.32554">
        <ele>69</ele>
        <time>2025-01-16T13:47:15Z</time>
      </trkpt>
      <trkpt lat="47.56948" lon="-2.32553">
        <ele>69</ele>
        <time>2025-01-16T13:47:16Z</time>
      </trkpt>
      <trkpt lat="47.5695" lon="-2.32552">
        <ele>69</ele>
        <time>2025-01-16T13:47:17Z</time>
      </trkpt>
      <trkpt lat="47.56951" lon="-2.32551">
        <ele>69</ele>
        <time>2025-01-16T13:47:18Z</time>
      </trkpt>
      <trkpt lat="47.56952" lon="-2.32551">
        <ele>69</ele>
        <time>2025-01-16T13:47:19Z</time>
      </trkpt>
      <trkpt lat="47.56953" lon="-2.3255">
        <ele>69</ele>
        <time>2025-01-16T13:47:20Z</time>
      </trkpt>
      <trkpt lat="47.56954" lon="-2.3255">
        <ele>69</ele>
        <time>2025-01-16T13:47:21Z</time>
      </trkpt>
      <trkpt lat="47.56956" lon="-2.32549">
        <ele>69</ele>
        <time>2025-01-16T13:47:22Z</time>
      </trkpt>
      <trkpt lat="47.56957" lon="-2.32548">
        <ele>69</ele>
        <time>2025-01-16T13:47:23Z</time>
      </trkpt>
      <trkpt lat="47.56958" lon="-2.32548">
        <ele>69</ele>
        <time>2025-01-16T13:47:24Z</time>
      </trkpt>
      <trkpt lat="47.56959" lon="-2.32547">
        <ele>69</ele>
        <time>2025-01-16T13:47:25Z</time>
      </trkpt>
      <trkpt lat="47.56961" lon="-2.32546">
        <ele>69</ele>
        <time>2025-01-16T13:47:26Z</time>
      </trkpt>
      <trkpt lat="47.56962" lon="-2.32546">
        <ele>69</ele>
        <time>2025-01-16T13:47:27Z</time>
      </trkpt>
      <trkpt lat="47.56963" lon="-2.32545">
        <ele>69</ele>
        <time>2025-01-16T13:47:28Z</time>
      </trkpt>
      <trkpt lat="47.56964" lon="-2.32544">
        <ele>69</ele>
        <time>2025-01-16T13:47:29Z</time>
      </trkpt>
      <trkpt lat="47.56965" lon="-2.32543">
        <ele>69</ele>
        <time>2025-01-16T13:47:30Z</time>
      </trkpt>
      <trkpt lat="47.56966" lon="-2.32542">
        <ele>69</ele>
        <time>2025-01-16T13:47:31Z</time>
      </trkpt>
      <trkpt lat="47.56967" lon="-2.32541">
        <ele>69</ele>
        <time>2025-01-16T13:47:32Z</time>
      </trkpt>
      <trkpt lat="47.56968" lon="-2.32541">
        <ele>69</ele>
        <time>2025-01-16T13:47:33Z</time>
      </trkpt>
      <trkpt lat="47.56968" lon="-2.3254">
        <ele>69</ele>
        <time>2025-01-16T13:47:34Z</time>
      </trkpt>
      <trkpt lat="47.56969" lon="-2.32539">
        <ele>69</ele>
        <time>2025-01-16T13:47:35Z</time>
      </trkpt>
      <trkpt lat="47.5697" lon="-2.32539">
        <ele>69</ele>
        <time>2025-01-16T13:47:36Z</time>
      </trkpt>
      <trkpt lat="47.56971" lon="-2.32538">
        <ele>69</ele>
        <time>2025-01-16T13:47:37Z</time>
      </trkpt>
      <trkpt lat="47.56972" lon="-2.32538">
        <ele>69</ele>
        <time>2025-01-16T13:47:38Z</time>
      </trkpt>
      <trkpt lat="47.56973" lon="-2.32537">
        <ele>69</ele>
        <time>2025-01-16T13:47:39Z</time>
      </trkpt>
      <trkpt lat="47.56974" lon="-2.32536">
        <ele>69</ele>
        <time>2025-01-16T13:47:40Z</time>
      </trkpt>
      <trkpt lat="47.56975" lon="-2.32535">
        <ele>68.9</ele>
        <time>2025-01-16T13:47:41Z</time>
      </trkpt>
      <trkpt lat="47.56977" lon="-2.32534">
        <ele>68.9</ele>
        <time>2025-01-16T13:47:42Z</time>
      </trkpt>
      <trkpt lat="47.56978" lon="-2.32533">
        <ele>68.8</ele>
        <time>2025-01-16T13:47:43Z</time>
      </trkpt>
      <trkpt lat="47.5698" lon="-2.32532">
        <ele>68.8</ele>
        <time>2025-01-16T13:47:44Z</time>
      </trkpt>
      <trkpt lat="47.56981" lon="-2.32531">
        <ele>68.7</ele>
        <time>2025-01-16T13:47:45Z</time>
      </trkpt>
      <trkpt lat="47.56982" lon="-2.3253">
        <ele>68.7</ele>
        <time>2025-01-16T13:47:46Z</time>
      </trkpt>
      <trkpt lat="47.56983" lon="-2.32528">
        <ele>68.6</ele>
        <time>2025-01-16T13:47:47Z</time>
      </trkpt>
      <trkpt lat="47.56984" lon="-2.32527">
        <ele>68.6</ele>
        <time>2025-01-16T13:47:48Z</time>
      </trkpt>
      <trkpt lat="47.56984" lon="-2.32525">
        <ele>68.5</ele>
        <time>2025-01-16T13:47:49Z</time>
      </trkpt>
      <trkpt lat="47.56985" lon="-2.32523">
        <ele>68.5</ele>
        <time>2025-01-16T13:47:50Z</time>
      </trkpt>
      <trkpt lat="47.56986" lon="-2.32522">
        <ele>68.4</ele>
        <time>2025-01-16T13:47:51Z</time>
      </trkpt>
      <trkpt lat="47.56986" lon="-2.3252">
        <ele>68.4</ele>
        <time>2025-01-16T13:47:52Z</time>
      </trkpt>
      <trkpt lat="47.56986" lon="-2.32519">
        <ele>68.3</ele>
        <time>2025-01-16T13:47:53Z</time>
      </trkpt>
      <trkpt lat="47.56987" lon="-2.32517">
        <ele>68.3</ele>
        <time>2025-01-16T13:47:54Z</time>
      </trkpt>
      <trkpt lat="47.56987" lon="-2.32515">
        <ele>68.2</ele>
        <time>2025-01-16T13:47:55Z</time>
      </trkpt>
      <trkpt lat="47.56987" lon="-2.32513">
        <ele>68.2</ele>
        <time>2025-01-16T13:47:56Z</time>
      </trkpt>
      <trkpt lat="47.56987" lon="-2.32512">
        <ele>68.2</ele>
        <time>2025-01-16T13:47:57Z</time>
      </trkpt>
      <trkpt lat="47.56987" lon="-2.32511">
        <ele>68.1</ele>
        <time>2025-01-16T13:47:58Z</time>
      </trkpt>
      <trkpt lat="47.56987" lon="-2.32509">
        <ele>68.1</ele>
        <time>2025-01-16T13:47:59Z</time>
      </trkpt>
      <trkpt lat="47.56987" lon="-2.32508">
        <ele>68.1</ele>
        <time>2025-01-16T13:48:00Z</time>
      </trkpt>
      <trkpt lat="47.56987" lon="-2.32506">
        <ele>68.1</ele>
        <time>2025-01-16T13:48:01Z</time>
      </trkpt>
      <trkpt lat="47.56987" lon="-2.32504">
        <ele>68</ele>
        <time>2025-01-16T13:48:02Z</time>
      </trkpt>
      <trkpt lat="47.56988" lon="-2.32503">
        <ele>67.9</ele>
        <time>2025-01-16T13:48:03Z</time>
      </trkpt>
      <trkpt lat="47.56988" lon="-2.32501">
        <ele>67.9</ele>
        <time>2025-01-16T13:48:04Z</time>
      </trkpt>
      <trkpt lat="47.56988" lon="-2.32499">
        <ele>67.9</ele>
        <time>2025-01-16T13:48:05Z</time>
      </trkpt>
      <trkpt lat="47.56988" lon="-2.32497">
        <ele>67.9</ele>
        <time>2025-01-16T13:48:06Z</time>
      </trkpt>
      <trkpt lat="47.56988" lon="-2.32495">
        <ele>67.9</ele>
        <time>2025-01-16T13:48:07Z</time>
      </trkpt>
      <trkpt lat="47.56988" lon="-2.32492">
        <ele>67.9</ele>
        <time>2025-01-16T13:48:08Z</time>
      </trkpt>
      <trkpt lat="47.56987" lon="-2.3249">
        <ele>67.9</ele>
        <time>2025-01-16T13:48:09Z</time>
      </trkpt>
      <trkpt lat="47.56987" lon="-2.32488">
        <ele>67.9</ele>
        <time>2025-01-16T13:48:10Z</time>
      </trkpt>
      <trkpt lat="47.56987" lon="-2.32486">
        <ele>67.9</ele>
        <time>2025-01-16T13:48:11Z</time>
      </trkpt>
      <trkpt lat="47.56988" lon="-2.32484">
        <ele>67.9</ele>
        <time>2025-01-16T13:48:12Z</time>
      </trkpt>
      <trkpt lat="47.56988" lon="-2.32483">
        <ele>67.9</ele>
        <time>2025-01-16T13:48:13Z</time>
      </trkpt>
      <trkpt lat="47.56988" lon="-2.32481">
        <ele>67.9</ele>
        <time>2025-01-16T13:48:14Z</time>
      </trkpt>
      <trkpt lat="47.56988" lon="-2.32479">
        <ele>67.9</ele>
        <time>2025-01-16T13:48:15Z</time>
      </trkpt>
      <trkpt lat="47.56988" lon="-2.32478">
        <ele>67.9</ele>
        <time>2025-01-16T13:48:16Z</time>
      </trkpt>
      <trkpt lat="47.56988" lon="-2.32476">
        <ele>67.9</ele>
        <time>2025-01-16T13:48:17Z</time>
      </trkpt>
      <trkpt lat="47.56988" lon="-2.32475">
        <ele>67.9</ele>
        <time>2025-01-16T13:48:18Z</time>
      </trkpt>
      <trkpt lat="47.56988" lon="-2.32473">
        <ele>67.9</ele>
        <time>2025-01-16T13:48:19Z</time>
      </trkpt>
      <trkpt lat="47.56988" lon="-2.32471">
        <ele>67.9</ele>
        <time>2025-01-16T13:48:20Z</time>
      </trkpt>
      <trkpt lat="47.56987" lon="-2.32469">
        <ele>68</ele>
        <time>2025-01-16T13:48:21Z</time>
      </trkpt>
      <trkpt lat="47.56987" lon="-2.32468">
        <ele>68</ele>
        <time>2025-01-16T13:48:22Z</time>
      </trkpt>
      <trkpt lat="47.56987" lon="-2.32466">
        <ele>68.1</ele>
        <time>2025-01-16T13:48:23Z</time>
      </trkpt>
      <trkpt lat="47.56987" lon="-2.32464">
        <ele>68.1</ele>
        <time>2025-01-16T13:48:24Z</time>
      </trkpt>
      <trkpt lat="47.56987" lon="-2.32462">
        <ele>68.1</ele>
        <time>2025-01-16T13:48:25Z</time>
      </trkpt>
      <trkpt lat="47.56986" lon="-2.3246">
        <ele>68.2</ele>
        <time>2025-01-16T13:48:26Z</time>
      </trkpt>
      <trkpt lat="47.56986" lon="-2.32458">
        <ele>68.3</ele>
        <time>2025-01-16T13:48:27Z</time>
      </trkpt>
      <trkpt lat="47.56986" lon="-2.32457">
        <ele>68.3</ele>
        <time>2025-01-16T13:48:28Z</time>
      </trkpt>
      <trkpt lat="47.56986" lon="-2.32455">
        <ele>68.3</ele>
        <time>2025-01-16T13:48:29Z</time>
      </trkpt>
      <trkpt lat="47.56986" lon="-2.32454">
        <ele>68.3</ele>
        <time>2025-01-16T13:48:30Z</time>
      </trkpt>
      <trkpt lat="47.56987" lon="-2.32452">
        <ele>68.3</ele>
        <time>2025-01-16T13:48:31Z</time>
      </trkpt>
      <trkpt lat="47.56987" lon="-2.3245">
        <ele>68.4</ele>
        <time>2025-01-16T13:48:32Z</time>
      </trkpt>
      <trkpt lat="47.56988" lon="-2.32448">
        <ele>68.4</ele>
        <time>2025-01-16T13:48:33Z</time>
      </trkpt>
      <trkpt lat="47.56989" lon="-2.32446">
        <ele>68.4</ele>
        <time>2025-01-16T13:48:34Z</time>
      </trkpt>
      <trkpt lat="47.5699" lon="-2.32444">
        <ele>68.3</ele>
        <time>2025-01-16T13:48:35Z</time>
      </trkpt>
      <trkpt lat="47.56991" lon="-2.32443">
        <ele>68.3</ele>
        <time>2025-01-16T13:48:36Z</time>
      </trkpt>
      <trkpt lat="47.56992" lon="-2.32442">
        <ele>68.2</ele>
        <time>2025-01-16T13:48:37Z</time>
      </trkpt>
      <trkpt lat="47.56993" lon="-2.32441">
        <ele>68.1</ele>
        <time>2025-01-16T13:48:38Z</time>
      </trkpt>
      <trkpt lat="47.56994" lon="-2.3244">
        <ele>68.1</ele>
        <time>2025-01-16T13:48:39Z</time>
      </trkpt>
      <trkpt lat="47.56995" lon="-2.32439">
        <ele>68</ele>
        <time>2025-01-16T13:48:40Z</time>
      </trkpt>
      <trkpt lat="47.56996" lon="-2.32438">
        <ele>67.9</ele>
        <time>2025-01-16T13:48:41Z</time>
      </trkpt>
      <trkpt lat="47.56996" lon="-2.32438">
        <ele>67.9</ele>
        <time>2025-01-16T13:48:42Z</time>
      </trkpt>
      <trkpt lat="47.56998" lon="-2.32437">
        <ele>67.8</ele>
        <time>2025-01-16T13:48:43Z</time>
      </trkpt>
      <trkpt lat="47.56999" lon="-2.32437">
        <ele>67.8</ele>
        <time>2025-01-16T13:48:44Z</time>
      </trkpt>
      <trkpt lat="47.57" lon="-2.32436">
        <ele>67.7</ele>
        <time>2025-01-16T13:48:45Z</time>
      </trkpt>
      <trkpt lat="47.57001" lon="-2.32436">
        <ele>67.7</ele>
        <time>2025-01-16T13:48:46Z</time>
      </trkpt>
      <trkpt lat="47.57002" lon="-2.32436">
        <ele>67.6</ele>
        <time>2025-01-16T13:48:47Z</time>
      </trkpt>
      <trkpt lat="47.57003" lon="-2.32435">
        <ele>67.6</ele>
        <time>2025-01-16T13:48:48Z</time>
      </trkpt>
      <trkpt lat="47.57004" lon="-2.32435">
        <ele>67.5</ele>
        <time>2025-01-16T13:48:49Z</time>
      </trkpt>
      <trkpt lat="47.57005" lon="-2.32435">
        <ele>67.5</ele>
        <time>2025-01-16T13:48:50Z</time>
      </trkpt>
      <trkpt lat="47.57006" lon="-2.32435">
        <ele>67.4</ele>
        <time>2025-01-16T13:48:51Z</time>
      </trkpt>
      <trkpt lat="47.57007" lon="-2.32435">
        <ele>67.4</ele>
        <time>2025-01-16T13:48:52Z</time>
      </trkpt>
      <trkpt lat="47.57008" lon="-2.32436">
        <ele>67.4</ele>
        <time>2025-01-16T13:48:53Z</time>
      </trkpt>
      <trkpt lat="47.5701" lon="-2.32436">
        <ele>67.3</ele>
        <time>2025-01-16T13:48:54Z</time>
      </trkpt>
      <trkpt lat="47.57012" lon="-2.32435">
        <ele>67.2</ele>
        <time>2025-01-16T13:48:55Z</time>
      </trkpt>
      <trkpt lat="47.57013" lon="-2.32435">
        <ele>67.2</ele>
        <time>2025-01-16T13:48:56Z</time>
      </trkpt>
      <trkpt lat="47.57014" lon="-2.32434">
        <ele>67.1</ele>
        <time>2025-01-16T13:48:57Z</time>
      </trkpt>
      <trkpt lat="47.57016" lon="-2.32433">
        <ele>67</ele>
        <time>2025-01-16T13:48:58Z</time>
      </trkpt>
      <trkpt lat="47.57017" lon="-2.32433">
        <ele>67</ele>
        <time>2025-01-16T13:48:59Z</time>
      </trkpt>
      <trkpt lat="47.57018" lon="-2.32432">
        <ele>66.9</ele>
        <time>2025-01-16T13:49:00Z</time>
      </trkpt>
      <trkpt lat="47.5702" lon="-2.32431">
        <ele>66.8</ele>
        <time>2025-01-16T13:49:01Z</time>
      </trkpt>
      <trkpt lat="47.57021" lon="-2.32431">
        <ele>66.8</ele>
        <time>2025-01-16T13:49:02Z</time>
      </trkpt>
      <trkpt lat="47.57022" lon="-2.3243">
        <ele>66.7</ele>
        <time>2025-01-16T13:49:03Z</time>
      </trkpt>
      <trkpt lat="47.57024" lon="-2.3243">
        <ele>66.6</ele>
        <time>2025-01-16T13:49:04Z</time>
      </trkpt>
      <trkpt lat="47.57025" lon="-2.32429">
        <ele>66.5</ele>
        <time>2025-01-16T13:49:05Z</time>
      </trkpt>
      <trkpt lat="47.57027" lon="-2.32429">
        <ele>66.5</ele>
        <time>2025-01-16T13:49:06Z</time>
      </trkpt>
      <trkpt lat="47.57028" lon="-2.32429">
        <ele>66.4</ele>
        <time>2025-01-16T13:49:07Z</time>
      </trkpt>
      <trkpt lat="47.57029" lon="-2.32428">
        <ele>66.4</ele>
        <time>2025-01-16T13:49:08Z</time>
      </trkpt>
      <trkpt lat="47.5703" lon="-2.32427">
        <ele>66.3</ele>
        <time>2025-01-16T13:49:09Z</time>
      </trkpt>
      <trkpt lat="47.57032" lon="-2.32427">
        <ele>66.3</ele>
        <time>2025-01-16T13:49:10Z</time>
      </trkpt>
      <trkpt lat="47.57033" lon="-2.32426">
        <ele>66.3</ele>
        <time>2025-01-16T13:49:11Z</time>
      </trkpt>
      <trkpt lat="47.57034" lon="-2.32426">
        <ele>66.3</ele>
        <time>2025-01-16T13:49:12Z</time>
      </trkpt>
      <trkpt lat="47.57035" lon="-2.32426">
        <ele>66.2</ele>
        <time>2025-01-16T13:49:13Z</time>
      </trkpt>
      <trkpt lat="47.57037" lon="-2.32426">
        <ele>66.2</ele>
        <time>2025-01-16T13:49:14Z</time>
      </trkpt>
      <trkpt lat="47.57038" lon="-2.32426">
        <ele>66.2</ele>
        <time>2025-01-16T13:49:15Z</time>
      </trkpt>
      <trkpt lat="47.57039" lon="-2.32425">
        <ele>66.2</ele>
        <time>2025-01-16T13:49:16Z</time>
      </trkpt>
      <trkpt lat="47.5704" lon="-2.32425">
        <ele>66.2</ele>
        <time>2025-01-16T13:49:17Z</time>
      </trkpt>
      <trkpt lat="47.57041" lon="-2.32424">
        <ele>66.1</ele>
        <time>2025-01-16T13:49:18Z</time>
      </trkpt>
      <trkpt lat="47.57042" lon="-2.32424">
        <ele>66.1</ele>
        <time>2025-01-16T13:49:19Z</time>
      </trkpt>
      <trkpt lat="47.57043" lon="-2.32423">
        <ele>66.1</ele>
        <time>2025-01-16T13:49:20Z</time>
      </trkpt>
      <trkpt lat="47.57045" lon="-2.32422">
        <ele>66.1</ele>
        <time>2025-01-16T13:49:21Z</time>
      </trkpt>
      <trkpt lat="47.57047" lon="-2.32421">
        <ele>66</ele>
        <time>2025-01-16T13:49:22Z</time>
      </trkpt>
      <trkpt lat="47.57047" lon="-2.32421">
        <ele>66</ele>
        <time>2025-01-16T13:49:23Z</time>
      </trkpt>
      <trkpt lat="47.57048" lon="-2.3242">
        <ele>66</ele>
        <time>2025-01-16T13:49:24Z</time>
      </trkpt>
      <trkpt lat="47.57049" lon="-2.32419">
        <ele>66</ele>
        <time>2025-01-16T13:49:25Z</time>
      </trkpt>
      <trkpt lat="47.57051" lon="-2.32418">
        <ele>66</ele>
        <time>2025-01-16T13:49:26Z</time>
      </trkpt>
      <trkpt lat="47.57053" lon="-2.32417">
        <ele>66</ele>
        <time>2025-01-16T13:49:27Z</time>
      </trkpt>
      <trkpt lat="47.57054" lon="-2.32417">
        <ele>66</ele>
        <time>2025-01-16T13:49:28Z</time>
      </trkpt>
      <trkpt lat="47.57055" lon="-2.32416">
        <ele>66</ele>
        <time>2025-01-16T13:49:29Z</time>
      </trkpt>
      <trkpt lat="47.57056" lon="-2.32416">
        <ele>66</ele>
        <time>2025-01-16T13:49:30Z</time>
      </trkpt>
      <trkpt lat="47.57057" lon="-2.32416">
        <ele>65.9</ele>
        <time>2025-01-16T13:49:31Z</time>
      </trkpt>
      <trkpt lat="47.57058" lon="-2.32415">
        <ele>65.9</ele>
        <time>2025-01-16T13:49:32Z</time>
      </trkpt>
      <trkpt lat="47.57059" lon="-2.32415">
        <ele>65.9</ele>
        <time>2025-01-16T13:49:33Z</time>
      </trkpt>
      <trkpt lat="47.5706" lon="-2.32414">
        <ele>65.8</ele>
        <time>2025-01-16T13:49:34Z</time>
      </trkpt>
      <trkpt lat="47.57062" lon="-2.32414">
        <ele>65.8</ele>
        <time>2025-01-16T13:49:35Z</time>
      </trkpt>
      <trkpt lat="47.57064" lon="-2.32413">
        <ele>65.7</ele>
        <time>2025-01-16T13:49:36Z</time>
      </trkpt>
      <trkpt lat="47.57065" lon="-2.32413">
        <ele>65.7</ele>
        <time>2025-01-16T13:49:37Z</time>
      </trkpt>
      <trkpt lat="47.57067" lon="-2.32413">
        <ele>65.6</ele>
        <time>2025-01-16T13:49:38Z</time>
      </trkpt>
      <trkpt lat="47.57068" lon="-2.32413">
        <ele>65.6</ele>
        <time>2025-01-16T13:49:39Z</time>
      </trkpt>
      <trkpt lat="47.57069" lon="-2.32413">
        <ele>65.5</ele>
        <time>2025-01-16T13:49:40Z</time>
      </trkpt>
      <trkpt lat="47.57071" lon="-2.32414">
        <ele>65.4</ele>
        <time>2025-01-16T13:49:41Z</time>
      </trkpt>
      <trkpt lat="47.57072" lon="-2.32414">
        <ele>65.4</ele>
        <time>2025-01-16T13:49:42Z</time>
      </trkpt>
      <trkpt lat="47.57074" lon="-2.32415">
        <ele>65.3</ele>
        <time>2025-01-16T13:49:43Z</time>
      </trkpt>
      <trkpt lat="47.57074" lon="-2.32415">
        <ele>65.3</ele>
        <time>2025-01-16T13:49:44Z</time>
      </trkpt>
      <trkpt lat="47.57075" lon="-2.32416">
        <ele>65.3</ele>
        <time>2025-01-16T13:49:45Z</time>
      </trkpt>
      <trkpt lat="47.57076" lon="-2.32417">
        <ele>65.3</ele>
        <time>2025-01-16T13:49:46Z</time>
      </trkpt>
      <trkpt lat="47.57077" lon="-2.32419">
        <ele>65.3</ele>
        <time>2025-01-16T13:49:47Z</time>
      </trkpt>
      <trkpt lat="47.57077" lon="-2.3242">
        <ele>65.3</ele>
        <time>2025-01-16T13:49:48Z</time>
      </trkpt>
      <trkpt lat="47.57078" lon="-2.32422">
        <ele>65.3</ele>
        <time>2025-01-16T13:49:49Z</time>
      </trkpt>
      <trkpt lat="47.57078" lon="-2.32423">
        <ele>65.4</ele>
        <time>2025-01-16T13:49:50Z</time>
      </trkpt>
      <trkpt lat="47.57079" lon="-2.32425">
        <ele>65.4</ele>
        <time>2025-01-16T13:49:51Z</time>
      </trkpt>
      <trkpt lat="47.5708" lon="-2.32426">
        <ele>65.4</ele>
        <time>2025-01-16T13:49:52Z</time>
      </trkpt>
      <trkpt lat="47.57081" lon="-2.32427">
        <ele>65.4</ele>
        <time>2025-01-16T13:49:53Z</time>
      </trkpt>
      <trkpt lat="47.57082" lon="-2.32428">
        <ele>65.4</ele>
        <time>2025-01-16T13:49:54Z</time>
      </trkpt>
      <trkpt lat="47.57084" lon="-2.32428">
        <ele>65.4</ele>
        <time>2025-01-16T13:49:55Z</time>
      </trkpt>
      <trkpt lat="47.57085" lon="-2.32428">
        <ele>65.4</ele>
        <time>2025-01-16T13:49:56Z</time>
      </trkpt>
      <trkpt lat="47.57087" lon="-2.32427">
        <ele>65.4</ele>
        <time>2025-01-16T13:49:57Z</time>
      </trkpt>
      <trkpt lat="47.57088" lon="-2.32427">
        <ele>65.4</ele>
        <time>2025-01-16T13:49:58Z</time>
      </trkpt>
      <trkpt lat="47.57089" lon="-2.32426">
        <ele>65.3</ele>
        <time>2025-01-16T13:49:59Z</time>
      </trkpt>
      <trkpt lat="47.5709" lon="-2.32425">
        <ele>65.3</ele>
        <time>2025-01-16T13:50:00Z</time>
      </trkpt>
      <trkpt lat="47.57091" lon="-2.32425">
        <ele>65.3</ele>
        <time>2025-01-16T13:50:01Z</time>
      </trkpt>
      <trkpt lat="47.57092" lon="-2.32424">
        <ele>65.3</ele>
        <time>2025-01-16T13:50:02Z</time>
      </trkpt>
      <trkpt lat="47.57093" lon="-2.32423">
        <ele>65.2</ele>
        <time>2025-01-16T13:50:03Z</time>
      </trkpt>
      <trkpt lat="47.57094" lon="-2.32422">
        <ele>65.2</ele>
        <time>2025-01-16T13:50:04Z</time>
      </trkpt>
      <trkpt lat="47.57095" lon="-2.32421">
        <ele>65.2</ele>
        <time>2025-01-16T13:50:05Z</time>
      </trkpt>
      <trkpt lat="47.57096" lon="-2.3242">
        <ele>65.1</ele>
        <time>2025-01-16T13:50:06Z</time>
      </trkpt>
      <trkpt lat="47.57096" lon="-2.32419">
        <ele>65.1</ele>
        <time>2025-01-16T13:50:07Z</time>
      </trkpt>
      <trkpt lat="47.57097" lon="-2.32418">
        <ele>65</ele>
        <time>2025-01-16T13:50:08Z</time>
      </trkpt>
      <trkpt lat="47.57098" lon="-2.32417">
        <ele>65</ele>
        <time>2025-01-16T13:50:09Z</time>
      </trkpt>
      <trkpt lat="47.57099" lon="-2.32416">
        <ele>65</ele>
        <time>2025-01-16T13:50:10Z</time>
      </trkpt>
      <trkpt lat="47.571" lon="-2.32416">
        <ele>65</ele>
        <time>2025-01-16T13:50:11Z</time>
      </trkpt>
      <trkpt lat="47.57101" lon="-2.32415">
        <ele>65</ele>
        <time>2025-01-16T13:50:12Z</time>
      </trkpt>
      <trkpt lat="47.57101" lon="-2.32414">
        <ele>65</ele>
        <time>2025-01-16T13:50:13Z</time>
      </trkpt>
      <trkpt lat="47.57102" lon="-2.32413">
        <ele>65</ele>
        <time>2025-01-16T13:50:14Z</time>
      </trkpt>
      <trkpt lat="47.57103" lon="-2.32412">
        <ele>65</ele>
        <time>2025-01-16T13:50:15Z</time>
      </trkpt>
      <trkpt lat="47.57104" lon="-2.32411">
        <ele>65</ele>
        <time>2025-01-16T13:50:16Z</time>
      </trkpt>
      <trkpt lat="47.57105" lon="-2.3241">
        <ele>65</ele>
        <time>2025-01-16T13:50:17Z</time>
      </trkpt>
      <trkpt lat="47.57106" lon="-2.32409">
        <ele>65</ele>
        <time>2025-01-16T13:50:18Z</time>
      </trkpt>
      <trkpt lat="47.57108" lon="-2.32408">
        <ele>65</ele>
        <time>2025-01-16T13:50:19Z</time>
      </trkpt>
      <trkpt lat="47.57109" lon="-2.32407">
        <ele>65</ele>
        <time>2025-01-16T13:50:20Z</time>
      </trkpt>
      <trkpt lat="47.5711" lon="-2.32407">
        <ele>65</ele>
        <time>2025-01-16T13:50:21Z</time>
      </trkpt>
      <trkpt lat="47.57111" lon="-2.32406">
        <ele>65</ele>
        <time>2025-01-16T13:50:22Z</time>
      </trkpt>
      <trkpt lat="47.57112" lon="-2.32405">
        <ele>65</ele>
        <time>2025-01-16T13:50:23Z</time>
      </trkpt>
      <trkpt lat="47.57113" lon="-2.32403">
        <ele>65</ele>
        <time>2025-01-16T13:50:24Z</time>
      </trkpt>
      <trkpt lat="47.57114" lon="-2.32403">
        <ele>64.9</ele>
        <time>2025-01-16T13:50:25Z</time>
      </trkpt>
      <trkpt lat="47.57115" lon="-2.32402">
        <ele>64.9</ele>
        <time>2025-01-16T13:50:26Z</time>
      </trkpt>
      <trkpt lat="47.57115" lon="-2.32402">
        <ele>64.9</ele>
        <time>2025-01-16T13:50:27Z</time>
      </trkpt>
      <trkpt lat="47.57116" lon="-2.32401">
        <ele>64.9</ele>
        <time>2025-01-16T13:50:28Z</time>
      </trkpt>
      <trkpt lat="47.57117" lon="-2.324">
        <ele>64.9</ele>
        <time>2025-01-16T13:50:29Z</time>
      </trkpt>
      <trkpt lat="47.57117" lon="-2.32399">
        <ele>64.9</ele>
        <time>2025-01-16T13:50:30Z</time>
      </trkpt>
      <trkpt lat="47.57118" lon="-2.32398">
        <ele>64.8</ele>
        <time>2025-01-16T13:50:31Z</time>
      </trkpt>
      <trkpt lat="47.57119" lon="-2.32397">
        <ele>64.8</ele>
        <time>2025-01-16T13:50:32Z</time>
      </trkpt>
      <trkpt lat="47.5712" lon="-2.32397">
        <ele>64.8</ele>
        <time>2025-01-16T13:50:33Z</time>
      </trkpt>
      <trkpt lat="47.57122" lon="-2.32396">
        <ele>64.7</ele>
        <time>2025-01-16T13:50:34Z</time>
      </trkpt>
      <trkpt lat="47.57123" lon="-2.32395">
        <ele>64.7</ele>
        <time>2025-01-16T13:50:35Z</time>
      </trkpt>
      <trkpt lat="47.57125" lon="-2.32394">
        <ele>64.6</ele>
        <time>2025-01-16T13:50:36Z</time>
      </trkpt>
      <trkpt lat="47.57126" lon="-2.32393">
        <ele>64.5</ele>
        <time>2025-01-16T13:50:37Z</time>
      </trkpt>
      <trkpt lat="47.57127" lon="-2.32392">
        <ele>64.5</ele>
        <time>2025-01-16T13:50:38Z</time>
      </trkpt>
      <trkpt lat="47.57128" lon="-2.32391">
        <ele>64.4</ele>
        <time>2025-01-16T13:50:39Z</time>
      </trkpt>
      <trkpt lat="47.57129" lon="-2.3239">
        <ele>64.4</ele>
        <time>2025-01-16T13:50:40Z</time>
      </trkpt>
      <trkpt lat="47.5713" lon="-2.32389">
        <ele>64.3</ele>
        <time>2025-01-16T13:50:41Z</time>
      </trkpt>
      <trkpt lat="47.57131" lon="-2.32388">
        <ele>64.3</ele>
        <time>2025-01-16T13:50:42Z</time>
      </trkpt>
      <trkpt lat="47.57132" lon="-2.32387">
        <ele>64.2</ele>
        <time>2025-01-16T13:50:43Z</time>
      </trkpt>
      <trkpt lat="47.57132" lon="-2.32386">
        <ele>64.2</ele>
        <time>2025-01-16T13:50:44Z</time>
      </trkpt>
      <trkpt lat="47.57132" lon="-2.32385">
        <ele>64.2</ele>
        <time>2025-01-16T13:50:45Z</time>
      </trkpt>
      <trkpt lat="47.57133" lon="-2.32384">
        <ele>64.2</ele>
        <time>2025-01-16T13:50:46Z</time>
      </trkpt>
      <trkpt lat="47.57134" lon="-2.32383">
        <ele>64.1</ele>
        <time>2025-01-16T13:50:47Z</time>
      </trkpt>
      <trkpt lat="47.57135" lon="-2.32382">
        <ele>64.1</ele>
        <time>2025-01-16T13:50:48Z</time>
      </trkpt>
      <trkpt lat="47.57136" lon="-2.32381">
        <ele>64.1</ele>
        <time>2025-01-16T13:50:49Z</time>
      </trkpt>
      <trkpt lat="47.57137" lon="-2.32381">
        <ele>64</ele>
        <time>2025-01-16T13:50:50Z</time>
      </trkpt>
      <trkpt lat="47.57139" lon="-2.3238">
        <ele>64</ele>
        <time>2025-01-16T13:50:51Z</time>
      </trkpt>
      <trkpt lat="47.57139" lon="-2.32379">
        <ele>64</ele>
        <time>2025-01-16T13:50:52Z</time>
      </trkpt>
      <trkpt lat="47.5714" lon="-2.32379">
        <ele>64</ele>
        <time>2025-01-16T13:50:53Z</time>
      </trkpt>
      <trkpt lat="47.57141" lon="-2.32378">
        <ele>64</ele>
        <time>2025-01-16T13:50:54Z</time>
      </trkpt>
      <trkpt lat="47.57142" lon="-2.32377">
        <ele>64</ele>
        <time>2025-01-16T13:50:55Z</time>
      </trkpt>
      <trkpt lat="47.57143" lon="-2.32377">
        <ele>64</ele>
        <time>2025-01-16T13:50:56Z</time>
      </trkpt>
      <trkpt lat="47.57144" lon="-2.32376">
        <ele>64</ele>
        <time>2025-01-16T13:50:57Z</time>
      </trkpt>
      <trkpt lat="47.57146" lon="-2.32376">
        <ele>64</ele>
        <time>2025-01-16T13:50:58Z</time>
      </trkpt>
      <trkpt lat="47.57147" lon="-2.32375">
        <ele>64</ele>
        <time>2025-01-16T13:50:59Z</time>
      </trkpt>
      <trkpt lat="47.57148" lon="-2.32374">
        <ele>64</ele>
        <time>2025-01-16T13:51:00Z</time>
      </trkpt>
      <trkpt lat="47.57149" lon="-2.32373">
        <ele>64</ele>
        <time>2025-01-16T13:51:01Z</time>
      </trkpt>
      <trkpt lat="47.57151" lon="-2.32373">
        <ele>64</ele>
        <time>2025-01-16T13:51:02Z</time>
      </trkpt>
      <trkpt lat="47.57152" lon="-2.32372">
        <ele>64</ele>
        <time>2025-01-16T13:51:03Z</time>
      </trkpt>
      <trkpt lat="47.57153" lon="-2.3237">
        <ele>64</ele>
        <time>2025-01-16T13:51:04Z</time>
      </trkpt>
      <trkpt lat="47.57155" lon="-2.32369">
        <ele>64</ele>
        <time>2025-01-16T13:51:05Z</time>
      </trkpt>
      <trkpt lat="47.57156" lon="-2.32368">
        <ele>64</ele>
        <time>2025-01-16T13:51:06Z</time>
      </trkpt>
      <trkpt lat="47.57157" lon="-2.32367">
        <ele>64</ele>
        <time>2025-01-16T13:51:07Z</time>
      </trkpt>
      <trkpt lat="47.57158" lon="-2.32366">
        <ele>64</ele>
        <time>2025-01-16T13:51:08Z</time>
      </trkpt>
      <trkpt lat="47.57159" lon="-2.32366">
        <ele>64</ele>
        <time>2025-01-16T13:51:09Z</time>
      </trkpt>
      <trkpt lat="47.5716" lon="-2.32365">
        <ele>64</ele>
        <time>2025-01-16T13:51:10Z</time>
      </trkpt>
      <trkpt lat="47.57161" lon="-2.32365">
        <ele>64</ele>
        <time>2025-01-16T13:51:11Z</time>
      </trkpt>
      <trkpt lat="47.57162" lon="-2.32364">
        <ele>64</ele>
        <time>2025-01-16T13:51:12Z</time>
      </trkpt>
      <trkpt lat="47.57163" lon="-2.32363">
        <ele>64</ele>
        <time>2025-01-16T13:51:13Z</time>
      </trkpt>
      <trkpt lat="47.57164" lon="-2.32362">
        <ele>64</ele>
        <time>2025-01-16T13:51:14Z</time>
      </trkpt>
      <trkpt lat="47.57165" lon="-2.32361">
        <ele>64</ele>
        <time>2025-01-16T13:51:15Z</time>
      </trkpt>
      <trkpt lat="47.57165" lon="-2.3236">
        <ele>64</ele>
        <time>2025-01-16T13:51:16Z</time>
      </trkpt>
      <trkpt lat="47.57167" lon="-2.32359">
        <ele>63.9</ele>
        <time>2025-01-16T13:51:17Z</time>
      </trkpt>
      <trkpt lat="47.57168" lon="-2.32358">
        <ele>63.8</ele>
        <time>2025-01-16T13:51:18Z</time>
      </trkpt>
      <trkpt lat="47.57169" lon="-2.32357">
        <ele>63.8</ele>
        <time>2025-01-16T13:51:19Z</time>
      </trkpt>
      <trkpt lat="47.5717" lon="-2.32357">
        <ele>63.7</ele>
        <time>2025-01-16T13:51:20Z</time>
      </trkpt>
      <trkpt lat="47.57171" lon="-2.32356">
        <ele>63.7</ele>
        <time>2025-01-16T13:51:21Z</time>
      </trkpt>
      <trkpt lat="47.57173" lon="-2.32356">
        <ele>63.6</ele>
        <time>2025-01-16T13:51:22Z</time>
      </trkpt>
      <trkpt lat="47.57174" lon="-2.32356">
        <ele>63.6</ele>
        <time>2025-01-16T13:51:23Z</time>
      </trkpt>
      <trkpt lat="47.57175" lon="-2.32355">
        <ele>63.5</ele>
        <time>2025-01-16T13:51:24Z</time>
      </trkpt>
      <trkpt lat="47.57176" lon="-2.32354">
        <ele>63.4</ele>
        <time>2025-01-16T13:51:25Z</time>
      </trkpt>
      <trkpt lat="47.57178" lon="-2.32354">
        <ele>63.3</ele>
        <time>2025-01-16T13:51:26Z</time>
      </trkpt>
      <trkpt lat="47.57179" lon="-2.32353">
        <ele>63.3</ele>
        <time>2025-01-16T13:51:27Z</time>
      </trkpt>
      <trkpt lat="47.5718" lon="-2.32352">
        <ele>63.2</ele>
        <time>2025-01-16T13:51:28Z</time>
      </trkpt>
      <trkpt lat="47.57181" lon="-2.32352">
        <ele>63.2</ele>
        <time>2025-01-16T13:51:29Z</time>
      </trkpt>
      <trkpt lat="47.57182" lon="-2.32351">
        <ele>63.1</ele>
        <time>2025-01-16T13:51:30Z</time>
      </trkpt>
      <trkpt lat="47.57184" lon="-2.32351">
        <ele>63</ele>
        <time>2025-01-16T13:51:31Z</time>
      </trkpt>
      <trkpt lat="47.57186" lon="-2.32351">
        <ele>62.9</ele>
        <time>2025-01-16T13:51:32Z</time>
      </trkpt>
      <trkpt lat="47.57187" lon="-2.3235">
        <ele>62.9</ele>
        <time>2025-01-16T13:51:33Z</time>
      </trkpt>
      <trkpt lat="47.57188" lon="-2.32351">
        <ele>62.9</ele>
        <time>2025-01-16T13:51:34Z</time>
      </trkpt>
      <trkpt lat="47.5719" lon="-2.32351">
        <ele>62.8</ele>
        <time>2025-01-16T13:51:35Z</time>
      </trkpt>
      <trkpt lat="47.57191" lon="-2.3235">
        <ele>62.7</ele>
        <time>2025-01-16T13:51:36Z</time>
      </trkpt>
      <trkpt lat="47.57192" lon="-2.32348">
        <ele>62.6</ele>
        <time>2025-01-16T13:51:37Z</time>
      </trkpt>
      <trkpt lat="47.57193" lon="-2.32347">
        <ele>62.5</ele>
        <time>2025-01-16T13:51:38Z</time>
      </trkpt>
      <trkpt lat="47.57194" lon="-2.32346">
        <ele>62.5</ele>
        <time>2025-01-16T13:51:39Z</time>
      </trkpt>
      <trkpt lat="47.57195" lon="-2.32346">
        <ele>62.5</ele>
        <time>2025-01-16T13:51:40Z</time>
      </trkpt>
      <trkpt lat="47.57196" lon="-2.32345">
        <ele>62.4</ele>
        <time>2025-01-16T13:51:41Z</time>
      </trkpt>
      <trkpt lat="47.57197" lon="-2.32344">
        <ele>62.4</ele>
        <time>2025-01-16T13:51:42Z</time>
      </trkpt>
      <trkpt lat="47.57198" lon="-2.32343">
        <ele>62.4</ele>
        <time>2025-01-16T13:51:43Z</time>
      </trkpt>
      <trkpt lat="47.57199" lon="-2.32343">
        <ele>62.4</ele>
        <time>2025-01-16T13:51:44Z</time>
      </trkpt>
      <trkpt lat="47.572" lon="-2.32342">
        <ele>62.4</ele>
        <time>2025-01-16T13:51:45Z</time>
      </trkpt>
      <trkpt lat="47.57201" lon="-2.32341">
        <ele>62.4</ele>
        <time>2025-01-16T13:51:46Z</time>
      </trkpt>
      <trkpt lat="47.57202" lon="-2.32341">
        <ele>62.4</ele>
        <time>2025-01-16T13:51:47Z</time>
      </trkpt>
      <trkpt lat="47.57203" lon="-2.3234">
        <ele>62.4</ele>
        <time>2025-01-16T13:51:48Z</time>
      </trkpt>
      <trkpt lat="47.57205" lon="-2.32339">
        <ele>62.4</ele>
        <time>2025-01-16T13:51:49Z</time>
      </trkpt>
      <trkpt lat="47.57206" lon="-2.32339">
        <ele>62.5</ele>
        <time>2025-01-16T13:51:50Z</time>
      </trkpt>
      <trkpt lat="47.57207" lon="-2.32338">
        <ele>62.5</ele>
        <time>2025-01-16T13:51:51Z</time>
      </trkpt>
      <trkpt lat="47.57208" lon="-2.32337">
        <ele>62.5</ele>
        <time>2025-01-16T13:51:52Z</time>
      </trkpt>
      <trkpt lat="47.57209" lon="-2.32336">
        <ele>62.5</ele>
        <time>2025-01-16T13:51:53Z</time>
      </trkpt>
      <trkpt lat="47.5721" lon="-2.32334">
        <ele>62.6</ele>
        <time>2025-01-16T13:51:54Z</time>
      </trkpt>
      <trkpt lat="47.5721" lon="-2.32333">
        <ele>62.6</ele>
        <time>2025-01-16T13:51:55Z</time>
      </trkpt>
      <trkpt lat="47.57211" lon="-2.32332">
        <ele>62.6</ele>
        <time>2025-01-16T13:51:56Z</time>
      </trkpt>
      <trkpt lat="47.57212" lon="-2.3233">
        <ele>62.7</ele>
        <time>2025-01-16T13:51:57Z</time>
      </trkpt>
      <trkpt lat="47.57212" lon="-2.32328">
        <ele>62.7</ele>
        <time>2025-01-16T13:51:58Z</time>
      </trkpt>
      <trkpt lat="47.57213" lon="-2.32327">
        <ele>62.7</ele>
        <time>2025-01-16T13:51:59Z</time>
      </trkpt>
      <trkpt lat="47.57213" lon="-2.32326">
        <ele>62.8</ele>
        <time>2025-01-16T13:52:00Z</time>
      </trkpt>
      <trkpt lat="47.57214" lon="-2.32325">
        <ele>62.8</ele>
        <time>2025-01-16T13:52:01Z</time>
      </trkpt>
      <trkpt lat="47.57214" lon="-2.32324">
        <ele>62.8</ele>
        <time>2025-01-16T13:52:02Z</time>
      </trkpt>
      <trkpt lat="47.57215" lon="-2.32323">
        <ele>62.9</ele>
        <time>2025-01-16T13:52:03Z</time>
      </trkpt>
      <trkpt lat="47.57215" lon="-2.32321">
        <ele>63</ele>
        <time>2025-01-16T13:52:04Z</time>
      </trkpt>
      <trkpt lat="47.57215" lon="-2.3232">
        <ele>63</ele>
        <time>2025-01-16T13:52:05Z</time>
      </trkpt>
      <trkpt lat="47.57216" lon="-2.32318">
        <ele>63.1</ele>
        <time>2025-01-16T13:52:06Z</time>
      </trkpt>
      <trkpt lat="47.57216" lon="-2.32316">
        <ele>63.1</ele>
        <time>2025-01-16T13:52:07Z</time>
      </trkpt>
      <trkpt lat="47.57216" lon="-2.32314">
        <ele>63.2</ele>
        <time>2025-01-16T13:52:08Z</time>
      </trkpt>
      <trkpt lat="47.57216" lon="-2.32313">
        <ele>63.2</ele>
        <time>2025-01-16T13:52:09Z</time>
      </trkpt>
      <trkpt lat="47.57216" lon="-2.32311">
        <ele>63.2</ele>
        <time>2025-01-16T13:52:10Z</time>
      </trkpt>
      <trkpt lat="47.57216" lon="-2.32309">
        <ele>63.3</ele>
        <time>2025-01-16T13:52:11Z</time>
      </trkpt>
      <trkpt lat="47.57216" lon="-2.32308">
        <ele>63.3</ele>
        <time>2025-01-16T13:52:12Z</time>
      </trkpt>
      <trkpt lat="47.57216" lon="-2.32307">
        <ele>63.3</ele>
        <time>2025-01-16T13:52:13Z</time>
      </trkpt>
      <trkpt lat="47.57216" lon="-2.32305">
        <ele>63.3</ele>
        <time>2025-01-16T13:52:14Z</time>
      </trkpt>
      <trkpt lat="47.57217" lon="-2.32304">
        <ele>63.4</ele>
        <time>2025-01-16T13:52:15Z</time>
      </trkpt>
      <trkpt lat="47.57217" lon="-2.32303">
        <ele>63.4</ele>
        <time>2025-01-16T13:52:16Z</time>
      </trkpt>
      <trkpt lat="47.57218" lon="-2.32302">
        <ele>63.5</ele>
        <time>2025-01-16T13:52:17Z</time>
      </trkpt>
      <trkpt lat="47.57218" lon="-2.32301">
        <ele>63.5</ele>
        <time>2025-01-16T13:52:18Z</time>
      </trkpt>
      <trkpt lat="47.57219" lon="-2.32299">
        <ele>63.7</ele>
        <time>2025-01-16T13:52:19Z</time>
      </trkpt>
      <trkpt lat="47.57219" lon="-2.32298">
        <ele>63.7</ele>
        <time>2025-01-16T13:52:20Z</time>
      </trkpt>
      <trkpt lat="47.5722" lon="-2.32296">
        <ele>63.8</ele>
        <time>2025-01-16T13:52:21Z</time>
      </trkpt>
      <trkpt lat="47.5722" lon="-2.32295">
        <ele>63.8</ele>
        <time>2025-01-16T13:52:22Z</time>
      </trkpt>
      <trkpt lat="47.57221" lon="-2.32293">
        <ele>63.9</ele>
        <time>2025-01-16T13:52:23Z</time>
      </trkpt>
      <trkpt lat="47.57221" lon="-2.32292">
        <ele>63.9</ele>
        <time>2025-01-16T13:52:24Z</time>
      </trkpt>
      <trkpt lat="47.57221" lon="-2.32291">
        <ele>63.9</ele>
        <time>2025-01-16T13:52:25Z</time>
      </trkpt>
      <trkpt lat="47.57222" lon="-2.32289">
        <ele>64</ele>
        <time>2025-01-16T13:52:26Z</time>
      </trkpt>
      <trkpt lat="47.57223" lon="-2.32288">
        <ele>64.1</ele>
        <time>2025-01-16T13:52:27Z</time>
      </trkpt>
      <trkpt lat="47.57223" lon="-2.32286">
        <ele>64.1</ele>
        <time>2025-01-16T13:52:28Z</time>
      </trkpt>
      <trkpt lat="47.57224" lon="-2.32285">
        <ele>64.2</ele>
        <time>2025-01-16T13:52:29Z</time>
      </trkpt>
      <trkpt lat="47.57225" lon="-2.32283">
        <ele>64.3</ele>
        <time>2025-01-16T13:52:30Z</time>
      </trkpt>
      <trkpt lat="47.57226" lon="-2.32282">
        <ele>64.4</ele>
        <time>2025-01-16T13:52:31Z</time>
      </trkpt>
      <trkpt lat="47.57227" lon="-2.32281">
        <ele>64.5</ele>
        <time>2025-01-16T13:52:32Z</time>
      </trkpt>
      <trkpt lat="47.57227" lon="-2.3228">
        <ele>64.5</ele>
        <time>2025-01-16T13:52:33Z</time>
      </trkpt>
      <trkpt lat="47.57228" lon="-2.32279">
        <ele>64.6</ele>
        <time>2025-01-16T13:52:34Z</time>
      </trkpt>
      <trkpt lat="47.57229" lon="-2.32278">
        <ele>64.7</ele>
        <time>2025-01-16T13:52:35Z</time>
      </trkpt>
      <trkpt lat="47.5723" lon="-2.32277">
        <ele>64.9</ele>
        <time>2025-01-16T13:52:36Z</time>
      </trkpt>
      <trkpt lat="47.5723" lon="-2.32276">
        <ele>64.9</ele>
        <time>2025-01-16T13:52:37Z</time>
      </trkpt>
      <trkpt lat="47.57231" lon="-2.32274">
        <ele>65</ele>
        <time>2025-01-16T13:52:38Z</time>
      </trkpt>
      <trkpt lat="47.57231" lon="-2.32273">
        <ele>65</ele>
        <time>2025-01-16T13:52:39Z</time>
      </trkpt>
      <trkpt lat="47.57232" lon="-2.32272">
        <ele>65.1</ele>
        <time>2025-01-16T13:52:40Z</time>
      </trkpt>
      <trkpt lat="47.57233" lon="-2.32271">
        <ele>65.2</ele>
        <time>2025-01-16T13:52:41Z</time>
      </trkpt>
      <trkpt lat="47.57234" lon="-2.3227">
        <ele>65.3</ele>
        <time>2025-01-16T13:52:42Z</time>
      </trkpt>
      <trkpt lat="47.57234" lon="-2.32269">
        <ele>65.3</ele>
        <time>2025-01-16T13:52:43Z</time>
      </trkpt>
      <trkpt lat="47.57235" lon="-2.32268">
        <ele>65.4</ele>
        <time>2025-01-16T13:52:44Z</time>
      </trkpt>
      <trkpt lat="47.57236" lon="-2.32267">
        <ele>65.5</ele>
        <time>2025-01-16T13:52:45Z</time>
      </trkpt>
      <trkpt lat="47.57236" lon="-2.32266">
        <ele>65.5</ele>
        <time>2025-01-16T13:52:46Z</time>
      </trkpt>
      <trkpt lat="47.57237" lon="-2.32265">
        <ele>65.6</ele>
        <time>2025-01-16T13:52:47Z</time>
      </trkpt>
      <trkpt lat="47.57238" lon="-2.32265">
        <ele>65.6</ele>
        <time>2025-01-16T13:52:48Z</time>
      </trkpt>
      <trkpt lat="47.57238" lon="-2.32264">
        <ele>65.6</ele>
        <time>2025-01-16T13:52:49Z</time>
      </trkpt>
      <trkpt lat="47.57239" lon="-2.32263">
        <ele>65.7</ele>
        <time>2025-01-16T13:52:50Z</time>
      </trkpt>
      <trkpt lat="47.5724" lon="-2.32262">
        <ele>65.8</ele>
        <time>2025-01-16T13:52:51Z</time>
      </trkpt>
      <trkpt lat="47.57241" lon="-2.32261">
        <ele>65.8</ele>
        <time>2025-01-16T13:52:52Z</time>
      </trkpt>
      <trkpt lat="47.57242" lon="-2.3226">
        <ele>65.9</ele>
        <time>2025-01-16T13:52:53Z</time>
      </trkpt>
      <trkpt lat="47.57243" lon="-2.32259">
        <ele>65.9</ele>
        <time>2025-01-16T13:52:54Z</time>
      </trkpt>
      <trkpt lat="47.57244" lon="-2.32259">
        <ele>66</ele>
        <time>2025-01-16T13:52:55Z</time>
      </trkpt>
      <trkpt lat="47.57245" lon="-2.32258">
        <ele>66</ele>
        <time>2025-01-16T13:52:56Z</time>
      </trkpt>
      <trkpt lat="47.57246" lon="-2.32257">
        <ele>66</ele>
        <time>2025-01-16T13:52:57Z</time>
      </trkpt>
      <trkpt lat="47.57246" lon="-2.32257">
        <ele>66</ele>
        <time>2025-01-16T13:52:58Z</time>
      </trkpt>
      <trkpt lat="47.57247" lon="-2.32257">
        <ele>66.1</ele>
        <time>2025-01-16T13:52:59Z</time>
      </trkpt>
      <trkpt lat="47.57248" lon="-2.32256">
        <ele>66.1</ele>
        <time>2025-01-16T13:53:00Z</time>
      </trkpt>
      <trkpt lat="47.57248" lon="-2.32255">
        <ele>66.1</ele>
        <time>2025-01-16T13:53:01Z</time>
      </trkpt>
      <trkpt lat="47.57249" lon="-2.32254">
        <ele>66.1</ele>
        <time>2025-01-16T13:53:02Z</time>
      </trkpt>
      <trkpt lat="47.5725" lon="-2.32253">
        <ele>66.1</ele>
        <time>2025-01-16T13:53:03Z</time>
      </trkpt>
      <trkpt lat="47.57251" lon="-2.32252">
        <ele>66.1</ele>
        <time>2025-01-16T13:53:04Z</time>
      </trkpt>
      <trkpt lat="47.57252" lon="-2.32251">
        <ele>66.2</ele>
        <time>2025-01-16T13:53:05Z</time>
      </trkpt>
      <trkpt lat="47.57253" lon="-2.3225">
        <ele>66.2</ele>
        <time>2025-01-16T13:53:06Z</time>
      </trkpt>
      <trkpt lat="47.57253" lon="-2.32249">
        <ele>66.2</ele>
        <time>2025-01-16T13:53:07Z</time>
      </trkpt>
      <trkpt lat="47.57254" lon="-2.32248">
        <ele>66.3</ele>
        <time>2025-01-16T13:53:08Z</time>
      </trkpt>
      <trkpt lat="47.57255" lon="-2.32247">
        <ele>66.3</ele>
        <time>2025-01-16T13:53:09Z</time>
      </trkpt>
      <trkpt lat="47.57255" lon="-2.32245">
        <ele>66.3</ele>
        <time>2025-01-16T13:53:10Z</time>
      </trkpt>
      <trkpt lat="47.57256" lon="-2.32244">
        <ele>66.4</ele>
        <time>2025-01-16T13:53:11Z</time>
      </trkpt>
      <trkpt lat="47.57257" lon="-2.32243">
        <ele>66.4</ele>
        <time>2025-01-16T13:53:12Z</time>
      </trkpt>
      <trkpt lat="47.57258" lon="-2.32242">
        <ele>66.5</ele>
        <time>2025-01-16T13:53:13Z</time>
      </trkpt>
      <trkpt lat="47.57259" lon="-2.32241">
        <ele>66.5</ele>
        <time>2025-01-16T13:53:14Z</time>
      </trkpt>
      <trkpt lat="47.5726" lon="-2.32239">
        <ele>66.6</ele>
        <time>2025-01-16T13:53:15Z</time>
      </trkpt>
      <trkpt lat="47.57261" lon="-2.32238">
        <ele>66.6</ele>
        <time>2025-01-16T13:53:16Z</time>
      </trkpt>
      <trkpt lat="47.57262" lon="-2.32237">
        <ele>66.7</ele>
        <time>2025-01-16T13:53:17Z</time>
      </trkpt>
      <trkpt lat="47.57263" lon="-2.32236">
        <ele>66.7</ele>
        <time>2025-01-16T13:53:18Z</time>
      </trkpt>
      <trkpt lat="47.57264" lon="-2.32235">
        <ele>66.7</ele>
        <time>2025-01-16T13:53:19Z</time>
      </trkpt>
      <trkpt lat="47.57265" lon="-2.32234">
        <ele>66.8</ele>
        <time>2025-01-16T13:53:20Z</time>
      </trkpt>
      <trkpt lat="47.57266" lon="-2.32233">
        <ele>66.8</ele>
        <time>2025-01-16T13:53:21Z</time>
      </trkpt>
      <trkpt lat="47.57267" lon="-2.32233">
        <ele>66.8</ele>
        <time>2025-01-16T13:53:22Z</time>
      </trkpt>
      <trkpt lat="47.57269" lon="-2.32232">
        <ele>66.9</ele>
        <time>2025-01-16T13:53:23Z</time>
      </trkpt>
      <trkpt lat="47.57269" lon="-2.32231">
        <ele>66.9</ele>
        <time>2025-01-16T13:53:24Z</time>
      </trkpt>
      <trkpt lat="47.57269" lon="-2.32231">
        <ele>66.9</ele>
        <time>2025-01-16T13:53:25Z</time>
      </trkpt>
      <trkpt lat="47.5727" lon="-2.32229">
        <ele>66.9</ele>
        <time>2025-01-16T13:53:26Z</time>
      </trkpt>
      <trkpt lat="47.57271" lon="-2.32229">
        <ele>66.9</ele>
        <time>2025-01-16T13:53:27Z</time>
      </trkpt>
      <trkpt lat="47.57272" lon="-2.32228">
        <ele>67</ele>
        <time>2025-01-16T13:53:28Z</time>
      </trkpt>
      <trkpt lat="47.57273" lon="-2.32227">
        <ele>67</ele>
        <time>2025-01-16T13:53:29Z</time>
      </trkpt>
      <trkpt lat="47.57274" lon="-2.32226">
        <ele>67</ele>
        <time>2025-01-16T13:53:30Z</time>
      </trkpt>
      <trkpt lat="47.57275" lon="-2.32225">
        <ele>67</ele>
        <time>2025-01-16T13:53:31Z</time>
      </trkpt>
      <trkpt lat="47.57275" lon="-2.32224">
        <ele>67</ele>
        <time>2025-01-16T13:53:32Z</time>
      </trkpt>
      <trkpt lat="47.57276" lon="-2.32224">
        <ele>67</ele>
        <time>2025-01-16T13:53:33Z</time>
      </trkpt>
      <trkpt lat="47.57277" lon="-2.32223">
        <ele>67</ele>
        <time>2025-01-16T13:53:34Z</time>
      </trkpt>
      <trkpt lat="47.57278" lon="-2.32223">
        <ele>67</ele>
        <time>2025-01-16T13:53:35Z</time>
      </trkpt>
      <trkpt lat="47.57279" lon="-2.32222">
        <ele>67</ele>
        <time>2025-01-16T13:53:36Z</time>
      </trkpt>
      <trkpt lat="47.5728" lon="-2.32221">
        <ele>67.1</ele>
        <time>2025-01-16T13:53:37Z</time>
      </trkpt>
      <trkpt lat="47.57281" lon="-2.3222">
        <ele>67.1</ele>
        <time>2025-01-16T13:53:38Z</time>
      </trkpt>
      <trkpt lat="47.57282" lon="-2.32219">
        <ele>67.2</ele>
        <time>2025-01-16T13:53:39Z</time>
      </trkpt>
      <trkpt lat="47.57283" lon="-2.32218">
        <ele>67.2</ele>
        <time>2025-01-16T13:53:40Z</time>
      </trkpt>
      <trkpt lat="47.57284" lon="-2.32217">
        <ele>67.2</ele>
        <time>2025-01-16T13:53:41Z</time>
      </trkpt>
      <trkpt lat="47.57285" lon="-2.32216">
        <ele>67.3</ele>
        <time>2025-01-16T13:53:42Z</time>
      </trkpt>
      <trkpt lat="47.57286" lon="-2.32215">
        <ele>67.3</ele>
        <time>2025-01-16T13:53:43Z</time>
      </trkpt>
      <trkpt lat="47.57288" lon="-2.32215">
        <ele>67.4</ele>
        <time>2025-01-16T13:53:44Z</time>
      </trkpt>
      <trkpt lat="47.57289" lon="-2.32214">
        <ele>67.4</ele>
        <time>2025-01-16T13:53:45Z</time>
      </trkpt>
      <trkpt lat="47.5729" lon="-2.32214">
        <ele>67.4</ele>
        <time>2025-01-16T13:53:46Z</time>
      </trkpt>
      <trkpt lat="47.57291" lon="-2.32213">
        <ele>67.5</ele>
        <time>2025-01-16T13:53:47Z</time>
      </trkpt>
      <trkpt lat="47.57292" lon="-2.32212">
        <ele>67.5</ele>
        <time>2025-01-16T13:53:48Z</time>
      </trkpt>
      <trkpt lat="47.57293" lon="-2.32211">
        <ele>67.5</ele>
        <time>2025-01-16T13:53:49Z</time>
      </trkpt>
      <trkpt lat="47.57294" lon="-2.3221">
        <ele>67.6</ele>
        <time>2025-01-16T13:53:50Z</time>
      </trkpt>
      <trkpt lat="47.57295" lon="-2.3221">
        <ele>67.6</ele>
        <time>2025-01-16T13:53:51Z</time>
      </trkpt>
      <trkpt lat="47.57296" lon="-2.32209">
        <ele>67.7</ele>
        <time>2025-01-16T13:53:52Z</time>
      </trkpt>
      <trkpt lat="47.57297" lon="-2.32209">
        <ele>67.7</ele>
        <time>2025-01-16T13:53:53Z</time>
      </trkpt>
      <trkpt lat="47.57297" lon="-2.32208">
        <ele>67.7</ele>
        <time>2025-01-16T13:53:54Z</time>
      </trkpt>
      <trkpt lat="47.57298" lon="-2.32207">
        <ele>67.7</ele>
        <time>2025-01-16T13:53:55Z</time>
      </trkpt>
      <trkpt lat="47.57298" lon="-2.32206">
        <ele>67.7</ele>
        <time>2025-01-16T13:53:56Z</time>
      </trkpt>
      <trkpt lat="47.57299" lon="-2.32205">
        <ele>67.8</ele>
        <time>2025-01-16T13:53:57Z</time>
      </trkpt>
      <trkpt lat="47.573" lon="-2.32204">
        <ele>67.8</ele>
        <time>2025-01-16T13:53:58Z</time>
      </trkpt>
      <trkpt lat="47.573" lon="-2.32203">
        <ele>67.8</ele>
        <time>2025-01-16T13:53:59Z</time>
      </trkpt>
      <trkpt lat="47.57301" lon="-2.32203">
        <ele>67.8</ele>
        <time>2025-01-16T13:54:00Z</time>
      </trkpt>
      <trkpt lat="47.57302" lon="-2.32202">
        <ele>67.9</ele>
        <time>2025-01-16T13:54:01Z</time>
      </trkpt>
      <trkpt lat="47.57303" lon="-2.32201">
        <ele>67.9</ele>
        <time>2025-01-16T13:54:02Z</time>
      </trkpt>
      <trkpt lat="47.57305" lon="-2.322">
        <ele>68</ele>
        <time>2025-01-16T13:54:03Z</time>
      </trkpt>
      <trkpt lat="47.57305" lon="-2.32199">
        <ele>68</ele>
        <time>2025-01-16T13:54:04Z</time>
      </trkpt>
      <trkpt lat="47.57306" lon="-2.32199">
        <ele>68</ele>
        <time>2025-01-16T13:54:05Z</time>
      </trkpt>
      <trkpt lat="47.57306" lon="-2.32198">
        <ele>68</ele>
        <time>2025-01-16T13:54:06Z</time>
      </trkpt>
      <trkpt lat="47.57307" lon="-2.32197">
        <ele>68.1</ele>
        <time>2025-01-16T13:54:07Z</time>
      </trkpt>
      <trkpt lat="47.57308" lon="-2.32196">
        <ele>68.2</ele>
        <time>2025-01-16T13:54:08Z</time>
      </trkpt>
      <trkpt lat="47.57309" lon="-2.32196">
        <ele>68.2</ele>
        <time>2025-01-16T13:54:09Z</time>
      </trkpt>
      <trkpt lat="47.5731" lon="-2.32195">
        <ele>68.3</ele>
        <time>2025-01-16T13:54:10Z</time>
      </trkpt>
      <trkpt lat="47.57311" lon="-2.32194">
        <ele>68.4</ele>
        <time>2025-01-16T13:54:11Z</time>
      </trkpt>
      <trkpt lat="47.57313" lon="-2.32193">
        <ele>68.6</ele>
        <time>2025-01-16T13:54:12Z</time>
      </trkpt>
      <trkpt lat="47.57314" lon="-2.32193">
        <ele>68.6</ele>
        <time>2025-01-16T13:54:13Z</time>
      </trkpt>
      <trkpt lat="47.57315" lon="-2.32192">
        <ele>68.7</ele>
        <time>2025-01-16T13:54:14Z</time>
      </trkpt>
      <trkpt lat="47.57316" lon="-2.32191">
        <ele>68.8</ele>
        <time>2025-01-16T13:54:15Z</time>
      </trkpt>
      <trkpt lat="47.57317" lon="-2.32191">
        <ele>68.9</ele>
        <time>2025-01-16T13:54:16Z</time>
      </trkpt>
      <trkpt lat="47.57318" lon="-2.3219">
        <ele>69</ele>
        <time>2025-01-16T13:54:17Z</time>
      </trkpt>
      <trkpt lat="47.57319" lon="-2.32189">
        <ele>69.1</ele>
        <time>2025-01-16T13:54:18Z</time>
      </trkpt>
      <trkpt lat="47.5732" lon="-2.32189">
        <ele>69.1</ele>
        <time>2025-01-16T13:54:19Z</time>
      </trkpt>
      <trkpt lat="47.57321" lon="-2.32189">
        <ele>69.2</ele>
        <time>2025-01-16T13:54:20Z</time>
      </trkpt>
      <trkpt lat="47.57322" lon="-2.32189">
        <ele>69.3</ele>
        <time>2025-01-16T13:54:21Z</time>
      </trkpt>
      <trkpt lat="47.57324" lon="-2.32189">
        <ele>69.4</ele>
        <time>2025-01-16T13:54:22Z</time>
      </trkpt>
      <trkpt lat="47.57325" lon="-2.32189">
        <ele>69.5</ele>
        <time>2025-01-16T13:54:23Z</time>
      </trkpt>
      <trkpt lat="47.57326" lon="-2.32189">
        <ele>69.5</ele>
        <time>2025-01-16T13:54:24Z</time>
      </trkpt>
      <trkpt lat="47.57327" lon="-2.3219">
        <ele>69.6</ele>
        <time>2025-01-16T13:54:25Z</time>
      </trkpt>
      <trkpt lat="47.57328" lon="-2.3219">
        <ele>69.6</ele>
        <time>2025-01-16T13:54:26Z</time>
      </trkpt>
      <trkpt lat="47.57329" lon="-2.3219">
        <ele>69.7</ele>
        <time>2025-01-16T13:54:27Z</time>
      </trkpt>
      <trkpt lat="47.5733" lon="-2.32191">
        <ele>69.8</ele>
        <time>2025-01-16T13:54:28Z</time>
      </trkpt>
      <trkpt lat="47.57331" lon="-2.32191">
        <ele>69.8</ele>
        <time>2025-01-16T13:54:29Z</time>
      </trkpt>
      <trkpt lat="47.57332" lon="-2.32192">
        <ele>69.9</ele>
        <time>2025-01-16T13:54:30Z</time>
      </trkpt>
      <trkpt lat="47.57333" lon="-2.32193">
        <ele>70</ele>
        <time>2025-01-16T13:54:31Z</time>
      </trkpt>
      <trkpt lat="47.57334" lon="-2.32194">
        <ele>70</ele>
        <time>2025-01-16T13:54:32Z</time>
      </trkpt>
      <trkpt lat="47.57335" lon="-2.32195">
        <ele>70.1</ele>
        <time>2025-01-16T13:54:33Z</time>
      </trkpt>
      <trkpt lat="47.57336" lon="-2.32197">
        <ele>70.1</ele>
        <time>2025-01-16T13:54:34Z</time>
      </trkpt>
      <trkpt lat="47.57337" lon="-2.32198">
        <ele>70.1</ele>
        <time>2025-01-16T13:54:35Z</time>
      </trkpt>
      <trkpt lat="47.57338" lon="-2.32199">
        <ele>70.2</ele>
        <time>2025-01-16T13:54:36Z</time>
      </trkpt>
      <trkpt lat="47.57338" lon="-2.322">
        <ele>70.2</ele>
        <time>2025-01-16T13:54:37Z</time>
      </trkpt>
      <trkpt lat="47.57339" lon="-2.32202">
        <ele>70.2</ele>
        <time>2025-01-16T13:54:38Z</time>
      </trkpt>
      <trkpt lat="47.5734" lon="-2.32204">
        <ele>70.2</ele>
        <time>2025-01-16T13:54:39Z</time>
      </trkpt>
      <trkpt lat="47.5734" lon="-2.32206">
        <ele>70.2</ele>
        <time>2025-01-16T13:54:40Z</time>
      </trkpt>
      <trkpt lat="47.57341" lon="-2.32207">
        <ele>70.3</ele>
        <time>2025-01-16T13:54:41Z</time>
      </trkpt>
      <trkpt lat="47.57341" lon="-2.32208">
        <ele>70.3</ele>
        <time>2025-01-16T13:54:42Z</time>
      </trkpt>
      <trkpt lat="47.57342" lon="-2.3221">
        <ele>70.3</ele>
        <time>2025-01-16T13:54:43Z</time>
      </trkpt>
      <trkpt lat="47.57342" lon="-2.32211">
        <ele>70.3</ele>
        <time>2025-01-16T13:54:44Z</time>
      </trkpt>
      <trkpt lat="47.57343" lon="-2.32213">
        <ele>70.3</ele>
        <time>2025-01-16T13:54:45Z</time>
      </trkpt>
      <trkpt lat="47.57343" lon="-2.32215">
        <ele>70.3</ele>
        <time>2025-01-16T13:54:46Z</time>
      </trkpt>
      <trkpt lat="47.57344" lon="-2.32217">
        <ele>70.4</ele>
        <time>2025-01-16T13:54:47Z</time>
      </trkpt>
      <trkpt lat="47.57345" lon="-2.32219">
        <ele>70.4</ele>
        <time>2025-01-16T13:54:48Z</time>
      </trkpt>
      <trkpt lat="47.57345" lon="-2.32221">
        <ele>70.4</ele>
        <time>2025-01-16T13:54:49Z</time>
      </trkpt>
      <trkpt lat="47.57345" lon="-2.32223">
        <ele>70.4</ele>
        <time>2025-01-16T13:54:50Z</time>
      </trkpt>
      <trkpt lat="47.57345" lon="-2.32225">
        <ele>70.4</ele>
        <time>2025-01-16T13:54:51Z</time>
      </trkpt>
      <trkpt lat="47.57346" lon="-2.32226">
        <ele>70.5</ele>
        <time>2025-01-16T13:54:52Z</time>
      </trkpt>
      <trkpt lat="47.57346" lon="-2.32228">
        <ele>70.5</ele>
        <time>2025-01-16T13:54:53Z</time>
      </trkpt>
      <trkpt lat="47.57346" lon="-2.32229">
        <ele>70.5</ele>
        <time>2025-01-16T13:54:54Z</time>
      </trkpt>
      <trkpt lat="47.57347" lon="-2.32231">
        <ele>70.5</ele>
        <time>2025-01-16T13:54:55Z</time>
      </trkpt>
      <trkpt lat="47.57347" lon="-2.32233">
        <ele>70.5</ele>
        <time>2025-01-16T13:54:56Z</time>
      </trkpt>
      <trkpt lat="47.57347" lon="-2.32233">
        <ele>70.5</ele>
        <time>2025-01-16T13:54:57Z</time>
      </trkpt>
      <trkpt lat="47.57347" lon="-2.32234">
        <ele>70.5</ele>
        <time>2025-01-16T13:54:58Z</time>
      </trkpt>
      <trkpt lat="47.57348" lon="-2.32235">
        <ele>70.5</ele>
        <time>2025-01-16T13:54:59Z</time>
      </trkpt>
      <trkpt lat="47.57348" lon="-2.32237">
        <ele>70.5</ele>
        <time>2025-01-16T13:55:00Z</time>
      </trkpt>
      <trkpt lat="47.57348" lon="-2.32238">
        <ele>70.5</ele>
        <time>2025-01-16T13:55:01Z</time>
      </trkpt>
      <trkpt lat="47.57349" lon="-2.3224">
        <ele>70.6</ele>
        <time>2025-01-16T13:55:02Z</time>
      </trkpt>
      <trkpt lat="47.57349" lon="-2.32241">
        <ele>70.6</ele>
        <time>2025-01-16T13:55:03Z</time>
      </trkpt>
      <trkpt lat="47.57349" lon="-2.32243">
        <ele>70.6</ele>
        <time>2025-01-16T13:55:04Z</time>
      </trkpt>
      <trkpt lat="47.5735" lon="-2.32244">
        <ele>70.6</ele>
        <time>2025-01-16T13:55:05Z</time>
      </trkpt>
      <trkpt lat="47.5735" lon="-2.32245">
        <ele>70.6</ele>
        <time>2025-01-16T13:55:06Z</time>
      </trkpt>
      <trkpt lat="47.5735" lon="-2.32247">
        <ele>70.6</ele>
        <time>2025-01-16T13:55:07Z</time>
      </trkpt>
      <trkpt lat="47.57351" lon="-2.32248">
        <ele>70.6</ele>
        <time>2025-01-16T13:55:08Z</time>
      </trkpt>
      <trkpt lat="47.57351" lon="-2.3225">
        <ele>70.6</ele>
        <time>2025-01-16T13:55:09Z</time>
      </trkpt>
      <trkpt lat="47.57352" lon="-2.3225">
        <ele>70.7</ele>
        <time>2025-01-16T13:55:10Z</time>
      </trkpt>
      <trkpt lat="47.57353" lon="-2.32251">
        <ele>70.7</ele>
        <time>2025-01-16T13:55:11Z</time>
      </trkpt>
      <trkpt lat="47.57354" lon="-2.32253">
        <ele>70.7</ele>
        <time>2025-01-16T13:55:12Z</time>
      </trkpt>
      <trkpt lat="47.57354" lon="-2.32254">
        <ele>70.6</ele>
        <time>2025-01-16T13:55:13Z</time>
      </trkpt>
      <trkpt lat="47.57355" lon="-2.32256">
        <ele>70.6</ele>
        <time>2025-01-16T13:55:14Z</time>
      </trkpt>
      <trkpt lat="47.57356" lon="-2.32257">
        <ele>70.6</ele>
        <time>2025-01-16T13:55:15Z</time>
      </trkpt>
      <trkpt lat="47.57357" lon="-2.32259">
        <ele>70.6</ele>
        <time>2025-01-16T13:55:16Z</time>
      </trkpt>
      <trkpt lat="47.57357" lon="-2.32261">
        <ele>70.5</ele>
        <time>2025-01-16T13:55:17Z</time>
      </trkpt>
      <trkpt lat="47.57358" lon="-2.32263">
        <ele>70.5</ele>
        <time>2025-01-16T13:55:18Z</time>
      </trkpt>
      <trkpt lat="47.57359" lon="-2.32265">
        <ele>70.4</ele>
        <time>2025-01-16T13:55:19Z</time>
      </trkpt>
      <trkpt lat="47.57359" lon="-2.32267">
        <ele>70.4</ele>
        <time>2025-01-16T13:55:20Z</time>
      </trkpt>
      <trkpt lat="47.5736" lon="-2.32269">
        <ele>70.3</ele>
        <time>2025-01-16T13:55:21Z</time>
      </trkpt>
      <trkpt lat="47.57361" lon="-2.32271">
        <ele>70.2</ele>
        <time>2025-01-16T13:55:22Z</time>
      </trkpt>
      <trkpt lat="47.57361" lon="-2.32273">
        <ele>70.2</ele>
        <time>2025-01-16T13:55:23Z</time>
      </trkpt>
      <trkpt lat="47.57362" lon="-2.32275">
        <ele>70.2</ele>
        <time>2025-01-16T13:55:24Z</time>
      </trkpt>
      <trkpt lat="47.57363" lon="-2.32276">
        <ele>70.2</ele>
        <time>2025-01-16T13:55:25Z</time>
      </trkpt>
      <trkpt lat="47.57363" lon="-2.32277">
        <ele>70.2</ele>
        <time>2025-01-16T13:55:26Z</time>
      </trkpt>
      <trkpt lat="47.57364" lon="-2.32279">
        <ele>70.2</ele>
        <time>2025-01-16T13:55:27Z</time>
      </trkpt>
      <trkpt lat="47.57365" lon="-2.32281">
        <ele>70.3</ele>
        <time>2025-01-16T13:55:28Z</time>
      </trkpt>
      <trkpt lat="47.57367" lon="-2.32283">
        <ele>70.4</ele>
        <time>2025-01-16T13:55:29Z</time>
      </trkpt>
      <trkpt lat="47.57367" lon="-2.32284">
        <ele>70.4</ele>
        <time>2025-01-16T13:55:30Z</time>
      </trkpt>
      <trkpt lat="47.57368" lon="-2.32286">
        <ele>70.5</ele>
        <time>2025-01-16T13:55:31Z</time>
      </trkpt>
      <trkpt lat="47.57369" lon="-2.32287">
        <ele>70.6</ele>
        <time>2025-01-16T13:55:32Z</time>
      </trkpt>
      <trkpt lat="47.5737" lon="-2.32288">
        <ele>70.6</ele>
        <time>2025-01-16T13:55:33Z</time>
      </trkpt>
      <trkpt lat="47.57371" lon="-2.32289">
        <ele>70.7</ele>
        <time>2025-01-16T13:55:34Z</time>
      </trkpt>
      <trkpt lat="47.57372" lon="-2.3229">
        <ele>70.8</ele>
        <time>2025-01-16T13:55:35Z</time>
      </trkpt>
      <trkpt lat="47.57374" lon="-2.32291">
        <ele>70.9</ele>
        <time>2025-01-16T13:55:36Z</time>
      </trkpt>
      <trkpt lat="47.57375" lon="-2.32291">
        <ele>71</ele>
        <time>2025-01-16T13:55:37Z</time>
      </trkpt>
      <trkpt lat="47.57376" lon="-2.32291">
        <ele>71.1</ele>
        <time>2025-01-16T13:55:38Z</time>
      </trkpt>
      <trkpt lat="47.57377" lon="-2.3229">
        <ele>71.1</ele>
        <time>2025-01-16T13:55:39Z</time>
      </trkpt>
      <trkpt lat="47.57378" lon="-2.32289">
        <ele>71.2</ele>
        <time>2025-01-16T13:55:40Z</time>
      </trkpt>
      <trkpt lat="47.57379" lon="-2.32289">
        <ele>71.3</ele>
        <time>2025-01-16T13:55:41Z</time>
      </trkpt>
      <trkpt lat="47.5738" lon="-2.32288">
        <ele>71.4</ele>
        <time>2025-01-16T13:55:42Z</time>
      </trkpt>
      <trkpt lat="47.57381" lon="-2.32288">
        <ele>71.4</ele>
        <time>2025-01-16T13:55:43Z</time>
      </trkpt>
      <trkpt lat="47.57382" lon="-2.32287">
        <ele>71.5</ele>
        <time>2025-01-16T13:55:44Z</time>
      </trkpt>
      <trkpt lat="47.57383" lon="-2.32287">
        <ele>71.6</ele>
        <time>2025-01-16T13:55:45Z</time>
      </trkpt>
      <trkpt lat="47.57384" lon="-2.32286">
        <ele>71.6</ele>
        <time>2025-01-16T13:55:46Z</time>
      </trkpt>
      <trkpt lat="47.57384" lon="-2.32285">
        <ele>71.6</ele>
        <time>2025-01-16T13:55:47Z</time>
      </trkpt>
      <trkpt lat="47.57385" lon="-2.32285">
        <ele>71.7</ele>
        <time>2025-01-16T13:55:48Z</time>
      </trkpt>
      <trkpt lat="47.57385" lon="-2.32284">
        <ele>71.7</ele>
        <time>2025-01-16T13:55:49Z</time>
      </trkpt>
      <trkpt lat="47.57385" lon="-2.32284">
        <ele>71.7</ele>
        <time>2025-01-16T13:55:50Z</time>
      </trkpt>
      <trkpt lat="47.57385" lon="-2.32284">
        <ele>71.7</ele>
        <time>2025-01-16T13:55:51Z</time>
      </trkpt>
      <trkpt lat="47.57385" lon="-2.32284">
        <ele>71.7</ele>
        <time>2025-01-16T13:55:52Z</time>
      </trkpt>
      <trkpt lat="47.57385" lon="-2.32284">
        <ele>71.7</ele>
        <time>2025-01-16T13:55:53Z</time>
      </trkpt>
      <trkpt lat="47.57385" lon="-2.32284">
        <ele>71.7</ele>
        <time>2025-01-16T13:55:54Z</time>
      </trkpt>
      <trkpt lat="47.57386" lon="-2.32284">
        <ele>71.8</ele>
        <time>2025-01-16T13:55:55Z</time>
      </trkpt>
      <trkpt lat="47.57386" lon="-2.32284">
        <ele>71.8</ele>
        <time>2025-01-16T13:55:56Z</time>
      </trkpt>
      <trkpt lat="47.57387" lon="-2.32283">
        <ele>71.9</ele>
        <time>2025-01-16T13:55:57Z</time>
      </trkpt>
      <trkpt lat="47.57388" lon="-2.32282">
        <ele>71.9</ele>
        <time>2025-01-16T13:55:58Z</time>
      </trkpt>
      <trkpt lat="47.57389" lon="-2.32281">
        <ele>72</ele>
        <time>2025-01-16T13:55:59Z</time>
      </trkpt>
      <trkpt lat="47.57391" lon="-2.32281">
        <ele>72</ele>
        <time>2025-01-16T13:56:00Z</time>
      </trkpt>
      <trkpt lat="47.57393" lon="-2.3228">
        <ele>72</ele>
        <time>2025-01-16T13:56:01Z</time>
      </trkpt>
      <trkpt lat="47.57395" lon="-2.3228">
        <ele>72</ele>
        <time>2025-01-16T13:56:02Z</time>
      </trkpt>
      <trkpt lat="47.57396" lon="-2.32279">
        <ele>72</ele>
        <time>2025-01-16T13:56:03Z</time>
      </trkpt>
      <trkpt lat="47.57397" lon="-2.32279">
        <ele>72</ele>
        <time>2025-01-16T13:56:04Z</time>
      </trkpt>
      <trkpt lat="47.57397" lon="-2.32279">
        <ele>72</ele>
        <time>2025-01-16T13:56:05Z</time>
      </trkpt>
      <trkpt lat="47.57398" lon="-2.32279">
        <ele>72</ele>
        <time>2025-01-16T13:56:06Z</time>
      </trkpt>
      <trkpt lat="47.57398" lon="-2.32278">
        <ele>72</ele>
        <time>2025-01-16T13:56:07Z</time>
      </trkpt>
      <trkpt lat="47.57399" lon="-2.32278">
        <ele>72</ele>
        <time>2025-01-16T13:56:08Z</time>
      </trkpt>
      <trkpt lat="47.574" lon="-2.32278">
        <ele>72</ele>
        <time>2025-01-16T13:56:09Z</time>
      </trkpt>
      <trkpt lat="47.57401" lon="-2.32277">
        <ele>72</ele>
        <time>2025-01-16T13:56:10Z</time>
      </trkpt>
      <trkpt lat="47.57402" lon="-2.32277">
        <ele>72</ele>
        <time>2025-01-16T13:56:11Z</time>
      </trkpt>
      <trkpt lat="47.57403" lon="-2.32276">
        <ele>72</ele>
        <time>2025-01-16T13:56:12Z</time>
      </trkpt>
      <trkpt lat="47.57405" lon="-2.32275">
        <ele>72.1</ele>
        <time>2025-01-16T13:56:13Z</time>
      </trkpt>
      <trkpt lat="47.57406" lon="-2.32275">
        <ele>72.1</ele>
        <time>2025-01-16T13:56:14Z</time>
      </trkpt>
      <trkpt lat="47.57407" lon="-2.32275">
        <ele>72.1</ele>
        <time>2025-01-16T13:56:15Z</time>
      </trkpt>
      <trkpt lat="47.57408" lon="-2.32274">
        <ele>72.1</ele>
        <time>2025-01-16T13:56:16Z</time>
      </trkpt>
      <trkpt lat="47.57409" lon="-2.32274">
        <ele>72.1</ele>
        <time>2025-01-16T13:56:17Z</time>
      </trkpt>
      <trkpt lat="47.57411" lon="-2.32274">
        <ele>72.1</ele>
        <time>2025-01-16T13:56:18Z</time>
      </trkpt>
      <trkpt lat="47.57411" lon="-2.32273">
        <ele>72.1</ele>
        <time>2025-01-16T13:56:19Z</time>
      </trkpt>
      <trkpt lat="47.57412" lon="-2.32273">
        <ele>72.1</ele>
        <time>2025-01-16T13:56:20Z</time>
      </trkpt>
      <trkpt lat="47.57413" lon="-2.32273">
        <ele>72.1</ele>
        <time>2025-01-16T13:56:21Z</time>
      </trkpt>
      <trkpt lat="47.57414" lon="-2.32273">
        <ele>72.2</ele>
        <time>2025-01-16T13:56:22Z</time>
      </trkpt>
      <trkpt lat="47.57415" lon="-2.32272">
        <ele>72.2</ele>
        <time>2025-01-16T13:56:23Z</time>
      </trkpt>
      <trkpt lat="47.57416" lon="-2.32272">
        <ele>72.2</ele>
        <time>2025-01-16T13:56:24Z</time>
      </trkpt>
      <trkpt lat="47.57418" lon="-2.32272">
        <ele>72.2</ele>
        <time>2025-01-16T13:56:25Z</time>
      </trkpt>
      <trkpt lat="47.57419" lon="-2.32272">
        <ele>72.3</ele>
        <time>2025-01-16T13:56:26Z</time>
      </trkpt>
      <trkpt lat="47.57419" lon="-2.32271">
        <ele>72.3</ele>
        <time>2025-01-16T13:56:27Z</time>
      </trkpt>
      <trkpt lat="47.5742" lon="-2.3227">
        <ele>72.4</ele>
        <time>2025-01-16T13:56:28Z</time>
      </trkpt>
      <trkpt lat="47.57421" lon="-2.32269">
        <ele>72.4</ele>
        <time>2025-01-16T13:56:29Z</time>
      </trkpt>
      <trkpt lat="47.57422" lon="-2.32269">
        <ele>72.4</ele>
        <time>2025-01-16T13:56:30Z</time>
      </trkpt>
      <trkpt lat="47.57423" lon="-2.32268">
        <ele>72.5</ele>
        <time>2025-01-16T13:56:31Z</time>
      </trkpt>
      <trkpt lat="47.57425" lon="-2.32268">
        <ele>72.5</ele>
        <time>2025-01-16T13:56:32Z</time>
      </trkpt>
      <trkpt lat="47.57426" lon="-2.32268">
        <ele>72.6</ele>
        <time>2025-01-16T13:56:33Z</time>
      </trkpt>
      <trkpt lat="47.57427" lon="-2.32268">
        <ele>72.6</ele>
        <time>2025-01-16T13:56:34Z</time>
      </trkpt>
      <trkpt lat="47.57428" lon="-2.32268">
        <ele>72.6</ele>
        <time>2025-01-16T13:56:35Z</time>
      </trkpt>
      <trkpt lat="47.57429" lon="-2.32268">
        <ele>72.6</ele>
        <time>2025-01-16T13:56:36Z</time>
      </trkpt>
      <trkpt lat="47.57431" lon="-2.32267">
        <ele>72.7</ele>
        <time>2025-01-16T13:56:37Z</time>
      </trkpt>
      <trkpt lat="47.57433" lon="-2.32267">
        <ele>72.7</ele>
        <time>2025-01-16T13:56:38Z</time>
      </trkpt>
      <trkpt lat="47.57434" lon="-2.32266">
        <ele>72.8</ele>
        <time>2025-01-16T13:56:39Z</time>
      </trkpt>
      <trkpt lat="47.57435" lon="-2.32266">
        <ele>72.8</ele>
        <time>2025-01-16T13:56:40Z</time>
      </trkpt>
      <trkpt lat="47.57437" lon="-2.32265">
        <ele>72.9</ele>
        <time>2025-01-16T13:56:41Z</time>
      </trkpt>
      <trkpt lat="47.57439" lon="-2.32264">
        <ele>72.9</ele>
        <time>2025-01-16T13:56:42Z</time>
      </trkpt>
      <trkpt lat="47.5744" lon="-2.32264">
        <ele>72.9</ele>
        <time>2025-01-16T13:56:43Z</time>
      </trkpt>
      <trkpt lat="47.57442" lon="-2.32265">
        <ele>73</ele>
        <time>2025-01-16T13:56:44Z</time>
      </trkpt>
      <trkpt lat="47.57444" lon="-2.32265">
        <ele>73</ele>
        <time>2025-01-16T13:56:45Z</time>
      </trkpt>
      <trkpt lat="47.57446" lon="-2.32265">
        <ele>73</ele>
        <time>2025-01-16T13:56:46Z</time>
      </trkpt>
      <trkpt lat="47.57448" lon="-2.32265">
        <ele>73</ele>
        <time>2025-01-16T13:56:47Z</time>
      </trkpt>
      <trkpt lat="47.57449" lon="-2.32264">
        <ele>73</ele>
        <time>2025-01-16T13:56:48Z</time>
      </trkpt>
      <trkpt lat="47.5745" lon="-2.32264">
        <ele>73</ele>
        <time>2025-01-16T13:56:49Z</time>
      </trkpt>
      <trkpt lat="47.57452" lon="-2.32264">
        <ele>73</ele>
        <time>2025-01-16T13:56:50Z</time>
      </trkpt>
      <trkpt lat="47.57453" lon="-2.32264">
        <ele>73</ele>
        <time>2025-01-16T13:56:51Z</time>
      </trkpt>
      <trkpt lat="47.57454" lon="-2.32264">
        <ele>73</ele>
        <time>2025-01-16T13:56:52Z</time>
      </trkpt>
      <trkpt lat="47.57455" lon="-2.32264">
        <ele>73</ele>
        <time>2025-01-16T13:56:53Z</time>
      </trkpt>
      <trkpt lat="47.57457" lon="-2.32264">
        <ele>73</ele>
        <time>2025-01-16T13:56:54Z</time>
      </trkpt>
      <trkpt lat="47.57458" lon="-2.32263">
        <ele>73</ele>
        <time>2025-01-16T13:56:55Z</time>
      </trkpt>
      <trkpt lat="47.57458" lon="-2.32263">
        <ele>73</ele>
        <time>2025-01-16T13:56:56Z</time>
      </trkpt>
      <trkpt lat="47.57459" lon="-2.32262">
        <ele>73</ele>
        <time>2025-01-16T13:56:57Z</time>
      </trkpt>
      <trkpt lat="47.5746" lon="-2.32262">
        <ele>73</ele>
        <time>2025-01-16T13:56:58Z</time>
      </trkpt>
      <trkpt lat="47.57462" lon="-2.32261">
        <ele>73</ele>
        <time>2025-01-16T13:56:59Z</time>
      </trkpt>
      <trkpt lat="47.57464" lon="-2.32261">
        <ele>73</ele>
        <time>2025-01-16T13:57:00Z</time>
      </trkpt>
      <trkpt lat="47.57465" lon="-2.32261">
        <ele>73</ele>
        <time>2025-01-16T13:57:01Z</time>
      </trkpt>
      <trkpt lat="47.57467" lon="-2.3226">
        <ele>73</ele>
        <time>2025-01-16T13:57:02Z</time>
      </trkpt>
      <trkpt lat="47.57468" lon="-2.3226">
        <ele>73</ele>
        <time>2025-01-16T13:57:03Z</time>
      </trkpt>
      <trkpt lat="47.5747" lon="-2.3226">
        <ele>73</ele>
        <time>2025-01-16T13:57:04Z</time>
      </trkpt>
      <trkpt lat="47.57471" lon="-2.3226">
        <ele>73</ele>
        <time>2025-01-16T13:57:05Z</time>
      </trkpt>
      <trkpt lat="47.57472" lon="-2.32259">
        <ele>73</ele>
        <time>2025-01-16T13:57:06Z</time>
      </trkpt>
      <trkpt lat="47.57473" lon="-2.32259">
        <ele>73</ele>
        <time>2025-01-16T13:57:07Z</time>
      </trkpt>
      <trkpt lat="47.57474" lon="-2.32259">
        <ele>73</ele>
        <time>2025-01-16T13:57:08Z</time>
      </trkpt>
      <trkpt lat="47.57475" lon="-2.32258">
        <ele>72.9</ele>
        <time>2025-01-16T13:57:09Z</time>
      </trkpt>
      <trkpt lat="47.57476" lon="-2.32258">
        <ele>72.9</ele>
        <time>2025-01-16T13:57:10Z</time>
      </trkpt>
      <trkpt lat="47.57478" lon="-2.32257">
        <ele>72.8</ele>
        <time>2025-01-16T13:57:11Z</time>
      </trkpt>
      <trkpt lat="47.57479" lon="-2.32257">
        <ele>72.8</ele>
        <time>2025-01-16T13:57:12Z</time>
      </trkpt>
      <trkpt lat="47.5748" lon="-2.32256">
        <ele>72.8</ele>
        <time>2025-01-16T13:57:13Z</time>
      </trkpt>
      <trkpt lat="47.57481" lon="-2.32255">
        <ele>72.7</ele>
        <time>2025-01-16T13:57:14Z</time>
      </trkpt>
      <trkpt lat="47.57482" lon="-2.32255">
        <ele>72.7</ele>
        <time>2025-01-16T13:57:15Z</time>
      </trkpt>
      <trkpt lat="47.57482" lon="-2.32255">
        <ele>72.7</ele>
        <time>2025-01-16T13:57:16Z</time>
      </trkpt>
      <trkpt lat="47.57483" lon="-2.32255">
        <ele>72.7</ele>
        <time>2025-01-16T13:57:17Z</time>
      </trkpt>
      <trkpt lat="47.57485" lon="-2.32255">
        <ele>72.6</ele>
        <time>2025-01-16T13:57:18Z</time>
      </trkpt>
      <trkpt lat="47.57486" lon="-2.32254">
        <ele>72.6</ele>
        <time>2025-01-16T13:57:19Z</time>
      </trkpt>
      <trkpt lat="47.57487" lon="-2.32254">
        <ele>72.5</ele>
        <time>2025-01-16T13:57:20Z</time>
      </trkpt>
      <trkpt lat="47.57489" lon="-2.32253">
        <ele>72.5</ele>
        <time>2025-01-16T13:57:21Z</time>
      </trkpt>
      <trkpt lat="47.5749" lon="-2.32253">
        <ele>72.4</ele>
        <time>2025-01-16T13:57:22Z</time>
      </trkpt>
      <trkpt lat="47.57491" lon="-2.32252">
        <ele>72.4</ele>
        <time>2025-01-16T13:57:23Z</time>
      </trkpt>
      <trkpt lat="47.57492" lon="-2.32252">
        <ele>72.3</ele>
        <time>2025-01-16T13:57:24Z</time>
      </trkpt>
      <trkpt lat="47.57492" lon="-2.32252">
        <ele>72.3</ele>
        <time>2025-01-16T13:57:25Z</time>
      </trkpt>
      <trkpt lat="47.57493" lon="-2.32251">
        <ele>72.3</ele>
        <time>2025-01-16T13:57:26Z</time>
      </trkpt>
      <trkpt lat="47.57494" lon="-2.3225">
        <ele>72.2</ele>
        <time>2025-01-16T13:57:27Z</time>
      </trkpt>
      <trkpt lat="47.57495" lon="-2.32249">
        <ele>72.2</ele>
        <time>2025-01-16T13:57:28Z</time>
      </trkpt>
      <trkpt lat="47.57496" lon="-2.32248">
        <ele>72.1</ele>
        <time>2025-01-16T13:57:29Z</time>
      </trkpt>
      <trkpt lat="47.57497" lon="-2.32248">
        <ele>72.1</ele>
        <time>2025-01-16T13:57:30Z</time>
      </trkpt>
      <trkpt lat="47.57497" lon="-2.32247">
        <ele>72.1</ele>
        <time>2025-01-16T13:57:31Z</time>
      </trkpt>
      <trkpt lat="47.57498" lon="-2.32246">
        <ele>72.1</ele>
        <time>2025-01-16T13:57:32Z</time>
      </trkpt>
      <trkpt lat="47.57498" lon="-2.32246">
        <ele>72.1</ele>
        <time>2025-01-16T13:57:33Z</time>
      </trkpt>
      <trkpt lat="47.57499" lon="-2.32246">
        <ele>72</ele>
        <time>2025-01-16T13:57:34Z</time>
      </trkpt>
      <trkpt lat="47.575" lon="-2.32246">
        <ele>72</ele>
        <time>2025-01-16T13:57:35Z</time>
      </trkpt>
      <trkpt lat="47.57501" lon="-2.32245">
        <ele>72</ele>
        <time>2025-01-16T13:57:36Z</time>
      </trkpt>
      <trkpt lat="47.57502" lon="-2.32245">
        <ele>72</ele>
        <time>2025-01-16T13:57:37Z</time>
      </trkpt>
      <trkpt lat="47.57502" lon="-2.32245">
        <ele>72</ele>
        <time>2025-01-16T13:57:38Z</time>
      </trkpt>
      <trkpt lat="47.57503" lon="-2.32244">
        <ele>72</ele>
        <time>2025-01-16T13:57:39Z</time>
      </trkpt>
      <trkpt lat="47.57504" lon="-2.32244">
        <ele>72</ele>
        <time>2025-01-16T13:57:40Z</time>
      </trkpt>
      <trkpt lat="47.57505" lon="-2.32243">
        <ele>72</ele>
        <time>2025-01-16T13:57:41Z</time>
      </trkpt>
      <trkpt lat="47.57506" lon="-2.32242">
        <ele>72</ele>
        <time>2025-01-16T13:57:42Z</time>
      </trkpt>
      <trkpt lat="47.57508" lon="-2.32242">
        <ele>72</ele>
        <time>2025-01-16T13:57:43Z</time>
      </trkpt>
      <trkpt lat="47.57509" lon="-2.32242">
        <ele>72</ele>
        <time>2025-01-16T13:57:44Z</time>
      </trkpt>
      <trkpt lat="47.5751" lon="-2.32242">
        <ele>72</ele>
        <time>2025-01-16T13:57:45Z</time>
      </trkpt>
      <trkpt lat="47.57511" lon="-2.32242">
        <ele>72</ele>
        <time>2025-01-16T13:57:46Z</time>
      </trkpt>
      <trkpt lat="47.57512" lon="-2.32241">
        <ele>72</ele>
        <time>2025-01-16T13:57:47Z</time>
      </trkpt>
      <trkpt lat="47.57512" lon="-2.32241">
        <ele>72</ele>
        <time>2025-01-16T13:57:48Z</time>
      </trkpt>
      <trkpt lat="47.57513" lon="-2.3224">
        <ele>72</ele>
        <time>2025-01-16T13:57:49Z</time>
      </trkpt>
      <trkpt lat="47.57514" lon="-2.32239">
        <ele>72</ele>
        <time>2025-01-16T13:57:50Z</time>
      </trkpt>
      <trkpt lat="47.57515" lon="-2.32239">
        <ele>72</ele>
        <time>2025-01-16T13:57:51Z</time>
      </trkpt>
      <trkpt lat="47.57517" lon="-2.32238">
        <ele>72</ele>
        <time>2025-01-16T13:57:52Z</time>
      </trkpt>
      <trkpt lat="47.57518" lon="-2.32237">
        <ele>72</ele>
        <time>2025-01-16T13:57:53Z</time>
      </trkpt>
      <trkpt lat="47.57519" lon="-2.32236">
        <ele>72</ele>
        <time>2025-01-16T13:57:54Z</time>
      </trkpt>
      <trkpt lat="47.57521" lon="-2.32236">
        <ele>72</ele>
        <time>2025-01-16T13:57:55Z</time>
      </trkpt>
      <trkpt lat="47.57522" lon="-2.32236">
        <ele>72</ele>
        <time>2025-01-16T13:57:56Z</time>
      </trkpt>
      <trkpt lat="47.57523" lon="-2.32236">
        <ele>72</ele>
        <time>2025-01-16T13:57:57Z</time>
      </trkpt>
      <trkpt lat="47.57524" lon="-2.32235">
        <ele>72</ele>
        <time>2025-01-16T13:57:58Z</time>
      </trkpt>
      <trkpt lat="47.57525" lon="-2.32235">
        <ele>72</ele>
        <time>2025-01-16T13:57:59Z</time>
      </trkpt>
      <trkpt lat="47.57526" lon="-2.32234">
        <ele>72</ele>
        <time>2025-01-16T13:58:00Z</time>
      </trkpt>
      <trkpt lat="47.57527" lon="-2.32234">
        <ele>72</ele>
        <time>2025-01-16T13:58:01Z</time>
      </trkpt>
      <trkpt lat="47.57528" lon="-2.32234">
        <ele>72</ele>
        <time>2025-01-16T13:58:02Z</time>
      </trkpt>
      <trkpt lat="47.57529" lon="-2.32233">
        <ele>72</ele>
        <time>2025-01-16T13:58:03Z</time>
      </trkpt>
      <trkpt lat="47.5753" lon="-2.32233">
        <ele>71.9</ele>
        <time>2025-01-16T13:58:04Z</time>
      </trkpt>
      <trkpt lat="47.57531" lon="-2.32232">
        <ele>71.9</ele>
        <time>2025-01-16T13:58:05Z</time>
      </trkpt>
      <trkpt lat="47.57532" lon="-2.32232">
        <ele>71.8</ele>
        <time>2025-01-16T13:58:06Z</time>
      </trkpt>
      <trkpt lat="47.57533" lon="-2.32231">
        <ele>71.8</ele>
        <time>2025-01-16T13:58:07Z</time>
      </trkpt>
      <trkpt lat="47.57534" lon="-2.32231">
        <ele>71.8</ele>
        <time>2025-01-16T13:58:08Z</time>
      </trkpt>
      <trkpt lat="47.57535" lon="-2.3223">
        <ele>71.7</ele>
        <time>2025-01-16T13:58:09Z</time>
      </trkpt>
      <trkpt lat="47.57537" lon="-2.32229">
        <ele>71.7</ele>
        <time>2025-01-16T13:58:10Z</time>
      </trkpt>
      <trkpt lat="47.57538" lon="-2.32228">
        <ele>71.6</ele>
        <time>2025-01-16T13:58:11Z</time>
      </trkpt>
      <trkpt lat="47.57539" lon="-2.32228">
        <ele>71.6</ele>
        <time>2025-01-16T13:58:12Z</time>
      </trkpt>
      <trkpt lat="47.57541" lon="-2.32227">
        <ele>71.5</ele>
        <time>2025-01-16T13:58:13Z</time>
      </trkpt>
      <trkpt lat="47.57542" lon="-2.32226">
        <ele>71.5</ele>
        <time>2025-01-16T13:58:14Z</time>
      </trkpt>
      <trkpt lat="47.57543" lon="-2.32225">
        <ele>71.5</ele>
        <time>2025-01-16T13:58:15Z</time>
      </trkpt>
      <trkpt lat="47.57544" lon="-2.32225">
        <ele>71.4</ele>
        <time>2025-01-16T13:58:16Z</time>
      </trkpt>
      <trkpt lat="47.57546" lon="-2.32225">
        <ele>71.3</ele>
        <time>2025-01-16T13:58:17Z</time>
      </trkpt>
      <trkpt lat="47.57547" lon="-2.32224">
        <ele>71.3</ele>
        <time>2025-01-16T13:58:18Z</time>
      </trkpt>
      <trkpt lat="47.57548" lon="-2.32224">
        <ele>71.3</ele>
        <time>2025-01-16T13:58:19Z</time>
      </trkpt>
      <trkpt lat="47.57549" lon="-2.32223">
        <ele>71.2</ele>
        <time>2025-01-16T13:58:20Z</time>
      </trkpt>
      <trkpt lat="47.57549" lon="-2.32222">
        <ele>71.2</ele>
        <time>2025-01-16T13:58:21Z</time>
      </trkpt>
      <trkpt lat="47.5755" lon="-2.32221">
        <ele>71.2</ele>
        <time>2025-01-16T13:58:22Z</time>
      </trkpt>
      <trkpt lat="47.57551" lon="-2.32221">
        <ele>71.1</ele>
        <time>2025-01-16T13:58:23Z</time>
      </trkpt>
      <trkpt lat="47.57553" lon="-2.3222">
        <ele>71</ele>
        <time>2025-01-16T13:58:24Z</time>
      </trkpt>
      <trkpt lat="47.57554" lon="-2.32219">
        <ele>70.9</ele>
        <time>2025-01-16T13:58:25Z</time>
      </trkpt>
      <trkpt lat="47.57556" lon="-2.32218">
        <ele>70.8</ele>
        <time>2025-01-16T13:58:26Z</time>
      </trkpt>
      <trkpt lat="47.57557" lon="-2.32217">
        <ele>70.8</ele>
        <time>2025-01-16T13:58:27Z</time>
      </trkpt>
      <trkpt lat="47.57558" lon="-2.32216">
        <ele>70.7</ele>
        <time>2025-01-16T13:58:28Z</time>
      </trkpt>
      <trkpt lat="47.57559" lon="-2.32215">
        <ele>70.6</ele>
        <time>2025-01-16T13:58:29Z</time>
      </trkpt>
      <trkpt lat="47.5756" lon="-2.32215">
        <ele>70.6</ele>
        <time>2025-01-16T13:58:30Z</time>
      </trkpt>
      <trkpt lat="47.57561" lon="-2.32214">
        <ele>70.5</ele>
        <time>2025-01-16T13:58:31Z</time>
      </trkpt>
      <trkpt lat="47.57562" lon="-2.32214">
        <ele>70.5</ele>
        <time>2025-01-16T13:58:32Z</time>
      </trkpt>
      <trkpt lat="47.57563" lon="-2.32213">
        <ele>70.4</ele>
        <time>2025-01-16T13:58:33Z</time>
      </trkpt>
      <trkpt lat="47.57563" lon="-2.32212">
        <ele>70.4</ele>
        <time>2025-01-16T13:58:34Z</time>
      </trkpt>
      <trkpt lat="47.57564" lon="-2.32212">
        <ele>70.3</ele>
        <time>2025-01-16T13:58:35Z</time>
      </trkpt>
      <trkpt lat="47.57565" lon="-2.32211">
        <ele>70.3</ele>
        <time>2025-01-16T13:58:36Z</time>
      </trkpt>
      <trkpt lat="47.57566" lon="-2.3221">
        <ele>70.2</ele>
        <time>2025-01-16T13:58:37Z</time>
      </trkpt>
      <trkpt lat="47.57567" lon="-2.3221">
        <ele>70.1</ele>
        <time>2025-01-16T13:58:38Z</time>
      </trkpt>
      <trkpt lat="47.57568" lon="-2.32209">
        <ele>70.1</ele>
        <time>2025-01-16T13:58:39Z</time>
      </trkpt>
      <trkpt lat="47.57569" lon="-2.32209">
        <ele>70</ele>
        <time>2025-01-16T13:58:40Z</time>
      </trkpt>
      <trkpt lat="47.5757" lon="-2.32208">
        <ele>70</ele>
        <time>2025-01-16T13:58:41Z</time>
      </trkpt>
      <trkpt lat="47.57571" lon="-2.32208">
        <ele>69.9</ele>
        <time>2025-01-16T13:58:42Z</time>
      </trkpt>
      <trkpt lat="47.57572" lon="-2.32207">
        <ele>69.9</ele>
        <time>2025-01-16T13:58:43Z</time>
      </trkpt>
      <trkpt lat="47.57573" lon="-2.32207">
        <ele>69.8</ele>
        <time>2025-01-16T13:58:44Z</time>
      </trkpt>
      <trkpt lat="47.57574" lon="-2.32207">
        <ele>69.8</ele>
        <time>2025-01-16T13:58:45Z</time>
      </trkpt>
      <trkpt lat="47.57575" lon="-2.32207">
        <ele>69.8</ele>
        <time>2025-01-16T13:58:46Z</time>
      </trkpt>
      <trkpt lat="47.57576" lon="-2.32207">
        <ele>69.7</ele>
        <time>2025-01-16T13:58:47Z</time>
      </trkpt>
      <trkpt lat="47.57578" lon="-2.32207">
        <ele>69.6</ele>
        <time>2025-01-16T13:58:48Z</time>
      </trkpt>
      <trkpt lat="47.57579" lon="-2.32207">
        <ele>69.6</ele>
        <time>2025-01-16T13:58:49Z</time>
      </trkpt>
      <trkpt lat="47.5758" lon="-2.32206">
        <ele>69.5</ele>
        <time>2025-01-16T13:58:50Z</time>
      </trkpt>
      <trkpt lat="47.57581" lon="-2.32206">
        <ele>69.5</ele>
        <time>2025-01-16T13:58:51Z</time>
      </trkpt>
      <trkpt lat="47.57582" lon="-2.32205">
        <ele>69.4</ele>
        <time>2025-01-16T13:58:52Z</time>
      </trkpt>
      <trkpt lat="47.57583" lon="-2.32204">
        <ele>69.4</ele>
        <time>2025-01-16T13:58:53Z</time>
      </trkpt>
      <trkpt lat="47.57584" lon="-2.32203">
        <ele>69.3</ele>
        <time>2025-01-16T13:58:54Z</time>
      </trkpt>
      <trkpt lat="47.57586" lon="-2.32202">
        <ele>69.2</ele>
        <time>2025-01-16T13:58:55Z</time>
      </trkpt>
      <trkpt lat="47.57587" lon="-2.32201">
        <ele>69.2</ele>
        <time>2025-01-16T13:58:56Z</time>
      </trkpt>
      <trkpt lat="47.57589" lon="-2.322">
        <ele>69.2</ele>
        <time>2025-01-16T13:58:57Z</time>
      </trkpt>
      <trkpt lat="47.57591" lon="-2.32199">
        <ele>69.1</ele>
        <time>2025-01-16T13:58:58Z</time>
      </trkpt>
      <trkpt lat="47.57593" lon="-2.32198">
        <ele>69.1</ele>
        <time>2025-01-16T13:58:59Z</time>
      </trkpt>
      <trkpt lat="47.57594" lon="-2.32197">
        <ele>69.1</ele>
        <time>2025-01-16T13:59:00Z</time>
      </trkpt>
      <trkpt lat="47.57595" lon="-2.32196">
        <ele>69</ele>
        <time>2025-01-16T13:59:01Z</time>
      </trkpt>
      <trkpt lat="47.57597" lon="-2.32195">
        <ele>69</ele>
        <time>2025-01-16T13:59:02Z</time>
      </trkpt>
      <trkpt lat="47.57599" lon="-2.32194">
        <ele>69</ele>
        <time>2025-01-16T13:59:03Z</time>
      </trkpt>
      <trkpt lat="47.576" lon="-2.32194">
        <ele>69</ele>
        <time>2025-01-16T13:59:04Z</time>
      </trkpt>
      <trkpt lat="47.57602" lon="-2.32193">
        <ele>69</ele>
        <time>2025-01-16T13:59:05Z</time>
      </trkpt>
      <trkpt lat="47.57603" lon="-2.32192">
        <ele>68.9</ele>
        <time>2025-01-16T13:59:06Z</time>
      </trkpt>
      <trkpt lat="47.57604" lon="-2.32192">
        <ele>68.9</ele>
        <time>2025-01-16T13:59:07Z</time>
      </trkpt>
      <trkpt lat="47.57605" lon="-2.32191">
        <ele>68.9</ele>
        <time>2025-01-16T13:59:08Z</time>
      </trkpt>
      <trkpt lat="47.57606" lon="-2.32191">
        <ele>68.9</ele>
        <time>2025-01-16T13:59:09Z</time>
      </trkpt>
      <trkpt lat="47.57607" lon="-2.3219">
        <ele>68.9</ele>
        <time>2025-01-16T13:59:10Z</time>
      </trkpt>
      <trkpt lat="47.57608" lon="-2.32189">
        <ele>68.8</ele>
        <time>2025-01-16T13:59:11Z</time>
      </trkpt>
      <trkpt lat="47.57608" lon="-2.32188">
        <ele>68.8</ele>
        <time>2025-01-16T13:59:12Z</time>
      </trkpt>
      <trkpt lat="47.57609" lon="-2.32187">
        <ele>68.8</ele>
        <time>2025-01-16T13:59:13Z</time>
      </trkpt>
      <trkpt lat="47.5761" lon="-2.32187">
        <ele>68.7</ele>
        <time>2025-01-16T13:59:14Z</time>
      </trkpt>
      <trkpt lat="47.57611" lon="-2.32186">
        <ele>68.7</ele>
        <time>2025-01-16T13:59:15Z</time>
      </trkpt>
      <trkpt lat="47.57612" lon="-2.32186">
        <ele>68.7</ele>
        <time>2025-01-16T13:59:16Z</time>
      </trkpt>
      <trkpt lat="47.57614" lon="-2.32185">
        <ele>68.6</ele>
        <time>2025-01-16T13:59:17Z</time>
      </trkpt>
      <trkpt lat="47.57615" lon="-2.32184">
        <ele>68.5</ele>
        <time>2025-01-16T13:59:18Z</time>
      </trkpt>
      <trkpt lat="47.57615" lon="-2.32183">
        <ele>68.5</ele>
        <time>2025-01-16T13:59:19Z</time>
      </trkpt>
      <trkpt lat="47.57617" lon="-2.32181">
        <ele>68.4</ele>
        <time>2025-01-16T13:59:20Z</time>
      </trkpt>
      <trkpt lat="47.57618" lon="-2.3218">
        <ele>68.4</ele>
        <time>2025-01-16T13:59:21Z</time>
      </trkpt>
      <trkpt lat="47.57619" lon="-2.32179">
        <ele>68.3</ele>
        <time>2025-01-16T13:59:22Z</time>
      </trkpt>
      <trkpt lat="47.57621" lon="-2.32177">
        <ele>68.2</ele>
        <time>2025-01-16T13:59:23Z</time>
      </trkpt>
      <trkpt lat="47.57622" lon="-2.32177">
        <ele>68.2</ele>
        <time>2025-01-16T13:59:24Z</time>
      </trkpt>
      <trkpt lat="47.57623" lon="-2.32176">
        <ele>68.2</ele>
        <time>2025-01-16T13:59:25Z</time>
      </trkpt>
      <trkpt lat="47.57624" lon="-2.32176">
        <ele>68.2</ele>
        <time>2025-01-16T13:59:26Z</time>
      </trkpt>
      <trkpt lat="47.57625" lon="-2.32175">
        <ele>68.1</ele>
        <time>2025-01-16T13:59:27Z</time>
      </trkpt>
      <trkpt lat="47.57627" lon="-2.32174">
        <ele>68.1</ele>
        <time>2025-01-16T13:59:28Z</time>
      </trkpt>
      <trkpt lat="47.57628" lon="-2.32172">
        <ele>68.1</ele>
        <time>2025-01-16T13:59:29Z</time>
      </trkpt>
      <trkpt lat="47.57629" lon="-2.32171">
        <ele>68.1</ele>
        <time>2025-01-16T13:59:30Z</time>
      </trkpt>
      <trkpt lat="47.5763" lon="-2.3217">
        <ele>68</ele>
        <time>2025-01-16T13:59:31Z</time>
      </trkpt>
      <trkpt lat="47.57631" lon="-2.32169">
        <ele>68</ele>
        <time>2025-01-16T13:59:32Z</time>
      </trkpt>
      <trkpt lat="47.57632" lon="-2.32168">
        <ele>68</ele>
        <time>2025-01-16T13:59:33Z</time>
      </trkpt>
      <trkpt lat="47.57634" lon="-2.32168">
        <ele>68</ele>
        <time>2025-01-16T13:59:34Z</time>
      </trkpt>
      <trkpt lat="47.57635" lon="-2.32167">
        <ele>68</ele>
        <time>2025-01-16T13:59:35Z</time>
      </trkpt>
      <trkpt lat="47.57637" lon="-2.32166">
        <ele>68</ele>
        <time>2025-01-16T13:59:36Z</time>
      </trkpt>
      <trkpt lat="47.57638" lon="-2.32165">
        <ele>67.9</ele>
        <time>2025-01-16T13:59:37Z</time>
      </trkpt>
      <trkpt lat="47.57639" lon="-2.32164">
        <ele>67.9</ele>
        <time>2025-01-16T13:59:38Z</time>
      </trkpt>
      <trkpt lat="47.5764" lon="-2.32163">
        <ele>67.9</ele>
        <time>2025-01-16T13:59:39Z</time>
      </trkpt>
      <trkpt lat="47.57641" lon="-2.32162">
        <ele>67.8</ele>
        <time>2025-01-16T13:59:40Z</time>
      </trkpt>
      <trkpt lat="47.57642" lon="-2.32161">
        <ele>67.8</ele>
        <time>2025-01-16T13:59:41Z</time>
      </trkpt>
      <trkpt lat="47.57644" lon="-2.3216">
        <ele>67.8</ele>
        <time>2025-01-16T13:59:42Z</time>
      </trkpt>
      <trkpt lat="47.57645" lon="-2.3216">
        <ele>67.8</ele>
        <time>2025-01-16T13:59:43Z</time>
      </trkpt>
      <trkpt lat="47.57646" lon="-2.32159">
        <ele>67.7</ele>
        <time>2025-01-16T13:59:44Z</time>
      </trkpt>
      <trkpt lat="47.57647" lon="-2.32158">
        <ele>67.7</ele>
        <time>2025-01-16T13:59:45Z</time>
      </trkpt>
      <trkpt lat="47.57649" lon="-2.32157">
        <ele>67.7</ele>
        <time>2025-01-16T13:59:46Z</time>
      </trkpt>
      <trkpt lat="47.5765" lon="-2.32156">
        <ele>67.6</ele>
        <time>2025-01-16T13:59:47Z</time>
      </trkpt>
      <trkpt lat="47.5765" lon="-2.32156">
        <ele>67.6</ele>
        <time>2025-01-16T13:59:48Z</time>
      </trkpt>
      <trkpt lat="47.57651" lon="-2.32155">
        <ele>67.6</ele>
        <time>2025-01-16T13:59:49Z</time>
      </trkpt>
      <trkpt lat="47.57652" lon="-2.32154">
        <ele>67.5</ele>
        <time>2025-01-16T13:59:50Z</time>
      </trkpt>
      <trkpt lat="47.57654" lon="-2.32153">
        <ele>67.5</ele>
        <time>2025-01-16T13:59:51Z</time>
      </trkpt>
      <trkpt lat="47.57656" lon="-2.32153">
        <ele>67.5</ele>
        <time>2025-01-16T13:59:52Z</time>
      </trkpt>
      <trkpt lat="47.57657" lon="-2.32152">
        <ele>67.5</ele>
        <time>2025-01-16T13:59:53Z</time>
      </trkpt>
      <trkpt lat="47.57658" lon="-2.32151">
        <ele>67.4</ele>
        <time>2025-01-16T13:59:54Z</time>
      </trkpt>
      <trkpt lat="47.57659" lon="-2.3215">
        <ele>67.4</ele>
        <time>2025-01-16T13:59:55Z</time>
      </trkpt>
      <trkpt lat="47.57661" lon="-2.32149">
        <ele>67.4</ele>
        <time>2025-01-16T13:59:56Z</time>
      </trkpt>
      <trkpt lat="47.57662" lon="-2.32148">
        <ele>67.3</ele>
        <time>2025-01-16T13:59:57Z</time>
      </trkpt>
      <trkpt lat="47.57663" lon="-2.32147">
        <ele>67.3</ele>
        <time>2025-01-16T13:59:58Z</time>
      </trkpt>
      <trkpt lat="47.57664" lon="-2.32145">
        <ele>67.2</ele>
        <time>2025-01-16T13:59:59Z</time>
      </trkpt>
      <trkpt lat="47.57666" lon="-2.32144">
        <ele>67.2</ele>
        <time>2025-01-16T14:00:00Z</time>
      </trkpt>
      <trkpt lat="47.57667" lon="-2.32143">
        <ele>67.1</ele>
        <time>2025-01-16T14:00:01Z</time>
      </trkpt>
      <trkpt lat="47.57668" lon="-2.32142">
        <ele>67.1</ele>
        <time>2025-01-16T14:00:02Z</time>
      </trkpt>
      <trkpt lat="47.57669" lon="-2.32141">
        <ele>67.1</ele>
        <time>2025-01-16T14:00:03Z</time>
      </trkpt>
      <trkpt lat="47.5767" lon="-2.3214">
        <ele>67</ele>
        <time>2025-01-16T14:00:04Z</time>
      </trkpt>
      <trkpt lat="47.5767" lon="-2.3214">
        <ele>67</ele>
        <time>2025-01-16T14:00:05Z</time>
      </trkpt>
      <trkpt lat="47.5767" lon="-2.3214">
        <ele>67</ele>
        <time>2025-01-16T14:00:06Z</time>
      </trkpt>
      <trkpt lat="47.57671" lon="-2.32139">
        <ele>67</ele>
        <time>2025-01-16T14:00:07Z</time>
      </trkpt>
      <trkpt lat="47.57672" lon="-2.32138">
        <ele>67</ele>
        <time>2025-01-16T14:00:08Z</time>
      </trkpt>
      <trkpt lat="47.57673" lon="-2.32138">
        <ele>67</ele>
        <time>2025-01-16T14:00:09Z</time>
      </trkpt>
      <trkpt lat="47.57674" lon="-2.32137">
        <ele>66.9</ele>
        <time>2025-01-16T14:00:10Z</time>
      </trkpt>
      <trkpt lat="47.57675" lon="-2.32136">
        <ele>66.9</ele>
        <time>2025-01-16T14:00:11Z</time>
      </trkpt>
      <trkpt lat="47.57676" lon="-2.32136">
        <ele>66.9</ele>
        <time>2025-01-16T14:00:12Z</time>
      </trkpt>
      <trkpt lat="47.57677" lon="-2.32134">
        <ele>66.8</ele>
        <time>2025-01-16T14:00:13Z</time>
      </trkpt>
      <trkpt lat="47.57679" lon="-2.32133">
        <ele>66.8</ele>
        <time>2025-01-16T14:00:14Z</time>
      </trkpt>
      <trkpt lat="47.5768" lon="-2.32132">
        <ele>66.8</ele>
        <time>2025-01-16T14:00:15Z</time>
      </trkpt>
      <trkpt lat="47.57681" lon="-2.32132">
        <ele>66.8</ele>
        <time>2025-01-16T14:00:16Z</time>
      </trkpt>
      <trkpt lat="47.57683" lon="-2.32131">
        <ele>66.7</ele>
        <time>2025-01-16T14:00:17Z</time>
      </trkpt>
      <trkpt lat="47.57684" lon="-2.32131">
        <ele>66.7</ele>
        <time>2025-01-16T14:00:18Z</time>
      </trkpt>
      <trkpt lat="47.57686" lon="-2.3213">
        <ele>66.7</ele>
        <time>2025-01-16T14:00:19Z</time>
      </trkpt>
      <trkpt lat="47.57687" lon="-2.3213">
        <ele>66.7</ele>
        <time>2025-01-16T14:00:20Z</time>
      </trkpt>
      <trkpt lat="47.57688" lon="-2.32129">
        <ele>66.6</ele>
        <time>2025-01-16T14:00:21Z</time>
      </trkpt>
      <trkpt lat="47.5769" lon="-2.32129">
        <ele>66.6</ele>
        <time>2025-01-16T14:00:22Z</time>
      </trkpt>
      <trkpt lat="47.57691" lon="-2.32129">
        <ele>66.6</ele>
        <time>2025-01-16T14:00:23Z</time>
      </trkpt>
      <trkpt lat="47.57691" lon="-2.32128">
        <ele>66.6</ele>
        <time>2025-01-16T14:00:24Z</time>
      </trkpt>
      <trkpt lat="47.57692" lon="-2.32128">
        <ele>66.6</ele>
        <time>2025-01-16T14:00:25Z</time>
      </trkpt>
      <trkpt lat="47.57693" lon="-2.32127">
        <ele>66.6</ele>
        <time>2025-01-16T14:00:26Z</time>
      </trkpt>
      <trkpt lat="47.57695" lon="-2.32127">
        <ele>66.6</ele>
        <time>2025-01-16T14:00:27Z</time>
      </trkpt>
      <trkpt lat="47.57696" lon="-2.32126">
        <ele>66.5</ele>
        <time>2025-01-16T14:00:28Z</time>
      </trkpt>
      <trkpt lat="47.57697" lon="-2.32126">
        <ele>66.5</ele>
        <time>2025-01-16T14:00:29Z</time>
      </trkpt>
      <trkpt lat="47.57699" lon="-2.32126">
        <ele>66.5</ele>
        <time>2025-01-16T14:00:30Z</time>
      </trkpt>
      <trkpt lat="47.577" lon="-2.32126">
        <ele>66.5</ele>
        <time>2025-01-16T14:00:31Z</time>
      </trkpt>
      <trkpt lat="47.57701" lon="-2.32126">
        <ele>66.5</ele>
        <time>2025-01-16T14:00:32Z</time>
      </trkpt>
      <trkpt lat="47.57703" lon="-2.32126">
        <ele>66.5</ele>
        <time>2025-01-16T14:00:33Z</time>
      </trkpt>
      <trkpt lat="47.57704" lon="-2.32125">
        <ele>66.5</ele>
        <time>2025-01-16T14:00:34Z</time>
      </trkpt>
      <trkpt lat="47.57706" lon="-2.32125">
        <ele>66.5</ele>
        <time>2025-01-16T14:00:35Z</time>
      </trkpt>
      <trkpt lat="47.57707" lon="-2.32125">
        <ele>66.5</ele>
        <time>2025-01-16T14:00:36Z</time>
      </trkpt>
      <trkpt lat="47.57709" lon="-2.32124">
        <ele>66.5</ele>
        <time>2025-01-16T14:00:37Z</time>
      </trkpt>
      <trkpt lat="47.5771" lon="-2.32124">
        <ele>66.5</ele>
        <time>2025-01-16T14:00:38Z</time>
      </trkpt>
      <trkpt lat="47.57711" lon="-2.32124">
        <ele>66.5</ele>
        <time>2025-01-16T14:00:39Z</time>
      </trkpt>
      <trkpt lat="47.57713" lon="-2.32123">
        <ele>66.4</ele>
        <time>2025-01-16T14:00:40Z</time>
      </trkpt>
      <trkpt lat="47.57714" lon="-2.32123">
        <ele>66.4</ele>
        <time>2025-01-16T14:00:41Z</time>
      </trkpt>
      <trkpt lat="47.57715" lon="-2.32122">
        <ele>66.4</ele>
        <time>2025-01-16T14:00:42Z</time>
      </trkpt>
      <trkpt lat="47.57716" lon="-2.32121">
        <ele>66.4</ele>
        <time>2025-01-16T14:00:43Z</time>
      </trkpt>
      <trkpt lat="47.57717" lon="-2.32121">
        <ele>66.4</ele>
        <time>2025-01-16T14:00:44Z</time>
      </trkpt>
      <trkpt lat="47.57718" lon="-2.3212">
        <ele>66.3</ele>
        <time>2025-01-16T14:00:45Z</time>
      </trkpt>
      <trkpt lat="47.57719" lon="-2.3212">
        <ele>66.3</ele>
        <time>2025-01-16T14:00:46Z</time>
      </trkpt>
      <trkpt lat="47.5772" lon="-2.32119">
        <ele>66.3</ele>
        <time>2025-01-16T14:00:47Z</time>
      </trkpt>
      <trkpt lat="47.57721" lon="-2.32118">
        <ele>66.2</ele>
        <time>2025-01-16T14:00:48Z</time>
      </trkpt>
      <trkpt lat="47.57722" lon="-2.32118">
        <ele>66.2</ele>
        <time>2025-01-16T14:00:49Z</time>
      </trkpt>
      <trkpt lat="47.57722" lon="-2.32117">
        <ele>66.2</ele>
        <time>2025-01-16T14:00:50Z</time>
      </trkpt>
      <trkpt lat="47.57723" lon="-2.32116">
        <ele>66.2</ele>
        <time>2025-01-16T14:00:51Z</time>
      </trkpt>
      <trkpt lat="47.57725" lon="-2.32116">
        <ele>66.2</ele>
        <time>2025-01-16T14:00:52Z</time>
      </trkpt>
      <trkpt lat="47.57726" lon="-2.32115">
        <ele>66.1</ele>
        <time>2025-01-16T14:00:53Z</time>
      </trkpt>
      <trkpt lat="47.57727" lon="-2.32114">
        <ele>66.1</ele>
        <time>2025-01-16T14:00:54Z</time>
      </trkpt>
      <trkpt lat="47.57728" lon="-2.32114">
        <ele>66.1</ele>
        <time>2025-01-16T14:00:55Z</time>
      </trkpt>
      <trkpt lat="47.5773" lon="-2.32113">
        <ele>66.1</ele>
        <time>2025-01-16T14:00:56Z</time>
      </trkpt>
      <trkpt lat="47.57731" lon="-2.32112">
        <ele>66</ele>
        <time>2025-01-16T14:00:57Z</time>
      </trkpt>
      <trkpt lat="47.57733" lon="-2.32111">
        <ele>66</ele>
        <time>2025-01-16T14:00:58Z</time>
      </trkpt>
      <trkpt lat="47.57734" lon="-2.32111">
        <ele>66</ele>
        <time>2025-01-16T14:00:59Z</time>
      </trkpt>
      <trkpt lat="47.57737" lon="-2.32109">
        <ele>66</ele>
        <time>2025-01-16T14:01:00Z</time>
      </trkpt>
      <trkpt lat="47.57738" lon="-2.32109">
        <ele>66</ele>
        <time>2025-01-16T14:01:01Z</time>
      </trkpt>
      <trkpt lat="47.57738" lon="-2.32109">
        <ele>66</ele>
        <time>2025-01-16T14:01:02Z</time>
      </trkpt>
      <trkpt lat="47.57739" lon="-2.32108">
        <ele>66</ele>
        <time>2025-01-16T14:01:03Z</time>
      </trkpt>
      <trkpt lat="47.57741" lon="-2.32107">
        <ele>66</ele>
        <time>2025-01-16T14:01:04Z</time>
      </trkpt>
      <trkpt lat="47.57742" lon="-2.32106">
        <ele>66</ele>
        <time>2025-01-16T14:01:05Z</time>
      </trkpt>
      <trkpt lat="47.57743" lon="-2.32105">
        <ele>66</ele>
        <time>2025-01-16T14:01:06Z</time>
      </trkpt>
      <trkpt lat="47.57744" lon="-2.32104">
        <ele>66</ele>
        <time>2025-01-16T14:01:07Z</time>
      </trkpt>
      <trkpt lat="47.57746" lon="-2.32103">
        <ele>66</ele>
        <time>2025-01-16T14:01:08Z</time>
      </trkpt>
      <trkpt lat="47.57748" lon="-2.32102">
        <ele>66</ele>
        <time>2025-01-16T14:01:09Z</time>
      </trkpt>
      <trkpt lat="47.57749" lon="-2.32102">
        <ele>66</ele>
        <time>2025-01-16T14:01:10Z</time>
      </trkpt>
      <trkpt lat="47.5775" lon="-2.32101">
        <ele>66</ele>
        <time>2025-01-16T14:01:11Z</time>
      </trkpt>
      <trkpt lat="47.57751" lon="-2.32099">
        <ele>66</ele>
        <time>2025-01-16T14:01:12Z</time>
      </trkpt>
      <trkpt lat="47.57751" lon="-2.32098">
        <ele>66</ele>
        <time>2025-01-16T14:01:13Z</time>
      </trkpt>
      <trkpt lat="47.57752" lon="-2.32097">
        <ele>66</ele>
        <time>2025-01-16T14:01:14Z</time>
      </trkpt>
      <trkpt lat="47.57753" lon="-2.32096">
        <ele>66</ele>
        <time>2025-01-16T14:01:15Z</time>
      </trkpt>
      <trkpt lat="47.57754" lon="-2.32095">
        <ele>66</ele>
        <time>2025-01-16T14:01:16Z</time>
      </trkpt>
      <trkpt lat="47.57755" lon="-2.32094">
        <ele>66</ele>
        <time>2025-01-16T14:01:17Z</time>
      </trkpt>
      <trkpt lat="47.57756" lon="-2.32093">
        <ele>66</ele>
        <time>2025-01-16T14:01:18Z</time>
      </trkpt>
      <trkpt lat="47.57757" lon="-2.32093">
        <ele>66</ele>
        <time>2025-01-16T14:01:19Z</time>
      </trkpt>
      <trkpt lat="47.57758" lon="-2.32092">
        <ele>66</ele>
        <time>2025-01-16T14:01:20Z</time>
      </trkpt>
      <trkpt lat="47.57759" lon="-2.32092">
        <ele>66</ele>
        <time>2025-01-16T14:01:21Z</time>
      </trkpt>
      <trkpt lat="47.57759" lon="-2.32091">
        <ele>66</ele>
        <time>2025-01-16T14:01:22Z</time>
      </trkpt>
      <trkpt lat="47.57759" lon="-2.32091">
        <ele>66</ele>
        <time>2025-01-16T14:01:23Z</time>
      </trkpt>
      <trkpt lat="47.5776" lon="-2.3209">
        <ele>66</ele>
        <time>2025-01-16T14:01:24Z</time>
      </trkpt>
      <trkpt lat="47.57761" lon="-2.32089">
        <ele>66</ele>
        <time>2025-01-16T14:01:25Z</time>
      </trkpt>
      <trkpt lat="47.57762" lon="-2.32087">
        <ele>66</ele>
        <time>2025-01-16T14:01:26Z</time>
      </trkpt>
      <trkpt lat="47.57764" lon="-2.32086">
        <ele>66</ele>
        <time>2025-01-16T14:01:27Z</time>
      </trkpt>
      <trkpt lat="47.57764" lon="-2.32085">
        <ele>66</ele>
        <time>2025-01-16T14:01:28Z</time>
      </trkpt>
      <trkpt lat="47.57765" lon="-2.32084">
        <ele>66</ele>
        <time>2025-01-16T14:01:29Z</time>
      </trkpt>
      <trkpt lat="47.57766" lon="-2.32083">
        <ele>66</ele>
        <time>2025-01-16T14:01:30Z</time>
      </trkpt>
      <trkpt lat="47.57767" lon="-2.32082">
        <ele>66</ele>
        <time>2025-01-16T14:01:31Z</time>
      </trkpt>
      <trkpt lat="47.57768" lon="-2.32082">
        <ele>66</ele>
        <time>2025-01-16T14:01:32Z</time>
      </trkpt>
      <trkpt lat="47.57769" lon="-2.3208">
        <ele>66</ele>
        <time>2025-01-16T14:01:33Z</time>
      </trkpt>
      <trkpt lat="47.5777" lon="-2.3208">
        <ele>66</ele>
        <time>2025-01-16T14:01:34Z</time>
      </trkpt>
      <trkpt lat="47.57771" lon="-2.32079">
        <ele>66</ele>
        <time>2025-01-16T14:01:35Z</time>
      </trkpt>
      <trkpt lat="47.57773" lon="-2.32078">
        <ele>66</ele>
        <time>2025-01-16T14:01:36Z</time>
      </trkpt>
      <trkpt lat="47.57774" lon="-2.32077">
        <ele>66</ele>
        <time>2025-01-16T14:01:37Z</time>
      </trkpt>
      <trkpt lat="47.57776" lon="-2.32076">
        <ele>66</ele>
        <time>2025-01-16T14:01:38Z</time>
      </trkpt>
      <trkpt lat="47.57777" lon="-2.32075">
        <ele>66</ele>
        <time>2025-01-16T14:01:39Z</time>
      </trkpt>
      <trkpt lat="47.57779" lon="-2.32074">
        <ele>66</ele>
        <time>2025-01-16T14:01:40Z</time>
      </trkpt>
      <trkpt lat="47.5778" lon="-2.32072">
        <ele>66</ele>
        <time>2025-01-16T14:01:41Z</time>
      </trkpt>
      <trkpt lat="47.57781" lon="-2.32071">
        <ele>65.9</ele>
        <time>2025-01-16T14:01:42Z</time>
      </trkpt>
      <trkpt lat="47.57781" lon="-2.3207">
        <ele>65.9</ele>
        <time>2025-01-16T14:01:43Z</time>
      </trkpt>
      <trkpt lat="47.57782" lon="-2.32069">
        <ele>65.9</ele>
        <time>2025-01-16T14:01:44Z</time>
      </trkpt>
      <trkpt lat="47.57784" lon="-2.32068">
        <ele>65.9</ele>
        <time>2025-01-16T14:01:45Z</time>
      </trkpt>
      <trkpt lat="47.57786" lon="-2.32067">
        <ele>65.8</ele>
        <time>2025-01-16T14:01:46Z</time>
      </trkpt>
      <trkpt lat="47.57787" lon="-2.32066">
        <ele>65.8</ele>
        <time>2025-01-16T14:01:47Z</time>
      </trkpt>
      <trkpt lat="47.57788" lon="-2.32065">
        <ele>65.8</ele>
        <time>2025-01-16T14:01:48Z</time>
      </trkpt>
      <trkpt lat="47.57789" lon="-2.32064">
        <ele>65.7</ele>
        <time>2025-01-16T14:01:49Z</time>
      </trkpt>
      <trkpt lat="47.57791" lon="-2.32064">
        <ele>65.7</ele>
        <time>2025-01-16T14:01:50Z</time>
      </trkpt>
      <trkpt lat="47.57792" lon="-2.32063">
        <ele>65.6</ele>
        <time>2025-01-16T14:01:51Z</time>
      </trkpt>
      <trkpt lat="47.57793" lon="-2.32062">
        <ele>65.6</ele>
        <time>2025-01-16T14:01:52Z</time>
      </trkpt>
      <trkpt lat="47.57795" lon="-2.32061">
        <ele>65.5</ele>
        <time>2025-01-16T14:01:53Z</time>
      </trkpt>
      <trkpt lat="47.57796" lon="-2.3206">
        <ele>65.4</ele>
        <time>2025-01-16T14:01:54Z</time>
      </trkpt>
      <trkpt lat="47.57797" lon="-2.32059">
        <ele>65.4</ele>
        <time>2025-01-16T14:01:55Z</time>
      </trkpt>
      <trkpt lat="47.57798" lon="-2.32059">
        <ele>65.4</ele>
        <time>2025-01-16T14:01:56Z</time>
      </trkpt>
      <trkpt lat="47.57799" lon="-2.32058">
        <ele>65.3</ele>
        <time>2025-01-16T14:01:57Z</time>
      </trkpt>
      <trkpt lat="47.57801" lon="-2.32057">
        <ele>65.2</ele>
        <time>2025-01-16T14:01:58Z</time>
      </trkpt>
      <trkpt lat="47.57802" lon="-2.32057">
        <ele>65.2</ele>
        <time>2025-01-16T14:01:59Z</time>
      </trkpt>
      <trkpt lat="47.57804" lon="-2.32056">
        <ele>65.1</ele>
        <time>2025-01-16T14:02:00Z</time>
      </trkpt>
      <trkpt lat="47.57805" lon="-2.32055">
        <ele>65</ele>
        <time>2025-01-16T14:02:01Z</time>
      </trkpt>
      <trkpt lat="47.57806" lon="-2.32055">
        <ele>65</ele>
        <time>2025-01-16T14:02:02Z</time>
      </trkpt>
      <trkpt lat="47.57807" lon="-2.32054">
        <ele>65</ele>
        <time>2025-01-16T14:02:03Z</time>
      </trkpt>
      <trkpt lat="47.57808" lon="-2.32054">
        <ele>65</ele>
        <time>2025-01-16T14:02:04Z</time>
      </trkpt>
      <trkpt lat="47.57809" lon="-2.32053">
        <ele>65</ele>
        <time>2025-01-16T14:02:05Z</time>
      </trkpt>
      <trkpt lat="47.5781" lon="-2.32052">
        <ele>65</ele>
        <time>2025-01-16T14:02:06Z</time>
      </trkpt>
      <trkpt lat="47.57811" lon="-2.32051">
        <ele>65</ele>
        <time>2025-01-16T14:02:07Z</time>
      </trkpt>
      <trkpt lat="47.57812" lon="-2.3205">
        <ele>65</ele>
        <time>2025-01-16T14:02:08Z</time>
      </trkpt>
      <trkpt lat="47.57813" lon="-2.32049">
        <ele>64.9</ele>
        <time>2025-01-16T14:02:09Z</time>
      </trkpt>
      <trkpt lat="47.57814" lon="-2.32048">
        <ele>64.9</ele>
        <time>2025-01-16T14:02:10Z</time>
      </trkpt>
      <trkpt lat="47.57816" lon="-2.32047">
        <ele>64.9</ele>
        <time>2025-01-16T14:02:11Z</time>
      </trkpt>
      <trkpt lat="47.57817" lon="-2.32046">
        <ele>64.9</ele>
        <time>2025-01-16T14:02:12Z</time>
      </trkpt>
      <trkpt lat="47.57818" lon="-2.32046">
        <ele>64.8</ele>
        <time>2025-01-16T14:02:13Z</time>
      </trkpt>
      <trkpt lat="47.57819" lon="-2.32045">
        <ele>64.8</ele>
        <time>2025-01-16T14:02:14Z</time>
      </trkpt>
      <trkpt lat="47.5782" lon="-2.32044">
        <ele>64.8</ele>
        <time>2025-01-16T14:02:15Z</time>
      </trkpt>
      <trkpt lat="47.57821" lon="-2.32043">
        <ele>64.7</ele>
        <time>2025-01-16T14:02:16Z</time>
      </trkpt>
      <trkpt lat="47.57822" lon="-2.32042">
        <ele>64.7</ele>
        <time>2025-01-16T14:02:17Z</time>
      </trkpt>
      <trkpt lat="47.57823" lon="-2.32042">
        <ele>64.7</ele>
        <time>2025-01-16T14:02:18Z</time>
      </trkpt>
      <trkpt lat="47.57824" lon="-2.32041">
        <ele>64.7</ele>
        <time>2025-01-16T14:02:19Z</time>
      </trkpt>
      <trkpt lat="47.57825" lon="-2.32039">
        <ele>64.6</ele>
        <time>2025-01-16T14:02:20Z</time>
      </trkpt>
      <trkpt lat="47.57826" lon="-2.32038">
        <ele>64.5</ele>
        <time>2025-01-16T14:02:21Z</time>
      </trkpt>
      <trkpt lat="47.57827" lon="-2.32037">
        <ele>64.5</ele>
        <time>2025-01-16T14:02:22Z</time>
      </trkpt>
      <trkpt lat="47.57828" lon="-2.32036">
        <ele>64.4</ele>
        <time>2025-01-16T14:02:23Z</time>
      </trkpt>
      <trkpt lat="47.5783" lon="-2.32035">
        <ele>64.3</ele>
        <time>2025-01-16T14:02:24Z</time>
      </trkpt>
      <trkpt lat="47.57831" lon="-2.32034">
        <ele>64.3</ele>
        <time>2025-01-16T14:02:25Z</time>
      </trkpt>
      <trkpt lat="47.57832" lon="-2.32033">
        <ele>64.2</ele>
        <time>2025-01-16T14:02:26Z</time>
      </trkpt>
      <trkpt lat="47.57833" lon="-2.32032">
        <ele>64.2</ele>
        <time>2025-01-16T14:02:27Z</time>
      </trkpt>
      <trkpt lat="47.57835" lon="-2.32031">
        <ele>64.1</ele>
        <time>2025-01-16T14:02:28Z</time>
      </trkpt>
      <trkpt lat="47.57836" lon="-2.3203">
        <ele>64.1</ele>
        <time>2025-01-16T14:02:29Z</time>
      </trkpt>
      <trkpt lat="47.57837" lon="-2.32029">
        <ele>64</ele>
        <time>2025-01-16T14:02:30Z</time>
      </trkpt>
      <trkpt lat="47.57838" lon="-2.32029">
        <ele>64</ele>
        <time>2025-01-16T14:02:31Z</time>
      </trkpt>
      <trkpt lat="47.57838" lon="-2.32028">
        <ele>64</ele>
        <time>2025-01-16T14:02:32Z</time>
      </trkpt>
      <trkpt lat="47.5784" lon="-2.32027">
        <ele>64</ele>
        <time>2025-01-16T14:02:33Z</time>
      </trkpt>
      <trkpt lat="47.5784" lon="-2.32026">
        <ele>64</ele>
        <time>2025-01-16T14:02:34Z</time>
      </trkpt>
      <trkpt lat="47.57842" lon="-2.32025">
        <ele>64</ele>
        <time>2025-01-16T14:02:35Z</time>
      </trkpt>
      <trkpt lat="47.57843" lon="-2.32024">
        <ele>64</ele>
        <time>2025-01-16T14:02:36Z</time>
      </trkpt>
      <trkpt lat="47.57845" lon="-2.32023">
        <ele>63.9</ele>
        <time>2025-01-16T14:02:37Z</time>
      </trkpt>
      <trkpt lat="47.57846" lon="-2.32022">
        <ele>63.9</ele>
        <time>2025-01-16T14:02:38Z</time>
      </trkpt>
      <trkpt lat="47.57847" lon="-2.32021">
        <ele>63.9</ele>
        <time>2025-01-16T14:02:39Z</time>
      </trkpt>
      <trkpt lat="47.57848" lon="-2.3202">
        <ele>63.9</ele>
        <time>2025-01-16T14:02:40Z</time>
      </trkpt>
      <trkpt lat="47.57849" lon="-2.32019">
        <ele>63.8</ele>
        <time>2025-01-16T14:02:41Z</time>
      </trkpt>
      <trkpt lat="47.5785" lon="-2.32018">
        <ele>63.8</ele>
        <time>2025-01-16T14:02:42Z</time>
      </trkpt>
      <trkpt lat="47.57852" lon="-2.32016">
        <ele>63.7</ele>
        <time>2025-01-16T14:02:43Z</time>
      </trkpt>
      <trkpt lat="47.57854" lon="-2.32015">
        <ele>63.7</ele>
        <time>2025-01-16T14:02:44Z</time>
      </trkpt>
      <trkpt lat="47.57855" lon="-2.32014">
        <ele>63.6</ele>
        <time>2025-01-16T14:02:45Z</time>
      </trkpt>
      <trkpt lat="47.57856" lon="-2.32013">
        <ele>63.6</ele>
        <time>2025-01-16T14:02:46Z</time>
      </trkpt>
      <trkpt lat="47.57857" lon="-2.32013">
        <ele>63.5</ele>
        <time>2025-01-16T14:02:47Z</time>
      </trkpt>
      <trkpt lat="47.57858" lon="-2.32012">
        <ele>63.5</ele>
        <time>2025-01-16T14:02:48Z</time>
      </trkpt>
      <trkpt lat="47.57859" lon="-2.32011">
        <ele>63.4</ele>
        <time>2025-01-16T14:02:49Z</time>
      </trkpt>
      <trkpt lat="47.5786" lon="-2.3201">
        <ele>63.4</ele>
        <time>2025-01-16T14:02:50Z</time>
      </trkpt>
      <trkpt lat="47.5786" lon="-2.32009">
        <ele>63.4</ele>
        <time>2025-01-16T14:02:51Z</time>
      </trkpt>
      <trkpt lat="47.5786" lon="-2.32009">
        <ele>63.4</ele>
        <time>2025-01-16T14:02:52Z</time>
      </trkpt>
      <trkpt lat="47.57861" lon="-2.32008">
        <ele>63.3</ele>
        <time>2025-01-16T14:02:53Z</time>
      </trkpt>
      <trkpt lat="47.57862" lon="-2.32007">
        <ele>63.2</ele>
        <time>2025-01-16T14:02:54Z</time>
      </trkpt>
      <trkpt lat="47.57863" lon="-2.32007">
        <ele>63.2</ele>
        <time>2025-01-16T14:02:55Z</time>
      </trkpt>
      <trkpt lat="47.57865" lon="-2.32006">
        <ele>63.1</ele>
        <time>2025-01-16T14:02:56Z</time>
      </trkpt>
      <trkpt lat="47.57866" lon="-2.32005">
        <ele>63</ele>
        <time>2025-01-16T14:02:57Z</time>
      </trkpt>
      <trkpt lat="47.57867" lon="-2.32005">
        <ele>63</ele>
        <time>2025-01-16T14:02:58Z</time>
      </trkpt>
      <trkpt lat="47.57868" lon="-2.32004">
        <ele>62.9</ele>
        <time>2025-01-16T14:02:59Z</time>
      </trkpt>
      <trkpt lat="47.57869" lon="-2.32003">
        <ele>62.8</ele>
        <time>2025-01-16T14:03:00Z</time>
      </trkpt>
      <trkpt lat="47.57871" lon="-2.32002">
        <ele>62.7</ele>
        <time>2025-01-16T14:03:01Z</time>
      </trkpt>
      <trkpt lat="47.57872" lon="-2.32001">
        <ele>62.6</ele>
        <time>2025-01-16T14:03:02Z</time>
      </trkpt>
      <trkpt lat="47.57873" lon="-2.32">
        <ele>62.6</ele>
        <time>2025-01-16T14:03:03Z</time>
      </trkpt>
      <trkpt lat="47.57874" lon="-2.31999">
        <ele>62.5</ele>
        <time>2025-01-16T14:03:04Z</time>
      </trkpt>
      <trkpt lat="47.57875" lon="-2.31998">
        <ele>62.4</ele>
        <time>2025-01-16T14:03:05Z</time>
      </trkpt>
      <trkpt lat="47.57876" lon="-2.31997">
        <ele>62.4</ele>
        <time>2025-01-16T14:03:06Z</time>
      </trkpt>
      <trkpt lat="47.57877" lon="-2.31996">
        <ele>62.3</ele>
        <time>2025-01-16T14:03:07Z</time>
      </trkpt>
      <trkpt lat="47.57878" lon="-2.31995">
        <ele>62.2</ele>
        <time>2025-01-16T14:03:08Z</time>
      </trkpt>
      <trkpt lat="47.57879" lon="-2.31995">
        <ele>62.2</ele>
        <time>2025-01-16T14:03:09Z</time>
      </trkpt>
      <trkpt lat="47.5788" lon="-2.31995">
        <ele>62.1</ele>
        <time>2025-01-16T14:03:10Z</time>
      </trkpt>
      <trkpt lat="47.57881" lon="-2.31994">
        <ele>62.1</ele>
        <time>2025-01-16T14:03:11Z</time>
      </trkpt>
      <trkpt lat="47.57883" lon="-2.31994">
        <ele>62</ele>
        <time>2025-01-16T14:03:12Z</time>
      </trkpt>
      <trkpt lat="47.57884" lon="-2.31993">
        <ele>61.9</ele>
        <time>2025-01-16T14:03:13Z</time>
      </trkpt>
      <trkpt lat="47.57885" lon="-2.31993">
        <ele>61.9</ele>
        <time>2025-01-16T14:03:14Z</time>
      </trkpt>
      <trkpt lat="47.57887" lon="-2.31992">
        <ele>61.8</ele>
        <time>2025-01-16T14:03:15Z</time>
      </trkpt>
      <trkpt lat="47.57888" lon="-2.31991">
        <ele>61.7</ele>
        <time>2025-01-16T14:03:16Z</time>
      </trkpt>
      <trkpt lat="47.57889" lon="-2.31991">
        <ele>61.7</ele>
        <time>2025-01-16T14:03:17Z</time>
      </trkpt>
      <trkpt lat="47.57891" lon="-2.3199">
        <ele>61.6</ele>
        <time>2025-01-16T14:03:18Z</time>
      </trkpt>
      <trkpt lat="47.57892" lon="-2.31989">
        <ele>61.5</ele>
        <time>2025-01-16T14:03:19Z</time>
      </trkpt>
      <trkpt lat="47.57894" lon="-2.31989">
        <ele>61.4</ele>
        <time>2025-01-16T14:03:20Z</time>
      </trkpt>
      <trkpt lat="47.57895" lon="-2.31988">
        <ele>61.3</ele>
        <time>2025-01-16T14:03:21Z</time>
      </trkpt>
      <trkpt lat="47.57896" lon="-2.31988">
        <ele>61.3</ele>
        <time>2025-01-16T14:03:22Z</time>
      </trkpt>
      <trkpt lat="47.57897" lon="-2.31987">
        <ele>61.2</ele>
        <time>2025-01-16T14:03:23Z</time>
      </trkpt>
      <trkpt lat="47.57899" lon="-2.31987">
        <ele>61.2</ele>
        <time>2025-01-16T14:03:24Z</time>
      </trkpt>
      <trkpt lat="47.579" lon="-2.31986">
        <ele>61.1</ele>
        <time>2025-01-16T14:03:25Z</time>
      </trkpt>
      <trkpt lat="47.57901" lon="-2.31986">
        <ele>61.1</ele>
        <time>2025-01-16T14:03:26Z</time>
      </trkpt>
      <trkpt lat="47.57902" lon="-2.31985">
        <ele>61</ele>
        <time>2025-01-16T14:03:27Z</time>
      </trkpt>
      <trkpt lat="47.57903" lon="-2.31985">
        <ele>61</ele>
        <time>2025-01-16T14:03:28Z</time>
      </trkpt>
      <trkpt lat="47.57904" lon="-2.31984">
        <ele>60.9</ele>
        <time>2025-01-16T14:03:29Z</time>
      </trkpt>
      <trkpt lat="47.57905" lon="-2.31984">
        <ele>60.8</ele>
        <time>2025-01-16T14:03:30Z</time>
      </trkpt>
      <trkpt lat="47.57907" lon="-2.31983">
        <ele>60.7</ele>
        <time>2025-01-16T14:03:31Z</time>
      </trkpt>
      <trkpt lat="47.57908" lon="-2.31983">
        <ele>60.7</ele>
        <time>2025-01-16T14:03:32Z</time>
      </trkpt>
      <trkpt lat="47.57909" lon="-2.31982">
        <ele>60.6</ele>
        <time>2025-01-16T14:03:33Z</time>
      </trkpt>
      <trkpt lat="47.5791" lon="-2.31981">
        <ele>60.6</ele>
        <time>2025-01-16T14:03:34Z</time>
      </trkpt>
      <trkpt lat="47.57912" lon="-2.31981">
        <ele>60.5</ele>
        <time>2025-01-16T14:03:35Z</time>
      </trkpt>
      <trkpt lat="47.57913" lon="-2.3198">
        <ele>60.4</ele>
        <time>2025-01-16T14:03:36Z</time>
      </trkpt>
      <trkpt lat="47.57914" lon="-2.3198">
        <ele>60.4</ele>
        <time>2025-01-16T14:03:37Z</time>
      </trkpt>
      <trkpt lat="47.57916" lon="-2.3198">
        <ele>60.3</ele>
        <time>2025-01-16T14:03:38Z</time>
      </trkpt>
      <trkpt lat="47.57917" lon="-2.3198">
        <ele>60.3</ele>
        <time>2025-01-16T14:03:39Z</time>
      </trkpt>
      <trkpt lat="47.57918" lon="-2.31979">
        <ele>60.3</ele>
        <time>2025-01-16T14:03:40Z</time>
      </trkpt>
      <trkpt lat="47.57919" lon="-2.31979">
        <ele>60.3</ele>
        <time>2025-01-16T14:03:41Z</time>
      </trkpt>
      <trkpt lat="47.5792" lon="-2.31979">
        <ele>60.3</ele>
        <time>2025-01-16T14:03:42Z</time>
      </trkpt>
      <trkpt lat="47.57921" lon="-2.31978">
        <ele>60.2</ele>
        <time>2025-01-16T14:03:43Z</time>
      </trkpt>
      <trkpt lat="47.57922" lon="-2.31978">
        <ele>60.2</ele>
        <time>2025-01-16T14:03:44Z</time>
      </trkpt>
      <trkpt lat="47.57922" lon="-2.31978">
        <ele>60.2</ele>
        <time>2025-01-16T14:03:45Z</time>
      </trkpt>
      <trkpt lat="47.57922" lon="-2.31978">
        <ele>60.2</ele>
        <time>2025-01-16T14:03:46Z</time>
      </trkpt>
      <trkpt lat="47.57922" lon="-2.31979">
        <ele>60.3</ele>
        <time>2025-01-16T14:03:47Z</time>
      </trkpt>
      <trkpt lat="47.57921" lon="-2.3198">
        <ele>60.3</ele>
        <time>2025-01-16T14:03:48Z</time>
      </trkpt>
      <trkpt lat="47.57921" lon="-2.31981">
        <ele>60.4</ele>
        <time>2025-01-16T14:03:49Z</time>
      </trkpt>
      <trkpt lat="47.5792" lon="-2.31983">
        <ele>60.4</ele>
        <time>2025-01-16T14:03:50Z</time>
      </trkpt>
      <trkpt lat="47.57919" lon="-2.31984">
        <ele>60.5</ele>
        <time>2025-01-16T14:03:51Z</time>
      </trkpt>
      <trkpt lat="47.57919" lon="-2.31986">
        <ele>60.5</ele>
        <time>2025-01-16T14:03:52Z</time>
      </trkpt>
      <trkpt lat="47.57919" lon="-2.31987">
        <ele>60.6</ele>
        <time>2025-01-16T14:03:53Z</time>
      </trkpt>
      <trkpt lat="47.57919" lon="-2.31989">
        <ele>60.7</ele>
        <time>2025-01-16T14:03:54Z</time>
      </trkpt>
      <trkpt lat="47.57919" lon="-2.31991">
        <ele>60.7</ele>
        <time>2025-01-16T14:03:55Z</time>
      </trkpt>
      <trkpt lat="47.57919" lon="-2.31993">
        <ele>60.8</ele>
        <time>2025-01-16T14:03:56Z</time>
      </trkpt>
      <trkpt lat="47.5792" lon="-2.31994">
        <ele>60.9</ele>
        <time>2025-01-16T14:03:57Z</time>
      </trkpt>
      <trkpt lat="47.5792" lon="-2.31996">
        <ele>61</ele>
        <time>2025-01-16T14:03:58Z</time>
      </trkpt>
      <trkpt lat="47.5792" lon="-2.31997">
        <ele>61</ele>
        <time>2025-01-16T14:03:59Z</time>
      </trkpt>
      <trkpt lat="47.5792" lon="-2.31999">
        <ele>61.1</ele>
        <time>2025-01-16T14:04:00Z</time>
      </trkpt>
      <trkpt lat="47.5792" lon="-2.32">
        <ele>61.1</ele>
        <time>2025-01-16T14:04:01Z</time>
      </trkpt>
      <trkpt lat="47.5792" lon="-2.32001">
        <ele>61.2</ele>
        <time>2025-01-16T14:04:02Z</time>
      </trkpt>
      <trkpt lat="47.5792" lon="-2.32003">
        <ele>61.2</ele>
        <time>2025-01-16T14:04:03Z</time>
      </trkpt>
      <trkpt lat="47.5792" lon="-2.32005">
        <ele>61.3</ele>
        <time>2025-01-16T14:04:04Z</time>
      </trkpt>
      <trkpt lat="47.5792" lon="-2.32007">
        <ele>61.4</ele>
        <time>2025-01-16T14:04:05Z</time>
      </trkpt>
      <trkpt lat="47.5792" lon="-2.32008">
        <ele>61.4</ele>
        <time>2025-01-16T14:04:06Z</time>
      </trkpt>
      <trkpt lat="47.5792" lon="-2.3201">
        <ele>61.5</ele>
        <time>2025-01-16T14:04:07Z</time>
      </trkpt>
      <trkpt lat="47.5792" lon="-2.32011">
        <ele>61.5</ele>
        <time>2025-01-16T14:04:08Z</time>
      </trkpt>
      <trkpt lat="47.5792" lon="-2.32012">
        <ele>61.6</ele>
        <time>2025-01-16T14:04:09Z</time>
      </trkpt>
      <trkpt lat="47.5792" lon="-2.32014">
        <ele>61.6</ele>
        <time>2025-01-16T14:04:10Z</time>
      </trkpt>
      <trkpt lat="47.5792" lon="-2.32016">
        <ele>61.7</ele>
        <time>2025-01-16T14:04:11Z</time>
      </trkpt>
      <trkpt lat="47.5792" lon="-2.32017">
        <ele>61.7</ele>
        <time>2025-01-16T14:04:12Z</time>
      </trkpt>
      <trkpt lat="47.5792" lon="-2.3202">
        <ele>61.8</ele>
        <time>2025-01-16T14:04:13Z</time>
      </trkpt>
      <trkpt lat="47.57919" lon="-2.32022">
        <ele>61.9</ele>
        <time>2025-01-16T14:04:14Z</time>
      </trkpt>
      <trkpt lat="47.57919" lon="-2.32023">
        <ele>61.9</ele>
        <time>2025-01-16T14:04:15Z</time>
      </trkpt>
      <trkpt lat="47.57919" lon="-2.32023">
        <ele>61.9</ele>
        <time>2025-01-16T14:04:16Z</time>
      </trkpt>
      <trkpt lat="47.57919" lon="-2.32024">
        <ele>61.9</ele>
        <time>2025-01-16T14:04:17Z</time>
      </trkpt>
      <trkpt lat="47.57919" lon="-2.32026">
        <ele>62</ele>
        <time>2025-01-16T14:04:18Z</time>
      </trkpt>
      <trkpt lat="47.57919" lon="-2.32027">
        <ele>62.1</ele>
        <time>2025-01-16T14:04:19Z</time>
      </trkpt>
      <trkpt lat="47.57919" lon="-2.32028">
        <ele>62.1</ele>
        <time>2025-01-16T14:04:20Z</time>
      </trkpt>
      <trkpt lat="47.57919" lon="-2.3203">
        <ele>62.2</ele>
        <time>2025-01-16T14:04:21Z</time>
      </trkpt>
      <trkpt lat="47.57919" lon="-2.32032">
        <ele>62.2</ele>
        <time>2025-01-16T14:04:22Z</time>
      </trkpt>
      <trkpt lat="47.57919" lon="-2.32033">
        <ele>62.3</ele>
        <time>2025-01-16T14:04:23Z</time>
      </trkpt>
      <trkpt lat="47.57919" lon="-2.32033">
        <ele>62.3</ele>
        <time>2025-01-16T14:04:24Z</time>
      </trkpt>
      <trkpt lat="47.5792" lon="-2.32034">
        <ele>62.3</ele>
        <time>2025-01-16T14:04:25Z</time>
      </trkpt>
      <trkpt lat="47.5792" lon="-2.32035">
        <ele>62.3</ele>
        <time>2025-01-16T14:04:26Z</time>
      </trkpt>
      <trkpt lat="47.5792" lon="-2.32036">
        <ele>62.4</ele>
        <time>2025-01-16T14:04:27Z</time>
      </trkpt>
      <trkpt lat="47.5792" lon="-2.32037">
        <ele>62.4</ele>
        <time>2025-01-16T14:04:28Z</time>
      </trkpt>
      <trkpt lat="47.5792" lon="-2.32039">
        <ele>62.5</ele>
        <time>2025-01-16T14:04:29Z</time>
      </trkpt>
      <trkpt lat="47.5792" lon="-2.3204">
        <ele>62.5</ele>
        <time>2025-01-16T14:04:30Z</time>
      </trkpt>
      <trkpt lat="47.5792" lon="-2.32041">
        <ele>62.5</ele>
        <time>2025-01-16T14:04:31Z</time>
      </trkpt>
      <trkpt lat="47.5792" lon="-2.32042">
        <ele>62.6</ele>
        <time>2025-01-16T14:04:32Z</time>
      </trkpt>
      <trkpt lat="47.57921" lon="-2.32044">
        <ele>62.6</ele>
        <time>2025-01-16T14:04:33Z</time>
      </trkpt>
      <trkpt lat="47.57921" lon="-2.32047">
        <ele>62.7</ele>
        <time>2025-01-16T14:04:34Z</time>
      </trkpt>
      <trkpt lat="47.57921" lon="-2.32049">
        <ele>62.8</ele>
        <time>2025-01-16T14:04:35Z</time>
      </trkpt>
      <trkpt lat="47.57921" lon="-2.32051">
        <ele>62.9</ele>
        <time>2025-01-16T14:04:36Z</time>
      </trkpt>
      <trkpt lat="47.57922" lon="-2.32052">
        <ele>62.9</ele>
        <time>2025-01-16T14:04:37Z</time>
      </trkpt>
      <trkpt lat="47.57922" lon="-2.32054">
        <ele>63</ele>
        <time>2025-01-16T14:04:38Z</time>
      </trkpt>
      <trkpt lat="47.57922" lon="-2.32056">
        <ele>63</ele>
        <time>2025-01-16T14:04:39Z</time>
      </trkpt>
      <trkpt lat="47.57923" lon="-2.32058">
        <ele>63.1</ele>
        <time>2025-01-16T14:04:40Z</time>
      </trkpt>
      <trkpt lat="47.57923" lon="-2.3206">
        <ele>63.2</ele>
        <time>2025-01-16T14:04:41Z</time>
      </trkpt>
      <trkpt lat="47.57924" lon="-2.32062">
        <ele>63.2</ele>
        <time>2025-01-16T14:04:42Z</time>
      </trkpt>
      <trkpt lat="47.57924" lon="-2.32064">
        <ele>63.3</ele>
        <time>2025-01-16T14:04:43Z</time>
      </trkpt>
      <trkpt lat="47.57924" lon="-2.32065">
        <ele>63.3</ele>
        <time>2025-01-16T14:04:44Z</time>
      </trkpt>
      <trkpt lat="47.57924" lon="-2.32067">
        <ele>63.4</ele>
        <time>2025-01-16T14:04:45Z</time>
      </trkpt>
      <trkpt lat="47.57924" lon="-2.32069">
        <ele>63.5</ele>
        <time>2025-01-16T14:04:46Z</time>
      </trkpt>
      <trkpt lat="47.57925" lon="-2.32071">
        <ele>63.6</ele>
        <time>2025-01-16T14:04:47Z</time>
      </trkpt>
      <trkpt lat="47.57925" lon="-2.32073">
        <ele>63.6</ele>
        <time>2025-01-16T14:04:48Z</time>
      </trkpt>
      <trkpt lat="47.57924" lon="-2.32075">
        <ele>63.7</ele>
        <time>2025-01-16T14:04:49Z</time>
      </trkpt>
      <trkpt lat="47.57924" lon="-2.32077">
        <ele>63.8</ele>
        <time>2025-01-16T14:04:50Z</time>
      </trkpt>
      <trkpt lat="47.57924" lon="-2.32079">
        <ele>63.8</ele>
        <time>2025-01-16T14:04:51Z</time>
      </trkpt>
      <trkpt lat="47.57924" lon="-2.3208">
        <ele>63.9</ele>
        <time>2025-01-16T14:04:52Z</time>
      </trkpt>
      <trkpt lat="47.57924" lon="-2.32082">
        <ele>64</ele>
        <time>2025-01-16T14:04:53Z</time>
      </trkpt>
      <trkpt lat="47.57924" lon="-2.32083">
        <ele>64</ele>
        <time>2025-01-16T14:04:54Z</time>
      </trkpt>
      <trkpt lat="47.57924" lon="-2.32084">
        <ele>64</ele>
        <time>2025-01-16T14:04:55Z</time>
      </trkpt>
      <trkpt lat="47.57923" lon="-2.32084">
        <ele>64</ele>
        <time>2025-01-16T14:04:56Z</time>
      </trkpt>
      <trkpt lat="47.57923" lon="-2.32084">
        <ele>64</ele>
        <time>2025-01-16T14:04:57Z</time>
      </trkpt>
      <trkpt lat="47.57923" lon="-2.32084">
        <ele>64</ele>
        <time>2025-01-16T14:04:58Z</time>
      </trkpt>
      <trkpt lat="47.57923" lon="-2.32085">
        <ele>64</ele>
        <time>2025-01-16T14:04:59Z</time>
      </trkpt>
      <trkpt lat="47.57923" lon="-2.32087">
        <ele>64</ele>
        <time>2025-01-16T14:05:00Z</time>
      </trkpt>
      <trkpt lat="47.57923" lon="-2.32088">
        <ele>64</ele>
        <time>2025-01-16T14:05:01Z</time>
      </trkpt>
      <trkpt lat="47.57923" lon="-2.3209">
        <ele>64</ele>
        <time>2025-01-16T14:05:02Z</time>
      </trkpt>
      <trkpt lat="47.57923" lon="-2.32091">
        <ele>64</ele>
        <time>2025-01-16T14:05:03Z</time>
      </trkpt>
      <trkpt lat="47.57923" lon="-2.32093">
        <ele>64</ele>
        <time>2025-01-16T14:05:04Z</time>
      </trkpt>
      <trkpt lat="47.57923" lon="-2.32095">
        <ele>64</ele>
        <time>2025-01-16T14:05:05Z</time>
      </trkpt>
      <trkpt lat="47.57922" lon="-2.32096">
        <ele>64</ele>
        <time>2025-01-16T14:05:06Z</time>
      </trkpt>
      <trkpt lat="47.57922" lon="-2.32098">
        <ele>64</ele>
        <time>2025-01-16T14:05:07Z</time>
      </trkpt>
      <trkpt lat="47.57922" lon="-2.321">
        <ele>64</ele>
        <time>2025-01-16T14:05:08Z</time>
      </trkpt>
      <trkpt lat="47.57922" lon="-2.32102">
        <ele>64</ele>
        <time>2025-01-16T14:05:09Z</time>
      </trkpt>
      <trkpt lat="47.57922" lon="-2.32104">
        <ele>64</ele>
        <time>2025-01-16T14:05:10Z</time>
      </trkpt>
      <trkpt lat="47.57922" lon="-2.32105">
        <ele>64</ele>
        <time>2025-01-16T14:05:11Z</time>
      </trkpt>
      <trkpt lat="47.57922" lon="-2.32106">
        <ele>64</ele>
        <time>2025-01-16T14:05:12Z</time>
      </trkpt>
      <trkpt lat="47.57922" lon="-2.32107">
        <ele>64</ele>
        <time>2025-01-16T14:05:13Z</time>
      </trkpt>
      <trkpt lat="47.57921" lon="-2.32108">
        <ele>64</ele>
        <time>2025-01-16T14:05:14Z</time>
      </trkpt>
      <trkpt lat="47.57921" lon="-2.32109">
        <ele>64</ele>
        <time>2025-01-16T14:05:15Z</time>
      </trkpt>
      <trkpt lat="47.57921" lon="-2.3211">
        <ele>64</ele>
        <time>2025-01-16T14:05:16Z</time>
      </trkpt>
      <trkpt lat="47.57921" lon="-2.32112">
        <ele>64</ele>
        <time>2025-01-16T14:05:17Z</time>
      </trkpt>
      <trkpt lat="47.57921" lon="-2.32114">
        <ele>63.9</ele>
        <time>2025-01-16T14:05:18Z</time>
      </trkpt>
      <trkpt lat="47.57921" lon="-2.32116">
        <ele>63.8</ele>
        <time>2025-01-16T14:05:19Z</time>
      </trkpt>
      <trkpt lat="47.57921" lon="-2.32118">
        <ele>63.8</ele>
        <time>2025-01-16T14:05:20Z</time>
      </trkpt>
      <trkpt lat="47.57921" lon="-2.32121">
        <ele>63.6</ele>
        <time>2025-01-16T14:05:21Z</time>
      </trkpt>
      <trkpt lat="47.57921" lon="-2.32123">
        <ele>63.6</ele>
        <time>2025-01-16T14:05:22Z</time>
      </trkpt>
      <trkpt lat="47.57921" lon="-2.32125">
        <ele>63.5</ele>
        <time>2025-01-16T14:05:23Z</time>
      </trkpt>
      <trkpt lat="47.57921" lon="-2.32127">
        <ele>63.4</ele>
        <time>2025-01-16T14:05:24Z</time>
      </trkpt>
      <trkpt lat="47.57921" lon="-2.32129">
        <ele>63.4</ele>
        <time>2025-01-16T14:05:25Z</time>
      </trkpt>
      <trkpt lat="47.57921" lon="-2.32131">
        <ele>63.3</ele>
        <time>2025-01-16T14:05:26Z</time>
      </trkpt>
      <trkpt lat="47.57921" lon="-2.32133">
        <ele>63.2</ele>
        <time>2025-01-16T14:05:27Z</time>
      </trkpt>
      <trkpt lat="47.57921" lon="-2.32135">
        <ele>63.1</ele>
        <time>2025-01-16T14:05:28Z</time>
      </trkpt>
      <trkpt lat="47.57921" lon="-2.32137">
        <ele>63.1</ele>
        <time>2025-01-16T14:05:29Z</time>
      </trkpt>
      <trkpt lat="47.57921" lon="-2.32139">
        <ele>63</ele>
        <time>2025-01-16T14:05:30Z</time>
      </trkpt>
      <trkpt lat="47.57921" lon="-2.32141">
        <ele>63</ele>
        <time>2025-01-16T14:05:31Z</time>
      </trkpt>
      <trkpt lat="47.57921" lon="-2.32142">
        <ele>63</ele>
        <time>2025-01-16T14:05:32Z</time>
      </trkpt>
      <trkpt lat="47.5792" lon="-2.32143">
        <ele>63</ele>
        <time>2025-01-16T14:05:33Z</time>
      </trkpt>
      <trkpt lat="47.5792" lon="-2.32145">
        <ele>63</ele>
        <time>2025-01-16T14:05:34Z</time>
      </trkpt>
      <trkpt lat="47.5792" lon="-2.32147">
        <ele>63</ele>
        <time>2025-01-16T14:05:35Z</time>
      </trkpt>
      <trkpt lat="47.5792" lon="-2.32148">
        <ele>63</ele>
        <time>2025-01-16T14:05:36Z</time>
      </trkpt>
      <trkpt lat="47.5792" lon="-2.3215">
        <ele>63</ele>
        <time>2025-01-16T14:05:37Z</time>
      </trkpt>
      <trkpt lat="47.5792" lon="-2.32151">
        <ele>63</ele>
        <time>2025-01-16T14:05:38Z</time>
      </trkpt>
      <trkpt lat="47.5792" lon="-2.32153">
        <ele>63</ele>
        <time>2025-01-16T14:05:39Z</time>
      </trkpt>
      <trkpt lat="47.5792" lon="-2.32156">
        <ele>63</ele>
        <time>2025-01-16T14:05:40Z</time>
      </trkpt>
      <trkpt lat="47.57921" lon="-2.3216">
        <ele>63</ele>
        <time>2025-01-16T14:05:41Z</time>
      </trkpt>
      <trkpt lat="47.57921" lon="-2.32163">
        <ele>63</ele>
        <time>2025-01-16T14:05:42Z</time>
      </trkpt>
      <trkpt lat="47.57921" lon="-2.32165">
        <ele>63</ele>
        <time>2025-01-16T14:05:43Z</time>
      </trkpt>
      <trkpt lat="47.57921" lon="-2.32168">
        <ele>62.9</ele>
        <time>2025-01-16T14:05:44Z</time>
      </trkpt>
      <trkpt lat="47.57922" lon="-2.32171">
        <ele>62.8</ele>
        <time>2025-01-16T14:05:45Z</time>
      </trkpt>
      <trkpt lat="47.57922" lon="-2.32174">
        <ele>62.7</ele>
        <time>2025-01-16T14:05:46Z</time>
      </trkpt>
      <trkpt lat="47.57922" lon="-2.32176">
        <ele>62.6</ele>
        <time>2025-01-16T14:05:47Z</time>
      </trkpt>
      <trkpt lat="47.57922" lon="-2.32178">
        <ele>62.5</ele>
        <time>2025-01-16T14:05:48Z</time>
      </trkpt>
      <trkpt lat="47.57922" lon="-2.3218">
        <ele>62.4</ele>
        <time>2025-01-16T14:05:49Z</time>
      </trkpt>
      <trkpt lat="47.57923" lon="-2.32182">
        <ele>62.3</ele>
        <time>2025-01-16T14:05:50Z</time>
      </trkpt>
      <trkpt lat="47.57923" lon="-2.32184">
        <ele>62.2</ele>
        <time>2025-01-16T14:05:51Z</time>
      </trkpt>
      <trkpt lat="47.57923" lon="-2.32187">
        <ele>62.1</ele>
        <time>2025-01-16T14:05:52Z</time>
      </trkpt>
      <trkpt lat="47.57922" lon="-2.32188">
        <ele>62.1</ele>
        <time>2025-01-16T14:05:53Z</time>
      </trkpt>
      <trkpt lat="47.57922" lon="-2.3219">
        <ele>62</ele>
        <time>2025-01-16T14:05:54Z</time>
      </trkpt>
      <trkpt lat="47.57921" lon="-2.3219">
        <ele>62</ele>
        <time>2025-01-16T14:05:55Z</time>
      </trkpt>
      <trkpt lat="47.57921" lon="-2.32191">
        <ele>62</ele>
        <time>2025-01-16T14:05:56Z</time>
      </trkpt>
      <trkpt lat="47.57921" lon="-2.32194">
        <ele>61.9</ele>
        <time>2025-01-16T14:05:57Z</time>
      </trkpt>
      <trkpt lat="47.57921" lon="-2.32196">
        <ele>61.8</ele>
        <time>2025-01-16T14:05:58Z</time>
      </trkpt>
      <trkpt lat="47.5792" lon="-2.32197">
        <ele>61.8</ele>
        <time>2025-01-16T14:05:59Z</time>
      </trkpt>
      <trkpt lat="47.5792" lon="-2.32199">
        <ele>61.7</ele>
        <time>2025-01-16T14:06:00Z</time>
      </trkpt>
      <trkpt lat="47.5792" lon="-2.322">
        <ele>61.7</ele>
        <time>2025-01-16T14:06:01Z</time>
      </trkpt>
      <trkpt lat="47.57921" lon="-2.32202">
        <ele>61.6</ele>
        <time>2025-01-16T14:06:02Z</time>
      </trkpt>
      <trkpt lat="47.57921" lon="-2.32205">
        <ele>61.5</ele>
        <time>2025-01-16T14:06:03Z</time>
      </trkpt>
      <trkpt lat="47.57921" lon="-2.32207">
        <ele>61.4</ele>
        <time>2025-01-16T14:06:04Z</time>
      </trkpt>
      <trkpt lat="47.57921" lon="-2.32208">
        <ele>61.4</ele>
        <time>2025-01-16T14:06:05Z</time>
      </trkpt>
      <trkpt lat="47.57921" lon="-2.32209">
        <ele>61.3</ele>
        <time>2025-01-16T14:06:06Z</time>
      </trkpt>
      <trkpt lat="47.57921" lon="-2.32211">
        <ele>61.2</ele>
        <time>2025-01-16T14:06:07Z</time>
      </trkpt>
      <trkpt lat="47.57921" lon="-2.32212">
        <ele>61.2</ele>
        <time>2025-01-16T14:06:08Z</time>
      </trkpt>
      <trkpt lat="47.57921" lon="-2.32214">
        <ele>61.1</ele>
        <time>2025-01-16T14:06:09Z</time>
      </trkpt>
      <trkpt lat="47.57921" lon="-2.32216">
        <ele>61.1</ele>
        <time>2025-01-16T14:06:10Z</time>
      </trkpt>
      <trkpt lat="47.57921" lon="-2.32218">
        <ele>61</ele>
        <time>2025-01-16T14:06:11Z</time>
      </trkpt>
      <trkpt lat="47.57921" lon="-2.3222">
        <ele>60.9</ele>
        <time>2025-01-16T14:06:12Z</time>
      </trkpt>
      <trkpt lat="47.57921" lon="-2.32221">
        <ele>60.9</ele>
        <time>2025-01-16T14:06:13Z</time>
      </trkpt>
      <trkpt lat="47.57921" lon="-2.32223">
        <ele>60.8</ele>
        <time>2025-01-16T14:06:14Z</time>
      </trkpt>
      <trkpt lat="47.57921" lon="-2.32225">
        <ele>60.8</ele>
        <time>2025-01-16T14:06:15Z</time>
      </trkpt>
      <trkpt lat="47.57921" lon="-2.32227">
        <ele>60.8</ele>
        <time>2025-01-16T14:06:16Z</time>
      </trkpt>
      <trkpt lat="47.57921" lon="-2.32228">
        <ele>60.8</ele>
        <time>2025-01-16T14:06:17Z</time>
      </trkpt>
      <trkpt lat="47.57921" lon="-2.3223">
        <ele>60.8</ele>
        <time>2025-01-16T14:06:18Z</time>
      </trkpt>
      <trkpt lat="47.57921" lon="-2.32231">
        <ele>60.8</ele>
        <time>2025-01-16T14:06:19Z</time>
      </trkpt>
      <trkpt lat="47.5792" lon="-2.32232">
        <ele>60.8</ele>
        <time>2025-01-16T14:06:20Z</time>
      </trkpt>
      <trkpt lat="47.5792" lon="-2.32234">
        <ele>60.8</ele>
        <time>2025-01-16T14:06:21Z</time>
      </trkpt>
      <trkpt lat="47.5792" lon="-2.32235">
        <ele>60.8</ele>
        <time>2025-01-16T14:06:22Z</time>
      </trkpt>
      <trkpt lat="47.5792" lon="-2.32237">
        <ele>60.8</ele>
        <time>2025-01-16T14:06:23Z</time>
      </trkpt>
      <trkpt lat="47.5792" lon="-2.32238">
        <ele>60.8</ele>
        <time>2025-01-16T14:06:24Z</time>
      </trkpt>
      <trkpt lat="47.57919" lon="-2.32239">
        <ele>60.9</ele>
        <time>2025-01-16T14:06:25Z</time>
      </trkpt>
      <trkpt lat="47.57918" lon="-2.3224">
        <ele>60.9</ele>
        <time>2025-01-16T14:06:26Z</time>
      </trkpt>
      <trkpt lat="47.57918" lon="-2.32241">
        <ele>60.9</ele>
        <time>2025-01-16T14:06:27Z</time>
      </trkpt>
      <trkpt lat="47.57917" lon="-2.32243">
        <ele>61</ele>
        <time>2025-01-16T14:06:28Z</time>
      </trkpt>
      <trkpt lat="47.57916" lon="-2.32244">
        <ele>61</ele>
        <time>2025-01-16T14:06:29Z</time>
      </trkpt>
      <trkpt lat="47.57914" lon="-2.32245">
        <ele>61.1</ele>
        <time>2025-01-16T14:06:30Z</time>
      </trkpt>
      <trkpt lat="47.57913" lon="-2.32245">
        <ele>61.2</ele>
        <time>2025-01-16T14:06:31Z</time>
      </trkpt>
      <trkpt lat="47.57912" lon="-2.32247">
        <ele>61.2</ele>
        <time>2025-01-16T14:06:32Z</time>
      </trkpt>
      <trkpt lat="47.57911" lon="-2.32248">
        <ele>61.2</ele>
        <time>2025-01-16T14:06:33Z</time>
      </trkpt>
      <trkpt lat="47.5791" lon="-2.32249">
        <ele>61.2</ele>
        <time>2025-01-16T14:06:34Z</time>
      </trkpt>
      <trkpt lat="47.57909" lon="-2.3225">
        <ele>61.3</ele>
        <time>2025-01-16T14:06:35Z</time>
      </trkpt>
      <trkpt lat="47.57908" lon="-2.32251">
        <ele>61.3</ele>
        <time>2025-01-16T14:06:36Z</time>
      </trkpt>
      <trkpt lat="47.57906" lon="-2.32252">
        <ele>61.3</ele>
        <time>2025-01-16T14:06:37Z</time>
      </trkpt>
      <trkpt lat="47.57905" lon="-2.32253">
        <ele>61.3</ele>
        <time>2025-01-16T14:06:38Z</time>
      </trkpt>
      <trkpt lat="47.57904" lon="-2.32254">
        <ele>61.3</ele>
        <time>2025-01-16T14:06:39Z</time>
      </trkpt>
      <trkpt lat="47.57902" lon="-2.32254">
        <ele>61.4</ele>
        <time>2025-01-16T14:06:40Z</time>
      </trkpt>
      <trkpt lat="47.57901" lon="-2.32254">
        <ele>61.4</ele>
        <time>2025-01-16T14:06:41Z</time>
      </trkpt>
      <trkpt lat="47.579" lon="-2.32254">
        <ele>61.5</ele>
        <time>2025-01-16T14:06:42Z</time>
      </trkpt>
      <trkpt lat="47.57899" lon="-2.32254">
        <ele>61.5</ele>
        <time>2025-01-16T14:06:43Z</time>
      </trkpt>
      <trkpt lat="47.57898" lon="-2.32254">
        <ele>61.5</ele>
        <time>2025-01-16T14:06:44Z</time>
      </trkpt>
      <trkpt lat="47.57897" lon="-2.32254">
        <ele>61.6</ele>
        <time>2025-01-16T14:06:45Z</time>
      </trkpt>
      <trkpt lat="47.57895" lon="-2.32254">
        <ele>61.6</ele>
        <time>2025-01-16T14:06:46Z</time>
      </trkpt>
      <trkpt lat="47.57894" lon="-2.32255">
        <ele>61.6</ele>
        <time>2025-01-16T14:06:47Z</time>
      </trkpt>
      <trkpt lat="47.57893" lon="-2.32256">
        <ele>61.6</ele>
        <time>2025-01-16T14:06:48Z</time>
      </trkpt>
      <trkpt lat="47.57891" lon="-2.32256">
        <ele>61.7</ele>
        <time>2025-01-16T14:06:49Z</time>
      </trkpt>
      <trkpt lat="47.5789" lon="-2.32257">
        <ele>61.7</ele>
        <time>2025-01-16T14:06:50Z</time>
      </trkpt>
      <trkpt lat="47.57889" lon="-2.32258">
        <ele>61.7</ele>
        <time>2025-01-16T14:06:51Z</time>
      </trkpt>
      <trkpt lat="47.57888" lon="-2.32258">
        <ele>61.7</ele>
        <time>2025-01-16T14:06:52Z</time>
      </trkpt>
      <trkpt lat="47.57886" lon="-2.32259">
        <ele>61.8</ele>
        <time>2025-01-16T14:06:53Z</time>
      </trkpt>
      <trkpt lat="47.57885" lon="-2.32259">
        <ele>61.8</ele>
        <time>2025-01-16T14:06:54Z</time>
      </trkpt>
      <trkpt lat="47.57884" lon="-2.32259">
        <ele>61.9</ele>
        <time>2025-01-16T14:06:55Z</time>
      </trkpt>
      <trkpt lat="47.57882" lon="-2.32259">
        <ele>61.9</ele>
        <time>2025-01-16T14:06:56Z</time>
      </trkpt>
      <trkpt lat="47.57881" lon="-2.32259">
        <ele>62</ele>
        <time>2025-01-16T14:06:57Z</time>
      </trkpt>
      <trkpt lat="47.5788" lon="-2.32259">
        <ele>62</ele>
        <time>2025-01-16T14:06:58Z</time>
      </trkpt>
      <trkpt lat="47.57879" lon="-2.32259">
        <ele>62</ele>
        <time>2025-01-16T14:06:59Z</time>
      </trkpt>
      <trkpt lat="47.57878" lon="-2.3226">
        <ele>62</ele>
        <time>2025-01-16T14:07:00Z</time>
      </trkpt>
      <trkpt lat="47.57876" lon="-2.32261">
        <ele>62.1</ele>
        <time>2025-01-16T14:07:01Z</time>
      </trkpt>
      <trkpt lat="47.57875" lon="-2.32262">
        <ele>62.1</ele>
        <time>2025-01-16T14:07:02Z</time>
      </trkpt>
      <trkpt lat="47.57874" lon="-2.32263">
        <ele>62.1</ele>
        <time>2025-01-16T14:07:03Z</time>
      </trkpt>
      <trkpt lat="47.57873" lon="-2.32263">
        <ele>62.1</ele>
        <time>2025-01-16T14:07:04Z</time>
      </trkpt>
      <trkpt lat="47.57872" lon="-2.32264">
        <ele>62.1</ele>
        <time>2025-01-16T14:07:05Z</time>
      </trkpt>
      <trkpt lat="47.57871" lon="-2.32264">
        <ele>62.1</ele>
        <time>2025-01-16T14:07:06Z</time>
      </trkpt>
      <trkpt lat="47.5787" lon="-2.32264">
        <ele>62.2</ele>
        <time>2025-01-16T14:07:07Z</time>
      </trkpt>
      <trkpt lat="47.57869" lon="-2.32265">
        <ele>62.2</ele>
        <time>2025-01-16T14:07:08Z</time>
      </trkpt>
      <trkpt lat="47.57868" lon="-2.32265">
        <ele>62.2</ele>
        <time>2025-01-16T14:07:09Z</time>
      </trkpt>
      <trkpt lat="47.57866" lon="-2.32265">
        <ele>62.3</ele>
        <time>2025-01-16T14:07:10Z</time>
      </trkpt>
      <trkpt lat="47.57865" lon="-2.32264">
        <ele>62.4</ele>
        <time>2025-01-16T14:07:11Z</time>
      </trkpt>
      <trkpt lat="47.57864" lon="-2.32264">
        <ele>62.4</ele>
        <time>2025-01-16T14:07:12Z</time>
      </trkpt>
      <trkpt lat="47.57863" lon="-2.32263">
        <ele>62.5</ele>
        <time>2025-01-16T14:07:13Z</time>
      </trkpt>
      <trkpt lat="47.57861" lon="-2.32263">
        <ele>62.5</ele>
        <time>2025-01-16T14:07:14Z</time>
      </trkpt>
      <trkpt lat="47.57861" lon="-2.32263">
        <ele>62.5</ele>
        <time>2025-01-16T14:07:15Z</time>
      </trkpt>
      <trkpt lat="47.5786" lon="-2.32262">
        <ele>62.6</ele>
        <time>2025-01-16T14:07:16Z</time>
      </trkpt>
      <trkpt lat="47.57859" lon="-2.32261">
        <ele>62.6</ele>
        <time>2025-01-16T14:07:17Z</time>
      </trkpt>
      <trkpt lat="47.57858" lon="-2.32262">
        <ele>62.6</ele>
        <time>2025-01-16T14:07:18Z</time>
      </trkpt>
      <trkpt lat="47.57857" lon="-2.32262">
        <ele>62.7</ele>
        <time>2025-01-16T14:07:19Z</time>
      </trkpt>
      <trkpt lat="47.57856" lon="-2.32262">
        <ele>62.7</ele>
        <time>2025-01-16T14:07:20Z</time>
      </trkpt>
      <trkpt lat="47.57855" lon="-2.32262">
        <ele>62.7</ele>
        <time>2025-01-16T14:07:21Z</time>
      </trkpt>
      <trkpt lat="47.57854" lon="-2.32262">
        <ele>62.7</ele>
        <time>2025-01-16T14:07:22Z</time>
      </trkpt>
      <trkpt lat="47.57853" lon="-2.32262">
        <ele>62.7</ele>
        <time>2025-01-16T14:07:23Z</time>
      </trkpt>
      <trkpt lat="47.57852" lon="-2.32262">
        <ele>62.8</ele>
        <time>2025-01-16T14:07:24Z</time>
      </trkpt>
      <trkpt lat="47.57851" lon="-2.32262">
        <ele>62.8</ele>
        <time>2025-01-16T14:07:25Z</time>
      </trkpt>
      <trkpt lat="47.5785" lon="-2.32262">
        <ele>62.8</ele>
        <time>2025-01-16T14:07:26Z</time>
      </trkpt>
      <trkpt lat="47.57849" lon="-2.32262">
        <ele>62.8</ele>
        <time>2025-01-16T14:07:27Z</time>
      </trkpt>
      <trkpt lat="47.57848" lon="-2.32262">
        <ele>62.8</ele>
        <time>2025-01-16T14:07:28Z</time>
      </trkpt>
      <trkpt lat="47.57847" lon="-2.32263">
        <ele>62.8</ele>
        <time>2025-01-16T14:07:29Z</time>
      </trkpt>
      <trkpt lat="47.57845" lon="-2.32263">
        <ele>62.8</ele>
        <time>2025-01-16T14:07:30Z</time>
      </trkpt>
      <trkpt lat="47.57844" lon="-2.32264">
        <ele>62.8</ele>
        <time>2025-01-16T14:07:31Z</time>
      </trkpt>
      <trkpt lat="47.57843" lon="-2.32265">
        <ele>62.8</ele>
        <time>2025-01-16T14:07:32Z</time>
      </trkpt>
      <trkpt lat="47.57842" lon="-2.32266">
        <ele>62.7</ele>
        <time>2025-01-16T14:07:33Z</time>
      </trkpt>
      <trkpt lat="47.57841" lon="-2.32267">
        <ele>62.7</ele>
        <time>2025-01-16T14:07:34Z</time>
      </trkpt>
      <trkpt lat="47.5784" lon="-2.32269">
        <ele>62.6</ele>
        <time>2025-01-16T14:07:35Z</time>
      </trkpt>
      <trkpt lat="47.5784" lon="-2.3227">
        <ele>62.5</ele>
        <time>2025-01-16T14:07:36Z</time>
      </trkpt>
      <trkpt lat="47.57839" lon="-2.32272">
        <ele>62.4</ele>
        <time>2025-01-16T14:07:37Z</time>
      </trkpt>
      <trkpt lat="47.57838" lon="-2.32273">
        <ele>62.3</ele>
        <time>2025-01-16T14:07:38Z</time>
      </trkpt>
      <trkpt lat="47.57838" lon="-2.32275">
        <ele>62.2</ele>
        <time>2025-01-16T14:07:39Z</time>
      </trkpt>
      <trkpt lat="47.57837" lon="-2.32278">
        <ele>62</ele>
        <time>2025-01-16T14:07:40Z</time>
      </trkpt>
      <trkpt lat="47.57837" lon="-2.3228">
        <ele>61.9</ele>
        <time>2025-01-16T14:07:41Z</time>
      </trkpt>
      <trkpt lat="47.57837" lon="-2.32281">
        <ele>61.9</ele>
        <time>2025-01-16T14:07:42Z</time>
      </trkpt>
      <trkpt lat="47.57837" lon="-2.32283">
        <ele>61.8</ele>
        <time>2025-01-16T14:07:43Z</time>
      </trkpt>
      <trkpt lat="47.57837" lon="-2.32286">
        <ele>61.7</ele>
        <time>2025-01-16T14:07:44Z</time>
      </trkpt>
      <trkpt lat="47.57837" lon="-2.32288">
        <ele>61.6</ele>
        <time>2025-01-16T14:07:45Z</time>
      </trkpt>
      <trkpt lat="47.57838" lon="-2.32291">
        <ele>61.5</ele>
        <time>2025-01-16T14:07:46Z</time>
      </trkpt>
      <trkpt lat="47.57838" lon="-2.32293">
        <ele>61.5</ele>
        <time>2025-01-16T14:07:47Z</time>
      </trkpt>
      <trkpt lat="47.57839" lon="-2.32295">
        <ele>61.4</ele>
        <time>2025-01-16T14:07:48Z</time>
      </trkpt>
      <trkpt lat="47.57839" lon="-2.32296">
        <ele>61.3</ele>
        <time>2025-01-16T14:07:49Z</time>
      </trkpt>
      <trkpt lat="47.5784" lon="-2.32297">
        <ele>61.3</ele>
        <time>2025-01-16T14:07:50Z</time>
      </trkpt>
      <trkpt lat="47.5784" lon="-2.32298">
        <ele>61.3</ele>
        <time>2025-01-16T14:07:51Z</time>
      </trkpt>
      <trkpt lat="47.57841" lon="-2.32299">
        <ele>61.2</ele>
        <time>2025-01-16T14:07:52Z</time>
      </trkpt>
      <trkpt lat="47.57841" lon="-2.32301">
        <ele>61.2</ele>
        <time>2025-01-16T14:07:53Z</time>
      </trkpt>
      <trkpt lat="47.57842" lon="-2.32303">
        <ele>61.1</ele>
        <time>2025-01-16T14:07:54Z</time>
      </trkpt>
      <trkpt lat="47.57842" lon="-2.32305">
        <ele>61</ele>
        <time>2025-01-16T14:07:55Z</time>
      </trkpt>
      <trkpt lat="47.57842" lon="-2.32307">
        <ele>60.9</ele>
        <time>2025-01-16T14:07:56Z</time>
      </trkpt>
      <trkpt lat="47.57842" lon="-2.32308">
        <ele>60.8</ele>
        <time>2025-01-16T14:07:57Z</time>
      </trkpt>
      <trkpt lat="47.57842" lon="-2.32309">
        <ele>60.8</ele>
        <time>2025-01-16T14:07:58Z</time>
      </trkpt>
      <trkpt lat="47.57842" lon="-2.32311">
        <ele>60.6</ele>
        <time>2025-01-16T14:07:59Z</time>
      </trkpt>
      <trkpt lat="47.57842" lon="-2.32313">
        <ele>60.5</ele>
        <time>2025-01-16T14:08:00Z</time>
      </trkpt>
      <trkpt lat="47.57842" lon="-2.32315">
        <ele>60.3</ele>
        <time>2025-01-16T14:08:01Z</time>
      </trkpt>
      <trkpt lat="47.57842" lon="-2.32317">
        <ele>60.2</ele>
        <time>2025-01-16T14:08:02Z</time>
      </trkpt>
      <trkpt lat="47.57843" lon="-2.32319">
        <ele>60</ele>
        <time>2025-01-16T14:08:03Z</time>
      </trkpt>
      <trkpt lat="47.57843" lon="-2.32321">
        <ele>59.9</ele>
        <time>2025-01-16T14:08:04Z</time>
      </trkpt>
      <trkpt lat="47.57843" lon="-2.32322">
        <ele>59.8</ele>
        <time>2025-01-16T14:08:05Z</time>
      </trkpt>
      <trkpt lat="47.57843" lon="-2.32324">
        <ele>59.7</ele>
        <time>2025-01-16T14:08:06Z</time>
      </trkpt>
      <trkpt lat="47.57843" lon="-2.32326">
        <ele>59.5</ele>
        <time>2025-01-16T14:08:07Z</time>
      </trkpt>
      <trkpt lat="47.57843" lon="-2.32328">
        <ele>59.4</ele>
        <time>2025-01-16T14:08:08Z</time>
      </trkpt>
      <trkpt lat="47.57843" lon="-2.3233">
        <ele>59.2</ele>
        <time>2025-01-16T14:08:09Z</time>
      </trkpt>
      <trkpt lat="47.57843" lon="-2.32331">
        <ele>59.2</ele>
        <time>2025-01-16T14:08:10Z</time>
      </trkpt>
      <trkpt lat="47.57843" lon="-2.32333">
        <ele>59</ele>
        <time>2025-01-16T14:08:11Z</time>
      </trkpt>
      <trkpt lat="47.57844" lon="-2.32335">
        <ele>58.9</ele>
        <time>2025-01-16T14:08:12Z</time>
      </trkpt>
      <trkpt lat="47.57844" lon="-2.32337">
        <ele>58.8</ele>
        <time>2025-01-16T14:08:13Z</time>
      </trkpt>
      <trkpt lat="47.57845" lon="-2.32339">
        <ele>58.7</ele>
        <time>2025-01-16T14:08:14Z</time>
      </trkpt>
      <trkpt lat="47.57845" lon="-2.32341">
        <ele>58.6</ele>
        <time>2025-01-16T14:08:15Z</time>
      </trkpt>
      <trkpt lat="47.57846" lon="-2.32343">
        <ele>58.5</ele>
        <time>2025-01-16T14:08:16Z</time>
      </trkpt>
      <trkpt lat="47.57847" lon="-2.32345">
        <ele>58.4</ele>
        <time>2025-01-16T14:08:17Z</time>
      </trkpt>
      <trkpt lat="47.57847" lon="-2.32348">
        <ele>58.2</ele>
        <time>2025-01-16T14:08:18Z</time>
      </trkpt>
      <trkpt lat="47.57847" lon="-2.3235">
        <ele>58.1</ele>
        <time>2025-01-16T14:08:19Z</time>
      </trkpt>
      <trkpt lat="47.57848" lon="-2.32353">
        <ele>57.9</ele>
        <time>2025-01-16T14:08:20Z</time>
      </trkpt>
      <trkpt lat="47.57848" lon="-2.32355">
        <ele>57.8</ele>
        <time>2025-01-16T14:08:21Z</time>
      </trkpt>
      <trkpt lat="47.57849" lon="-2.32357">
        <ele>57.7</ele>
        <time>2025-01-16T14:08:22Z</time>
      </trkpt>
      <trkpt lat="47.57849" lon="-2.32359">
        <ele>57.6</ele>
        <time>2025-01-16T14:08:23Z</time>
      </trkpt>
      <trkpt lat="47.57849" lon="-2.32361">
        <ele>57.4</ele>
        <time>2025-01-16T14:08:24Z</time>
      </trkpt>
      <trkpt lat="47.5785" lon="-2.32362">
        <ele>57.4</ele>
        <time>2025-01-16T14:08:25Z</time>
      </trkpt>
      <trkpt lat="47.5785" lon="-2.32364">
        <ele>57.3</ele>
        <time>2025-01-16T14:08:26Z</time>
      </trkpt>
      <trkpt lat="47.57851" lon="-2.32365">
        <ele>57.3</ele>
        <time>2025-01-16T14:08:27Z</time>
      </trkpt>
      <trkpt lat="47.57851" lon="-2.32367">
        <ele>57.2</ele>
        <time>2025-01-16T14:08:28Z</time>
      </trkpt>
      <trkpt lat="47.57851" lon="-2.32369">
        <ele>57.2</ele>
        <time>2025-01-16T14:08:29Z</time>
      </trkpt>
      <trkpt lat="47.57852" lon="-2.32371">
        <ele>57.1</ele>
        <time>2025-01-16T14:08:30Z</time>
      </trkpt>
      <trkpt lat="47.57852" lon="-2.32373">
        <ele>57</ele>
        <time>2025-01-16T14:08:31Z</time>
      </trkpt>
      <trkpt lat="47.57852" lon="-2.32375">
        <ele>57</ele>
        <time>2025-01-16T14:08:32Z</time>
      </trkpt>
      <trkpt lat="47.57852" lon="-2.32377">
        <ele>56.9</ele>
        <time>2025-01-16T14:08:33Z</time>
      </trkpt>
      <trkpt lat="47.57853" lon="-2.32379">
        <ele>56.8</ele>
        <time>2025-01-16T14:08:34Z</time>
      </trkpt>
      <trkpt lat="47.57853" lon="-2.32381">
        <ele>56.8</ele>
        <time>2025-01-16T14:08:35Z</time>
      </trkpt>
      <trkpt lat="47.57853" lon="-2.32383">
        <ele>56.7</ele>
        <time>2025-01-16T14:08:36Z</time>
      </trkpt>
      <trkpt lat="47.57853" lon="-2.32385">
        <ele>56.7</ele>
        <time>2025-01-16T14:08:37Z</time>
      </trkpt>
      <trkpt lat="47.57853" lon="-2.32386">
        <ele>56.7</ele>
        <time>2025-01-16T14:08:38Z</time>
      </trkpt>
      <trkpt lat="47.57853" lon="-2.32388">
        <ele>56.6</ele>
        <time>2025-01-16T14:08:39Z</time>
      </trkpt>
      <trkpt lat="47.57853" lon="-2.3239">
        <ele>56.6</ele>
        <time>2025-01-16T14:08:40Z</time>
      </trkpt>
      <trkpt lat="47.57853" lon="-2.32392">
        <ele>56.6</ele>
        <time>2025-01-16T14:08:41Z</time>
      </trkpt>
      <trkpt lat="47.57853" lon="-2.32393">
        <ele>56.6</ele>
        <time>2025-01-16T14:08:42Z</time>
      </trkpt>
      <trkpt lat="47.57852" lon="-2.32395">
        <ele>56.7</ele>
        <time>2025-01-16T14:08:43Z</time>
      </trkpt>
      <trkpt lat="47.57853" lon="-2.32397">
        <ele>56.6</ele>
        <time>2025-01-16T14:08:44Z</time>
      </trkpt>
      <trkpt lat="47.57853" lon="-2.32399">
        <ele>56.6</ele>
        <time>2025-01-16T14:08:45Z</time>
      </trkpt>
      <trkpt lat="47.57854" lon="-2.324">
        <ele>56.5</ele>
        <time>2025-01-16T14:08:46Z</time>
      </trkpt>
      <trkpt lat="47.57854" lon="-2.32402">
        <ele>56.5</ele>
        <time>2025-01-16T14:08:47Z</time>
      </trkpt>
      <trkpt lat="47.57855" lon="-2.32404">
        <ele>56.4</ele>
        <time>2025-01-16T14:08:48Z</time>
      </trkpt>
      <trkpt lat="47.57855" lon="-2.32406">
        <ele>56.4</ele>
        <time>2025-01-16T14:08:49Z</time>
      </trkpt>
      <trkpt lat="47.57855" lon="-2.32407">
        <ele>56.4</ele>
        <time>2025-01-16T14:08:50Z</time>
      </trkpt>
      <trkpt lat="47.57856" lon="-2.32409">
        <ele>56.4</ele>
        <time>2025-01-16T14:08:51Z</time>
      </trkpt>
      <trkpt lat="47.57856" lon="-2.32411">
        <ele>56.4</ele>
        <time>2025-01-16T14:08:52Z</time>
      </trkpt>
      <trkpt lat="47.57856" lon="-2.32412">
        <ele>56.4</ele>
        <time>2025-01-16T14:08:53Z</time>
      </trkpt>
      <trkpt lat="47.57856" lon="-2.32412">
        <ele>56.4</ele>
        <time>2025-01-16T14:08:54Z</time>
      </trkpt>
      <trkpt lat="47.57856" lon="-2.32414">
        <ele>56.4</ele>
        <time>2025-01-16T14:08:55Z</time>
      </trkpt>
      <trkpt lat="47.57857" lon="-2.32415">
        <ele>56.3</ele>
        <time>2025-01-16T14:08:56Z</time>
      </trkpt>
      <trkpt lat="47.57857" lon="-2.32417">
        <ele>56.3</ele>
        <time>2025-01-16T14:08:57Z</time>
      </trkpt>
      <trkpt lat="47.57857" lon="-2.32418">
        <ele>56.3</ele>
        <time>2025-01-16T14:08:58Z</time>
      </trkpt>
      <trkpt lat="47.57857" lon="-2.3242">
        <ele>56.4</ele>
        <time>2025-01-16T14:08:59Z</time>
      </trkpt>
      <trkpt lat="47.57858" lon="-2.32421">
        <ele>56.4</ele>
        <time>2025-01-16T14:09:00Z</time>
      </trkpt>
      <trkpt lat="47.57859" lon="-2.32423">
        <ele>56.4</ele>
        <time>2025-01-16T14:09:01Z</time>
      </trkpt>
      <trkpt lat="47.57859" lon="-2.32424">
        <ele>56.4</ele>
        <time>2025-01-16T14:09:02Z</time>
      </trkpt>
      <trkpt lat="47.5786" lon="-2.32426">
        <ele>56.4</ele>
        <time>2025-01-16T14:09:03Z</time>
      </trkpt>
      <trkpt lat="47.5786" lon="-2.32427">
        <ele>56.4</ele>
        <time>2025-01-16T14:09:04Z</time>
      </trkpt>
      <trkpt lat="47.57861" lon="-2.32429">
        <ele>56.5</ele>
        <time>2025-01-16T14:09:05Z</time>
      </trkpt>
      <trkpt lat="47.57861" lon="-2.3243">
        <ele>56.5</ele>
        <time>2025-01-16T14:09:06Z</time>
      </trkpt>
      <trkpt lat="47.57861" lon="-2.32432">
        <ele>56.6</ele>
        <time>2025-01-16T14:09:07Z</time>
      </trkpt>
      <trkpt lat="47.57861" lon="-2.32434">
        <ele>56.6</ele>
        <time>2025-01-16T14:09:08Z</time>
      </trkpt>
      <trkpt lat="47.57862" lon="-2.32436">
        <ele>56.7</ele>
        <time>2025-01-16T14:09:09Z</time>
      </trkpt>
      <trkpt lat="47.57862" lon="-2.32438">
        <ele>56.8</ele>
        <time>2025-01-16T14:09:10Z</time>
      </trkpt>
      <trkpt lat="47.57863" lon="-2.3244">
        <ele>56.8</ele>
        <time>2025-01-16T14:09:11Z</time>
      </trkpt>
      <trkpt lat="47.57864" lon="-2.32442">
        <ele>56.9</ele>
        <time>2025-01-16T14:09:12Z</time>
      </trkpt>
      <trkpt lat="47.57864" lon="-2.32444">
        <ele>57</ele>
        <time>2025-01-16T14:09:13Z</time>
      </trkpt>
      <trkpt lat="47.57865" lon="-2.32446">
        <ele>57</ele>
        <time>2025-01-16T14:09:14Z</time>
      </trkpt>
      <trkpt lat="47.57865" lon="-2.32447">
        <ele>57</ele>
        <time>2025-01-16T14:09:15Z</time>
      </trkpt>
      <trkpt lat="47.57865" lon="-2.32448">
        <ele>57</ele>
        <time>2025-01-16T14:09:16Z</time>
      </trkpt>
      <trkpt lat="47.57866" lon="-2.3245">
        <ele>57</ele>
        <time>2025-01-16T14:09:17Z</time>
      </trkpt>
      <trkpt lat="47.57866" lon="-2.32452">
        <ele>57</ele>
        <time>2025-01-16T14:09:18Z</time>
      </trkpt>
      <trkpt lat="47.57866" lon="-2.32454">
        <ele>57.1</ele>
        <time>2025-01-16T14:09:19Z</time>
      </trkpt>
      <trkpt lat="47.57866" lon="-2.32456">
        <ele>57.1</ele>
        <time>2025-01-16T14:09:20Z</time>
      </trkpt>
      <trkpt lat="47.57867" lon="-2.32457">
        <ele>57.1</ele>
        <time>2025-01-16T14:09:21Z</time>
      </trkpt>
      <trkpt lat="47.57867" lon="-2.32459">
        <ele>57.1</ele>
        <time>2025-01-16T14:09:22Z</time>
      </trkpt>
      <trkpt lat="47.57867" lon="-2.32461">
        <ele>57.1</ele>
        <time>2025-01-16T14:09:23Z</time>
      </trkpt>
      <trkpt lat="47.57867" lon="-2.32463">
        <ele>57.1</ele>
        <time>2025-01-16T14:09:24Z</time>
      </trkpt>
      <trkpt lat="47.57867" lon="-2.32465">
        <ele>57.2</ele>
        <time>2025-01-16T14:09:25Z</time>
      </trkpt>
      <trkpt lat="47.57867" lon="-2.32468">
        <ele>57.2</ele>
        <time>2025-01-16T14:09:26Z</time>
      </trkpt>
      <trkpt lat="47.57867" lon="-2.32469">
        <ele>57.2</ele>
        <time>2025-01-16T14:09:27Z</time>
      </trkpt>
      <trkpt lat="47.57867" lon="-2.3247">
        <ele>57.2</ele>
        <time>2025-01-16T14:09:28Z</time>
      </trkpt>
      <trkpt lat="47.57866" lon="-2.32471">
        <ele>57.2</ele>
        <time>2025-01-16T14:09:29Z</time>
      </trkpt>
      <trkpt lat="47.57866" lon="-2.32473">
        <ele>57.2</ele>
        <time>2025-01-16T14:09:30Z</time>
      </trkpt>
      <trkpt lat="47.57866" lon="-2.32474">
        <ele>57.3</ele>
        <time>2025-01-16T14:09:31Z</time>
      </trkpt>
      <trkpt lat="47.57866" lon="-2.32476">
        <ele>57.4</ele>
        <time>2025-01-16T14:09:32Z</time>
      </trkpt>
      <trkpt lat="47.57866" lon="-2.32477">
        <ele>57.5</ele>
        <time>2025-01-16T14:09:33Z</time>
      </trkpt>
      <trkpt lat="47.57867" lon="-2.32479">
        <ele>57.6</ele>
        <time>2025-01-16T14:09:34Z</time>
      </trkpt>
      <trkpt lat="47.57867" lon="-2.3248">
        <ele>57.7</ele>
        <time>2025-01-16T14:09:35Z</time>
      </trkpt>
      <trkpt lat="47.57868" lon="-2.32482">
        <ele>57.8</ele>
        <time>2025-01-16T14:09:36Z</time>
      </trkpt>
      <trkpt lat="47.57868" lon="-2.32483">
        <ele>57.8</ele>
        <time>2025-01-16T14:09:37Z</time>
      </trkpt>
      <trkpt lat="47.57869" lon="-2.32485">
        <ele>57.9</ele>
        <time>2025-01-16T14:09:38Z</time>
      </trkpt>
      <trkpt lat="47.57869" lon="-2.32487">
        <ele>58</ele>
        <time>2025-01-16T14:09:39Z</time>
      </trkpt>
      <trkpt lat="47.57869" lon="-2.32489">
        <ele>58.1</ele>
        <time>2025-01-16T14:09:40Z</time>
      </trkpt>
      <trkpt lat="47.5787" lon="-2.3249">
        <ele>58.2</ele>
        <time>2025-01-16T14:09:41Z</time>
      </trkpt>
      <trkpt lat="47.5787" lon="-2.32493">
        <ele>58.3</ele>
        <time>2025-01-16T14:09:42Z</time>
      </trkpt>
      <trkpt lat="47.5787" lon="-2.32495">
        <ele>58.4</ele>
        <time>2025-01-16T14:09:43Z</time>
      </trkpt>
      <trkpt lat="47.5787" lon="-2.32497">
        <ele>58.5</ele>
        <time>2025-01-16T14:09:44Z</time>
      </trkpt>
      <trkpt lat="47.5787" lon="-2.32499">
        <ele>58.6</ele>
        <time>2025-01-16T14:09:45Z</time>
      </trkpt>
      <trkpt lat="47.57869" lon="-2.325">
        <ele>58.7</ele>
        <time>2025-01-16T14:09:46Z</time>
      </trkpt>
      <trkpt lat="47.57869" lon="-2.32502">
        <ele>58.7</ele>
        <time>2025-01-16T14:09:47Z</time>
      </trkpt>
      <trkpt lat="47.57869" lon="-2.32504">
        <ele>58.8</ele>
        <time>2025-01-16T14:09:48Z</time>
      </trkpt>
      <trkpt lat="47.57869" lon="-2.32505">
        <ele>58.8</ele>
        <time>2025-01-16T14:09:49Z</time>
      </trkpt>
      <trkpt lat="47.5787" lon="-2.32507">
        <ele>58.8</ele>
        <time>2025-01-16T14:09:50Z</time>
      </trkpt>
      <trkpt lat="47.5787" lon="-2.32508">
        <ele>58.8</ele>
        <time>2025-01-16T14:09:51Z</time>
      </trkpt>
      <trkpt lat="47.5787" lon="-2.3251">
        <ele>58.8</ele>
        <time>2025-01-16T14:09:52Z</time>
      </trkpt>
      <trkpt lat="47.5787" lon="-2.32511">
        <ele>58.8</ele>
        <time>2025-01-16T14:09:53Z</time>
      </trkpt>
      <trkpt lat="47.57871" lon="-2.32513">
        <ele>58.8</ele>
        <time>2025-01-16T14:09:54Z</time>
      </trkpt>
      <trkpt lat="47.57872" lon="-2.32515">
        <ele>58.7</ele>
        <time>2025-01-16T14:09:55Z</time>
      </trkpt>
      <trkpt lat="47.57872" lon="-2.32517">
        <ele>58.7</ele>
        <time>2025-01-16T14:09:56Z</time>
      </trkpt>
      <trkpt lat="47.57873" lon="-2.32518">
        <ele>58.7</ele>
        <time>2025-01-16T14:09:57Z</time>
      </trkpt>
      <trkpt lat="47.57874" lon="-2.3252">
        <ele>58.6</ele>
        <time>2025-01-16T14:09:58Z</time>
      </trkpt>
      <trkpt lat="47.57875" lon="-2.32522">
        <ele>58.5</ele>
        <time>2025-01-16T14:09:59Z</time>
      </trkpt>
      <trkpt lat="47.57876" lon="-2.32523">
        <ele>58.4</ele>
        <time>2025-01-16T14:10:00Z</time>
      </trkpt>
      <trkpt lat="47.57876" lon="-2.32524">
        <ele>58.4</ele>
        <time>2025-01-16T14:10:01Z</time>
      </trkpt>
      <trkpt lat="47.57877" lon="-2.32526">
        <ele>58.3</ele>
        <time>2025-01-16T14:10:02Z</time>
      </trkpt>
      <trkpt lat="47.57877" lon="-2.32528">
        <ele>58.3</ele>
        <time>2025-01-16T14:10:03Z</time>
      </trkpt>
      <trkpt lat="47.57877" lon="-2.32529">
        <ele>58.2</ele>
        <time>2025-01-16T14:10:04Z</time>
      </trkpt>
      <trkpt lat="47.57877" lon="-2.3253">
        <ele>58.2</ele>
        <time>2025-01-16T14:10:05Z</time>
      </trkpt>
      <trkpt lat="47.57878" lon="-2.32532">
        <ele>58</ele>
        <time>2025-01-16T14:10:06Z</time>
      </trkpt>
      <trkpt lat="47.57878" lon="-2.32534">
        <ele>58</ele>
        <time>2025-01-16T14:10:07Z</time>
      </trkpt>
      <trkpt lat="47.5788" lon="-2.32537">
        <ele>57.6</ele>
        <time>2025-01-16T14:10:08Z</time>
      </trkpt>
      <trkpt lat="47.57881" lon="-2.32539">
        <ele>57.4</ele>
        <time>2025-01-16T14:10:09Z</time>
      </trkpt>
      <trkpt lat="47.57883" lon="-2.3254">
        <ele>57.2</ele>
        <time>2025-01-16T14:10:10Z</time>
      </trkpt>
      <trkpt lat="47.57884" lon="-2.32541">
        <ele>57.1</ele>
        <time>2025-01-16T14:10:11Z</time>
      </trkpt>
      <trkpt lat="47.57885" lon="-2.32543">
        <ele>56.9</ele>
        <time>2025-01-16T14:10:12Z</time>
      </trkpt>
      <trkpt lat="47.57886" lon="-2.32545">
        <ele>56.7</ele>
        <time>2025-01-16T14:10:13Z</time>
      </trkpt>
      <trkpt lat="47.57887" lon="-2.32546">
        <ele>56.5</ele>
        <time>2025-01-16T14:10:14Z</time>
      </trkpt>
      <trkpt lat="47.57888" lon="-2.32548">
        <ele>56.4</ele>
        <time>2025-01-16T14:10:15Z</time>
      </trkpt>
      <trkpt lat="47.57889" lon="-2.32549">
        <ele>56.2</ele>
        <time>2025-01-16T14:10:16Z</time>
      </trkpt>
      <trkpt lat="47.57889" lon="-2.32551">
        <ele>56.1</ele>
        <time>2025-01-16T14:10:17Z</time>
      </trkpt>
      <trkpt lat="47.5789" lon="-2.32553">
        <ele>55.9</ele>
        <time>2025-01-16T14:10:18Z</time>
      </trkpt>
      <trkpt lat="47.5789" lon="-2.32554">
        <ele>55.9</ele>
        <time>2025-01-16T14:10:19Z</time>
      </trkpt>
      <trkpt lat="47.57891" lon="-2.32556">
        <ele>55.6</ele>
        <time>2025-01-16T14:10:20Z</time>
      </trkpt>
      <trkpt lat="47.57891" lon="-2.32557">
        <ele>55.5</ele>
        <time>2025-01-16T14:10:21Z</time>
      </trkpt>
      <trkpt lat="47.57892" lon="-2.32558">
        <ele>55.3</ele>
        <time>2025-01-16T14:10:22Z</time>
      </trkpt>
      <trkpt lat="47.57892" lon="-2.3256">
        <ele>55.2</ele>
        <time>2025-01-16T14:10:23Z</time>
      </trkpt>
      <trkpt lat="47.57892" lon="-2.32561">
        <ele>55.1</ele>
        <time>2025-01-16T14:10:24Z</time>
      </trkpt>
      <trkpt lat="47.57893" lon="-2.32563">
        <ele>54.9</ele>
        <time>2025-01-16T14:10:25Z</time>
      </trkpt>
      <trkpt lat="47.57894" lon="-2.32565">
        <ele>54.7</ele>
        <time>2025-01-16T14:10:26Z</time>
      </trkpt>
      <trkpt lat="47.57895" lon="-2.32566">
        <ele>54.5</ele>
        <time>2025-01-16T14:10:27Z</time>
      </trkpt>
      <trkpt lat="47.57896" lon="-2.32568">
        <ele>54.3</ele>
        <time>2025-01-16T14:10:28Z</time>
      </trkpt>
      <trkpt lat="47.57896" lon="-2.32569">
        <ele>54.2</ele>
        <time>2025-01-16T14:10:29Z</time>
      </trkpt>
      <trkpt lat="47.57897" lon="-2.32571">
        <ele>54.1</ele>
        <time>2025-01-16T14:10:30Z</time>
      </trkpt>
      <trkpt lat="47.57898" lon="-2.32572">
        <ele>54</ele>
        <time>2025-01-16T14:10:31Z</time>
      </trkpt>
      <trkpt lat="47.57899" lon="-2.32574">
        <ele>53.8</ele>
        <time>2025-01-16T14:10:32Z</time>
      </trkpt>
      <trkpt lat="47.579" lon="-2.32576">
        <ele>53.7</ele>
        <time>2025-01-16T14:10:33Z</time>
      </trkpt>
      <trkpt lat="47.579" lon="-2.32578">
        <ele>53.7</ele>
        <time>2025-01-16T14:10:34Z</time>
      </trkpt>
      <trkpt lat="47.57901" lon="-2.32579">
        <ele>53.6</ele>
        <time>2025-01-16T14:10:35Z</time>
      </trkpt>
      <trkpt lat="47.57902" lon="-2.3258">
        <ele>53.5</ele>
        <time>2025-01-16T14:10:36Z</time>
      </trkpt>
      <trkpt lat="47.57902" lon="-2.32581">
        <ele>53.5</ele>
        <time>2025-01-16T14:10:37Z</time>
      </trkpt>
      <trkpt lat="47.57902" lon="-2.32583">
        <ele>53.5</ele>
        <time>2025-01-16T14:10:38Z</time>
      </trkpt>
      <trkpt lat="47.57903" lon="-2.32585">
        <ele>53.6</ele>
        <time>2025-01-16T14:10:39Z</time>
      </trkpt>
      <trkpt lat="47.57903" lon="-2.32586">
        <ele>53.7</ele>
        <time>2025-01-16T14:10:40Z</time>
      </trkpt>
      <trkpt lat="47.57903" lon="-2.32587">
        <ele>53.8</ele>
        <time>2025-01-16T14:10:41Z</time>
      </trkpt>
      <trkpt lat="47.57903" lon="-2.32588">
        <ele>53.9</ele>
        <time>2025-01-16T14:10:42Z</time>
      </trkpt>
      <trkpt lat="47.57903" lon="-2.3259">
        <ele>54.1</ele>
        <time>2025-01-16T14:10:43Z</time>
      </trkpt>
      <trkpt lat="47.57904" lon="-2.32591">
        <ele>54.2</ele>
        <time>2025-01-16T14:10:44Z</time>
      </trkpt>
      <trkpt lat="47.57904" lon="-2.32591">
        <ele>54.2</ele>
        <time>2025-01-16T14:10:45Z</time>
      </trkpt>
      <trkpt lat="47.57904" lon="-2.32592">
        <ele>54.2</ele>
        <time>2025-01-16T14:10:46Z</time>
      </trkpt>
      <trkpt lat="47.57905" lon="-2.32593">
        <ele>54.3</ele>
        <time>2025-01-16T14:10:47Z</time>
      </trkpt>
      <trkpt lat="47.57905" lon="-2.32595">
        <ele>54.5</ele>
        <time>2025-01-16T14:10:48Z</time>
      </trkpt>
      <trkpt lat="47.57906" lon="-2.32596">
        <ele>54.6</ele>
        <time>2025-01-16T14:10:49Z</time>
      </trkpt>
      <trkpt lat="47.57907" lon="-2.32598">
        <ele>54.7</ele>
        <time>2025-01-16T14:10:50Z</time>
      </trkpt>
      <trkpt lat="47.57908" lon="-2.32599">
        <ele>54.8</ele>
        <time>2025-01-16T14:10:51Z</time>
      </trkpt>
      <trkpt lat="47.57908" lon="-2.326">
        <ele>54.9</ele>
        <time>2025-01-16T14:10:52Z</time>
      </trkpt>
      <trkpt lat="47.57909" lon="-2.32601">
        <ele>55</ele>
        <time>2025-01-16T14:10:53Z</time>
      </trkpt>
      <trkpt lat="47.5791" lon="-2.32602">
        <ele>55.1</ele>
        <time>2025-01-16T14:10:54Z</time>
      </trkpt>
      <trkpt lat="47.5791" lon="-2.32604">
        <ele>55.3</ele>
        <time>2025-01-16T14:10:55Z</time>
      </trkpt>
      <trkpt lat="47.57911" lon="-2.32605">
        <ele>55.4</ele>
        <time>2025-01-16T14:10:56Z</time>
      </trkpt>
      <trkpt lat="47.57911" lon="-2.32606">
        <ele>55.5</ele>
        <time>2025-01-16T14:10:57Z</time>
      </trkpt>
      <trkpt lat="47.57911" lon="-2.32607">
        <ele>55.6</ele>
        <time>2025-01-16T14:10:58Z</time>
      </trkpt>
      <trkpt lat="47.57912" lon="-2.32609">
        <ele>55.8</ele>
        <time>2025-01-16T14:10:59Z</time>
      </trkpt>
      <trkpt lat="47.57912" lon="-2.3261">
        <ele>55.9</ele>
        <time>2025-01-16T14:11:00Z</time>
      </trkpt>
      <trkpt lat="47.57913" lon="-2.32611">
        <ele>56</ele>
        <time>2025-01-16T14:11:01Z</time>
      </trkpt>
      <trkpt lat="47.57913" lon="-2.32612">
        <ele>56.1</ele>
        <time>2025-01-16T14:11:02Z</time>
      </trkpt>
      <trkpt lat="47.57914" lon="-2.32614">
        <ele>56.3</ele>
        <time>2025-01-16T14:11:03Z</time>
      </trkpt>
      <trkpt lat="47.57915" lon="-2.32615">
        <ele>56.4</ele>
        <time>2025-01-16T14:11:04Z</time>
      </trkpt>
      <trkpt lat="47.57916" lon="-2.32616">
        <ele>56.5</ele>
        <time>2025-01-16T14:11:05Z</time>
      </trkpt>
      <trkpt lat="47.57916" lon="-2.32617">
        <ele>56.6</ele>
        <time>2025-01-16T14:11:06Z</time>
      </trkpt>
      <trkpt lat="47.57917" lon="-2.32618">
        <ele>56.7</ele>
        <time>2025-01-16T14:11:07Z</time>
      </trkpt>
      <trkpt lat="47.57917" lon="-2.32619">
        <ele>56.8</ele>
        <time>2025-01-16T14:11:08Z</time>
      </trkpt>
      <trkpt lat="47.57917" lon="-2.3262">
        <ele>57</ele>
        <time>2025-01-16T14:11:09Z</time>
      </trkpt>
      <trkpt lat="47.57917" lon="-2.32622">
        <ele>57.2</ele>
        <time>2025-01-16T14:11:10Z</time>
      </trkpt>
      <trkpt lat="47.57918" lon="-2.32623">
        <ele>57.3</ele>
        <time>2025-01-16T14:11:11Z</time>
      </trkpt>
      <trkpt lat="47.57918" lon="-2.32624">
        <ele>57.4</ele>
        <time>2025-01-16T14:11:12Z</time>
      </trkpt>
      <trkpt lat="47.57918" lon="-2.32626">
        <ele>57.6</ele>
        <time>2025-01-16T14:11:13Z</time>
      </trkpt>
      <trkpt lat="47.57919" lon="-2.32627">
        <ele>57.7</ele>
        <time>2025-01-16T14:11:14Z</time>
      </trkpt>
      <trkpt lat="47.5792" lon="-2.32629">
        <ele>57.9</ele>
        <time>2025-01-16T14:11:15Z</time>
      </trkpt>
      <trkpt lat="47.57921" lon="-2.3263">
        <ele>57.9</ele>
        <time>2025-01-16T14:11:16Z</time>
      </trkpt>
      <trkpt lat="47.57922" lon="-2.32631">
        <ele>58</ele>
        <time>2025-01-16T14:11:17Z</time>
      </trkpt>
      <trkpt lat="47.57923" lon="-2.32633">
        <ele>58.2</ele>
        <time>2025-01-16T14:11:18Z</time>
      </trkpt>
      <trkpt lat="47.57923" lon="-2.32634">
        <ele>58.3</ele>
        <time>2025-01-16T14:11:19Z</time>
      </trkpt>
      <trkpt lat="47.57923" lon="-2.32635">
        <ele>58.4</ele>
        <time>2025-01-16T14:11:20Z</time>
      </trkpt>
      <trkpt lat="47.57924" lon="-2.32636">
        <ele>58.5</ele>
        <time>2025-01-16T14:11:21Z</time>
      </trkpt>
      <trkpt lat="47.57924" lon="-2.32637">
        <ele>58.5</ele>
        <time>2025-01-16T14:11:22Z</time>
      </trkpt>
      <trkpt lat="47.57925" lon="-2.32639">
        <ele>58.7</ele>
        <time>2025-01-16T14:11:23Z</time>
      </trkpt>
      <trkpt lat="47.57925" lon="-2.3264">
        <ele>58.7</ele>
        <time>2025-01-16T14:11:24Z</time>
      </trkpt>
      <trkpt lat="47.57926" lon="-2.32641">
        <ele>58.7</ele>
        <time>2025-01-16T14:11:25Z</time>
      </trkpt>
      <trkpt lat="47.57927" lon="-2.32643">
        <ele>58.8</ele>
        <time>2025-01-16T14:11:26Z</time>
      </trkpt>
      <trkpt lat="47.57927" lon="-2.32645">
        <ele>58.8</ele>
        <time>2025-01-16T14:11:27Z</time>
      </trkpt>
      <trkpt lat="47.57928" lon="-2.32646">
        <ele>58.8</ele>
        <time>2025-01-16T14:11:28Z</time>
      </trkpt>
      <trkpt lat="47.57929" lon="-2.32647">
        <ele>58.8</ele>
        <time>2025-01-16T14:11:29Z</time>
      </trkpt>
      <trkpt lat="47.5793" lon="-2.32648">
        <ele>58.8</ele>
        <time>2025-01-16T14:11:30Z</time>
      </trkpt>
      <trkpt lat="47.5793" lon="-2.32648">
        <ele>58.8</ele>
        <time>2025-01-16T14:11:31Z</time>
      </trkpt>
      <trkpt lat="47.57931" lon="-2.32649">
        <ele>58.8</ele>
        <time>2025-01-16T14:11:32Z</time>
      </trkpt>
      <trkpt lat="47.57931" lon="-2.32651">
        <ele>58.9</ele>
        <time>2025-01-16T14:11:33Z</time>
      </trkpt>
      <trkpt lat="47.57932" lon="-2.32652">
        <ele>58.9</ele>
        <time>2025-01-16T14:11:34Z</time>
      </trkpt>
      <trkpt lat="47.57932" lon="-2.32654">
        <ele>59</ele>
        <time>2025-01-16T14:11:35Z</time>
      </trkpt>
      <trkpt lat="47.57933" lon="-2.32655">
        <ele>59</ele>
        <time>2025-01-16T14:11:36Z</time>
      </trkpt>
      <trkpt lat="47.57933" lon="-2.32656">
        <ele>59</ele>
        <time>2025-01-16T14:11:37Z</time>
      </trkpt>
      <trkpt lat="47.57934" lon="-2.32658">
        <ele>59.1</ele>
        <time>2025-01-16T14:11:38Z</time>
      </trkpt>
      <trkpt lat="47.57934" lon="-2.32659">
        <ele>59.1</ele>
        <time>2025-01-16T14:11:39Z</time>
      </trkpt>
      <trkpt lat="47.57934" lon="-2.32661">
        <ele>59.2</ele>
        <time>2025-01-16T14:11:40Z</time>
      </trkpt>
      <trkpt lat="47.57935" lon="-2.32663">
        <ele>59.2</ele>
        <time>2025-01-16T14:11:41Z</time>
      </trkpt>
      <trkpt lat="47.57935" lon="-2.32664">
        <ele>59.2</ele>
        <time>2025-01-16T14:11:42Z</time>
      </trkpt>
      <trkpt lat="47.57935" lon="-2.32666">
        <ele>59.3</ele>
        <time>2025-01-16T14:11:43Z</time>
      </trkpt>
      <trkpt lat="47.57935" lon="-2.32668">
        <ele>59.4</ele>
        <time>2025-01-16T14:11:44Z</time>
      </trkpt>
      <trkpt lat="47.57935" lon="-2.3267">
        <ele>59.4</ele>
        <time>2025-01-16T14:11:45Z</time>
      </trkpt>
      <trkpt lat="47.57936" lon="-2.32672">
        <ele>59.4</ele>
        <time>2025-01-16T14:11:46Z</time>
      </trkpt>
      <trkpt lat="47.57936" lon="-2.32673">
        <ele>59.4</ele>
        <time>2025-01-16T14:11:47Z</time>
      </trkpt>
      <trkpt lat="47.57936" lon="-2.32674">
        <ele>59.4</ele>
        <time>2025-01-16T14:11:48Z</time>
      </trkpt>
      <trkpt lat="47.57936" lon="-2.32676">
        <ele>59.4</ele>
        <time>2025-01-16T14:11:49Z</time>
      </trkpt>
      <trkpt lat="47.57936" lon="-2.32677">
        <ele>59.4</ele>
        <time>2025-01-16T14:11:50Z</time>
      </trkpt>
      <trkpt lat="47.57936" lon="-2.32678">
        <ele>59.4</ele>
        <time>2025-01-16T14:11:51Z</time>
      </trkpt>
      <trkpt lat="47.57937" lon="-2.3268">
        <ele>59.4</ele>
        <time>2025-01-16T14:11:52Z</time>
      </trkpt>
      <trkpt lat="47.57937" lon="-2.32682">
        <ele>59.4</ele>
        <time>2025-01-16T14:11:53Z</time>
      </trkpt>
      <trkpt lat="47.57938" lon="-2.32683">
        <ele>59.4</ele>
        <time>2025-01-16T14:11:54Z</time>
      </trkpt>
      <trkpt lat="47.57938" lon="-2.32685">
        <ele>59.4</ele>
        <time>2025-01-16T14:11:55Z</time>
      </trkpt>
      <trkpt lat="47.57938" lon="-2.32687">
        <ele>59.4</ele>
        <time>2025-01-16T14:11:56Z</time>
      </trkpt>
      <trkpt lat="47.57939" lon="-2.32689">
        <ele>59.4</ele>
        <time>2025-01-16T14:11:57Z</time>
      </trkpt>
      <trkpt lat="47.57939" lon="-2.32691">
        <ele>59.4</ele>
        <time>2025-01-16T14:11:58Z</time>
      </trkpt>
      <trkpt lat="47.57939" lon="-2.32693">
        <ele>59.4</ele>
        <time>2025-01-16T14:11:59Z</time>
      </trkpt>
      <trkpt lat="47.5794" lon="-2.32695">
        <ele>59.3</ele>
        <time>2025-01-16T14:12:00Z</time>
      </trkpt>
      <trkpt lat="47.5794" lon="-2.32697">
        <ele>59.4</ele>
        <time>2025-01-16T14:12:01Z</time>
      </trkpt>
      <trkpt lat="47.5794" lon="-2.32698">
        <ele>59.4</ele>
        <time>2025-01-16T14:12:02Z</time>
      </trkpt>
      <trkpt lat="47.5794" lon="-2.327">
        <ele>59.5</ele>
        <time>2025-01-16T14:12:03Z</time>
      </trkpt>
      <trkpt lat="47.57941" lon="-2.32702">
        <ele>59.5</ele>
        <time>2025-01-16T14:12:04Z</time>
      </trkpt>
      <trkpt lat="47.57941" lon="-2.32705">
        <ele>59.6</ele>
        <time>2025-01-16T14:12:05Z</time>
      </trkpt>
      <trkpt lat="47.57942" lon="-2.32707">
        <ele>59.6</ele>
        <time>2025-01-16T14:12:06Z</time>
      </trkpt>
      <trkpt lat="47.57942" lon="-2.3271">
        <ele>59.7</ele>
        <time>2025-01-16T14:12:07Z</time>
      </trkpt>
      <trkpt lat="47.57942" lon="-2.32712">
        <ele>59.8</ele>
        <time>2025-01-16T14:12:08Z</time>
      </trkpt>
      <trkpt lat="47.57942" lon="-2.32714">
        <ele>59.9</ele>
        <time>2025-01-16T14:12:09Z</time>
      </trkpt>
      <trkpt lat="47.57943" lon="-2.32716">
        <ele>59.9</ele>
        <time>2025-01-16T14:12:10Z</time>
      </trkpt>
      <trkpt lat="47.57943" lon="-2.32718">
        <ele>60</ele>
        <time>2025-01-16T14:12:11Z</time>
      </trkpt>
      <trkpt lat="47.57943" lon="-2.3272">
        <ele>60</ele>
        <time>2025-01-16T14:12:12Z</time>
      </trkpt>
      <trkpt lat="47.57943" lon="-2.32722">
        <ele>60.1</ele>
        <time>2025-01-16T14:12:13Z</time>
      </trkpt>
      <trkpt lat="47.57943" lon="-2.32724">
        <ele>60.2</ele>
        <time>2025-01-16T14:12:14Z</time>
      </trkpt>
      <trkpt lat="47.57943" lon="-2.32725">
        <ele>60.2</ele>
        <time>2025-01-16T14:12:15Z</time>
      </trkpt>
      <trkpt lat="47.57944" lon="-2.32727">
        <ele>60.2</ele>
        <time>2025-01-16T14:12:16Z</time>
      </trkpt>
      <trkpt lat="47.57944" lon="-2.32728">
        <ele>60.2</ele>
        <time>2025-01-16T14:12:17Z</time>
      </trkpt>
      <trkpt lat="47.57945" lon="-2.3273">
        <ele>60.2</ele>
        <time>2025-01-16T14:12:18Z</time>
      </trkpt>
      <trkpt lat="47.57945" lon="-2.32732">
        <ele>60.3</ele>
        <time>2025-01-16T14:12:19Z</time>
      </trkpt>
      <trkpt lat="47.57946" lon="-2.32733">
        <ele>60.3</ele>
        <time>2025-01-16T14:12:20Z</time>
      </trkpt>
      <trkpt lat="47.57946" lon="-2.32733">
        <ele>60.3</ele>
        <time>2025-01-16T14:12:21Z</time>
      </trkpt>
      <trkpt lat="47.57947" lon="-2.32735">
        <ele>60.3</ele>
        <time>2025-01-16T14:12:22Z</time>
      </trkpt>
      <trkpt lat="47.57948" lon="-2.32736">
        <ele>60.2</ele>
        <time>2025-01-16T14:12:23Z</time>
      </trkpt>
      <trkpt lat="47.57948" lon="-2.32737">
        <ele>60.3</ele>
        <time>2025-01-16T14:12:24Z</time>
      </trkpt>
      <trkpt lat="47.57948" lon="-2.32738">
        <ele>60.3</ele>
        <time>2025-01-16T14:12:25Z</time>
      </trkpt>
      <trkpt lat="47.57948" lon="-2.32739">
        <ele>60.3</ele>
        <time>2025-01-16T14:12:26Z</time>
      </trkpt>
      <trkpt lat="47.57949" lon="-2.3274">
        <ele>60.3</ele>
        <time>2025-01-16T14:12:27Z</time>
      </trkpt>
      <trkpt lat="47.57949" lon="-2.32741">
        <ele>60.3</ele>
        <time>2025-01-16T14:12:28Z</time>
      </trkpt>
      <trkpt lat="47.5795" lon="-2.32742">
        <ele>60.3</ele>
        <time>2025-01-16T14:12:29Z</time>
      </trkpt>
      <trkpt lat="47.57951" lon="-2.32744">
        <ele>60.3</ele>
        <time>2025-01-16T14:12:30Z</time>
      </trkpt>
      <trkpt lat="47.57952" lon="-2.32745">
        <ele>60.3</ele>
        <time>2025-01-16T14:12:31Z</time>
      </trkpt>
      <trkpt lat="47.57952" lon="-2.32747">
        <ele>60.3</ele>
        <time>2025-01-16T14:12:32Z</time>
      </trkpt>
      <trkpt lat="47.57953" lon="-2.32748">
        <ele>60.3</ele>
        <time>2025-01-16T14:12:33Z</time>
      </trkpt>
      <trkpt lat="47.57954" lon="-2.32749">
        <ele>60.3</ele>
        <time>2025-01-16T14:12:34Z</time>
      </trkpt>
      <trkpt lat="47.57955" lon="-2.32751">
        <ele>60.3</ele>
        <time>2025-01-16T14:12:35Z</time>
      </trkpt>
      <trkpt lat="47.57955" lon="-2.32753">
        <ele>60.3</ele>
        <time>2025-01-16T14:12:36Z</time>
      </trkpt>
      <trkpt lat="47.57956" lon="-2.32754">
        <ele>60.3</ele>
        <time>2025-01-16T14:12:37Z</time>
      </trkpt>
      <trkpt lat="47.57957" lon="-2.32756">
        <ele>60.2</ele>
        <time>2025-01-16T14:12:38Z</time>
      </trkpt>
      <trkpt lat="47.57958" lon="-2.32757">
        <ele>60.2</ele>
        <time>2025-01-16T14:12:39Z</time>
      </trkpt>
      <trkpt lat="47.57959" lon="-2.32758">
        <ele>60.1</ele>
        <time>2025-01-16T14:12:40Z</time>
      </trkpt>
      <trkpt lat="47.5796" lon="-2.32759">
        <ele>60</ele>
        <time>2025-01-16T14:12:41Z</time>
      </trkpt>
      <trkpt lat="47.57961" lon="-2.3276">
        <ele>60</ele>
        <time>2025-01-16T14:12:42Z</time>
      </trkpt>
      <trkpt lat="47.57962" lon="-2.32762">
        <ele>59.9</ele>
        <time>2025-01-16T14:12:43Z</time>
      </trkpt>
      <trkpt lat="47.57963" lon="-2.32764">
        <ele>59.8</ele>
        <time>2025-01-16T14:12:44Z</time>
      </trkpt>
      <trkpt lat="47.57964" lon="-2.32766">
        <ele>59.8</ele>
        <time>2025-01-16T14:12:45Z</time>
      </trkpt>
      <trkpt lat="47.57965" lon="-2.32767">
        <ele>59.7</ele>
        <time>2025-01-16T14:12:46Z</time>
      </trkpt>
      <trkpt lat="47.57965" lon="-2.32769">
        <ele>59.7</ele>
        <time>2025-01-16T14:12:47Z</time>
      </trkpt>
      <trkpt lat="47.57966" lon="-2.32771">
        <ele>59.6</ele>
        <time>2025-01-16T14:12:48Z</time>
      </trkpt>
      <trkpt lat="47.57966" lon="-2.32773">
        <ele>59.6</ele>
        <time>2025-01-16T14:12:49Z</time>
      </trkpt>
      <trkpt lat="47.57966" lon="-2.32774">
        <ele>59.6</ele>
        <time>2025-01-16T14:12:50Z</time>
      </trkpt>
      <trkpt lat="47.57966" lon="-2.32774">
        <ele>59.6</ele>
        <time>2025-01-16T14:12:51Z</time>
      </trkpt>
      <trkpt lat="47.57966" lon="-2.32774">
        <ele>59.6</ele>
        <time>2025-01-16T14:12:52Z</time>
      </trkpt>
      <trkpt lat="47.57966" lon="-2.32774">
        <ele>59.6</ele>
        <time>2025-01-16T14:12:53Z</time>
      </trkpt>
      <trkpt lat="47.57968" lon="-2.32776">
        <ele>59.4</ele>
        <time>2025-01-16T14:12:56Z</time>
      </trkpt>
      <trkpt lat="47.5797" lon="-2.32776">
        <ele>59.2</ele>
        <time>2025-01-16T14:12:57Z</time>
      </trkpt>
      <trkpt lat="47.57971" lon="-2.32776">
        <ele>59.1</ele>
        <time>2025-01-16T14:12:58Z</time>
      </trkpt>
      <trkpt lat="47.57973" lon="-2.32776">
        <ele>59</ele>
        <time>2025-01-16T14:12:59Z</time>
      </trkpt>
      <trkpt lat="47.57974" lon="-2.32776">
        <ele>58.9</ele>
        <time>2025-01-16T14:13:00Z</time>
      </trkpt>
      <trkpt lat="47.57975" lon="-2.32776">
        <ele>58.9</ele>
        <time>2025-01-16T14:13:01Z</time>
      </trkpt>
      <trkpt lat="47.57976" lon="-2.32775">
        <ele>58.9</ele>
        <time>2025-01-16T14:13:02Z</time>
      </trkpt>
      <trkpt lat="47.57977" lon="-2.32774">
        <ele>58.8</ele>
        <time>2025-01-16T14:13:03Z</time>
      </trkpt>
      <trkpt lat="47.57979" lon="-2.32774">
        <ele>58.7</ele>
        <time>2025-01-16T14:13:04Z</time>
      </trkpt>
      <trkpt lat="47.5798" lon="-2.32773">
        <ele>58.7</ele>
        <time>2025-01-16T14:13:05Z</time>
      </trkpt>
      <trkpt lat="47.57981" lon="-2.32772">
        <ele>58.6</ele>
        <time>2025-01-16T14:13:06Z</time>
      </trkpt>
      <trkpt lat="47.57982" lon="-2.32771">
        <ele>58.6</ele>
        <time>2025-01-16T14:13:07Z</time>
      </trkpt>
      <trkpt lat="47.57983" lon="-2.32771">
        <ele>58.5</ele>
        <time>2025-01-16T14:13:08Z</time>
      </trkpt>
      <trkpt lat="47.57984" lon="-2.3277">
        <ele>58.5</ele>
        <time>2025-01-16T14:13:09Z</time>
      </trkpt>
      <trkpt lat="47.57985" lon="-2.32769">
        <ele>58.4</ele>
        <time>2025-01-16T14:13:10Z</time>
      </trkpt>
      <trkpt lat="47.57986" lon="-2.32768">
        <ele>58.3</ele>
        <time>2025-01-16T14:13:11Z</time>
      </trkpt>
      <trkpt lat="47.57987" lon="-2.32767">
        <ele>58.3</ele>
        <time>2025-01-16T14:13:12Z</time>
      </trkpt>
      <trkpt lat="47.57988" lon="-2.32766">
        <ele>58.2</ele>
        <time>2025-01-16T14:13:13Z</time>
      </trkpt>
      <trkpt lat="47.57989" lon="-2.32765">
        <ele>58.1</ele>
        <time>2025-01-16T14:13:14Z</time>
      </trkpt>
      <trkpt lat="47.5799" lon="-2.32764">
        <ele>58</ele>
        <time>2025-01-16T14:13:15Z</time>
      </trkpt>
      <trkpt lat="47.57991" lon="-2.32764">
        <ele>58</ele>
        <time>2025-01-16T14:13:16Z</time>
      </trkpt>
      <trkpt lat="47.57993" lon="-2.32764">
        <ele>57.9</ele>
        <time>2025-01-16T14:13:17Z</time>
      </trkpt>
      <trkpt lat="47.57994" lon="-2.32763">
        <ele>57.8</ele>
        <time>2025-01-16T14:13:18Z</time>
      </trkpt>
      <trkpt lat="47.57995" lon="-2.32763">
        <ele>57.7</ele>
        <time>2025-01-16T14:13:19Z</time>
      </trkpt>
      <trkpt lat="47.57996" lon="-2.32763">
        <ele>57.7</ele>
        <time>2025-01-16T14:13:20Z</time>
      </trkpt>
      <trkpt lat="47.57996" lon="-2.32762">
        <ele>57.7</ele>
        <time>2025-01-16T14:13:21Z</time>
      </trkpt>
      <trkpt lat="47.57997" lon="-2.32762">
        <ele>57.6</ele>
        <time>2025-01-16T14:13:22Z</time>
      </trkpt>
      <trkpt lat="47.57998" lon="-2.32761">
        <ele>57.5</ele>
        <time>2025-01-16T14:13:23Z</time>
      </trkpt>
      <trkpt lat="47.57999" lon="-2.32761">
        <ele>57.5</ele>
        <time>2025-01-16T14:13:24Z</time>
      </trkpt>
      <trkpt lat="47.58" lon="-2.3276">
        <ele>57.4</ele>
        <time>2025-01-16T14:13:25Z</time>
      </trkpt>
      <trkpt lat="47.58001" lon="-2.3276">
        <ele>57.3</ele>
        <time>2025-01-16T14:13:26Z</time>
      </trkpt>
      <trkpt lat="47.58002" lon="-2.32759">
        <ele>57.2</ele>
        <time>2025-01-16T14:13:27Z</time>
      </trkpt>
      <trkpt lat="47.58002" lon="-2.32759">
        <ele>57.2</ele>
        <time>2025-01-16T14:13:28Z</time>
      </trkpt>
      <trkpt lat="47.58003" lon="-2.32758">
        <ele>57</ele>
        <time>2025-01-16T14:13:29Z</time>
      </trkpt>
      <trkpt lat="47.58005" lon="-2.32758">
        <ele>56.9</ele>
        <time>2025-01-16T14:13:30Z</time>
      </trkpt>
      <trkpt lat="47.58006" lon="-2.32757">
        <ele>56.8</ele>
        <time>2025-01-16T14:13:31Z</time>
      </trkpt>
      <trkpt lat="47.58007" lon="-2.32756">
        <ele>56.7</ele>
        <time>2025-01-16T14:13:32Z</time>
      </trkpt>
      <trkpt lat="47.58009" lon="-2.32755">
        <ele>56.5</ele>
        <time>2025-01-16T14:13:33Z</time>
      </trkpt>
      <trkpt lat="47.5801" lon="-2.32755">
        <ele>56.4</ele>
        <time>2025-01-16T14:13:34Z</time>
      </trkpt>
      <trkpt lat="47.58011" lon="-2.32754">
        <ele>56.3</ele>
        <time>2025-01-16T14:13:35Z</time>
      </trkpt>
      <trkpt lat="47.58012" lon="-2.32753">
        <ele>56.2</ele>
        <time>2025-01-16T14:13:36Z</time>
      </trkpt>
      <trkpt lat="47.58013" lon="-2.32753">
        <ele>56.1</ele>
        <time>2025-01-16T14:13:37Z</time>
      </trkpt>
      <trkpt lat="47.58014" lon="-2.32752">
        <ele>56</ele>
        <time>2025-01-16T14:13:38Z</time>
      </trkpt>
      <trkpt lat="47.58015" lon="-2.32752">
        <ele>56</ele>
        <time>2025-01-16T14:13:39Z</time>
      </trkpt>
      <trkpt lat="47.58016" lon="-2.32752">
        <ele>55.9</ele>
        <time>2025-01-16T14:13:40Z</time>
      </trkpt>
      <trkpt lat="47.58017" lon="-2.32751">
        <ele>55.8</ele>
        <time>2025-01-16T14:13:41Z</time>
      </trkpt>
      <trkpt lat="47.58019" lon="-2.32751">
        <ele>55.6</ele>
        <time>2025-01-16T14:13:42Z</time>
      </trkpt>
      <trkpt lat="47.5802" lon="-2.32751">
        <ele>55.6</ele>
        <time>2025-01-16T14:13:43Z</time>
      </trkpt>
      <trkpt lat="47.58021" lon="-2.3275">
        <ele>55.5</ele>
        <time>2025-01-16T14:13:44Z</time>
      </trkpt>
      <trkpt lat="47.58022" lon="-2.32749">
        <ele>55.4</ele>
        <time>2025-01-16T14:13:45Z</time>
      </trkpt>
      <trkpt lat="47.58023" lon="-2.32748">
        <ele>55.3</ele>
        <time>2025-01-16T14:13:46Z</time>
      </trkpt>
      <trkpt lat="47.58025" lon="-2.32748">
        <ele>55.1</ele>
        <time>2025-01-16T14:13:47Z</time>
      </trkpt>
      <trkpt lat="47.58026" lon="-2.32747">
        <ele>55</ele>
        <time>2025-01-16T14:13:48Z</time>
      </trkpt>
      <trkpt lat="47.58027" lon="-2.32746">
        <ele>54.9</ele>
        <time>2025-01-16T14:13:49Z</time>
      </trkpt>
      <trkpt lat="47.58029" lon="-2.32746">
        <ele>54.7</ele>
        <time>2025-01-16T14:13:50Z</time>
      </trkpt>
      <trkpt lat="47.5803" lon="-2.32745">
        <ele>54.6</ele>
        <time>2025-01-16T14:13:51Z</time>
      </trkpt>
      <trkpt lat="47.58031" lon="-2.32745">
        <ele>54.5</ele>
        <time>2025-01-16T14:13:52Z</time>
      </trkpt>
      <trkpt lat="47.58032" lon="-2.32744">
        <ele>54.4</ele>
        <time>2025-01-16T14:13:53Z</time>
      </trkpt>
      <trkpt lat="47.58034" lon="-2.32744">
        <ele>54.2</ele>
        <time>2025-01-16T14:13:54Z</time>
      </trkpt>
      <trkpt lat="47.58035" lon="-2.32743">
        <ele>54</ele>
        <time>2025-01-16T14:13:55Z</time>
      </trkpt>
      <trkpt lat="47.58037" lon="-2.32742">
        <ele>53.8</ele>
        <time>2025-01-16T14:13:56Z</time>
      </trkpt>
      <trkpt lat="47.58038" lon="-2.32742">
        <ele>53.7</ele>
        <time>2025-01-16T14:13:57Z</time>
      </trkpt>
      <trkpt lat="47.58039" lon="-2.32742">
        <ele>53.6</ele>
        <time>2025-01-16T14:13:58Z</time>
      </trkpt>
      <trkpt lat="47.5804" lon="-2.32741">
        <ele>53.5</ele>
        <time>2025-01-16T14:13:59Z</time>
      </trkpt>
      <trkpt lat="47.58041" lon="-2.32741">
        <ele>53.4</ele>
        <time>2025-01-16T14:14:00Z</time>
      </trkpt>
      <trkpt lat="47.58042" lon="-2.3274">
        <ele>53.3</ele>
        <time>2025-01-16T14:14:01Z</time>
      </trkpt>
      <trkpt lat="47.58043" lon="-2.32739">
        <ele>53.2</ele>
        <time>2025-01-16T14:14:02Z</time>
      </trkpt>
      <trkpt lat="47.58045" lon="-2.32739">
        <ele>53</ele>
        <time>2025-01-16T14:14:03Z</time>
      </trkpt>
      <trkpt lat="47.58046" lon="-2.32737">
        <ele>52.9</ele>
        <time>2025-01-16T14:14:04Z</time>
      </trkpt>
      <trkpt lat="47.58048" lon="-2.32736">
        <ele>52.7</ele>
        <time>2025-01-16T14:14:05Z</time>
      </trkpt>
      <trkpt lat="47.58048" lon="-2.32736">
        <ele>52.7</ele>
        <time>2025-01-16T14:14:06Z</time>
      </trkpt>
      <trkpt lat="47.58049" lon="-2.32736">
        <ele>52.6</ele>
        <time>2025-01-16T14:14:07Z</time>
      </trkpt>
      <trkpt lat="47.5805" lon="-2.32735">
        <ele>52.5</ele>
        <time>2025-01-16T14:14:08Z</time>
      </trkpt>
      <trkpt lat="47.58052" lon="-2.32734">
        <ele>52.3</ele>
        <time>2025-01-16T14:14:09Z</time>
      </trkpt>
      <trkpt lat="47.58053" lon="-2.32734">
        <ele>52.2</ele>
        <time>2025-01-16T14:14:10Z</time>
      </trkpt>
      <trkpt lat="47.58054" lon="-2.32733">
        <ele>52.1</ele>
        <time>2025-01-16T14:14:11Z</time>
      </trkpt>
      <trkpt lat="47.58056" lon="-2.32731">
        <ele>52</ele>
        <time>2025-01-16T14:14:12Z</time>
      </trkpt>
      <trkpt lat="47.58057" lon="-2.3273">
        <ele>52</ele>
        <time>2025-01-16T14:14:13Z</time>
      </trkpt>
      <trkpt lat="47.58059" lon="-2.32729">
        <ele>51.9</ele>
        <time>2025-01-16T14:14:14Z</time>
      </trkpt>
      <trkpt lat="47.5806" lon="-2.32728">
        <ele>51.9</ele>
        <time>2025-01-16T14:14:15Z</time>
      </trkpt>
      <trkpt lat="47.58061" lon="-2.32727">
        <ele>51.9</ele>
        <time>2025-01-16T14:14:16Z</time>
      </trkpt>
      <trkpt lat="47.58063" lon="-2.32726">
        <ele>51.8</ele>
        <time>2025-01-16T14:14:17Z</time>
      </trkpt>
      <trkpt lat="47.58064" lon="-2.32725">
        <ele>51.8</ele>
        <time>2025-01-16T14:14:18Z</time>
      </trkpt>
      <trkpt lat="47.58065" lon="-2.32725">
        <ele>51.7</ele>
        <time>2025-01-16T14:14:19Z</time>
      </trkpt>
      <trkpt lat="47.58066" lon="-2.32725">
        <ele>51.7</ele>
        <time>2025-01-16T14:14:20Z</time>
      </trkpt>
      <trkpt lat="47.58067" lon="-2.32724">
        <ele>51.6</ele>
        <time>2025-01-16T14:14:21Z</time>
      </trkpt>
      <trkpt lat="47.58068" lon="-2.32724">
        <ele>51.6</ele>
        <time>2025-01-16T14:14:22Z</time>
      </trkpt>
      <trkpt lat="47.5807" lon="-2.32723">
        <ele>51.5</ele>
        <time>2025-01-16T14:14:23Z</time>
      </trkpt>
      <trkpt lat="47.58071" lon="-2.32723">
        <ele>51.5</ele>
        <time>2025-01-16T14:14:24Z</time>
      </trkpt>
      <trkpt lat="47.58072" lon="-2.32722">
        <ele>51.4</ele>
        <time>2025-01-16T14:14:25Z</time>
      </trkpt>
      <trkpt lat="47.58074" lon="-2.32722">
        <ele>51.3</ele>
        <time>2025-01-16T14:14:26Z</time>
      </trkpt>
      <trkpt lat="47.58075" lon="-2.32721">
        <ele>51.2</ele>
        <time>2025-01-16T14:14:27Z</time>
      </trkpt>
      <trkpt lat="47.58076" lon="-2.3272">
        <ele>51.1</ele>
        <time>2025-01-16T14:14:28Z</time>
      </trkpt>
      <trkpt lat="47.58078" lon="-2.32719">
        <ele>51</ele>
        <time>2025-01-16T14:14:29Z</time>
      </trkpt>
      <trkpt lat="47.58079" lon="-2.32718">
        <ele>50.9</ele>
        <time>2025-01-16T14:14:30Z</time>
      </trkpt>
      <trkpt lat="47.58081" lon="-2.32718">
        <ele>50.8</ele>
        <time>2025-01-16T14:14:31Z</time>
      </trkpt>
      <trkpt lat="47.58081" lon="-2.32717">
        <ele>50.7</ele>
        <time>2025-01-16T14:14:32Z</time>
      </trkpt>
      <trkpt lat="47.58082" lon="-2.32717">
        <ele>50.7</ele>
        <time>2025-01-16T14:14:33Z</time>
      </trkpt>
      <trkpt lat="47.58083" lon="-2.32717">
        <ele>50.6</ele>
        <time>2025-01-16T14:14:34Z</time>
      </trkpt>
      <trkpt lat="47.58085" lon="-2.32716">
        <ele>50.7</ele>
        <time>2025-01-16T14:14:35Z</time>
      </trkpt>
      <trkpt lat="47.58085" lon="-2.32716">
        <ele>50.7</ele>
        <time>2025-01-16T14:14:36Z</time>
      </trkpt>
      <trkpt lat="47.58086" lon="-2.32715">
        <ele>50.8</ele>
        <time>2025-01-16T14:14:37Z</time>
      </trkpt>
      <trkpt lat="47.58087" lon="-2.32714">
        <ele>50.8</ele>
        <time>2025-01-16T14:14:38Z</time>
      </trkpt>
      <trkpt lat="47.58088" lon="-2.32713">
        <ele>50.9</ele>
        <time>2025-01-16T14:14:39Z</time>
      </trkpt>
      <trkpt lat="47.58088" lon="-2.32712">
        <ele>50.8</ele>
        <time>2025-01-16T14:14:40Z</time>
      </trkpt>
      <trkpt lat="47.58088" lon="-2.32712">
        <ele>50.8</ele>
        <time>2025-01-16T14:14:41Z</time>
      </trkpt>
      <trkpt lat="47.58089" lon="-2.32711">
        <ele>50.9</ele>
        <time>2025-01-16T14:14:42Z</time>
      </trkpt>
      <trkpt lat="47.5809" lon="-2.32711">
        <ele>51</ele>
        <time>2025-01-16T14:14:43Z</time>
      </trkpt>
      <trkpt lat="47.58091" lon="-2.3271">
        <ele>51.1</ele>
        <time>2025-01-16T14:14:44Z</time>
      </trkpt>
      <trkpt lat="47.58092" lon="-2.3271">
        <ele>51.2</ele>
        <time>2025-01-16T14:14:45Z</time>
      </trkpt>
      <trkpt lat="47.58093" lon="-2.32709">
        <ele>51.3</ele>
        <time>2025-01-16T14:14:46Z</time>
      </trkpt>
      <trkpt lat="47.58094" lon="-2.32708">
        <ele>51.3</ele>
        <time>2025-01-16T14:14:47Z</time>
      </trkpt>
      <trkpt lat="47.58094" lon="-2.32707">
        <ele>51.3</ele>
        <time>2025-01-16T14:14:48Z</time>
      </trkpt>
      <trkpt lat="47.58095" lon="-2.32705">
        <ele>51.3</ele>
        <time>2025-01-16T14:14:49Z</time>
      </trkpt>
      <trkpt lat="47.58095" lon="-2.32704">
        <ele>51.2</ele>
        <time>2025-01-16T14:14:50Z</time>
      </trkpt>
      <trkpt lat="47.58096" lon="-2.32702">
        <ele>51.2</ele>
        <time>2025-01-16T14:14:51Z</time>
      </trkpt>
      <trkpt lat="47.58097" lon="-2.32701">
        <ele>51.3</ele>
        <time>2025-01-16T14:14:52Z</time>
      </trkpt>
      <trkpt lat="47.58097" lon="-2.327">
        <ele>51.3</ele>
        <time>2025-01-16T14:14:53Z</time>
      </trkpt>
      <trkpt lat="47.58098" lon="-2.32699">
        <ele>51.4</ele>
        <time>2025-01-16T14:14:54Z</time>
      </trkpt>
      <trkpt lat="47.58099" lon="-2.32698">
        <ele>51.4</ele>
        <time>2025-01-16T14:14:55Z</time>
      </trkpt>
      <trkpt lat="47.581" lon="-2.32696">
        <ele>51.5</ele>
        <time>2025-01-16T14:14:56Z</time>
      </trkpt>
      <trkpt lat="47.581" lon="-2.32695">
        <ele>51.4</ele>
        <time>2025-01-16T14:14:57Z</time>
      </trkpt>
      <trkpt lat="47.58101" lon="-2.32694">
        <ele>51.5</ele>
        <time>2025-01-16T14:14:58Z</time>
      </trkpt>
      <trkpt lat="47.58101" lon="-2.32692">
        <ele>51.5</ele>
        <time>2025-01-16T14:14:59Z</time>
      </trkpt>
      <trkpt lat="47.58102" lon="-2.3269">
        <ele>51.5</ele>
        <time>2025-01-16T14:15:00Z</time>
      </trkpt>
      <trkpt lat="47.58102" lon="-2.32689">
        <ele>51.5</ele>
        <time>2025-01-16T14:15:01Z</time>
      </trkpt>
      <trkpt lat="47.58103" lon="-2.32687">
        <ele>51.6</ele>
        <time>2025-01-16T14:15:02Z</time>
      </trkpt>
      <trkpt lat="47.58104" lon="-2.32686">
        <ele>51.7</ele>
        <time>2025-01-16T14:15:03Z</time>
      </trkpt>
      <trkpt lat="47.58104" lon="-2.32685">
        <ele>51.6</ele>
        <time>2025-01-16T14:15:04Z</time>
      </trkpt>
      <trkpt lat="47.58105" lon="-2.32684">
        <ele>51.7</ele>
        <time>2025-01-16T14:15:05Z</time>
      </trkpt>
      <trkpt lat="47.58105" lon="-2.32682">
        <ele>51.7</ele>
        <time>2025-01-16T14:15:06Z</time>
      </trkpt>
      <trkpt lat="47.58106" lon="-2.32681">
        <ele>51.8</ele>
        <time>2025-01-16T14:15:07Z</time>
      </trkpt>
      <trkpt lat="47.58106" lon="-2.3268">
        <ele>51.7</ele>
        <time>2025-01-16T14:15:08Z</time>
      </trkpt>
      <trkpt lat="47.58107" lon="-2.32678">
        <ele>51.8</ele>
        <time>2025-01-16T14:15:09Z</time>
      </trkpt>
      <trkpt lat="47.58107" lon="-2.32677">
        <ele>51.8</ele>
        <time>2025-01-16T14:15:10Z</time>
      </trkpt>
      <trkpt lat="47.58108" lon="-2.32676">
        <ele>51.9</ele>
        <time>2025-01-16T14:15:11Z</time>
      </trkpt>
      <trkpt lat="47.58109" lon="-2.32675">
        <ele>52</ele>
        <time>2025-01-16T14:15:12Z</time>
      </trkpt>
      <trkpt lat="47.58109" lon="-2.32674">
        <ele>52</ele>
        <time>2025-01-16T14:15:13Z</time>
      </trkpt>
      <trkpt lat="47.58109" lon="-2.32672">
        <ele>51.9</ele>
        <time>2025-01-16T14:15:14Z</time>
      </trkpt>
      <trkpt lat="47.5811" lon="-2.32671">
        <ele>52</ele>
        <time>2025-01-16T14:15:15Z</time>
      </trkpt>
      <trkpt lat="47.58111" lon="-2.3267">
        <ele>52.1</ele>
        <time>2025-01-16T14:15:16Z</time>
      </trkpt>
      <trkpt lat="47.58111" lon="-2.32669">
        <ele>52.1</ele>
        <time>2025-01-16T14:15:17Z</time>
      </trkpt>
      <trkpt lat="47.58112" lon="-2.32668">
        <ele>52.1</ele>
        <time>2025-01-16T14:15:18Z</time>
      </trkpt>
      <trkpt lat="47.58113" lon="-2.32667">
        <ele>52.2</ele>
        <time>2025-01-16T14:15:19Z</time>
      </trkpt>
      <trkpt lat="47.58114" lon="-2.32666">
        <ele>52.3</ele>
        <time>2025-01-16T14:15:20Z</time>
      </trkpt>
      <trkpt lat="47.58115" lon="-2.32664">
        <ele>52.3</ele>
        <time>2025-01-16T14:15:21Z</time>
      </trkpt>
      <trkpt lat="47.58115" lon="-2.32663">
        <ele>52.3</ele>
        <time>2025-01-16T14:15:22Z</time>
      </trkpt>
      <trkpt lat="47.58116" lon="-2.32661">
        <ele>52.3</ele>
        <time>2025-01-16T14:15:23Z</time>
      </trkpt>
      <trkpt lat="47.58116" lon="-2.32661">
        <ele>52.3</ele>
        <time>2025-01-16T14:15:24Z</time>
      </trkpt>
      <trkpt lat="47.58117" lon="-2.3266">
        <ele>52.4</ele>
        <time>2025-01-16T14:15:25Z</time>
      </trkpt>
      <trkpt lat="47.58118" lon="-2.32659">
        <ele>52.5</ele>
        <time>2025-01-16T14:15:26Z</time>
      </trkpt>
      <trkpt lat="47.58119" lon="-2.32657">
        <ele>52.5</ele>
        <time>2025-01-16T14:15:27Z</time>
      </trkpt>
      <trkpt lat="47.58119" lon="-2.32657">
        <ele>52.5</ele>
        <time>2025-01-16T14:15:28Z</time>
      </trkpt>
      <trkpt lat="47.5812" lon="-2.32655">
        <ele>52.5</ele>
        <time>2025-01-16T14:15:29Z</time>
      </trkpt>
      <trkpt lat="47.58121" lon="-2.32653">
        <ele>52.6</ele>
        <time>2025-01-16T14:15:30Z</time>
      </trkpt>
      <trkpt lat="47.58121" lon="-2.32652">
        <ele>52.5</ele>
        <time>2025-01-16T14:15:31Z</time>
      </trkpt>
      <trkpt lat="47.58122" lon="-2.3265">
        <ele>52.6</ele>
        <time>2025-01-16T14:15:32Z</time>
      </trkpt>
      <trkpt lat="47.58123" lon="-2.32648">
        <ele>52.6</ele>
        <time>2025-01-16T14:15:33Z</time>
      </trkpt>
      <trkpt lat="47.58124" lon="-2.32646">
        <ele>52.6</ele>
        <time>2025-01-16T14:15:34Z</time>
      </trkpt>
      <trkpt lat="47.58125" lon="-2.32645">
        <ele>52.7</ele>
        <time>2025-01-16T14:15:35Z</time>
      </trkpt>
      <trkpt lat="47.58125" lon="-2.32643">
        <ele>52.6</ele>
        <time>2025-01-16T14:15:36Z</time>
      </trkpt>
      <trkpt lat="47.58126" lon="-2.32642">
        <ele>52.7</ele>
        <time>2025-01-16T14:15:37Z</time>
      </trkpt>
      <trkpt lat="47.58127" lon="-2.3264">
        <ele>52.8</ele>
        <time>2025-01-16T14:15:38Z</time>
      </trkpt>
      <trkpt lat="47.58127" lon="-2.32638">
        <ele>52.7</ele>
        <time>2025-01-16T14:15:39Z</time>
      </trkpt>
      <trkpt lat="47.58128" lon="-2.32637">
        <ele>52.8</ele>
        <time>2025-01-16T14:15:40Z</time>
      </trkpt>
      <trkpt lat="47.58128" lon="-2.32636">
        <ele>52.7</ele>
        <time>2025-01-16T14:15:41Z</time>
      </trkpt>
      <trkpt lat="47.58129" lon="-2.32634">
        <ele>52.8</ele>
        <time>2025-01-16T14:15:42Z</time>
      </trkpt>
      <trkpt lat="47.5813" lon="-2.32633">
        <ele>52.8</ele>
        <time>2025-01-16T14:15:43Z</time>
      </trkpt>
      <trkpt lat="47.58131" lon="-2.32631">
        <ele>52.9</ele>
        <time>2025-01-16T14:15:44Z</time>
      </trkpt>
      <trkpt lat="47.58132" lon="-2.3263">
        <ele>52.9</ele>
        <time>2025-01-16T14:15:45Z</time>
      </trkpt>
      <trkpt lat="47.58133" lon="-2.32628">
        <ele>53</ele>
        <time>2025-01-16T14:15:46Z</time>
      </trkpt>
      <trkpt lat="47.58134" lon="-2.32627">
        <ele>53</ele>
        <time>2025-01-16T14:15:47Z</time>
      </trkpt>
      <trkpt lat="47.58135" lon="-2.32626">
        <ele>53.1</ele>
        <time>2025-01-16T14:15:48Z</time>
      </trkpt>
      <trkpt lat="47.58136" lon="-2.32624">
        <ele>53.2</ele>
        <time>2025-01-16T14:15:49Z</time>
      </trkpt>
      <trkpt lat="47.58136" lon="-2.32623">
        <ele>53.1</ele>
        <time>2025-01-16T14:15:50Z</time>
      </trkpt>
      <trkpt lat="47.58137" lon="-2.32622">
        <ele>53.2</ele>
        <time>2025-01-16T14:15:51Z</time>
      </trkpt>
      <trkpt lat="47.58138" lon="-2.3262">
        <ele>53.2</ele>
        <time>2025-01-16T14:15:52Z</time>
      </trkpt>
      <trkpt lat="47.58139" lon="-2.32619">
        <ele>53.3</ele>
        <time>2025-01-16T14:15:53Z</time>
      </trkpt>
      <trkpt lat="47.5814" lon="-2.32618">
        <ele>53.3</ele>
        <time>2025-01-16T14:15:54Z</time>
      </trkpt>
      <trkpt lat="47.58141" lon="-2.32616">
        <ele>53.2</ele>
        <time>2025-01-16T14:15:55Z</time>
      </trkpt>
      <trkpt lat="47.58141" lon="-2.32615">
        <ele>53.2</ele>
        <time>2025-01-16T14:15:56Z</time>
      </trkpt>
      <trkpt lat="47.58142" lon="-2.32613">
        <ele>53.1</ele>
        <time>2025-01-16T14:15:57Z</time>
      </trkpt>
      <trkpt lat="47.58143" lon="-2.32612">
        <ele>53</ele>
        <time>2025-01-16T14:15:58Z</time>
      </trkpt>
      <trkpt lat="47.58143" lon="-2.3261">
        <ele>53</ele>
        <time>2025-01-16T14:15:59Z</time>
      </trkpt>
      <trkpt lat="47.58144" lon="-2.32609">
        <ele>52.9</ele>
        <time>2025-01-16T14:16:00Z</time>
      </trkpt>
      <trkpt lat="47.58145" lon="-2.32608">
        <ele>52.9</ele>
        <time>2025-01-16T14:16:01Z</time>
      </trkpt>
      <trkpt lat="47.58145" lon="-2.32607">
        <ele>52.8</ele>
        <time>2025-01-16T14:16:02Z</time>
      </trkpt>
      <trkpt lat="47.58146" lon="-2.32605">
        <ele>52.7</ele>
        <time>2025-01-16T14:16:03Z</time>
      </trkpt>
      <trkpt lat="47.58147" lon="-2.32604">
        <ele>52.7</ele>
        <time>2025-01-16T14:16:04Z</time>
      </trkpt>
      <trkpt lat="47.58148" lon="-2.32603">
        <ele>52.6</ele>
        <time>2025-01-16T14:16:05Z</time>
      </trkpt>
      <trkpt lat="47.5815" lon="-2.32601">
        <ele>52.5</ele>
        <time>2025-01-16T14:16:06Z</time>
      </trkpt>
      <trkpt lat="47.58151" lon="-2.326">
        <ele>52.4</ele>
        <time>2025-01-16T14:16:07Z</time>
      </trkpt>
      <trkpt lat="47.58152" lon="-2.32599">
        <ele>52.4</ele>
        <time>2025-01-16T14:16:08Z</time>
      </trkpt>
      <trkpt lat="47.58153" lon="-2.32598">
        <ele>52.3</ele>
        <time>2025-01-16T14:16:09Z</time>
      </trkpt>
      <trkpt lat="47.58155" lon="-2.32597">
        <ele>52.2</ele>
        <time>2025-01-16T14:16:10Z</time>
      </trkpt>
      <trkpt lat="47.58156" lon="-2.32596">
        <ele>52.1</ele>
        <time>2025-01-16T14:16:11Z</time>
      </trkpt>
      <trkpt lat="47.58157" lon="-2.32596">
        <ele>52.1</ele>
        <time>2025-01-16T14:16:12Z</time>
      </trkpt>
      <trkpt lat="47.58158" lon="-2.32595">
        <ele>52</ele>
        <time>2025-01-16T14:16:13Z</time>
      </trkpt>
      <trkpt lat="47.58158" lon="-2.32594">
        <ele>52</ele>
        <time>2025-01-16T14:16:14Z</time>
      </trkpt>
      <trkpt lat="47.58158" lon="-2.32595">
        <ele>52</ele>
        <time>2025-01-16T14:16:15Z</time>
      </trkpt>
      <trkpt lat="47.58159" lon="-2.32594">
        <ele>51.9</ele>
        <time>2025-01-16T14:16:16Z</time>
      </trkpt>
      <trkpt lat="47.5816" lon="-2.32593">
        <ele>51.9</ele>
        <time>2025-01-16T14:16:17Z</time>
      </trkpt>
      <trkpt lat="47.58161" lon="-2.32592">
        <ele>51.8</ele>
        <time>2025-01-16T14:16:18Z</time>
      </trkpt>
      <trkpt lat="47.58162" lon="-2.32592">
        <ele>51.7</ele>
        <time>2025-01-16T14:16:19Z</time>
      </trkpt>
      <trkpt lat="47.58163" lon="-2.32591">
        <ele>51.6</ele>
        <time>2025-01-16T14:16:20Z</time>
      </trkpt>
      <trkpt lat="47.58164" lon="-2.3259">
        <ele>51.6</ele>
        <time>2025-01-16T14:16:21Z</time>
      </trkpt>
      <trkpt lat="47.58165" lon="-2.32589">
        <ele>51.5</ele>
        <time>2025-01-16T14:16:22Z</time>
      </trkpt>
      <trkpt lat="47.58166" lon="-2.32588">
        <ele>51.4</ele>
        <time>2025-01-16T14:16:23Z</time>
      </trkpt>
      <trkpt lat="47.58167" lon="-2.32586">
        <ele>51.2</ele>
        <time>2025-01-16T14:16:24Z</time>
      </trkpt>
      <trkpt lat="47.58168" lon="-2.32585">
        <ele>51.1</ele>
        <time>2025-01-16T14:16:25Z</time>
      </trkpt>
      <trkpt lat="47.58168" lon="-2.32585">
        <ele>51.1</ele>
        <time>2025-01-16T14:16:26Z</time>
      </trkpt>
      <trkpt lat="47.58169" lon="-2.32584">
        <ele>51</ele>
        <time>2025-01-16T14:16:27Z</time>
      </trkpt>
      <trkpt lat="47.5817" lon="-2.32583">
        <ele>50.9</ele>
        <time>2025-01-16T14:16:28Z</time>
      </trkpt>
      <trkpt lat="47.58171" lon="-2.32582">
        <ele>50.7</ele>
        <time>2025-01-16T14:16:29Z</time>
      </trkpt>
      <trkpt lat="47.58172" lon="-2.32581">
        <ele>50.6</ele>
        <time>2025-01-16T14:16:30Z</time>
      </trkpt>
      <trkpt lat="47.58173" lon="-2.3258">
        <ele>50.5</ele>
        <time>2025-01-16T14:16:31Z</time>
      </trkpt>
      <trkpt lat="47.58174" lon="-2.32579">
        <ele>50.4</ele>
        <time>2025-01-16T14:16:32Z</time>
      </trkpt>
      <trkpt lat="47.58174" lon="-2.32579">
        <ele>50.4</ele>
        <time>2025-01-16T14:16:33Z</time>
      </trkpt>
      <trkpt lat="47.58175" lon="-2.32578">
        <ele>50.3</ele>
        <time>2025-01-16T14:16:34Z</time>
      </trkpt>
      <trkpt lat="47.58175" lon="-2.32578">
        <ele>50.3</ele>
        <time>2025-01-16T14:16:35Z</time>
      </trkpt>
      <trkpt lat="47.58176" lon="-2.32577">
        <ele>50.2</ele>
        <time>2025-01-16T14:16:36Z</time>
      </trkpt>
      <trkpt lat="47.58177" lon="-2.32576">
        <ele>50.1</ele>
        <time>2025-01-16T14:16:37Z</time>
      </trkpt>
      <trkpt lat="47.58178" lon="-2.32575">
        <ele>50</ele>
        <time>2025-01-16T14:16:38Z</time>
      </trkpt>
      <trkpt lat="47.58179" lon="-2.32575">
        <ele>50</ele>
        <time>2025-01-16T14:16:39Z</time>
      </trkpt>
      <trkpt lat="47.58181" lon="-2.32574">
        <ele>49.8</ele>
        <time>2025-01-16T14:16:40Z</time>
      </trkpt>
      <trkpt lat="47.58182" lon="-2.32573">
        <ele>49.7</ele>
        <time>2025-01-16T14:16:41Z</time>
      </trkpt>
      <trkpt lat="47.58183" lon="-2.32572">
        <ele>49.6</ele>
        <time>2025-01-16T14:16:42Z</time>
      </trkpt>
      <trkpt lat="47.58185" lon="-2.32572">
        <ele>49.5</ele>
        <time>2025-01-16T14:16:43Z</time>
      </trkpt>
      <trkpt lat="47.58186" lon="-2.32571">
        <ele>49.4</ele>
        <time>2025-01-16T14:16:44Z</time>
      </trkpt>
      <trkpt lat="47.58187" lon="-2.3257">
        <ele>49.3</ele>
        <time>2025-01-16T14:16:45Z</time>
      </trkpt>
      <trkpt lat="47.58189" lon="-2.32569">
        <ele>49.2</ele>
        <time>2025-01-16T14:16:46Z</time>
      </trkpt>
      <trkpt lat="47.58189" lon="-2.32568">
        <ele>49.1</ele>
        <time>2025-01-16T14:16:47Z</time>
      </trkpt>
      <trkpt lat="47.58191" lon="-2.32567">
        <ele>48.9</ele>
        <time>2025-01-16T14:16:48Z</time>
      </trkpt>
      <trkpt lat="47.58192" lon="-2.32567">
        <ele>48.9</ele>
        <time>2025-01-16T14:16:49Z</time>
      </trkpt>
      <trkpt lat="47.58193" lon="-2.32566">
        <ele>48.8</ele>
        <time>2025-01-16T14:16:50Z</time>
      </trkpt>
      <trkpt lat="47.58193" lon="-2.32566">
        <ele>48.8</ele>
        <time>2025-01-16T14:16:51Z</time>
      </trkpt>
      <trkpt lat="47.58195" lon="-2.32565">
        <ele>48.7</ele>
        <time>2025-01-16T14:16:52Z</time>
      </trkpt>
      <trkpt lat="47.58196" lon="-2.32564">
        <ele>48.5</ele>
        <time>2025-01-16T14:16:53Z</time>
      </trkpt>
      <trkpt lat="47.58197" lon="-2.32564">
        <ele>48.5</ele>
        <time>2025-01-16T14:16:54Z</time>
      </trkpt>
      <trkpt lat="47.58198" lon="-2.32563">
        <ele>48.4</ele>
        <time>2025-01-16T14:16:55Z</time>
      </trkpt>
      <trkpt lat="47.582" lon="-2.32563">
        <ele>48.3</ele>
        <time>2025-01-16T14:16:56Z</time>
      </trkpt>
      <trkpt lat="47.58201" lon="-2.32562">
        <ele>48.2</ele>
        <time>2025-01-16T14:16:57Z</time>
      </trkpt>
      <trkpt lat="47.58202" lon="-2.32562">
        <ele>48.1</ele>
        <time>2025-01-16T14:16:58Z</time>
      </trkpt>
      <trkpt lat="47.58203" lon="-2.32562">
        <ele>48.1</ele>
        <time>2025-01-16T14:16:59Z</time>
      </trkpt>
      <trkpt lat="47.58204" lon="-2.32562">
        <ele>48</ele>
        <time>2025-01-16T14:17:00Z</time>
      </trkpt>
      <trkpt lat="47.58205" lon="-2.32562">
        <ele>48</ele>
        <time>2025-01-16T14:17:01Z</time>
      </trkpt>
      <trkpt lat="47.58206" lon="-2.32563">
        <ele>48</ele>
        <time>2025-01-16T14:17:02Z</time>
      </trkpt>
      <trkpt lat="47.58208" lon="-2.32563">
        <ele>47.9</ele>
        <time>2025-01-16T14:17:03Z</time>
      </trkpt>
      <trkpt lat="47.58209" lon="-2.32563">
        <ele>47.9</ele>
        <time>2025-01-16T14:17:04Z</time>
      </trkpt>
      <trkpt lat="47.5821" lon="-2.32564">
        <ele>47.9</ele>
        <time>2025-01-16T14:17:05Z</time>
      </trkpt>
      <trkpt lat="47.58211" lon="-2.32564">
        <ele>47.8</ele>
        <time>2025-01-16T14:17:06Z</time>
      </trkpt>
      <trkpt lat="47.58212" lon="-2.32564">
        <ele>47.8</ele>
        <time>2025-01-16T14:17:07Z</time>
      </trkpt>
      <trkpt lat="47.58214" lon="-2.32563">
        <ele>47.6</ele>
        <time>2025-01-16T14:17:08Z</time>
      </trkpt>
      <trkpt lat="47.58215" lon="-2.32562">
        <ele>47.6</ele>
        <time>2025-01-16T14:17:09Z</time>
      </trkpt>
      <trkpt lat="47.58216" lon="-2.32562">
        <ele>47.5</ele>
        <time>2025-01-16T14:17:10Z</time>
      </trkpt>
      <trkpt lat="47.58217" lon="-2.32562">
        <ele>47.5</ele>
        <time>2025-01-16T14:17:11Z</time>
      </trkpt>
      <trkpt lat="47.58219" lon="-2.32562">
        <ele>47.4</ele>
        <time>2025-01-16T14:17:12Z</time>
      </trkpt>
      <trkpt lat="47.5822" lon="-2.32561">
        <ele>47.3</ele>
        <time>2025-01-16T14:17:13Z</time>
      </trkpt>
      <trkpt lat="47.58221" lon="-2.32561">
        <ele>47.2</ele>
        <time>2025-01-16T14:17:14Z</time>
      </trkpt>
      <trkpt lat="47.58222" lon="-2.32561">
        <ele>47.2</ele>
        <time>2025-01-16T14:17:15Z</time>
      </trkpt>
      <trkpt lat="47.58223" lon="-2.32561">
        <ele>47.1</ele>
        <time>2025-01-16T14:17:16Z</time>
      </trkpt>
      <trkpt lat="47.58224" lon="-2.32561">
        <ele>47</ele>
        <time>2025-01-16T14:17:17Z</time>
      </trkpt>
      <trkpt lat="47.58225" lon="-2.32561">
        <ele>46.9</ele>
        <time>2025-01-16T14:17:18Z</time>
      </trkpt>
      <trkpt lat="47.58227" lon="-2.3256">
        <ele>46.6</ele>
        <time>2025-01-16T14:17:19Z</time>
      </trkpt>
      <trkpt lat="47.58229" lon="-2.3256">
        <ele>46.4</ele>
        <time>2025-01-16T14:17:20Z</time>
      </trkpt>
      <trkpt lat="47.58231" lon="-2.3256">
        <ele>46.2</ele>
        <time>2025-01-16T14:17:21Z</time>
      </trkpt>
      <trkpt lat="47.58232" lon="-2.3256">
        <ele>46</ele>
        <time>2025-01-16T14:17:22Z</time>
      </trkpt>
      <trkpt lat="47.58233" lon="-2.32561">
        <ele>46</ele>
        <time>2025-01-16T14:17:23Z</time>
      </trkpt>
      <trkpt lat="47.58234" lon="-2.3256">
        <ele>45.8</ele>
        <time>2025-01-16T14:17:24Z</time>
      </trkpt>
      <trkpt lat="47.58236" lon="-2.3256">
        <ele>45.6</ele>
        <time>2025-01-16T14:17:25Z</time>
      </trkpt>
      <trkpt lat="47.58237" lon="-2.3256">
        <ele>45.5</ele>
        <time>2025-01-16T14:17:26Z</time>
      </trkpt>
      <trkpt lat="47.58239" lon="-2.3256">
        <ele>45.3</ele>
        <time>2025-01-16T14:17:27Z</time>
      </trkpt>
      <trkpt lat="47.5824" lon="-2.3256">
        <ele>45.1</ele>
        <time>2025-01-16T14:17:28Z</time>
      </trkpt>
      <trkpt lat="47.58241" lon="-2.3256">
        <ele>45</ele>
        <time>2025-01-16T14:17:29Z</time>
      </trkpt>
      <trkpt lat="47.58243" lon="-2.3256">
        <ele>44.8</ele>
        <time>2025-01-16T14:17:30Z</time>
      </trkpt>
      <trkpt lat="47.58244" lon="-2.3256">
        <ele>44.7</ele>
        <time>2025-01-16T14:17:31Z</time>
      </trkpt>
      <trkpt lat="47.58245" lon="-2.3256">
        <ele>44.6</ele>
        <time>2025-01-16T14:17:32Z</time>
      </trkpt>
      <trkpt lat="47.58246" lon="-2.3256">
        <ele>44.5</ele>
        <time>2025-01-16T14:17:33Z</time>
      </trkpt>
      <trkpt lat="47.58247" lon="-2.32559">
        <ele>44.3</ele>
        <time>2025-01-16T14:17:34Z</time>
      </trkpt>
      <trkpt lat="47.58249" lon="-2.32559">
        <ele>44.1</ele>
        <time>2025-01-16T14:17:35Z</time>
      </trkpt>
      <trkpt lat="47.5825" lon="-2.32558">
        <ele>44</ele>
        <time>2025-01-16T14:17:36Z</time>
      </trkpt>
      <trkpt lat="47.58251" lon="-2.32557">
        <ele>43.8</ele>
        <time>2025-01-16T14:17:37Z</time>
      </trkpt>
      <trkpt lat="47.58252" lon="-2.32556">
        <ele>43.6</ele>
        <time>2025-01-16T14:17:38Z</time>
      </trkpt>
      <trkpt lat="47.58253" lon="-2.32554">
        <ele>43.4</ele>
        <time>2025-01-16T14:17:39Z</time>
      </trkpt>
      <trkpt lat="47.58254" lon="-2.32553">
        <ele>43.2</ele>
        <time>2025-01-16T14:17:40Z</time>
      </trkpt>
      <trkpt lat="47.58255" lon="-2.32552">
        <ele>43</ele>
        <time>2025-01-16T14:17:41Z</time>
      </trkpt>
      <trkpt lat="47.58256" lon="-2.3255">
        <ele>42.8</ele>
        <time>2025-01-16T14:17:42Z</time>
      </trkpt>
      <trkpt lat="47.58257" lon="-2.32549">
        <ele>42.6</ele>
        <time>2025-01-16T14:17:43Z</time>
      </trkpt>
      <trkpt lat="47.58258" lon="-2.32547">
        <ele>42.4</ele>
        <time>2025-01-16T14:17:44Z</time>
      </trkpt>
      <trkpt lat="47.58258" lon="-2.32547">
        <ele>42.4</ele>
        <time>2025-01-16T14:17:45Z</time>
      </trkpt>
      <trkpt lat="47.58258" lon="-2.32546">
        <ele>42.5</ele>
        <time>2025-01-16T14:17:46Z</time>
      </trkpt>
      <trkpt lat="47.58259" lon="-2.32544">
        <ele>42.3</ele>
        <time>2025-01-16T14:17:47Z</time>
      </trkpt>
      <trkpt lat="47.58259" lon="-2.32543">
        <ele>42.3</ele>
        <time>2025-01-16T14:17:48Z</time>
      </trkpt>
      <trkpt lat="47.58259" lon="-2.32542">
        <ele>42.4</ele>
        <time>2025-01-16T14:17:49Z</time>
      </trkpt>
      <trkpt lat="47.5826" lon="-2.3254">
        <ele>42.2</ele>
        <time>2025-01-16T14:17:50Z</time>
      </trkpt>
      <trkpt lat="47.5826" lon="-2.32539">
        <ele>42.3</ele>
        <time>2025-01-16T14:17:51Z</time>
      </trkpt>
      <trkpt lat="47.5826" lon="-2.32538">
        <ele>42.3</ele>
        <time>2025-01-16T14:17:52Z</time>
      </trkpt>
      <trkpt lat="47.5826" lon="-2.32537">
        <ele>42.3</ele>
        <time>2025-01-16T14:17:53Z</time>
      </trkpt>
      <trkpt lat="47.5826" lon="-2.32536">
        <ele>42.3</ele>
        <time>2025-01-16T14:17:54Z</time>
      </trkpt>
      <trkpt lat="47.58258" lon="-2.32536">
        <ele>42.7</ele>
        <time>2025-01-16T14:17:55Z</time>
      </trkpt>
      <trkpt lat="47.58258" lon="-2.32536">
        <ele>42.7</ele>
        <time>2025-01-16T14:17:56Z</time>
      </trkpt>
      <trkpt lat="47.58258" lon="-2.32535">
        <ele>42.7</ele>
        <time>2025-01-16T14:17:57Z</time>
      </trkpt>
      <trkpt lat="47.58258" lon="-2.32533">
        <ele>42.7</ele>
        <time>2025-01-16T14:17:58Z</time>
      </trkpt>
      <trkpt lat="47.58258" lon="-2.32532">
        <ele>42.8</ele>
        <time>2025-01-16T14:17:59Z</time>
      </trkpt>
      <trkpt lat="47.58259" lon="-2.3253">
        <ele>42.7</ele>
        <time>2025-01-16T14:18:00Z</time>
      </trkpt>
      <trkpt lat="47.5826" lon="-2.32529">
        <ele>42.5</ele>
        <time>2025-01-16T14:18:01Z</time>
      </trkpt>
      <trkpt lat="47.58261" lon="-2.32527">
        <ele>42.4</ele>
        <time>2025-01-16T14:18:02Z</time>
      </trkpt>
      <trkpt lat="47.58261" lon="-2.32526">
        <ele>42.4</ele>
        <time>2025-01-16T14:18:03Z</time>
      </trkpt>
      <trkpt lat="47.58262" lon="-2.32524">
        <ele>42.3</ele>
        <time>2025-01-16T14:18:04Z</time>
      </trkpt>
      <trkpt lat="47.58262" lon="-2.32522">
        <ele>42.2</ele>
        <time>2025-01-16T14:18:05Z</time>
      </trkpt>
      <trkpt lat="47.58262" lon="-2.32521">
        <ele>42.2</ele>
        <time>2025-01-16T14:18:06Z</time>
      </trkpt>
      <trkpt lat="47.58263" lon="-2.32519">
        <ele>42.1</ele>
        <time>2025-01-16T14:18:07Z</time>
      </trkpt>
      <trkpt lat="47.58264" lon="-2.32518">
        <ele>42</ele>
        <time>2025-01-16T14:18:08Z</time>
      </trkpt>
      <trkpt lat="47.58264" lon="-2.32517">
        <ele>42</ele>
        <time>2025-01-16T14:18:09Z</time>
      </trkpt>
      <trkpt lat="47.58265" lon="-2.32516">
        <ele>41.9</ele>
        <time>2025-01-16T14:18:10Z</time>
      </trkpt>
      <trkpt lat="47.58265" lon="-2.32514">
        <ele>41.9</ele>
        <time>2025-01-16T14:18:11Z</time>
      </trkpt>
      <trkpt lat="47.58265" lon="-2.32513">
        <ele>41.9</ele>
        <time>2025-01-16T14:18:12Z</time>
      </trkpt>
      <trkpt lat="47.58266" lon="-2.32511">
        <ele>41.8</ele>
        <time>2025-01-16T14:18:13Z</time>
      </trkpt>
      <trkpt lat="47.58267" lon="-2.3251">
        <ele>41.7</ele>
        <time>2025-01-16T14:18:14Z</time>
      </trkpt>
      <trkpt lat="47.58267" lon="-2.32509">
        <ele>41.7</ele>
        <time>2025-01-16T14:18:15Z</time>
      </trkpt>
      <trkpt lat="47.58268" lon="-2.32508">
        <ele>41.6</ele>
        <time>2025-01-16T14:18:16Z</time>
      </trkpt>
      <trkpt lat="47.58268" lon="-2.32507">
        <ele>41.6</ele>
        <time>2025-01-16T14:18:17Z</time>
      </trkpt>
      <trkpt lat="47.58269" lon="-2.32505">
        <ele>41.6</ele>
        <time>2025-01-16T14:18:18Z</time>
      </trkpt>
      <trkpt lat="47.5827" lon="-2.32503">
        <ele>41.5</ele>
        <time>2025-01-16T14:18:19Z</time>
      </trkpt>
      <trkpt lat="47.5827" lon="-2.32501">
        <ele>41.5</ele>
        <time>2025-01-16T14:18:20Z</time>
      </trkpt>
      <trkpt lat="47.58271" lon="-2.325">
        <ele>41.5</ele>
        <time>2025-01-16T14:18:21Z</time>
      </trkpt>
      <trkpt lat="47.58271" lon="-2.32498">
        <ele>41.5</ele>
        <time>2025-01-16T14:18:22Z</time>
      </trkpt>
      <trkpt lat="47.58271" lon="-2.32497">
        <ele>41.6</ele>
        <time>2025-01-16T14:18:23Z</time>
      </trkpt>
      <trkpt lat="47.58272" lon="-2.32496">
        <ele>41.5</ele>
        <time>2025-01-16T14:18:24Z</time>
      </trkpt>
      <trkpt lat="47.58272" lon="-2.32495">
        <ele>41.6</ele>
        <time>2025-01-16T14:18:25Z</time>
      </trkpt>
      <trkpt lat="47.58272" lon="-2.32495">
        <ele>41.6</ele>
        <time>2025-01-16T14:18:26Z</time>
      </trkpt>
      <trkpt lat="47.58272" lon="-2.32495">
        <ele>41.6</ele>
        <time>2025-01-16T14:18:27Z</time>
      </trkpt>
      <trkpt lat="47.58272" lon="-2.32496">
        <ele>41.5</ele>
        <time>2025-01-16T14:18:28Z</time>
      </trkpt>
      <trkpt lat="47.58273" lon="-2.32496">
        <ele>41.5</ele>
        <time>2025-01-16T14:18:29Z</time>
      </trkpt>
      <trkpt lat="47.58273" lon="-2.32497">
        <ele>41.4</ele>
        <time>2025-01-16T14:18:30Z</time>
      </trkpt>
      <trkpt lat="47.58273" lon="-2.32497">
        <ele>41.4</ele>
        <time>2025-01-16T14:18:31Z</time>
      </trkpt>
      <trkpt lat="47.58273" lon="-2.32497">
        <ele>41.4</ele>
        <time>2025-01-16T14:18:32Z</time>
      </trkpt>
      <trkpt lat="47.58273" lon="-2.32497">
        <ele>41.4</ele>
        <time>2025-01-16T14:18:33Z</time>
      </trkpt>
      <trkpt lat="47.58274" lon="-2.32498">
        <ele>41.3</ele>
        <time>2025-01-16T14:18:34Z</time>
      </trkpt>
      <trkpt lat="47.58274" lon="-2.32498">
        <ele>41.3</ele>
        <time>2025-01-16T14:18:35Z</time>
      </trkpt>
      <trkpt lat="47.58274" lon="-2.32498">
        <ele>41.3</ele>
        <time>2025-01-16T14:18:36Z</time>
      </trkpt>
      <trkpt lat="47.58275" lon="-2.32498">
        <ele>41.3</ele>
        <time>2025-01-16T14:18:37Z</time>
      </trkpt>
      <trkpt lat="47.58275" lon="-2.32498">
        <ele>41.3</ele>
        <time>2025-01-16T14:18:38Z</time>
      </trkpt>
      <trkpt lat="47.58275" lon="-2.32498">
        <ele>41.3</ele>
        <time>2025-01-16T14:18:39Z</time>
      </trkpt>
      <trkpt lat="47.58275" lon="-2.32498">
        <ele>41.3</ele>
        <time>2025-01-16T14:18:40Z</time>
      </trkpt>
      <trkpt lat="47.58275" lon="-2.32498">
        <ele>41.3</ele>
        <time>2025-01-16T14:18:41Z</time>
      </trkpt>
      <trkpt lat="47.58275" lon="-2.32498">
        <ele>41.3</ele>
        <time>2025-01-16T14:18:42Z</time>
      </trkpt>
      <trkpt lat="47.58275" lon="-2.32498">
        <ele>41.3</ele>
        <time>2025-01-16T14:18:43Z</time>
      </trkpt>
      <trkpt lat="47.58276" lon="-2.32498">
        <ele>41.2</ele>
        <time>2025-01-16T14:18:44Z</time>
      </trkpt>
      <trkpt lat="47.58276" lon="-2.32498">
        <ele>41.2</ele>
        <time>2025-01-16T14:18:45Z</time>
      </trkpt>
      <trkpt lat="47.58276" lon="-2.32498">
        <ele>41.2</ele>
        <time>2025-01-16T14:18:46Z</time>
      </trkpt>
      <trkpt lat="47.58276" lon="-2.32498">
        <ele>41.2</ele>
        <time>2025-01-16T14:18:47Z</time>
      </trkpt>
      <trkpt lat="47.58276" lon="-2.32498">
        <ele>41.2</ele>
        <time>2025-01-16T14:18:48Z</time>
      </trkpt>
      <trkpt lat="47.58276" lon="-2.32498">
        <ele>41.2</ele>
        <time>2025-01-16T14:18:49Z</time>
      </trkpt>
      <trkpt lat="47.58276" lon="-2.32498">
        <ele>41.2</ele>
        <time>2025-01-16T14:18:50Z</time>
      </trkpt>
      <trkpt lat="47.58276" lon="-2.32498">
        <ele>41.2</ele>
        <time>2025-01-16T14:18:51Z</time>
      </trkpt>
      <trkpt lat="47.58276" lon="-2.32498">
        <ele>41.2</ele>
        <time>2025-01-16T14:18:52Z</time>
      </trkpt>
      <trkpt lat="47.58276" lon="-2.32498">
        <ele>41.2</ele>
        <time>2025-01-16T14:18:53Z</time>
      </trkpt>
      <trkpt lat="47.58276" lon="-2.32498">
        <ele>41.2</ele>
        <time>2025-01-16T14:18:54Z</time>
      </trkpt>
      <trkpt lat="47.58276" lon="-2.32498">
        <ele>41.2</ele>
        <time>2025-01-16T14:18:55Z</time>
      </trkpt>
      <trkpt lat="47.58276" lon="-2.32498">
        <ele>41.2</ele>
        <time>2025-01-16T14:18:56Z</time>
      </trkpt>
      <trkpt lat="47.58276" lon="-2.32498">
        <ele>41.2</ele>
        <time>2025-01-16T14:18:57Z</time>
      </trkpt>
      <trkpt lat="47.58276" lon="-2.32498">
        <ele>41.2</ele>
        <time>2025-01-16T14:18:58Z</time>
      </trkpt>
      <trkpt lat="47.58276" lon="-2.32498">
        <ele>41.2</ele>
        <time>2025-01-16T14:18:59Z</time>
      </trkpt>
      <trkpt lat="47.58276" lon="-2.32498">
        <ele>41.2</ele>
        <time>2025-01-16T14:19:00Z</time>
      </trkpt>
      <trkpt lat="47.58276" lon="-2.32499">
        <ele>41.2</ele>
        <time>2025-01-16T14:19:01Z</time>
      </trkpt>
      <trkpt lat="47.58277" lon="-2.32499">
        <ele>41.1</ele>
        <time>2025-01-16T14:19:02Z</time>
      </trkpt>
      <trkpt lat="47.58277" lon="-2.32499">
        <ele>41.1</ele>
        <time>2025-01-16T14:19:03Z</time>
      </trkpt>
      <trkpt lat="47.58277" lon="-2.32499">
        <ele>41.1</ele>
        <time>2025-01-16T14:19:04Z</time>
      </trkpt>
      <trkpt lat="47.58277" lon="-2.32499">
        <ele>41.1</ele>
        <time>2025-01-16T14:19:05Z</time>
      </trkpt>
      <trkpt lat="47.58277" lon="-2.325">
        <ele>41.1</ele>
        <time>2025-01-16T14:19:06Z</time>
      </trkpt>
      <trkpt lat="47.58277" lon="-2.325">
        <ele>41.1</ele>
        <time>2025-01-16T14:19:07Z</time>
      </trkpt>
      <trkpt lat="47.58277" lon="-2.325">
        <ele>41.1</ele>
        <time>2025-01-16T14:19:08Z</time>
      </trkpt>
      <trkpt lat="47.58277" lon="-2.325">
        <ele>41.1</ele>
        <time>2025-01-16T14:19:09Z</time>
      </trkpt>
      <trkpt lat="47.58278" lon="-2.325">
        <ele>40.9</ele>
        <time>2025-01-16T14:19:10Z</time>
      </trkpt>
      <trkpt lat="47.58278" lon="-2.32499">
        <ele>41</ele>
        <time>2025-01-16T14:19:11Z</time>
      </trkpt>
      <trkpt lat="47.58278" lon="-2.32499">
        <ele>41</ele>
        <time>2025-01-16T14:19:12Z</time>
      </trkpt>
      <trkpt lat="47.58279" lon="-2.32498">
        <ele>40.8</ele>
        <time>2025-01-16T14:19:13Z</time>
      </trkpt>
      <trkpt lat="47.58279" lon="-2.32497">
        <ele>40.8</ele>
        <time>2025-01-16T14:19:14Z</time>
      </trkpt>
      <trkpt lat="47.58279" lon="-2.32496">
        <ele>40.9</ele>
        <time>2025-01-16T14:19:15Z</time>
      </trkpt>
      <trkpt lat="47.58279" lon="-2.32496">
        <ele>40.9</ele>
        <time>2025-01-16T14:19:16Z</time>
      </trkpt>
      <trkpt lat="47.58279" lon="-2.32496">
        <ele>40.9</ele>
        <time>2025-01-16T14:19:17Z</time>
      </trkpt>
      <trkpt lat="47.58278" lon="-2.32495">
        <ele>41.1</ele>
        <time>2025-01-16T14:19:18Z</time>
      </trkpt>
      <trkpt lat="47.58278" lon="-2.32495">
        <ele>41.1</ele>
        <time>2025-01-16T14:19:19Z</time>
      </trkpt>
      <trkpt lat="47.58278" lon="-2.32495">
        <ele>41.1</ele>
        <time>2025-01-16T14:19:20Z</time>
      </trkpt>
      <trkpt lat="47.58278" lon="-2.32495">
        <ele>41.1</ele>
        <time>2025-01-16T14:19:21Z</time>
      </trkpt>
      <trkpt lat="47.58278" lon="-2.32494">
        <ele>41.2</ele>
        <time>2025-01-16T14:19:22Z</time>
      </trkpt>
      <trkpt lat="47.58278" lon="-2.32494">
        <ele>41.2</ele>
        <time>2025-01-16T14:19:23Z</time>
      </trkpt>
      <trkpt lat="47.58278" lon="-2.32494">
        <ele>41.2</ele>
        <time>2025-01-16T14:19:24Z</time>
      </trkpt>
      <trkpt lat="47.58278" lon="-2.32494">
        <ele>41.2</ele>
        <time>2025-01-16T14:19:25Z</time>
      </trkpt>
      <trkpt lat="47.58278" lon="-2.32494">
        <ele>41.2</ele>
        <time>2025-01-16T14:19:26Z</time>
      </trkpt>
      <trkpt lat="47.58278" lon="-2.32494">
        <ele>41.2</ele>
        <time>2025-01-16T14:19:27Z</time>
      </trkpt>
      <trkpt lat="47.58278" lon="-2.32494">
        <ele>41.2</ele>
        <time>2025-01-16T14:19:28Z</time>
      </trkpt>
      <trkpt lat="47.58278" lon="-2.32494">
        <ele>41.2</ele>
        <time>2025-01-16T14:19:29Z</time>
      </trkpt>
      <trkpt lat="47.58278" lon="-2.32494">
        <ele>41.2</ele>
        <time>2025-01-16T14:19:30Z</time>
      </trkpt>
      <trkpt lat="47.58278" lon="-2.32494">
        <ele>41.2</ele>
        <time>2025-01-16T14:19:31Z</time>
      </trkpt>
      <trkpt lat="47.58278" lon="-2.32494">
        <ele>41.2</ele>
        <time>2025-01-16T14:19:32Z</time>
      </trkpt>
      <trkpt lat="47.58278" lon="-2.32494">
        <ele>41.2</ele>
        <time>2025-01-16T14:19:33Z</time>
      </trkpt>
      <trkpt lat="47.58278" lon="-2.32494">
        <ele>41.2</ele>
        <time>2025-01-16T14:19:34Z</time>
      </trkpt>
      <trkpt lat="47.58278" lon="-2.32493">
        <ele>41.2</ele>
        <time>2025-01-16T14:19:35Z</time>
      </trkpt>
      <trkpt lat="47.58278" lon="-2.32493">
        <ele>41.2</ele>
        <time>2025-01-16T14:19:36Z</time>
      </trkpt>
      <trkpt lat="47.58278" lon="-2.32493">
        <ele>41.2</ele>
        <time>2025-01-16T14:19:37Z</time>
      </trkpt>
      <trkpt lat="47.58278" lon="-2.32492">
        <ele>41.2</ele>
        <time>2025-01-16T14:19:38Z</time>
      </trkpt>
      <trkpt lat="47.58277" lon="-2.32492">
        <ele>41.3</ele>
        <time>2025-01-16T14:19:39Z</time>
      </trkpt>
      <trkpt lat="47.58277" lon="-2.32492">
        <ele>41.3</ele>
        <time>2025-01-16T14:19:40Z</time>
      </trkpt>
      <trkpt lat="47.58277" lon="-2.32492">
        <ele>41.3</ele>
        <time>2025-01-16T14:19:41Z</time>
      </trkpt>
      <trkpt lat="47.58277" lon="-2.32493">
        <ele>41.3</ele>
        <time>2025-01-16T14:19:42Z</time>
      </trkpt>
      <trkpt lat="47.58277" lon="-2.32493">
        <ele>41.3</ele>
        <time>2025-01-16T14:19:43Z</time>
      </trkpt>
      <trkpt lat="47.58277" lon="-2.32493">
        <ele>41.3</ele>
        <time>2025-01-16T14:19:44Z</time>
      </trkpt>
      <trkpt lat="47.58276" lon="-2.32492">
        <ele>41.4</ele>
        <time>2025-01-16T14:19:45Z</time>
      </trkpt>
      <trkpt lat="47.58276" lon="-2.32491">
        <ele>41.4</ele>
        <time>2025-01-16T14:19:46Z</time>
      </trkpt>
      <trkpt lat="47.58276" lon="-2.3249">
        <ele>41.5</ele>
        <time>2025-01-16T14:19:47Z</time>
      </trkpt>
      <trkpt lat="47.58276" lon="-2.32489">
        <ele>41.5</ele>
        <time>2025-01-16T14:19:48Z</time>
      </trkpt>
      <trkpt lat="47.58276" lon="-2.32488">
        <ele>41.5</ele>
        <time>2025-01-16T14:19:49Z</time>
      </trkpt>
      <trkpt lat="47.58277" lon="-2.32486">
        <ele>41.5</ele>
        <time>2025-01-16T14:19:50Z</time>
      </trkpt>
      <trkpt lat="47.58277" lon="-2.32484">
        <ele>41.6</ele>
        <time>2025-01-16T14:19:51Z</time>
      </trkpt>
      <trkpt lat="47.58277" lon="-2.32483">
        <ele>41.7</ele>
        <time>2025-01-16T14:19:52Z</time>
      </trkpt>
      <trkpt lat="47.58278" lon="-2.32481">
        <ele>41.6</ele>
        <time>2025-01-16T14:19:53Z</time>
      </trkpt>
      <trkpt lat="47.58278" lon="-2.3248">
        <ele>41.7</ele>
        <time>2025-01-16T14:19:54Z</time>
      </trkpt>
      <trkpt lat="47.58278" lon="-2.32478">
        <ele>41.8</ele>
        <time>2025-01-16T14:19:55Z</time>
      </trkpt>
      <trkpt lat="47.58279" lon="-2.32476">
        <ele>41.7</ele>
        <time>2025-01-16T14:19:56Z</time>
      </trkpt>
      <trkpt lat="47.58279" lon="-2.32475">
        <ele>41.7</ele>
        <time>2025-01-16T14:19:57Z</time>
      </trkpt>
      <trkpt lat="47.58279" lon="-2.32473">
        <ele>41.8</ele>
        <time>2025-01-16T14:19:58Z</time>
      </trkpt>
      <trkpt lat="47.58279" lon="-2.32471">
        <ele>41.8</ele>
        <time>2025-01-16T14:19:59Z</time>
      </trkpt>
      <trkpt lat="47.58279" lon="-2.32469">
        <ele>41.8</ele>
        <time>2025-01-16T14:20:00Z</time>
      </trkpt>
      <trkpt lat="47.58279" lon="-2.32468">
        <ele>41.8</ele>
        <time>2025-01-16T14:20:01Z</time>
      </trkpt>
      <trkpt lat="47.58279" lon="-2.32466">
        <ele>41.8</ele>
        <time>2025-01-16T14:20:02Z</time>
      </trkpt>
      <trkpt lat="47.58279" lon="-2.32464">
        <ele>41.8</ele>
        <time>2025-01-16T14:20:03Z</time>
      </trkpt>
      <trkpt lat="47.58279" lon="-2.32463">
        <ele>41.8</ele>
        <time>2025-01-16T14:20:04Z</time>
      </trkpt>
      <trkpt lat="47.58279" lon="-2.32461">
        <ele>41.8</ele>
        <time>2025-01-16T14:20:05Z</time>
      </trkpt>
      <trkpt lat="47.5828" lon="-2.32459">
        <ele>41.7</ele>
        <time>2025-01-16T14:20:06Z</time>
      </trkpt>
      <trkpt lat="47.58281" lon="-2.32457">
        <ele>41.6</ele>
        <time>2025-01-16T14:20:07Z</time>
      </trkpt>
      <trkpt lat="47.58281" lon="-2.32456">
        <ele>41.6</ele>
        <time>2025-01-16T14:20:08Z</time>
      </trkpt>
      <trkpt lat="47.58282" lon="-2.32455">
        <ele>41.5</ele>
        <time>2025-01-16T14:20:09Z</time>
      </trkpt>
      <trkpt lat="47.58281" lon="-2.32453">
        <ele>41.6</ele>
        <time>2025-01-16T14:20:10Z</time>
      </trkpt>
      <trkpt lat="47.58281" lon="-2.32453">
        <ele>41.6</ele>
        <time>2025-01-16T14:20:11Z</time>
      </trkpt>
      <trkpt lat="47.58281" lon="-2.32451">
        <ele>41.6</ele>
        <time>2025-01-16T14:20:12Z</time>
      </trkpt>
      <trkpt lat="47.58281" lon="-2.32448">
        <ele>41.6</ele>
        <time>2025-01-16T14:20:13Z</time>
      </trkpt>
      <trkpt lat="47.58281" lon="-2.32446">
        <ele>41.6</ele>
        <time>2025-01-16T14:20:14Z</time>
      </trkpt>
      <trkpt lat="47.5828" lon="-2.32444">
        <ele>41.7</ele>
        <time>2025-01-16T14:20:15Z</time>
      </trkpt>
      <trkpt lat="47.5828" lon="-2.32442">
        <ele>41.6</ele>
        <time>2025-01-16T14:20:16Z</time>
      </trkpt>
      <trkpt lat="47.5828" lon="-2.3244">
        <ele>41.5</ele>
        <time>2025-01-16T14:20:17Z</time>
      </trkpt>
      <trkpt lat="47.58279" lon="-2.32439">
        <ele>41.5</ele>
        <time>2025-01-16T14:20:18Z</time>
      </trkpt>
      <trkpt lat="47.58279" lon="-2.32436">
        <ele>41.3</ele>
        <time>2025-01-16T14:20:19Z</time>
      </trkpt>
      <trkpt lat="47.58279" lon="-2.32434">
        <ele>41.1</ele>
        <time>2025-01-16T14:20:20Z</time>
      </trkpt>
      <trkpt lat="47.58279" lon="-2.32432">
        <ele>41</ele>
        <time>2025-01-16T14:20:21Z</time>
      </trkpt>
      <trkpt lat="47.58279" lon="-2.3243">
        <ele>40.9</ele>
        <time>2025-01-16T14:20:22Z</time>
      </trkpt>
      <trkpt lat="47.5828" lon="-2.32429">
        <ele>40.7</ele>
        <time>2025-01-16T14:20:23Z</time>
      </trkpt>
      <trkpt lat="47.5828" lon="-2.32427">
        <ele>40.6</ele>
        <time>2025-01-16T14:20:24Z</time>
      </trkpt>
      <trkpt lat="47.5828" lon="-2.32426">
        <ele>40.5</ele>
        <time>2025-01-16T14:20:25Z</time>
      </trkpt>
      <trkpt lat="47.5828" lon="-2.32425">
        <ele>40.5</ele>
        <time>2025-01-16T14:20:26Z</time>
      </trkpt>
      <trkpt lat="47.5828" lon="-2.32423">
        <ele>40.3</ele>
        <time>2025-01-16T14:20:27Z</time>
      </trkpt>
      <trkpt lat="47.5828" lon="-2.32421">
        <ele>40.2</ele>
        <time>2025-01-16T14:20:28Z</time>
      </trkpt>
      <trkpt lat="47.5828" lon="-2.3242">
        <ele>40.1</ele>
        <time>2025-01-16T14:20:29Z</time>
      </trkpt>
      <trkpt lat="47.5828" lon="-2.32418">
        <ele>40</ele>
        <time>2025-01-16T14:20:30Z</time>
      </trkpt>
      <trkpt lat="47.5828" lon="-2.32417">
        <ele>39.9</ele>
        <time>2025-01-16T14:20:31Z</time>
      </trkpt>
      <trkpt lat="47.58281" lon="-2.32416">
        <ele>39.9</ele>
        <time>2025-01-16T14:20:32Z</time>
      </trkpt>
      <trkpt lat="47.58281" lon="-2.32415">
        <ele>39.8</ele>
        <time>2025-01-16T14:20:33Z</time>
      </trkpt>
      <trkpt lat="47.58282" lon="-2.32414">
        <ele>39.7</ele>
        <time>2025-01-16T14:20:34Z</time>
      </trkpt>
      <trkpt lat="47.58282" lon="-2.32412">
        <ele>39.7</ele>
        <time>2025-01-16T14:20:35Z</time>
      </trkpt>
      <trkpt lat="47.58282" lon="-2.3241">
        <ele>39.6</ele>
        <time>2025-01-16T14:20:36Z</time>
      </trkpt>
      <trkpt lat="47.58282" lon="-2.32409">
        <ele>39.5</ele>
        <time>2025-01-16T14:20:37Z</time>
      </trkpt>
      <trkpt lat="47.58283" lon="-2.32407">
        <ele>39.4</ele>
        <time>2025-01-16T14:20:38Z</time>
      </trkpt>
      <trkpt lat="47.58283" lon="-2.32406">
        <ele>39.4</ele>
        <time>2025-01-16T14:20:39Z</time>
      </trkpt>
      <trkpt lat="47.58284" lon="-2.32405">
        <ele>39.3</ele>
        <time>2025-01-16T14:20:40Z</time>
      </trkpt>
      <trkpt lat="47.58284" lon="-2.32403">
        <ele>39.2</ele>
        <time>2025-01-16T14:20:41Z</time>
      </trkpt>
      <trkpt lat="47.58284" lon="-2.32401">
        <ele>39.1</ele>
        <time>2025-01-16T14:20:42Z</time>
      </trkpt>
      <trkpt lat="47.58284" lon="-2.324">
        <ele>39</ele>
        <time>2025-01-16T14:20:43Z</time>
      </trkpt>
      <trkpt lat="47.58284" lon="-2.32399">
        <ele>39</ele>
        <time>2025-01-16T14:20:44Z</time>
      </trkpt>
      <trkpt lat="47.58284" lon="-2.32397">
        <ele>38.9</ele>
        <time>2025-01-16T14:20:45Z</time>
      </trkpt>
      <trkpt lat="47.58284" lon="-2.32396">
        <ele>38.9</ele>
        <time>2025-01-16T14:20:46Z</time>
      </trkpt>
      <trkpt lat="47.58285" lon="-2.32394">
        <ele>38.7</ele>
        <time>2025-01-16T14:20:47Z</time>
      </trkpt>
      <trkpt lat="47.58285" lon="-2.32391">
        <ele>38.6</ele>
        <time>2025-01-16T14:20:48Z</time>
      </trkpt>
      <trkpt lat="47.58285" lon="-2.32389">
        <ele>38.5</ele>
        <time>2025-01-16T14:20:49Z</time>
      </trkpt>
      <trkpt lat="47.58285" lon="-2.32387">
        <ele>38.5</ele>
        <time>2025-01-16T14:20:50Z</time>
      </trkpt>
      <trkpt lat="47.58285" lon="-2.32386">
        <ele>38.5</ele>
        <time>2025-01-16T14:20:51Z</time>
      </trkpt>
      <trkpt lat="47.58285" lon="-2.32385">
        <ele>38.4</ele>
        <time>2025-01-16T14:20:52Z</time>
      </trkpt>
      <trkpt lat="47.58285" lon="-2.32383">
        <ele>38.4</ele>
        <time>2025-01-16T14:20:53Z</time>
      </trkpt>
      <trkpt lat="47.58285" lon="-2.32382">
        <ele>38.4</ele>
        <time>2025-01-16T14:20:54Z</time>
      </trkpt>
      <trkpt lat="47.58285" lon="-2.32381">
        <ele>38.4</ele>
        <time>2025-01-16T14:20:55Z</time>
      </trkpt>
      <trkpt lat="47.58285" lon="-2.3238">
        <ele>38.4</ele>
        <time>2025-01-16T14:20:56Z</time>
      </trkpt>
      <trkpt lat="47.58285" lon="-2.32378">
        <ele>38.4</ele>
        <time>2025-01-16T14:20:57Z</time>
      </trkpt>
      <trkpt lat="47.58285" lon="-2.32377">
        <ele>38.4</ele>
        <time>2025-01-16T14:20:58Z</time>
      </trkpt>
      <trkpt lat="47.58285" lon="-2.32375">
        <ele>38.3</ele>
        <time>2025-01-16T14:20:59Z</time>
      </trkpt>
      <trkpt lat="47.58286" lon="-2.32373">
        <ele>38.2</ele>
        <time>2025-01-16T14:21:00Z</time>
      </trkpt>
      <trkpt lat="47.58286" lon="-2.32371">
        <ele>38.2</ele>
        <time>2025-01-16T14:21:01Z</time>
      </trkpt>
      <trkpt lat="47.58286" lon="-2.32369">
        <ele>38.2</ele>
        <time>2025-01-16T14:21:02Z</time>
      </trkpt>
      <trkpt lat="47.58286" lon="-2.32367">
        <ele>38.2</ele>
        <time>2025-01-16T14:21:03Z</time>
      </trkpt>
      <trkpt lat="47.58286" lon="-2.32366">
        <ele>38.2</ele>
        <time>2025-01-16T14:21:04Z</time>
      </trkpt>
      <trkpt lat="47.58286" lon="-2.32365">
        <ele>38.2</ele>
        <time>2025-01-16T14:21:05Z</time>
      </trkpt>
      <trkpt lat="47.58287" lon="-2.32363">
        <ele>38</ele>
        <time>2025-01-16T14:21:06Z</time>
      </trkpt>
      <trkpt lat="47.58287" lon="-2.32361">
        <ele>38</ele>
        <time>2025-01-16T14:21:07Z</time>
      </trkpt>
      <trkpt lat="47.58288" lon="-2.32359">
        <ele>37.8</ele>
        <time>2025-01-16T14:21:08Z</time>
      </trkpt>
      <trkpt lat="47.58288" lon="-2.32357">
        <ele>37.8</ele>
        <time>2025-01-16T14:21:09Z</time>
      </trkpt>
      <trkpt lat="47.58288" lon="-2.32355">
        <ele>37.8</ele>
        <time>2025-01-16T14:21:10Z</time>
      </trkpt>
      <trkpt lat="47.58288" lon="-2.32353">
        <ele>37.7</ele>
        <time>2025-01-16T14:21:11Z</time>
      </trkpt>
      <trkpt lat="47.58288" lon="-2.32351">
        <ele>37.7</ele>
        <time>2025-01-16T14:21:12Z</time>
      </trkpt>
      <trkpt lat="47.58289" lon="-2.32349">
        <ele>37.5</ele>
        <time>2025-01-16T14:21:13Z</time>
      </trkpt>
      <trkpt lat="47.58289" lon="-2.32346">
        <ele>37.5</ele>
        <time>2025-01-16T14:21:14Z</time>
      </trkpt>
      <trkpt lat="47.58289" lon="-2.32344">
        <ele>37.4</ele>
        <time>2025-01-16T14:21:15Z</time>
      </trkpt>
      <trkpt lat="47.58289" lon="-2.32343">
        <ele>37.4</ele>
        <time>2025-01-16T14:21:16Z</time>
      </trkpt>
      <trkpt lat="47.5829" lon="-2.32341">
        <ele>37.3</ele>
        <time>2025-01-16T14:21:17Z</time>
      </trkpt>
      <trkpt lat="47.5829" lon="-2.3234">
        <ele>37.3</ele>
        <time>2025-01-16T14:21:18Z</time>
      </trkpt>
      <trkpt lat="47.5829" lon="-2.32338">
        <ele>37.2</ele>
        <time>2025-01-16T14:21:19Z</time>
      </trkpt>
      <trkpt lat="47.58291" lon="-2.32337">
        <ele>37.1</ele>
        <time>2025-01-16T14:21:20Z</time>
      </trkpt>
      <trkpt lat="47.58291" lon="-2.32336">
        <ele>37.1</ele>
        <time>2025-01-16T14:21:21Z</time>
      </trkpt>
      <trkpt lat="47.58291" lon="-2.32335">
        <ele>37.1</ele>
        <time>2025-01-16T14:21:22Z</time>
      </trkpt>
      <trkpt lat="47.58292" lon="-2.32333">
        <ele>36.9</ele>
        <time>2025-01-16T14:21:23Z</time>
      </trkpt>
      <trkpt lat="47.58292" lon="-2.32332">
        <ele>36.8</ele>
        <time>2025-01-16T14:21:24Z</time>
      </trkpt>
      <trkpt lat="47.58292" lon="-2.3233">
        <ele>36.6</ele>
        <time>2025-01-16T14:21:25Z</time>
      </trkpt>
      <trkpt lat="47.58292" lon="-2.32329">
        <ele>36.5</ele>
        <time>2025-01-16T14:21:26Z</time>
      </trkpt>
      <trkpt lat="47.58292" lon="-2.32326">
        <ele>36.2</ele>
        <time>2025-01-16T14:21:27Z</time>
      </trkpt>
      <trkpt lat="47.58292" lon="-2.32324">
        <ele>36</ele>
        <time>2025-01-16T14:21:28Z</time>
      </trkpt>
      <trkpt lat="47.58293" lon="-2.32323">
        <ele>35.8</ele>
        <time>2025-01-16T14:21:29Z</time>
      </trkpt>
      <trkpt lat="47.58293" lon="-2.32321">
        <ele>35.6</ele>
        <time>2025-01-16T14:21:30Z</time>
      </trkpt>
      <trkpt lat="47.58293" lon="-2.32319">
        <ele>35.4</ele>
        <time>2025-01-16T14:21:31Z</time>
      </trkpt>
      <trkpt lat="47.58294" lon="-2.32318">
        <ele>35.3</ele>
        <time>2025-01-16T14:21:32Z</time>
      </trkpt>
      <trkpt lat="47.58294" lon="-2.32316">
        <ele>35.1</ele>
        <time>2025-01-16T14:21:33Z</time>
      </trkpt>
      <trkpt lat="47.58295" lon="-2.32315">
        <ele>34.9</ele>
        <time>2025-01-16T14:21:34Z</time>
      </trkpt>
      <trkpt lat="47.58295" lon="-2.32314">
        <ele>34.8</ele>
        <time>2025-01-16T14:21:35Z</time>
      </trkpt>
      <trkpt lat="47.58295" lon="-2.32312">
        <ele>34.6</ele>
        <time>2025-01-16T14:21:36Z</time>
      </trkpt>
      <trkpt lat="47.58296" lon="-2.3231">
        <ele>34.4</ele>
        <time>2025-01-16T14:21:37Z</time>
      </trkpt>
      <trkpt lat="47.58296" lon="-2.32308">
        <ele>34.2</ele>
        <time>2025-01-16T14:21:38Z</time>
      </trkpt>
      <trkpt lat="47.58297" lon="-2.32306">
        <ele>34</ele>
        <time>2025-01-16T14:21:39Z</time>
      </trkpt>
      <trkpt lat="47.58297" lon="-2.32305">
        <ele>33.9</ele>
        <time>2025-01-16T14:21:40Z</time>
      </trkpt>
      <trkpt lat="47.58297" lon="-2.32303">
        <ele>33.7</ele>
        <time>2025-01-16T14:21:41Z</time>
      </trkpt>
      <trkpt lat="47.58297" lon="-2.32301">
        <ele>33.4</ele>
        <time>2025-01-16T14:21:42Z</time>
      </trkpt>
      <trkpt lat="47.58297" lon="-2.32299">
        <ele>33.1</ele>
        <time>2025-01-16T14:21:43Z</time>
      </trkpt>
      <trkpt lat="47.58297" lon="-2.32297">
        <ele>32.9</ele>
        <time>2025-01-16T14:21:44Z</time>
      </trkpt>
      <trkpt lat="47.58297" lon="-2.32294">
        <ele>32.5</ele>
        <time>2025-01-16T14:21:45Z</time>
      </trkpt>
      <trkpt lat="47.58297" lon="-2.32292">
        <ele>32.2</ele>
        <time>2025-01-16T14:21:46Z</time>
      </trkpt>
      <trkpt lat="47.58296" lon="-2.3229">
        <ele>32</ele>
        <time>2025-01-16T14:21:47Z</time>
      </trkpt>
      <trkpt lat="47.58296" lon="-2.32288">
        <ele>31.7</ele>
        <time>2025-01-16T14:21:48Z</time>
      </trkpt>
      <trkpt lat="47.58296" lon="-2.32286">
        <ele>31.4</ele>
        <time>2025-01-16T14:21:49Z</time>
      </trkpt>
      <trkpt lat="47.58296" lon="-2.32285">
        <ele>31.3</ele>
        <time>2025-01-16T14:21:50Z</time>
      </trkpt>
      <trkpt lat="47.58296" lon="-2.32283">
        <ele>31</ele>
        <time>2025-01-16T14:21:51Z</time>
      </trkpt>
      <trkpt lat="47.58295" lon="-2.32281">
        <ele>30.8</ele>
        <time>2025-01-16T14:21:52Z</time>
      </trkpt>
      <trkpt lat="47.58295" lon="-2.3228">
        <ele>30.7</ele>
        <time>2025-01-16T14:21:53Z</time>
      </trkpt>
      <trkpt lat="47.58295" lon="-2.3228">
        <ele>30.7</ele>
        <time>2025-01-16T14:21:54Z</time>
      </trkpt>
      <trkpt lat="47.58295" lon="-2.32279">
        <ele>30.5</ele>
        <time>2025-01-16T14:21:55Z</time>
      </trkpt>
      <trkpt lat="47.58295" lon="-2.32278">
        <ele>30.4</ele>
        <time>2025-01-16T14:21:56Z</time>
      </trkpt>
      <trkpt lat="47.58296" lon="-2.32276">
        <ele>30.3</ele>
        <time>2025-01-16T14:21:57Z</time>
      </trkpt>
      <trkpt lat="47.58296" lon="-2.32275">
        <ele>30.3</ele>
        <time>2025-01-16T14:21:58Z</time>
      </trkpt>
      <trkpt lat="47.58296" lon="-2.32273">
        <ele>30.2</ele>
        <time>2025-01-16T14:21:59Z</time>
      </trkpt>
      <trkpt lat="47.58297" lon="-2.32272">
        <ele>30.2</ele>
        <time>2025-01-16T14:22:00Z</time>
      </trkpt>
      <trkpt lat="47.58297" lon="-2.32271">
        <ele>30.1</ele>
        <time>2025-01-16T14:22:01Z</time>
      </trkpt>
      <trkpt lat="47.58297" lon="-2.32269">
        <ele>30.1</ele>
        <time>2025-01-16T14:22:02Z</time>
      </trkpt>
      <trkpt lat="47.58297" lon="-2.32268">
        <ele>30.1</ele>
        <time>2025-01-16T14:22:03Z</time>
      </trkpt>
      <trkpt lat="47.58297" lon="-2.32266">
        <ele>30</ele>
        <time>2025-01-16T14:22:04Z</time>
      </trkpt>
      <trkpt lat="47.58297" lon="-2.32264">
        <ele>30</ele>
        <time>2025-01-16T14:22:05Z</time>
      </trkpt>
      <trkpt lat="47.58297" lon="-2.32263">
        <ele>29.9</ele>
        <time>2025-01-16T14:22:06Z</time>
      </trkpt>
      <trkpt lat="47.58297" lon="-2.32261">
        <ele>29.9</ele>
        <time>2025-01-16T14:22:07Z</time>
      </trkpt>
      <trkpt lat="47.58297" lon="-2.3226">
        <ele>29.9</ele>
        <time>2025-01-16T14:22:08Z</time>
      </trkpt>
      <trkpt lat="47.58297" lon="-2.32258">
        <ele>29.8</ele>
        <time>2025-01-16T14:22:09Z</time>
      </trkpt>
      <trkpt lat="47.58297" lon="-2.32256">
        <ele>29.8</ele>
        <time>2025-01-16T14:22:10Z</time>
      </trkpt>
      <trkpt lat="47.58297" lon="-2.32254">
        <ele>29.7</ele>
        <time>2025-01-16T14:22:11Z</time>
      </trkpt>
      <trkpt lat="47.58296" lon="-2.32251">
        <ele>29.7</ele>
        <time>2025-01-16T14:22:12Z</time>
      </trkpt>
      <trkpt lat="47.58296" lon="-2.32248">
        <ele>29.9</ele>
        <time>2025-01-16T14:22:13Z</time>
      </trkpt>
      <trkpt lat="47.58296" lon="-2.32246">
        <ele>30.1</ele>
        <time>2025-01-16T14:22:14Z</time>
      </trkpt>
      <trkpt lat="47.58296" lon="-2.32244">
        <ele>30.3</ele>
        <time>2025-01-16T14:22:15Z</time>
      </trkpt>
      <trkpt lat="47.58296" lon="-2.32242">
        <ele>30.5</ele>
        <time>2025-01-16T14:22:16Z</time>
      </trkpt>
      <trkpt lat="47.58296" lon="-2.3224">
        <ele>30.7</ele>
        <time>2025-01-16T14:22:17Z</time>
      </trkpt>
      <trkpt lat="47.58295" lon="-2.32239">
        <ele>30.9</ele>
        <time>2025-01-16T14:22:18Z</time>
      </trkpt>
      <trkpt lat="47.58295" lon="-2.32238">
        <ele>31</ele>
        <time>2025-01-16T14:22:19Z</time>
      </trkpt>
      <trkpt lat="47.58295" lon="-2.32238">
        <ele>31</ele>
        <time>2025-01-16T14:22:20Z</time>
      </trkpt>
      <trkpt lat="47.58295" lon="-2.32237">
        <ele>31.1</ele>
        <time>2025-01-16T14:22:21Z</time>
      </trkpt>
      <trkpt lat="47.58295" lon="-2.32235">
        <ele>31.3</ele>
        <time>2025-01-16T14:22:22Z</time>
      </trkpt>
      <trkpt lat="47.58295" lon="-2.32234">
        <ele>31.3</ele>
        <time>2025-01-16T14:22:23Z</time>
      </trkpt>
      <trkpt lat="47.58295" lon="-2.32234">
        <ele>31.3</ele>
        <time>2025-01-16T14:22:24Z</time>
      </trkpt>
      <trkpt lat="47.58295" lon="-2.32233">
        <ele>31.4</ele>
        <time>2025-01-16T14:22:25Z</time>
      </trkpt>
      <trkpt lat="47.58294" lon="-2.32233">
        <ele>31.6</ele>
        <time>2025-01-16T14:22:26Z</time>
      </trkpt>
      <trkpt lat="47.58294" lon="-2.32232">
        <ele>31.7</ele>
        <time>2025-01-16T14:22:27Z</time>
      </trkpt>
      <trkpt lat="47.58293" lon="-2.32231">
        <ele>31.9</ele>
        <time>2025-01-16T14:22:28Z</time>
      </trkpt>
      <trkpt lat="47.58293" lon="-2.32231">
        <ele>31.9</ele>
        <time>2025-01-16T14:22:29Z</time>
      </trkpt>
      <trkpt lat="47.58292" lon="-2.3223">
        <ele>32.1</ele>
        <time>2025-01-16T14:22:30Z</time>
      </trkpt>
      <trkpt lat="47.58292" lon="-2.3223">
        <ele>32.1</ele>
        <time>2025-01-16T14:22:31Z</time>
      </trkpt>
      <trkpt lat="47.58292" lon="-2.32229">
        <ele>32.2</ele>
        <time>2025-01-16T14:22:32Z</time>
      </trkpt>
      <trkpt lat="47.58292" lon="-2.32228">
        <ele>32.3</ele>
        <time>2025-01-16T14:22:33Z</time>
      </trkpt>
      <trkpt lat="47.58292" lon="-2.32227">
        <ele>32.4</ele>
        <time>2025-01-16T14:22:34Z</time>
      </trkpt>
      <trkpt lat="47.58292" lon="-2.32227">
        <ele>32.4</ele>
        <time>2025-01-16T14:22:35Z</time>
      </trkpt>
      <trkpt lat="47.58293" lon="-2.32226">
        <ele>32.4</ele>
        <time>2025-01-16T14:22:36Z</time>
      </trkpt>
      <trkpt lat="47.58293" lon="-2.32225">
        <ele>32.5</ele>
        <time>2025-01-16T14:22:37Z</time>
      </trkpt>
      <trkpt lat="47.58293" lon="-2.32224">
        <ele>32.6</ele>
        <time>2025-01-16T14:22:38Z</time>
      </trkpt>
      <trkpt lat="47.58294" lon="-2.32222">
        <ele>32.7</ele>
        <time>2025-01-16T14:22:39Z</time>
      </trkpt>
      <trkpt lat="47.58294" lon="-2.32221">
        <ele>32.8</ele>
        <time>2025-01-16T14:22:40Z</time>
      </trkpt>
      <trkpt lat="47.58294" lon="-2.3222">
        <ele>33</ele>
        <time>2025-01-16T14:22:41Z</time>
      </trkpt>
      <trkpt lat="47.58294" lon="-2.32218">
        <ele>33.3</ele>
        <time>2025-01-16T14:22:42Z</time>
      </trkpt>
      <trkpt lat="47.58294" lon="-2.32216">
        <ele>33.6</ele>
        <time>2025-01-16T14:22:43Z</time>
      </trkpt>
      <trkpt lat="47.58294" lon="-2.32215">
        <ele>33.7</ele>
        <time>2025-01-16T14:22:44Z</time>
      </trkpt>
      <trkpt lat="47.58294" lon="-2.32213">
        <ele>34</ele>
        <time>2025-01-16T14:22:45Z</time>
      </trkpt>
      <trkpt lat="47.58294" lon="-2.32212">
        <ele>34.1</ele>
        <time>2025-01-16T14:22:46Z</time>
      </trkpt>
      <trkpt lat="47.58294" lon="-2.32211">
        <ele>34.3</ele>
        <time>2025-01-16T14:22:47Z</time>
      </trkpt>
      <trkpt lat="47.58294" lon="-2.3221">
        <ele>34.4</ele>
        <time>2025-01-16T14:22:48Z</time>
      </trkpt>
      <trkpt lat="47.58293" lon="-2.32209">
        <ele>34.7</ele>
        <time>2025-01-16T14:22:49Z</time>
      </trkpt>
      <trkpt lat="47.58293" lon="-2.32208">
        <ele>34.9</ele>
        <time>2025-01-16T14:22:50Z</time>
      </trkpt>
      <trkpt lat="47.58294" lon="-2.32206">
        <ele>35</ele>
        <time>2025-01-16T14:22:51Z</time>
      </trkpt>
      <trkpt lat="47.58294" lon="-2.32204">
        <ele>35.3</ele>
        <time>2025-01-16T14:22:52Z</time>
      </trkpt>
      <trkpt lat="47.58295" lon="-2.32203">
        <ele>35.3</ele>
        <time>2025-01-16T14:22:53Z</time>
      </trkpt>
      <trkpt lat="47.58295" lon="-2.32202">
        <ele>35.4</ele>
        <time>2025-01-16T14:22:54Z</time>
      </trkpt>
      <trkpt lat="47.58295" lon="-2.32201">
        <ele>35.6</ele>
        <time>2025-01-16T14:22:55Z</time>
      </trkpt>
      <trkpt lat="47.58295" lon="-2.322">
        <ele>35.7</ele>
        <time>2025-01-16T14:22:56Z</time>
      </trkpt>
      <trkpt lat="47.58295" lon="-2.32198">
        <ele>36</ele>
        <time>2025-01-16T14:22:57Z</time>
      </trkpt>
      <trkpt lat="47.58294" lon="-2.32197">
        <ele>36.3</ele>
        <time>2025-01-16T14:22:58Z</time>
      </trkpt>
      <trkpt lat="47.58293" lon="-2.32195">
        <ele>36.7</ele>
        <time>2025-01-16T14:22:59Z</time>
      </trkpt>
      <trkpt lat="47.58293" lon="-2.32194">
        <ele>36.8</ele>
        <time>2025-01-16T14:23:00Z</time>
      </trkpt>
      <trkpt lat="47.58293" lon="-2.32192">
        <ele>36.9</ele>
        <time>2025-01-16T14:23:01Z</time>
      </trkpt>
      <trkpt lat="47.58293" lon="-2.32191">
        <ele>36.9</ele>
        <time>2025-01-16T14:23:02Z</time>
      </trkpt>
      <trkpt lat="47.58293" lon="-2.3219">
        <ele>37</ele>
        <time>2025-01-16T14:23:03Z</time>
      </trkpt>
      <trkpt lat="47.58294" lon="-2.32189">
        <ele>36.9</ele>
        <time>2025-01-16T14:23:04Z</time>
      </trkpt>
      <trkpt lat="47.58294" lon="-2.32187">
        <ele>36.9</ele>
        <time>2025-01-16T14:23:05Z</time>
      </trkpt>
      <trkpt lat="47.58294" lon="-2.32186">
        <ele>37</ele>
        <time>2025-01-16T14:23:06Z</time>
      </trkpt>
      <trkpt lat="47.58294" lon="-2.32184">
        <ele>37</ele>
        <time>2025-01-16T14:23:07Z</time>
      </trkpt>
      <trkpt lat="47.58295" lon="-2.32183">
        <ele>36.9</ele>
        <time>2025-01-16T14:23:08Z</time>
      </trkpt>
      <trkpt lat="47.58295" lon="-2.32182">
        <ele>37</ele>
        <time>2025-01-16T14:23:09Z</time>
      </trkpt>
      <trkpt lat="47.58296" lon="-2.3218">
        <ele>36.9</ele>
        <time>2025-01-16T14:23:10Z</time>
      </trkpt>
      <trkpt lat="47.58296" lon="-2.32179">
        <ele>36.9</ele>
        <time>2025-01-16T14:23:11Z</time>
      </trkpt>
      <trkpt lat="47.58297" lon="-2.32177">
        <ele>36.9</ele>
        <time>2025-01-16T14:23:12Z</time>
      </trkpt>
      <trkpt lat="47.58298" lon="-2.32176">
        <ele>36.8</ele>
        <time>2025-01-16T14:23:13Z</time>
      </trkpt>
      <trkpt lat="47.58298" lon="-2.32176">
        <ele>36.8</ele>
        <time>2025-01-16T14:23:14Z</time>
      </trkpt>
      <trkpt lat="47.58299" lon="-2.32175">
        <ele>36.6</ele>
        <time>2025-01-16T14:23:15Z</time>
      </trkpt>
      <trkpt lat="47.583" lon="-2.32175">
        <ele>36.5</ele>
        <time>2025-01-16T14:23:16Z</time>
      </trkpt>
      <trkpt lat="47.58301" lon="-2.32175">
        <ele>36.4</ele>
        <time>2025-01-16T14:23:17Z</time>
      </trkpt>
      <trkpt lat="47.58302" lon="-2.32174">
        <ele>36.2</ele>
        <time>2025-01-16T14:23:18Z</time>
      </trkpt>
      <trkpt lat="47.58303" lon="-2.32174">
        <ele>36.1</ele>
        <time>2025-01-16T14:23:19Z</time>
      </trkpt>
      <trkpt lat="47.58304" lon="-2.32174">
        <ele>36</ele>
        <time>2025-01-16T14:23:20Z</time>
      </trkpt>
      <trkpt lat="47.58305" lon="-2.32174">
        <ele>35.8</ele>
        <time>2025-01-16T14:23:21Z</time>
      </trkpt>
      <trkpt lat="47.58306" lon="-2.32174">
        <ele>35.7</ele>
        <time>2025-01-16T14:23:22Z</time>
      </trkpt>
      <trkpt lat="47.58307" lon="-2.32174">
        <ele>35.5</ele>
        <time>2025-01-16T14:23:23Z</time>
      </trkpt>
      <trkpt lat="47.58308" lon="-2.32174">
        <ele>35.3</ele>
        <time>2025-01-16T14:23:24Z</time>
      </trkpt>
      <trkpt lat="47.58309" lon="-2.32175">
        <ele>35.1</ele>
        <time>2025-01-16T14:23:25Z</time>
      </trkpt>
      <trkpt lat="47.58309" lon="-2.32175">
        <ele>35.1</ele>
        <time>2025-01-16T14:23:26Z</time>
      </trkpt>
      <trkpt lat="47.5831" lon="-2.32175">
        <ele>34.9</ele>
        <time>2025-01-16T14:23:27Z</time>
      </trkpt>
      <trkpt lat="47.58311" lon="-2.32175">
        <ele>34.7</ele>
        <time>2025-01-16T14:23:28Z</time>
      </trkpt>
      <trkpt lat="47.58312" lon="-2.32175">
        <ele>34.5</ele>
        <time>2025-01-16T14:23:29Z</time>
      </trkpt>
      <trkpt lat="47.58313" lon="-2.32175">
        <ele>34.4</ele>
        <time>2025-01-16T14:23:30Z</time>
      </trkpt>
      <trkpt lat="47.58314" lon="-2.32175">
        <ele>34.2</ele>
        <time>2025-01-16T14:23:31Z</time>
      </trkpt>
      <trkpt lat="47.58315" lon="-2.32175">
        <ele>34</ele>
        <time>2025-01-16T14:23:32Z</time>
      </trkpt>
      <trkpt lat="47.58316" lon="-2.32175">
        <ele>33.8</ele>
        <time>2025-01-16T14:23:33Z</time>
      </trkpt>
      <trkpt lat="47.58318" lon="-2.32175">
        <ele>33.5</ele>
        <time>2025-01-16T14:23:34Z</time>
      </trkpt>
      <trkpt lat="47.58319" lon="-2.32175">
        <ele>33.3</ele>
        <time>2025-01-16T14:23:35Z</time>
      </trkpt>
      <trkpt lat="47.5832" lon="-2.32175">
        <ele>33.1</ele>
        <time>2025-01-16T14:23:36Z</time>
      </trkpt>
      <trkpt lat="47.58321" lon="-2.32175">
        <ele>32.9</ele>
        <time>2025-01-16T14:23:37Z</time>
      </trkpt>
      <trkpt lat="47.58322" lon="-2.32174">
        <ele>32.8</ele>
        <time>2025-01-16T14:23:38Z</time>
      </trkpt>
      <trkpt lat="47.58323" lon="-2.32174">
        <ele>32.6</ele>
        <time>2025-01-16T14:23:39Z</time>
      </trkpt>
      <trkpt lat="47.58325" lon="-2.32173">
        <ele>32.3</ele>
        <time>2025-01-16T14:23:40Z</time>
      </trkpt>
      <trkpt lat="47.58326" lon="-2.32173">
        <ele>32.1</ele>
        <time>2025-01-16T14:23:41Z</time>
      </trkpt>
      <trkpt lat="47.58327" lon="-2.32173">
        <ele>31.9</ele>
        <time>2025-01-16T14:23:42Z</time>
      </trkpt>
      <trkpt lat="47.58328" lon="-2.32172">
        <ele>31.8</ele>
        <time>2025-01-16T14:23:43Z</time>
      </trkpt>
      <trkpt lat="47.58328" lon="-2.32172">
        <ele>31.8</ele>
        <time>2025-01-16T14:23:44Z</time>
      </trkpt>
      <trkpt lat="47.58328" lon="-2.32172">
        <ele>31.8</ele>
        <time>2025-01-16T14:23:45Z</time>
      </trkpt>
      <trkpt lat="47.5833" lon="-2.32171">
        <ele>31.4</ele>
        <time>2025-01-16T14:23:46Z</time>
      </trkpt>
      <trkpt lat="47.5833" lon="-2.3217">
        <ele>31.5</ele>
        <time>2025-01-16T14:23:47Z</time>
      </trkpt>
      <trkpt lat="47.58332" lon="-2.3217">
        <ele>31.1</ele>
        <time>2025-01-16T14:23:48Z</time>
      </trkpt>
      <trkpt lat="47.58333" lon="-2.32169">
        <ele>31</ele>
        <time>2025-01-16T14:23:49Z</time>
      </trkpt>
      <trkpt lat="47.58334" lon="-2.32168">
        <ele>30.9</ele>
        <time>2025-01-16T14:23:50Z</time>
      </trkpt>
      <trkpt lat="47.58336" lon="-2.32168">
        <ele>30.6</ele>
        <time>2025-01-16T14:23:51Z</time>
      </trkpt>
      <trkpt lat="47.58337" lon="-2.32167">
        <ele>30.5</ele>
        <time>2025-01-16T14:23:52Z</time>
      </trkpt>
      <trkpt lat="47.58338" lon="-2.32165">
        <ele>30.4</ele>
        <time>2025-01-16T14:23:53Z</time>
      </trkpt>
      <trkpt lat="47.58339" lon="-2.32164">
        <ele>30.3</ele>
        <time>2025-01-16T14:23:54Z</time>
      </trkpt>
      <trkpt lat="47.5834" lon="-2.32162">
        <ele>30.2</ele>
        <time>2025-01-16T14:23:55Z</time>
      </trkpt>
      <trkpt lat="47.58341" lon="-2.32161">
        <ele>30</ele>
        <time>2025-01-16T14:23:56Z</time>
      </trkpt>
      <trkpt lat="47.58341" lon="-2.32159">
        <ele>30.1</ele>
        <time>2025-01-16T14:23:57Z</time>
      </trkpt>
      <trkpt lat="47.58341" lon="-2.32157">
        <ele>30.1</ele>
        <time>2025-01-16T14:23:58Z</time>
      </trkpt>
      <trkpt lat="47.58341" lon="-2.32156">
        <ele>30.2</ele>
        <time>2025-01-16T14:23:59Z</time>
      </trkpt>
      <trkpt lat="47.58341" lon="-2.32154">
        <ele>30.2</ele>
        <time>2025-01-16T14:24:00Z</time>
      </trkpt>
      <trkpt lat="47.58341" lon="-2.32152">
        <ele>30.3</ele>
        <time>2025-01-16T14:24:01Z</time>
      </trkpt>
      <trkpt lat="47.5834" lon="-2.3215">
        <ele>30.5</ele>
        <time>2025-01-16T14:24:02Z</time>
      </trkpt>
      <trkpt lat="47.5834" lon="-2.32148">
        <ele>30.6</ele>
        <time>2025-01-16T14:24:03Z</time>
      </trkpt>
      <trkpt lat="47.5834" lon="-2.32146">
        <ele>30.6</ele>
        <time>2025-01-16T14:24:04Z</time>
      </trkpt>
      <trkpt lat="47.58339" lon="-2.32145">
        <ele>30.8</ele>
        <time>2025-01-16T14:24:05Z</time>
      </trkpt>
      <trkpt lat="47.5834" lon="-2.32143">
        <ele>30.7</ele>
        <time>2025-01-16T14:24:06Z</time>
      </trkpt>
      <trkpt lat="47.5834" lon="-2.32141">
        <ele>30.7</ele>
        <time>2025-01-16T14:24:07Z</time>
      </trkpt>
      <trkpt lat="47.5834" lon="-2.3214">
        <ele>30.8</ele>
        <time>2025-01-16T14:24:08Z</time>
      </trkpt>
      <trkpt lat="47.5834" lon="-2.32138">
        <ele>30.8</ele>
        <time>2025-01-16T14:24:09Z</time>
      </trkpt>
      <trkpt lat="47.58341" lon="-2.32137">
        <ele>30.6</ele>
        <time>2025-01-16T14:24:10Z</time>
      </trkpt>
      <trkpt lat="47.58341" lon="-2.32135">
        <ele>30.5</ele>
        <time>2025-01-16T14:24:11Z</time>
      </trkpt>
      <trkpt lat="47.5834" lon="-2.32133">
        <ele>30.6</ele>
        <time>2025-01-16T14:24:12Z</time>
      </trkpt>
      <trkpt lat="47.5834" lon="-2.32131">
        <ele>30.6</ele>
        <time>2025-01-16T14:24:13Z</time>
      </trkpt>
      <trkpt lat="47.5834" lon="-2.3213">
        <ele>30.6</ele>
        <time>2025-01-16T14:24:14Z</time>
      </trkpt>
      <trkpt lat="47.5834" lon="-2.32128">
        <ele>30.5</ele>
        <time>2025-01-16T14:24:15Z</time>
      </trkpt>
      <trkpt lat="47.58339" lon="-2.32127">
        <ele>30.6</ele>
        <time>2025-01-16T14:24:16Z</time>
      </trkpt>
      <trkpt lat="47.58339" lon="-2.32126">
        <ele>30.6</ele>
        <time>2025-01-16T14:24:17Z</time>
      </trkpt>
      <trkpt lat="47.58339" lon="-2.32125">
        <ele>30.6</ele>
        <time>2025-01-16T14:24:18Z</time>
      </trkpt>
      <trkpt lat="47.58339" lon="-2.32123">
        <ele>30.5</ele>
        <time>2025-01-16T14:24:19Z</time>
      </trkpt>
      <trkpt lat="47.58339" lon="-2.32122">
        <ele>30.5</ele>
        <time>2025-01-16T14:24:20Z</time>
      </trkpt>
      <trkpt lat="47.58339" lon="-2.3212">
        <ele>30.4</ele>
        <time>2025-01-16T14:24:21Z</time>
      </trkpt>
      <trkpt lat="47.58339" lon="-2.32118">
        <ele>30.4</ele>
        <time>2025-01-16T14:24:22Z</time>
      </trkpt>
      <trkpt lat="47.58339" lon="-2.32116">
        <ele>30.3</ele>
        <time>2025-01-16T14:24:23Z</time>
      </trkpt>
      <trkpt lat="47.58339" lon="-2.32114">
        <ele>30.3</ele>
        <time>2025-01-16T14:24:24Z</time>
      </trkpt>
      <trkpt lat="47.58339" lon="-2.32113">
        <ele>30.2</ele>
        <time>2025-01-16T14:24:25Z</time>
      </trkpt>
      <trkpt lat="47.58338" lon="-2.32112">
        <ele>30.4</ele>
        <time>2025-01-16T14:24:26Z</time>
      </trkpt>
      <trkpt lat="47.58338" lon="-2.3211">
        <ele>30.3</ele>
        <time>2025-01-16T14:24:27Z</time>
      </trkpt>
      <trkpt lat="47.58338" lon="-2.32108">
        <ele>30.3</ele>
        <time>2025-01-16T14:24:28Z</time>
      </trkpt>
      <trkpt lat="47.58338" lon="-2.32106">
        <ele>30.3</ele>
        <time>2025-01-16T14:24:29Z</time>
      </trkpt>
      <trkpt lat="47.58338" lon="-2.32105">
        <ele>30.3</ele>
        <time>2025-01-16T14:24:30Z</time>
      </trkpt>
      <trkpt lat="47.58337" lon="-2.32102">
        <ele>30.5</ele>
        <time>2025-01-16T14:24:31Z</time>
      </trkpt>
      <trkpt lat="47.58337" lon="-2.32101">
        <ele>30.5</ele>
        <time>2025-01-16T14:24:32Z</time>
      </trkpt>
      <trkpt lat="47.58337" lon="-2.32099">
        <ele>30.5</ele>
        <time>2025-01-16T14:24:33Z</time>
      </trkpt>
      <trkpt lat="47.58337" lon="-2.32097">
        <ele>30.5</ele>
        <time>2025-01-16T14:24:34Z</time>
      </trkpt>
      <trkpt lat="47.58337" lon="-2.32095">
        <ele>30.5</ele>
        <time>2025-01-16T14:24:35Z</time>
      </trkpt>
      <trkpt lat="47.58337" lon="-2.32093">
        <ele>30.5</ele>
        <time>2025-01-16T14:24:36Z</time>
      </trkpt>
      <trkpt lat="47.58336" lon="-2.32092">
        <ele>30.6</ele>
        <time>2025-01-16T14:24:37Z</time>
      </trkpt>
      <trkpt lat="47.58336" lon="-2.3209">
        <ele>30.6</ele>
        <time>2025-01-16T14:24:38Z</time>
      </trkpt>
      <trkpt lat="47.58336" lon="-2.32088">
        <ele>30.6</ele>
        <time>2025-01-16T14:24:39Z</time>
      </trkpt>
      <trkpt lat="47.58336" lon="-2.32087">
        <ele>30.6</ele>
        <time>2025-01-16T14:24:40Z</time>
      </trkpt>
      <trkpt lat="47.58336" lon="-2.32085">
        <ele>30.6</ele>
        <time>2025-01-16T14:24:41Z</time>
      </trkpt>
      <trkpt lat="47.58336" lon="-2.32084">
        <ele>30.6</ele>
        <time>2025-01-16T14:24:42Z</time>
      </trkpt>
      <trkpt lat="47.58336" lon="-2.32083">
        <ele>30.6</ele>
        <time>2025-01-16T14:24:43Z</time>
      </trkpt>
      <trkpt lat="47.58337" lon="-2.32082">
        <ele>30.5</ele>
        <time>2025-01-16T14:24:44Z</time>
      </trkpt>
      <trkpt lat="47.58336" lon="-2.3208">
        <ele>30.6</ele>
        <time>2025-01-16T14:24:45Z</time>
      </trkpt>
      <trkpt lat="47.58336" lon="-2.32079">
        <ele>30.6</ele>
        <time>2025-01-16T14:24:46Z</time>
      </trkpt>
      <trkpt lat="47.58336" lon="-2.32077">
        <ele>30.6</ele>
        <time>2025-01-16T14:24:47Z</time>
      </trkpt>
      <trkpt lat="47.58335" lon="-2.32074">
        <ele>30.8</ele>
        <time>2025-01-16T14:24:48Z</time>
      </trkpt>
      <trkpt lat="47.58335" lon="-2.32072">
        <ele>30.8</ele>
        <time>2025-01-16T14:24:49Z</time>
      </trkpt>
      <trkpt lat="47.58335" lon="-2.3207">
        <ele>30.8</ele>
        <time>2025-01-16T14:24:50Z</time>
      </trkpt>
      <trkpt lat="47.58334" lon="-2.32068">
        <ele>30.9</ele>
        <time>2025-01-16T14:24:51Z</time>
      </trkpt>
      <trkpt lat="47.58334" lon="-2.32067">
        <ele>30.9</ele>
        <time>2025-01-16T14:24:52Z</time>
      </trkpt>
      <trkpt lat="47.58333" lon="-2.32065">
        <ele>31</ele>
        <time>2025-01-16T14:24:53Z</time>
      </trkpt>
      <trkpt lat="47.58333" lon="-2.32063">
        <ele>31</ele>
        <time>2025-01-16T14:24:54Z</time>
      </trkpt>
      <trkpt lat="47.58334" lon="-2.32061">
        <ele>30.9</ele>
        <time>2025-01-16T14:24:55Z</time>
      </trkpt>
      <trkpt lat="47.58334" lon="-2.3206">
        <ele>30.9</ele>
        <time>2025-01-16T14:24:56Z</time>
      </trkpt>
      <trkpt lat="47.58335" lon="-2.32059">
        <ele>30.8</ele>
        <time>2025-01-16T14:24:57Z</time>
      </trkpt>
      <trkpt lat="47.58336" lon="-2.32058">
        <ele>30.6</ele>
        <time>2025-01-16T14:24:58Z</time>
      </trkpt>
      <trkpt lat="47.58337" lon="-2.32056">
        <ele>30.5</ele>
        <time>2025-01-16T14:24:59Z</time>
      </trkpt>
      <trkpt lat="47.58338" lon="-2.32055">
        <ele>30.4</ele>
        <time>2025-01-16T14:25:00Z</time>
      </trkpt>
      <trkpt lat="47.58339" lon="-2.32053">
        <ele>30.6</ele>
        <time>2025-01-16T14:25:01Z</time>
      </trkpt>
      <trkpt lat="47.58339" lon="-2.32052">
        <ele>30.7</ele>
        <time>2025-01-16T14:25:02Z</time>
      </trkpt>
      <trkpt lat="47.58341" lon="-2.3205">
        <ele>30.7</ele>
        <time>2025-01-16T14:25:03Z</time>
      </trkpt>
      <trkpt lat="47.58342" lon="-2.32049">
        <ele>30.6</ele>
        <time>2025-01-16T14:25:04Z</time>
      </trkpt>
      <trkpt lat="47.58343" lon="-2.32048">
        <ele>30.6</ele>
        <time>2025-01-16T14:25:05Z</time>
      </trkpt>
      <trkpt lat="47.58343" lon="-2.32047">
        <ele>30.7</ele>
        <time>2025-01-16T14:25:06Z</time>
      </trkpt>
      <trkpt lat="47.58344" lon="-2.32045">
        <ele>30.8</ele>
        <time>2025-01-16T14:25:07Z</time>
      </trkpt>
      <trkpt lat="47.58345" lon="-2.32044">
        <ele>30.7</ele>
        <time>2025-01-16T14:25:08Z</time>
      </trkpt>
      <trkpt lat="47.58346" lon="-2.32044">
        <ele>30.5</ele>
        <time>2025-01-16T14:25:09Z</time>
      </trkpt>
      <trkpt lat="47.58347" lon="-2.32044">
        <ele>30.3</ele>
        <time>2025-01-16T14:25:10Z</time>
      </trkpt>
      <trkpt lat="47.58348" lon="-2.32043">
        <ele>30.2</ele>
        <time>2025-01-16T14:25:11Z</time>
      </trkpt>
      <trkpt lat="47.58349" lon="-2.32042">
        <ele>30.1</ele>
        <time>2025-01-16T14:25:12Z</time>
      </trkpt>
      <trkpt lat="47.58349" lon="-2.32041">
        <ele>30.2</ele>
        <time>2025-01-16T14:25:13Z</time>
      </trkpt>
      <trkpt lat="47.5835" lon="-2.32041">
        <ele>30</ele>
        <time>2025-01-16T14:25:14Z</time>
      </trkpt>
      <trkpt lat="47.5835" lon="-2.3204">
        <ele>30.1</ele>
        <time>2025-01-16T14:25:15Z</time>
      </trkpt>
      <trkpt lat="47.58351" lon="-2.3204">
        <ele>29.8</ele>
        <time>2025-01-16T14:25:16Z</time>
      </trkpt>
      <trkpt lat="47.58352" lon="-2.32039">
        <ele>29.7</ele>
        <time>2025-01-16T14:25:17Z</time>
      </trkpt>
      <trkpt lat="47.58353" lon="-2.32038">
        <ele>29.5</ele>
        <time>2025-01-16T14:25:18Z</time>
      </trkpt>
      <trkpt lat="47.58354" lon="-2.32037">
        <ele>29.4</ele>
        <time>2025-01-16T14:25:19Z</time>
      </trkpt>
      <trkpt lat="47.58355" lon="-2.32036">
        <ele>29.2</ele>
        <time>2025-01-16T14:25:20Z</time>
      </trkpt>
      <trkpt lat="47.58355" lon="-2.32035">
        <ele>29.3</ele>
        <time>2025-01-16T14:25:21Z</time>
      </trkpt>
      <trkpt lat="47.58357" lon="-2.32034">
        <ele>28.8</ele>
        <time>2025-01-16T14:25:22Z</time>
      </trkpt>
      <trkpt lat="47.58358" lon="-2.32033">
        <ele>28.6</ele>
        <time>2025-01-16T14:25:23Z</time>
      </trkpt>
      <trkpt lat="47.58359" lon="-2.32032">
        <ele>28.4</ele>
        <time>2025-01-16T14:25:24Z</time>
      </trkpt>
      <trkpt lat="47.5836" lon="-2.32031">
        <ele>28.2</ele>
        <time>2025-01-16T14:25:25Z</time>
      </trkpt>
      <trkpt lat="47.5836" lon="-2.32028">
        <ele>28.3</ele>
        <time>2025-01-16T14:25:26Z</time>
      </trkpt>
      <trkpt lat="47.58361" lon="-2.32027">
        <ele>28</ele>
        <time>2025-01-16T14:25:27Z</time>
      </trkpt>
      <trkpt lat="47.58362" lon="-2.32025">
        <ele>27.8</ele>
        <time>2025-01-16T14:25:28Z</time>
      </trkpt>
      <trkpt lat="47.58363" lon="-2.32023">
        <ele>27.6</ele>
        <time>2025-01-16T14:25:29Z</time>
      </trkpt>
      <trkpt lat="47.58364" lon="-2.32021">
        <ele>27.5</ele>
        <time>2025-01-16T14:25:30Z</time>
      </trkpt>
      <trkpt lat="47.58364" lon="-2.3202">
        <ele>27.4</ele>
        <time>2025-01-16T14:25:31Z</time>
      </trkpt>
      <trkpt lat="47.58365" lon="-2.32018">
        <ele>27.3</ele>
        <time>2025-01-16T14:25:32Z</time>
      </trkpt>
      <trkpt lat="47.58365" lon="-2.32016">
        <ele>27.2</ele>
        <time>2025-01-16T14:25:33Z</time>
      </trkpt>
      <trkpt lat="47.58365" lon="-2.32014">
        <ele>27.2</ele>
        <time>2025-01-16T14:25:34Z</time>
      </trkpt>
      <trkpt lat="47.58365" lon="-2.32012">
        <ele>27.1</ele>
        <time>2025-01-16T14:25:35Z</time>
      </trkpt>
      <trkpt lat="47.58364" lon="-2.3201">
        <ele>27.1</ele>
        <time>2025-01-16T14:25:36Z</time>
      </trkpt>
      <trkpt lat="47.58364" lon="-2.32008">
        <ele>27.1</ele>
        <time>2025-01-16T14:25:37Z</time>
      </trkpt>
      <trkpt lat="47.58365" lon="-2.32006">
        <ele>26.9</ele>
        <time>2025-01-16T14:25:38Z</time>
      </trkpt>
      <trkpt lat="47.58365" lon="-2.32004">
        <ele>26.8</ele>
        <time>2025-01-16T14:25:39Z</time>
      </trkpt>
      <trkpt lat="47.58365" lon="-2.32003">
        <ele>26.8</ele>
        <time>2025-01-16T14:25:40Z</time>
      </trkpt>
      <trkpt lat="47.58364" lon="-2.32002">
        <ele>26.9</ele>
        <time>2025-01-16T14:25:41Z</time>
      </trkpt>
      <trkpt lat="47.58365" lon="-2.32">
        <ele>26.7</ele>
        <time>2025-01-16T14:25:42Z</time>
      </trkpt>
      <trkpt lat="47.58364" lon="-2.31998">
        <ele>26.8</ele>
        <time>2025-01-16T14:25:43Z</time>
      </trkpt>
      <trkpt lat="47.58364" lon="-2.31996">
        <ele>26.8</ele>
        <time>2025-01-16T14:25:44Z</time>
      </trkpt>
      <trkpt lat="47.58364" lon="-2.31995">
        <ele>26.8</ele>
        <time>2025-01-16T14:25:45Z</time>
      </trkpt>
      <trkpt lat="47.58364" lon="-2.31993">
        <ele>26.8</ele>
        <time>2025-01-16T14:25:46Z</time>
      </trkpt>
      <trkpt lat="47.58364" lon="-2.31991">
        <ele>26.8</ele>
        <time>2025-01-16T14:25:47Z</time>
      </trkpt>
      <trkpt lat="47.58364" lon="-2.3199">
        <ele>26.8</ele>
        <time>2025-01-16T14:25:48Z</time>
      </trkpt>
      <trkpt lat="47.58364" lon="-2.31989">
        <ele>26.8</ele>
        <time>2025-01-16T14:25:49Z</time>
      </trkpt>
      <trkpt lat="47.58364" lon="-2.31988">
        <ele>26.8</ele>
        <time>2025-01-16T14:25:50Z</time>
      </trkpt>
      <trkpt lat="47.58364" lon="-2.31986">
        <ele>26.8</ele>
        <time>2025-01-16T14:25:51Z</time>
      </trkpt>
      <trkpt lat="47.58364" lon="-2.31984">
        <ele>26.8</ele>
        <time>2025-01-16T14:25:52Z</time>
      </trkpt>
      <trkpt lat="47.58363" lon="-2.31983">
        <ele>26.9</ele>
        <time>2025-01-16T14:25:53Z</time>
      </trkpt>
      <trkpt lat="47.58363" lon="-2.31982">
        <ele>26.9</ele>
        <time>2025-01-16T14:25:54Z</time>
      </trkpt>
      <trkpt lat="47.58363" lon="-2.31981">
        <ele>26.9</ele>
        <time>2025-01-16T14:25:55Z</time>
      </trkpt>
      <trkpt lat="47.58363" lon="-2.3198">
        <ele>26.9</ele>
        <time>2025-01-16T14:25:56Z</time>
      </trkpt>
      <trkpt lat="47.58363" lon="-2.31978">
        <ele>26.9</ele>
        <time>2025-01-16T14:25:57Z</time>
      </trkpt>
      <trkpt lat="47.58363" lon="-2.31976">
        <ele>26.9</ele>
        <time>2025-01-16T14:25:58Z</time>
      </trkpt>
      <trkpt lat="47.58363" lon="-2.31974">
        <ele>26.9</ele>
        <time>2025-01-16T14:25:59Z</time>
      </trkpt>
      <trkpt lat="47.58362" lon="-2.31973">
        <ele>26.9</ele>
        <time>2025-01-16T14:26:00Z</time>
      </trkpt>
      <trkpt lat="47.58362" lon="-2.31971">
        <ele>26.9</ele>
        <time>2025-01-16T14:26:01Z</time>
      </trkpt>
      <trkpt lat="47.58362" lon="-2.3197">
        <ele>26.9</ele>
        <time>2025-01-16T14:26:02Z</time>
      </trkpt>
      <trkpt lat="47.58362" lon="-2.31968">
        <ele>26.9</ele>
        <time>2025-01-16T14:26:03Z</time>
      </trkpt>
      <trkpt lat="47.58362" lon="-2.31966">
        <ele>26.9</ele>
        <time>2025-01-16T14:26:04Z</time>
      </trkpt>
      <trkpt lat="47.58362" lon="-2.31965">
        <ele>26.9</ele>
        <time>2025-01-16T14:26:05Z</time>
      </trkpt>
      <trkpt lat="47.58362" lon="-2.31963">
        <ele>26.9</ele>
        <time>2025-01-16T14:26:06Z</time>
      </trkpt>
      <trkpt lat="47.58362" lon="-2.31961">
        <ele>26.9</ele>
        <time>2025-01-16T14:26:07Z</time>
      </trkpt>
      <trkpt lat="47.58361" lon="-2.31959">
        <ele>27</ele>
        <time>2025-01-16T14:26:08Z</time>
      </trkpt>
      <trkpt lat="47.58362" lon="-2.31957">
        <ele>26.9</ele>
        <time>2025-01-16T14:26:09Z</time>
      </trkpt>
      <trkpt lat="47.58362" lon="-2.31956">
        <ele>26.9</ele>
        <time>2025-01-16T14:26:10Z</time>
      </trkpt>
      <trkpt lat="47.58362" lon="-2.31954">
        <ele>26.9</ele>
        <time>2025-01-16T14:26:11Z</time>
      </trkpt>
      <trkpt lat="47.58362" lon="-2.31953">
        <ele>26.9</ele>
        <time>2025-01-16T14:26:12Z</time>
      </trkpt>
      <trkpt lat="47.58362" lon="-2.31951">
        <ele>26.9</ele>
        <time>2025-01-16T14:26:13Z</time>
      </trkpt>
      <trkpt lat="47.58363" lon="-2.31949">
        <ele>26.9</ele>
        <time>2025-01-16T14:26:14Z</time>
      </trkpt>
      <trkpt lat="47.58363" lon="-2.31948">
        <ele>26.9</ele>
        <time>2025-01-16T14:26:15Z</time>
      </trkpt>
      <trkpt lat="47.58363" lon="-2.31947">
        <ele>26.9</ele>
        <time>2025-01-16T14:26:16Z</time>
      </trkpt>
      <trkpt lat="47.58363" lon="-2.31945">
        <ele>26.9</ele>
        <time>2025-01-16T14:26:17Z</time>
      </trkpt>
      <trkpt lat="47.58364" lon="-2.31943">
        <ele>26.8</ele>
        <time>2025-01-16T14:26:18Z</time>
      </trkpt>
      <trkpt lat="47.58364" lon="-2.31942">
        <ele>26.8</ele>
        <time>2025-01-16T14:26:19Z</time>
      </trkpt>
      <trkpt lat="47.58365" lon="-2.3194">
        <ele>26.7</ele>
        <time>2025-01-16T14:26:20Z</time>
      </trkpt>
      <trkpt lat="47.58365" lon="-2.31938">
        <ele>26.7</ele>
        <time>2025-01-16T14:26:21Z</time>
      </trkpt>
      <trkpt lat="47.58366" lon="-2.31937">
        <ele>26.6</ele>
        <time>2025-01-16T14:26:22Z</time>
      </trkpt>
      <trkpt lat="47.58366" lon="-2.31935">
        <ele>26.6</ele>
        <time>2025-01-16T14:26:23Z</time>
      </trkpt>
      <trkpt lat="47.58366" lon="-2.31934">
        <ele>26.6</ele>
        <time>2025-01-16T14:26:24Z</time>
      </trkpt>
      <trkpt lat="47.58366" lon="-2.31932">
        <ele>26.6</ele>
        <time>2025-01-16T14:26:25Z</time>
      </trkpt>
      <trkpt lat="47.58366" lon="-2.31931">
        <ele>26.6</ele>
        <time>2025-01-16T14:26:26Z</time>
      </trkpt>
      <trkpt lat="47.58366" lon="-2.31929">
        <ele>26.6</ele>
        <time>2025-01-16T14:26:27Z</time>
      </trkpt>
      <trkpt lat="47.58367" lon="-2.31928">
        <ele>26.6</ele>
        <time>2025-01-16T14:26:28Z</time>
      </trkpt>
      <trkpt lat="47.58367" lon="-2.31926">
        <ele>26.6</ele>
        <time>2025-01-16T14:26:29Z</time>
      </trkpt>
      <trkpt lat="47.58367" lon="-2.31924">
        <ele>26.6</ele>
        <time>2025-01-16T14:26:30Z</time>
      </trkpt>
      <trkpt lat="47.58368" lon="-2.31921">
        <ele>26.5</ele>
        <time>2025-01-16T14:26:31Z</time>
      </trkpt>
      <trkpt lat="47.58368" lon="-2.3192">
        <ele>26.5</ele>
        <time>2025-01-16T14:26:32Z</time>
      </trkpt>
      <trkpt lat="47.58369" lon="-2.31918">
        <ele>26.4</ele>
        <time>2025-01-16T14:26:33Z</time>
      </trkpt>
      <trkpt lat="47.58369" lon="-2.31916">
        <ele>26.4</ele>
        <time>2025-01-16T14:26:34Z</time>
      </trkpt>
      <trkpt lat="47.5837" lon="-2.31914">
        <ele>26.4</ele>
        <time>2025-01-16T14:26:35Z</time>
      </trkpt>
      <trkpt lat="47.5837" lon="-2.31913">
        <ele>26.4</ele>
        <time>2025-01-16T14:26:36Z</time>
      </trkpt>
      <trkpt lat="47.5837" lon="-2.31912">
        <ele>26.4</ele>
        <time>2025-01-16T14:26:37Z</time>
      </trkpt>
      <trkpt lat="47.5837" lon="-2.3191">
        <ele>26.4</ele>
        <time>2025-01-16T14:26:38Z</time>
      </trkpt>
      <trkpt lat="47.5837" lon="-2.31908">
        <ele>26.5</ele>
        <time>2025-01-16T14:26:39Z</time>
      </trkpt>
      <trkpt lat="47.5837" lon="-2.31906">
        <ele>26.5</ele>
        <time>2025-01-16T14:26:40Z</time>
      </trkpt>
      <trkpt lat="47.58371" lon="-2.31904">
        <ele>26.4</ele>
        <time>2025-01-16T14:26:41Z</time>
      </trkpt>
      <trkpt lat="47.58371" lon="-2.31903">
        <ele>26.4</ele>
        <time>2025-01-16T14:26:42Z</time>
      </trkpt>
      <trkpt lat="47.58371" lon="-2.31902">
        <ele>26.4</ele>
        <time>2025-01-16T14:26:43Z</time>
      </trkpt>
      <trkpt lat="47.58371" lon="-2.31901">
        <ele>26.5</ele>
        <time>2025-01-16T14:26:44Z</time>
      </trkpt>
      <trkpt lat="47.58372" lon="-2.31899">
        <ele>26.4</ele>
        <time>2025-01-16T14:26:45Z</time>
      </trkpt>
      <trkpt lat="47.58372" lon="-2.31898">
        <ele>26.4</ele>
        <time>2025-01-16T14:26:46Z</time>
      </trkpt>
      <trkpt lat="47.58372" lon="-2.31896">
        <ele>26.4</ele>
        <time>2025-01-16T14:26:47Z</time>
      </trkpt>
      <trkpt lat="47.58372" lon="-2.31894">
        <ele>26.4</ele>
        <time>2025-01-16T14:26:48Z</time>
      </trkpt>
      <trkpt lat="47.58373" lon="-2.31892">
        <ele>26.3</ele>
        <time>2025-01-16T14:26:49Z</time>
      </trkpt>
      <trkpt lat="47.58373" lon="-2.31891">
        <ele>26.3</ele>
        <time>2025-01-16T14:26:50Z</time>
      </trkpt>
      <trkpt lat="47.58373" lon="-2.31889">
        <ele>26.3</ele>
        <time>2025-01-16T14:26:51Z</time>
      </trkpt>
      <trkpt lat="47.58373" lon="-2.31887">
        <ele>26.4</ele>
        <time>2025-01-16T14:26:52Z</time>
      </trkpt>
      <trkpt lat="47.58373" lon="-2.31885">
        <ele>26.4</ele>
        <time>2025-01-16T14:26:53Z</time>
      </trkpt>
      <trkpt lat="47.58373" lon="-2.31882">
        <ele>26.5</ele>
        <time>2025-01-16T14:26:54Z</time>
      </trkpt>
      <trkpt lat="47.58373" lon="-2.31879">
        <ele>26.6</ele>
        <time>2025-01-16T14:26:55Z</time>
      </trkpt>
      <trkpt lat="47.58373" lon="-2.31875">
        <ele>26.8</ele>
        <time>2025-01-16T14:26:56Z</time>
      </trkpt>
      <trkpt lat="47.58374" lon="-2.31873">
        <ele>26.7</ele>
        <time>2025-01-16T14:26:57Z</time>
      </trkpt>
      <trkpt lat="47.58374" lon="-2.3187">
        <ele>26.8</ele>
        <time>2025-01-16T14:26:58Z</time>
      </trkpt>
      <trkpt lat="47.58375" lon="-2.31868">
        <ele>26.8</ele>
        <time>2025-01-16T14:26:59Z</time>
      </trkpt>
      <trkpt lat="47.58375" lon="-2.31866">
        <ele>26.8</ele>
        <time>2025-01-16T14:27:00Z</time>
      </trkpt>
      <trkpt lat="47.58376" lon="-2.31864">
        <ele>26.8</ele>
        <time>2025-01-16T14:27:01Z</time>
      </trkpt>
      <trkpt lat="47.58377" lon="-2.31862">
        <ele>26.7</ele>
        <time>2025-01-16T14:27:02Z</time>
      </trkpt>
      <trkpt lat="47.58377" lon="-2.3186">
        <ele>26.7</ele>
        <time>2025-01-16T14:27:03Z</time>
      </trkpt>
      <trkpt lat="47.58378" lon="-2.31858">
        <ele>26.5</ele>
        <time>2025-01-16T14:27:04Z</time>
      </trkpt>
      <trkpt lat="47.58379" lon="-2.31856">
        <ele>26.3</ele>
        <time>2025-01-16T14:27:05Z</time>
      </trkpt>
      <trkpt lat="47.58379" lon="-2.31855">
        <ele>26.3</ele>
        <time>2025-01-16T14:27:06Z</time>
      </trkpt>
      <trkpt lat="47.5838" lon="-2.31854">
        <ele>26.1</ele>
        <time>2025-01-16T14:27:07Z</time>
      </trkpt>
      <trkpt lat="47.58381" lon="-2.31853">
        <ele>25.9</ele>
        <time>2025-01-16T14:27:08Z</time>
      </trkpt>
      <trkpt lat="47.58381" lon="-2.31852">
        <ele>25.9</ele>
        <time>2025-01-16T14:27:09Z</time>
      </trkpt>
      <trkpt lat="47.58382" lon="-2.31852">
        <ele>25.7</ele>
        <time>2025-01-16T14:27:10Z</time>
      </trkpt>
      <trkpt lat="47.58383" lon="-2.31852">
        <ele>25.6</ele>
        <time>2025-01-16T14:27:11Z</time>
      </trkpt>
      <trkpt lat="47.58384" lon="-2.31853">
        <ele>25.5</ele>
        <time>2025-01-16T14:27:12Z</time>
      </trkpt>
      <trkpt lat="47.58384" lon="-2.31853">
        <ele>25.5</ele>
        <time>2025-01-16T14:27:13Z</time>
      </trkpt>
      <trkpt lat="47.58385" lon="-2.31854">
        <ele>25.3</ele>
        <time>2025-01-16T14:27:14Z</time>
      </trkpt>
      <trkpt lat="47.58386" lon="-2.31854">
        <ele>25.2</ele>
        <time>2025-01-16T14:27:15Z</time>
      </trkpt>
      <trkpt lat="47.58387" lon="-2.31854">
        <ele>25</ele>
        <time>2025-01-16T14:27:16Z</time>
      </trkpt>
      <trkpt lat="47.58388" lon="-2.31855">
        <ele>24.9</ele>
        <time>2025-01-16T14:27:17Z</time>
      </trkpt>
      <trkpt lat="47.58389" lon="-2.31855">
        <ele>24.8</ele>
        <time>2025-01-16T14:27:18Z</time>
      </trkpt>
      <trkpt lat="47.5839" lon="-2.31856">
        <ele>24.9</ele>
        <time>2025-01-16T14:27:19Z</time>
      </trkpt>
      <trkpt lat="47.58392" lon="-2.31856">
        <ele>25.1</ele>
        <time>2025-01-16T14:27:20Z</time>
      </trkpt>
      <trkpt lat="47.58393" lon="-2.31857">
        <ele>25.2</ele>
        <time>2025-01-16T14:27:21Z</time>
      </trkpt>
      <trkpt lat="47.58394" lon="-2.31857">
        <ele>25.2</ele>
        <time>2025-01-16T14:27:22Z</time>
      </trkpt>
      <trkpt lat="47.58395" lon="-2.31858">
        <ele>25.4</ele>
        <time>2025-01-16T14:27:23Z</time>
      </trkpt>
      <trkpt lat="47.58396" lon="-2.31858">
        <ele>25.4</ele>
        <time>2025-01-16T14:27:24Z</time>
      </trkpt>
      <trkpt lat="47.58397" lon="-2.31859">
        <ele>25.5</ele>
        <time>2025-01-16T14:27:25Z</time>
      </trkpt>
      <trkpt lat="47.58397" lon="-2.31859">
        <ele>25.5</ele>
        <time>2025-01-16T14:27:26Z</time>
      </trkpt>
      <trkpt lat="47.58398" lon="-2.3186">
        <ele>25.6</ele>
        <time>2025-01-16T14:27:27Z</time>
      </trkpt>
      <trkpt lat="47.584" lon="-2.3186">
        <ele>25.8</ele>
        <time>2025-01-16T14:27:28Z</time>
      </trkpt>
      <trkpt lat="47.58401" lon="-2.3186">
        <ele>25.8</ele>
        <time>2025-01-16T14:27:29Z</time>
      </trkpt>
      <trkpt lat="47.58402" lon="-2.3186">
        <ele>25.9</ele>
        <time>2025-01-16T14:27:30Z</time>
      </trkpt>
      <trkpt lat="47.58403" lon="-2.3186">
        <ele>26</ele>
        <time>2025-01-16T14:27:31Z</time>
      </trkpt>
      <trkpt lat="47.58404" lon="-2.31861">
        <ele>26.1</ele>
        <time>2025-01-16T14:27:32Z</time>
      </trkpt>
      <trkpt lat="47.58404" lon="-2.31861">
        <ele>26.1</ele>
        <time>2025-01-16T14:27:33Z</time>
      </trkpt>
      <trkpt lat="47.58405" lon="-2.31862">
        <ele>26.2</ele>
        <time>2025-01-16T14:27:34Z</time>
      </trkpt>
      <trkpt lat="47.58406" lon="-2.31862">
        <ele>26.2</ele>
        <time>2025-01-16T14:27:35Z</time>
      </trkpt>
      <trkpt lat="47.58406" lon="-2.31862">
        <ele>26.2</ele>
        <time>2025-01-16T14:27:36Z</time>
      </trkpt>
      <trkpt lat="47.58407" lon="-2.31862">
        <ele>26.3</ele>
        <time>2025-01-16T14:27:37Z</time>
      </trkpt>
      <trkpt lat="47.58408" lon="-2.31862">
        <ele>26.4</ele>
        <time>2025-01-16T14:27:38Z</time>
      </trkpt>
      <trkpt lat="47.58408" lon="-2.31863">
        <ele>26.4</ele>
        <time>2025-01-16T14:27:39Z</time>
      </trkpt>
      <trkpt lat="47.58409" lon="-2.31863">
        <ele>26.5</ele>
        <time>2025-01-16T14:27:40Z</time>
      </trkpt>
      <trkpt lat="47.58409" lon="-2.31864">
        <ele>26.5</ele>
        <time>2025-01-16T14:27:41Z</time>
      </trkpt>
      <trkpt lat="47.5841" lon="-2.31864">
        <ele>26.6</ele>
        <time>2025-01-16T14:27:42Z</time>
      </trkpt>
      <trkpt lat="47.58409" lon="-2.31864">
        <ele>26.5</ele>
        <time>2025-01-16T14:27:43Z</time>
      </trkpt>
      <trkpt lat="47.58409" lon="-2.31864">
        <ele>26.5</ele>
        <time>2025-01-16T14:27:44Z</time>
      </trkpt>
      <trkpt lat="47.5841" lon="-2.31864">
        <ele>26.6</ele>
        <time>2025-01-16T14:27:45Z</time>
      </trkpt>
      <trkpt lat="47.5841" lon="-2.31864">
        <ele>26.6</ele>
        <time>2025-01-16T14:27:46Z</time>
      </trkpt>
      <trkpt lat="47.5841" lon="-2.31865">
        <ele>26.6</ele>
        <time>2025-01-16T14:27:47Z</time>
      </trkpt>
      <trkpt lat="47.5841" lon="-2.31865">
        <ele>26.6</ele>
        <time>2025-01-16T14:27:48Z</time>
      </trkpt>
      <trkpt lat="47.58411" lon="-2.31865">
        <ele>26.7</ele>
        <time>2025-01-16T14:27:49Z</time>
      </trkpt>
      <trkpt lat="47.58411" lon="-2.31865">
        <ele>26.7</ele>
        <time>2025-01-16T14:27:50Z</time>
      </trkpt>
      <trkpt lat="47.58412" lon="-2.31865">
        <ele>26.8</ele>
        <time>2025-01-16T14:27:51Z</time>
      </trkpt>
      <trkpt lat="47.58413" lon="-2.31865">
        <ele>26.8</ele>
        <time>2025-01-16T14:27:52Z</time>
      </trkpt>
      <trkpt lat="47.58414" lon="-2.31864">
        <ele>26.9</ele>
        <time>2025-01-16T14:27:53Z</time>
      </trkpt>
      <trkpt lat="47.58415" lon="-2.31863">
        <ele>26.9</ele>
        <time>2025-01-16T14:27:54Z</time>
      </trkpt>
      <trkpt lat="47.58417" lon="-2.31863">
        <ele>27.2</ele>
        <time>2025-01-16T14:27:55Z</time>
      </trkpt>
      <trkpt lat="47.58417" lon="-2.31862">
        <ele>27.1</ele>
        <time>2025-01-16T14:27:56Z</time>
      </trkpt>
      <trkpt lat="47.58418" lon="-2.31861">
        <ele>27.4</ele>
        <time>2025-01-16T14:27:57Z</time>
      </trkpt>
      <trkpt lat="47.58418" lon="-2.3186">
        <ele>27.4</ele>
        <time>2025-01-16T14:27:58Z</time>
      </trkpt>
      <trkpt lat="47.58418" lon="-2.3186">
        <ele>27.4</ele>
        <time>2025-01-16T14:27:59Z</time>
      </trkpt>
      <trkpt lat="47.58418" lon="-2.3186">
        <ele>27.4</ele>
        <time>2025-01-16T14:28:00Z</time>
      </trkpt>
      <trkpt lat="47.58419" lon="-2.3186">
        <ele>27.8</ele>
        <time>2025-01-16T14:28:01Z</time>
      </trkpt>
      <trkpt lat="47.58419" lon="-2.3186">
        <ele>27.8</ele>
        <time>2025-01-16T14:28:02Z</time>
      </trkpt>
      <trkpt lat="47.58419" lon="-2.3186">
        <ele>27.8</ele>
        <time>2025-01-16T14:28:03Z</time>
      </trkpt>
      <trkpt lat="47.5842" lon="-2.31859">
        <ele>28.1</ele>
        <time>2025-01-16T14:28:04Z</time>
      </trkpt>
      <trkpt lat="47.5842" lon="-2.31858">
        <ele>28.1</ele>
        <time>2025-01-16T14:28:05Z</time>
      </trkpt>
      <trkpt lat="47.58421" lon="-2.31856">
        <ele>28.4</ele>
        <time>2025-01-16T14:28:06Z</time>
      </trkpt>
      <trkpt lat="47.58422" lon="-2.31855">
        <ele>28.7</ele>
        <time>2025-01-16T14:28:07Z</time>
      </trkpt>
      <trkpt lat="47.58422" lon="-2.31853">
        <ele>28.7</ele>
        <time>2025-01-16T14:28:08Z</time>
      </trkpt>
      <trkpt lat="47.58423" lon="-2.31852">
        <ele>29</ele>
        <time>2025-01-16T14:28:09Z</time>
      </trkpt>
      <trkpt lat="47.58424" lon="-2.3185">
        <ele>29.3</ele>
        <time>2025-01-16T14:28:10Z</time>
      </trkpt>
      <trkpt lat="47.58424" lon="-2.31849">
        <ele>29.3</ele>
        <time>2025-01-16T14:28:11Z</time>
      </trkpt>
      <trkpt lat="47.58424" lon="-2.31848">
        <ele>29.3</ele>
        <time>2025-01-16T14:28:12Z</time>
      </trkpt>
      <trkpt lat="47.58424" lon="-2.31847">
        <ele>29.2</ele>
        <time>2025-01-16T14:28:13Z</time>
      </trkpt>
      <trkpt lat="47.58424" lon="-2.31846">
        <ele>29.2</ele>
        <time>2025-01-16T14:28:14Z</time>
      </trkpt>
      <trkpt lat="47.58424" lon="-2.31845">
        <ele>29.2</ele>
        <time>2025-01-16T14:28:15Z</time>
      </trkpt>
      <trkpt lat="47.58424" lon="-2.31844">
        <ele>29.2</ele>
        <time>2025-01-16T14:28:16Z</time>
      </trkpt>
      <trkpt lat="47.58425" lon="-2.31842">
        <ele>29.5</ele>
        <time>2025-01-16T14:28:17Z</time>
      </trkpt>
      <trkpt lat="47.58425" lon="-2.31841">
        <ele>29.5</ele>
        <time>2025-01-16T14:28:18Z</time>
      </trkpt>
      <trkpt lat="47.58426" lon="-2.3184">
        <ele>29.8</ele>
        <time>2025-01-16T14:28:19Z</time>
      </trkpt>
      <trkpt lat="47.58426" lon="-2.31839">
        <ele>29.8</ele>
        <time>2025-01-16T14:28:20Z</time>
      </trkpt>
      <trkpt lat="47.58427" lon="-2.31838">
        <ele>30</ele>
        <time>2025-01-16T14:28:21Z</time>
      </trkpt>
      <trkpt lat="47.58427" lon="-2.31837">
        <ele>30</ele>
        <time>2025-01-16T14:28:22Z</time>
      </trkpt>
      <trkpt lat="47.58427" lon="-2.31836">
        <ele>30</ele>
        <time>2025-01-16T14:28:23Z</time>
      </trkpt>
      <trkpt lat="47.58428" lon="-2.31835">
        <ele>30.3</ele>
        <time>2025-01-16T14:28:24Z</time>
      </trkpt>
      <trkpt lat="47.58428" lon="-2.31833">
        <ele>30.2</ele>
        <time>2025-01-16T14:28:25Z</time>
      </trkpt>
      <trkpt lat="47.58428" lon="-2.31832">
        <ele>30.2</ele>
        <time>2025-01-16T14:28:26Z</time>
      </trkpt>
      <trkpt lat="47.58428" lon="-2.3183">
        <ele>30.1</ele>
        <time>2025-01-16T14:28:27Z</time>
      </trkpt>
      <trkpt lat="47.58429" lon="-2.31828">
        <ele>30.2</ele>
        <time>2025-01-16T14:28:28Z</time>
      </trkpt>
      <trkpt lat="47.58429" lon="-2.31827">
        <ele>30.1</ele>
        <time>2025-01-16T14:28:29Z</time>
      </trkpt>
      <trkpt lat="47.5843" lon="-2.31826">
        <ele>30.3</ele>
        <time>2025-01-16T14:28:30Z</time>
      </trkpt>
      <trkpt lat="47.5843" lon="-2.31825">
        <ele>30.3</ele>
        <time>2025-01-16T14:28:31Z</time>
      </trkpt>
      <trkpt lat="47.5843" lon="-2.31824">
        <ele>30.2</ele>
        <time>2025-01-16T14:28:32Z</time>
      </trkpt>
      <trkpt lat="47.58431" lon="-2.31823">
        <ele>30.4</ele>
        <time>2025-01-16T14:28:33Z</time>
      </trkpt>
      <trkpt lat="47.58432" lon="-2.31822">
        <ele>30.5</ele>
        <time>2025-01-16T14:28:34Z</time>
      </trkpt>
      <trkpt lat="47.58433" lon="-2.31821">
        <ele>30.7</ele>
        <time>2025-01-16T14:28:35Z</time>
      </trkpt>
      <trkpt lat="47.58434" lon="-2.3182">
        <ele>30.8</ele>
        <time>2025-01-16T14:28:36Z</time>
      </trkpt>
      <trkpt lat="47.58434" lon="-2.31819">
        <ele>30.7</ele>
        <time>2025-01-16T14:28:37Z</time>
      </trkpt>
      <trkpt lat="47.58435" lon="-2.31818">
        <ele>30.8</ele>
        <time>2025-01-16T14:28:38Z</time>
      </trkpt>
      <trkpt lat="47.58436" lon="-2.31817">
        <ele>30.9</ele>
        <time>2025-01-16T14:28:39Z</time>
      </trkpt>
      <trkpt lat="47.58437" lon="-2.31817">
        <ele>31.1</ele>
        <time>2025-01-16T14:28:40Z</time>
      </trkpt>
      <trkpt lat="47.58438" lon="-2.31815">
        <ele>31.1</ele>
        <time>2025-01-16T14:28:41Z</time>
      </trkpt>
      <trkpt lat="47.58438" lon="-2.31814">
        <ele>31</ele>
        <time>2025-01-16T14:28:42Z</time>
      </trkpt>
      <trkpt lat="47.58439" lon="-2.31813">
        <ele>31.1</ele>
        <time>2025-01-16T14:28:43Z</time>
      </trkpt>
      <trkpt lat="47.5844" lon="-2.31812">
        <ele>31.1</ele>
        <time>2025-01-16T14:28:44Z</time>
      </trkpt>
      <trkpt lat="47.58441" lon="-2.31811">
        <ele>31.2</ele>
        <time>2025-01-16T14:28:45Z</time>
      </trkpt>
      <trkpt lat="47.58442" lon="-2.31811">
        <ele>31.4</ele>
        <time>2025-01-16T14:28:46Z</time>
      </trkpt>
      <trkpt lat="47.58443" lon="-2.3181">
        <ele>31.4</ele>
        <time>2025-01-16T14:28:47Z</time>
      </trkpt>
      <trkpt lat="47.58444" lon="-2.31809">
        <ele>31.4</ele>
        <time>2025-01-16T14:28:48Z</time>
      </trkpt>
      <trkpt lat="47.58444" lon="-2.31808">
        <ele>31.3</ele>
        <time>2025-01-16T14:28:49Z</time>
      </trkpt>
      <trkpt lat="47.58445" lon="-2.31807">
        <ele>31.3</ele>
        <time>2025-01-16T14:28:50Z</time>
      </trkpt>
      <trkpt lat="47.58446" lon="-2.31806">
        <ele>31.4</ele>
        <time>2025-01-16T14:28:51Z</time>
      </trkpt>
      <trkpt lat="47.58446" lon="-2.31805">
        <ele>31.3</ele>
        <time>2025-01-16T14:28:52Z</time>
      </trkpt>
      <trkpt lat="47.58447" lon="-2.31805">
        <ele>31.5</ele>
        <time>2025-01-16T14:28:53Z</time>
      </trkpt>
      <trkpt lat="47.58448" lon="-2.31805">
        <ele>31.7</ele>
        <time>2025-01-16T14:28:54Z</time>
      </trkpt>
      <trkpt lat="47.58449" lon="-2.31804">
        <ele>31.8</ele>
        <time>2025-01-16T14:28:55Z</time>
      </trkpt>
      <trkpt lat="47.5845" lon="-2.31803">
        <ele>32</ele>
        <time>2025-01-16T14:28:56Z</time>
      </trkpt>
      <trkpt lat="47.5845" lon="-2.31803">
        <ele>32</ele>
        <time>2025-01-16T14:28:57Z</time>
      </trkpt>
      <trkpt lat="47.58452" lon="-2.31802">
        <ele>32.3</ele>
        <time>2025-01-16T14:28:58Z</time>
      </trkpt>
      <trkpt lat="47.58453" lon="-2.31802">
        <ele>32.5</ele>
        <time>2025-01-16T14:28:59Z</time>
      </trkpt>
      <trkpt lat="47.58454" lon="-2.31801">
        <ele>32.6</ele>
        <time>2025-01-16T14:29:00Z</time>
      </trkpt>
      <trkpt lat="47.58456" lon="-2.31801">
        <ele>33</ele>
        <time>2025-01-16T14:29:01Z</time>
      </trkpt>
      <trkpt lat="47.58457" lon="-2.318">
        <ele>33</ele>
        <time>2025-01-16T14:29:02Z</time>
      </trkpt>
      <trkpt lat="47.58458" lon="-2.31799">
        <ele>33.1</ele>
        <time>2025-01-16T14:29:03Z</time>
      </trkpt>
      <trkpt lat="47.5846" lon="-2.31799">
        <ele>33.5</ele>
        <time>2025-01-16T14:29:04Z</time>
      </trkpt>
      <trkpt lat="47.5846" lon="-2.31799">
        <ele>33.5</ele>
        <time>2025-01-16T14:29:05Z</time>
      </trkpt>
      <trkpt lat="47.58461" lon="-2.31799">
        <ele>33.7</ele>
        <time>2025-01-16T14:29:06Z</time>
      </trkpt>
      <trkpt lat="47.58461" lon="-2.31798">
        <ele>33.5</ele>
        <time>2025-01-16T14:29:07Z</time>
      </trkpt>
      <trkpt lat="47.58461" lon="-2.31798">
        <ele>33.5</ele>
        <time>2025-01-16T14:29:08Z</time>
      </trkpt>
      <trkpt lat="47.58462" lon="-2.31798">
        <ele>33.7</ele>
        <time>2025-01-16T14:29:09Z</time>
      </trkpt>
      <trkpt lat="47.58462" lon="-2.31798">
        <ele>33.7</ele>
        <time>2025-01-16T14:29:10Z</time>
      </trkpt>
      <trkpt lat="47.58462" lon="-2.31797">
        <ele>33.6</ele>
        <time>2025-01-16T14:29:11Z</time>
      </trkpt>
      <trkpt lat="47.58462" lon="-2.31797">
        <ele>33.6</ele>
        <time>2025-01-16T14:29:12Z</time>
      </trkpt>
      <trkpt lat="47.58463" lon="-2.31797">
        <ele>33.8</ele>
        <time>2025-01-16T14:29:13Z</time>
      </trkpt>
      <trkpt lat="47.58464" lon="-2.31797">
        <ele>34</ele>
        <time>2025-01-16T14:29:14Z</time>
      </trkpt>
      <trkpt lat="47.58465" lon="-2.31797">
        <ele>34.1</ele>
        <time>2025-01-16T14:29:15Z</time>
      </trkpt>
      <trkpt lat="47.58466" lon="-2.31796">
        <ele>34.2</ele>
        <time>2025-01-16T14:29:16Z</time>
      </trkpt>
      <trkpt lat="47.58467" lon="-2.31796">
        <ele>34.3</ele>
        <time>2025-01-16T14:29:17Z</time>
      </trkpt>
      <trkpt lat="47.58469" lon="-2.31795">
        <ele>34.5</ele>
        <time>2025-01-16T14:29:18Z</time>
      </trkpt>
      <trkpt lat="47.5847" lon="-2.31794">
        <ele>34.5</ele>
        <time>2025-01-16T14:29:19Z</time>
      </trkpt>
      <trkpt lat="47.58472" lon="-2.31793">
        <ele>34.7</ele>
        <time>2025-01-16T14:29:20Z</time>
      </trkpt>
      <trkpt lat="47.58473" lon="-2.31792">
        <ele>34.7</ele>
        <time>2025-01-16T14:29:21Z</time>
      </trkpt>
      <trkpt lat="47.58475" lon="-2.31792">
        <ele>35</ele>
        <time>2025-01-16T14:29:22Z</time>
      </trkpt>
      <trkpt lat="47.58476" lon="-2.31791">
        <ele>35</ele>
        <time>2025-01-16T14:29:23Z</time>
      </trkpt>
      <trkpt lat="47.58478" lon="-2.3179">
        <ele>35.1</ele>
        <time>2025-01-16T14:29:24Z</time>
      </trkpt>
      <trkpt lat="47.58478" lon="-2.3179">
        <ele>35.1</ele>
        <time>2025-01-16T14:29:25Z</time>
      </trkpt>
      <trkpt lat="47.58479" lon="-2.31789">
        <ele>35.1</ele>
        <time>2025-01-16T14:29:26Z</time>
      </trkpt>
      <trkpt lat="47.5848" lon="-2.31789">
        <ele>35.3</ele>
        <time>2025-01-16T14:29:27Z</time>
      </trkpt>
      <trkpt lat="47.58481" lon="-2.31788">
        <ele>35.3</ele>
        <time>2025-01-16T14:29:28Z</time>
      </trkpt>
      <trkpt lat="47.58482" lon="-2.31788">
        <ele>35.5</ele>
        <time>2025-01-16T14:29:29Z</time>
      </trkpt>
      <trkpt lat="47.58483" lon="-2.31787">
        <ele>35.5</ele>
        <time>2025-01-16T14:29:30Z</time>
      </trkpt>
      <trkpt lat="47.58484" lon="-2.31786">
        <ele>35.5</ele>
        <time>2025-01-16T14:29:31Z</time>
      </trkpt>
      <trkpt lat="47.58485" lon="-2.31786">
        <ele>35.6</ele>
        <time>2025-01-16T14:29:32Z</time>
      </trkpt>
      <trkpt lat="47.58486" lon="-2.31785">
        <ele>35.7</ele>
        <time>2025-01-16T14:29:33Z</time>
      </trkpt>
      <trkpt lat="47.58487" lon="-2.31784">
        <ele>35.7</ele>
        <time>2025-01-16T14:29:34Z</time>
      </trkpt>
      <trkpt lat="47.58488" lon="-2.31783">
        <ele>35.7</ele>
        <time>2025-01-16T14:29:35Z</time>
      </trkpt>
      <trkpt lat="47.5849" lon="-2.31783">
        <ele>36</ele>
        <time>2025-01-16T14:29:36Z</time>
      </trkpt>
      <trkpt lat="47.58491" lon="-2.31782">
        <ele>36</ele>
        <time>2025-01-16T14:29:37Z</time>
      </trkpt>
      <trkpt lat="47.58492" lon="-2.31782">
        <ele>36.2</ele>
        <time>2025-01-16T14:29:38Z</time>
      </trkpt>
      <trkpt lat="47.58493" lon="-2.31781">
        <ele>36.2</ele>
        <time>2025-01-16T14:29:39Z</time>
      </trkpt>
      <trkpt lat="47.58495" lon="-2.3178">
        <ele>36.4</ele>
        <time>2025-01-16T14:29:40Z</time>
      </trkpt>
      <trkpt lat="47.58496" lon="-2.3178">
        <ele>36.6</ele>
        <time>2025-01-16T14:29:41Z</time>
      </trkpt>
      <trkpt lat="47.58498" lon="-2.31779">
        <ele>36.8</ele>
        <time>2025-01-16T14:29:42Z</time>
      </trkpt>
      <trkpt lat="47.58499" lon="-2.31778">
        <ele>36.9</ele>
        <time>2025-01-16T14:29:43Z</time>
      </trkpt>
      <trkpt lat="47.58501" lon="-2.31777">
        <ele>37</ele>
        <time>2025-01-16T14:29:44Z</time>
      </trkpt>
      <trkpt lat="47.58502" lon="-2.31776">
        <ele>37</ele>
        <time>2025-01-16T14:29:45Z</time>
      </trkpt>
      <trkpt lat="47.58504" lon="-2.31775">
        <ele>37.1</ele>
        <time>2025-01-16T14:29:46Z</time>
      </trkpt>
      <trkpt lat="47.58505" lon="-2.31774">
        <ele>37.1</ele>
        <time>2025-01-16T14:29:47Z</time>
      </trkpt>
      <trkpt lat="47.58506" lon="-2.31773">
        <ele>37.1</ele>
        <time>2025-01-16T14:29:48Z</time>
      </trkpt>
      <trkpt lat="47.58507" lon="-2.31772">
        <ele>37.1</ele>
        <time>2025-01-16T14:29:49Z</time>
      </trkpt>
      <trkpt lat="47.58508" lon="-2.31771">
        <ele>37</ele>
        <time>2025-01-16T14:29:50Z</time>
      </trkpt>
      <trkpt lat="47.58509" lon="-2.3177">
        <ele>37</ele>
        <time>2025-01-16T14:29:51Z</time>
      </trkpt>
      <trkpt lat="47.58509" lon="-2.31769">
        <ele>36.8</ele>
        <time>2025-01-16T14:29:52Z</time>
      </trkpt>
      <trkpt lat="47.58509" lon="-2.31768">
        <ele>36.7</ele>
        <time>2025-01-16T14:29:53Z</time>
      </trkpt>
      <trkpt lat="47.5851" lon="-2.31768">
        <ele>36.8</ele>
        <time>2025-01-16T14:29:54Z</time>
      </trkpt>
      <trkpt lat="47.58511" lon="-2.31767">
        <ele>36.7</ele>
        <time>2025-01-16T14:29:55Z</time>
      </trkpt>
      <trkpt lat="47.58511" lon="-2.31766">
        <ele>36.6</ele>
        <time>2025-01-16T14:29:56Z</time>
      </trkpt>
      <trkpt lat="47.58512" lon="-2.31766">
        <ele>36.7</ele>
        <time>2025-01-16T14:29:57Z</time>
      </trkpt>
      <trkpt lat="47.58513" lon="-2.31766">
        <ele>36.8</ele>
        <time>2025-01-16T14:29:58Z</time>
      </trkpt>
      <trkpt lat="47.58514" lon="-2.31765">
        <ele>36.7</ele>
        <time>2025-01-16T14:29:59Z</time>
      </trkpt>
      <trkpt lat="47.58514" lon="-2.31765">
        <ele>36.7</ele>
        <time>2025-01-16T14:30:00Z</time>
      </trkpt>
      <trkpt lat="47.58515" lon="-2.31764">
        <ele>36.6</ele>
        <time>2025-01-16T14:30:01Z</time>
      </trkpt>
      <trkpt lat="47.58516" lon="-2.31764">
        <ele>36.7</ele>
        <time>2025-01-16T14:30:02Z</time>
      </trkpt>
      <trkpt lat="47.58516" lon="-2.31764">
        <ele>36.7</ele>
        <time>2025-01-16T14:30:03Z</time>
      </trkpt>
      <trkpt lat="47.58516" lon="-2.31764">
        <ele>36.7</ele>
        <time>2025-01-16T14:30:04Z</time>
      </trkpt>
      <trkpt lat="47.58516" lon="-2.31764">
        <ele>36.7</ele>
        <time>2025-01-16T14:30:05Z</time>
      </trkpt>
      <trkpt lat="47.58517" lon="-2.31764">
        <ele>36.9</ele>
        <time>2025-01-16T14:30:06Z</time>
      </trkpt>
      <trkpt lat="47.58518" lon="-2.31763">
        <ele>36.8</ele>
        <time>2025-01-16T14:30:07Z</time>
      </trkpt>
      <trkpt lat="47.58519" lon="-2.31763">
        <ele>36.9</ele>
        <time>2025-01-16T14:30:08Z</time>
      </trkpt>
      <trkpt lat="47.5852" lon="-2.31762">
        <ele>36.8</ele>
        <time>2025-01-16T14:30:09Z</time>
      </trkpt>
      <trkpt lat="47.58522" lon="-2.31762">
        <ele>37</ele>
        <time>2025-01-16T14:30:10Z</time>
      </trkpt>
      <trkpt lat="47.58522" lon="-2.31762">
        <ele>37</ele>
        <time>2025-01-16T14:30:11Z</time>
      </trkpt>
      <trkpt lat="47.58523" lon="-2.31761">
        <ele>36.9</ele>
        <time>2025-01-16T14:30:12Z</time>
      </trkpt>
      <trkpt lat="47.58524" lon="-2.31761">
        <ele>37</ele>
        <time>2025-01-16T14:30:13Z</time>
      </trkpt>
      <trkpt lat="47.58524" lon="-2.3176">
        <ele>36.8</ele>
        <time>2025-01-16T14:30:14Z</time>
      </trkpt>
      <trkpt lat="47.58525" lon="-2.3176">
        <ele>36.9</ele>
        <time>2025-01-16T14:30:15Z</time>
      </trkpt>
      <trkpt lat="47.58527" lon="-2.31759">
        <ele>36.9</ele>
        <time>2025-01-16T14:30:16Z</time>
      </trkpt>
      <trkpt lat="47.58529" lon="-2.31759">
        <ele>37</ele>
        <time>2025-01-16T14:30:17Z</time>
      </trkpt>
      <trkpt lat="47.58531" lon="-2.31758">
        <ele>36.9</ele>
        <time>2025-01-16T14:30:18Z</time>
      </trkpt>
      <trkpt lat="47.58535" lon="-2.31758">
        <ele>37.2</ele>
        <time>2025-01-16T14:30:19Z</time>
      </trkpt>
      <trkpt lat="47.58536" lon="-2.31758">
        <ele>37.2</ele>
        <time>2025-01-16T14:30:20Z</time>
      </trkpt>
      <trkpt lat="47.58538" lon="-2.31758">
        <ele>37.4</ele>
        <time>2025-01-16T14:30:21Z</time>
      </trkpt>
      <trkpt lat="47.5854" lon="-2.31758">
        <ele>37.5</ele>
        <time>2025-01-16T14:30:22Z</time>
      </trkpt>
      <trkpt lat="47.58541" lon="-2.31758">
        <ele>37.5</ele>
        <time>2025-01-16T14:30:23Z</time>
      </trkpt>
      <trkpt lat="47.58543" lon="-2.31758">
        <ele>37.7</ele>
        <time>2025-01-16T14:30:24Z</time>
      </trkpt>
      <trkpt lat="47.58544" lon="-2.31758">
        <ele>37.7</ele>
        <time>2025-01-16T14:30:25Z</time>
      </trkpt>
      <trkpt lat="47.58546" lon="-2.31758">
        <ele>37.9</ele>
        <time>2025-01-16T14:30:26Z</time>
      </trkpt>
      <trkpt lat="47.58547" lon="-2.31758">
        <ele>37.9</ele>
        <time>2025-01-16T14:30:27Z</time>
      </trkpt>
      <trkpt lat="47.58549" lon="-2.31759">
        <ele>38.2</ele>
        <time>2025-01-16T14:30:28Z</time>
      </trkpt>
      <trkpt lat="47.5855" lon="-2.31758">
        <ele>38.1</ele>
        <time>2025-01-16T14:30:29Z</time>
      </trkpt>
      <trkpt lat="47.58551" lon="-2.31759">
        <ele>38.3</ele>
        <time>2025-01-16T14:30:30Z</time>
      </trkpt>
      <trkpt lat="47.58552" lon="-2.31759">
        <ele>38.4</ele>
        <time>2025-01-16T14:30:31Z</time>
      </trkpt>
      <trkpt lat="47.58553" lon="-2.31759">
        <ele>38.5</ele>
        <time>2025-01-16T14:30:32Z</time>
      </trkpt>
      <trkpt lat="47.58554" lon="-2.3176">
        <ele>38.7</ele>
        <time>2025-01-16T14:30:33Z</time>
      </trkpt>
      <trkpt lat="47.58555" lon="-2.3176">
        <ele>38.8</ele>
        <time>2025-01-16T14:30:34Z</time>
      </trkpt>
      <trkpt lat="47.58556" lon="-2.31761">
        <ele>39</ele>
        <time>2025-01-16T14:30:35Z</time>
      </trkpt>
      <trkpt lat="47.58557" lon="-2.31761">
        <ele>39</ele>
        <time>2025-01-16T14:30:36Z</time>
      </trkpt>
      <trkpt lat="47.58557" lon="-2.31762">
        <ele>39.2</ele>
        <time>2025-01-16T14:30:37Z</time>
      </trkpt>
      <trkpt lat="47.58558" lon="-2.31762">
        <ele>39.2</ele>
        <time>2025-01-16T14:30:38Z</time>
      </trkpt>
      <trkpt lat="47.5856" lon="-2.31762">
        <ele>39.2</ele>
        <time>2025-01-16T14:30:39Z</time>
      </trkpt>
      <trkpt lat="47.58561" lon="-2.31763">
        <ele>39.4</ele>
        <time>2025-01-16T14:30:40Z</time>
      </trkpt>
      <trkpt lat="47.58562" lon="-2.31763">
        <ele>39.4</ele>
        <time>2025-01-16T14:30:41Z</time>
      </trkpt>
      <trkpt lat="47.58564" lon="-2.31763">
        <ele>39.4</ele>
        <time>2025-01-16T14:30:42Z</time>
      </trkpt>
      <trkpt lat="47.58565" lon="-2.31764">
        <ele>39.5</ele>
        <time>2025-01-16T14:30:43Z</time>
      </trkpt>
      <trkpt lat="47.58566" lon="-2.31764">
        <ele>39.5</ele>
        <time>2025-01-16T14:30:44Z</time>
      </trkpt>
      <trkpt lat="47.58567" lon="-2.31764">
        <ele>39.5</ele>
        <time>2025-01-16T14:30:45Z</time>
      </trkpt>
      <trkpt lat="47.58568" lon="-2.31765">
        <ele>39.7</ele>
        <time>2025-01-16T14:30:46Z</time>
      </trkpt>
      <trkpt lat="47.58569" lon="-2.31765">
        <ele>39.7</ele>
        <time>2025-01-16T14:30:47Z</time>
      </trkpt>
      <trkpt lat="47.5857" lon="-2.31766">
        <ele>39.8</ele>
        <time>2025-01-16T14:30:48Z</time>
      </trkpt>
      <trkpt lat="47.58571" lon="-2.31766">
        <ele>39.8</ele>
        <time>2025-01-16T14:30:49Z</time>
      </trkpt>
      <trkpt lat="47.58571" lon="-2.31766">
        <ele>39.8</ele>
        <time>2025-01-16T14:30:50Z</time>
      </trkpt>
      <trkpt lat="47.58572" lon="-2.31767">
        <ele>39.9</ele>
        <time>2025-01-16T14:30:51Z</time>
      </trkpt>
      <trkpt lat="47.58573" lon="-2.31767">
        <ele>39.9</ele>
        <time>2025-01-16T14:30:52Z</time>
      </trkpt>
      <trkpt lat="47.58575" lon="-2.31768">
        <ele>40</ele>
        <time>2025-01-16T14:30:53Z</time>
      </trkpt>
      <trkpt lat="47.58576" lon="-2.31768">
        <ele>40</ele>
        <time>2025-01-16T14:30:54Z</time>
      </trkpt>
      <trkpt lat="47.58577" lon="-2.31769">
        <ele>40.1</ele>
        <time>2025-01-16T14:30:55Z</time>
      </trkpt>
      <trkpt lat="47.58578" lon="-2.31769">
        <ele>40.1</ele>
        <time>2025-01-16T14:30:56Z</time>
      </trkpt>
      <trkpt lat="47.58579" lon="-2.31769">
        <ele>40.1</ele>
        <time>2025-01-16T14:30:57Z</time>
      </trkpt>
      <trkpt lat="47.5858" lon="-2.31769">
        <ele>40.1</ele>
        <time>2025-01-16T14:30:58Z</time>
      </trkpt>
      <trkpt lat="47.58581" lon="-2.31769">
        <ele>40.1</ele>
        <time>2025-01-16T14:30:59Z</time>
      </trkpt>
      <trkpt lat="47.58583" lon="-2.3177">
        <ele>40.2</ele>
        <time>2025-01-16T14:31:00Z</time>
      </trkpt>
      <trkpt lat="47.58583" lon="-2.3177">
        <ele>40.2</ele>
        <time>2025-01-16T14:31:01Z</time>
      </trkpt>
      <trkpt lat="47.58584" lon="-2.3177">
        <ele>40.2</ele>
        <time>2025-01-16T14:31:02Z</time>
      </trkpt>
      <trkpt lat="47.58585" lon="-2.3177">
        <ele>40.2</ele>
        <time>2025-01-16T14:31:03Z</time>
      </trkpt>
      <trkpt lat="47.58586" lon="-2.3177">
        <ele>40.3</ele>
        <time>2025-01-16T14:31:04Z</time>
      </trkpt>
      <trkpt lat="47.58587" lon="-2.3177">
        <ele>40.3</ele>
        <time>2025-01-16T14:31:05Z</time>
      </trkpt>
      <trkpt lat="47.58589" lon="-2.3177">
        <ele>40.4</ele>
        <time>2025-01-16T14:31:06Z</time>
      </trkpt>
      <trkpt lat="47.5859" lon="-2.31771">
        <ele>40.5</ele>
        <time>2025-01-16T14:31:07Z</time>
      </trkpt>
      <trkpt lat="47.58592" lon="-2.3177">
        <ele>40.5</ele>
        <time>2025-01-16T14:31:08Z</time>
      </trkpt>
      <trkpt lat="47.58593" lon="-2.3177">
        <ele>40.5</ele>
        <time>2025-01-16T14:31:09Z</time>
      </trkpt>
      <trkpt lat="47.58594" lon="-2.3177">
        <ele>40.5</ele>
        <time>2025-01-16T14:31:10Z</time>
      </trkpt>
      <trkpt lat="47.58595" lon="-2.3177">
        <ele>40.6</ele>
        <time>2025-01-16T14:31:11Z</time>
      </trkpt>
      <trkpt lat="47.58596" lon="-2.3177">
        <ele>40.6</ele>
        <time>2025-01-16T14:31:12Z</time>
      </trkpt>
      <trkpt lat="47.58597" lon="-2.3177">
        <ele>40.7</ele>
        <time>2025-01-16T14:31:13Z</time>
      </trkpt>
      <trkpt lat="47.58598" lon="-2.3177">
        <ele>40.7</ele>
        <time>2025-01-16T14:31:14Z</time>
      </trkpt>
      <trkpt lat="47.58599" lon="-2.3177">
        <ele>40.7</ele>
        <time>2025-01-16T14:31:15Z</time>
      </trkpt>
      <trkpt lat="47.586" lon="-2.3177">
        <ele>40.8</ele>
        <time>2025-01-16T14:31:16Z</time>
      </trkpt>
      <trkpt lat="47.58601" lon="-2.3177">
        <ele>40.8</ele>
        <time>2025-01-16T14:31:17Z</time>
      </trkpt>
      <trkpt lat="47.58601" lon="-2.31769">
        <ele>40.7</ele>
        <time>2025-01-16T14:31:18Z</time>
      </trkpt>
      <trkpt lat="47.58602" lon="-2.31769">
        <ele>40.7</ele>
        <time>2025-01-16T14:31:19Z</time>
      </trkpt>
      <trkpt lat="47.58603" lon="-2.31769">
        <ele>40.8</ele>
        <time>2025-01-16T14:31:20Z</time>
      </trkpt>
      <trkpt lat="47.58604" lon="-2.3177">
        <ele>40.9</ele>
        <time>2025-01-16T14:31:21Z</time>
      </trkpt>
      <trkpt lat="47.58605" lon="-2.3177">
        <ele>40.9</ele>
        <time>2025-01-16T14:31:22Z</time>
      </trkpt>
      <trkpt lat="47.58606" lon="-2.31769">
        <ele>40.9</ele>
        <time>2025-01-16T14:31:23Z</time>
      </trkpt>
      <trkpt lat="47.58607" lon="-2.31769">
        <ele>40.9</ele>
        <time>2025-01-16T14:31:24Z</time>
      </trkpt>
      <trkpt lat="47.58608" lon="-2.31768">
        <ele>40.8</ele>
        <time>2025-01-16T14:31:25Z</time>
      </trkpt>
      <trkpt lat="47.5861" lon="-2.31768">
        <ele>40.9</ele>
        <time>2025-01-16T14:31:26Z</time>
      </trkpt>
      <trkpt lat="47.58611" lon="-2.31768">
        <ele>40.9</ele>
        <time>2025-01-16T14:31:27Z</time>
      </trkpt>
      <trkpt lat="47.58612" lon="-2.31768">
        <ele>41</ele>
        <time>2025-01-16T14:31:28Z</time>
      </trkpt>
      <trkpt lat="47.58613" lon="-2.31769">
        <ele>41.1</ele>
        <time>2025-01-16T14:31:29Z</time>
      </trkpt>
      <trkpt lat="47.58614" lon="-2.31769">
        <ele>41.1</ele>
        <time>2025-01-16T14:31:30Z</time>
      </trkpt>
      <trkpt lat="47.58615" lon="-2.31769">
        <ele>41.1</ele>
        <time>2025-01-16T14:31:31Z</time>
      </trkpt>
      <trkpt lat="47.58616" lon="-2.3177">
        <ele>41.3</ele>
        <time>2025-01-16T14:31:32Z</time>
      </trkpt>
      <trkpt lat="47.58617" lon="-2.3177">
        <ele>41.3</ele>
        <time>2025-01-16T14:31:33Z</time>
      </trkpt>
      <trkpt lat="47.58618" lon="-2.31771">
        <ele>41.5</ele>
        <time>2025-01-16T14:31:34Z</time>
      </trkpt>
      <trkpt lat="47.58619" lon="-2.31771">
        <ele>41.5</ele>
        <time>2025-01-16T14:31:35Z</time>
      </trkpt>
      <trkpt lat="47.5862" lon="-2.31771">
        <ele>41.5</ele>
        <time>2025-01-16T14:31:36Z</time>
      </trkpt>
      <trkpt lat="47.58621" lon="-2.31772">
        <ele>41.7</ele>
        <time>2025-01-16T14:31:37Z</time>
      </trkpt>
      <trkpt lat="47.58622" lon="-2.31772">
        <ele>41.7</ele>
        <time>2025-01-16T14:31:38Z</time>
      </trkpt>
      <trkpt lat="47.58623" lon="-2.31772">
        <ele>41.7</ele>
        <time>2025-01-16T14:31:39Z</time>
      </trkpt>
      <trkpt lat="47.58624" lon="-2.31772">
        <ele>41.7</ele>
        <time>2025-01-16T14:31:40Z</time>
      </trkpt>
      <trkpt lat="47.58625" lon="-2.31773">
        <ele>41.9</ele>
        <time>2025-01-16T14:31:41Z</time>
      </trkpt>
      <trkpt lat="47.58625" lon="-2.31773">
        <ele>41.9</ele>
        <time>2025-01-16T14:31:42Z</time>
      </trkpt>
      <trkpt lat="47.58626" lon="-2.31774">
        <ele>42.1</ele>
        <time>2025-01-16T14:31:43Z</time>
      </trkpt>
      <trkpt lat="47.58628" lon="-2.31775">
        <ele>42.2</ele>
        <time>2025-01-16T14:31:44Z</time>
      </trkpt>
      <trkpt lat="47.58628" lon="-2.31775">
        <ele>42.2</ele>
        <time>2025-01-16T14:31:45Z</time>
      </trkpt>
      <trkpt lat="47.58629" lon="-2.31775">
        <ele>42.3</ele>
        <time>2025-01-16T14:31:46Z</time>
      </trkpt>
      <trkpt lat="47.5863" lon="-2.31776">
        <ele>42.4</ele>
        <time>2025-01-16T14:31:47Z</time>
      </trkpt>
      <trkpt lat="47.58631" lon="-2.31777">
        <ele>42.6</ele>
        <time>2025-01-16T14:31:48Z</time>
      </trkpt>
      <trkpt lat="47.58633" lon="-2.31777">
        <ele>42.7</ele>
        <time>2025-01-16T14:31:49Z</time>
      </trkpt>
      <trkpt lat="47.58634" lon="-2.31778">
        <ele>42.9</ele>
        <time>2025-01-16T14:31:50Z</time>
      </trkpt>
      <trkpt lat="47.58635" lon="-2.31779">
        <ele>43</ele>
        <time>2025-01-16T14:31:51Z</time>
      </trkpt>
      <trkpt lat="47.58635" lon="-2.3178">
        <ele>43.2</ele>
        <time>2025-01-16T14:31:52Z</time>
      </trkpt>
      <trkpt lat="47.58636" lon="-2.31781">
        <ele>43.3</ele>
        <time>2025-01-16T14:31:53Z</time>
      </trkpt>
      <trkpt lat="47.58637" lon="-2.31782">
        <ele>43.5</ele>
        <time>2025-01-16T14:31:54Z</time>
      </trkpt>
      <trkpt lat="47.58638" lon="-2.31782">
        <ele>43.6</ele>
        <time>2025-01-16T14:31:55Z</time>
      </trkpt>
      <trkpt lat="47.58639" lon="-2.31783">
        <ele>43.7</ele>
        <time>2025-01-16T14:31:56Z</time>
      </trkpt>
      <trkpt lat="47.5864" lon="-2.31784">
        <ele>43.8</ele>
        <time>2025-01-16T14:31:57Z</time>
      </trkpt>
      <trkpt lat="47.58642" lon="-2.31785">
        <ele>43.9</ele>
        <time>2025-01-16T14:31:58Z</time>
      </trkpt>
      <trkpt lat="47.58644" lon="-2.31786">
        <ele>43.9</ele>
        <time>2025-01-16T14:31:59Z</time>
      </trkpt>
      <trkpt lat="47.58645" lon="-2.31786">
        <ele>43.9</ele>
        <time>2025-01-16T14:32:00Z</time>
      </trkpt>
      <trkpt lat="47.58646" lon="-2.31786">
        <ele>43.9</ele>
        <time>2025-01-16T14:32:01Z</time>
      </trkpt>
      <trkpt lat="47.58647" lon="-2.31787">
        <ele>43.9</ele>
        <time>2025-01-16T14:32:02Z</time>
      </trkpt>
      <trkpt lat="47.58649" lon="-2.31787">
        <ele>43.8</ele>
        <time>2025-01-16T14:32:03Z</time>
      </trkpt>
      <trkpt lat="47.58651" lon="-2.31788">
        <ele>43.9</ele>
        <time>2025-01-16T14:32:04Z</time>
      </trkpt>
      <trkpt lat="47.58652" lon="-2.31788">
        <ele>43.8</ele>
        <time>2025-01-16T14:32:05Z</time>
      </trkpt>
      <trkpt lat="47.58654" lon="-2.31788">
        <ele>43.7</ele>
        <time>2025-01-16T14:32:06Z</time>
      </trkpt>
      <trkpt lat="47.58655" lon="-2.31789">
        <ele>43.8</ele>
        <time>2025-01-16T14:32:07Z</time>
      </trkpt>
      <trkpt lat="47.58656" lon="-2.31789">
        <ele>43.8</ele>
        <time>2025-01-16T14:32:08Z</time>
      </trkpt>
      <trkpt lat="47.58658" lon="-2.3179">
        <ele>43.8</ele>
        <time>2025-01-16T14:32:09Z</time>
      </trkpt>
      <trkpt lat="47.58659" lon="-2.31791">
        <ele>43.8</ele>
        <time>2025-01-16T14:32:10Z</time>
      </trkpt>
      <trkpt lat="47.5866" lon="-2.31791">
        <ele>43.8</ele>
        <time>2025-01-16T14:32:11Z</time>
      </trkpt>
      <trkpt lat="47.58661" lon="-2.31792">
        <ele>43.8</ele>
        <time>2025-01-16T14:32:12Z</time>
      </trkpt>
      <trkpt lat="47.58663" lon="-2.31793">
        <ele>43.8</ele>
        <time>2025-01-16T14:32:13Z</time>
      </trkpt>
      <trkpt lat="47.58664" lon="-2.31793">
        <ele>43.8</ele>
        <time>2025-01-16T14:32:14Z</time>
      </trkpt>
      <trkpt lat="47.58665" lon="-2.31793">
        <ele>43.7</ele>
        <time>2025-01-16T14:32:15Z</time>
      </trkpt>
      <trkpt lat="47.58665" lon="-2.31793">
        <ele>43.7</ele>
        <time>2025-01-16T14:32:16Z</time>
      </trkpt>
      <trkpt lat="47.58666" lon="-2.31794">
        <ele>43.8</ele>
        <time>2025-01-16T14:32:17Z</time>
      </trkpt>
      <trkpt lat="47.58667" lon="-2.31795">
        <ele>43.8</ele>
        <time>2025-01-16T14:32:18Z</time>
      </trkpt>
      <trkpt lat="47.58669" lon="-2.31795">
        <ele>43.8</ele>
        <time>2025-01-16T14:32:19Z</time>
      </trkpt>
      <trkpt lat="47.5867" lon="-2.31796">
        <ele>43.8</ele>
        <time>2025-01-16T14:32:20Z</time>
      </trkpt>
      <trkpt lat="47.58671" lon="-2.31796">
        <ele>43.8</ele>
        <time>2025-01-16T14:32:21Z</time>
      </trkpt>
      <trkpt lat="47.58673" lon="-2.31796">
        <ele>43.7</ele>
        <time>2025-01-16T14:32:22Z</time>
      </trkpt>
      <trkpt lat="47.58674" lon="-2.31796">
        <ele>43.7</ele>
        <time>2025-01-16T14:32:23Z</time>
      </trkpt>
      <trkpt lat="47.58675" lon="-2.31796">
        <ele>43.7</ele>
        <time>2025-01-16T14:32:24Z</time>
      </trkpt>
      <trkpt lat="47.58675" lon="-2.31797">
        <ele>43.8</ele>
        <time>2025-01-16T14:32:25Z</time>
      </trkpt>
      <trkpt lat="47.58677" lon="-2.31797">
        <ele>43.7</ele>
        <time>2025-01-16T14:32:26Z</time>
      </trkpt>
      <trkpt lat="47.58678" lon="-2.31797">
        <ele>43.7</ele>
        <time>2025-01-16T14:32:27Z</time>
      </trkpt>
      <trkpt lat="47.58679" lon="-2.31797">
        <ele>43.6</ele>
        <time>2025-01-16T14:32:28Z</time>
      </trkpt>
      <trkpt lat="47.5868" lon="-2.31798">
        <ele>43.7</ele>
        <time>2025-01-16T14:32:29Z</time>
      </trkpt>
      <trkpt lat="47.58682" lon="-2.31798">
        <ele>43.6</ele>
        <time>2025-01-16T14:32:30Z</time>
      </trkpt>
      <trkpt lat="47.58683" lon="-2.31799">
        <ele>43.7</ele>
        <time>2025-01-16T14:32:31Z</time>
      </trkpt>
      <trkpt lat="47.58684" lon="-2.318">
        <ele>43.8</ele>
        <time>2025-01-16T14:32:32Z</time>
      </trkpt>
      <trkpt lat="47.58685" lon="-2.318">
        <ele>43.7</ele>
        <time>2025-01-16T14:32:33Z</time>
      </trkpt>
      <trkpt lat="47.58687" lon="-2.31801">
        <ele>43.8</ele>
        <time>2025-01-16T14:32:34Z</time>
      </trkpt>
      <trkpt lat="47.58688" lon="-2.31801">
        <ele>43.7</ele>
        <time>2025-01-16T14:32:35Z</time>
      </trkpt>
      <trkpt lat="47.58688" lon="-2.31802">
        <ele>43.8</ele>
        <time>2025-01-16T14:32:36Z</time>
      </trkpt>
      <trkpt lat="47.58689" lon="-2.31802">
        <ele>43.8</ele>
        <time>2025-01-16T14:32:37Z</time>
      </trkpt>
      <trkpt lat="47.5869" lon="-2.31803">
        <ele>43.9</ele>
        <time>2025-01-16T14:32:38Z</time>
      </trkpt>
      <trkpt lat="47.5869" lon="-2.31803">
        <ele>43.9</ele>
        <time>2025-01-16T14:32:39Z</time>
      </trkpt>
      <trkpt lat="47.58692" lon="-2.31804">
        <ele>43.9</ele>
        <time>2025-01-16T14:32:40Z</time>
      </trkpt>
      <trkpt lat="47.58693" lon="-2.31804">
        <ele>43.9</ele>
        <time>2025-01-16T14:32:41Z</time>
      </trkpt>
      <trkpt lat="47.58695" lon="-2.31805">
        <ele>43.9</ele>
        <time>2025-01-16T14:32:42Z</time>
      </trkpt>
      <trkpt lat="47.58696" lon="-2.31806">
        <ele>44</ele>
        <time>2025-01-16T14:32:43Z</time>
      </trkpt>
      <trkpt lat="47.58697" lon="-2.31808">
        <ele>44.1</ele>
        <time>2025-01-16T14:32:44Z</time>
      </trkpt>
      <trkpt lat="47.58698" lon="-2.31809">
        <ele>44.1</ele>
        <time>2025-01-16T14:32:45Z</time>
      </trkpt>
      <trkpt lat="47.58698" lon="-2.31811">
        <ele>44.2</ele>
        <time>2025-01-16T14:32:46Z</time>
      </trkpt>
      <trkpt lat="47.58699" lon="-2.31812">
        <ele>44.3</ele>
        <time>2025-01-16T14:32:47Z</time>
      </trkpt>
      <trkpt lat="47.58699" lon="-2.31814">
        <ele>44.4</ele>
        <time>2025-01-16T14:32:48Z</time>
      </trkpt>
      <trkpt lat="47.587" lon="-2.31815">
        <ele>44.4</ele>
        <time>2025-01-16T14:32:49Z</time>
      </trkpt>
      <trkpt lat="47.587" lon="-2.31816">
        <ele>44.5</ele>
        <time>2025-01-16T14:32:50Z</time>
      </trkpt>
      <trkpt lat="47.587" lon="-2.31817">
        <ele>44.5</ele>
        <time>2025-01-16T14:32:51Z</time>
      </trkpt>
      <trkpt lat="47.587" lon="-2.31819">
        <ele>44.7</ele>
        <time>2025-01-16T14:32:52Z</time>
      </trkpt>
      <trkpt lat="47.587" lon="-2.3182">
        <ele>44.7</ele>
        <time>2025-01-16T14:32:53Z</time>
      </trkpt>
      <trkpt lat="47.587" lon="-2.31821">
        <ele>44.8</ele>
        <time>2025-01-16T14:32:54Z</time>
      </trkpt>
      <trkpt lat="47.587" lon="-2.31821">
        <ele>44.8</ele>
        <time>2025-01-16T14:32:55Z</time>
      </trkpt>
      <trkpt lat="47.58701" lon="-2.31822">
        <ele>44.8</ele>
        <time>2025-01-16T14:32:56Z</time>
      </trkpt>
      <trkpt lat="47.58701" lon="-2.31822">
        <ele>44.8</ele>
        <time>2025-01-16T14:32:57Z</time>
      </trkpt>
      <trkpt lat="47.58702" lon="-2.31823">
        <ele>44.8</ele>
        <time>2025-01-16T14:32:58Z</time>
      </trkpt>
      <trkpt lat="47.58703" lon="-2.31823">
        <ele>44.8</ele>
        <time>2025-01-16T14:32:59Z</time>
      </trkpt>
      <trkpt lat="47.58703" lon="-2.31824">
        <ele>44.8</ele>
        <time>2025-01-16T14:33:00Z</time>
      </trkpt>
      <trkpt lat="47.58703" lon="-2.31825">
        <ele>44.9</ele>
        <time>2025-01-16T14:33:01Z</time>
      </trkpt>
      <trkpt lat="47.58704" lon="-2.31826">
        <ele>44.9</ele>
        <time>2025-01-16T14:33:02Z</time>
      </trkpt>
      <trkpt lat="47.58704" lon="-2.31827">
        <ele>44.9</ele>
        <time>2025-01-16T14:33:03Z</time>
      </trkpt>
      <trkpt lat="47.58704" lon="-2.31828">
        <ele>45</ele>
        <time>2025-01-16T14:33:04Z</time>
      </trkpt>
      <trkpt lat="47.58704" lon="-2.31829">
        <ele>45.1</ele>
        <time>2025-01-16T14:33:05Z</time>
      </trkpt>
      <trkpt lat="47.58704" lon="-2.3183">
        <ele>45.1</ele>
        <time>2025-01-16T14:33:06Z</time>
      </trkpt>
      <trkpt lat="47.58704" lon="-2.3183">
        <ele>45.1</ele>
        <time>2025-01-16T14:33:07Z</time>
      </trkpt>
      <trkpt lat="47.58705" lon="-2.31831">
        <ele>45.1</ele>
        <time>2025-01-16T14:33:08Z</time>
      </trkpt>
      <trkpt lat="47.58705" lon="-2.31831">
        <ele>45.1</ele>
        <time>2025-01-16T14:33:09Z</time>
      </trkpt>
      <trkpt lat="47.58706" lon="-2.31831">
        <ele>45</ele>
        <time>2025-01-16T14:33:10Z</time>
      </trkpt>
      <trkpt lat="47.58706" lon="-2.31831">
        <ele>45</ele>
        <time>2025-01-16T14:33:11Z</time>
      </trkpt>
      <trkpt lat="47.58706" lon="-2.31831">
        <ele>45</ele>
        <time>2025-01-16T14:33:12Z</time>
      </trkpt>
      <trkpt lat="47.58706" lon="-2.31831">
        <ele>45</ele>
        <time>2025-01-16T14:33:13Z</time>
      </trkpt>
      <trkpt lat="47.58707" lon="-2.31831">
        <ele>45</ele>
        <time>2025-01-16T14:33:14Z</time>
      </trkpt>
      <trkpt lat="47.58707" lon="-2.31832">
        <ele>45</ele>
        <time>2025-01-16T14:33:15Z</time>
      </trkpt>
      <trkpt lat="47.58708" lon="-2.31832">
        <ele>45</ele>
        <time>2025-01-16T14:33:16Z</time>
      </trkpt>
      <trkpt lat="47.58709" lon="-2.31832">
        <ele>44.9</ele>
        <time>2025-01-16T14:33:17Z</time>
      </trkpt>
      <trkpt lat="47.5871" lon="-2.31833">
        <ele>44.9</ele>
        <time>2025-01-16T14:33:18Z</time>
      </trkpt>
      <trkpt lat="47.5871" lon="-2.31833">
        <ele>44.9</ele>
        <time>2025-01-16T14:33:19Z</time>
      </trkpt>
      <trkpt lat="47.5871" lon="-2.31833">
        <ele>44.9</ele>
        <time>2025-01-16T14:33:20Z</time>
      </trkpt>
      <trkpt lat="47.5871" lon="-2.31833">
        <ele>44.9</ele>
        <time>2025-01-16T14:33:21Z</time>
      </trkpt>
      <trkpt lat="47.5871" lon="-2.31833">
        <ele>44.9</ele>
        <time>2025-01-16T14:33:22Z</time>
      </trkpt>
      <trkpt lat="47.5871" lon="-2.31833">
        <ele>44.9</ele>
        <time>2025-01-16T14:33:23Z</time>
      </trkpt>
      <trkpt lat="47.5871" lon="-2.31833">
        <ele>44.9</ele>
        <time>2025-01-16T14:33:24Z</time>
      </trkpt>
      <trkpt lat="47.5871" lon="-2.31833">
        <ele>44.9</ele>
        <time>2025-01-16T14:33:25Z</time>
      </trkpt>
      <trkpt lat="47.5871" lon="-2.31833">
        <ele>44.9</ele>
        <time>2025-01-16T14:33:26Z</time>
      </trkpt>
      <trkpt lat="47.5871" lon="-2.31833">
        <ele>44.9</ele>
        <time>2025-01-16T14:33:27Z</time>
      </trkpt>
      <trkpt lat="47.5871" lon="-2.31833">
        <ele>44.9</ele>
        <time>2025-01-16T14:33:28Z</time>
      </trkpt>
      <trkpt lat="47.5871" lon="-2.31833">
        <ele>44.9</ele>
        <time>2025-01-16T14:33:29Z</time>
      </trkpt>
      <trkpt lat="47.5871" lon="-2.31833">
        <ele>44.9</ele>
        <time>2025-01-16T14:33:33Z</time>
      </trkpt>
      <trkpt lat="47.58709" lon="-2.31833">
        <ele>44.9</ele>
        <time>2025-01-16T14:33:34Z</time>
      </trkpt>
      <trkpt lat="47.58709" lon="-2.31833">
        <ele>44.9</ele>
        <time>2025-01-16T14:33:35Z</time>
      </trkpt>
      <trkpt lat="47.58709" lon="-2.31833">
        <ele>44.9</ele>
        <time>2025-01-16T14:33:36Z</time>
      </trkpt>
      <trkpt lat="47.58709" lon="-2.31834">
        <ele>45</ele>
        <time>2025-01-16T14:33:37Z</time>
      </trkpt>
      <trkpt lat="47.58709" lon="-2.31834">
        <ele>45</ele>
        <time>2025-01-16T14:33:38Z</time>
      </trkpt>
      <trkpt lat="47.5871" lon="-2.31834">
        <ele>44.9</ele>
        <time>2025-01-16T14:33:39Z</time>
      </trkpt>
      <trkpt lat="47.5871" lon="-2.31833">
        <ele>44.9</ele>
        <time>2025-01-16T14:33:40Z</time>
      </trkpt>
      <trkpt lat="47.5871" lon="-2.31833">
        <ele>44.9</ele>
        <time>2025-01-16T14:33:41Z</time>
      </trkpt>
      <trkpt lat="47.5871" lon="-2.31833">
        <ele>44.9</ele>
        <time>2025-01-16T14:33:42Z</time>
      </trkpt>
      <trkpt lat="47.5871" lon="-2.31833">
        <ele>44.9</ele>
        <time>2025-01-16T14:33:43Z</time>
      </trkpt>
      <trkpt lat="47.5871" lon="-2.31834">
        <ele>44.9</ele>
        <time>2025-01-16T14:33:44Z</time>
      </trkpt>
      <trkpt lat="47.5871" lon="-2.31834">
        <ele>44.9</ele>
        <time>2025-01-16T14:33:48Z</time>
      </trkpt>
      <trkpt lat="47.5871" lon="-2.31834">
        <ele>44.9</ele>
        <time>2025-01-16T14:33:49Z</time>
      </trkpt>
      <trkpt lat="47.5871" lon="-2.31835">
        <ele>45</ele>
        <time>2025-01-16T14:33:50Z</time>
      </trkpt>
      <trkpt lat="47.5871" lon="-2.31835">
        <ele>45</ele>
        <time>2025-01-16T14:33:51Z</time>
      </trkpt>
      <trkpt lat="47.58711" lon="-2.31835">
        <ele>44.9</ele>
        <time>2025-01-16T14:33:52Z</time>
      </trkpt>
      <trkpt lat="47.58711" lon="-2.31835">
        <ele>44.9</ele>
        <time>2025-01-16T14:33:53Z</time>
      </trkpt>
      <trkpt lat="47.58711" lon="-2.31835">
        <ele>44.9</ele>
        <time>2025-01-16T14:33:54Z</time>
      </trkpt>
      <trkpt lat="47.58711" lon="-2.31834">
        <ele>44.8</ele>
        <time>2025-01-16T14:33:55Z</time>
      </trkpt>
      <trkpt lat="47.58711" lon="-2.31834">
        <ele>44.8</ele>
        <time>2025-01-16T14:33:56Z</time>
      </trkpt>
      <trkpt lat="47.58711" lon="-2.31835">
        <ele>44.9</ele>
        <time>2025-01-16T14:33:57Z</time>
      </trkpt>
      <trkpt lat="47.58711" lon="-2.31835">
        <ele>44.9</ele>
        <time>2025-01-16T14:33:58Z</time>
      </trkpt>
      <trkpt lat="47.58711" lon="-2.31835">
        <ele>44.9</ele>
        <time>2025-01-16T14:33:59Z</time>
      </trkpt>
      <trkpt lat="47.58711" lon="-2.31835">
        <ele>44.9</ele>
        <time>2025-01-16T14:34:00Z</time>
      </trkpt>
      <trkpt lat="47.58711" lon="-2.31835">
        <ele>44.9</ele>
        <time>2025-01-16T14:34:01Z</time>
      </trkpt>
      <trkpt lat="47.58711" lon="-2.31835">
        <ele>44.9</ele>
        <time>2025-01-16T14:34:02Z</time>
      </trkpt>
      <trkpt lat="47.58711" lon="-2.31835">
        <ele>44.9</ele>
        <time>2025-01-16T14:34:03Z</time>
      </trkpt>
      <trkpt lat="47.58711" lon="-2.31835">
        <ele>44.9</ele>
        <time>2025-01-16T14:34:04Z</time>
      </trkpt>
      <trkpt lat="47.58711" lon="-2.31835">
        <ele>44.9</ele>
        <time>2025-01-16T14:34:05Z</time>
      </trkpt>
      <trkpt lat="47.58711" lon="-2.31835">
        <ele>44.9</ele>
        <time>2025-01-16T14:34:06Z</time>
      </trkpt>
      <trkpt lat="47.58711" lon="-2.31835">
        <ele>44.9</ele>
        <time>2025-01-16T14:34:07Z</time>
      </trkpt>
      <trkpt lat="47.58711" lon="-2.31835">
        <ele>44.9</ele>
        <time>2025-01-16T14:34:08Z</time>
      </trkpt>
      <trkpt lat="47.58711" lon="-2.31835">
        <ele>44.9</ele>
        <time>2025-01-16T14:34:09Z</time>
      </trkpt>
      <trkpt lat="47.58711" lon="-2.31835">
        <ele>44.9</ele>
        <time>2025-01-16T14:34:10Z</time>
      </trkpt>
      <trkpt lat="47.58711" lon="-2.31835">
        <ele>44.9</ele>
        <time>2025-01-16T14:34:11Z</time>
      </trkpt>
      <trkpt lat="47.58711" lon="-2.31835">
        <ele>44.9</ele>
        <time>2025-01-16T14:34:12Z</time>
      </trkpt>
      <trkpt lat="47.58711" lon="-2.31835">
        <ele>44.9</ele>
        <time>2025-01-16T14:34:13Z</time>
      </trkpt>
      <trkpt lat="47.58711" lon="-2.31835">
        <ele>44.9</ele>
        <time>2025-01-16T14:34:14Z</time>
      </trkpt>
      <trkpt lat="47.58711" lon="-2.31835">
        <ele>44.9</ele>
        <time>2025-01-16T14:34:15Z</time>
      </trkpt>
      <trkpt lat="47.58711" lon="-2.31835">
        <ele>44.9</ele>
        <time>2025-01-16T14:34:16Z</time>
      </trkpt>
      <trkpt lat="47.58711" lon="-2.31835">
        <ele>44.9</ele>
        <time>2025-01-16T14:34:17Z</time>
      </trkpt>
      <trkpt lat="47.58712" lon="-2.31835">
        <ele>44.8</ele>
        <time>2025-01-16T14:34:18Z</time>
      </trkpt>
      <trkpt lat="47.58712" lon="-2.31835">
        <ele>44.8</ele>
        <time>2025-01-16T14:34:19Z</time>
      </trkpt>
      <trkpt lat="47.58712" lon="-2.31835">
        <ele>44.8</ele>
        <time>2025-01-16T14:34:20Z</time>
      </trkpt>
      <trkpt lat="47.58712" lon="-2.31835">
        <ele>44.8</ele>
        <time>2025-01-16T14:34:21Z</time>
      </trkpt>
      <trkpt lat="47.58712" lon="-2.31835">
        <ele>44.8</ele>
        <time>2025-01-16T14:34:22Z</time>
      </trkpt>
      <trkpt lat="47.58712" lon="-2.31835">
        <ele>44.8</ele>
        <time>2025-01-16T14:34:23Z</time>
      </trkpt>
      <trkpt lat="47.58712" lon="-2.31835">
        <ele>44.8</ele>
        <time>2025-01-16T14:34:24Z</time>
      </trkpt>
      <trkpt lat="47.58712" lon="-2.31835">
        <ele>44.8</ele>
        <time>2025-01-16T14:34:25Z</time>
      </trkpt>
      <trkpt lat="47.58712" lon="-2.31835">
        <ele>44.8</ele>
        <time>2025-01-16T14:34:26Z</time>
      </trkpt>
      <trkpt lat="47.58712" lon="-2.31835">
        <ele>44.8</ele>
        <time>2025-01-16T14:34:27Z</time>
      </trkpt>
      <trkpt lat="47.58712" lon="-2.31834">
        <ele>44.8</ele>
        <time>2025-01-16T14:34:28Z</time>
      </trkpt>
      <trkpt lat="47.58712" lon="-2.31833">
        <ele>44.7</ele>
        <time>2025-01-16T14:34:29Z</time>
      </trkpt>
      <trkpt lat="47.58712" lon="-2.31833">
        <ele>44.7</ele>
        <time>2025-01-16T14:34:30Z</time>
      </trkpt>
      <trkpt lat="47.58712" lon="-2.31832">
        <ele>44.7</ele>
        <time>2025-01-16T14:34:31Z</time>
      </trkpt>
      <trkpt lat="47.58712" lon="-2.31831">
        <ele>44.6</ele>
        <time>2025-01-16T14:34:32Z</time>
      </trkpt>
      <trkpt lat="47.58712" lon="-2.3183">
        <ele>44.6</ele>
        <time>2025-01-16T14:34:33Z</time>
      </trkpt>
      <trkpt lat="47.58712" lon="-2.31829">
        <ele>44.5</ele>
        <time>2025-01-16T14:34:34Z</time>
      </trkpt>
      <trkpt lat="47.58711" lon="-2.31828">
        <ele>44.5</ele>
        <time>2025-01-16T14:34:35Z</time>
      </trkpt>
      <trkpt lat="47.58711" lon="-2.31827">
        <ele>44.5</ele>
        <time>2025-01-16T14:34:36Z</time>
      </trkpt>
      <trkpt lat="47.5871" lon="-2.31826">
        <ele>44.5</ele>
        <time>2025-01-16T14:34:37Z</time>
      </trkpt>
      <trkpt lat="47.58709" lon="-2.31825">
        <ele>44.5</ele>
        <time>2025-01-16T14:34:38Z</time>
      </trkpt>
      <trkpt lat="47.58709" lon="-2.31824">
        <ele>44.5</ele>
        <time>2025-01-16T14:34:39Z</time>
      </trkpt>
      <trkpt lat="47.58707" lon="-2.31824">
        <ele>44.6</ele>
        <time>2025-01-16T14:34:40Z</time>
      </trkpt>
      <trkpt lat="47.58706" lon="-2.31823">
        <ele>44.6</ele>
        <time>2025-01-16T14:34:41Z</time>
      </trkpt>
      <trkpt lat="47.58704" lon="-2.31823">
        <ele>44.7</ele>
        <time>2025-01-16T14:34:42Z</time>
      </trkpt>
      <trkpt lat="47.58703" lon="-2.31822">
        <ele>44.7</ele>
        <time>2025-01-16T14:34:43Z</time>
      </trkpt>
      <trkpt lat="47.58702" lon="-2.31823">
        <ele>44.8</ele>
        <time>2025-01-16T14:34:44Z</time>
      </trkpt>
      <trkpt lat="47.58701" lon="-2.31823">
        <ele>44.9</ele>
        <time>2025-01-16T14:34:45Z</time>
      </trkpt>
      <trkpt lat="47.58701" lon="-2.31824">
        <ele>44.9</ele>
        <time>2025-01-16T14:34:46Z</time>
      </trkpt>
      <trkpt lat="47.587" lon="-2.31824">
        <ele>45</ele>
        <time>2025-01-16T14:34:47Z</time>
      </trkpt>
      <trkpt lat="47.58699" lon="-2.31825">
        <ele>45.1</ele>
        <time>2025-01-16T14:34:48Z</time>
      </trkpt>
      <trkpt lat="47.58699" lon="-2.31826">
        <ele>45.2</ele>
        <time>2025-01-16T14:34:49Z</time>
      </trkpt>
      <trkpt lat="47.58698" lon="-2.31826">
        <ele>45.2</ele>
        <time>2025-01-16T14:34:50Z</time>
      </trkpt>
      <trkpt lat="47.58698" lon="-2.31827">
        <ele>45.3</ele>
        <time>2025-01-16T14:34:51Z</time>
      </trkpt>
      <trkpt lat="47.58698" lon="-2.31828">
        <ele>45.4</ele>
        <time>2025-01-16T14:34:52Z</time>
      </trkpt>
      <trkpt lat="47.58697" lon="-2.31829">
        <ele>45.5</ele>
        <time>2025-01-16T14:34:53Z</time>
      </trkpt>
      <trkpt lat="47.58697" lon="-2.31831">
        <ele>45.7</ele>
        <time>2025-01-16T14:34:54Z</time>
      </trkpt>
      <trkpt lat="47.58697" lon="-2.31832">
        <ele>45.7</ele>
        <time>2025-01-16T14:34:55Z</time>
      </trkpt>
      <trkpt lat="47.58697" lon="-2.31833">
        <ele>45.8</ele>
        <time>2025-01-16T14:34:56Z</time>
      </trkpt>
      <trkpt lat="47.58696" lon="-2.31835">
        <ele>46</ele>
        <time>2025-01-16T14:34:57Z</time>
      </trkpt>
      <trkpt lat="47.58696" lon="-2.31837">
        <ele>46</ele>
        <time>2025-01-16T14:34:58Z</time>
      </trkpt>
      <trkpt lat="47.58696" lon="-2.31838">
        <ele>46.1</ele>
        <time>2025-01-16T14:34:59Z</time>
      </trkpt>
      <trkpt lat="47.58696" lon="-2.3184">
        <ele>46.1</ele>
        <time>2025-01-16T14:35:00Z</time>
      </trkpt>
      <trkpt lat="47.58696" lon="-2.31841">
        <ele>46.2</ele>
        <time>2025-01-16T14:35:01Z</time>
      </trkpt>
      <trkpt lat="47.58695" lon="-2.31843">
        <ele>46.3</ele>
        <time>2025-01-16T14:35:02Z</time>
      </trkpt>
      <trkpt lat="47.58694" lon="-2.31844">
        <ele>46.4</ele>
        <time>2025-01-16T14:35:03Z</time>
      </trkpt>
      <trkpt lat="47.58694" lon="-2.31846">
        <ele>46.5</ele>
        <time>2025-01-16T14:35:04Z</time>
      </trkpt>
      <trkpt lat="47.58693" lon="-2.31847">
        <ele>46.5</ele>
        <time>2025-01-16T14:35:05Z</time>
      </trkpt>
      <trkpt lat="47.58692" lon="-2.31848">
        <ele>46.6</ele>
        <time>2025-01-16T14:35:06Z</time>
      </trkpt>
      <trkpt lat="47.58692" lon="-2.3185">
        <ele>46.7</ele>
        <time>2025-01-16T14:35:07Z</time>
      </trkpt>
      <trkpt lat="47.58692" lon="-2.31851">
        <ele>46.7</ele>
        <time>2025-01-16T14:35:08Z</time>
      </trkpt>
      <trkpt lat="47.58692" lon="-2.31852">
        <ele>46.8</ele>
        <time>2025-01-16T14:35:09Z</time>
      </trkpt>
      <trkpt lat="47.58691" lon="-2.31854">
        <ele>46.9</ele>
        <time>2025-01-16T14:35:10Z</time>
      </trkpt>
      <trkpt lat="47.58691" lon="-2.31856">
        <ele>46.9</ele>
        <time>2025-01-16T14:35:11Z</time>
      </trkpt>
      <trkpt lat="47.58691" lon="-2.31857">
        <ele>47</ele>
        <time>2025-01-16T14:35:12Z</time>
      </trkpt>
      <trkpt lat="47.5869" lon="-2.31859">
        <ele>47.1</ele>
        <time>2025-01-16T14:35:13Z</time>
      </trkpt>
      <trkpt lat="47.58689" lon="-2.3186">
        <ele>47.2</ele>
        <time>2025-01-16T14:35:14Z</time>
      </trkpt>
      <trkpt lat="47.58689" lon="-2.31861">
        <ele>47.2</ele>
        <time>2025-01-16T14:35:15Z</time>
      </trkpt>
      <trkpt lat="47.58689" lon="-2.31863">
        <ele>47.3</ele>
        <time>2025-01-16T14:35:16Z</time>
      </trkpt>
      <trkpt lat="47.58689" lon="-2.31864">
        <ele>47.3</ele>
        <time>2025-01-16T14:35:17Z</time>
      </trkpt>
      <trkpt lat="47.58689" lon="-2.31865">
        <ele>47.4</ele>
        <time>2025-01-16T14:35:18Z</time>
      </trkpt>
      <trkpt lat="47.58689" lon="-2.31867">
        <ele>47.4</ele>
        <time>2025-01-16T14:35:19Z</time>
      </trkpt>
      <trkpt lat="47.58689" lon="-2.31868">
        <ele>47.5</ele>
        <time>2025-01-16T14:35:20Z</time>
      </trkpt>
      <trkpt lat="47.58688" lon="-2.31869">
        <ele>47.6</ele>
        <time>2025-01-16T14:35:21Z</time>
      </trkpt>
      <trkpt lat="47.58688" lon="-2.31871">
        <ele>47.7</ele>
        <time>2025-01-16T14:35:22Z</time>
      </trkpt>
      <trkpt lat="47.58688" lon="-2.31872">
        <ele>47.7</ele>
        <time>2025-01-16T14:35:23Z</time>
      </trkpt>
      <trkpt lat="47.58689" lon="-2.31873">
        <ele>47.7</ele>
        <time>2025-01-16T14:35:24Z</time>
      </trkpt>
      <trkpt lat="47.58689" lon="-2.31875">
        <ele>47.8</ele>
        <time>2025-01-16T14:35:25Z</time>
      </trkpt>
      <trkpt lat="47.5869" lon="-2.31877">
        <ele>47.8</ele>
        <time>2025-01-16T14:35:26Z</time>
      </trkpt>
      <trkpt lat="47.5869" lon="-2.31878">
        <ele>47.9</ele>
        <time>2025-01-16T14:35:27Z</time>
      </trkpt>
      <trkpt lat="47.5869" lon="-2.31879">
        <ele>47.9</ele>
        <time>2025-01-16T14:35:28Z</time>
      </trkpt>
      <trkpt lat="47.5869" lon="-2.3188">
        <ele>47.9</ele>
        <time>2025-01-16T14:35:29Z</time>
      </trkpt>
      <trkpt lat="47.5869" lon="-2.31882">
        <ele>48</ele>
        <time>2025-01-16T14:35:30Z</time>
      </trkpt>
      <trkpt lat="47.58689" lon="-2.31884">
        <ele>48.2</ele>
        <time>2025-01-16T14:35:31Z</time>
      </trkpt>
      <trkpt lat="47.58689" lon="-2.31886">
        <ele>48.3</ele>
        <time>2025-01-16T14:35:32Z</time>
      </trkpt>
      <trkpt lat="47.58688" lon="-2.31888">
        <ele>48.4</ele>
        <time>2025-01-16T14:35:33Z</time>
      </trkpt>
      <trkpt lat="47.58688" lon="-2.3189">
        <ele>48.5</ele>
        <time>2025-01-16T14:35:34Z</time>
      </trkpt>
      <trkpt lat="47.58688" lon="-2.31891">
        <ele>48.5</ele>
        <time>2025-01-16T14:35:35Z</time>
      </trkpt>
      <trkpt lat="47.58687" lon="-2.31893">
        <ele>48.7</ele>
        <time>2025-01-16T14:35:36Z</time>
      </trkpt>
      <trkpt lat="47.58687" lon="-2.31895">
        <ele>48.8</ele>
        <time>2025-01-16T14:35:37Z</time>
      </trkpt>
      <trkpt lat="47.58686" lon="-2.31896">
        <ele>48.9</ele>
        <time>2025-01-16T14:35:38Z</time>
      </trkpt>
      <trkpt lat="47.58686" lon="-2.31897">
        <ele>48.9</ele>
        <time>2025-01-16T14:35:39Z</time>
      </trkpt>
      <trkpt lat="47.58686" lon="-2.31898">
        <ele>48.9</ele>
        <time>2025-01-16T14:35:40Z</time>
      </trkpt>
      <trkpt lat="47.58685" lon="-2.319">
        <ele>49.1</ele>
        <time>2025-01-16T14:35:41Z</time>
      </trkpt>
      <trkpt lat="47.58685" lon="-2.31902">
        <ele>49.2</ele>
        <time>2025-01-16T14:35:42Z</time>
      </trkpt>
      <trkpt lat="47.58685" lon="-2.31904">
        <ele>49.2</ele>
        <time>2025-01-16T14:35:43Z</time>
      </trkpt>
      <trkpt lat="47.58685" lon="-2.31905">
        <ele>49.3</ele>
        <time>2025-01-16T14:35:44Z</time>
      </trkpt>
      <trkpt lat="47.58684" lon="-2.31907">
        <ele>49.4</ele>
        <time>2025-01-16T14:35:45Z</time>
      </trkpt>
      <trkpt lat="47.58684" lon="-2.31908">
        <ele>49.4</ele>
        <time>2025-01-16T14:35:46Z</time>
      </trkpt>
      <trkpt lat="47.58683" lon="-2.3191">
        <ele>49.6</ele>
        <time>2025-01-16T14:35:47Z</time>
      </trkpt>
      <trkpt lat="47.58683" lon="-2.31911">
        <ele>49.6</ele>
        <time>2025-01-16T14:35:48Z</time>
      </trkpt>
      <trkpt lat="47.58683" lon="-2.31913">
        <ele>49.7</ele>
        <time>2025-01-16T14:35:49Z</time>
      </trkpt>
      <trkpt lat="47.58683" lon="-2.31915">
        <ele>49.8</ele>
        <time>2025-01-16T14:35:50Z</time>
      </trkpt>
      <trkpt lat="47.58682" lon="-2.31916">
        <ele>49.9</ele>
        <time>2025-01-16T14:35:51Z</time>
      </trkpt>
      <trkpt lat="47.58682" lon="-2.31917">
        <ele>49.9</ele>
        <time>2025-01-16T14:35:52Z</time>
      </trkpt>
      <trkpt lat="47.58681" lon="-2.31918">
        <ele>50.1</ele>
        <time>2025-01-16T14:35:53Z</time>
      </trkpt>
      <trkpt lat="47.58681" lon="-2.31919">
        <ele>50.1</ele>
        <time>2025-01-16T14:35:54Z</time>
      </trkpt>
      <trkpt lat="47.58681" lon="-2.3192">
        <ele>50.2</ele>
        <time>2025-01-16T14:35:55Z</time>
      </trkpt>
      <trkpt lat="47.5868" lon="-2.31922">
        <ele>50.4</ele>
        <time>2025-01-16T14:35:56Z</time>
      </trkpt>
      <trkpt lat="47.58679" lon="-2.31923">
        <ele>50.5</ele>
        <time>2025-01-16T14:35:57Z</time>
      </trkpt>
      <trkpt lat="47.58678" lon="-2.31925">
        <ele>50.7</ele>
        <time>2025-01-16T14:35:58Z</time>
      </trkpt>
      <trkpt lat="47.58678" lon="-2.31927">
        <ele>50.9</ele>
        <time>2025-01-16T14:35:59Z</time>
      </trkpt>
      <trkpt lat="47.58677" lon="-2.31928">
        <ele>51</ele>
        <time>2025-01-16T14:36:00Z</time>
      </trkpt>
      <trkpt lat="47.58676" lon="-2.31929">
        <ele>51.1</ele>
        <time>2025-01-16T14:36:01Z</time>
      </trkpt>
      <trkpt lat="47.58675" lon="-2.3193">
        <ele>51.2</ele>
        <time>2025-01-16T14:36:02Z</time>
      </trkpt>
      <trkpt lat="47.58675" lon="-2.31931">
        <ele>51.2</ele>
        <time>2025-01-16T14:36:03Z</time>
      </trkpt>
      <trkpt lat="47.58674" lon="-2.31932">
        <ele>51.3</ele>
        <time>2025-01-16T14:36:04Z</time>
      </trkpt>
      <trkpt lat="47.58674" lon="-2.31933">
        <ele>51.4</ele>
        <time>2025-01-16T14:36:05Z</time>
      </trkpt>
      <trkpt lat="47.58674" lon="-2.31933">
        <ele>51.4</ele>
        <time>2025-01-16T14:36:06Z</time>
      </trkpt>
      <trkpt lat="47.58674" lon="-2.31933">
        <ele>51.4</ele>
        <time>2025-01-16T14:36:07Z</time>
      </trkpt>
      <trkpt lat="47.58673" lon="-2.31935">
        <ele>51.5</ele>
        <time>2025-01-16T14:36:08Z</time>
      </trkpt>
      <trkpt lat="47.58672" lon="-2.31936">
        <ele>51.6</ele>
        <time>2025-01-16T14:36:09Z</time>
      </trkpt>
      <trkpt lat="47.58671" lon="-2.31937">
        <ele>51.6</ele>
        <time>2025-01-16T14:36:10Z</time>
      </trkpt>
      <trkpt lat="47.5867" lon="-2.31939">
        <ele>51.8</ele>
        <time>2025-01-16T14:36:11Z</time>
      </trkpt>
      <trkpt lat="47.58669" lon="-2.3194">
        <ele>51.8</ele>
        <time>2025-01-16T14:36:12Z</time>
      </trkpt>
      <trkpt lat="47.58669" lon="-2.31941">
        <ele>51.9</ele>
        <time>2025-01-16T14:36:13Z</time>
      </trkpt>
      <trkpt lat="47.58668" lon="-2.31943">
        <ele>51.9</ele>
        <time>2025-01-16T14:36:14Z</time>
      </trkpt>
      <trkpt lat="47.58667" lon="-2.31944">
        <ele>52</ele>
        <time>2025-01-16T14:36:15Z</time>
      </trkpt>
      <trkpt lat="47.58666" lon="-2.31945">
        <ele>52</ele>
        <time>2025-01-16T14:36:16Z</time>
      </trkpt>
      <trkpt lat="47.58665" lon="-2.31945">
        <ele>52.1</ele>
        <time>2025-01-16T14:36:17Z</time>
      </trkpt>
      <trkpt lat="47.58665" lon="-2.31946">
        <ele>52.1</ele>
        <time>2025-01-16T14:36:18Z</time>
      </trkpt>
      <trkpt lat="47.58664" lon="-2.31946">
        <ele>52.2</ele>
        <time>2025-01-16T14:36:19Z</time>
      </trkpt>
      <trkpt lat="47.58664" lon="-2.31947">
        <ele>52.2</ele>
        <time>2025-01-16T14:36:20Z</time>
      </trkpt>
      <trkpt lat="47.58663" lon="-2.31948">
        <ele>52.3</ele>
        <time>2025-01-16T14:36:21Z</time>
      </trkpt>
      <trkpt lat="47.58662" lon="-2.31949">
        <ele>52.3</ele>
        <time>2025-01-16T14:36:22Z</time>
      </trkpt>
      <trkpt lat="47.58662" lon="-2.31951">
        <ele>52.4</ele>
        <time>2025-01-16T14:36:23Z</time>
      </trkpt>
      <trkpt lat="47.58661" lon="-2.31953">
        <ele>52.5</ele>
        <time>2025-01-16T14:36:24Z</time>
      </trkpt>
      <trkpt lat="47.5866" lon="-2.31953">
        <ele>52.5</ele>
        <time>2025-01-16T14:36:25Z</time>
      </trkpt>
      <trkpt lat="47.5866" lon="-2.31954">
        <ele>52.6</ele>
        <time>2025-01-16T14:36:26Z</time>
      </trkpt>
      <trkpt lat="47.58659" lon="-2.31955">
        <ele>52.7</ele>
        <time>2025-01-16T14:36:27Z</time>
      </trkpt>
      <trkpt lat="47.58658" lon="-2.31956">
        <ele>52.7</ele>
        <time>2025-01-16T14:36:28Z</time>
      </trkpt>
      <trkpt lat="47.58657" lon="-2.31956">
        <ele>52.8</ele>
        <time>2025-01-16T14:36:29Z</time>
      </trkpt>
      <trkpt lat="47.58657" lon="-2.31956">
        <ele>52.8</ele>
        <time>2025-01-16T14:36:30Z</time>
      </trkpt>
      <trkpt lat="47.58657" lon="-2.31956">
        <ele>52.8</ele>
        <time>2025-01-16T14:36:31Z</time>
      </trkpt>
      <trkpt lat="47.58656" lon="-2.31957">
        <ele>52.8</ele>
        <time>2025-01-16T14:36:32Z</time>
      </trkpt>
      <trkpt lat="47.58655" lon="-2.31959">
        <ele>52.9</ele>
        <time>2025-01-16T14:36:33Z</time>
      </trkpt>
      <trkpt lat="47.58654" lon="-2.31959">
        <ele>53</ele>
        <time>2025-01-16T14:36:34Z</time>
      </trkpt>
      <trkpt lat="47.58653" lon="-2.3196">
        <ele>53.1</ele>
        <time>2025-01-16T14:36:35Z</time>
      </trkpt>
      <trkpt lat="47.58652" lon="-2.31961">
        <ele>53.1</ele>
        <time>2025-01-16T14:36:36Z</time>
      </trkpt>
      <trkpt lat="47.58651" lon="-2.31963">
        <ele>53.2</ele>
        <time>2025-01-16T14:36:37Z</time>
      </trkpt>
      <trkpt lat="47.5865" lon="-2.31964">
        <ele>53.3</ele>
        <time>2025-01-16T14:36:38Z</time>
      </trkpt>
      <trkpt lat="47.58649" lon="-2.31966">
        <ele>53.4</ele>
        <time>2025-01-16T14:36:39Z</time>
      </trkpt>
      <trkpt lat="47.58648" lon="-2.31967">
        <ele>53.5</ele>
        <time>2025-01-16T14:36:40Z</time>
      </trkpt>
      <trkpt lat="47.58648" lon="-2.31968">
        <ele>53.5</ele>
        <time>2025-01-16T14:36:41Z</time>
      </trkpt>
      <trkpt lat="47.58646" lon="-2.3197">
        <ele>53.7</ele>
        <time>2025-01-16T14:36:42Z</time>
      </trkpt>
      <trkpt lat="47.58645" lon="-2.31972">
        <ele>53.8</ele>
        <time>2025-01-16T14:36:43Z</time>
      </trkpt>
      <trkpt lat="47.58645" lon="-2.31974">
        <ele>53.8</ele>
        <time>2025-01-16T14:36:44Z</time>
      </trkpt>
      <trkpt lat="47.58644" lon="-2.31975">
        <ele>53.8</ele>
        <time>2025-01-16T14:36:45Z</time>
      </trkpt>
      <trkpt lat="47.58643" lon="-2.31976">
        <ele>53.9</ele>
        <time>2025-01-16T14:36:46Z</time>
      </trkpt>
      <trkpt lat="47.58642" lon="-2.31977">
        <ele>53.9</ele>
        <time>2025-01-16T14:36:47Z</time>
      </trkpt>
      <trkpt lat="47.58642" lon="-2.31978">
        <ele>53.9</ele>
        <time>2025-01-16T14:36:48Z</time>
      </trkpt>
      <trkpt lat="47.58641" lon="-2.31979">
        <ele>53.9</ele>
        <time>2025-01-16T14:36:49Z</time>
      </trkpt>
      <trkpt lat="47.5864" lon="-2.31981">
        <ele>54</ele>
        <time>2025-01-16T14:36:50Z</time>
      </trkpt>
      <trkpt lat="47.5864" lon="-2.31982">
        <ele>54</ele>
        <time>2025-01-16T14:36:51Z</time>
      </trkpt>
      <trkpt lat="47.58639" lon="-2.31984">
        <ele>54</ele>
        <time>2025-01-16T14:36:52Z</time>
      </trkpt>
      <trkpt lat="47.58639" lon="-2.31985">
        <ele>54</ele>
        <time>2025-01-16T14:36:53Z</time>
      </trkpt>
      <trkpt lat="47.58639" lon="-2.31986">
        <ele>54</ele>
        <time>2025-01-16T14:36:54Z</time>
      </trkpt>
      <trkpt lat="47.58638" lon="-2.31987">
        <ele>54</ele>
        <time>2025-01-16T14:36:55Z</time>
      </trkpt>
      <trkpt lat="47.58638" lon="-2.31989">
        <ele>54</ele>
        <time>2025-01-16T14:36:56Z</time>
      </trkpt>
      <trkpt lat="47.58638" lon="-2.31989">
        <ele>54</ele>
        <time>2025-01-16T14:36:57Z</time>
      </trkpt>
      <trkpt lat="47.58637" lon="-2.31991">
        <ele>54</ele>
        <time>2025-01-16T14:36:58Z</time>
      </trkpt>
      <trkpt lat="47.58637" lon="-2.31991">
        <ele>54</ele>
        <time>2025-01-16T14:36:59Z</time>
      </trkpt>
      <trkpt lat="47.58638" lon="-2.31991">
        <ele>54</ele>
        <time>2025-01-16T14:37:00Z</time>
      </trkpt>
      <trkpt lat="47.58638" lon="-2.31991">
        <ele>54</ele>
        <time>2025-01-16T14:37:01Z</time>
      </trkpt>
      <trkpt lat="47.58637" lon="-2.31993">
        <ele>54</ele>
        <time>2025-01-16T14:37:02Z</time>
      </trkpt>
      <trkpt lat="47.58636" lon="-2.31994">
        <ele>54</ele>
        <time>2025-01-16T14:37:03Z</time>
      </trkpt>
      <trkpt lat="47.58636" lon="-2.31996">
        <ele>54</ele>
        <time>2025-01-16T14:37:04Z</time>
      </trkpt>
      <trkpt lat="47.58635" lon="-2.31997">
        <ele>54</ele>
        <time>2025-01-16T14:37:05Z</time>
      </trkpt>
      <trkpt lat="47.58635" lon="-2.31998">
        <ele>54</ele>
        <time>2025-01-16T14:37:06Z</time>
      </trkpt>
      <trkpt lat="47.58636" lon="-2.31999">
        <ele>54</ele>
        <time>2025-01-16T14:37:07Z</time>
      </trkpt>
      <trkpt lat="47.58636" lon="-2.32001">
        <ele>54</ele>
        <time>2025-01-16T14:37:08Z</time>
      </trkpt>
      <trkpt lat="47.58635" lon="-2.32002">
        <ele>53.9</ele>
        <time>2025-01-16T14:37:09Z</time>
      </trkpt>
      <trkpt lat="47.58635" lon="-2.32004">
        <ele>53.8</ele>
        <time>2025-01-16T14:37:10Z</time>
      </trkpt>
      <trkpt lat="47.58635" lon="-2.32006">
        <ele>53.8</ele>
        <time>2025-01-16T14:37:11Z</time>
      </trkpt>
      <trkpt lat="47.58635" lon="-2.32008">
        <ele>53.7</ele>
        <time>2025-01-16T14:37:12Z</time>
      </trkpt>
      <trkpt lat="47.58636" lon="-2.3201">
        <ele>53.6</ele>
        <time>2025-01-16T14:37:13Z</time>
      </trkpt>
      <trkpt lat="47.58636" lon="-2.32012">
        <ele>53.5</ele>
        <time>2025-01-16T14:37:14Z</time>
      </trkpt>
      <trkpt lat="47.58636" lon="-2.32014">
        <ele>53.4</ele>
        <time>2025-01-16T14:37:15Z</time>
      </trkpt>
      <trkpt lat="47.58636" lon="-2.32016">
        <ele>53.4</ele>
        <time>2025-01-16T14:37:16Z</time>
      </trkpt>
      <trkpt lat="47.58637" lon="-2.32017">
        <ele>53.3</ele>
        <time>2025-01-16T14:37:17Z</time>
      </trkpt>
      <trkpt lat="47.58637" lon="-2.32018">
        <ele>53.3</ele>
        <time>2025-01-16T14:37:18Z</time>
      </trkpt>
      <trkpt lat="47.58638" lon="-2.3202">
        <ele>53.3</ele>
        <time>2025-01-16T14:37:19Z</time>
      </trkpt>
      <trkpt lat="47.58639" lon="-2.32021">
        <ele>53.2</ele>
        <time>2025-01-16T14:37:20Z</time>
      </trkpt>
      <trkpt lat="47.5864" lon="-2.32022">
        <ele>53.2</ele>
        <time>2025-01-16T14:37:21Z</time>
      </trkpt>
      <trkpt lat="47.58641" lon="-2.32023">
        <ele>53.2</ele>
        <time>2025-01-16T14:37:22Z</time>
      </trkpt>
      <trkpt lat="47.58642" lon="-2.32023">
        <ele>53.2</ele>
        <time>2025-01-16T14:37:23Z</time>
      </trkpt>
      <trkpt lat="47.58643" lon="-2.32024">
        <ele>53.1</ele>
        <time>2025-01-16T14:37:24Z</time>
      </trkpt>
      <trkpt lat="47.58644" lon="-2.32024">
        <ele>53.1</ele>
        <time>2025-01-16T14:37:25Z</time>
      </trkpt>
      <trkpt lat="47.58645" lon="-2.32025">
        <ele>53.1</ele>
        <time>2025-01-16T14:37:26Z</time>
      </trkpt>
      <trkpt lat="47.58646" lon="-2.32025">
        <ele>53.1</ele>
        <time>2025-01-16T14:37:27Z</time>
      </trkpt>
      <trkpt lat="47.58647" lon="-2.32026">
        <ele>53</ele>
        <time>2025-01-16T14:37:28Z</time>
      </trkpt>
      <trkpt lat="47.58648" lon="-2.32027">
        <ele>53</ele>
        <time>2025-01-16T14:37:29Z</time>
      </trkpt>
      <trkpt lat="47.58649" lon="-2.32027">
        <ele>53</ele>
        <time>2025-01-16T14:37:30Z</time>
      </trkpt>
      <trkpt lat="47.58651" lon="-2.32027">
        <ele>53</ele>
        <time>2025-01-16T14:37:31Z</time>
      </trkpt>
      <trkpt lat="47.58653" lon="-2.32027">
        <ele>53</ele>
        <time>2025-01-16T14:37:32Z</time>
      </trkpt>
      <trkpt lat="47.58654" lon="-2.32026">
        <ele>53</ele>
        <time>2025-01-16T14:37:33Z</time>
      </trkpt>
      <trkpt lat="47.58656" lon="-2.32026">
        <ele>53</ele>
        <time>2025-01-16T14:37:34Z</time>
      </trkpt>
      <trkpt lat="47.58657" lon="-2.32027">
        <ele>53</ele>
        <time>2025-01-16T14:37:35Z</time>
      </trkpt>
      <trkpt lat="47.58658" lon="-2.32027">
        <ele>53</ele>
        <time>2025-01-16T14:37:36Z</time>
      </trkpt>
      <trkpt lat="47.58659" lon="-2.32027">
        <ele>53</ele>
        <time>2025-01-16T14:37:37Z</time>
      </trkpt>
      <trkpt lat="47.5866" lon="-2.32027">
        <ele>53</ele>
        <time>2025-01-16T14:37:38Z</time>
      </trkpt>
      <trkpt lat="47.58661" lon="-2.32027">
        <ele>53</ele>
        <time>2025-01-16T14:37:39Z</time>
      </trkpt>
      <trkpt lat="47.58662" lon="-2.32028">
        <ele>53</ele>
        <time>2025-01-16T14:37:40Z</time>
      </trkpt>
      <trkpt lat="47.58663" lon="-2.32029">
        <ele>53</ele>
        <time>2025-01-16T14:37:41Z</time>
      </trkpt>
      <trkpt lat="47.58665" lon="-2.32029">
        <ele>53</ele>
        <time>2025-01-16T14:37:42Z</time>
      </trkpt>
      <trkpt lat="47.58666" lon="-2.32029">
        <ele>53</ele>
        <time>2025-01-16T14:37:43Z</time>
      </trkpt>
      <trkpt lat="47.58667" lon="-2.3203">
        <ele>52.9</ele>
        <time>2025-01-16T14:37:44Z</time>
      </trkpt>
      <trkpt lat="47.58668" lon="-2.32031">
        <ele>52.9</ele>
        <time>2025-01-16T14:37:45Z</time>
      </trkpt>
      <trkpt lat="47.58668" lon="-2.32032">
        <ele>52.8</ele>
        <time>2025-01-16T14:37:46Z</time>
      </trkpt>
      <trkpt lat="47.5867" lon="-2.32032">
        <ele>52.8</ele>
        <time>2025-01-16T14:37:47Z</time>
      </trkpt>
      <trkpt lat="47.58671" lon="-2.32031">
        <ele>52.9</ele>
        <time>2025-01-16T14:37:48Z</time>
      </trkpt>
      <trkpt lat="47.58672" lon="-2.32029">
        <ele>53</ele>
        <time>2025-01-16T14:37:49Z</time>
      </trkpt>
      <trkpt lat="47.58673" lon="-2.32028">
        <ele>53</ele>
        <time>2025-01-16T14:37:50Z</time>
      </trkpt>
      <trkpt lat="47.58674" lon="-2.32028">
        <ele>53</ele>
        <time>2025-01-16T14:37:51Z</time>
      </trkpt>
      <trkpt lat="47.58675" lon="-2.32028">
        <ele>53</ele>
        <time>2025-01-16T14:37:52Z</time>
      </trkpt>
      <trkpt lat="47.58676" lon="-2.32028">
        <ele>53</ele>
        <time>2025-01-16T14:37:53Z</time>
      </trkpt>
      <trkpt lat="47.58678" lon="-2.32029">
        <ele>53</ele>
        <time>2025-01-16T14:37:54Z</time>
      </trkpt>
      <trkpt lat="47.58679" lon="-2.3203">
        <ele>52.9</ele>
        <time>2025-01-16T14:37:55Z</time>
      </trkpt>
      <trkpt lat="47.5868" lon="-2.32031">
        <ele>52.9</ele>
        <time>2025-01-16T14:37:56Z</time>
      </trkpt>
      <trkpt lat="47.58681" lon="-2.32033">
        <ele>52.8</ele>
        <time>2025-01-16T14:37:57Z</time>
      </trkpt>
      <trkpt lat="47.58682" lon="-2.32034">
        <ele>52.8</ele>
        <time>2025-01-16T14:37:58Z</time>
      </trkpt>
      <trkpt lat="47.58682" lon="-2.32035">
        <ele>52.7</ele>
        <time>2025-01-16T14:37:59Z</time>
      </trkpt>
      <trkpt lat="47.58684" lon="-2.32035">
        <ele>52.7</ele>
        <time>2025-01-16T14:38:00Z</time>
      </trkpt>
      <trkpt lat="47.58685" lon="-2.32036">
        <ele>52.7</ele>
        <time>2025-01-16T14:38:01Z</time>
      </trkpt>
      <trkpt lat="47.58686" lon="-2.32037">
        <ele>52.7</ele>
        <time>2025-01-16T14:38:02Z</time>
      </trkpt>
      <trkpt lat="47.58687" lon="-2.32037">
        <ele>52.7</ele>
        <time>2025-01-16T14:38:03Z</time>
      </trkpt>
      <trkpt lat="47.58688" lon="-2.32037">
        <ele>52.7</ele>
        <time>2025-01-16T14:38:04Z</time>
      </trkpt>
      <trkpt lat="47.58689" lon="-2.32037">
        <ele>52.7</ele>
        <time>2025-01-16T14:38:05Z</time>
      </trkpt>
      <trkpt lat="47.5869" lon="-2.32038">
        <ele>52.6</ele>
        <time>2025-01-16T14:38:06Z</time>
      </trkpt>
      <trkpt lat="47.58691" lon="-2.32038">
        <ele>52.6</ele>
        <time>2025-01-16T14:38:07Z</time>
      </trkpt>
      <trkpt lat="47.58692" lon="-2.3204">
        <ele>52.6</ele>
        <time>2025-01-16T14:38:08Z</time>
      </trkpt>
      <trkpt lat="47.58693" lon="-2.3204">
        <ele>52.6</ele>
        <time>2025-01-16T14:38:09Z</time>
      </trkpt>
      <trkpt lat="47.58695" lon="-2.32039">
        <ele>52.6</ele>
        <time>2025-01-16T14:38:10Z</time>
      </trkpt>
      <trkpt lat="47.58696" lon="-2.32039">
        <ele>52.6</ele>
        <time>2025-01-16T14:38:11Z</time>
      </trkpt>
      <trkpt lat="47.58697" lon="-2.32038">
        <ele>52.7</ele>
        <time>2025-01-16T14:38:12Z</time>
      </trkpt>
      <trkpt lat="47.58698" lon="-2.32038">
        <ele>52.7</ele>
        <time>2025-01-16T14:38:13Z</time>
      </trkpt>
      <trkpt lat="47.58699" lon="-2.32039">
        <ele>52.7</ele>
        <time>2025-01-16T14:38:14Z</time>
      </trkpt>
      <trkpt lat="47.587" lon="-2.32039">
        <ele>52.7</ele>
        <time>2025-01-16T14:38:15Z</time>
      </trkpt>
      <trkpt lat="47.587" lon="-2.3204">
        <ele>52.6</ele>
        <time>2025-01-16T14:38:16Z</time>
      </trkpt>
      <trkpt lat="47.58701" lon="-2.3204">
        <ele>52.7</ele>
        <time>2025-01-16T14:38:17Z</time>
      </trkpt>
      <trkpt lat="47.58702" lon="-2.32041">
        <ele>52.7</ele>
        <time>2025-01-16T14:38:18Z</time>
      </trkpt>
      <trkpt lat="47.58703" lon="-2.32041">
        <ele>52.7</ele>
        <time>2025-01-16T14:38:19Z</time>
      </trkpt>
      <trkpt lat="47.58704" lon="-2.32041">
        <ele>52.7</ele>
        <time>2025-01-16T14:38:20Z</time>
      </trkpt>
      <trkpt lat="47.58706" lon="-2.32041">
        <ele>52.7</ele>
        <time>2025-01-16T14:38:21Z</time>
      </trkpt>
      <trkpt lat="47.58707" lon="-2.32042">
        <ele>52.7</ele>
        <time>2025-01-16T14:38:22Z</time>
      </trkpt>
      <trkpt lat="47.58708" lon="-2.32042">
        <ele>52.7</ele>
        <time>2025-01-16T14:38:23Z</time>
      </trkpt>
      <trkpt lat="47.58709" lon="-2.32042">
        <ele>52.8</ele>
        <time>2025-01-16T14:38:24Z</time>
      </trkpt>
      <trkpt lat="47.5871" lon="-2.32043">
        <ele>52.8</ele>
        <time>2025-01-16T14:38:25Z</time>
      </trkpt>
      <trkpt lat="47.58711" lon="-2.32043">
        <ele>52.8</ele>
        <time>2025-01-16T14:38:26Z</time>
      </trkpt>
      <trkpt lat="47.58713" lon="-2.32043">
        <ele>52.8</ele>
        <time>2025-01-16T14:38:27Z</time>
      </trkpt>
      <trkpt lat="47.58714" lon="-2.32042">
        <ele>52.8</ele>
        <time>2025-01-16T14:38:28Z</time>
      </trkpt>
      <trkpt lat="47.58715" lon="-2.32042">
        <ele>52.9</ele>
        <time>2025-01-16T14:38:29Z</time>
      </trkpt>
      <trkpt lat="47.58716" lon="-2.32042">
        <ele>52.9</ele>
        <time>2025-01-16T14:38:30Z</time>
      </trkpt>
      <trkpt lat="47.58718" lon="-2.32043">
        <ele>52.9</ele>
        <time>2025-01-16T14:38:31Z</time>
      </trkpt>
      <trkpt lat="47.58719" lon="-2.32044">
        <ele>52.9</ele>
        <time>2025-01-16T14:38:32Z</time>
      </trkpt>
      <trkpt lat="47.5872" lon="-2.32044">
        <ele>53</ele>
        <time>2025-01-16T14:38:33Z</time>
      </trkpt>
      <trkpt lat="47.58721" lon="-2.32045">
        <ele>53</ele>
        <time>2025-01-16T14:38:34Z</time>
      </trkpt>
      <trkpt lat="47.58722" lon="-2.32048">
        <ele>53</ele>
        <time>2025-01-16T14:38:35Z</time>
      </trkpt>
      <trkpt lat="47.58723" lon="-2.32049">
        <ele>53</ele>
        <time>2025-01-16T14:38:36Z</time>
      </trkpt>
      <trkpt lat="47.58724" lon="-2.32049">
        <ele>53</ele>
        <time>2025-01-16T14:38:37Z</time>
      </trkpt>
      <trkpt lat="47.58725" lon="-2.3205">
        <ele>53</ele>
        <time>2025-01-16T14:38:38Z</time>
      </trkpt>
      <trkpt lat="47.58727" lon="-2.3205">
        <ele>53</ele>
        <time>2025-01-16T14:38:39Z</time>
      </trkpt>
      <trkpt lat="47.58728" lon="-2.32049">
        <ele>53</ele>
        <time>2025-01-16T14:38:40Z</time>
      </trkpt>
      <trkpt lat="47.58729" lon="-2.32049">
        <ele>53</ele>
        <time>2025-01-16T14:38:41Z</time>
      </trkpt>
      <trkpt lat="47.5873" lon="-2.32048">
        <ele>53</ele>
        <time>2025-01-16T14:38:42Z</time>
      </trkpt>
      <trkpt lat="47.58732" lon="-2.32048">
        <ele>53</ele>
        <time>2025-01-16T14:38:43Z</time>
      </trkpt>
      <trkpt lat="47.58733" lon="-2.32047">
        <ele>53</ele>
        <time>2025-01-16T14:38:44Z</time>
      </trkpt>
      <trkpt lat="47.58734" lon="-2.32047">
        <ele>53</ele>
        <time>2025-01-16T14:38:45Z</time>
      </trkpt>
      <trkpt lat="47.58736" lon="-2.32047">
        <ele>53</ele>
        <time>2025-01-16T14:38:46Z</time>
      </trkpt>
      <trkpt lat="47.58737" lon="-2.32047">
        <ele>53</ele>
        <time>2025-01-16T14:38:47Z</time>
      </trkpt>
      <trkpt lat="47.58738" lon="-2.32047">
        <ele>53</ele>
        <time>2025-01-16T14:38:48Z</time>
      </trkpt>
      <trkpt lat="47.5874" lon="-2.32047">
        <ele>53</ele>
        <time>2025-01-16T14:38:49Z</time>
      </trkpt>
      <trkpt lat="47.58741" lon="-2.32047">
        <ele>53</ele>
        <time>2025-01-16T14:38:50Z</time>
      </trkpt>
      <trkpt lat="47.58743" lon="-2.32047">
        <ele>53</ele>
        <time>2025-01-16T14:38:51Z</time>
      </trkpt>
      <trkpt lat="47.58744" lon="-2.32047">
        <ele>53</ele>
        <time>2025-01-16T14:38:52Z</time>
      </trkpt>
      <trkpt lat="47.58745" lon="-2.32047">
        <ele>53</ele>
        <time>2025-01-16T14:38:53Z</time>
      </trkpt>
      <trkpt lat="47.58746" lon="-2.32048">
        <ele>53</ele>
        <time>2025-01-16T14:38:54Z</time>
      </trkpt>
      <trkpt lat="47.58747" lon="-2.32048">
        <ele>53</ele>
        <time>2025-01-16T14:38:55Z</time>
      </trkpt>
      <trkpt lat="47.58749" lon="-2.32049">
        <ele>53</ele>
        <time>2025-01-16T14:38:56Z</time>
      </trkpt>
      <trkpt lat="47.5875" lon="-2.3205">
        <ele>53</ele>
        <time>2025-01-16T14:38:57Z</time>
      </trkpt>
      <trkpt lat="47.58751" lon="-2.3205">
        <ele>53</ele>
        <time>2025-01-16T14:38:58Z</time>
      </trkpt>
      <trkpt lat="47.58752" lon="-2.3205">
        <ele>53</ele>
        <time>2025-01-16T14:38:59Z</time>
      </trkpt>
      <trkpt lat="47.58752" lon="-2.32051">
        <ele>53</ele>
        <time>2025-01-16T14:39:00Z</time>
      </trkpt>
      <trkpt lat="47.58753" lon="-2.32051">
        <ele>53</ele>
        <time>2025-01-16T14:39:01Z</time>
      </trkpt>
      <trkpt lat="47.58754" lon="-2.32051">
        <ele>53</ele>
        <time>2025-01-16T14:39:02Z</time>
      </trkpt>
      <trkpt lat="47.58755" lon="-2.3205">
        <ele>53</ele>
        <time>2025-01-16T14:39:03Z</time>
      </trkpt>
      <trkpt lat="47.58756" lon="-2.32051">
        <ele>53</ele>
        <time>2025-01-16T14:39:04Z</time>
      </trkpt>
      <trkpt lat="47.58757" lon="-2.32052">
        <ele>53</ele>
        <time>2025-01-16T14:39:05Z</time>
      </trkpt>
      <trkpt lat="47.58758" lon="-2.32052">
        <ele>53</ele>
        <time>2025-01-16T14:39:06Z</time>
      </trkpt>
      <trkpt lat="47.58759" lon="-2.32053">
        <ele>53</ele>
        <time>2025-01-16T14:39:07Z</time>
      </trkpt>
      <trkpt lat="47.5876" lon="-2.32053">
        <ele>53</ele>
        <time>2025-01-16T14:39:08Z</time>
      </trkpt>
      <trkpt lat="47.58761" lon="-2.32054">
        <ele>53</ele>
        <time>2025-01-16T14:39:09Z</time>
      </trkpt>
      <trkpt lat="47.58762" lon="-2.32055">
        <ele>53</ele>
        <time>2025-01-16T14:39:10Z</time>
      </trkpt>
      <trkpt lat="47.58763" lon="-2.32056">
        <ele>53</ele>
        <time>2025-01-16T14:39:11Z</time>
      </trkpt>
      <trkpt lat="47.58764" lon="-2.32056">
        <ele>53</ele>
        <time>2025-01-16T14:39:12Z</time>
      </trkpt>
      <trkpt lat="47.58765" lon="-2.32056">
        <ele>53</ele>
        <time>2025-01-16T14:39:13Z</time>
      </trkpt>
      <trkpt lat="47.58766" lon="-2.32056">
        <ele>53</ele>
        <time>2025-01-16T14:39:14Z</time>
      </trkpt>
      <trkpt lat="47.58767" lon="-2.32057">
        <ele>53</ele>
        <time>2025-01-16T14:39:15Z</time>
      </trkpt>
      <trkpt lat="47.58768" lon="-2.32058">
        <ele>53</ele>
        <time>2025-01-16T14:39:16Z</time>
      </trkpt>
      <trkpt lat="47.58769" lon="-2.32059">
        <ele>53</ele>
        <time>2025-01-16T14:39:17Z</time>
      </trkpt>
      <trkpt lat="47.5877" lon="-2.32059">
        <ele>53</ele>
        <time>2025-01-16T14:39:18Z</time>
      </trkpt>
      <trkpt lat="47.58771" lon="-2.32059">
        <ele>53</ele>
        <time>2025-01-16T14:39:19Z</time>
      </trkpt>
      <trkpt lat="47.58772" lon="-2.32059">
        <ele>53</ele>
        <time>2025-01-16T14:39:20Z</time>
      </trkpt>
      <trkpt lat="47.58774" lon="-2.32059">
        <ele>53</ele>
        <time>2025-01-16T14:39:21Z</time>
      </trkpt>
      <trkpt lat="47.58775" lon="-2.32059">
        <ele>53</ele>
        <time>2025-01-16T14:39:22Z</time>
      </trkpt>
      <trkpt lat="47.58776" lon="-2.32058">
        <ele>53</ele>
        <time>2025-01-16T14:39:23Z</time>
      </trkpt>
      <trkpt lat="47.58777" lon="-2.32058">
        <ele>53</ele>
        <time>2025-01-16T14:39:24Z</time>
      </trkpt>
      <trkpt lat="47.58778" lon="-2.32058">
        <ele>53</ele>
        <time>2025-01-16T14:39:25Z</time>
      </trkpt>
      <trkpt lat="47.58779" lon="-2.32057">
        <ele>53.1</ele>
        <time>2025-01-16T14:39:26Z</time>
      </trkpt>
      <trkpt lat="47.5878" lon="-2.32056">
        <ele>53.2</ele>
        <time>2025-01-16T14:39:27Z</time>
      </trkpt>
      <trkpt lat="47.58781" lon="-2.32055">
        <ele>53.2</ele>
        <time>2025-01-16T14:39:28Z</time>
      </trkpt>
      <trkpt lat="47.58782" lon="-2.32054">
        <ele>53.3</ele>
        <time>2025-01-16T14:39:29Z</time>
      </trkpt>
      <trkpt lat="47.58782" lon="-2.32052">
        <ele>53.3</ele>
        <time>2025-01-16T14:39:30Z</time>
      </trkpt>
      <trkpt lat="47.58782" lon="-2.3205">
        <ele>53.3</ele>
        <time>2025-01-16T14:39:31Z</time>
      </trkpt>
      <trkpt lat="47.58782" lon="-2.32049">
        <ele>53.3</ele>
        <time>2025-01-16T14:39:32Z</time>
      </trkpt>
      <trkpt lat="47.58782" lon="-2.32047">
        <ele>53.3</ele>
        <time>2025-01-16T14:39:33Z</time>
      </trkpt>
      <trkpt lat="47.58782" lon="-2.32046">
        <ele>53.3</ele>
        <time>2025-01-16T14:39:34Z</time>
      </trkpt>
      <trkpt lat="47.58782" lon="-2.32045">
        <ele>53.3</ele>
        <time>2025-01-16T14:39:35Z</time>
      </trkpt>
      <trkpt lat="47.58782" lon="-2.32043">
        <ele>53.3</ele>
        <time>2025-01-16T14:39:36Z</time>
      </trkpt>
      <trkpt lat="47.58782" lon="-2.32042">
        <ele>53.3</ele>
        <time>2025-01-16T14:39:37Z</time>
      </trkpt>
      <trkpt lat="47.58782" lon="-2.3204">
        <ele>53.3</ele>
        <time>2025-01-16T14:39:38Z</time>
      </trkpt>
      <trkpt lat="47.58782" lon="-2.32039">
        <ele>53.3</ele>
        <time>2025-01-16T14:39:39Z</time>
      </trkpt>
      <trkpt lat="47.58782" lon="-2.32037">
        <ele>53.3</ele>
        <time>2025-01-16T14:39:40Z</time>
      </trkpt>
      <trkpt lat="47.58782" lon="-2.32035">
        <ele>53.3</ele>
        <time>2025-01-16T14:39:41Z</time>
      </trkpt>
      <trkpt lat="47.58782" lon="-2.32033">
        <ele>53.3</ele>
        <time>2025-01-16T14:39:42Z</time>
      </trkpt>
      <trkpt lat="47.58782" lon="-2.32032">
        <ele>53.3</ele>
        <time>2025-01-16T14:39:43Z</time>
      </trkpt>
      <trkpt lat="47.58782" lon="-2.3203">
        <ele>53.3</ele>
        <time>2025-01-16T14:39:44Z</time>
      </trkpt>
      <trkpt lat="47.58782" lon="-2.32028">
        <ele>53.3</ele>
        <time>2025-01-16T14:39:45Z</time>
      </trkpt>
      <trkpt lat="47.58782" lon="-2.32026">
        <ele>53.3</ele>
        <time>2025-01-16T14:39:46Z</time>
      </trkpt>
      <trkpt lat="47.58782" lon="-2.32025">
        <ele>53.3</ele>
        <time>2025-01-16T14:39:47Z</time>
      </trkpt>
      <trkpt lat="47.58782" lon="-2.32023">
        <ele>53.3</ele>
        <time>2025-01-16T14:39:48Z</time>
      </trkpt>
      <trkpt lat="47.58782" lon="-2.32021">
        <ele>53.3</ele>
        <time>2025-01-16T14:39:49Z</time>
      </trkpt>
      <trkpt lat="47.58782" lon="-2.32019">
        <ele>53.3</ele>
        <time>2025-01-16T14:39:50Z</time>
      </trkpt>
      <trkpt lat="47.58781" lon="-2.32016">
        <ele>53.2</ele>
        <time>2025-01-16T14:39:51Z</time>
      </trkpt>
      <trkpt lat="47.58781" lon="-2.32014">
        <ele>53.2</ele>
        <time>2025-01-16T14:39:52Z</time>
      </trkpt>
      <trkpt lat="47.58781" lon="-2.32012">
        <ele>53.2</ele>
        <time>2025-01-16T14:39:53Z</time>
      </trkpt>
      <trkpt lat="47.58781" lon="-2.32011">
        <ele>53.2</ele>
        <time>2025-01-16T14:39:54Z</time>
      </trkpt>
      <trkpt lat="47.58781" lon="-2.32009">
        <ele>53.2</ele>
        <time>2025-01-16T14:39:55Z</time>
      </trkpt>
      <trkpt lat="47.58781" lon="-2.32007">
        <ele>53.1</ele>
        <time>2025-01-16T14:39:56Z</time>
      </trkpt>
      <trkpt lat="47.58781" lon="-2.32005">
        <ele>53.1</ele>
        <time>2025-01-16T14:39:57Z</time>
      </trkpt>
      <trkpt lat="47.58781" lon="-2.32004">
        <ele>53.1</ele>
        <time>2025-01-16T14:39:58Z</time>
      </trkpt>
      <trkpt lat="47.58781" lon="-2.32002">
        <ele>53.1</ele>
        <time>2025-01-16T14:39:59Z</time>
      </trkpt>
      <trkpt lat="47.58781" lon="-2.31999">
        <ele>53.1</ele>
        <time>2025-01-16T14:40:00Z</time>
      </trkpt>
      <trkpt lat="47.58781" lon="-2.31998">
        <ele>53.1</ele>
        <time>2025-01-16T14:40:01Z</time>
      </trkpt>
      <trkpt lat="47.58781" lon="-2.31996">
        <ele>53.1</ele>
        <time>2025-01-16T14:40:02Z</time>
      </trkpt>
      <trkpt lat="47.58782" lon="-2.31994">
        <ele>53.2</ele>
        <time>2025-01-16T14:40:03Z</time>
      </trkpt>
      <trkpt lat="47.58782" lon="-2.31993">
        <ele>53.2</ele>
        <time>2025-01-16T14:40:04Z</time>
      </trkpt>
      <trkpt lat="47.58782" lon="-2.31991">
        <ele>53.2</ele>
        <time>2025-01-16T14:40:05Z</time>
      </trkpt>
      <trkpt lat="47.58782" lon="-2.3199">
        <ele>53.2</ele>
        <time>2025-01-16T14:40:06Z</time>
      </trkpt>
      <trkpt lat="47.58782" lon="-2.31988">
        <ele>53.2</ele>
        <time>2025-01-16T14:40:07Z</time>
      </trkpt>
      <trkpt lat="47.58782" lon="-2.31986">
        <ele>53.2</ele>
        <time>2025-01-16T14:40:08Z</time>
      </trkpt>
      <trkpt lat="47.58783" lon="-2.31985">
        <ele>53.2</ele>
        <time>2025-01-16T14:40:09Z</time>
      </trkpt>
      <trkpt lat="47.58783" lon="-2.31984">
        <ele>53.2</ele>
        <time>2025-01-16T14:40:10Z</time>
      </trkpt>
      <trkpt lat="47.58783" lon="-2.31982">
        <ele>53.2</ele>
        <time>2025-01-16T14:40:11Z</time>
      </trkpt>
      <trkpt lat="47.58783" lon="-2.31981">
        <ele>53.2</ele>
        <time>2025-01-16T14:40:12Z</time>
      </trkpt>
      <trkpt lat="47.58783" lon="-2.3198">
        <ele>53.2</ele>
        <time>2025-01-16T14:40:13Z</time>
      </trkpt>
      <trkpt lat="47.58783" lon="-2.31978">
        <ele>53.2</ele>
        <time>2025-01-16T14:40:14Z</time>
      </trkpt>
      <trkpt lat="47.58783" lon="-2.31977">
        <ele>53.2</ele>
        <time>2025-01-16T14:40:15Z</time>
      </trkpt>
      <trkpt lat="47.58783" lon="-2.31976">
        <ele>53.2</ele>
        <time>2025-01-16T14:40:16Z</time>
      </trkpt>
      <trkpt lat="47.58783" lon="-2.31976">
        <ele>53.2</ele>
        <time>2025-01-16T14:40:17Z</time>
      </trkpt>
      <trkpt lat="47.58783" lon="-2.31977">
        <ele>53.2</ele>
        <time>2025-01-16T14:40:18Z</time>
      </trkpt>
      <trkpt lat="47.58784" lon="-2.31977">
        <ele>53.2</ele>
        <time>2025-01-16T14:40:19Z</time>
      </trkpt>
      <trkpt lat="47.58784" lon="-2.31978">
        <ele>53.2</ele>
        <time>2025-01-16T14:40:20Z</time>
      </trkpt>
      <trkpt lat="47.58784" lon="-2.31979">
        <ele>53.2</ele>
        <time>2025-01-16T14:40:21Z</time>
      </trkpt>
      <trkpt lat="47.58784" lon="-2.31979">
        <ele>53.2</ele>
        <time>2025-01-16T14:40:22Z</time>
      </trkpt>
      <trkpt lat="47.58784" lon="-2.31979">
        <ele>53.2</ele>
        <time>2025-01-16T14:40:23Z</time>
      </trkpt>
      <trkpt lat="47.58784" lon="-2.31979">
        <ele>53.2</ele>
        <time>2025-01-16T14:40:24Z</time>
      </trkpt>
      <trkpt lat="47.58784" lon="-2.31979">
        <ele>53.2</ele>
        <time>2025-01-16T14:40:25Z</time>
      </trkpt>
      <trkpt lat="47.58784" lon="-2.31979">
        <ele>53.2</ele>
        <time>2025-01-16T14:40:26Z</time>
      </trkpt>
      <trkpt lat="47.58784" lon="-2.31979">
        <ele>53.2</ele>
        <time>2025-01-16T14:40:27Z</time>
      </trkpt>
      <trkpt lat="47.58784" lon="-2.31979">
        <ele>53.2</ele>
        <time>2025-01-16T14:40:28Z</time>
      </trkpt>
      <trkpt lat="47.58784" lon="-2.31979">
        <ele>53.2</ele>
        <time>2025-01-16T14:40:29Z</time>
      </trkpt>
      <trkpt lat="47.58784" lon="-2.31978">
        <ele>53.2</ele>
        <time>2025-01-16T14:40:30Z</time>
      </trkpt>
      <trkpt lat="47.58784" lon="-2.31978">
        <ele>53.2</ele>
        <time>2025-01-16T14:40:31Z</time>
      </trkpt>
      <trkpt lat="47.58784" lon="-2.31978">
        <ele>53.2</ele>
        <time>2025-01-16T14:40:32Z</time>
      </trkpt>
      <trkpt lat="47.58784" lon="-2.31978">
        <ele>53.2</ele>
        <time>2025-01-16T14:40:33Z</time>
      </trkpt>
      <trkpt lat="47.58784" lon="-2.31978">
        <ele>53.2</ele>
        <time>2025-01-16T14:40:34Z</time>
      </trkpt>
      <trkpt lat="47.58784" lon="-2.31977">
        <ele>53.2</ele>
        <time>2025-01-16T14:40:35Z</time>
      </trkpt>
      <trkpt lat="47.58784" lon="-2.31977">
        <ele>53.2</ele>
        <time>2025-01-16T14:40:36Z</time>
      </trkpt>
      <trkpt lat="47.58784" lon="-2.31977">
        <ele>53.2</ele>
        <time>2025-01-16T14:40:37Z</time>
      </trkpt>
      <trkpt lat="47.58783" lon="-2.31977">
        <ele>53.2</ele>
        <time>2025-01-16T14:40:38Z</time>
      </trkpt>
      <trkpt lat="47.58783" lon="-2.31976">
        <ele>53.2</ele>
        <time>2025-01-16T14:40:39Z</time>
      </trkpt>
      <trkpt lat="47.58783" lon="-2.31976">
        <ele>53.2</ele>
        <time>2025-01-16T14:40:40Z</time>
      </trkpt>
      <trkpt lat="47.58783" lon="-2.31976">
        <ele>53.2</ele>
        <time>2025-01-16T14:40:41Z</time>
      </trkpt>
      <trkpt lat="47.58783" lon="-2.31976">
        <ele>53.2</ele>
        <time>2025-01-16T14:40:42Z</time>
      </trkpt>
      <trkpt lat="47.58783" lon="-2.31976">
        <ele>53.2</ele>
        <time>2025-01-16T14:40:43Z</time>
      </trkpt>
      <trkpt lat="47.58783" lon="-2.31976">
        <ele>53.2</ele>
        <time>2025-01-16T14:40:44Z</time>
      </trkpt>
      <trkpt lat="47.58783" lon="-2.31975">
        <ele>53.2</ele>
        <time>2025-01-16T14:40:45Z</time>
      </trkpt>
      <trkpt lat="47.58783" lon="-2.31975">
        <ele>53.2</ele>
        <time>2025-01-16T14:40:46Z</time>
      </trkpt>
      <trkpt lat="47.58783" lon="-2.31975">
        <ele>53.2</ele>
        <time>2025-01-16T14:40:47Z</time>
      </trkpt>
      <trkpt lat="47.58783" lon="-2.31975">
        <ele>53.2</ele>
        <time>2025-01-16T14:40:48Z</time>
      </trkpt>
      <trkpt lat="47.58783" lon="-2.31976">
        <ele>53.2</ele>
        <time>2025-01-16T14:40:49Z</time>
      </trkpt>
      <trkpt lat="47.58783" lon="-2.31976">
        <ele>53.2</ele>
        <time>2025-01-16T14:40:50Z</time>
      </trkpt>
      <trkpt lat="47.58783" lon="-2.31976">
        <ele>53.2</ele>
        <time>2025-01-16T14:40:51Z</time>
      </trkpt>
      <trkpt lat="47.58783" lon="-2.31976">
        <ele>53.2</ele>
        <time>2025-01-16T14:40:52Z</time>
      </trkpt>
      <trkpt lat="47.58783" lon="-2.31976">
        <ele>53.2</ele>
        <time>2025-01-16T14:40:53Z</time>
      </trkpt>
      <trkpt lat="47.58783" lon="-2.31976">
        <ele>53.2</ele>
        <time>2025-01-16T14:40:54Z</time>
      </trkpt>
      <trkpt lat="47.58783" lon="-2.31976">
        <ele>53.2</ele>
        <time>2025-01-16T14:40:55Z</time>
      </trkpt>
      <trkpt lat="47.58783" lon="-2.31976">
        <ele>53.2</ele>
        <time>2025-01-16T14:40:56Z</time>
      </trkpt>
      <trkpt lat="47.58783" lon="-2.31976">
        <ele>53.2</ele>
        <time>2025-01-16T14:40:57Z</time>
      </trkpt>
      <trkpt lat="47.58783" lon="-2.31976">
        <ele>53.2</ele>
        <time>2025-01-16T14:40:58Z</time>
      </trkpt>
      <trkpt lat="47.58783" lon="-2.31976">
        <ele>53.2</ele>
        <time>2025-01-16T14:40:59Z</time>
      </trkpt>
      <trkpt lat="47.58783" lon="-2.31976">
        <ele>53.2</ele>
        <time>2025-01-16T14:41:00Z</time>
      </trkpt>
      <trkpt lat="47.58783" lon="-2.31976">
        <ele>53.2</ele>
        <time>2025-01-16T14:41:01Z</time>
      </trkpt>
      <trkpt lat="47.58783" lon="-2.31976">
        <ele>53.2</ele>
        <time>2025-01-16T14:41:02Z</time>
      </trkpt>
      <trkpt lat="47.58783" lon="-2.31976">
        <ele>53.2</ele>
        <time>2025-01-16T14:41:03Z</time>
      </trkpt>
      <trkpt lat="47.58783" lon="-2.31976">
        <ele>53.2</ele>
        <time>2025-01-16T14:41:04Z</time>
      </trkpt>
      <trkpt lat="47.58783" lon="-2.31976">
        <ele>53.2</ele>
        <time>2025-01-16T14:41:05Z</time>
      </trkpt>
      <trkpt lat="47.58783" lon="-2.31976">
        <ele>53.2</ele>
        <time>2025-01-16T14:41:06Z</time>
      </trkpt>
      <trkpt lat="47.58783" lon="-2.31976">
        <ele>53.2</ele>
        <time>2025-01-16T14:41:07Z</time>
      </trkpt>
      <trkpt lat="47.58783" lon="-2.31976">
        <ele>53.2</ele>
        <time>2025-01-16T14:41:08Z</time>
      </trkpt>
      <trkpt lat="47.58783" lon="-2.31976">
        <ele>53.2</ele>
        <time>2025-01-16T14:41:09Z</time>
      </trkpt>
      <trkpt lat="47.58783" lon="-2.31976">
        <ele>53.2</ele>
        <time>2025-01-16T14:41:10Z</time>
      </trkpt>
      <trkpt lat="47.58783" lon="-2.31976">
        <ele>53.2</ele>
        <time>2025-01-16T14:41:11Z</time>
      </trkpt>
      <trkpt lat="47.58783" lon="-2.31976">
        <ele>53.2</ele>
        <time>2025-01-16T14:41:12Z</time>
      </trkpt>
      <trkpt lat="47.58784" lon="-2.31976">
        <ele>53.2</ele>
        <time>2025-01-16T14:41:13Z</time>
      </trkpt>
      <trkpt lat="47.58785" lon="-2.31976">
        <ele>53.3</ele>
        <time>2025-01-16T14:41:14Z</time>
      </trkpt>
      <trkpt lat="47.58784" lon="-2.31975">
        <ele>53.2</ele>
        <time>2025-01-16T14:41:15Z</time>
      </trkpt>
      <trkpt lat="47.58784" lon="-2.31975">
        <ele>53.2</ele>
        <time>2025-01-16T14:41:16Z</time>
      </trkpt>
      <trkpt lat="47.58783" lon="-2.31975">
        <ele>53.2</ele>
        <time>2025-01-16T14:41:17Z</time>
      </trkpt>
      <trkpt lat="47.58783" lon="-2.31974">
        <ele>53.2</ele>
        <time>2025-01-16T14:41:18Z</time>
      </trkpt>
      <trkpt lat="47.58784" lon="-2.31974">
        <ele>53.2</ele>
        <time>2025-01-16T14:41:19Z</time>
      </trkpt>
      <trkpt lat="47.58784" lon="-2.31974">
        <ele>53.2</ele>
        <time>2025-01-16T14:41:20Z</time>
      </trkpt>
      <trkpt lat="47.58784" lon="-2.31974">
        <ele>53.2</ele>
        <time>2025-01-16T14:41:21Z</time>
      </trkpt>
      <trkpt lat="47.58785" lon="-2.31974">
        <ele>53.3</ele>
        <time>2025-01-16T14:41:22Z</time>
      </trkpt>
      <trkpt lat="47.58785" lon="-2.31973">
        <ele>53.3</ele>
        <time>2025-01-16T14:41:23Z</time>
      </trkpt>
      <trkpt lat="47.58785" lon="-2.31972">
        <ele>53.3</ele>
        <time>2025-01-16T14:41:24Z</time>
      </trkpt>
      <trkpt lat="47.58785" lon="-2.31971">
        <ele>53.2</ele>
        <time>2025-01-16T14:41:25Z</time>
      </trkpt>
      <trkpt lat="47.58786" lon="-2.3197">
        <ele>53.2</ele>
        <time>2025-01-16T14:41:26Z</time>
      </trkpt>
      <trkpt lat="47.58786" lon="-2.31969">
        <ele>53.2</ele>
        <time>2025-01-16T14:41:27Z</time>
      </trkpt>
      <trkpt lat="47.58786" lon="-2.31967">
        <ele>53.1</ele>
        <time>2025-01-16T14:41:28Z</time>
      </trkpt>
      <trkpt lat="47.58786" lon="-2.31966">
        <ele>53.1</ele>
        <time>2025-01-16T14:41:29Z</time>
      </trkpt>
      <trkpt lat="47.58786" lon="-2.31964">
        <ele>53</ele>
        <time>2025-01-16T14:41:30Z</time>
      </trkpt>
      <trkpt lat="47.58786" lon="-2.31962">
        <ele>52.9</ele>
        <time>2025-01-16T14:41:31Z</time>
      </trkpt>
      <trkpt lat="47.58786" lon="-2.31961">
        <ele>52.9</ele>
        <time>2025-01-16T14:41:32Z</time>
      </trkpt>
      <trkpt lat="47.58786" lon="-2.31959">
        <ele>52.8</ele>
        <time>2025-01-16T14:41:33Z</time>
      </trkpt>
      <trkpt lat="47.58786" lon="-2.31958">
        <ele>52.8</ele>
        <time>2025-01-16T14:41:34Z</time>
      </trkpt>
      <trkpt lat="47.58786" lon="-2.31957">
        <ele>52.7</ele>
        <time>2025-01-16T14:41:35Z</time>
      </trkpt>
      <trkpt lat="47.58786" lon="-2.31955">
        <ele>52.7</ele>
        <time>2025-01-16T14:41:36Z</time>
      </trkpt>
      <trkpt lat="47.58786" lon="-2.31954">
        <ele>52.6</ele>
        <time>2025-01-16T14:41:37Z</time>
      </trkpt>
      <trkpt lat="47.58786" lon="-2.31953">
        <ele>52.6</ele>
        <time>2025-01-16T14:41:38Z</time>
      </trkpt>
      <trkpt lat="47.58786" lon="-2.31951">
        <ele>52.5</ele>
        <time>2025-01-16T14:41:39Z</time>
      </trkpt>
      <trkpt lat="47.58786" lon="-2.3195">
        <ele>52.5</ele>
        <time>2025-01-16T14:41:40Z</time>
      </trkpt>
      <trkpt lat="47.58786" lon="-2.31948">
        <ele>52.4</ele>
        <time>2025-01-16T14:41:41Z</time>
      </trkpt>
      <trkpt lat="47.58786" lon="-2.31946">
        <ele>52.4</ele>
        <time>2025-01-16T14:41:42Z</time>
      </trkpt>
      <trkpt lat="47.58785" lon="-2.31944">
        <ele>52.3</ele>
        <time>2025-01-16T14:41:43Z</time>
      </trkpt>
      <trkpt lat="47.58785" lon="-2.31943">
        <ele>52.2</ele>
        <time>2025-01-16T14:41:44Z</time>
      </trkpt>
      <trkpt lat="47.58785" lon="-2.31941">
        <ele>52.2</ele>
        <time>2025-01-16T14:41:45Z</time>
      </trkpt>
      <trkpt lat="47.58785" lon="-2.3194">
        <ele>52.2</ele>
        <time>2025-01-16T14:41:46Z</time>
      </trkpt>
      <trkpt lat="47.58784" lon="-2.31939">
        <ele>52.1</ele>
        <time>2025-01-16T14:41:47Z</time>
      </trkpt>
      <trkpt lat="47.58784" lon="-2.31939">
        <ele>52.1</ele>
        <time>2025-01-16T14:41:48Z</time>
      </trkpt>
      <trkpt lat="47.58784" lon="-2.31938">
        <ele>52.1</ele>
        <time>2025-01-16T14:41:49Z</time>
      </trkpt>
      <trkpt lat="47.58784" lon="-2.31938">
        <ele>52.1</ele>
        <time>2025-01-16T14:41:50Z</time>
      </trkpt>
      <trkpt lat="47.58784" lon="-2.31937">
        <ele>52.1</ele>
        <time>2025-01-16T14:41:51Z</time>
      </trkpt>
      <trkpt lat="47.58785" lon="-2.31937">
        <ele>52.1</ele>
        <time>2025-01-16T14:41:52Z</time>
      </trkpt>
      <trkpt lat="47.58785" lon="-2.31937">
        <ele>52.1</ele>
        <time>2025-01-16T14:41:53Z</time>
      </trkpt>
      <trkpt lat="47.58785" lon="-2.31937">
        <ele>52.1</ele>
        <time>2025-01-16T14:41:54Z</time>
      </trkpt>
      <trkpt lat="47.58785" lon="-2.31937">
        <ele>52.1</ele>
        <time>2025-01-16T14:41:55Z</time>
      </trkpt>
      <trkpt lat="47.58785" lon="-2.31936">
        <ele>52.1</ele>
        <time>2025-01-16T14:41:56Z</time>
      </trkpt>
      <trkpt lat="47.58785" lon="-2.31936">
        <ele>52.1</ele>
        <time>2025-01-16T14:41:57Z</time>
      </trkpt>
      <trkpt lat="47.58785" lon="-2.31936">
        <ele>52.1</ele>
        <time>2025-01-16T14:41:58Z</time>
      </trkpt>
      <trkpt lat="47.58785" lon="-2.31936">
        <ele>52.1</ele>
        <time>2025-01-16T14:41:59Z</time>
      </trkpt>
      <trkpt lat="47.58785" lon="-2.31936">
        <ele>52.1</ele>
        <time>2025-01-16T14:42:00Z</time>
      </trkpt>
      <trkpt lat="47.58785" lon="-2.31936">
        <ele>52.1</ele>
        <time>2025-01-16T14:42:01Z</time>
      </trkpt>
      <trkpt lat="47.58785" lon="-2.31936">
        <ele>52.1</ele>
        <time>2025-01-16T14:42:02Z</time>
      </trkpt>
      <trkpt lat="47.58785" lon="-2.31936">
        <ele>52.1</ele>
        <time>2025-01-16T14:42:03Z</time>
      </trkpt>
      <trkpt lat="47.58785" lon="-2.31936">
        <ele>52.1</ele>
        <time>2025-01-16T14:42:04Z</time>
      </trkpt>
      <trkpt lat="47.58785" lon="-2.31936">
        <ele>52.1</ele>
        <time>2025-01-16T14:42:05Z</time>
      </trkpt>
      <trkpt lat="47.58785" lon="-2.31936">
        <ele>52.1</ele>
        <time>2025-01-16T14:42:06Z</time>
      </trkpt>
      <trkpt lat="47.58785" lon="-2.31936">
        <ele>52.1</ele>
        <time>2025-01-16T14:42:07Z</time>
      </trkpt>
      <trkpt lat="47.58785" lon="-2.31936">
        <ele>52.1</ele>
        <time>2025-01-16T14:42:08Z</time>
      </trkpt>
      <trkpt lat="47.58785" lon="-2.31936">
        <ele>52.1</ele>
        <time>2025-01-16T14:42:09Z</time>
      </trkpt>
      <trkpt lat="47.58785" lon="-2.31936">
        <ele>52.1</ele>
        <time>2025-01-16T14:42:10Z</time>
      </trkpt>
      <trkpt lat="47.58785" lon="-2.31935">
        <ele>52.1</ele>
        <time>2025-01-16T14:42:11Z</time>
      </trkpt>
      <trkpt lat="47.58785" lon="-2.31934">
        <ele>52.1</ele>
        <time>2025-01-16T14:42:12Z</time>
      </trkpt>
      <trkpt lat="47.58785" lon="-2.31933">
        <ele>52.1</ele>
        <time>2025-01-16T14:42:13Z</time>
      </trkpt>
      <trkpt lat="47.58785" lon="-2.31932">
        <ele>52</ele>
        <time>2025-01-16T14:42:14Z</time>
      </trkpt>
      <trkpt lat="47.58785" lon="-2.31931">
        <ele>52</ele>
        <time>2025-01-16T14:42:15Z</time>
      </trkpt>
      <trkpt lat="47.58785" lon="-2.31929">
        <ele>52</ele>
        <time>2025-01-16T14:42:16Z</time>
      </trkpt>
      <trkpt lat="47.58786" lon="-2.31928">
        <ele>52.1</ele>
        <time>2025-01-16T14:42:17Z</time>
      </trkpt>
      <trkpt lat="47.58786" lon="-2.31926">
        <ele>52</ele>
        <time>2025-01-16T14:42:18Z</time>
      </trkpt>
      <trkpt lat="47.58785" lon="-2.31924">
        <ele>51.9</ele>
        <time>2025-01-16T14:42:19Z</time>
      </trkpt>
      <trkpt lat="47.58785" lon="-2.31922">
        <ele>51.9</ele>
        <time>2025-01-16T14:42:20Z</time>
      </trkpt>
      <trkpt lat="47.58785" lon="-2.3192">
        <ele>51.8</ele>
        <time>2025-01-16T14:42:21Z</time>
      </trkpt>
      <trkpt lat="47.58785" lon="-2.31918">
        <ele>51.8</ele>
        <time>2025-01-16T14:42:22Z</time>
      </trkpt>
      <trkpt lat="47.58785" lon="-2.31916">
        <ele>51.7</ele>
        <time>2025-01-16T14:42:23Z</time>
      </trkpt>
      <trkpt lat="47.58785" lon="-2.31914">
        <ele>51.6</ele>
        <time>2025-01-16T14:42:24Z</time>
      </trkpt>
      <trkpt lat="47.58785" lon="-2.31913">
        <ele>51.6</ele>
        <time>2025-01-16T14:42:25Z</time>
      </trkpt>
      <trkpt lat="47.58785" lon="-2.31911">
        <ele>51.5</ele>
        <time>2025-01-16T14:42:26Z</time>
      </trkpt>
      <trkpt lat="47.58785" lon="-2.31909">
        <ele>51.4</ele>
        <time>2025-01-16T14:42:27Z</time>
      </trkpt>
      <trkpt lat="47.58785" lon="-2.31908">
        <ele>51.3</ele>
        <time>2025-01-16T14:42:28Z</time>
      </trkpt>
      <trkpt lat="47.58785" lon="-2.31907">
        <ele>51.3</ele>
        <time>2025-01-16T14:42:29Z</time>
      </trkpt>
      <trkpt lat="47.58785" lon="-2.31906">
        <ele>51.2</ele>
        <time>2025-01-16T14:42:30Z</time>
      </trkpt>
      <trkpt lat="47.58785" lon="-2.31905">
        <ele>51.2</ele>
        <time>2025-01-16T14:42:31Z</time>
      </trkpt>
      <trkpt lat="47.58785" lon="-2.31904">
        <ele>51.1</ele>
        <time>2025-01-16T14:42:32Z</time>
      </trkpt>
      <trkpt lat="47.58785" lon="-2.31903">
        <ele>51.1</ele>
        <time>2025-01-16T14:42:33Z</time>
      </trkpt>
      <trkpt lat="47.58785" lon="-2.31901">
        <ele>50.9</ele>
        <time>2025-01-16T14:42:34Z</time>
      </trkpt>
      <trkpt lat="47.58785" lon="-2.319">
        <ele>50.9</ele>
        <time>2025-01-16T14:42:35Z</time>
      </trkpt>
      <trkpt lat="47.58785" lon="-2.31899">
        <ele>50.8</ele>
        <time>2025-01-16T14:42:36Z</time>
      </trkpt>
      <trkpt lat="47.58785" lon="-2.31897">
        <ele>50.7</ele>
        <time>2025-01-16T14:42:37Z</time>
      </trkpt>
      <trkpt lat="47.58785" lon="-2.31896">
        <ele>50.7</ele>
        <time>2025-01-16T14:42:38Z</time>
      </trkpt>
      <trkpt lat="47.58785" lon="-2.31894">
        <ele>50.6</ele>
        <time>2025-01-16T14:42:39Z</time>
      </trkpt>
      <trkpt lat="47.58785" lon="-2.31892">
        <ele>50.5</ele>
        <time>2025-01-16T14:42:40Z</time>
      </trkpt>
      <trkpt lat="47.58785" lon="-2.31889">
        <ele>50.3</ele>
        <time>2025-01-16T14:42:41Z</time>
      </trkpt>
      <trkpt lat="47.58784" lon="-2.31887">
        <ele>50.1</ele>
        <time>2025-01-16T14:42:42Z</time>
      </trkpt>
      <trkpt lat="47.58784" lon="-2.31885">
        <ele>50.1</ele>
        <time>2025-01-16T14:42:43Z</time>
      </trkpt>
      <trkpt lat="47.58784" lon="-2.31884">
        <ele>50.1</ele>
        <time>2025-01-16T14:42:44Z</time>
      </trkpt>
      <trkpt lat="47.58784" lon="-2.31883">
        <ele>50.1</ele>
        <time>2025-01-16T14:42:45Z</time>
      </trkpt>
      <trkpt lat="47.58784" lon="-2.31881">
        <ele>50.1</ele>
        <time>2025-01-16T14:42:46Z</time>
      </trkpt>
      <trkpt lat="47.58784" lon="-2.31879">
        <ele>50.1</ele>
        <time>2025-01-16T14:42:47Z</time>
      </trkpt>
      <trkpt lat="47.58785" lon="-2.31877">
        <ele>50.3</ele>
        <time>2025-01-16T14:42:48Z</time>
      </trkpt>
      <trkpt lat="47.58785" lon="-2.31876">
        <ele>50.3</ele>
        <time>2025-01-16T14:42:49Z</time>
      </trkpt>
      <trkpt lat="47.58786" lon="-2.31875">
        <ele>50.5</ele>
        <time>2025-01-16T14:42:50Z</time>
      </trkpt>
      <trkpt lat="47.58787" lon="-2.31874">
        <ele>50.7</ele>
        <time>2025-01-16T14:42:51Z</time>
      </trkpt>
      <trkpt lat="47.58787" lon="-2.31873">
        <ele>50.7</ele>
        <time>2025-01-16T14:42:52Z</time>
      </trkpt>
      <trkpt lat="47.58787" lon="-2.31871">
        <ele>50.7</ele>
        <time>2025-01-16T14:42:53Z</time>
      </trkpt>
      <trkpt lat="47.58787" lon="-2.31869">
        <ele>50.7</ele>
        <time>2025-01-16T14:42:54Z</time>
      </trkpt>
      <trkpt lat="47.58787" lon="-2.31866">
        <ele>50.7</ele>
        <time>2025-01-16T14:42:55Z</time>
      </trkpt>
      <trkpt lat="47.58787" lon="-2.31864">
        <ele>50.7</ele>
        <time>2025-01-16T14:42:56Z</time>
      </trkpt>
      <trkpt lat="47.58787" lon="-2.31862">
        <ele>50.7</ele>
        <time>2025-01-16T14:42:57Z</time>
      </trkpt>
      <trkpt lat="47.58787" lon="-2.3186">
        <ele>50.6</ele>
        <time>2025-01-16T14:42:58Z</time>
      </trkpt>
      <trkpt lat="47.58787" lon="-2.31858">
        <ele>50.5</ele>
        <time>2025-01-16T14:42:59Z</time>
      </trkpt>
      <trkpt lat="47.58787" lon="-2.31855">
        <ele>50.4</ele>
        <time>2025-01-16T14:43:00Z</time>
      </trkpt>
      <trkpt lat="47.58787" lon="-2.31853">
        <ele>50.4</ele>
        <time>2025-01-16T14:43:01Z</time>
      </trkpt>
      <trkpt lat="47.58786" lon="-2.31851">
        <ele>50.1</ele>
        <time>2025-01-16T14:43:02Z</time>
      </trkpt>
      <trkpt lat="47.58786" lon="-2.31849">
        <ele>50</ele>
        <time>2025-01-16T14:43:03Z</time>
      </trkpt>
      <trkpt lat="47.58786" lon="-2.31847">
        <ele>50</ele>
        <time>2025-01-16T14:43:04Z</time>
      </trkpt>
      <trkpt lat="47.58786" lon="-2.31844">
        <ele>49.9</ele>
        <time>2025-01-16T14:43:05Z</time>
      </trkpt>
      <trkpt lat="47.58786" lon="-2.31842">
        <ele>49.8</ele>
        <time>2025-01-16T14:43:06Z</time>
      </trkpt>
      <trkpt lat="47.58785" lon="-2.31841">
        <ele>49.6</ele>
        <time>2025-01-16T14:43:07Z</time>
      </trkpt>
      <trkpt lat="47.58785" lon="-2.31839">
        <ele>49.5</ele>
        <time>2025-01-16T14:43:08Z</time>
      </trkpt>
      <trkpt lat="47.58785" lon="-2.31837">
        <ele>49.4</ele>
        <time>2025-01-16T14:43:09Z</time>
      </trkpt>
      <trkpt lat="47.58785" lon="-2.31835">
        <ele>49.4</ele>
        <time>2025-01-16T14:43:10Z</time>
      </trkpt>
      <trkpt lat="47.58785" lon="-2.31833">
        <ele>49.3</ele>
        <time>2025-01-16T14:43:11Z</time>
      </trkpt>
      <trkpt lat="47.58785" lon="-2.31831">
        <ele>49.3</ele>
        <time>2025-01-16T14:43:12Z</time>
      </trkpt>
      <trkpt lat="47.58785" lon="-2.31829">
        <ele>49.3</ele>
        <time>2025-01-16T14:43:13Z</time>
      </trkpt>
      <trkpt lat="47.58785" lon="-2.31828">
        <ele>49.3</ele>
        <time>2025-01-16T14:43:14Z</time>
      </trkpt>
      <trkpt lat="47.58785" lon="-2.31826">
        <ele>49.2</ele>
        <time>2025-01-16T14:43:15Z</time>
      </trkpt>
      <trkpt lat="47.58785" lon="-2.31824">
        <ele>49.2</ele>
        <time>2025-01-16T14:43:16Z</time>
      </trkpt>
      <trkpt lat="47.58785" lon="-2.31823">
        <ele>49.2</ele>
        <time>2025-01-16T14:43:17Z</time>
      </trkpt>
      <trkpt lat="47.58785" lon="-2.31821">
        <ele>49.2</ele>
        <time>2025-01-16T14:43:18Z</time>
      </trkpt>
      <trkpt lat="47.58785" lon="-2.3182">
        <ele>49.2</ele>
        <time>2025-01-16T14:43:19Z</time>
      </trkpt>
      <trkpt lat="47.58785" lon="-2.31818">
        <ele>49.2</ele>
        <time>2025-01-16T14:43:20Z</time>
      </trkpt>
      <trkpt lat="47.58785" lon="-2.31817">
        <ele>49.1</ele>
        <time>2025-01-16T14:43:21Z</time>
      </trkpt>
      <trkpt lat="47.58785" lon="-2.31815">
        <ele>49.1</ele>
        <time>2025-01-16T14:43:22Z</time>
      </trkpt>
      <trkpt lat="47.58785" lon="-2.31813">
        <ele>49.1</ele>
        <time>2025-01-16T14:43:23Z</time>
      </trkpt>
      <trkpt lat="47.58786" lon="-2.31811">
        <ele>49.2</ele>
        <time>2025-01-16T14:43:24Z</time>
      </trkpt>
      <trkpt lat="47.58786" lon="-2.3181">
        <ele>49.2</ele>
        <time>2025-01-16T14:43:25Z</time>
      </trkpt>
      <trkpt lat="47.58786" lon="-2.31808">
        <ele>49.2</ele>
        <time>2025-01-16T14:43:26Z</time>
      </trkpt>
      <trkpt lat="47.58786" lon="-2.31806">
        <ele>49.2</ele>
        <time>2025-01-16T14:43:27Z</time>
      </trkpt>
      <trkpt lat="47.58786" lon="-2.31804">
        <ele>49.2</ele>
        <time>2025-01-16T14:43:28Z</time>
      </trkpt>
      <trkpt lat="47.58786" lon="-2.31802">
        <ele>49.2</ele>
        <time>2025-01-16T14:43:29Z</time>
      </trkpt>
      <trkpt lat="47.58787" lon="-2.318">
        <ele>49.3</ele>
        <time>2025-01-16T14:43:30Z</time>
      </trkpt>
      <trkpt lat="47.58787" lon="-2.31798">
        <ele>49.3</ele>
        <time>2025-01-16T14:43:31Z</time>
      </trkpt>
      <trkpt lat="47.58787" lon="-2.31796">
        <ele>49.3</ele>
        <time>2025-01-16T14:43:32Z</time>
      </trkpt>
      <trkpt lat="47.58787" lon="-2.31794">
        <ele>49.3</ele>
        <time>2025-01-16T14:43:33Z</time>
      </trkpt>
      <trkpt lat="47.58787" lon="-2.31792">
        <ele>49.3</ele>
        <time>2025-01-16T14:43:34Z</time>
      </trkpt>
      <trkpt lat="47.58787" lon="-2.31791">
        <ele>49.3</ele>
        <time>2025-01-16T14:43:35Z</time>
      </trkpt>
      <trkpt lat="47.58786" lon="-2.3179">
        <ele>49.2</ele>
        <time>2025-01-16T14:43:36Z</time>
      </trkpt>
      <trkpt lat="47.58786" lon="-2.31788">
        <ele>49.2</ele>
        <time>2025-01-16T14:43:37Z</time>
      </trkpt>
      <trkpt lat="47.58786" lon="-2.31786">
        <ele>49.2</ele>
        <time>2025-01-16T14:43:38Z</time>
      </trkpt>
      <trkpt lat="47.58785" lon="-2.31785">
        <ele>49</ele>
        <time>2025-01-16T14:43:39Z</time>
      </trkpt>
      <trkpt lat="47.58785" lon="-2.31784">
        <ele>49</ele>
        <time>2025-01-16T14:43:40Z</time>
      </trkpt>
      <trkpt lat="47.58785" lon="-2.31784">
        <ele>49</ele>
        <time>2025-01-16T14:43:41Z</time>
      </trkpt>
      <trkpt lat="47.58785" lon="-2.31784">
        <ele>49</ele>
        <time>2025-01-16T14:43:42Z</time>
      </trkpt>
      <trkpt lat="47.58785" lon="-2.31783">
        <ele>49</ele>
        <time>2025-01-16T14:43:43Z</time>
      </trkpt>
      <trkpt lat="47.58785" lon="-2.31782">
        <ele>49</ele>
        <time>2025-01-16T14:43:44Z</time>
      </trkpt>
      <trkpt lat="47.58785" lon="-2.3178">
        <ele>49</ele>
        <time>2025-01-16T14:43:45Z</time>
      </trkpt>
      <trkpt lat="47.58784" lon="-2.31779">
        <ele>48.9</ele>
        <time>2025-01-16T14:43:46Z</time>
      </trkpt>
      <trkpt lat="47.58784" lon="-2.31778">
        <ele>48.9</ele>
        <time>2025-01-16T14:43:47Z</time>
      </trkpt>
      <trkpt lat="47.58784" lon="-2.31777">
        <ele>48.9</ele>
        <time>2025-01-16T14:43:48Z</time>
      </trkpt>
      <trkpt lat="47.58783" lon="-2.31778">
        <ele>48.8</ele>
        <time>2025-01-16T14:43:49Z</time>
      </trkpt>
      <trkpt lat="47.58784" lon="-2.31779">
        <ele>48.9</ele>
        <time>2025-01-16T14:43:50Z</time>
      </trkpt>
      <trkpt lat="47.58783" lon="-2.3178">
        <ele>48.8</ele>
        <time>2025-01-16T14:43:51Z</time>
      </trkpt>
      <trkpt lat="47.58784" lon="-2.3178">
        <ele>48.9</ele>
        <time>2025-01-16T14:43:52Z</time>
      </trkpt>
      <trkpt lat="47.58784" lon="-2.31781">
        <ele>48.9</ele>
        <time>2025-01-16T14:43:53Z</time>
      </trkpt>
      <trkpt lat="47.58784" lon="-2.31782">
        <ele>48.9</ele>
        <time>2025-01-16T14:43:54Z</time>
      </trkpt>
      <trkpt lat="47.58783" lon="-2.31782">
        <ele>48.8</ele>
        <time>2025-01-16T14:43:55Z</time>
      </trkpt>
      <trkpt lat="47.58783" lon="-2.31782">
        <ele>48.8</ele>
        <time>2025-01-16T14:43:56Z</time>
      </trkpt>
      <trkpt lat="47.58783" lon="-2.31782">
        <ele>48.8</ele>
        <time>2025-01-16T14:43:57Z</time>
      </trkpt>
      <trkpt lat="47.58783" lon="-2.31782">
        <ele>48.8</ele>
        <time>2025-01-16T14:43:58Z</time>
      </trkpt>
      <trkpt lat="47.58783" lon="-2.31782">
        <ele>48.8</ele>
        <time>2025-01-16T14:43:59Z</time>
      </trkpt>
      <trkpt lat="47.58783" lon="-2.31782">
        <ele>48.8</ele>
        <time>2025-01-16T14:44:00Z</time>
      </trkpt>
      <trkpt lat="47.58783" lon="-2.31782">
        <ele>48.8</ele>
        <time>2025-01-16T14:44:01Z</time>
      </trkpt>
      <trkpt lat="47.58783" lon="-2.31781">
        <ele>48.8</ele>
        <time>2025-01-16T14:44:02Z</time>
      </trkpt>
      <trkpt lat="47.58783" lon="-2.31781">
        <ele>48.8</ele>
        <time>2025-01-16T14:44:03Z</time>
      </trkpt>
      <trkpt lat="47.58782" lon="-2.31781">
        <ele>48.6</ele>
        <time>2025-01-16T14:44:04Z</time>
      </trkpt>
      <trkpt lat="47.58782" lon="-2.31781">
        <ele>48.6</ele>
        <time>2025-01-16T14:44:05Z</time>
      </trkpt>
      <trkpt lat="47.58782" lon="-2.31782">
        <ele>48.6</ele>
        <time>2025-01-16T14:44:06Z</time>
      </trkpt>
      <trkpt lat="47.58782" lon="-2.31782">
        <ele>48.6</ele>
        <time>2025-01-16T14:44:07Z</time>
      </trkpt>
      <trkpt lat="47.58782" lon="-2.31782">
        <ele>48.6</ele>
        <time>2025-01-16T14:44:08Z</time>
      </trkpt>
      <trkpt lat="47.58782" lon="-2.31781">
        <ele>48.6</ele>
        <time>2025-01-16T14:44:09Z</time>
      </trkpt>
      <trkpt lat="47.58782" lon="-2.31781">
        <ele>48.6</ele>
        <time>2025-01-16T14:44:10Z</time>
      </trkpt>
      <trkpt lat="47.5878" lon="-2.31781">
        <ele>48.3</ele>
        <time>2025-01-16T14:44:11Z</time>
      </trkpt>
      <trkpt lat="47.5878" lon="-2.31781">
        <ele>48.3</ele>
        <time>2025-01-16T14:44:12Z</time>
      </trkpt>
      <trkpt lat="47.58779" lon="-2.31781">
        <ele>48.2</ele>
        <time>2025-01-16T14:44:13Z</time>
      </trkpt>
      <trkpt lat="47.58779" lon="-2.31781">
        <ele>48.2</ele>
        <time>2025-01-16T14:44:14Z</time>
      </trkpt>
      <trkpt lat="47.5878" lon="-2.3178">
        <ele>48.3</ele>
        <time>2025-01-16T14:44:15Z</time>
      </trkpt>
      <trkpt lat="47.5878" lon="-2.3178">
        <ele>48.3</ele>
        <time>2025-01-16T14:44:16Z</time>
      </trkpt>
      <trkpt lat="47.58781" lon="-2.3178">
        <ele>48.5</ele>
        <time>2025-01-16T14:44:17Z</time>
      </trkpt>
      <trkpt lat="47.58781" lon="-2.3178">
        <ele>48.5</ele>
        <time>2025-01-16T14:44:18Z</time>
      </trkpt>
      <trkpt lat="47.58781" lon="-2.3178">
        <ele>48.5</ele>
        <time>2025-01-16T14:44:19Z</time>
      </trkpt>
      <trkpt lat="47.58781" lon="-2.3178">
        <ele>48.5</ele>
        <time>2025-01-16T14:44:20Z</time>
      </trkpt>
      <trkpt lat="47.58781" lon="-2.3178">
        <ele>48.5</ele>
        <time>2025-01-16T14:44:21Z</time>
      </trkpt>
      <trkpt lat="47.58782" lon="-2.3178">
        <ele>48.6</ele>
        <time>2025-01-16T14:44:22Z</time>
      </trkpt>
      <trkpt lat="47.58782" lon="-2.3178">
        <ele>48.6</ele>
        <time>2025-01-16T14:44:23Z</time>
      </trkpt>
      <trkpt lat="47.58782" lon="-2.3178">
        <ele>48.6</ele>
        <time>2025-01-16T14:44:24Z</time>
      </trkpt>
      <trkpt lat="47.58782" lon="-2.3178">
        <ele>48.6</ele>
        <time>2025-01-16T14:44:25Z</time>
      </trkpt>
      <trkpt lat="47.58782" lon="-2.3178">
        <ele>48.6</ele>
        <time>2025-01-16T14:44:26Z</time>
      </trkpt>
      <trkpt lat="47.58782" lon="-2.3178">
        <ele>48.6</ele>
        <time>2025-01-16T14:44:27Z</time>
      </trkpt>
      <trkpt lat="47.58783" lon="-2.3178">
        <ele>48.8</ele>
        <time>2025-01-16T14:44:28Z</time>
      </trkpt>
      <trkpt lat="47.58783" lon="-2.3178">
        <ele>48.8</ele>
        <time>2025-01-16T14:44:29Z</time>
      </trkpt>
      <trkpt lat="47.58783" lon="-2.31779">
        <ele>48.8</ele>
        <time>2025-01-16T14:44:30Z</time>
      </trkpt>
      <trkpt lat="47.58783" lon="-2.31779">
        <ele>48.8</ele>
        <time>2025-01-16T14:44:31Z</time>
      </trkpt>
      <trkpt lat="47.58783" lon="-2.31779">
        <ele>48.8</ele>
        <time>2025-01-16T14:44:32Z</time>
      </trkpt>
      <trkpt lat="47.58783" lon="-2.31779">
        <ele>48.8</ele>
        <time>2025-01-16T14:44:33Z</time>
      </trkpt>
      <trkpt lat="47.58783" lon="-2.3178">
        <ele>48.8</ele>
        <time>2025-01-16T14:44:34Z</time>
      </trkpt>
      <trkpt lat="47.58783" lon="-2.3178">
        <ele>48.8</ele>
        <time>2025-01-16T14:44:35Z</time>
      </trkpt>
      <trkpt lat="47.58784" lon="-2.3178">
        <ele>48.9</ele>
        <time>2025-01-16T14:44:36Z</time>
      </trkpt>
      <trkpt lat="47.58784" lon="-2.3178">
        <ele>48.9</ele>
        <time>2025-01-16T14:44:37Z</time>
      </trkpt>
      <trkpt lat="47.58784" lon="-2.3178">
        <ele>48.9</ele>
        <time>2025-01-16T14:44:38Z</time>
      </trkpt>
      <trkpt lat="47.58785" lon="-2.31779">
        <ele>49</ele>
        <time>2025-01-16T14:44:39Z</time>
      </trkpt>
      <trkpt lat="47.58784" lon="-2.31779">
        <ele>48.9</ele>
        <time>2025-01-16T14:44:40Z</time>
      </trkpt>
    </trkseg>
  </trk>
</gpx>